<?xml version="1.0" encoding="UTF-8"?>
<gpx version="1.1" creator="https://www.youtrack.es" xsi:schemaLocation="http://www.topografix.com/GPX/1/1 http://www.topografix.com/GPX/1/1/gpx.xsd http://www.garmin.com/xmlschemas/GpxExtensions/v3 http://www.garmin.com/xmlschemas/GpxExtensionsv3.xsd http://www.garmin.com/xmlschemas/TrackPointExtension/v1 http://www.garmin.com/xmlschemas/TrackPointExtensionv1.xsd" xmlns:gpxtpx="http://www.garmin.com/xmlschemas/TrackPointExtension/v1" xmlns:gpxx="http://www.garmin.com/xmlschemas/GpxExtensions/v3" xmlns:xsi="http://www.w3.org/2001/XMLSchema-instance">
  <metadata>
    <author>
      <name>Javier Rodriguez</name>
      <email id="javierrodriguezolmos" domain="gmail.com"/>
    </author>
    <link href="https://www.youtrack.es">
      <text>YouTrack.es</text>
    </link>
    <time>2026-05-10T12:18:43Z</time>
  </metadata>
  <trk>
    <src>https://www.youtrack.es</src>
    <link href="https://www.youtrack.es/ruta/15845-ruta-larga">
      <text>YouTrack.es</text>
    </link>
    <trkseg>
      <trkpt lat="41.0010140" lon="-2.1590010">
        <ele>1242.2</ele>
        <time>2020-09-12T07:38:31Z</time>
      </trkpt>
      <trkpt lat="41.0010130" lon="-2.1590020">
        <ele>1230.6</ele>
        <time>2020-09-12T07:38:32Z</time>
      </trkpt>
      <trkpt lat="41.0010120" lon="-2.1590020">
        <ele>1221.0</ele>
        <time>2020-09-12T07:38:33Z</time>
      </trkpt>
      <trkpt lat="41.0010110" lon="-2.1590040">
        <ele>1216.0</ele>
        <time>2020-09-12T07:38:34Z</time>
      </trkpt>
      <trkpt lat="41.0010080" lon="-2.1590100">
        <ele>1213.2</ele>
        <time>2020-09-12T07:38:35Z</time>
      </trkpt>
      <trkpt lat="41.0009990" lon="-2.1590300">
        <ele>1211.8</ele>
        <time>2020-09-12T07:38:36Z</time>
      </trkpt>
      <trkpt lat="41.0009900" lon="-2.1590570">
        <ele>1211.0</ele>
        <time>2020-09-12T07:38:37Z</time>
      </trkpt>
      <trkpt lat="41.0009860" lon="-2.1590900">
        <ele>1210.8</ele>
        <time>2020-09-12T07:38:38Z</time>
      </trkpt>
      <trkpt lat="41.0009880" lon="-2.1591270">
        <ele>1210.6</ele>
        <time>2020-09-12T07:38:39Z</time>
      </trkpt>
      <trkpt lat="41.0009950" lon="-2.1591650">
        <ele>1210.4</ele>
        <time>2020-09-12T07:38:40Z</time>
      </trkpt>
      <trkpt lat="41.0010050" lon="-2.1592000">
        <ele>1210.2</ele>
        <time>2020-09-12T07:38:41Z</time>
      </trkpt>
      <trkpt lat="41.0010120" lon="-2.1592370">
        <ele>1210.2</ele>
        <time>2020-09-12T07:38:42Z</time>
      </trkpt>
      <trkpt lat="41.0010130" lon="-2.1592730">
        <ele>1210.0</ele>
        <time>2020-09-12T07:38:43Z</time>
      </trkpt>
      <trkpt lat="41.0010080" lon="-2.1593090">
        <ele>1209.8</ele>
        <time>2020-09-12T07:38:44Z</time>
      </trkpt>
      <trkpt lat="41.0009960" lon="-2.1593410">
        <ele>1209.6</ele>
        <time>2020-09-12T07:38:45Z</time>
      </trkpt>
      <trkpt lat="41.0009750" lon="-2.1593640">
        <ele>1210.2</ele>
        <time>2020-09-12T07:38:46Z</time>
      </trkpt>
      <trkpt lat="41.0009500" lon="-2.1593790">
        <ele>1210.2</ele>
        <time>2020-09-12T07:38:47Z</time>
      </trkpt>
      <trkpt lat="41.0009230" lon="-2.1593900">
        <ele>1210.0</ele>
        <time>2020-09-12T07:38:48Z</time>
      </trkpt>
      <trkpt lat="41.0008940" lon="-2.1594030">
        <ele>1210.2</ele>
        <time>2020-09-12T07:38:49Z</time>
      </trkpt>
      <trkpt lat="41.0008650" lon="-2.1594220">
        <ele>1210.2</ele>
        <time>2020-09-12T07:38:50Z</time>
      </trkpt>
      <trkpt lat="41.0008420" lon="-2.1594470">
        <ele>1210.2</ele>
        <time>2020-09-12T07:38:51Z</time>
      </trkpt>
      <trkpt lat="41.0008310" lon="-2.1594820">
        <ele>1210.6</ele>
        <time>2020-09-12T07:38:52Z</time>
      </trkpt>
      <trkpt lat="41.0008250" lon="-2.1595230">
        <ele>1210.4</ele>
        <time>2020-09-12T07:38:53Z</time>
      </trkpt>
      <trkpt lat="41.0008180" lon="-2.1595580">
        <ele>1210.2</ele>
        <time>2020-09-12T07:38:54Z</time>
      </trkpt>
      <trkpt lat="41.0008070" lon="-2.1595900">
        <ele>1210.2</ele>
        <time>2020-09-12T07:38:55Z</time>
      </trkpt>
      <trkpt lat="41.0007920" lon="-2.1596180">
        <ele>1210.2</ele>
        <time>2020-09-12T07:38:56Z</time>
      </trkpt>
      <trkpt lat="41.0007770" lon="-2.1596430">
        <ele>1210.2</ele>
        <time>2020-09-12T07:38:57Z</time>
      </trkpt>
      <trkpt lat="41.0007660" lon="-2.1596710">
        <ele>1210.2</ele>
        <time>2020-09-12T07:38:58Z</time>
      </trkpt>
      <trkpt lat="41.0007560" lon="-2.1597020">
        <ele>1210.2</ele>
        <time>2020-09-12T07:38:59Z</time>
      </trkpt>
      <trkpt lat="41.0007440" lon="-2.1597380">
        <ele>1210.2</ele>
        <time>2020-09-12T07:39:00Z</time>
      </trkpt>
      <trkpt lat="41.0007190" lon="-2.1597730">
        <ele>1210.0</ele>
        <time>2020-09-12T07:39:01Z</time>
      </trkpt>
      <trkpt lat="41.0006990" lon="-2.1598170">
        <ele>1210.0</ele>
        <time>2020-09-12T07:39:02Z</time>
      </trkpt>
      <trkpt lat="41.0006730" lon="-2.1598550">
        <ele>1209.8</ele>
        <time>2020-09-12T07:39:03Z</time>
      </trkpt>
      <trkpt lat="41.0006470" lon="-2.1598860">
        <ele>1209.6</ele>
        <time>2020-09-12T07:39:04Z</time>
      </trkpt>
      <trkpt lat="41.0006300" lon="-2.1599230">
        <ele>1209.4</ele>
        <time>2020-09-12T07:39:05Z</time>
      </trkpt>
      <trkpt lat="41.0006180" lon="-2.1599720">
        <ele>1209.2</ele>
        <time>2020-09-12T07:39:06Z</time>
      </trkpt>
      <trkpt lat="41.0006160" lon="-2.1600250">
        <ele>1209.0</ele>
        <time>2020-09-12T07:39:07Z</time>
      </trkpt>
      <trkpt lat="41.0006180" lon="-2.1600710">
        <ele>1209.0</ele>
        <time>2020-09-12T07:39:08Z</time>
      </trkpt>
      <trkpt lat="41.0006230" lon="-2.1601210">
        <ele>1208.8</ele>
        <time>2020-09-12T07:39:09Z</time>
      </trkpt>
      <trkpt lat="41.0006300" lon="-2.1601700">
        <ele>1208.8</ele>
        <time>2020-09-12T07:39:10Z</time>
      </trkpt>
      <trkpt lat="41.0006340" lon="-2.1602150">
        <ele>1208.6</ele>
        <time>2020-09-12T07:39:11Z</time>
      </trkpt>
      <trkpt lat="41.0006360" lon="-2.1602610">
        <ele>1208.6</ele>
        <time>2020-09-12T07:39:12Z</time>
      </trkpt>
      <trkpt lat="41.0006380" lon="-2.1603060">
        <ele>1208.6</ele>
        <time>2020-09-12T07:39:13Z</time>
      </trkpt>
      <trkpt lat="41.0006440" lon="-2.1603520">
        <ele>1208.8</ele>
        <time>2020-09-12T07:39:14Z</time>
      </trkpt>
      <trkpt lat="41.0006530" lon="-2.1603980">
        <ele>1209.0</ele>
        <time>2020-09-12T07:39:15Z</time>
      </trkpt>
      <trkpt lat="41.0006680" lon="-2.1604410">
        <ele>1209.0</ele>
        <time>2020-09-12T07:39:16Z</time>
      </trkpt>
      <trkpt lat="41.0006790" lon="-2.1604860">
        <ele>1209.2</ele>
        <time>2020-09-12T07:39:17Z</time>
      </trkpt>
      <trkpt lat="41.0006900" lon="-2.1605300">
        <ele>1209.4</ele>
        <time>2020-09-12T07:39:18Z</time>
      </trkpt>
      <trkpt lat="41.0007000" lon="-2.1605750">
        <ele>1209.4</ele>
        <time>2020-09-12T07:39:19Z</time>
      </trkpt>
      <trkpt lat="41.0007080" lon="-2.1606190">
        <ele>1209.4</ele>
        <time>2020-09-12T07:39:20Z</time>
      </trkpt>
      <trkpt lat="41.0007130" lon="-2.1606650">
        <ele>1209.6</ele>
        <time>2020-09-12T07:39:21Z</time>
      </trkpt>
      <trkpt lat="41.0007180" lon="-2.1607080">
        <ele>1209.6</ele>
        <time>2020-09-12T07:39:22Z</time>
      </trkpt>
      <trkpt lat="41.0007200" lon="-2.1607510">
        <ele>1209.6</ele>
        <time>2020-09-12T07:39:23Z</time>
      </trkpt>
      <trkpt lat="41.0007200" lon="-2.1607940">
        <ele>1209.6</ele>
        <time>2020-09-12T07:39:24Z</time>
      </trkpt>
      <trkpt lat="41.0007140" lon="-2.1608360">
        <ele>1209.6</ele>
        <time>2020-09-12T07:39:25Z</time>
      </trkpt>
      <trkpt lat="41.0007070" lon="-2.1608780">
        <ele>1209.8</ele>
        <time>2020-09-12T07:39:26Z</time>
      </trkpt>
      <trkpt lat="41.0006960" lon="-2.1609180">
        <ele>1209.8</ele>
        <time>2020-09-12T07:39:27Z</time>
      </trkpt>
      <trkpt lat="41.0006810" lon="-2.1609570">
        <ele>1210.0</ele>
        <time>2020-09-12T07:39:28Z</time>
      </trkpt>
      <trkpt lat="41.0006590" lon="-2.1609940">
        <ele>1210.2</ele>
        <time>2020-09-12T07:39:29Z</time>
      </trkpt>
      <trkpt lat="41.0006330" lon="-2.1610260">
        <ele>1210.2</ele>
        <time>2020-09-12T07:39:30Z</time>
      </trkpt>
      <trkpt lat="41.0006040" lon="-2.1610550">
        <ele>1210.4</ele>
        <time>2020-09-12T07:39:31Z</time>
      </trkpt>
      <trkpt lat="41.0005720" lon="-2.1610830">
        <ele>1210.6</ele>
        <time>2020-09-12T07:39:32Z</time>
      </trkpt>
      <trkpt lat="41.0005390" lon="-2.1611090">
        <ele>1210.6</ele>
        <time>2020-09-12T07:39:33Z</time>
      </trkpt>
      <trkpt lat="41.0005050" lon="-2.1611370">
        <ele>1210.6</ele>
        <time>2020-09-12T07:39:34Z</time>
      </trkpt>
      <trkpt lat="41.0004690" lon="-2.1611660">
        <ele>1210.6</ele>
        <time>2020-09-12T07:39:35Z</time>
      </trkpt>
      <trkpt lat="41.0004330" lon="-2.1611940">
        <ele>1210.6</ele>
        <time>2020-09-12T07:39:36Z</time>
      </trkpt>
      <trkpt lat="41.0003970" lon="-2.1612210">
        <ele>1210.6</ele>
        <time>2020-09-12T07:39:37Z</time>
      </trkpt>
      <trkpt lat="41.0003600" lon="-2.1612480">
        <ele>1210.6</ele>
        <time>2020-09-12T07:39:38Z</time>
      </trkpt>
      <trkpt lat="41.0003230" lon="-2.1612760">
        <ele>1210.6</ele>
        <time>2020-09-12T07:39:39Z</time>
      </trkpt>
      <trkpt lat="41.0002870" lon="-2.1613070">
        <ele>1210.8</ele>
        <time>2020-09-12T07:39:40Z</time>
      </trkpt>
      <trkpt lat="41.0002520" lon="-2.1613400">
        <ele>1210.8</ele>
        <time>2020-09-12T07:39:41Z</time>
      </trkpt>
      <trkpt lat="41.0002190" lon="-2.1613760">
        <ele>1210.8</ele>
        <time>2020-09-12T07:39:42Z</time>
      </trkpt>
      <trkpt lat="41.0001880" lon="-2.1614170">
        <ele>1210.8</ele>
        <time>2020-09-12T07:39:43Z</time>
      </trkpt>
      <trkpt lat="41.0001600" lon="-2.1614600">
        <ele>1210.8</ele>
        <time>2020-09-12T07:39:44Z</time>
      </trkpt>
      <trkpt lat="41.0001340" lon="-2.1615050">
        <ele>1210.8</ele>
        <time>2020-09-12T07:39:45Z</time>
      </trkpt>
      <trkpt lat="41.0001100" lon="-2.1615540">
        <ele>1210.8</ele>
        <time>2020-09-12T07:39:46Z</time>
      </trkpt>
      <trkpt lat="41.0000890" lon="-2.1616030">
        <ele>1210.8</ele>
        <time>2020-09-12T07:39:47Z</time>
      </trkpt>
      <trkpt lat="41.0000680" lon="-2.1616540">
        <ele>1211.0</ele>
        <time>2020-09-12T07:39:48Z</time>
      </trkpt>
      <trkpt lat="41.0000480" lon="-2.1617060">
        <ele>1211.0</ele>
        <time>2020-09-12T07:39:49Z</time>
      </trkpt>
      <trkpt lat="41.0000300" lon="-2.1617580">
        <ele>1211.0</ele>
        <time>2020-09-12T07:39:50Z</time>
      </trkpt>
      <trkpt lat="41.0000150" lon="-2.1618100">
        <ele>1211.0</ele>
        <time>2020-09-12T07:39:51Z</time>
      </trkpt>
      <trkpt lat="41.0000000" lon="-2.1618600">
        <ele>1211.0</ele>
        <time>2020-09-12T07:39:52Z</time>
      </trkpt>
      <trkpt lat="40.9999870" lon="-2.1619090">
        <ele>1211.2</ele>
        <time>2020-09-12T07:39:53Z</time>
      </trkpt>
      <trkpt lat="40.9999740" lon="-2.1619560">
        <ele>1211.2</ele>
        <time>2020-09-12T07:39:54Z</time>
      </trkpt>
      <trkpt lat="40.9999630" lon="-2.1620020">
        <ele>1211.4</ele>
        <time>2020-09-12T07:39:55Z</time>
      </trkpt>
      <trkpt lat="40.9999540" lon="-2.1620460">
        <ele>1211.6</ele>
        <time>2020-09-12T07:39:56Z</time>
      </trkpt>
      <trkpt lat="40.9999480" lon="-2.1620910">
        <ele>1211.8</ele>
        <time>2020-09-12T07:39:57Z</time>
      </trkpt>
      <trkpt lat="40.9999410" lon="-2.1621360">
        <ele>1212.2</ele>
        <time>2020-09-12T07:39:58Z</time>
      </trkpt>
      <trkpt lat="40.9999360" lon="-2.1621800">
        <ele>1212.4</ele>
        <time>2020-09-12T07:39:59Z</time>
      </trkpt>
      <trkpt lat="40.9999310" lon="-2.1622240">
        <ele>1212.8</ele>
        <time>2020-09-12T07:40:00Z</time>
      </trkpt>
      <trkpt lat="40.9999270" lon="-2.1622680">
        <ele>1213.0</ele>
        <time>2020-09-12T07:40:01Z</time>
      </trkpt>
      <trkpt lat="40.9999230" lon="-2.1623110">
        <ele>1213.2</ele>
        <time>2020-09-12T07:40:02Z</time>
      </trkpt>
      <trkpt lat="40.9999190" lon="-2.1623530">
        <ele>1213.4</ele>
        <time>2020-09-12T07:40:03Z</time>
      </trkpt>
      <trkpt lat="40.9999150" lon="-2.1623930">
        <ele>1213.6</ele>
        <time>2020-09-12T07:40:04Z</time>
      </trkpt>
      <trkpt lat="40.9999130" lon="-2.1624340">
        <ele>1213.8</ele>
        <time>2020-09-12T07:40:05Z</time>
      </trkpt>
      <trkpt lat="40.9999100" lon="-2.1624750">
        <ele>1214.0</ele>
        <time>2020-09-12T07:40:06Z</time>
      </trkpt>
      <trkpt lat="40.9999080" lon="-2.1625170">
        <ele>1214.2</ele>
        <time>2020-09-12T07:40:07Z</time>
      </trkpt>
      <trkpt lat="40.9999060" lon="-2.1625590">
        <ele>1214.4</ele>
        <time>2020-09-12T07:40:08Z</time>
      </trkpt>
      <trkpt lat="40.9999040" lon="-2.1626000">
        <ele>1214.6</ele>
        <time>2020-09-12T07:40:09Z</time>
      </trkpt>
      <trkpt lat="40.9999020" lon="-2.1626410">
        <ele>1214.8</ele>
        <time>2020-09-12T07:40:10Z</time>
      </trkpt>
      <trkpt lat="40.9999000" lon="-2.1626820">
        <ele>1214.8</ele>
        <time>2020-09-12T07:40:11Z</time>
      </trkpt>
      <trkpt lat="40.9998960" lon="-2.1627250">
        <ele>1215.0</ele>
        <time>2020-09-12T07:40:12Z</time>
      </trkpt>
      <trkpt lat="40.9998910" lon="-2.1627660">
        <ele>1215.0</ele>
        <time>2020-09-12T07:40:13Z</time>
      </trkpt>
      <trkpt lat="40.9998850" lon="-2.1628060">
        <ele>1215.2</ele>
        <time>2020-09-12T07:40:14Z</time>
      </trkpt>
      <trkpt lat="40.9998800" lon="-2.1628450">
        <ele>1215.6</ele>
        <time>2020-09-12T07:40:15Z</time>
      </trkpt>
      <trkpt lat="40.9998750" lon="-2.1628840">
        <ele>1215.8</ele>
        <time>2020-09-12T07:40:16Z</time>
      </trkpt>
      <trkpt lat="40.9998700" lon="-2.1629230">
        <ele>1216.0</ele>
        <time>2020-09-12T07:40:17Z</time>
      </trkpt>
      <trkpt lat="40.9998630" lon="-2.1629610">
        <ele>1216.2</ele>
        <time>2020-09-12T07:40:18Z</time>
      </trkpt>
      <trkpt lat="40.9998530" lon="-2.1629990">
        <ele>1216.6</ele>
        <time>2020-09-12T07:40:19Z</time>
      </trkpt>
      <trkpt lat="40.9998440" lon="-2.1630380">
        <ele>1217.0</ele>
        <time>2020-09-12T07:40:20Z</time>
      </trkpt>
      <trkpt lat="40.9998340" lon="-2.1630760">
        <ele>1217.2</ele>
        <time>2020-09-12T07:40:21Z</time>
      </trkpt>
      <trkpt lat="40.9998210" lon="-2.1631120">
        <ele>1217.4</ele>
        <time>2020-09-12T07:40:22Z</time>
      </trkpt>
      <trkpt lat="40.9998060" lon="-2.1631490">
        <ele>1217.6</ele>
        <time>2020-09-12T07:40:23Z</time>
      </trkpt>
      <trkpt lat="40.9997880" lon="-2.1631850">
        <ele>1217.8</ele>
        <time>2020-09-12T07:40:24Z</time>
      </trkpt>
      <trkpt lat="40.9997690" lon="-2.1632200">
        <ele>1217.8</ele>
        <time>2020-09-12T07:40:25Z</time>
      </trkpt>
      <trkpt lat="40.9997470" lon="-2.1632530">
        <ele>1218.0</ele>
        <time>2020-09-12T07:40:26Z</time>
      </trkpt>
      <trkpt lat="40.9997240" lon="-2.1632850">
        <ele>1218.2</ele>
        <time>2020-09-12T07:40:27Z</time>
      </trkpt>
      <trkpt lat="40.9997000" lon="-2.1633160">
        <ele>1218.4</ele>
        <time>2020-09-12T07:40:28Z</time>
      </trkpt>
      <trkpt lat="40.9996740" lon="-2.1633460">
        <ele>1218.4</ele>
        <time>2020-09-12T07:40:29Z</time>
      </trkpt>
      <trkpt lat="40.9996470" lon="-2.1633730">
        <ele>1218.8</ele>
        <time>2020-09-12T07:40:30Z</time>
      </trkpt>
      <trkpt lat="40.9996200" lon="-2.1634010">
        <ele>1219.0</ele>
        <time>2020-09-12T07:40:31Z</time>
      </trkpt>
      <trkpt lat="40.9995920" lon="-2.1634280">
        <ele>1219.2</ele>
        <time>2020-09-12T07:40:32Z</time>
      </trkpt>
      <trkpt lat="40.9995640" lon="-2.1634550">
        <ele>1219.2</ele>
        <time>2020-09-12T07:40:33Z</time>
      </trkpt>
      <trkpt lat="40.9995360" lon="-2.1634830">
        <ele>1219.4</ele>
        <time>2020-09-12T07:40:34Z</time>
      </trkpt>
      <trkpt lat="40.9995070" lon="-2.1635120">
        <ele>1219.6</ele>
        <time>2020-09-12T07:40:35Z</time>
      </trkpt>
      <trkpt lat="40.9994770" lon="-2.1635410">
        <ele>1219.6</ele>
        <time>2020-09-12T07:40:36Z</time>
      </trkpt>
      <trkpt lat="40.9994460" lon="-2.1635690">
        <ele>1219.8</ele>
        <time>2020-09-12T07:40:37Z</time>
      </trkpt>
      <trkpt lat="40.9994150" lon="-2.1635960">
        <ele>1219.8</ele>
        <time>2020-09-12T07:40:38Z</time>
      </trkpt>
      <trkpt lat="40.9993850" lon="-2.1636240">
        <ele>1220.0</ele>
        <time>2020-09-12T07:40:39Z</time>
      </trkpt>
      <trkpt lat="40.9993520" lon="-2.1636510">
        <ele>1220.2</ele>
        <time>2020-09-12T07:40:40Z</time>
      </trkpt>
      <trkpt lat="40.9993200" lon="-2.1636770">
        <ele>1220.2</ele>
        <time>2020-09-12T07:40:41Z</time>
      </trkpt>
      <trkpt lat="40.9992880" lon="-2.1637050">
        <ele>1220.2</ele>
        <time>2020-09-12T07:40:42Z</time>
      </trkpt>
      <trkpt lat="40.9992550" lon="-2.1637330">
        <ele>1220.4</ele>
        <time>2020-09-12T07:40:43Z</time>
      </trkpt>
      <trkpt lat="40.9992240" lon="-2.1637650">
        <ele>1220.4</ele>
        <time>2020-09-12T07:40:44Z</time>
      </trkpt>
      <trkpt lat="40.9991920" lon="-2.1637970">
        <ele>1220.6</ele>
        <time>2020-09-12T07:40:45Z</time>
      </trkpt>
      <trkpt lat="40.9991600" lon="-2.1638290">
        <ele>1220.6</ele>
        <time>2020-09-12T07:40:46Z</time>
      </trkpt>
      <trkpt lat="40.9991280" lon="-2.1638620">
        <ele>1220.8</ele>
        <time>2020-09-12T07:40:47Z</time>
      </trkpt>
      <trkpt lat="40.9990950" lon="-2.1638950">
        <ele>1220.8</ele>
        <time>2020-09-12T07:40:48Z</time>
      </trkpt>
      <trkpt lat="40.9990620" lon="-2.1639280">
        <ele>1221.0</ele>
        <time>2020-09-12T07:40:49Z</time>
      </trkpt>
      <trkpt lat="40.9990290" lon="-2.1639630">
        <ele>1221.2</ele>
        <time>2020-09-12T07:40:50Z</time>
      </trkpt>
      <trkpt lat="40.9989970" lon="-2.1640000">
        <ele>1221.2</ele>
        <time>2020-09-12T07:40:51Z</time>
      </trkpt>
      <trkpt lat="40.9989640" lon="-2.1640370">
        <ele>1221.2</ele>
        <time>2020-09-12T07:40:52Z</time>
      </trkpt>
      <trkpt lat="40.9989330" lon="-2.1640750">
        <ele>1221.4</ele>
        <time>2020-09-12T07:40:53Z</time>
      </trkpt>
      <trkpt lat="40.9989020" lon="-2.1641120">
        <ele>1221.4</ele>
        <time>2020-09-12T07:40:54Z</time>
      </trkpt>
      <trkpt lat="40.9988710" lon="-2.1641500">
        <ele>1221.4</ele>
        <time>2020-09-12T07:40:55Z</time>
      </trkpt>
      <trkpt lat="40.9988420" lon="-2.1641880">
        <ele>1221.6</ele>
        <time>2020-09-12T07:40:56Z</time>
      </trkpt>
      <trkpt lat="40.9988130" lon="-2.1642270">
        <ele>1221.6</ele>
        <time>2020-09-12T07:40:57Z</time>
      </trkpt>
      <trkpt lat="40.9987850" lon="-2.1642650">
        <ele>1221.6</ele>
        <time>2020-09-12T07:40:58Z</time>
      </trkpt>
      <trkpt lat="40.9987580" lon="-2.1643050">
        <ele>1221.6</ele>
        <time>2020-09-12T07:40:59Z</time>
      </trkpt>
      <trkpt lat="40.9987320" lon="-2.1643450">
        <ele>1221.8</ele>
        <time>2020-09-12T07:41:00Z</time>
      </trkpt>
      <trkpt lat="40.9987070" lon="-2.1643860">
        <ele>1222.2</ele>
        <time>2020-09-12T07:41:01Z</time>
      </trkpt>
      <trkpt lat="40.9986810" lon="-2.1644260">
        <ele>1222.2</ele>
        <time>2020-09-12T07:41:02Z</time>
      </trkpt>
      <trkpt lat="40.9986550" lon="-2.1644650">
        <ele>1222.4</ele>
        <time>2020-09-12T07:41:03Z</time>
      </trkpt>
      <trkpt lat="40.9986310" lon="-2.1645060">
        <ele>1222.6</ele>
        <time>2020-09-12T07:41:04Z</time>
      </trkpt>
      <trkpt lat="40.9986080" lon="-2.1645480">
        <ele>1222.8</ele>
        <time>2020-09-12T07:41:05Z</time>
      </trkpt>
      <trkpt lat="40.9985840" lon="-2.1645900">
        <ele>1223.0</ele>
        <time>2020-09-12T07:41:06Z</time>
      </trkpt>
      <trkpt lat="40.9985620" lon="-2.1646310">
        <ele>1223.2</ele>
        <time>2020-09-12T07:41:07Z</time>
      </trkpt>
      <trkpt lat="40.9985410" lon="-2.1646720">
        <ele>1223.4</ele>
        <time>2020-09-12T07:41:08Z</time>
      </trkpt>
      <trkpt lat="40.9985190" lon="-2.1647140">
        <ele>1223.6</ele>
        <time>2020-09-12T07:41:09Z</time>
      </trkpt>
      <trkpt lat="40.9984990" lon="-2.1647570">
        <ele>1223.6</ele>
        <time>2020-09-12T07:41:10Z</time>
      </trkpt>
      <trkpt lat="40.9984800" lon="-2.1648000">
        <ele>1223.8</ele>
        <time>2020-09-12T07:41:11Z</time>
      </trkpt>
      <trkpt lat="40.9984600" lon="-2.1648420">
        <ele>1223.8</ele>
        <time>2020-09-12T07:41:12Z</time>
      </trkpt>
      <trkpt lat="40.9984410" lon="-2.1648860">
        <ele>1224.0</ele>
        <time>2020-09-12T07:41:13Z</time>
      </trkpt>
      <trkpt lat="40.9984230" lon="-2.1649310">
        <ele>1224.0</ele>
        <time>2020-09-12T07:41:14Z</time>
      </trkpt>
      <trkpt lat="40.9984070" lon="-2.1649760">
        <ele>1224.2</ele>
        <time>2020-09-12T07:41:15Z</time>
      </trkpt>
      <trkpt lat="40.9983900" lon="-2.1650200">
        <ele>1224.4</ele>
        <time>2020-09-12T07:41:16Z</time>
      </trkpt>
      <trkpt lat="40.9983720" lon="-2.1650630">
        <ele>1224.6</ele>
        <time>2020-09-12T07:41:17Z</time>
      </trkpt>
      <trkpt lat="40.9983540" lon="-2.1651070">
        <ele>1224.6</ele>
        <time>2020-09-12T07:41:18Z</time>
      </trkpt>
      <trkpt lat="40.9983380" lon="-2.1651520">
        <ele>1224.8</ele>
        <time>2020-09-12T07:41:19Z</time>
      </trkpt>
      <trkpt lat="40.9983240" lon="-2.1651970">
        <ele>1225.0</ele>
        <time>2020-09-12T07:41:20Z</time>
      </trkpt>
      <trkpt lat="40.9983090" lon="-2.1652420">
        <ele>1225.2</ele>
        <time>2020-09-12T07:41:21Z</time>
      </trkpt>
      <trkpt lat="40.9982940" lon="-2.1652880">
        <ele>1225.2</ele>
        <time>2020-09-12T07:41:22Z</time>
      </trkpt>
      <trkpt lat="40.9982790" lon="-2.1653330">
        <ele>1225.4</ele>
        <time>2020-09-12T07:41:23Z</time>
      </trkpt>
      <trkpt lat="40.9982640" lon="-2.1653800">
        <ele>1225.6</ele>
        <time>2020-09-12T07:41:24Z</time>
      </trkpt>
      <trkpt lat="40.9982500" lon="-2.1654270">
        <ele>1225.6</ele>
        <time>2020-09-12T07:41:25Z</time>
      </trkpt>
      <trkpt lat="40.9982350" lon="-2.1654750">
        <ele>1225.8</ele>
        <time>2020-09-12T07:41:26Z</time>
      </trkpt>
      <trkpt lat="40.9982210" lon="-2.1655230">
        <ele>1226.2</ele>
        <time>2020-09-12T07:41:27Z</time>
      </trkpt>
      <trkpt lat="40.9982080" lon="-2.1655710">
        <ele>1226.4</ele>
        <time>2020-09-12T07:41:28Z</time>
      </trkpt>
      <trkpt lat="40.9981950" lon="-2.1656200">
        <ele>1226.6</ele>
        <time>2020-09-12T07:41:29Z</time>
      </trkpt>
      <trkpt lat="40.9981830" lon="-2.1656700">
        <ele>1226.8</ele>
        <time>2020-09-12T07:41:30Z</time>
      </trkpt>
      <trkpt lat="40.9981710" lon="-2.1657190">
        <ele>1227.2</ele>
        <time>2020-09-12T07:41:31Z</time>
      </trkpt>
      <trkpt lat="40.9981610" lon="-2.1657690">
        <ele>1227.4</ele>
        <time>2020-09-12T07:41:32Z</time>
      </trkpt>
      <trkpt lat="40.9981520" lon="-2.1658210">
        <ele>1227.6</ele>
        <time>2020-09-12T07:41:33Z</time>
      </trkpt>
      <trkpt lat="40.9981420" lon="-2.1658720">
        <ele>1227.6</ele>
        <time>2020-09-12T07:41:34Z</time>
      </trkpt>
      <trkpt lat="40.9981330" lon="-2.1659220">
        <ele>1227.8</ele>
        <time>2020-09-12T07:41:35Z</time>
      </trkpt>
      <trkpt lat="40.9981240" lon="-2.1659720">
        <ele>1227.8</ele>
        <time>2020-09-12T07:41:36Z</time>
      </trkpt>
      <trkpt lat="40.9981150" lon="-2.1660220">
        <ele>1228.0</ele>
        <time>2020-09-12T07:41:37Z</time>
      </trkpt>
      <trkpt lat="40.9981060" lon="-2.1660720">
        <ele>1228.0</ele>
        <time>2020-09-12T07:41:38Z</time>
      </trkpt>
      <trkpt lat="40.9980980" lon="-2.1661220">
        <ele>1228.2</ele>
        <time>2020-09-12T07:41:39Z</time>
      </trkpt>
      <trkpt lat="40.9980910" lon="-2.1661720">
        <ele>1228.2</ele>
        <time>2020-09-12T07:41:40Z</time>
      </trkpt>
      <trkpt lat="40.9980850" lon="-2.1662230">
        <ele>1228.2</ele>
        <time>2020-09-12T07:41:41Z</time>
      </trkpt>
      <trkpt lat="40.9980800" lon="-2.1662740">
        <ele>1228.2</ele>
        <time>2020-09-12T07:41:42Z</time>
      </trkpt>
      <trkpt lat="40.9980760" lon="-2.1663260">
        <ele>1228.2</ele>
        <time>2020-09-12T07:41:43Z</time>
      </trkpt>
      <trkpt lat="40.9980710" lon="-2.1663780">
        <ele>1228.4</ele>
        <time>2020-09-12T07:41:44Z</time>
      </trkpt>
      <trkpt lat="40.9980650" lon="-2.1664290">
        <ele>1228.6</ele>
        <time>2020-09-12T07:41:45Z</time>
      </trkpt>
      <trkpt lat="40.9980600" lon="-2.1664800">
        <ele>1228.8</ele>
        <time>2020-09-12T07:41:46Z</time>
      </trkpt>
      <trkpt lat="40.9980570" lon="-2.1665320">
        <ele>1229.0</ele>
        <time>2020-09-12T07:41:47Z</time>
      </trkpt>
      <trkpt lat="40.9980520" lon="-2.1665840">
        <ele>1229.0</ele>
        <time>2020-09-12T07:41:48Z</time>
      </trkpt>
      <trkpt lat="40.9980480" lon="-2.1666370">
        <ele>1229.2</ele>
        <time>2020-09-12T07:41:49Z</time>
      </trkpt>
      <trkpt lat="40.9980430" lon="-2.1666900">
        <ele>1229.4</ele>
        <time>2020-09-12T07:41:50Z</time>
      </trkpt>
      <trkpt lat="40.9980400" lon="-2.1667410">
        <ele>1229.6</ele>
        <time>2020-09-12T07:41:51Z</time>
      </trkpt>
      <trkpt lat="40.9980340" lon="-2.1667930">
        <ele>1229.8</ele>
        <time>2020-09-12T07:41:52Z</time>
      </trkpt>
      <trkpt lat="40.9980290" lon="-2.1668460">
        <ele>1229.8</ele>
        <time>2020-09-12T07:41:53Z</time>
      </trkpt>
      <trkpt lat="40.9980240" lon="-2.1668990">
        <ele>1230.0</ele>
        <time>2020-09-12T07:41:54Z</time>
      </trkpt>
      <trkpt lat="40.9980190" lon="-2.1669520">
        <ele>1230.0</ele>
        <time>2020-09-12T07:41:55Z</time>
      </trkpt>
      <trkpt lat="40.9980130" lon="-2.1670040">
        <ele>1230.2</ele>
        <time>2020-09-12T07:41:56Z</time>
      </trkpt>
      <trkpt lat="40.9980070" lon="-2.1670560">
        <ele>1230.2</ele>
        <time>2020-09-12T07:41:57Z</time>
      </trkpt>
      <trkpt lat="40.9980020" lon="-2.1671080">
        <ele>1230.4</ele>
        <time>2020-09-12T07:41:58Z</time>
      </trkpt>
      <trkpt lat="40.9979970" lon="-2.1671590">
        <ele>1230.6</ele>
        <time>2020-09-12T07:41:59Z</time>
      </trkpt>
      <trkpt lat="40.9979920" lon="-2.1672100">
        <ele>1230.6</ele>
        <time>2020-09-12T07:42:00Z</time>
      </trkpt>
      <trkpt lat="40.9979850" lon="-2.1672610">
        <ele>1230.6</ele>
        <time>2020-09-12T07:42:01Z</time>
      </trkpt>
      <trkpt lat="40.9979790" lon="-2.1673130">
        <ele>1230.6</ele>
        <time>2020-09-12T07:42:02Z</time>
      </trkpt>
      <trkpt lat="40.9979730" lon="-2.1673640">
        <ele>1230.8</ele>
        <time>2020-09-12T07:42:03Z</time>
      </trkpt>
      <trkpt lat="40.9979670" lon="-2.1674170">
        <ele>1231.0</ele>
        <time>2020-09-12T07:42:04Z</time>
      </trkpt>
      <trkpt lat="40.9979610" lon="-2.1674700">
        <ele>1231.2</ele>
        <time>2020-09-12T07:42:05Z</time>
      </trkpt>
      <trkpt lat="40.9979550" lon="-2.1675230">
        <ele>1231.2</ele>
        <time>2020-09-12T07:42:06Z</time>
      </trkpt>
      <trkpt lat="40.9979470" lon="-2.1675760">
        <ele>1231.2</ele>
        <time>2020-09-12T07:42:07Z</time>
      </trkpt>
      <trkpt lat="40.9979380" lon="-2.1676300">
        <ele>1231.4</ele>
        <time>2020-09-12T07:42:08Z</time>
      </trkpt>
      <trkpt lat="40.9979300" lon="-2.1676830">
        <ele>1231.4</ele>
        <time>2020-09-12T07:42:09Z</time>
      </trkpt>
      <trkpt lat="40.9979200" lon="-2.1677370">
        <ele>1231.8</ele>
        <time>2020-09-12T07:42:10Z</time>
      </trkpt>
      <trkpt lat="40.9979090" lon="-2.1677900">
        <ele>1232.0</ele>
        <time>2020-09-12T07:42:11Z</time>
      </trkpt>
      <trkpt lat="40.9978990" lon="-2.1678430">
        <ele>1232.2</ele>
        <time>2020-09-12T07:42:12Z</time>
      </trkpt>
      <trkpt lat="40.9978890" lon="-2.1678960">
        <ele>1232.4</ele>
        <time>2020-09-12T07:42:13Z</time>
      </trkpt>
      <trkpt lat="40.9978780" lon="-2.1679490">
        <ele>1232.6</ele>
        <time>2020-09-12T07:42:14Z</time>
      </trkpt>
      <trkpt lat="40.9978670" lon="-2.1680030">
        <ele>1232.8</ele>
        <time>2020-09-12T07:42:15Z</time>
      </trkpt>
      <trkpt lat="40.9978580" lon="-2.1680570">
        <ele>1232.8</ele>
        <time>2020-09-12T07:42:16Z</time>
      </trkpt>
      <trkpt lat="40.9978470" lon="-2.1681120">
        <ele>1233.0</ele>
        <time>2020-09-12T07:42:17Z</time>
      </trkpt>
      <trkpt lat="40.9978370" lon="-2.1681660">
        <ele>1233.0</ele>
        <time>2020-09-12T07:42:18Z</time>
      </trkpt>
      <trkpt lat="40.9978260" lon="-2.1682200">
        <ele>1233.0</ele>
        <time>2020-09-12T07:42:19Z</time>
      </trkpt>
      <trkpt lat="40.9978130" lon="-2.1682730">
        <ele>1233.0</ele>
        <time>2020-09-12T07:42:20Z</time>
      </trkpt>
      <trkpt lat="40.9978000" lon="-2.1683240">
        <ele>1233.0</ele>
        <time>2020-09-12T07:42:21Z</time>
      </trkpt>
      <trkpt lat="40.9977870" lon="-2.1683760">
        <ele>1233.0</ele>
        <time>2020-09-12T07:42:22Z</time>
      </trkpt>
      <trkpt lat="40.9977730" lon="-2.1684290">
        <ele>1233.2</ele>
        <time>2020-09-12T07:42:23Z</time>
      </trkpt>
      <trkpt lat="40.9977580" lon="-2.1684810">
        <ele>1233.2</ele>
        <time>2020-09-12T07:42:24Z</time>
      </trkpt>
      <trkpt lat="40.9977430" lon="-2.1685330">
        <ele>1233.4</ele>
        <time>2020-09-12T07:42:25Z</time>
      </trkpt>
      <trkpt lat="40.9977280" lon="-2.1685870">
        <ele>1233.4</ele>
        <time>2020-09-12T07:42:26Z</time>
      </trkpt>
      <trkpt lat="40.9977130" lon="-2.1686410">
        <ele>1233.6</ele>
        <time>2020-09-12T07:42:27Z</time>
      </trkpt>
      <trkpt lat="40.9976970" lon="-2.1686930">
        <ele>1233.8</ele>
        <time>2020-09-12T07:42:28Z</time>
      </trkpt>
      <trkpt lat="40.9976790" lon="-2.1687460">
        <ele>1234.0</ele>
        <time>2020-09-12T07:42:29Z</time>
      </trkpt>
      <trkpt lat="40.9976610" lon="-2.1687980">
        <ele>1234.0</ele>
        <time>2020-09-12T07:42:30Z</time>
      </trkpt>
      <trkpt lat="40.9976440" lon="-2.1688510">
        <ele>1234.0</ele>
        <time>2020-09-12T07:42:31Z</time>
      </trkpt>
      <trkpt lat="40.9976270" lon="-2.1689050">
        <ele>1234.2</ele>
        <time>2020-09-12T07:42:32Z</time>
      </trkpt>
      <trkpt lat="40.9976080" lon="-2.1689570">
        <ele>1234.2</ele>
        <time>2020-09-12T07:42:33Z</time>
      </trkpt>
      <trkpt lat="40.9975870" lon="-2.1690090">
        <ele>1234.2</ele>
        <time>2020-09-12T07:42:34Z</time>
      </trkpt>
      <trkpt lat="40.9975670" lon="-2.1690620">
        <ele>1234.2</ele>
        <time>2020-09-12T07:42:35Z</time>
      </trkpt>
      <trkpt lat="40.9975460" lon="-2.1691150">
        <ele>1234.2</ele>
        <time>2020-09-12T07:42:36Z</time>
      </trkpt>
      <trkpt lat="40.9975250" lon="-2.1691670">
        <ele>1234.6</ele>
        <time>2020-09-12T07:42:37Z</time>
      </trkpt>
      <trkpt lat="40.9975030" lon="-2.1692190">
        <ele>1234.6</ele>
        <time>2020-09-12T07:42:38Z</time>
      </trkpt>
      <trkpt lat="40.9974800" lon="-2.1692700">
        <ele>1234.8</ele>
        <time>2020-09-12T07:42:39Z</time>
      </trkpt>
      <trkpt lat="40.9974580" lon="-2.1693210">
        <ele>1234.8</ele>
        <time>2020-09-12T07:42:40Z</time>
      </trkpt>
      <trkpt lat="40.9974360" lon="-2.1693730">
        <ele>1235.0</ele>
        <time>2020-09-12T07:42:41Z</time>
      </trkpt>
      <trkpt lat="40.9974120" lon="-2.1694220">
        <ele>1235.0</ele>
        <time>2020-09-12T07:42:42Z</time>
      </trkpt>
      <trkpt lat="40.9973880" lon="-2.1694710">
        <ele>1235.0</ele>
        <time>2020-09-12T07:42:43Z</time>
      </trkpt>
      <trkpt lat="40.9973650" lon="-2.1695190">
        <ele>1235.2</ele>
        <time>2020-09-12T07:42:44Z</time>
      </trkpt>
      <trkpt lat="40.9973410" lon="-2.1695660">
        <ele>1235.4</ele>
        <time>2020-09-12T07:42:45Z</time>
      </trkpt>
      <trkpt lat="40.9973170" lon="-2.1696120">
        <ele>1235.6</ele>
        <time>2020-09-12T07:42:46Z</time>
      </trkpt>
      <trkpt lat="40.9972930" lon="-2.1696580">
        <ele>1235.8</ele>
        <time>2020-09-12T07:42:47Z</time>
      </trkpt>
      <trkpt lat="40.9972690" lon="-2.1697040">
        <ele>1235.8</ele>
        <time>2020-09-12T07:42:48Z</time>
      </trkpt>
      <trkpt lat="40.9972440" lon="-2.1697470">
        <ele>1235.8</ele>
        <time>2020-09-12T07:42:49Z</time>
      </trkpt>
      <trkpt lat="40.9972180" lon="-2.1697890">
        <ele>1236.0</ele>
        <time>2020-09-12T07:42:50Z</time>
      </trkpt>
      <trkpt lat="40.9971920" lon="-2.1698310">
        <ele>1236.0</ele>
        <time>2020-09-12T07:42:51Z</time>
      </trkpt>
      <trkpt lat="40.9971630" lon="-2.1698720">
        <ele>1236.2</ele>
        <time>2020-09-12T07:42:52Z</time>
      </trkpt>
      <trkpt lat="40.9971370" lon="-2.1699130">
        <ele>1236.2</ele>
        <time>2020-09-12T07:42:53Z</time>
      </trkpt>
      <trkpt lat="40.9971110" lon="-2.1699540">
        <ele>1236.6</ele>
        <time>2020-09-12T07:42:54Z</time>
      </trkpt>
      <trkpt lat="40.9970870" lon="-2.1699960">
        <ele>1236.8</ele>
        <time>2020-09-12T07:42:55Z</time>
      </trkpt>
      <trkpt lat="40.9970620" lon="-2.1700370">
        <ele>1237.0</ele>
        <time>2020-09-12T07:42:56Z</time>
      </trkpt>
      <trkpt lat="40.9970360" lon="-2.1700760">
        <ele>1237.2</ele>
        <time>2020-09-12T07:42:57Z</time>
      </trkpt>
      <trkpt lat="40.9970090" lon="-2.1701150">
        <ele>1237.4</ele>
        <time>2020-09-12T07:42:58Z</time>
      </trkpt>
      <trkpt lat="40.9969830" lon="-2.1701530">
        <ele>1237.4</ele>
        <time>2020-09-12T07:42:59Z</time>
      </trkpt>
      <trkpt lat="40.9969560" lon="-2.1701910">
        <ele>1237.6</ele>
        <time>2020-09-12T07:43:00Z</time>
      </trkpt>
      <trkpt lat="40.9969300" lon="-2.1702270">
        <ele>1238.0</ele>
        <time>2020-09-12T07:43:01Z</time>
      </trkpt>
      <trkpt lat="40.9969040" lon="-2.1702610">
        <ele>1238.2</ele>
        <time>2020-09-12T07:43:02Z</time>
      </trkpt>
      <trkpt lat="40.9968770" lon="-2.1702950">
        <ele>1238.6</ele>
        <time>2020-09-12T07:43:03Z</time>
      </trkpt>
      <trkpt lat="40.9968500" lon="-2.1703290">
        <ele>1239.0</ele>
        <time>2020-09-12T07:43:04Z</time>
      </trkpt>
      <trkpt lat="40.9968240" lon="-2.1703620">
        <ele>1239.2</ele>
        <time>2020-09-12T07:43:05Z</time>
      </trkpt>
      <trkpt lat="40.9967980" lon="-2.1703940">
        <ele>1239.4</ele>
        <time>2020-09-12T07:43:06Z</time>
      </trkpt>
      <trkpt lat="40.9967740" lon="-2.1704250">
        <ele>1239.6</ele>
        <time>2020-09-12T07:43:07Z</time>
      </trkpt>
      <trkpt lat="40.9967480" lon="-2.1704540">
        <ele>1239.8</ele>
        <time>2020-09-12T07:43:08Z</time>
      </trkpt>
      <trkpt lat="40.9967240" lon="-2.1704830">
        <ele>1240.0</ele>
        <time>2020-09-12T07:43:09Z</time>
      </trkpt>
      <trkpt lat="40.9966980" lon="-2.1705110">
        <ele>1240.2</ele>
        <time>2020-09-12T07:43:10Z</time>
      </trkpt>
      <trkpt lat="40.9966720" lon="-2.1705390">
        <ele>1240.6</ele>
        <time>2020-09-12T07:43:11Z</time>
      </trkpt>
      <trkpt lat="40.9966450" lon="-2.1705680">
        <ele>1240.8</ele>
        <time>2020-09-12T07:43:12Z</time>
      </trkpt>
      <trkpt lat="40.9966190" lon="-2.1705980">
        <ele>1241.0</ele>
        <time>2020-09-12T07:43:13Z</time>
      </trkpt>
      <trkpt lat="40.9965910" lon="-2.1706270">
        <ele>1241.2</ele>
        <time>2020-09-12T07:43:14Z</time>
      </trkpt>
      <trkpt lat="40.9965650" lon="-2.1706580">
        <ele>1241.4</ele>
        <time>2020-09-12T07:43:15Z</time>
      </trkpt>
      <trkpt lat="40.9965390" lon="-2.1706890">
        <ele>1241.8</ele>
        <time>2020-09-12T07:43:16Z</time>
      </trkpt>
      <trkpt lat="40.9965120" lon="-2.1707170">
        <ele>1242.0</ele>
        <time>2020-09-12T07:43:17Z</time>
      </trkpt>
      <trkpt lat="40.9964830" lon="-2.1707460">
        <ele>1242.2</ele>
        <time>2020-09-12T07:43:18Z</time>
      </trkpt>
      <trkpt lat="40.9964550" lon="-2.1707740">
        <ele>1242.4</ele>
        <time>2020-09-12T07:43:19Z</time>
      </trkpt>
      <trkpt lat="40.9964280" lon="-2.1708010">
        <ele>1242.6</ele>
        <time>2020-09-12T07:43:20Z</time>
      </trkpt>
      <trkpt lat="40.9964020" lon="-2.1708300">
        <ele>1243.0</ele>
        <time>2020-09-12T07:43:21Z</time>
      </trkpt>
      <trkpt lat="40.9963760" lon="-2.1708580">
        <ele>1243.2</ele>
        <time>2020-09-12T07:43:22Z</time>
      </trkpt>
      <trkpt lat="40.9963500" lon="-2.1708840">
        <ele>1243.4</ele>
        <time>2020-09-12T07:43:23Z</time>
      </trkpt>
      <trkpt lat="40.9963230" lon="-2.1709100">
        <ele>1243.4</ele>
        <time>2020-09-12T07:43:24Z</time>
      </trkpt>
      <trkpt lat="40.9962940" lon="-2.1709370">
        <ele>1243.8</ele>
        <time>2020-09-12T07:43:25Z</time>
      </trkpt>
      <trkpt lat="40.9962660" lon="-2.1709630">
        <ele>1244.0</ele>
        <time>2020-09-12T07:43:26Z</time>
      </trkpt>
      <trkpt lat="40.9962370" lon="-2.1709890">
        <ele>1244.2</ele>
        <time>2020-09-12T07:43:27Z</time>
      </trkpt>
      <trkpt lat="40.9962080" lon="-2.1710160">
        <ele>1244.4</ele>
        <time>2020-09-12T07:43:28Z</time>
      </trkpt>
      <trkpt lat="40.9961790" lon="-2.1710410">
        <ele>1244.6</ele>
        <time>2020-09-12T07:43:29Z</time>
      </trkpt>
      <trkpt lat="40.9961490" lon="-2.1710670">
        <ele>1244.8</ele>
        <time>2020-09-12T07:43:30Z</time>
      </trkpt>
      <trkpt lat="40.9961200" lon="-2.1710920">
        <ele>1245.2</ele>
        <time>2020-09-12T07:43:31Z</time>
      </trkpt>
      <trkpt lat="40.9960900" lon="-2.1711160">
        <ele>1245.4</ele>
        <time>2020-09-12T07:43:32Z</time>
      </trkpt>
      <trkpt lat="40.9960600" lon="-2.1711410">
        <ele>1245.6</ele>
        <time>2020-09-12T07:43:33Z</time>
      </trkpt>
      <trkpt lat="40.9960300" lon="-2.1711640">
        <ele>1245.8</ele>
        <time>2020-09-12T07:43:34Z</time>
      </trkpt>
      <trkpt lat="40.9959970" lon="-2.1711840">
        <ele>1246.0</ele>
        <time>2020-09-12T07:43:35Z</time>
      </trkpt>
      <trkpt lat="40.9959650" lon="-2.1712060">
        <ele>1246.2</ele>
        <time>2020-09-12T07:43:36Z</time>
      </trkpt>
      <trkpt lat="40.9959340" lon="-2.1712320">
        <ele>1246.4</ele>
        <time>2020-09-12T07:43:37Z</time>
      </trkpt>
      <trkpt lat="40.9959030" lon="-2.1712580">
        <ele>1246.8</ele>
        <time>2020-09-12T07:43:38Z</time>
      </trkpt>
      <trkpt lat="40.9958710" lon="-2.1712820">
        <ele>1247.0</ele>
        <time>2020-09-12T07:43:39Z</time>
      </trkpt>
      <trkpt lat="40.9958390" lon="-2.1713050">
        <ele>1247.2</ele>
        <time>2020-09-12T07:43:40Z</time>
      </trkpt>
      <trkpt lat="40.9958060" lon="-2.1713270">
        <ele>1247.4</ele>
        <time>2020-09-12T07:43:41Z</time>
      </trkpt>
      <trkpt lat="40.9957720" lon="-2.1713490">
        <ele>1247.4</ele>
        <time>2020-09-12T07:43:42Z</time>
      </trkpt>
      <trkpt lat="40.9957360" lon="-2.1713700">
        <ele>1247.6</ele>
        <time>2020-09-12T07:43:43Z</time>
      </trkpt>
      <trkpt lat="40.9957000" lon="-2.1713900">
        <ele>1247.6</ele>
        <time>2020-09-12T07:43:44Z</time>
      </trkpt>
      <trkpt lat="40.9956640" lon="-2.1714110">
        <ele>1247.8</ele>
        <time>2020-09-12T07:43:45Z</time>
      </trkpt>
      <trkpt lat="40.9956290" lon="-2.1714330">
        <ele>1248.0</ele>
        <time>2020-09-12T07:43:46Z</time>
      </trkpt>
      <trkpt lat="40.9955940" lon="-2.1714540">
        <ele>1248.2</ele>
        <time>2020-09-12T07:43:47Z</time>
      </trkpt>
      <trkpt lat="40.9955570" lon="-2.1714760">
        <ele>1248.2</ele>
        <time>2020-09-12T07:43:48Z</time>
      </trkpt>
      <trkpt lat="40.9955200" lon="-2.1714950">
        <ele>1248.4</ele>
        <time>2020-09-12T07:43:49Z</time>
      </trkpt>
      <trkpt lat="40.9954820" lon="-2.1715140">
        <ele>1248.4</ele>
        <time>2020-09-12T07:43:50Z</time>
      </trkpt>
      <trkpt lat="40.9954450" lon="-2.1715340">
        <ele>1248.6</ele>
        <time>2020-09-12T07:43:51Z</time>
      </trkpt>
      <trkpt lat="40.9954070" lon="-2.1715560">
        <ele>1248.6</ele>
        <time>2020-09-12T07:43:52Z</time>
      </trkpt>
      <trkpt lat="40.9953690" lon="-2.1715780">
        <ele>1248.8</ele>
        <time>2020-09-12T07:43:53Z</time>
      </trkpt>
      <trkpt lat="40.9953310" lon="-2.1716000">
        <ele>1249.0</ele>
        <time>2020-09-12T07:43:54Z</time>
      </trkpt>
      <trkpt lat="40.9952910" lon="-2.1716210">
        <ele>1249.2</ele>
        <time>2020-09-12T07:43:55Z</time>
      </trkpt>
      <trkpt lat="40.9952510" lon="-2.1716410">
        <ele>1249.4</ele>
        <time>2020-09-12T07:43:56Z</time>
      </trkpt>
      <trkpt lat="40.9952100" lon="-2.1716590">
        <ele>1249.6</ele>
        <time>2020-09-12T07:43:57Z</time>
      </trkpt>
      <trkpt lat="40.9951690" lon="-2.1716790">
        <ele>1249.8</ele>
        <time>2020-09-12T07:43:58Z</time>
      </trkpt>
      <trkpt lat="40.9951280" lon="-2.1716980">
        <ele>1250.0</ele>
        <time>2020-09-12T07:43:59Z</time>
      </trkpt>
      <trkpt lat="40.9950890" lon="-2.1717190">
        <ele>1250.0</ele>
        <time>2020-09-12T07:44:00Z</time>
      </trkpt>
      <trkpt lat="40.9950470" lon="-2.1717400">
        <ele>1250.2</ele>
        <time>2020-09-12T07:44:01Z</time>
      </trkpt>
      <trkpt lat="40.9950050" lon="-2.1717590">
        <ele>1250.4</ele>
        <time>2020-09-12T07:44:02Z</time>
      </trkpt>
      <trkpt lat="40.9949630" lon="-2.1717780">
        <ele>1250.4</ele>
        <time>2020-09-12T07:44:03Z</time>
      </trkpt>
      <trkpt lat="40.9949210" lon="-2.1717980">
        <ele>1250.6</ele>
        <time>2020-09-12T07:44:04Z</time>
      </trkpt>
      <trkpt lat="40.9948790" lon="-2.1718190">
        <ele>1250.6</ele>
        <time>2020-09-12T07:44:05Z</time>
      </trkpt>
      <trkpt lat="40.9948360" lon="-2.1718370">
        <ele>1250.8</ele>
        <time>2020-09-12T07:44:06Z</time>
      </trkpt>
      <trkpt lat="40.9947940" lon="-2.1718580">
        <ele>1250.8</ele>
        <time>2020-09-12T07:44:07Z</time>
      </trkpt>
      <trkpt lat="40.9947530" lon="-2.1718830">
        <ele>1251.0</ele>
        <time>2020-09-12T07:44:08Z</time>
      </trkpt>
      <trkpt lat="40.9947120" lon="-2.1719120">
        <ele>1251.0</ele>
        <time>2020-09-12T07:44:09Z</time>
      </trkpt>
      <trkpt lat="40.9946730" lon="-2.1719410">
        <ele>1251.2</ele>
        <time>2020-09-12T07:44:10Z</time>
      </trkpt>
      <trkpt lat="40.9946330" lon="-2.1719710">
        <ele>1251.2</ele>
        <time>2020-09-12T07:44:11Z</time>
      </trkpt>
      <trkpt lat="40.9945930" lon="-2.1720010">
        <ele>1251.2</ele>
        <time>2020-09-12T07:44:12Z</time>
      </trkpt>
      <trkpt lat="40.9945550" lon="-2.1720320">
        <ele>1251.2</ele>
        <time>2020-09-12T07:44:13Z</time>
      </trkpt>
      <trkpt lat="40.9945170" lon="-2.1720660">
        <ele>1251.2</ele>
        <time>2020-09-12T07:44:14Z</time>
      </trkpt>
      <trkpt lat="40.9944830" lon="-2.1721030">
        <ele>1251.2</ele>
        <time>2020-09-12T07:44:15Z</time>
      </trkpt>
      <trkpt lat="40.9944480" lon="-2.1721410">
        <ele>1251.2</ele>
        <time>2020-09-12T07:44:16Z</time>
      </trkpt>
      <trkpt lat="40.9944150" lon="-2.1721800">
        <ele>1251.2</ele>
        <time>2020-09-12T07:44:17Z</time>
      </trkpt>
      <trkpt lat="40.9943840" lon="-2.1722220">
        <ele>1251.2</ele>
        <time>2020-09-12T07:44:18Z</time>
      </trkpt>
      <trkpt lat="40.9943550" lon="-2.1722650">
        <ele>1251.2</ele>
        <time>2020-09-12T07:44:19Z</time>
      </trkpt>
      <trkpt lat="40.9943260" lon="-2.1723080">
        <ele>1251.4</ele>
        <time>2020-09-12T07:44:20Z</time>
      </trkpt>
      <trkpt lat="40.9943000" lon="-2.1723530">
        <ele>1251.4</ele>
        <time>2020-09-12T07:44:21Z</time>
      </trkpt>
      <trkpt lat="40.9942740" lon="-2.1723990">
        <ele>1251.6</ele>
        <time>2020-09-12T07:44:22Z</time>
      </trkpt>
      <trkpt lat="40.9942490" lon="-2.1724440">
        <ele>1251.6</ele>
        <time>2020-09-12T07:44:23Z</time>
      </trkpt>
      <trkpt lat="40.9942260" lon="-2.1724940">
        <ele>1251.8</ele>
        <time>2020-09-12T07:44:24Z</time>
      </trkpt>
      <trkpt lat="40.9942050" lon="-2.1725440">
        <ele>1252.0</ele>
        <time>2020-09-12T07:44:25Z</time>
      </trkpt>
      <trkpt lat="40.9941850" lon="-2.1725960">
        <ele>1252.2</ele>
        <time>2020-09-12T07:44:26Z</time>
      </trkpt>
      <trkpt lat="40.9941670" lon="-2.1726480">
        <ele>1252.2</ele>
        <time>2020-09-12T07:44:27Z</time>
      </trkpt>
      <trkpt lat="40.9941500" lon="-2.1726990">
        <ele>1252.4</ele>
        <time>2020-09-12T07:44:28Z</time>
      </trkpt>
      <trkpt lat="40.9941330" lon="-2.1727500">
        <ele>1252.6</ele>
        <time>2020-09-12T07:44:29Z</time>
      </trkpt>
      <trkpt lat="40.9941170" lon="-2.1728010">
        <ele>1252.8</ele>
        <time>2020-09-12T07:44:30Z</time>
      </trkpt>
      <trkpt lat="40.9941030" lon="-2.1728530">
        <ele>1253.0</ele>
        <time>2020-09-12T07:44:31Z</time>
      </trkpt>
      <trkpt lat="40.9940900" lon="-2.1729030">
        <ele>1253.0</ele>
        <time>2020-09-12T07:44:32Z</time>
      </trkpt>
      <trkpt lat="40.9940780" lon="-2.1729520">
        <ele>1253.2</ele>
        <time>2020-09-12T07:44:33Z</time>
      </trkpt>
      <trkpt lat="40.9940670" lon="-2.1730000">
        <ele>1253.4</ele>
        <time>2020-09-12T07:44:34Z</time>
      </trkpt>
      <trkpt lat="40.9940560" lon="-2.1730500">
        <ele>1253.6</ele>
        <time>2020-09-12T07:44:35Z</time>
      </trkpt>
      <trkpt lat="40.9940420" lon="-2.1730990">
        <ele>1253.8</ele>
        <time>2020-09-12T07:44:36Z</time>
      </trkpt>
      <trkpt lat="40.9940280" lon="-2.1731480">
        <ele>1253.8</ele>
        <time>2020-09-12T07:44:37Z</time>
      </trkpt>
      <trkpt lat="40.9940150" lon="-2.1731970">
        <ele>1254.2</ele>
        <time>2020-09-12T07:44:38Z</time>
      </trkpt>
      <trkpt lat="40.9940020" lon="-2.1732440">
        <ele>1254.4</ele>
        <time>2020-09-12T07:44:39Z</time>
      </trkpt>
      <trkpt lat="40.9939900" lon="-2.1732930">
        <ele>1254.6</ele>
        <time>2020-09-12T07:44:40Z</time>
      </trkpt>
      <trkpt lat="40.9939770" lon="-2.1733400">
        <ele>1254.8</ele>
        <time>2020-09-12T07:44:41Z</time>
      </trkpt>
      <trkpt lat="40.9939660" lon="-2.1733880">
        <ele>1255.0</ele>
        <time>2020-09-12T07:44:42Z</time>
      </trkpt>
      <trkpt lat="40.9939550" lon="-2.1734370">
        <ele>1255.2</ele>
        <time>2020-09-12T07:44:43Z</time>
      </trkpt>
      <trkpt lat="40.9939440" lon="-2.1734840">
        <ele>1255.2</ele>
        <time>2020-09-12T07:44:44Z</time>
      </trkpt>
      <trkpt lat="40.9939300" lon="-2.1735310">
        <ele>1255.4</ele>
        <time>2020-09-12T07:44:45Z</time>
      </trkpt>
      <trkpt lat="40.9939160" lon="-2.1735780">
        <ele>1255.6</ele>
        <time>2020-09-12T07:44:46Z</time>
      </trkpt>
      <trkpt lat="40.9939030" lon="-2.1736240">
        <ele>1256.0</ele>
        <time>2020-09-12T07:44:47Z</time>
      </trkpt>
      <trkpt lat="40.9938900" lon="-2.1736710">
        <ele>1256.2</ele>
        <time>2020-09-12T07:44:48Z</time>
      </trkpt>
      <trkpt lat="40.9938750" lon="-2.1737170">
        <ele>1256.6</ele>
        <time>2020-09-12T07:44:49Z</time>
      </trkpt>
      <trkpt lat="40.9938590" lon="-2.1737620">
        <ele>1256.8</ele>
        <time>2020-09-12T07:44:50Z</time>
      </trkpt>
      <trkpt lat="40.9938440" lon="-2.1738080">
        <ele>1257.0</ele>
        <time>2020-09-12T07:44:51Z</time>
      </trkpt>
      <trkpt lat="40.9938290" lon="-2.1738540">
        <ele>1257.2</ele>
        <time>2020-09-12T07:44:52Z</time>
      </trkpt>
      <trkpt lat="40.9938130" lon="-2.1739000">
        <ele>1257.4</ele>
        <time>2020-09-12T07:44:53Z</time>
      </trkpt>
      <trkpt lat="40.9937970" lon="-2.1739440">
        <ele>1257.8</ele>
        <time>2020-09-12T07:44:54Z</time>
      </trkpt>
      <trkpt lat="40.9937790" lon="-2.1739880">
        <ele>1258.2</ele>
        <time>2020-09-12T07:44:55Z</time>
      </trkpt>
      <trkpt lat="40.9937620" lon="-2.1740330">
        <ele>1258.6</ele>
        <time>2020-09-12T07:44:56Z</time>
      </trkpt>
      <trkpt lat="40.9937440" lon="-2.1740760">
        <ele>1258.6</ele>
        <time>2020-09-12T07:44:57Z</time>
      </trkpt>
      <trkpt lat="40.9937270" lon="-2.1741190">
        <ele>1258.8</ele>
        <time>2020-09-12T07:44:58Z</time>
      </trkpt>
      <trkpt lat="40.9937090" lon="-2.1741600">
        <ele>1259.2</ele>
        <time>2020-09-12T07:44:59Z</time>
      </trkpt>
      <trkpt lat="40.9936880" lon="-2.1741990">
        <ele>1259.4</ele>
        <time>2020-09-12T07:45:00Z</time>
      </trkpt>
      <trkpt lat="40.9936680" lon="-2.1742390">
        <ele>1259.6</ele>
        <time>2020-09-12T07:45:01Z</time>
      </trkpt>
      <trkpt lat="40.9936490" lon="-2.1742790">
        <ele>1259.6</ele>
        <time>2020-09-12T07:45:02Z</time>
      </trkpt>
      <trkpt lat="40.9936300" lon="-2.1743210">
        <ele>1259.8</ele>
        <time>2020-09-12T07:45:03Z</time>
      </trkpt>
      <trkpt lat="40.9936110" lon="-2.1743610">
        <ele>1260.0</ele>
        <time>2020-09-12T07:45:04Z</time>
      </trkpt>
      <trkpt lat="40.9935920" lon="-2.1744010">
        <ele>1260.0</ele>
        <time>2020-09-12T07:45:05Z</time>
      </trkpt>
      <trkpt lat="40.9935720" lon="-2.1744410">
        <ele>1260.2</ele>
        <time>2020-09-12T07:45:06Z</time>
      </trkpt>
      <trkpt lat="40.9935500" lon="-2.1744800">
        <ele>1260.4</ele>
        <time>2020-09-12T07:45:07Z</time>
      </trkpt>
      <trkpt lat="40.9935300" lon="-2.1745200">
        <ele>1260.8</ele>
        <time>2020-09-12T07:45:08Z</time>
      </trkpt>
      <trkpt lat="40.9935090" lon="-2.1745600">
        <ele>1261.0</ele>
        <time>2020-09-12T07:45:09Z</time>
      </trkpt>
      <trkpt lat="40.9934880" lon="-2.1745990">
        <ele>1261.2</ele>
        <time>2020-09-12T07:45:10Z</time>
      </trkpt>
      <trkpt lat="40.9934660" lon="-2.1746380">
        <ele>1261.6</ele>
        <time>2020-09-12T07:45:11Z</time>
      </trkpt>
      <trkpt lat="40.9934430" lon="-2.1746780">
        <ele>1261.6</ele>
        <time>2020-09-12T07:45:12Z</time>
      </trkpt>
      <trkpt lat="40.9934200" lon="-2.1747170">
        <ele>1261.8</ele>
        <time>2020-09-12T07:45:13Z</time>
      </trkpt>
      <trkpt lat="40.9933940" lon="-2.1747540">
        <ele>1262.2</ele>
        <time>2020-09-12T07:45:14Z</time>
      </trkpt>
      <trkpt lat="40.9933690" lon="-2.1747910">
        <ele>1262.4</ele>
        <time>2020-09-12T07:45:15Z</time>
      </trkpt>
      <trkpt lat="40.9933430" lon="-2.1748280">
        <ele>1262.6</ele>
        <time>2020-09-12T07:45:16Z</time>
      </trkpt>
      <trkpt lat="40.9933170" lon="-2.1748660">
        <ele>1262.8</ele>
        <time>2020-09-12T07:45:17Z</time>
      </trkpt>
      <trkpt lat="40.9932910" lon="-2.1749020">
        <ele>1262.8</ele>
        <time>2020-09-12T07:45:18Z</time>
      </trkpt>
      <trkpt lat="40.9932640" lon="-2.1749370">
        <ele>1263.0</ele>
        <time>2020-09-12T07:45:19Z</time>
      </trkpt>
      <trkpt lat="40.9932350" lon="-2.1749710">
        <ele>1263.2</ele>
        <time>2020-09-12T07:45:20Z</time>
      </trkpt>
      <trkpt lat="40.9932050" lon="-2.1750050">
        <ele>1263.4</ele>
        <time>2020-09-12T07:45:21Z</time>
      </trkpt>
      <trkpt lat="40.9931760" lon="-2.1750400">
        <ele>1263.8</ele>
        <time>2020-09-12T07:45:22Z</time>
      </trkpt>
      <trkpt lat="40.9931480" lon="-2.1750750">
        <ele>1263.8</ele>
        <time>2020-09-12T07:45:23Z</time>
      </trkpt>
      <trkpt lat="40.9931190" lon="-2.1751100">
        <ele>1264.0</ele>
        <time>2020-09-12T07:45:24Z</time>
      </trkpt>
      <trkpt lat="40.9930900" lon="-2.1751450">
        <ele>1264.2</ele>
        <time>2020-09-12T07:45:25Z</time>
      </trkpt>
      <trkpt lat="40.9930600" lon="-2.1751800">
        <ele>1264.4</ele>
        <time>2020-09-12T07:45:26Z</time>
      </trkpt>
      <trkpt lat="40.9930310" lon="-2.1752160">
        <ele>1264.6</ele>
        <time>2020-09-12T07:45:27Z</time>
      </trkpt>
      <trkpt lat="40.9930030" lon="-2.1752520">
        <ele>1264.8</ele>
        <time>2020-09-12T07:45:28Z</time>
      </trkpt>
      <trkpt lat="40.9929750" lon="-2.1752890">
        <ele>1265.0</ele>
        <time>2020-09-12T07:45:29Z</time>
      </trkpt>
      <trkpt lat="40.9929470" lon="-2.1753250">
        <ele>1265.2</ele>
        <time>2020-09-12T07:45:30Z</time>
      </trkpt>
      <trkpt lat="40.9929200" lon="-2.1753620">
        <ele>1265.2</ele>
        <time>2020-09-12T07:45:31Z</time>
      </trkpt>
      <trkpt lat="40.9928930" lon="-2.1753980">
        <ele>1265.4</ele>
        <time>2020-09-12T07:45:32Z</time>
      </trkpt>
      <trkpt lat="40.9928650" lon="-2.1754340">
        <ele>1265.6</ele>
        <time>2020-09-12T07:45:33Z</time>
      </trkpt>
      <trkpt lat="40.9928370" lon="-2.1754700">
        <ele>1265.6</ele>
        <time>2020-09-12T07:45:34Z</time>
      </trkpt>
      <trkpt lat="40.9928100" lon="-2.1755060">
        <ele>1265.8</ele>
        <time>2020-09-12T07:45:35Z</time>
      </trkpt>
      <trkpt lat="40.9927840" lon="-2.1755430">
        <ele>1266.0</ele>
        <time>2020-09-12T07:45:36Z</time>
      </trkpt>
      <trkpt lat="40.9927570" lon="-2.1755800">
        <ele>1266.2</ele>
        <time>2020-09-12T07:45:37Z</time>
      </trkpt>
      <trkpt lat="40.9927320" lon="-2.1756130">
        <ele>1266.4</ele>
        <time>2020-09-12T07:45:38Z</time>
      </trkpt>
      <trkpt lat="40.9927080" lon="-2.1756490">
        <ele>1266.6</ele>
        <time>2020-09-12T07:45:39Z</time>
      </trkpt>
      <trkpt lat="40.9926850" lon="-2.1756870">
        <ele>1266.8</ele>
        <time>2020-09-12T07:45:40Z</time>
      </trkpt>
      <trkpt lat="40.9926620" lon="-2.1757250">
        <ele>1266.8</ele>
        <time>2020-09-12T07:45:41Z</time>
      </trkpt>
      <trkpt lat="40.9926400" lon="-2.1757630">
        <ele>1267.0</ele>
        <time>2020-09-12T07:45:42Z</time>
      </trkpt>
      <trkpt lat="40.9926170" lon="-2.1758010">
        <ele>1267.2</ele>
        <time>2020-09-12T07:45:43Z</time>
      </trkpt>
      <trkpt lat="40.9925960" lon="-2.1758400">
        <ele>1267.4</ele>
        <time>2020-09-12T07:45:44Z</time>
      </trkpt>
      <trkpt lat="40.9925740" lon="-2.1758800">
        <ele>1267.6</ele>
        <time>2020-09-12T07:45:45Z</time>
      </trkpt>
      <trkpt lat="40.9925540" lon="-2.1759220">
        <ele>1267.8</ele>
        <time>2020-09-12T07:45:46Z</time>
      </trkpt>
      <trkpt lat="40.9925340" lon="-2.1759650">
        <ele>1268.0</ele>
        <time>2020-09-12T07:45:47Z</time>
      </trkpt>
      <trkpt lat="40.9925130" lon="-2.1760080">
        <ele>1268.4</ele>
        <time>2020-09-12T07:45:48Z</time>
      </trkpt>
      <trkpt lat="40.9924920" lon="-2.1760490">
        <ele>1268.6</ele>
        <time>2020-09-12T07:45:49Z</time>
      </trkpt>
      <trkpt lat="40.9924730" lon="-2.1760920">
        <ele>1268.8</ele>
        <time>2020-09-12T07:45:50Z</time>
      </trkpt>
      <trkpt lat="40.9924530" lon="-2.1761340">
        <ele>1269.2</ele>
        <time>2020-09-12T07:45:51Z</time>
      </trkpt>
      <trkpt lat="40.9924350" lon="-2.1761760">
        <ele>1269.4</ele>
        <time>2020-09-12T07:45:52Z</time>
      </trkpt>
      <trkpt lat="40.9924170" lon="-2.1762180">
        <ele>1269.6</ele>
        <time>2020-09-12T07:45:53Z</time>
      </trkpt>
      <trkpt lat="40.9924000" lon="-2.1762610">
        <ele>1269.8</ele>
        <time>2020-09-12T07:45:54Z</time>
      </trkpt>
      <trkpt lat="40.9923830" lon="-2.1763020">
        <ele>1269.8</ele>
        <time>2020-09-12T07:45:55Z</time>
      </trkpt>
      <trkpt lat="40.9923650" lon="-2.1763440">
        <ele>1270.0</ele>
        <time>2020-09-12T07:45:56Z</time>
      </trkpt>
      <trkpt lat="40.9923480" lon="-2.1763870">
        <ele>1270.0</ele>
        <time>2020-09-12T07:45:57Z</time>
      </trkpt>
      <trkpt lat="40.9923310" lon="-2.1764300">
        <ele>1270.2</ele>
        <time>2020-09-12T07:45:58Z</time>
      </trkpt>
      <trkpt lat="40.9923140" lon="-2.1764710">
        <ele>1270.4</ele>
        <time>2020-09-12T07:45:59Z</time>
      </trkpt>
      <trkpt lat="40.9922970" lon="-2.1765130">
        <ele>1270.6</ele>
        <time>2020-09-12T07:46:00Z</time>
      </trkpt>
      <trkpt lat="40.9922790" lon="-2.1765540">
        <ele>1270.8</ele>
        <time>2020-09-12T07:46:01Z</time>
      </trkpt>
      <trkpt lat="40.9922600" lon="-2.1765930">
        <ele>1271.2</ele>
        <time>2020-09-12T07:46:02Z</time>
      </trkpt>
      <trkpt lat="40.9922400" lon="-2.1766330">
        <ele>1271.6</ele>
        <time>2020-09-12T07:46:03Z</time>
      </trkpt>
      <trkpt lat="40.9922200" lon="-2.1766730">
        <ele>1272.0</ele>
        <time>2020-09-12T07:46:04Z</time>
      </trkpt>
      <trkpt lat="40.9921990" lon="-2.1767110">
        <ele>1272.2</ele>
        <time>2020-09-12T07:46:05Z</time>
      </trkpt>
      <trkpt lat="40.9921790" lon="-2.1767490">
        <ele>1272.4</ele>
        <time>2020-09-12T07:46:06Z</time>
      </trkpt>
      <trkpt lat="40.9921590" lon="-2.1767870">
        <ele>1272.8</ele>
        <time>2020-09-12T07:46:07Z</time>
      </trkpt>
      <trkpt lat="40.9921380" lon="-2.1768230">
        <ele>1273.0</ele>
        <time>2020-09-12T07:46:08Z</time>
      </trkpt>
      <trkpt lat="40.9921150" lon="-2.1768570">
        <ele>1273.2</ele>
        <time>2020-09-12T07:46:09Z</time>
      </trkpt>
      <trkpt lat="40.9920930" lon="-2.1768910">
        <ele>1273.4</ele>
        <time>2020-09-12T07:46:10Z</time>
      </trkpt>
      <trkpt lat="40.9920710" lon="-2.1769250">
        <ele>1273.6</ele>
        <time>2020-09-12T07:46:11Z</time>
      </trkpt>
      <trkpt lat="40.9920490" lon="-2.1769590">
        <ele>1273.8</ele>
        <time>2020-09-12T07:46:12Z</time>
      </trkpt>
      <trkpt lat="40.9920260" lon="-2.1769910">
        <ele>1274.0</ele>
        <time>2020-09-12T07:46:13Z</time>
      </trkpt>
      <trkpt lat="40.9920020" lon="-2.1770210">
        <ele>1274.2</ele>
        <time>2020-09-12T07:46:14Z</time>
      </trkpt>
      <trkpt lat="40.9919770" lon="-2.1770500">
        <ele>1274.4</ele>
        <time>2020-09-12T07:46:15Z</time>
      </trkpt>
      <trkpt lat="40.9919520" lon="-2.1770770">
        <ele>1274.8</ele>
        <time>2020-09-12T07:46:16Z</time>
      </trkpt>
      <trkpt lat="40.9919260" lon="-2.1771050">
        <ele>1275.0</ele>
        <time>2020-09-12T07:46:17Z</time>
      </trkpt>
      <trkpt lat="40.9919010" lon="-2.1771320">
        <ele>1275.4</ele>
        <time>2020-09-12T07:46:18Z</time>
      </trkpt>
      <trkpt lat="40.9918760" lon="-2.1771580">
        <ele>1275.6</ele>
        <time>2020-09-12T07:46:19Z</time>
      </trkpt>
      <trkpt lat="40.9918500" lon="-2.1771840">
        <ele>1275.6</ele>
        <time>2020-09-12T07:46:20Z</time>
      </trkpt>
      <trkpt lat="40.9918220" lon="-2.1772080">
        <ele>1275.8</ele>
        <time>2020-09-12T07:46:21Z</time>
      </trkpt>
      <trkpt lat="40.9917940" lon="-2.1772300">
        <ele>1276.2</ele>
        <time>2020-09-12T07:46:22Z</time>
      </trkpt>
      <trkpt lat="40.9917650" lon="-2.1772520">
        <ele>1276.6</ele>
        <time>2020-09-12T07:46:23Z</time>
      </trkpt>
      <trkpt lat="40.9917360" lon="-2.1772740">
        <ele>1276.8</ele>
        <time>2020-09-12T07:46:24Z</time>
      </trkpt>
      <trkpt lat="40.9917070" lon="-2.1772930">
        <ele>1277.2</ele>
        <time>2020-09-12T07:46:25Z</time>
      </trkpt>
      <trkpt lat="40.9916760" lon="-2.1773120">
        <ele>1277.6</ele>
        <time>2020-09-12T07:46:26Z</time>
      </trkpt>
      <trkpt lat="40.9916450" lon="-2.1773300">
        <ele>1277.8</ele>
        <time>2020-09-12T07:46:27Z</time>
      </trkpt>
      <trkpt lat="40.9916140" lon="-2.1773470">
        <ele>1278.0</ele>
        <time>2020-09-12T07:46:28Z</time>
      </trkpt>
      <trkpt lat="40.9915840" lon="-2.1773600">
        <ele>1278.2</ele>
        <time>2020-09-12T07:46:29Z</time>
      </trkpt>
      <trkpt lat="40.9915530" lon="-2.1773750">
        <ele>1278.2</ele>
        <time>2020-09-12T07:46:30Z</time>
      </trkpt>
      <trkpt lat="40.9915240" lon="-2.1773880">
        <ele>1278.4</ele>
        <time>2020-09-12T07:46:31Z</time>
      </trkpt>
      <trkpt lat="40.9914930" lon="-2.1774010">
        <ele>1278.6</ele>
        <time>2020-09-12T07:46:32Z</time>
      </trkpt>
      <trkpt lat="40.9914630" lon="-2.1774120">
        <ele>1278.8</ele>
        <time>2020-09-12T07:46:33Z</time>
      </trkpt>
      <trkpt lat="40.9914330" lon="-2.1774240">
        <ele>1279.0</ele>
        <time>2020-09-12T07:46:34Z</time>
      </trkpt>
      <trkpt lat="40.9914020" lon="-2.1774370">
        <ele>1279.2</ele>
        <time>2020-09-12T07:46:35Z</time>
      </trkpt>
      <trkpt lat="40.9913710" lon="-2.1774490">
        <ele>1279.4</ele>
        <time>2020-09-12T07:46:36Z</time>
      </trkpt>
      <trkpt lat="40.9913400" lon="-2.1774610">
        <ele>1279.8</ele>
        <time>2020-09-12T07:46:37Z</time>
      </trkpt>
      <trkpt lat="40.9913090" lon="-2.1774720">
        <ele>1280.0</ele>
        <time>2020-09-12T07:46:38Z</time>
      </trkpt>
      <trkpt lat="40.9912780" lon="-2.1774820">
        <ele>1280.2</ele>
        <time>2020-09-12T07:46:39Z</time>
      </trkpt>
      <trkpt lat="40.9912470" lon="-2.1774930">
        <ele>1280.4</ele>
        <time>2020-09-12T07:46:40Z</time>
      </trkpt>
      <trkpt lat="40.9912170" lon="-2.1775060">
        <ele>1280.6</ele>
        <time>2020-09-12T07:46:41Z</time>
      </trkpt>
      <trkpt lat="40.9911870" lon="-2.1775180">
        <ele>1280.8</ele>
        <time>2020-09-12T07:46:42Z</time>
      </trkpt>
      <trkpt lat="40.9911570" lon="-2.1775280">
        <ele>1281.0</ele>
        <time>2020-09-12T07:46:43Z</time>
      </trkpt>
      <trkpt lat="40.9911270" lon="-2.1775380">
        <ele>1281.2</ele>
        <time>2020-09-12T07:46:44Z</time>
      </trkpt>
      <trkpt lat="40.9910970" lon="-2.1775490">
        <ele>1281.4</ele>
        <time>2020-09-12T07:46:45Z</time>
      </trkpt>
      <trkpt lat="40.9910690" lon="-2.1775620">
        <ele>1281.6</ele>
        <time>2020-09-12T07:46:46Z</time>
      </trkpt>
      <trkpt lat="40.9910400" lon="-2.1775720">
        <ele>1282.0</ele>
        <time>2020-09-12T07:46:47Z</time>
      </trkpt>
      <trkpt lat="40.9910110" lon="-2.1775820">
        <ele>1282.2</ele>
        <time>2020-09-12T07:46:48Z</time>
      </trkpt>
      <trkpt lat="40.9909820" lon="-2.1775920">
        <ele>1282.4</ele>
        <time>2020-09-12T07:46:49Z</time>
      </trkpt>
      <trkpt lat="40.9909530" lon="-2.1776020">
        <ele>1282.6</ele>
        <time>2020-09-12T07:46:50Z</time>
      </trkpt>
      <trkpt lat="40.9909240" lon="-2.1776140">
        <ele>1283.0</ele>
        <time>2020-09-12T07:46:51Z</time>
      </trkpt>
      <trkpt lat="40.9908950" lon="-2.1776260">
        <ele>1283.2</ele>
        <time>2020-09-12T07:46:52Z</time>
      </trkpt>
      <trkpt lat="40.9908670" lon="-2.1776380">
        <ele>1283.4</ele>
        <time>2020-09-12T07:46:53Z</time>
      </trkpt>
      <trkpt lat="40.9908380" lon="-2.1776510">
        <ele>1283.6</ele>
        <time>2020-09-12T07:46:54Z</time>
      </trkpt>
      <trkpt lat="40.9908080" lon="-2.1776640">
        <ele>1283.8</ele>
        <time>2020-09-12T07:46:55Z</time>
      </trkpt>
      <trkpt lat="40.9907790" lon="-2.1776790">
        <ele>1284.0</ele>
        <time>2020-09-12T07:46:56Z</time>
      </trkpt>
      <trkpt lat="40.9907500" lon="-2.1776950">
        <ele>1284.2</ele>
        <time>2020-09-12T07:46:57Z</time>
      </trkpt>
      <trkpt lat="40.9907210" lon="-2.1777090">
        <ele>1284.4</ele>
        <time>2020-09-12T07:46:58Z</time>
      </trkpt>
      <trkpt lat="40.9906920" lon="-2.1777230">
        <ele>1284.6</ele>
        <time>2020-09-12T07:46:59Z</time>
      </trkpt>
      <trkpt lat="40.9906630" lon="-2.1777360">
        <ele>1285.0</ele>
        <time>2020-09-12T07:47:00Z</time>
      </trkpt>
      <trkpt lat="40.9906330" lon="-2.1777500">
        <ele>1285.2</ele>
        <time>2020-09-12T07:47:01Z</time>
      </trkpt>
      <trkpt lat="40.9906040" lon="-2.1777640">
        <ele>1285.4</ele>
        <time>2020-09-12T07:47:02Z</time>
      </trkpt>
      <trkpt lat="40.9905740" lon="-2.1777800">
        <ele>1285.6</ele>
        <time>2020-09-12T07:47:03Z</time>
      </trkpt>
      <trkpt lat="40.9905450" lon="-2.1777970">
        <ele>1286.0</ele>
        <time>2020-09-12T07:47:04Z</time>
      </trkpt>
      <trkpt lat="40.9905180" lon="-2.1778160">
        <ele>1286.2</ele>
        <time>2020-09-12T07:47:05Z</time>
      </trkpt>
      <trkpt lat="40.9904910" lon="-2.1778350">
        <ele>1286.6</ele>
        <time>2020-09-12T07:47:06Z</time>
      </trkpt>
      <trkpt lat="40.9904630" lon="-2.1778530">
        <ele>1286.8</ele>
        <time>2020-09-12T07:47:07Z</time>
      </trkpt>
      <trkpt lat="40.9904350" lon="-2.1778700">
        <ele>1287.2</ele>
        <time>2020-09-12T07:47:08Z</time>
      </trkpt>
      <trkpt lat="40.9904050" lon="-2.1778890">
        <ele>1287.6</ele>
        <time>2020-09-12T07:47:09Z</time>
      </trkpt>
      <trkpt lat="40.9903770" lon="-2.1779090">
        <ele>1287.8</ele>
        <time>2020-09-12T07:47:10Z</time>
      </trkpt>
      <trkpt lat="40.9903500" lon="-2.1779300">
        <ele>1288.0</ele>
        <time>2020-09-12T07:47:11Z</time>
      </trkpt>
      <trkpt lat="40.9903200" lon="-2.1779490">
        <ele>1288.2</ele>
        <time>2020-09-12T07:47:12Z</time>
      </trkpt>
      <trkpt lat="40.9902910" lon="-2.1779660">
        <ele>1288.4</ele>
        <time>2020-09-12T07:47:13Z</time>
      </trkpt>
      <trkpt lat="40.9902620" lon="-2.1779870">
        <ele>1288.6</ele>
        <time>2020-09-12T07:47:14Z</time>
      </trkpt>
      <trkpt lat="40.9902340" lon="-2.1780090">
        <ele>1289.0</ele>
        <time>2020-09-12T07:47:15Z</time>
      </trkpt>
      <trkpt lat="40.9902080" lon="-2.1780320">
        <ele>1289.2</ele>
        <time>2020-09-12T07:47:16Z</time>
      </trkpt>
      <trkpt lat="40.9901820" lon="-2.1780560">
        <ele>1289.6</ele>
        <time>2020-09-12T07:47:17Z</time>
      </trkpt>
      <trkpt lat="40.9901540" lon="-2.1780790">
        <ele>1289.8</ele>
        <time>2020-09-12T07:47:18Z</time>
      </trkpt>
      <trkpt lat="40.9901260" lon="-2.1781020">
        <ele>1290.0</ele>
        <time>2020-09-12T07:47:19Z</time>
      </trkpt>
      <trkpt lat="40.9900990" lon="-2.1781260">
        <ele>1290.0</ele>
        <time>2020-09-12T07:47:20Z</time>
      </trkpt>
      <trkpt lat="40.9900710" lon="-2.1781500">
        <ele>1290.2</ele>
        <time>2020-09-12T07:47:21Z</time>
      </trkpt>
      <trkpt lat="40.9900440" lon="-2.1781750">
        <ele>1290.4</ele>
        <time>2020-09-12T07:47:22Z</time>
      </trkpt>
      <trkpt lat="40.9900160" lon="-2.1782010">
        <ele>1290.8</ele>
        <time>2020-09-12T07:47:23Z</time>
      </trkpt>
      <trkpt lat="40.9899890" lon="-2.1782280">
        <ele>1291.0</ele>
        <time>2020-09-12T07:47:24Z</time>
      </trkpt>
      <trkpt lat="40.9899610" lon="-2.1782540">
        <ele>1291.4</ele>
        <time>2020-09-12T07:47:25Z</time>
      </trkpt>
      <trkpt lat="40.9899350" lon="-2.1782790">
        <ele>1291.4</ele>
        <time>2020-09-12T07:47:26Z</time>
      </trkpt>
      <trkpt lat="40.9899060" lon="-2.1783040">
        <ele>1291.6</ele>
        <time>2020-09-12T07:47:27Z</time>
      </trkpt>
      <trkpt lat="40.9898800" lon="-2.1783300">
        <ele>1291.8</ele>
        <time>2020-09-12T07:47:28Z</time>
      </trkpt>
      <trkpt lat="40.9898540" lon="-2.1783560">
        <ele>1292.0</ele>
        <time>2020-09-12T07:47:29Z</time>
      </trkpt>
      <trkpt lat="40.9898280" lon="-2.1783820">
        <ele>1292.2</ele>
        <time>2020-09-12T07:47:30Z</time>
      </trkpt>
      <trkpt lat="40.9898010" lon="-2.1784080">
        <ele>1292.6</ele>
        <time>2020-09-12T07:47:31Z</time>
      </trkpt>
      <trkpt lat="40.9897760" lon="-2.1784360">
        <ele>1292.8</ele>
        <time>2020-09-12T07:47:32Z</time>
      </trkpt>
      <trkpt lat="40.9897520" lon="-2.1784640">
        <ele>1293.0</ele>
        <time>2020-09-12T07:47:33Z</time>
      </trkpt>
      <trkpt lat="40.9897290" lon="-2.1784940">
        <ele>1293.2</ele>
        <time>2020-09-12T07:47:34Z</time>
      </trkpt>
      <trkpt lat="40.9897030" lon="-2.1785230">
        <ele>1293.4</ele>
        <time>2020-09-12T07:47:35Z</time>
      </trkpt>
      <trkpt lat="40.9896780" lon="-2.1785510">
        <ele>1293.4</ele>
        <time>2020-09-12T07:47:36Z</time>
      </trkpt>
      <trkpt lat="40.9896540" lon="-2.1785800">
        <ele>1293.6</ele>
        <time>2020-09-12T07:47:37Z</time>
      </trkpt>
      <trkpt lat="40.9896300" lon="-2.1786090">
        <ele>1294.0</ele>
        <time>2020-09-12T07:47:38Z</time>
      </trkpt>
      <trkpt lat="40.9896060" lon="-2.1786370">
        <ele>1294.2</ele>
        <time>2020-09-12T07:47:39Z</time>
      </trkpt>
      <trkpt lat="40.9895830" lon="-2.1786680">
        <ele>1294.6</ele>
        <time>2020-09-12T07:47:40Z</time>
      </trkpt>
      <trkpt lat="40.9895600" lon="-2.1786980">
        <ele>1294.8</ele>
        <time>2020-09-12T07:47:41Z</time>
      </trkpt>
      <trkpt lat="40.9895370" lon="-2.1787280">
        <ele>1295.2</ele>
        <time>2020-09-12T07:47:42Z</time>
      </trkpt>
      <trkpt lat="40.9895140" lon="-2.1787580">
        <ele>1295.4</ele>
        <time>2020-09-12T07:47:43Z</time>
      </trkpt>
      <trkpt lat="40.9894910" lon="-2.1787890">
        <ele>1295.6</ele>
        <time>2020-09-12T07:47:44Z</time>
      </trkpt>
      <trkpt lat="40.9894690" lon="-2.1788200">
        <ele>1295.8</ele>
        <time>2020-09-12T07:47:45Z</time>
      </trkpt>
      <trkpt lat="40.9894490" lon="-2.1788520">
        <ele>1296.0</ele>
        <time>2020-09-12T07:47:46Z</time>
      </trkpt>
      <trkpt lat="40.9894270" lon="-2.1788870">
        <ele>1296.4</ele>
        <time>2020-09-12T07:47:47Z</time>
      </trkpt>
      <trkpt lat="40.9894040" lon="-2.1789190">
        <ele>1296.8</ele>
        <time>2020-09-12T07:47:48Z</time>
      </trkpt>
      <trkpt lat="40.9893830" lon="-2.1789530">
        <ele>1296.8</ele>
        <time>2020-09-12T07:47:49Z</time>
      </trkpt>
      <trkpt lat="40.9893620" lon="-2.1789870">
        <ele>1297.0</ele>
        <time>2020-09-12T07:47:50Z</time>
      </trkpt>
      <trkpt lat="40.9893420" lon="-2.1790240">
        <ele>1297.0</ele>
        <time>2020-09-12T07:47:51Z</time>
      </trkpt>
      <trkpt lat="40.9893220" lon="-2.1790620">
        <ele>1297.2</ele>
        <time>2020-09-12T07:47:52Z</time>
      </trkpt>
      <trkpt lat="40.9893010" lon="-2.1790970">
        <ele>1297.4</ele>
        <time>2020-09-12T07:47:53Z</time>
      </trkpt>
      <trkpt lat="40.9892800" lon="-2.1791320">
        <ele>1297.6</ele>
        <time>2020-09-12T07:47:54Z</time>
      </trkpt>
      <trkpt lat="40.9892600" lon="-2.1791690">
        <ele>1298.0</ele>
        <time>2020-09-12T07:47:55Z</time>
      </trkpt>
      <trkpt lat="40.9892410" lon="-2.1792060">
        <ele>1298.2</ele>
        <time>2020-09-12T07:47:56Z</time>
      </trkpt>
      <trkpt lat="40.9892220" lon="-2.1792420">
        <ele>1298.4</ele>
        <time>2020-09-12T07:47:57Z</time>
      </trkpt>
      <trkpt lat="40.9892030" lon="-2.1792800">
        <ele>1298.8</ele>
        <time>2020-09-12T07:47:58Z</time>
      </trkpt>
      <trkpt lat="40.9891830" lon="-2.1793190">
        <ele>1299.0</ele>
        <time>2020-09-12T07:47:59Z</time>
      </trkpt>
      <trkpt lat="40.9891650" lon="-2.1793580">
        <ele>1299.2</ele>
        <time>2020-09-12T07:48:00Z</time>
      </trkpt>
      <trkpt lat="40.9891460" lon="-2.1793960">
        <ele>1299.4</ele>
        <time>2020-09-12T07:48:01Z</time>
      </trkpt>
      <trkpt lat="40.9891260" lon="-2.1794350">
        <ele>1299.6</ele>
        <time>2020-09-12T07:48:02Z</time>
      </trkpt>
      <trkpt lat="40.9891070" lon="-2.1794730">
        <ele>1299.8</ele>
        <time>2020-09-12T07:48:03Z</time>
      </trkpt>
      <trkpt lat="40.9890890" lon="-2.1795110">
        <ele>1300.0</ele>
        <time>2020-09-12T07:48:04Z</time>
      </trkpt>
      <trkpt lat="40.9890730" lon="-2.1795500">
        <ele>1300.2</ele>
        <time>2020-09-12T07:48:05Z</time>
      </trkpt>
      <trkpt lat="40.9890560" lon="-2.1795900">
        <ele>1300.6</ele>
        <time>2020-09-12T07:48:06Z</time>
      </trkpt>
      <trkpt lat="40.9890400" lon="-2.1796290">
        <ele>1300.8</ele>
        <time>2020-09-12T07:48:07Z</time>
      </trkpt>
      <trkpt lat="40.9890230" lon="-2.1796680">
        <ele>1301.2</ele>
        <time>2020-09-12T07:48:08Z</time>
      </trkpt>
      <trkpt lat="40.9890050" lon="-2.1797070">
        <ele>1301.2</ele>
        <time>2020-09-12T07:48:09Z</time>
      </trkpt>
      <trkpt lat="40.9889870" lon="-2.1797450">
        <ele>1301.4</ele>
        <time>2020-09-12T07:48:10Z</time>
      </trkpt>
      <trkpt lat="40.9889700" lon="-2.1797830">
        <ele>1301.6</ele>
        <time>2020-09-12T07:48:11Z</time>
      </trkpt>
      <trkpt lat="40.9889540" lon="-2.1798220">
        <ele>1302.0</ele>
        <time>2020-09-12T07:48:12Z</time>
      </trkpt>
      <trkpt lat="40.9889360" lon="-2.1798610">
        <ele>1302.4</ele>
        <time>2020-09-12T07:48:13Z</time>
      </trkpt>
      <trkpt lat="40.9889190" lon="-2.1798980">
        <ele>1302.6</ele>
        <time>2020-09-12T07:48:14Z</time>
      </trkpt>
      <trkpt lat="40.9889020" lon="-2.1799360">
        <ele>1303.0</ele>
        <time>2020-09-12T07:48:15Z</time>
      </trkpt>
      <trkpt lat="40.9888860" lon="-2.1799740">
        <ele>1303.2</ele>
        <time>2020-09-12T07:48:16Z</time>
      </trkpt>
      <trkpt lat="40.9888680" lon="-2.1800120">
        <ele>1303.4</ele>
        <time>2020-09-12T07:48:17Z</time>
      </trkpt>
      <trkpt lat="40.9888510" lon="-2.1800510">
        <ele>1303.6</ele>
        <time>2020-09-12T07:48:18Z</time>
      </trkpt>
      <trkpt lat="40.9888330" lon="-2.1800890">
        <ele>1303.8</ele>
        <time>2020-09-12T07:48:19Z</time>
      </trkpt>
      <trkpt lat="40.9888150" lon="-2.1801270">
        <ele>1304.2</ele>
        <time>2020-09-12T07:48:20Z</time>
      </trkpt>
      <trkpt lat="40.9887970" lon="-2.1801650">
        <ele>1304.4</ele>
        <time>2020-09-12T07:48:21Z</time>
      </trkpt>
      <trkpt lat="40.9887810" lon="-2.1802040">
        <ele>1304.6</ele>
        <time>2020-09-12T07:48:22Z</time>
      </trkpt>
      <trkpt lat="40.9887630" lon="-2.1802430">
        <ele>1304.8</ele>
        <time>2020-09-12T07:48:23Z</time>
      </trkpt>
      <trkpt lat="40.9887460" lon="-2.1802810">
        <ele>1304.8</ele>
        <time>2020-09-12T07:48:24Z</time>
      </trkpt>
      <trkpt lat="40.9887280" lon="-2.1803190">
        <ele>1305.0</ele>
        <time>2020-09-12T07:48:25Z</time>
      </trkpt>
      <trkpt lat="40.9887090" lon="-2.1803560">
        <ele>1305.4</ele>
        <time>2020-09-12T07:48:26Z</time>
      </trkpt>
      <trkpt lat="40.9886910" lon="-2.1803940">
        <ele>1305.6</ele>
        <time>2020-09-12T07:48:27Z</time>
      </trkpt>
      <trkpt lat="40.9886740" lon="-2.1804320">
        <ele>1305.8</ele>
        <time>2020-09-12T07:48:28Z</time>
      </trkpt>
      <trkpt lat="40.9886560" lon="-2.1804730">
        <ele>1306.0</ele>
        <time>2020-09-12T07:48:29Z</time>
      </trkpt>
      <trkpt lat="40.9886370" lon="-2.1805150">
        <ele>1306.4</ele>
        <time>2020-09-12T07:48:30Z</time>
      </trkpt>
      <trkpt lat="40.9886180" lon="-2.1805550">
        <ele>1306.6</ele>
        <time>2020-09-12T07:48:31Z</time>
      </trkpt>
      <trkpt lat="40.9885990" lon="-2.1805950">
        <ele>1307.0</ele>
        <time>2020-09-12T07:48:32Z</time>
      </trkpt>
      <trkpt lat="40.9885790" lon="-2.1806360">
        <ele>1307.4</ele>
        <time>2020-09-12T07:48:33Z</time>
      </trkpt>
      <trkpt lat="40.9885610" lon="-2.1806760">
        <ele>1307.6</ele>
        <time>2020-09-12T07:48:34Z</time>
      </trkpt>
      <trkpt lat="40.9885440" lon="-2.1807150">
        <ele>1307.8</ele>
        <time>2020-09-12T07:48:35Z</time>
      </trkpt>
      <trkpt lat="40.9885250" lon="-2.1807550">
        <ele>1308.0</ele>
        <time>2020-09-12T07:48:36Z</time>
      </trkpt>
      <trkpt lat="40.9885060" lon="-2.1807940">
        <ele>1308.2</ele>
        <time>2020-09-12T07:48:37Z</time>
      </trkpt>
      <trkpt lat="40.9884870" lon="-2.1808340">
        <ele>1308.4</ele>
        <time>2020-09-12T07:48:38Z</time>
      </trkpt>
      <trkpt lat="40.9884700" lon="-2.1808740">
        <ele>1308.6</ele>
        <time>2020-09-12T07:48:39Z</time>
      </trkpt>
      <trkpt lat="40.9884540" lon="-2.1809140">
        <ele>1308.8</ele>
        <time>2020-09-12T07:48:40Z</time>
      </trkpt>
      <trkpt lat="40.9884360" lon="-2.1809540">
        <ele>1309.2</ele>
        <time>2020-09-12T07:48:41Z</time>
      </trkpt>
      <trkpt lat="40.9884180" lon="-2.1809930">
        <ele>1309.6</ele>
        <time>2020-09-12T07:48:42Z</time>
      </trkpt>
      <trkpt lat="40.9884010" lon="-2.1810340">
        <ele>1309.8</ele>
        <time>2020-09-12T07:48:43Z</time>
      </trkpt>
      <trkpt lat="40.9883850" lon="-2.1810750">
        <ele>1310.0</ele>
        <time>2020-09-12T07:48:44Z</time>
      </trkpt>
      <trkpt lat="40.9883670" lon="-2.1811150">
        <ele>1310.0</ele>
        <time>2020-09-12T07:48:45Z</time>
      </trkpt>
      <trkpt lat="40.9883500" lon="-2.1811550">
        <ele>1310.4</ele>
        <time>2020-09-12T07:48:46Z</time>
      </trkpt>
      <trkpt lat="40.9883330" lon="-2.1811940">
        <ele>1310.6</ele>
        <time>2020-09-12T07:48:47Z</time>
      </trkpt>
      <trkpt lat="40.9883140" lon="-2.1812330">
        <ele>1311.0</ele>
        <time>2020-09-12T07:48:48Z</time>
      </trkpt>
      <trkpt lat="40.9882960" lon="-2.1812710">
        <ele>1311.2</ele>
        <time>2020-09-12T07:48:49Z</time>
      </trkpt>
      <trkpt lat="40.9882790" lon="-2.1813130">
        <ele>1311.4</ele>
        <time>2020-09-12T07:48:50Z</time>
      </trkpt>
      <trkpt lat="40.9882620" lon="-2.1813530">
        <ele>1311.6</ele>
        <time>2020-09-12T07:48:51Z</time>
      </trkpt>
      <trkpt lat="40.9882430" lon="-2.1813910">
        <ele>1311.8</ele>
        <time>2020-09-12T07:48:52Z</time>
      </trkpt>
      <trkpt lat="40.9882240" lon="-2.1814310">
        <ele>1312.0</ele>
        <time>2020-09-12T07:48:53Z</time>
      </trkpt>
      <trkpt lat="40.9882040" lon="-2.1814720">
        <ele>1312.2</ele>
        <time>2020-09-12T07:48:54Z</time>
      </trkpt>
      <trkpt lat="40.9881850" lon="-2.1815130">
        <ele>1312.4</ele>
        <time>2020-09-12T07:48:55Z</time>
      </trkpt>
      <trkpt lat="40.9881670" lon="-2.1815550">
        <ele>1312.6</ele>
        <time>2020-09-12T07:48:56Z</time>
      </trkpt>
      <trkpt lat="40.9881470" lon="-2.1815970">
        <ele>1313.0</ele>
        <time>2020-09-12T07:48:57Z</time>
      </trkpt>
      <trkpt lat="40.9881270" lon="-2.1816390">
        <ele>1313.2</ele>
        <time>2020-09-12T07:48:58Z</time>
      </trkpt>
      <trkpt lat="40.9881050" lon="-2.1816790">
        <ele>1313.4</ele>
        <time>2020-09-12T07:48:59Z</time>
      </trkpt>
      <trkpt lat="40.9880850" lon="-2.1817220">
        <ele>1313.8</ele>
        <time>2020-09-12T07:49:00Z</time>
      </trkpt>
      <trkpt lat="40.9880660" lon="-2.1817650">
        <ele>1314.0</ele>
        <time>2020-09-12T07:49:01Z</time>
      </trkpt>
      <trkpt lat="40.9880470" lon="-2.1818070">
        <ele>1314.2</ele>
        <time>2020-09-12T07:49:02Z</time>
      </trkpt>
      <trkpt lat="40.9880270" lon="-2.1818480">
        <ele>1314.4</ele>
        <time>2020-09-12T07:49:03Z</time>
      </trkpt>
      <trkpt lat="40.9880060" lon="-2.1818900">
        <ele>1314.4</ele>
        <time>2020-09-12T07:49:04Z</time>
      </trkpt>
      <trkpt lat="40.9879860" lon="-2.1819320">
        <ele>1314.6</ele>
        <time>2020-09-12T07:49:05Z</time>
      </trkpt>
      <trkpt lat="40.9879660" lon="-2.1819730">
        <ele>1314.8</ele>
        <time>2020-09-12T07:49:06Z</time>
      </trkpt>
      <trkpt lat="40.9879440" lon="-2.1820130">
        <ele>1315.0</ele>
        <time>2020-09-12T07:49:07Z</time>
      </trkpt>
      <trkpt lat="40.9879220" lon="-2.1820550">
        <ele>1315.2</ele>
        <time>2020-09-12T07:49:08Z</time>
      </trkpt>
      <trkpt lat="40.9878990" lon="-2.1820970">
        <ele>1315.4</ele>
        <time>2020-09-12T07:49:09Z</time>
      </trkpt>
      <trkpt lat="40.9878770" lon="-2.1821370">
        <ele>1315.8</ele>
        <time>2020-09-12T07:49:10Z</time>
      </trkpt>
      <trkpt lat="40.9878540" lon="-2.1821770">
        <ele>1316.0</ele>
        <time>2020-09-12T07:49:11Z</time>
      </trkpt>
      <trkpt lat="40.9878300" lon="-2.1822170">
        <ele>1316.2</ele>
        <time>2020-09-12T07:49:12Z</time>
      </trkpt>
      <trkpt lat="40.9878050" lon="-2.1822570">
        <ele>1316.2</ele>
        <time>2020-09-12T07:49:13Z</time>
      </trkpt>
      <trkpt lat="40.9877790" lon="-2.1822980">
        <ele>1316.4</ele>
        <time>2020-09-12T07:49:14Z</time>
      </trkpt>
      <trkpt lat="40.9877520" lon="-2.1823390">
        <ele>1316.4</ele>
        <time>2020-09-12T07:49:15Z</time>
      </trkpt>
      <trkpt lat="40.9877270" lon="-2.1823800">
        <ele>1316.4</ele>
        <time>2020-09-12T07:49:16Z</time>
      </trkpt>
      <trkpt lat="40.9877000" lon="-2.1824210">
        <ele>1316.6</ele>
        <time>2020-09-12T07:49:17Z</time>
      </trkpt>
      <trkpt lat="40.9876750" lon="-2.1824620">
        <ele>1316.6</ele>
        <time>2020-09-12T07:49:18Z</time>
      </trkpt>
      <trkpt lat="40.9876470" lon="-2.1825010">
        <ele>1316.8</ele>
        <time>2020-09-12T07:49:19Z</time>
      </trkpt>
      <trkpt lat="40.9876190" lon="-2.1825390">
        <ele>1317.2</ele>
        <time>2020-09-12T07:49:20Z</time>
      </trkpt>
      <trkpt lat="40.9875910" lon="-2.1825780">
        <ele>1317.2</ele>
        <time>2020-09-12T07:49:21Z</time>
      </trkpt>
      <trkpt lat="40.9875630" lon="-2.1826180">
        <ele>1317.4</ele>
        <time>2020-09-12T07:49:22Z</time>
      </trkpt>
      <trkpt lat="40.9875380" lon="-2.1826560">
        <ele>1317.4</ele>
        <time>2020-09-12T07:49:23Z</time>
      </trkpt>
      <trkpt lat="40.9875210" lon="-2.1827000">
        <ele>1317.6</ele>
        <time>2020-09-12T07:49:24Z</time>
      </trkpt>
      <trkpt lat="40.9875160" lon="-2.1827500">
        <ele>1317.6</ele>
        <time>2020-09-12T07:49:25Z</time>
      </trkpt>
      <trkpt lat="40.9875210" lon="-2.1828030">
        <ele>1317.6</ele>
        <time>2020-09-12T07:49:26Z</time>
      </trkpt>
      <trkpt lat="40.9875310" lon="-2.1828570">
        <ele>1317.6</ele>
        <time>2020-09-12T07:49:27Z</time>
      </trkpt>
      <trkpt lat="40.9875450" lon="-2.1829130">
        <ele>1317.6</ele>
        <time>2020-09-12T07:49:28Z</time>
      </trkpt>
      <trkpt lat="40.9875590" lon="-2.1829740">
        <ele>1317.6</ele>
        <time>2020-09-12T07:49:29Z</time>
      </trkpt>
      <trkpt lat="40.9875730" lon="-2.1830390">
        <ele>1317.4</ele>
        <time>2020-09-12T07:49:30Z</time>
      </trkpt>
      <trkpt lat="40.9875900" lon="-2.1831070">
        <ele>1317.4</ele>
        <time>2020-09-12T07:49:31Z</time>
      </trkpt>
      <trkpt lat="40.9876090" lon="-2.1831770">
        <ele>1317.4</ele>
        <time>2020-09-12T07:49:32Z</time>
      </trkpt>
      <trkpt lat="40.9876290" lon="-2.1832490">
        <ele>1317.2</ele>
        <time>2020-09-12T07:49:33Z</time>
      </trkpt>
      <trkpt lat="40.9876510" lon="-2.1833250">
        <ele>1317.0</ele>
        <time>2020-09-12T07:49:34Z</time>
      </trkpt>
      <trkpt lat="40.9876710" lon="-2.1834050">
        <ele>1316.8</ele>
        <time>2020-09-12T07:49:35Z</time>
      </trkpt>
      <trkpt lat="40.9876920" lon="-2.1834890">
        <ele>1316.6</ele>
        <time>2020-09-12T07:49:36Z</time>
      </trkpt>
      <trkpt lat="40.9877140" lon="-2.1835760">
        <ele>1316.2</ele>
        <time>2020-09-12T07:49:37Z</time>
      </trkpt>
      <trkpt lat="40.9877360" lon="-2.1836660">
        <ele>1316.0</ele>
        <time>2020-09-12T07:49:38Z</time>
      </trkpt>
      <trkpt lat="40.9877580" lon="-2.1837570">
        <ele>1315.8</ele>
        <time>2020-09-12T07:49:39Z</time>
      </trkpt>
      <trkpt lat="40.9877830" lon="-2.1838480">
        <ele>1315.4</ele>
        <time>2020-09-12T07:49:40Z</time>
      </trkpt>
      <trkpt lat="40.9878080" lon="-2.1839420">
        <ele>1315.2</ele>
        <time>2020-09-12T07:49:41Z</time>
      </trkpt>
      <trkpt lat="40.9878330" lon="-2.1840370">
        <ele>1315.0</ele>
        <time>2020-09-12T07:49:42Z</time>
      </trkpt>
      <trkpt lat="40.9878590" lon="-2.1841340">
        <ele>1314.8</ele>
        <time>2020-09-12T07:49:43Z</time>
      </trkpt>
      <trkpt lat="40.9878850" lon="-2.1842320">
        <ele>1314.6</ele>
        <time>2020-09-12T07:49:44Z</time>
      </trkpt>
      <trkpt lat="40.9879100" lon="-2.1843330">
        <ele>1314.2</ele>
        <time>2020-09-12T07:49:45Z</time>
      </trkpt>
      <trkpt lat="40.9879360" lon="-2.1844360">
        <ele>1313.8</ele>
        <time>2020-09-12T07:49:46Z</time>
      </trkpt>
      <trkpt lat="40.9879630" lon="-2.1845390">
        <ele>1313.6</ele>
        <time>2020-09-12T07:49:47Z</time>
      </trkpt>
      <trkpt lat="40.9879910" lon="-2.1846450">
        <ele>1313.0</ele>
        <time>2020-09-12T07:49:48Z</time>
      </trkpt>
      <trkpt lat="40.9880180" lon="-2.1847530">
        <ele>1312.6</ele>
        <time>2020-09-12T07:49:49Z</time>
      </trkpt>
      <trkpt lat="40.9880450" lon="-2.1848640">
        <ele>1312.0</ele>
        <time>2020-09-12T07:49:50Z</time>
      </trkpt>
      <trkpt lat="40.9880710" lon="-2.1849750">
        <ele>1311.6</ele>
        <time>2020-09-12T07:49:51Z</time>
      </trkpt>
      <trkpt lat="40.9880960" lon="-2.1850890">
        <ele>1311.4</ele>
        <time>2020-09-12T07:49:52Z</time>
      </trkpt>
      <trkpt lat="40.9881220" lon="-2.1852040">
        <ele>1311.0</ele>
        <time>2020-09-12T07:49:53Z</time>
      </trkpt>
      <trkpt lat="40.9881480" lon="-2.1853200">
        <ele>1310.6</ele>
        <time>2020-09-12T07:49:54Z</time>
      </trkpt>
      <trkpt lat="40.9881750" lon="-2.1854360">
        <ele>1310.2</ele>
        <time>2020-09-12T07:49:55Z</time>
      </trkpt>
      <trkpt lat="40.9882010" lon="-2.1855530">
        <ele>1309.4</ele>
        <time>2020-09-12T07:49:56Z</time>
      </trkpt>
      <trkpt lat="40.9882280" lon="-2.1856720">
        <ele>1308.8</ele>
        <time>2020-09-12T07:49:57Z</time>
      </trkpt>
      <trkpt lat="40.9882550" lon="-2.1857920">
        <ele>1308.0</ele>
        <time>2020-09-12T07:49:58Z</time>
      </trkpt>
      <trkpt lat="40.9882850" lon="-2.1859110">
        <ele>1307.4</ele>
        <time>2020-09-12T07:49:59Z</time>
      </trkpt>
      <trkpt lat="40.9883200" lon="-2.1860320">
        <ele>1306.8</ele>
        <time>2020-09-12T07:50:00Z</time>
      </trkpt>
      <trkpt lat="40.9883620" lon="-2.1861480">
        <ele>1305.8</ele>
        <time>2020-09-12T07:50:01Z</time>
      </trkpt>
      <trkpt lat="40.9884180" lon="-2.1862560">
        <ele>1305.8</ele>
        <time>2020-09-12T07:50:02Z</time>
      </trkpt>
      <trkpt lat="40.9884860" lon="-2.1863510">
        <ele>1305.2</ele>
        <time>2020-09-12T07:50:03Z</time>
      </trkpt>
      <trkpt lat="40.9885650" lon="-2.1864360">
        <ele>1304.6</ele>
        <time>2020-09-12T07:50:04Z</time>
      </trkpt>
      <trkpt lat="40.9886490" lon="-2.1865140">
        <ele>1304.0</ele>
        <time>2020-09-12T07:50:05Z</time>
      </trkpt>
      <trkpt lat="40.9887340" lon="-2.1865920">
        <ele>1303.6</ele>
        <time>2020-09-12T07:50:06Z</time>
      </trkpt>
      <trkpt lat="40.9888180" lon="-2.1866680">
        <ele>1303.2</ele>
        <time>2020-09-12T07:50:07Z</time>
      </trkpt>
      <trkpt lat="40.9889040" lon="-2.1867430">
        <ele>1302.6</ele>
        <time>2020-09-12T07:50:08Z</time>
      </trkpt>
      <trkpt lat="40.9889900" lon="-2.1868180">
        <ele>1302.0</ele>
        <time>2020-09-12T07:50:09Z</time>
      </trkpt>
      <trkpt lat="40.9890770" lon="-2.1868950">
        <ele>1301.4</ele>
        <time>2020-09-12T07:50:10Z</time>
      </trkpt>
      <trkpt lat="40.9891670" lon="-2.1869640">
        <ele>1301.0</ele>
        <time>2020-09-12T07:50:11Z</time>
      </trkpt>
      <trkpt lat="40.9892610" lon="-2.1870250">
        <ele>1300.6</ele>
        <time>2020-09-12T07:50:12Z</time>
      </trkpt>
      <trkpt lat="40.9893580" lon="-2.1870810">
        <ele>1300.2</ele>
        <time>2020-09-12T07:50:13Z</time>
      </trkpt>
      <trkpt lat="40.9894580" lon="-2.1871330">
        <ele>1299.8</ele>
        <time>2020-09-12T07:50:14Z</time>
      </trkpt>
      <trkpt lat="40.9895580" lon="-2.1871830">
        <ele>1299.4</ele>
        <time>2020-09-12T07:50:15Z</time>
      </trkpt>
      <trkpt lat="40.9896580" lon="-2.1872300">
        <ele>1299.0</ele>
        <time>2020-09-12T07:50:16Z</time>
      </trkpt>
      <trkpt lat="40.9897570" lon="-2.1872770">
        <ele>1298.8</ele>
        <time>2020-09-12T07:50:17Z</time>
      </trkpt>
      <trkpt lat="40.9898570" lon="-2.1873260">
        <ele>1298.4</ele>
        <time>2020-09-12T07:50:18Z</time>
      </trkpt>
      <trkpt lat="40.9899560" lon="-2.1873780">
        <ele>1298.0</ele>
        <time>2020-09-12T07:50:19Z</time>
      </trkpt>
      <trkpt lat="40.9900520" lon="-2.1874350">
        <ele>1297.4</ele>
        <time>2020-09-12T07:50:20Z</time>
      </trkpt>
      <trkpt lat="40.9901460" lon="-2.1874980">
        <ele>1297.0</ele>
        <time>2020-09-12T07:50:21Z</time>
      </trkpt>
      <trkpt lat="40.9902370" lon="-2.1875680">
        <ele>1296.4</ele>
        <time>2020-09-12T07:50:22Z</time>
      </trkpt>
      <trkpt lat="40.9903280" lon="-2.1876410">
        <ele>1296.0</ele>
        <time>2020-09-12T07:50:23Z</time>
      </trkpt>
      <trkpt lat="40.9904210" lon="-2.1877120">
        <ele>1295.4</ele>
        <time>2020-09-12T07:50:24Z</time>
      </trkpt>
      <trkpt lat="40.9905170" lon="-2.1877820">
        <ele>1294.6</ele>
        <time>2020-09-12T07:50:25Z</time>
      </trkpt>
      <trkpt lat="40.9906170" lon="-2.1878490">
        <ele>1294.0</ele>
        <time>2020-09-12T07:50:26Z</time>
      </trkpt>
      <trkpt lat="40.9907180" lon="-2.1879160">
        <ele>1293.4</ele>
        <time>2020-09-12T07:50:27Z</time>
      </trkpt>
      <trkpt lat="40.9908190" lon="-2.1879830">
        <ele>1293.0</ele>
        <time>2020-09-12T07:50:28Z</time>
      </trkpt>
      <trkpt lat="40.9909190" lon="-2.1880540">
        <ele>1292.6</ele>
        <time>2020-09-12T07:50:29Z</time>
      </trkpt>
      <trkpt lat="40.9910180" lon="-2.1881280">
        <ele>1291.8</ele>
        <time>2020-09-12T07:50:30Z</time>
      </trkpt>
      <trkpt lat="40.9911130" lon="-2.1882100">
        <ele>1291.2</ele>
        <time>2020-09-12T07:50:31Z</time>
      </trkpt>
      <trkpt lat="40.9912030" lon="-2.1882990">
        <ele>1290.6</ele>
        <time>2020-09-12T07:50:32Z</time>
      </trkpt>
      <trkpt lat="40.9912900" lon="-2.1883920">
        <ele>1289.8</ele>
        <time>2020-09-12T07:50:33Z</time>
      </trkpt>
      <trkpt lat="40.9913770" lon="-2.1884860">
        <ele>1289.2</ele>
        <time>2020-09-12T07:50:34Z</time>
      </trkpt>
      <trkpt lat="40.9914620" lon="-2.1885820">
        <ele>1288.8</ele>
        <time>2020-09-12T07:50:35Z</time>
      </trkpt>
      <trkpt lat="40.9915450" lon="-2.1886780">
        <ele>1288.4</ele>
        <time>2020-09-12T07:50:36Z</time>
      </trkpt>
      <trkpt lat="40.9916270" lon="-2.1887740">
        <ele>1288.0</ele>
        <time>2020-09-12T07:50:37Z</time>
      </trkpt>
      <trkpt lat="40.9917090" lon="-2.1888680">
        <ele>1287.8</ele>
        <time>2020-09-12T07:50:38Z</time>
      </trkpt>
      <trkpt lat="40.9917880" lon="-2.1889600">
        <ele>1287.4</ele>
        <time>2020-09-12T07:50:39Z</time>
      </trkpt>
      <trkpt lat="40.9918650" lon="-2.1890500">
        <ele>1287.2</ele>
        <time>2020-09-12T07:50:40Z</time>
      </trkpt>
      <trkpt lat="40.9919400" lon="-2.1891390">
        <ele>1287.0</ele>
        <time>2020-09-12T07:50:41Z</time>
      </trkpt>
      <trkpt lat="40.9920120" lon="-2.1892260">
        <ele>1286.8</ele>
        <time>2020-09-12T07:50:42Z</time>
      </trkpt>
      <trkpt lat="40.9920810" lon="-2.1893090">
        <ele>1286.6</ele>
        <time>2020-09-12T07:50:43Z</time>
      </trkpt>
      <trkpt lat="40.9921470" lon="-2.1893870">
        <ele>1286.4</ele>
        <time>2020-09-12T07:50:44Z</time>
      </trkpt>
      <trkpt lat="40.9922110" lon="-2.1894600">
        <ele>1286.4</ele>
        <time>2020-09-12T07:50:45Z</time>
      </trkpt>
      <trkpt lat="40.9922730" lon="-2.1895280">
        <ele>1286.4</ele>
        <time>2020-09-12T07:50:46Z</time>
      </trkpt>
      <trkpt lat="40.9923310" lon="-2.1895950">
        <ele>1286.4</ele>
        <time>2020-09-12T07:50:47Z</time>
      </trkpt>
      <trkpt lat="40.9923860" lon="-2.1896610">
        <ele>1286.4</ele>
        <time>2020-09-12T07:50:48Z</time>
      </trkpt>
      <trkpt lat="40.9924390" lon="-2.1897250">
        <ele>1286.6</ele>
        <time>2020-09-12T07:50:49Z</time>
      </trkpt>
      <trkpt lat="40.9924900" lon="-2.1897880">
        <ele>1286.8</ele>
        <time>2020-09-12T07:50:50Z</time>
      </trkpt>
      <trkpt lat="40.9925390" lon="-2.1898500">
        <ele>1287.0</ele>
        <time>2020-09-12T07:50:51Z</time>
      </trkpt>
      <trkpt lat="40.9925860" lon="-2.1899090">
        <ele>1287.2</ele>
        <time>2020-09-12T07:50:52Z</time>
      </trkpt>
      <trkpt lat="40.9926310" lon="-2.1899650">
        <ele>1287.4</ele>
        <time>2020-09-12T07:50:53Z</time>
      </trkpt>
      <trkpt lat="40.9926760" lon="-2.1900200">
        <ele>1287.8</ele>
        <time>2020-09-12T07:50:54Z</time>
      </trkpt>
      <trkpt lat="40.9927170" lon="-2.1900760">
        <ele>1288.0</ele>
        <time>2020-09-12T07:50:55Z</time>
      </trkpt>
      <trkpt lat="40.9927550" lon="-2.1901350">
        <ele>1288.2</ele>
        <time>2020-09-12T07:50:56Z</time>
      </trkpt>
      <trkpt lat="40.9927910" lon="-2.1901940">
        <ele>1288.4</ele>
        <time>2020-09-12T07:50:57Z</time>
      </trkpt>
      <trkpt lat="40.9928260" lon="-2.1902550">
        <ele>1288.6</ele>
        <time>2020-09-12T07:50:58Z</time>
      </trkpt>
      <trkpt lat="40.9928620" lon="-2.1903180">
        <ele>1288.8</ele>
        <time>2020-09-12T07:50:59Z</time>
      </trkpt>
      <trkpt lat="40.9928970" lon="-2.1903810">
        <ele>1289.0</ele>
        <time>2020-09-12T07:51:00Z</time>
      </trkpt>
      <trkpt lat="40.9929320" lon="-2.1904480">
        <ele>1289.0</ele>
        <time>2020-09-12T07:51:01Z</time>
      </trkpt>
      <trkpt lat="40.9929660" lon="-2.1905180">
        <ele>1289.0</ele>
        <time>2020-09-12T07:51:02Z</time>
      </trkpt>
      <trkpt lat="40.9929990" lon="-2.1905900">
        <ele>1289.0</ele>
        <time>2020-09-12T07:51:03Z</time>
      </trkpt>
      <trkpt lat="40.9930320" lon="-2.1906640">
        <ele>1289.0</ele>
        <time>2020-09-12T07:51:04Z</time>
      </trkpt>
      <trkpt lat="40.9930640" lon="-2.1907390">
        <ele>1289.0</ele>
        <time>2020-09-12T07:51:05Z</time>
      </trkpt>
      <trkpt lat="40.9930960" lon="-2.1908150">
        <ele>1289.0</ele>
        <time>2020-09-12T07:51:06Z</time>
      </trkpt>
      <trkpt lat="40.9931300" lon="-2.1908910">
        <ele>1288.8</ele>
        <time>2020-09-12T07:51:07Z</time>
      </trkpt>
      <trkpt lat="40.9931630" lon="-2.1909670">
        <ele>1288.8</ele>
        <time>2020-09-12T07:51:08Z</time>
      </trkpt>
      <trkpt lat="40.9931970" lon="-2.1910430">
        <ele>1288.8</ele>
        <time>2020-09-12T07:51:09Z</time>
      </trkpt>
      <trkpt lat="40.9932320" lon="-2.1911180">
        <ele>1288.8</ele>
        <time>2020-09-12T07:51:10Z</time>
      </trkpt>
      <trkpt lat="40.9932680" lon="-2.1911920">
        <ele>1289.0</ele>
        <time>2020-09-12T07:51:11Z</time>
      </trkpt>
      <trkpt lat="40.9933050" lon="-2.1912660">
        <ele>1289.0</ele>
        <time>2020-09-12T07:51:12Z</time>
      </trkpt>
      <trkpt lat="40.9933420" lon="-2.1913400">
        <ele>1289.2</ele>
        <time>2020-09-12T07:51:13Z</time>
      </trkpt>
      <trkpt lat="40.9933810" lon="-2.1914130">
        <ele>1289.2</ele>
        <time>2020-09-12T07:51:14Z</time>
      </trkpt>
      <trkpt lat="40.9934210" lon="-2.1914830">
        <ele>1289.2</ele>
        <time>2020-09-12T07:51:15Z</time>
      </trkpt>
      <trkpt lat="40.9934610" lon="-2.1915530">
        <ele>1289.2</ele>
        <time>2020-09-12T07:51:16Z</time>
      </trkpt>
      <trkpt lat="40.9935020" lon="-2.1916210">
        <ele>1289.2</ele>
        <time>2020-09-12T07:51:17Z</time>
      </trkpt>
      <trkpt lat="40.9935430" lon="-2.1916890">
        <ele>1289.4</ele>
        <time>2020-09-12T07:51:18Z</time>
      </trkpt>
      <trkpt lat="40.9935840" lon="-2.1917570">
        <ele>1289.4</ele>
        <time>2020-09-12T07:51:19Z</time>
      </trkpt>
      <trkpt lat="40.9936250" lon="-2.1918230">
        <ele>1289.4</ele>
        <time>2020-09-12T07:51:20Z</time>
      </trkpt>
      <trkpt lat="40.9936660" lon="-2.1918890">
        <ele>1289.4</ele>
        <time>2020-09-12T07:51:21Z</time>
      </trkpt>
      <trkpt lat="40.9937040" lon="-2.1919560">
        <ele>1289.4</ele>
        <time>2020-09-12T07:51:22Z</time>
      </trkpt>
      <trkpt lat="40.9937420" lon="-2.1920220">
        <ele>1289.4</ele>
        <time>2020-09-12T07:51:23Z</time>
      </trkpt>
      <trkpt lat="40.9937790" lon="-2.1920870">
        <ele>1289.6</ele>
        <time>2020-09-12T07:51:24Z</time>
      </trkpt>
      <trkpt lat="40.9938140" lon="-2.1921520">
        <ele>1289.6</ele>
        <time>2020-09-12T07:51:25Z</time>
      </trkpt>
      <trkpt lat="40.9938470" lon="-2.1922190">
        <ele>1289.8</ele>
        <time>2020-09-12T07:51:26Z</time>
      </trkpt>
      <trkpt lat="40.9938770" lon="-2.1922890">
        <ele>1289.8</ele>
        <time>2020-09-12T07:51:27Z</time>
      </trkpt>
      <trkpt lat="40.9939030" lon="-2.1923600">
        <ele>1289.8</ele>
        <time>2020-09-12T07:51:28Z</time>
      </trkpt>
      <trkpt lat="40.9939270" lon="-2.1924330">
        <ele>1290.0</ele>
        <time>2020-09-12T07:51:29Z</time>
      </trkpt>
      <trkpt lat="40.9939500" lon="-2.1925050">
        <ele>1290.2</ele>
        <time>2020-09-12T07:51:30Z</time>
      </trkpt>
      <trkpt lat="40.9939700" lon="-2.1925780">
        <ele>1290.2</ele>
        <time>2020-09-12T07:51:31Z</time>
      </trkpt>
      <trkpt lat="40.9939900" lon="-2.1926510">
        <ele>1290.4</ele>
        <time>2020-09-12T07:51:32Z</time>
      </trkpt>
      <trkpt lat="40.9940080" lon="-2.1927240">
        <ele>1290.6</ele>
        <time>2020-09-12T07:51:33Z</time>
      </trkpt>
      <trkpt lat="40.9940240" lon="-2.1927970">
        <ele>1290.6</ele>
        <time>2020-09-12T07:51:34Z</time>
      </trkpt>
      <trkpt lat="40.9940370" lon="-2.1928720">
        <ele>1290.8</ele>
        <time>2020-09-12T07:51:35Z</time>
      </trkpt>
      <trkpt lat="40.9940480" lon="-2.1929470">
        <ele>1291.0</ele>
        <time>2020-09-12T07:51:36Z</time>
      </trkpt>
      <trkpt lat="40.9940570" lon="-2.1930220">
        <ele>1291.0</ele>
        <time>2020-09-12T07:51:37Z</time>
      </trkpt>
      <trkpt lat="40.9940650" lon="-2.1930990">
        <ele>1291.4</ele>
        <time>2020-09-12T07:51:38Z</time>
      </trkpt>
      <trkpt lat="40.9940730" lon="-2.1931760">
        <ele>1291.6</ele>
        <time>2020-09-12T07:51:39Z</time>
      </trkpt>
      <trkpt lat="40.9940790" lon="-2.1932540">
        <ele>1291.8</ele>
        <time>2020-09-12T07:51:40Z</time>
      </trkpt>
      <trkpt lat="40.9940850" lon="-2.1933310">
        <ele>1291.8</ele>
        <time>2020-09-12T07:51:41Z</time>
      </trkpt>
      <trkpt lat="40.9940910" lon="-2.1934100">
        <ele>1292.0</ele>
        <time>2020-09-12T07:51:42Z</time>
      </trkpt>
      <trkpt lat="40.9940980" lon="-2.1934880">
        <ele>1292.0</ele>
        <time>2020-09-12T07:51:43Z</time>
      </trkpt>
      <trkpt lat="40.9941040" lon="-2.1935660">
        <ele>1292.2</ele>
        <time>2020-09-12T07:51:44Z</time>
      </trkpt>
      <trkpt lat="40.9941110" lon="-2.1936440">
        <ele>1292.4</ele>
        <time>2020-09-12T07:51:45Z</time>
      </trkpt>
      <trkpt lat="40.9941190" lon="-2.1937220">
        <ele>1292.6</ele>
        <time>2020-09-12T07:51:46Z</time>
      </trkpt>
      <trkpt lat="40.9941290" lon="-2.1938010">
        <ele>1292.6</ele>
        <time>2020-09-12T07:51:47Z</time>
      </trkpt>
      <trkpt lat="40.9941410" lon="-2.1938800">
        <ele>1292.8</ele>
        <time>2020-09-12T07:51:48Z</time>
      </trkpt>
      <trkpt lat="40.9941560" lon="-2.1939580">
        <ele>1293.0</ele>
        <time>2020-09-12T07:51:49Z</time>
      </trkpt>
      <trkpt lat="40.9941730" lon="-2.1940350">
        <ele>1293.0</ele>
        <time>2020-09-12T07:51:50Z</time>
      </trkpt>
      <trkpt lat="40.9941940" lon="-2.1941130">
        <ele>1293.0</ele>
        <time>2020-09-12T07:51:51Z</time>
      </trkpt>
      <trkpt lat="40.9942170" lon="-2.1941900">
        <ele>1293.2</ele>
        <time>2020-09-12T07:51:52Z</time>
      </trkpt>
      <trkpt lat="40.9942420" lon="-2.1942640">
        <ele>1293.4</ele>
        <time>2020-09-12T07:51:53Z</time>
      </trkpt>
      <trkpt lat="40.9942700" lon="-2.1943380">
        <ele>1293.4</ele>
        <time>2020-09-12T07:51:54Z</time>
      </trkpt>
      <trkpt lat="40.9942980" lon="-2.1944120">
        <ele>1293.6</ele>
        <time>2020-09-12T07:51:55Z</time>
      </trkpt>
      <trkpt lat="40.9943260" lon="-2.1944840">
        <ele>1293.6</ele>
        <time>2020-09-12T07:51:56Z</time>
      </trkpt>
      <trkpt lat="40.9943550" lon="-2.1945560">
        <ele>1293.8</ele>
        <time>2020-09-12T07:51:57Z</time>
      </trkpt>
      <trkpt lat="40.9943830" lon="-2.1946290">
        <ele>1294.0</ele>
        <time>2020-09-12T07:51:58Z</time>
      </trkpt>
      <trkpt lat="40.9944110" lon="-2.1947020">
        <ele>1294.0</ele>
        <time>2020-09-12T07:51:59Z</time>
      </trkpt>
      <trkpt lat="40.9944400" lon="-2.1947740">
        <ele>1294.0</ele>
        <time>2020-09-12T07:52:00Z</time>
      </trkpt>
      <trkpt lat="40.9944710" lon="-2.1948470">
        <ele>1294.2</ele>
        <time>2020-09-12T07:52:01Z</time>
      </trkpt>
      <trkpt lat="40.9945020" lon="-2.1949200">
        <ele>1294.2</ele>
        <time>2020-09-12T07:52:02Z</time>
      </trkpt>
      <trkpt lat="40.9945340" lon="-2.1949940">
        <ele>1294.2</ele>
        <time>2020-09-12T07:52:03Z</time>
      </trkpt>
      <trkpt lat="40.9945680" lon="-2.1950670">
        <ele>1294.2</ele>
        <time>2020-09-12T07:52:04Z</time>
      </trkpt>
      <trkpt lat="40.9946050" lon="-2.1951380">
        <ele>1294.2</ele>
        <time>2020-09-12T07:52:05Z</time>
      </trkpt>
      <trkpt lat="40.9946440" lon="-2.1952060">
        <ele>1294.2</ele>
        <time>2020-09-12T07:52:06Z</time>
      </trkpt>
      <trkpt lat="40.9946840" lon="-2.1952710">
        <ele>1294.4</ele>
        <time>2020-09-12T07:52:07Z</time>
      </trkpt>
      <trkpt lat="40.9947260" lon="-2.1953340">
        <ele>1294.4</ele>
        <time>2020-09-12T07:52:08Z</time>
      </trkpt>
      <trkpt lat="40.9947700" lon="-2.1953940">
        <ele>1294.4</ele>
        <time>2020-09-12T07:52:09Z</time>
      </trkpt>
      <trkpt lat="40.9948150" lon="-2.1954530">
        <ele>1294.6</ele>
        <time>2020-09-12T07:52:10Z</time>
      </trkpt>
      <trkpt lat="40.9948610" lon="-2.1955120">
        <ele>1294.6</ele>
        <time>2020-09-12T07:52:11Z</time>
      </trkpt>
      <trkpt lat="40.9949070" lon="-2.1955710">
        <ele>1294.8</ele>
        <time>2020-09-12T07:52:12Z</time>
      </trkpt>
      <trkpt lat="40.9949520" lon="-2.1956290">
        <ele>1294.8</ele>
        <time>2020-09-12T07:52:13Z</time>
      </trkpt>
      <trkpt lat="40.9949960" lon="-2.1956890">
        <ele>1294.8</ele>
        <time>2020-09-12T07:52:14Z</time>
      </trkpt>
      <trkpt lat="40.9950400" lon="-2.1957500">
        <ele>1294.8</ele>
        <time>2020-09-12T07:52:15Z</time>
      </trkpt>
      <trkpt lat="40.9950850" lon="-2.1958100">
        <ele>1294.8</ele>
        <time>2020-09-12T07:52:16Z</time>
      </trkpt>
      <trkpt lat="40.9951310" lon="-2.1958690">
        <ele>1294.8</ele>
        <time>2020-09-12T07:52:17Z</time>
      </trkpt>
      <trkpt lat="40.9951790" lon="-2.1959280">
        <ele>1294.8</ele>
        <time>2020-09-12T07:52:18Z</time>
      </trkpt>
      <trkpt lat="40.9952260" lon="-2.1959870">
        <ele>1294.8</ele>
        <time>2020-09-12T07:52:19Z</time>
      </trkpt>
      <trkpt lat="40.9952740" lon="-2.1960470">
        <ele>1294.8</ele>
        <time>2020-09-12T07:52:20Z</time>
      </trkpt>
      <trkpt lat="40.9953200" lon="-2.1961070">
        <ele>1294.8</ele>
        <time>2020-09-12T07:52:21Z</time>
      </trkpt>
      <trkpt lat="40.9953670" lon="-2.1961680">
        <ele>1294.8</ele>
        <time>2020-09-12T07:52:22Z</time>
      </trkpt>
      <trkpt lat="40.9954120" lon="-2.1962310">
        <ele>1295.0</ele>
        <time>2020-09-12T07:52:23Z</time>
      </trkpt>
      <trkpt lat="40.9954580" lon="-2.1962940">
        <ele>1295.0</ele>
        <time>2020-09-12T07:52:24Z</time>
      </trkpt>
      <trkpt lat="40.9955050" lon="-2.1963560">
        <ele>1295.0</ele>
        <time>2020-09-12T07:52:25Z</time>
      </trkpt>
      <trkpt lat="40.9955530" lon="-2.1964170">
        <ele>1295.2</ele>
        <time>2020-09-12T07:52:26Z</time>
      </trkpt>
      <trkpt lat="40.9956010" lon="-2.1964780">
        <ele>1295.2</ele>
        <time>2020-09-12T07:52:27Z</time>
      </trkpt>
      <trkpt lat="40.9956480" lon="-2.1965380">
        <ele>1295.4</ele>
        <time>2020-09-12T07:52:28Z</time>
      </trkpt>
      <trkpt lat="40.9956950" lon="-2.1965990">
        <ele>1295.4</ele>
        <time>2020-09-12T07:52:29Z</time>
      </trkpt>
      <trkpt lat="40.9957420" lon="-2.1966600">
        <ele>1295.4</ele>
        <time>2020-09-12T07:52:30Z</time>
      </trkpt>
      <trkpt lat="40.9957890" lon="-2.1967200">
        <ele>1295.6</ele>
        <time>2020-09-12T07:52:31Z</time>
      </trkpt>
      <trkpt lat="40.9958350" lon="-2.1967790">
        <ele>1295.6</ele>
        <time>2020-09-12T07:52:32Z</time>
      </trkpt>
      <trkpt lat="40.9958790" lon="-2.1968380">
        <ele>1295.8</ele>
        <time>2020-09-12T07:52:33Z</time>
      </trkpt>
      <trkpt lat="40.9959230" lon="-2.1968960">
        <ele>1296.0</ele>
        <time>2020-09-12T07:52:34Z</time>
      </trkpt>
      <trkpt lat="40.9959690" lon="-2.1969540">
        <ele>1296.2</ele>
        <time>2020-09-12T07:52:35Z</time>
      </trkpt>
      <trkpt lat="40.9960130" lon="-2.1970100">
        <ele>1296.2</ele>
        <time>2020-09-12T07:52:36Z</time>
      </trkpt>
      <trkpt lat="40.9960580" lon="-2.1970670">
        <ele>1296.4</ele>
        <time>2020-09-12T07:52:37Z</time>
      </trkpt>
      <trkpt lat="40.9961030" lon="-2.1971220">
        <ele>1296.4</ele>
        <time>2020-09-12T07:52:38Z</time>
      </trkpt>
      <trkpt lat="40.9961480" lon="-2.1971760">
        <ele>1296.6</ele>
        <time>2020-09-12T07:52:39Z</time>
      </trkpt>
      <trkpt lat="40.9961930" lon="-2.1972300">
        <ele>1297.0</ele>
        <time>2020-09-12T07:52:40Z</time>
      </trkpt>
      <trkpt lat="40.9962360" lon="-2.1972860">
        <ele>1297.2</ele>
        <time>2020-09-12T07:52:41Z</time>
      </trkpt>
      <trkpt lat="40.9962790" lon="-2.1973420">
        <ele>1297.4</ele>
        <time>2020-09-12T07:52:42Z</time>
      </trkpt>
      <trkpt lat="40.9963220" lon="-2.1973970">
        <ele>1297.4</ele>
        <time>2020-09-12T07:52:43Z</time>
      </trkpt>
      <trkpt lat="40.9963650" lon="-2.1974520">
        <ele>1297.6</ele>
        <time>2020-09-12T07:52:44Z</time>
      </trkpt>
      <trkpt lat="40.9964070" lon="-2.1975080">
        <ele>1297.6</ele>
        <time>2020-09-12T07:52:45Z</time>
      </trkpt>
      <trkpt lat="40.9964500" lon="-2.1975620">
        <ele>1297.6</ele>
        <time>2020-09-12T07:52:46Z</time>
      </trkpt>
      <trkpt lat="40.9964920" lon="-2.1976170">
        <ele>1297.8</ele>
        <time>2020-09-12T07:52:47Z</time>
      </trkpt>
      <trkpt lat="40.9965340" lon="-2.1976710">
        <ele>1297.8</ele>
        <time>2020-09-12T07:52:48Z</time>
      </trkpt>
      <trkpt lat="40.9965770" lon="-2.1977250">
        <ele>1298.0</ele>
        <time>2020-09-12T07:52:49Z</time>
      </trkpt>
      <trkpt lat="40.9966210" lon="-2.1977770">
        <ele>1298.0</ele>
        <time>2020-09-12T07:52:50Z</time>
      </trkpt>
      <trkpt lat="40.9966640" lon="-2.1978300">
        <ele>1298.2</ele>
        <time>2020-09-12T07:52:51Z</time>
      </trkpt>
      <trkpt lat="40.9967060" lon="-2.1978830">
        <ele>1298.2</ele>
        <time>2020-09-12T07:52:52Z</time>
      </trkpt>
      <trkpt lat="40.9967500" lon="-2.1979340">
        <ele>1298.2</ele>
        <time>2020-09-12T07:52:53Z</time>
      </trkpt>
      <trkpt lat="40.9967930" lon="-2.1979850">
        <ele>1298.4</ele>
        <time>2020-09-12T07:52:54Z</time>
      </trkpt>
      <trkpt lat="40.9968370" lon="-2.1980350">
        <ele>1298.4</ele>
        <time>2020-09-12T07:52:55Z</time>
      </trkpt>
      <trkpt lat="40.9968820" lon="-2.1980830">
        <ele>1298.6</ele>
        <time>2020-09-12T07:52:56Z</time>
      </trkpt>
      <trkpt lat="40.9969250" lon="-2.1981320">
        <ele>1298.8</ele>
        <time>2020-09-12T07:52:57Z</time>
      </trkpt>
      <trkpt lat="40.9969700" lon="-2.1981820">
        <ele>1299.0</ele>
        <time>2020-09-12T07:52:58Z</time>
      </trkpt>
      <trkpt lat="40.9970120" lon="-2.1982340">
        <ele>1299.0</ele>
        <time>2020-09-12T07:52:59Z</time>
      </trkpt>
      <trkpt lat="40.9970520" lon="-2.1982870">
        <ele>1299.2</ele>
        <time>2020-09-12T07:53:00Z</time>
      </trkpt>
      <trkpt lat="40.9970940" lon="-2.1983400">
        <ele>1299.4</ele>
        <time>2020-09-12T07:53:01Z</time>
      </trkpt>
      <trkpt lat="40.9971360" lon="-2.1983920">
        <ele>1299.4</ele>
        <time>2020-09-12T07:53:02Z</time>
      </trkpt>
      <trkpt lat="40.9971780" lon="-2.1984440">
        <ele>1299.4</ele>
        <time>2020-09-12T07:53:03Z</time>
      </trkpt>
      <trkpt lat="40.9972210" lon="-2.1984980">
        <ele>1299.6</ele>
        <time>2020-09-12T07:53:04Z</time>
      </trkpt>
      <trkpt lat="40.9972640" lon="-2.1985550">
        <ele>1299.6</ele>
        <time>2020-09-12T07:53:05Z</time>
      </trkpt>
      <trkpt lat="40.9973080" lon="-2.1986140">
        <ele>1299.6</ele>
        <time>2020-09-12T07:53:06Z</time>
      </trkpt>
      <trkpt lat="40.9973530" lon="-2.1986770">
        <ele>1299.6</ele>
        <time>2020-09-12T07:53:07Z</time>
      </trkpt>
      <trkpt lat="40.9973980" lon="-2.1987410">
        <ele>1299.8</ele>
        <time>2020-09-12T07:53:08Z</time>
      </trkpt>
      <trkpt lat="40.9974460" lon="-2.1988070">
        <ele>1299.8</ele>
        <time>2020-09-12T07:53:09Z</time>
      </trkpt>
      <trkpt lat="40.9974960" lon="-2.1988750">
        <ele>1299.8</ele>
        <time>2020-09-12T07:53:10Z</time>
      </trkpt>
      <trkpt lat="40.9975460" lon="-2.1989440">
        <ele>1299.6</ele>
        <time>2020-09-12T07:53:11Z</time>
      </trkpt>
      <trkpt lat="40.9975970" lon="-2.1990140">
        <ele>1299.6</ele>
        <time>2020-09-12T07:53:12Z</time>
      </trkpt>
      <trkpt lat="40.9976490" lon="-2.1990840">
        <ele>1299.4</ele>
        <time>2020-09-12T07:53:13Z</time>
      </trkpt>
      <trkpt lat="40.9977010" lon="-2.1991560">
        <ele>1299.2</ele>
        <time>2020-09-12T07:53:14Z</time>
      </trkpt>
      <trkpt lat="40.9977540" lon="-2.1992290">
        <ele>1299.2</ele>
        <time>2020-09-12T07:53:15Z</time>
      </trkpt>
      <trkpt lat="40.9978110" lon="-2.1993000">
        <ele>1299.0</ele>
        <time>2020-09-12T07:53:16Z</time>
      </trkpt>
      <trkpt lat="40.9978710" lon="-2.1993670">
        <ele>1298.8</ele>
        <time>2020-09-12T07:53:17Z</time>
      </trkpt>
      <trkpt lat="40.9979350" lon="-2.1994290">
        <ele>1298.8</ele>
        <time>2020-09-12T07:53:18Z</time>
      </trkpt>
      <trkpt lat="40.9980040" lon="-2.1994830">
        <ele>1298.6</ele>
        <time>2020-09-12T07:53:19Z</time>
      </trkpt>
      <trkpt lat="40.9980760" lon="-2.1995300">
        <ele>1298.6</ele>
        <time>2020-09-12T07:53:20Z</time>
      </trkpt>
      <trkpt lat="40.9981500" lon="-2.1995740">
        <ele>1298.6</ele>
        <time>2020-09-12T07:53:21Z</time>
      </trkpt>
      <trkpt lat="40.9982250" lon="-2.1996160">
        <ele>1298.4</ele>
        <time>2020-09-12T07:53:22Z</time>
      </trkpt>
      <trkpt lat="40.9983000" lon="-2.1996590">
        <ele>1298.0</ele>
        <time>2020-09-12T07:53:23Z</time>
      </trkpt>
      <trkpt lat="40.9983750" lon="-2.1997030">
        <ele>1297.8</ele>
        <time>2020-09-12T07:53:24Z</time>
      </trkpt>
      <trkpt lat="40.9984530" lon="-2.1997480">
        <ele>1297.6</ele>
        <time>2020-09-12T07:53:25Z</time>
      </trkpt>
      <trkpt lat="40.9985320" lon="-2.1997930">
        <ele>1297.4</ele>
        <time>2020-09-12T07:53:26Z</time>
      </trkpt>
      <trkpt lat="40.9986130" lon="-2.1998380">
        <ele>1297.2</ele>
        <time>2020-09-12T07:53:27Z</time>
      </trkpt>
      <trkpt lat="40.9986950" lon="-2.1998850">
        <ele>1296.8</ele>
        <time>2020-09-12T07:53:28Z</time>
      </trkpt>
      <trkpt lat="40.9987790" lon="-2.1999360">
        <ele>1296.4</ele>
        <time>2020-09-12T07:53:29Z</time>
      </trkpt>
      <trkpt lat="40.9988610" lon="-2.1999930">
        <ele>1296.0</ele>
        <time>2020-09-12T07:53:30Z</time>
      </trkpt>
      <trkpt lat="40.9989420" lon="-2.2000580">
        <ele>1295.4</ele>
        <time>2020-09-12T07:53:31Z</time>
      </trkpt>
      <trkpt lat="40.9990210" lon="-2.2001300">
        <ele>1295.0</ele>
        <time>2020-09-12T07:53:32Z</time>
      </trkpt>
      <trkpt lat="40.9990980" lon="-2.2002080">
        <ele>1294.6</ele>
        <time>2020-09-12T07:53:33Z</time>
      </trkpt>
      <trkpt lat="40.9991760" lon="-2.2002890">
        <ele>1294.2</ele>
        <time>2020-09-12T07:53:34Z</time>
      </trkpt>
      <trkpt lat="40.9992530" lon="-2.2003700">
        <ele>1293.8</ele>
        <time>2020-09-12T07:53:35Z</time>
      </trkpt>
      <trkpt lat="40.9993290" lon="-2.2004530">
        <ele>1293.6</ele>
        <time>2020-09-12T07:53:36Z</time>
      </trkpt>
      <trkpt lat="40.9994030" lon="-2.2005360">
        <ele>1293.6</ele>
        <time>2020-09-12T07:53:37Z</time>
      </trkpt>
      <trkpt lat="40.9994760" lon="-2.2006180">
        <ele>1293.4</ele>
        <time>2020-09-12T07:53:38Z</time>
      </trkpt>
      <trkpt lat="40.9995480" lon="-2.2006980">
        <ele>1293.2</ele>
        <time>2020-09-12T07:53:39Z</time>
      </trkpt>
      <trkpt lat="40.9996190" lon="-2.2007770">
        <ele>1293.0</ele>
        <time>2020-09-12T07:53:40Z</time>
      </trkpt>
      <trkpt lat="40.9996870" lon="-2.2008560">
        <ele>1292.8</ele>
        <time>2020-09-12T07:53:41Z</time>
      </trkpt>
      <trkpt lat="40.9997540" lon="-2.2009350">
        <ele>1292.4</ele>
        <time>2020-09-12T07:53:42Z</time>
      </trkpt>
      <trkpt lat="40.9998190" lon="-2.2010150">
        <ele>1292.0</ele>
        <time>2020-09-12T07:53:43Z</time>
      </trkpt>
      <trkpt lat="40.9998830" lon="-2.2010960">
        <ele>1291.6</ele>
        <time>2020-09-12T07:53:44Z</time>
      </trkpt>
      <trkpt lat="40.9999470" lon="-2.2011760">
        <ele>1291.4</ele>
        <time>2020-09-12T07:53:45Z</time>
      </trkpt>
      <trkpt lat="41.0000120" lon="-2.2012530">
        <ele>1291.2</ele>
        <time>2020-09-12T07:53:46Z</time>
      </trkpt>
      <trkpt lat="41.0000760" lon="-2.2013300">
        <ele>1291.0</ele>
        <time>2020-09-12T07:53:47Z</time>
      </trkpt>
      <trkpt lat="41.0001410" lon="-2.2014040">
        <ele>1290.8</ele>
        <time>2020-09-12T07:53:48Z</time>
      </trkpt>
      <trkpt lat="41.0002070" lon="-2.2014770">
        <ele>1290.6</ele>
        <time>2020-09-12T07:53:49Z</time>
      </trkpt>
      <trkpt lat="41.0002710" lon="-2.2015500">
        <ele>1290.6</ele>
        <time>2020-09-12T07:53:50Z</time>
      </trkpt>
      <trkpt lat="41.0003340" lon="-2.2016230">
        <ele>1290.4</ele>
        <time>2020-09-12T07:53:51Z</time>
      </trkpt>
      <trkpt lat="41.0003970" lon="-2.2016940">
        <ele>1290.2</ele>
        <time>2020-09-12T07:53:52Z</time>
      </trkpt>
      <trkpt lat="41.0004600" lon="-2.2017670">
        <ele>1290.2</ele>
        <time>2020-09-12T07:53:53Z</time>
      </trkpt>
      <trkpt lat="41.0005220" lon="-2.2018390">
        <ele>1290.2</ele>
        <time>2020-09-12T07:53:54Z</time>
      </trkpt>
      <trkpt lat="41.0005810" lon="-2.2019130">
        <ele>1290.2</ele>
        <time>2020-09-12T07:53:55Z</time>
      </trkpt>
      <trkpt lat="41.0006370" lon="-2.2019920">
        <ele>1290.2</ele>
        <time>2020-09-12T07:53:56Z</time>
      </trkpt>
      <trkpt lat="41.0006860" lon="-2.2020780">
        <ele>1290.2</ele>
        <time>2020-09-12T07:53:57Z</time>
      </trkpt>
      <trkpt lat="41.0007280" lon="-2.2021730">
        <ele>1290.2</ele>
        <time>2020-09-12T07:53:58Z</time>
      </trkpt>
      <trkpt lat="41.0007660" lon="-2.2022740">
        <ele>1290.0</ele>
        <time>2020-09-12T07:53:59Z</time>
      </trkpt>
      <trkpt lat="41.0008010" lon="-2.2023820">
        <ele>1289.8</ele>
        <time>2020-09-12T07:54:00Z</time>
      </trkpt>
      <trkpt lat="41.0008340" lon="-2.2024950">
        <ele>1289.6</ele>
        <time>2020-09-12T07:54:01Z</time>
      </trkpt>
      <trkpt lat="41.0008660" lon="-2.2026100">
        <ele>1289.2</ele>
        <time>2020-09-12T07:54:02Z</time>
      </trkpt>
      <trkpt lat="41.0008980" lon="-2.2027270">
        <ele>1288.8</ele>
        <time>2020-09-12T07:54:03Z</time>
      </trkpt>
      <trkpt lat="41.0009320" lon="-2.2028460">
        <ele>1288.4</ele>
        <time>2020-09-12T07:54:04Z</time>
      </trkpt>
      <trkpt lat="41.0009640" lon="-2.2029650">
        <ele>1288.0</ele>
        <time>2020-09-12T07:54:05Z</time>
      </trkpt>
      <trkpt lat="41.0009960" lon="-2.2030850">
        <ele>1287.8</ele>
        <time>2020-09-12T07:54:06Z</time>
      </trkpt>
      <trkpt lat="41.0010290" lon="-2.2031990">
        <ele>1287.8</ele>
        <time>2020-09-12T07:54:07Z</time>
      </trkpt>
      <trkpt lat="41.0010610" lon="-2.2033130">
        <ele>1287.8</ele>
        <time>2020-09-12T07:54:08Z</time>
      </trkpt>
      <trkpt lat="41.0010920" lon="-2.2034270">
        <ele>1287.6</ele>
        <time>2020-09-12T07:54:09Z</time>
      </trkpt>
      <trkpt lat="41.0011220" lon="-2.2035430">
        <ele>1287.6</ele>
        <time>2020-09-12T07:54:10Z</time>
      </trkpt>
      <trkpt lat="41.0011510" lon="-2.2036550">
        <ele>1287.4</ele>
        <time>2020-09-12T07:54:11Z</time>
      </trkpt>
      <trkpt lat="41.0011820" lon="-2.2037650">
        <ele>1287.0</ele>
        <time>2020-09-12T07:54:12Z</time>
      </trkpt>
      <trkpt lat="41.0012110" lon="-2.2038750">
        <ele>1286.6</ele>
        <time>2020-09-12T07:54:13Z</time>
      </trkpt>
      <trkpt lat="41.0012400" lon="-2.2039840">
        <ele>1286.2</ele>
        <time>2020-09-12T07:54:14Z</time>
      </trkpt>
      <trkpt lat="41.0012700" lon="-2.2040930">
        <ele>1286.0</ele>
        <time>2020-09-12T07:54:15Z</time>
      </trkpt>
      <trkpt lat="41.0012990" lon="-2.2042010">
        <ele>1286.0</ele>
        <time>2020-09-12T07:54:16Z</time>
      </trkpt>
      <trkpt lat="41.0013300" lon="-2.2043080">
        <ele>1286.0</ele>
        <time>2020-09-12T07:54:17Z</time>
      </trkpt>
      <trkpt lat="41.0013610" lon="-2.2044140">
        <ele>1286.0</ele>
        <time>2020-09-12T07:54:18Z</time>
      </trkpt>
      <trkpt lat="41.0013950" lon="-2.2045200">
        <ele>1286.0</ele>
        <time>2020-09-12T07:54:19Z</time>
      </trkpt>
      <trkpt lat="41.0014250" lon="-2.2046240">
        <ele>1286.0</ele>
        <time>2020-09-12T07:54:20Z</time>
      </trkpt>
      <trkpt lat="41.0014540" lon="-2.2047280">
        <ele>1286.0</ele>
        <time>2020-09-12T07:54:21Z</time>
      </trkpt>
      <trkpt lat="41.0014810" lon="-2.2048310">
        <ele>1286.0</ele>
        <time>2020-09-12T07:54:22Z</time>
      </trkpt>
      <trkpt lat="41.0015050" lon="-2.2049320">
        <ele>1286.0</ele>
        <time>2020-09-12T07:54:23Z</time>
      </trkpt>
      <trkpt lat="41.0015270" lon="-2.2050320">
        <ele>1286.0</ele>
        <time>2020-09-12T07:54:24Z</time>
      </trkpt>
      <trkpt lat="41.0015480" lon="-2.2051310">
        <ele>1286.0</ele>
        <time>2020-09-12T07:54:25Z</time>
      </trkpt>
      <trkpt lat="41.0015640" lon="-2.2052310">
        <ele>1286.2</ele>
        <time>2020-09-12T07:54:26Z</time>
      </trkpt>
      <trkpt lat="41.0015760" lon="-2.2053320">
        <ele>1286.2</ele>
        <time>2020-09-12T07:54:27Z</time>
      </trkpt>
      <trkpt lat="41.0015830" lon="-2.2054330">
        <ele>1286.2</ele>
        <time>2020-09-12T07:54:28Z</time>
      </trkpt>
      <trkpt lat="41.0015890" lon="-2.2055340">
        <ele>1286.2</ele>
        <time>2020-09-12T07:54:29Z</time>
      </trkpt>
      <trkpt lat="41.0015950" lon="-2.2056350">
        <ele>1286.2</ele>
        <time>2020-09-12T07:54:30Z</time>
      </trkpt>
      <trkpt lat="41.0016020" lon="-2.2057360">
        <ele>1286.2</ele>
        <time>2020-09-12T07:54:31Z</time>
      </trkpt>
      <trkpt lat="41.0016070" lon="-2.2058390">
        <ele>1286.2</ele>
        <time>2020-09-12T07:54:32Z</time>
      </trkpt>
      <trkpt lat="41.0016110" lon="-2.2059410">
        <ele>1286.2</ele>
        <time>2020-09-12T07:54:33Z</time>
      </trkpt>
      <trkpt lat="41.0016170" lon="-2.2060430">
        <ele>1286.2</ele>
        <time>2020-09-12T07:54:34Z</time>
      </trkpt>
      <trkpt lat="41.0016220" lon="-2.2061440">
        <ele>1286.2</ele>
        <time>2020-09-12T07:54:35Z</time>
      </trkpt>
      <trkpt lat="41.0016260" lon="-2.2062460">
        <ele>1286.2</ele>
        <time>2020-09-12T07:54:36Z</time>
      </trkpt>
      <trkpt lat="41.0016290" lon="-2.2063470">
        <ele>1286.4</ele>
        <time>2020-09-12T07:54:37Z</time>
      </trkpt>
      <trkpt lat="41.0016310" lon="-2.2064480">
        <ele>1286.6</ele>
        <time>2020-09-12T07:54:38Z</time>
      </trkpt>
      <trkpt lat="41.0016340" lon="-2.2065480">
        <ele>1286.6</ele>
        <time>2020-09-12T07:54:39Z</time>
      </trkpt>
      <trkpt lat="41.0016370" lon="-2.2066470">
        <ele>1286.8</ele>
        <time>2020-09-12T07:54:40Z</time>
      </trkpt>
      <trkpt lat="41.0016400" lon="-2.2067460">
        <ele>1286.8</ele>
        <time>2020-09-12T07:54:41Z</time>
      </trkpt>
      <trkpt lat="41.0016450" lon="-2.2068450">
        <ele>1287.0</ele>
        <time>2020-09-12T07:54:42Z</time>
      </trkpt>
      <trkpt lat="41.0016530" lon="-2.2069440">
        <ele>1287.0</ele>
        <time>2020-09-12T07:54:43Z</time>
      </trkpt>
      <trkpt lat="41.0016650" lon="-2.2070400">
        <ele>1287.2</ele>
        <time>2020-09-12T07:54:44Z</time>
      </trkpt>
      <trkpt lat="41.0016820" lon="-2.2071350">
        <ele>1287.4</ele>
        <time>2020-09-12T07:54:45Z</time>
      </trkpt>
      <trkpt lat="41.0017050" lon="-2.2072280">
        <ele>1287.4</ele>
        <time>2020-09-12T07:54:46Z</time>
      </trkpt>
      <trkpt lat="41.0017310" lon="-2.2073160">
        <ele>1287.4</ele>
        <time>2020-09-12T07:54:47Z</time>
      </trkpt>
      <trkpt lat="41.0017590" lon="-2.2074020">
        <ele>1287.4</ele>
        <time>2020-09-12T07:54:48Z</time>
      </trkpt>
      <trkpt lat="41.0017860" lon="-2.2074850">
        <ele>1287.4</ele>
        <time>2020-09-12T07:54:49Z</time>
      </trkpt>
      <trkpt lat="41.0018130" lon="-2.2075690">
        <ele>1287.4</ele>
        <time>2020-09-12T07:54:50Z</time>
      </trkpt>
      <trkpt lat="41.0018390" lon="-2.2076510">
        <ele>1287.4</ele>
        <time>2020-09-12T07:54:51Z</time>
      </trkpt>
      <trkpt lat="41.0018640" lon="-2.2077320">
        <ele>1287.6</ele>
        <time>2020-09-12T07:54:52Z</time>
      </trkpt>
      <trkpt lat="41.0018890" lon="-2.2078120">
        <ele>1287.8</ele>
        <time>2020-09-12T07:54:53Z</time>
      </trkpt>
      <trkpt lat="41.0019160" lon="-2.2078890">
        <ele>1288.0</ele>
        <time>2020-09-12T07:54:54Z</time>
      </trkpt>
      <trkpt lat="41.0019420" lon="-2.2079640">
        <ele>1288.2</ele>
        <time>2020-09-12T07:54:55Z</time>
      </trkpt>
      <trkpt lat="41.0019670" lon="-2.2080370">
        <ele>1288.2</ele>
        <time>2020-09-12T07:54:56Z</time>
      </trkpt>
      <trkpt lat="41.0019910" lon="-2.2081070">
        <ele>1288.4</ele>
        <time>2020-09-12T07:54:57Z</time>
      </trkpt>
      <trkpt lat="41.0020150" lon="-2.2081760">
        <ele>1288.4</ele>
        <time>2020-09-12T07:54:58Z</time>
      </trkpt>
      <trkpt lat="41.0020380" lon="-2.2082420">
        <ele>1288.6</ele>
        <time>2020-09-12T07:54:59Z</time>
      </trkpt>
      <trkpt lat="41.0020600" lon="-2.2083080">
        <ele>1288.8</ele>
        <time>2020-09-12T07:55:00Z</time>
      </trkpt>
      <trkpt lat="41.0020800" lon="-2.2083720">
        <ele>1289.2</ele>
        <time>2020-09-12T07:55:01Z</time>
      </trkpt>
      <trkpt lat="41.0021000" lon="-2.2084350">
        <ele>1289.4</ele>
        <time>2020-09-12T07:55:02Z</time>
      </trkpt>
      <trkpt lat="41.0021190" lon="-2.2084960">
        <ele>1289.6</ele>
        <time>2020-09-12T07:55:03Z</time>
      </trkpt>
      <trkpt lat="41.0021370" lon="-2.2085550">
        <ele>1290.0</ele>
        <time>2020-09-12T07:55:04Z</time>
      </trkpt>
      <trkpt lat="41.0021550" lon="-2.2086110">
        <ele>1290.2</ele>
        <time>2020-09-12T07:55:05Z</time>
      </trkpt>
      <trkpt lat="41.0021740" lon="-2.2086650">
        <ele>1290.6</ele>
        <time>2020-09-12T07:55:06Z</time>
      </trkpt>
      <trkpt lat="41.0021920" lon="-2.2087200">
        <ele>1290.8</ele>
        <time>2020-09-12T07:55:07Z</time>
      </trkpt>
      <trkpt lat="41.0022090" lon="-2.2087760">
        <ele>1290.8</ele>
        <time>2020-09-12T07:55:08Z</time>
      </trkpt>
      <trkpt lat="41.0022240" lon="-2.2088330">
        <ele>1291.0</ele>
        <time>2020-09-12T07:55:09Z</time>
      </trkpt>
      <trkpt lat="41.0022400" lon="-2.2088900">
        <ele>1291.2</ele>
        <time>2020-09-12T07:55:10Z</time>
      </trkpt>
      <trkpt lat="41.0022560" lon="-2.2089470">
        <ele>1291.4</ele>
        <time>2020-09-12T07:55:11Z</time>
      </trkpt>
      <trkpt lat="41.0022740" lon="-2.2090040">
        <ele>1291.6</ele>
        <time>2020-09-12T07:55:12Z</time>
      </trkpt>
      <trkpt lat="41.0022930" lon="-2.2090600">
        <ele>1291.8</ele>
        <time>2020-09-12T07:55:13Z</time>
      </trkpt>
      <trkpt lat="41.0023120" lon="-2.2091170">
        <ele>1292.0</ele>
        <time>2020-09-12T07:55:14Z</time>
      </trkpt>
      <trkpt lat="41.0023290" lon="-2.2091750">
        <ele>1292.4</ele>
        <time>2020-09-12T07:55:15Z</time>
      </trkpt>
      <trkpt lat="41.0023470" lon="-2.2092300">
        <ele>1292.8</ele>
        <time>2020-09-12T07:55:16Z</time>
      </trkpt>
      <trkpt lat="41.0023640" lon="-2.2092860">
        <ele>1293.2</ele>
        <time>2020-09-12T07:55:17Z</time>
      </trkpt>
      <trkpt lat="41.0023810" lon="-2.2093430">
        <ele>1293.6</ele>
        <time>2020-09-12T07:55:18Z</time>
      </trkpt>
      <trkpt lat="41.0023950" lon="-2.2093980">
        <ele>1294.0</ele>
        <time>2020-09-12T07:55:19Z</time>
      </trkpt>
      <trkpt lat="41.0024090" lon="-2.2094560">
        <ele>1294.2</ele>
        <time>2020-09-12T07:55:20Z</time>
      </trkpt>
      <trkpt lat="41.0024240" lon="-2.2095120">
        <ele>1294.4</ele>
        <time>2020-09-12T07:55:21Z</time>
      </trkpt>
      <trkpt lat="41.0024370" lon="-2.2095680">
        <ele>1294.6</ele>
        <time>2020-09-12T07:55:22Z</time>
      </trkpt>
      <trkpt lat="41.0024500" lon="-2.2096260">
        <ele>1294.8</ele>
        <time>2020-09-12T07:55:23Z</time>
      </trkpt>
      <trkpt lat="41.0024620" lon="-2.2096840">
        <ele>1295.0</ele>
        <time>2020-09-12T07:55:24Z</time>
      </trkpt>
      <trkpt lat="41.0024760" lon="-2.2097430">
        <ele>1295.4</ele>
        <time>2020-09-12T07:55:25Z</time>
      </trkpt>
      <trkpt lat="41.0024880" lon="-2.2098030">
        <ele>1295.6</ele>
        <time>2020-09-12T07:55:26Z</time>
      </trkpt>
      <trkpt lat="41.0024990" lon="-2.2098630">
        <ele>1296.0</ele>
        <time>2020-09-12T07:55:27Z</time>
      </trkpt>
      <trkpt lat="41.0025100" lon="-2.2099230">
        <ele>1296.2</ele>
        <time>2020-09-12T07:55:28Z</time>
      </trkpt>
      <trkpt lat="41.0025220" lon="-2.2099830">
        <ele>1296.4</ele>
        <time>2020-09-12T07:55:29Z</time>
      </trkpt>
      <trkpt lat="41.0025330" lon="-2.2100430">
        <ele>1296.6</ele>
        <time>2020-09-12T07:55:30Z</time>
      </trkpt>
      <trkpt lat="41.0025470" lon="-2.2101010">
        <ele>1297.0</ele>
        <time>2020-09-12T07:55:31Z</time>
      </trkpt>
      <trkpt lat="41.0025620" lon="-2.2101620">
        <ele>1297.2</ele>
        <time>2020-09-12T07:55:32Z</time>
      </trkpt>
      <trkpt lat="41.0025780" lon="-2.2102200">
        <ele>1297.4</ele>
        <time>2020-09-12T07:55:33Z</time>
      </trkpt>
      <trkpt lat="41.0025960" lon="-2.2102790">
        <ele>1297.6</ele>
        <time>2020-09-12T07:55:34Z</time>
      </trkpt>
      <trkpt lat="41.0026170" lon="-2.2103360">
        <ele>1297.8</ele>
        <time>2020-09-12T07:55:35Z</time>
      </trkpt>
      <trkpt lat="41.0026410" lon="-2.2103920">
        <ele>1297.8</ele>
        <time>2020-09-12T07:55:36Z</time>
      </trkpt>
      <trkpt lat="41.0026660" lon="-2.2104430">
        <ele>1298.0</ele>
        <time>2020-09-12T07:55:37Z</time>
      </trkpt>
      <trkpt lat="41.0026910" lon="-2.2104940">
        <ele>1298.2</ele>
        <time>2020-09-12T07:55:38Z</time>
      </trkpt>
      <trkpt lat="41.0027160" lon="-2.2105450">
        <ele>1298.6</ele>
        <time>2020-09-12T07:55:39Z</time>
      </trkpt>
      <trkpt lat="41.0027390" lon="-2.2105950">
        <ele>1298.8</ele>
        <time>2020-09-12T07:55:40Z</time>
      </trkpt>
      <trkpt lat="41.0027630" lon="-2.2106450">
        <ele>1299.2</ele>
        <time>2020-09-12T07:55:41Z</time>
      </trkpt>
      <trkpt lat="41.0027910" lon="-2.2106930">
        <ele>1299.6</ele>
        <time>2020-09-12T07:55:42Z</time>
      </trkpt>
      <trkpt lat="41.0028190" lon="-2.2107390">
        <ele>1300.0</ele>
        <time>2020-09-12T07:55:43Z</time>
      </trkpt>
      <trkpt lat="41.0028440" lon="-2.2107890">
        <ele>1300.2</ele>
        <time>2020-09-12T07:55:44Z</time>
      </trkpt>
      <trkpt lat="41.0028660" lon="-2.2108420">
        <ele>1300.4</ele>
        <time>2020-09-12T07:55:45Z</time>
      </trkpt>
      <trkpt lat="41.0028880" lon="-2.2108930">
        <ele>1300.8</ele>
        <time>2020-09-12T07:55:46Z</time>
      </trkpt>
      <trkpt lat="41.0029100" lon="-2.2109450">
        <ele>1301.0</ele>
        <time>2020-09-12T07:55:47Z</time>
      </trkpt>
      <trkpt lat="41.0029280" lon="-2.2110020">
        <ele>1301.2</ele>
        <time>2020-09-12T07:55:48Z</time>
      </trkpt>
      <trkpt lat="41.0029450" lon="-2.2110580">
        <ele>1301.6</ele>
        <time>2020-09-12T07:55:49Z</time>
      </trkpt>
      <trkpt lat="41.0029580" lon="-2.2111160">
        <ele>1301.8</ele>
        <time>2020-09-12T07:55:50Z</time>
      </trkpt>
      <trkpt lat="41.0029680" lon="-2.2111740">
        <ele>1302.0</ele>
        <time>2020-09-12T07:55:51Z</time>
      </trkpt>
      <trkpt lat="41.0029780" lon="-2.2112340">
        <ele>1302.4</ele>
        <time>2020-09-12T07:55:52Z</time>
      </trkpt>
      <trkpt lat="41.0029860" lon="-2.2112960">
        <ele>1302.8</ele>
        <time>2020-09-12T07:55:53Z</time>
      </trkpt>
      <trkpt lat="41.0029920" lon="-2.2113560">
        <ele>1303.0</ele>
        <time>2020-09-12T07:55:54Z</time>
      </trkpt>
      <trkpt lat="41.0029950" lon="-2.2114140">
        <ele>1303.4</ele>
        <time>2020-09-12T07:55:55Z</time>
      </trkpt>
      <trkpt lat="41.0029970" lon="-2.2114720">
        <ele>1303.6</ele>
        <time>2020-09-12T07:55:56Z</time>
      </trkpt>
      <trkpt lat="41.0029990" lon="-2.2115260">
        <ele>1303.8</ele>
        <time>2020-09-12T07:55:57Z</time>
      </trkpt>
      <trkpt lat="41.0030030" lon="-2.2115790">
        <ele>1304.0</ele>
        <time>2020-09-12T07:55:58Z</time>
      </trkpt>
      <trkpt lat="41.0030090" lon="-2.2116340">
        <ele>1304.2</ele>
        <time>2020-09-12T07:55:59Z</time>
      </trkpt>
      <trkpt lat="41.0030160" lon="-2.2116910">
        <ele>1304.4</ele>
        <time>2020-09-12T07:56:00Z</time>
      </trkpt>
      <trkpt lat="41.0030230" lon="-2.2117520">
        <ele>1304.6</ele>
        <time>2020-09-12T07:56:01Z</time>
      </trkpt>
      <trkpt lat="41.0030300" lon="-2.2118150">
        <ele>1304.6</ele>
        <time>2020-09-12T07:56:02Z</time>
      </trkpt>
      <trkpt lat="41.0030400" lon="-2.2118800">
        <ele>1304.6</ele>
        <time>2020-09-12T07:56:03Z</time>
      </trkpt>
      <trkpt lat="41.0030540" lon="-2.2119470">
        <ele>1304.8</ele>
        <time>2020-09-12T07:56:04Z</time>
      </trkpt>
      <trkpt lat="41.0030680" lon="-2.2120190">
        <ele>1304.8</ele>
        <time>2020-09-12T07:56:05Z</time>
      </trkpt>
      <trkpt lat="41.0030790" lon="-2.2120950">
        <ele>1304.8</ele>
        <time>2020-09-12T07:56:06Z</time>
      </trkpt>
      <trkpt lat="41.0030900" lon="-2.2121750">
        <ele>1304.6</ele>
        <time>2020-09-12T07:56:07Z</time>
      </trkpt>
      <trkpt lat="41.0031000" lon="-2.2122600">
        <ele>1304.4</ele>
        <time>2020-09-12T07:56:08Z</time>
      </trkpt>
      <trkpt lat="41.0031100" lon="-2.2123480">
        <ele>1304.0</ele>
        <time>2020-09-12T07:56:09Z</time>
      </trkpt>
      <trkpt lat="41.0031140" lon="-2.2124430">
        <ele>1303.8</ele>
        <time>2020-09-12T07:56:10Z</time>
      </trkpt>
      <trkpt lat="41.0031170" lon="-2.2125420">
        <ele>1303.6</ele>
        <time>2020-09-12T07:56:11Z</time>
      </trkpt>
      <trkpt lat="41.0031190" lon="-2.2126470">
        <ele>1303.4</ele>
        <time>2020-09-12T07:56:12Z</time>
      </trkpt>
      <trkpt lat="41.0031220" lon="-2.2127550">
        <ele>1303.2</ele>
        <time>2020-09-12T07:56:13Z</time>
      </trkpt>
      <trkpt lat="41.0031250" lon="-2.2128650">
        <ele>1302.8</ele>
        <time>2020-09-12T07:56:14Z</time>
      </trkpt>
      <trkpt lat="41.0031300" lon="-2.2129780">
        <ele>1302.2</ele>
        <time>2020-09-12T07:56:15Z</time>
      </trkpt>
      <trkpt lat="41.0031370" lon="-2.2130940">
        <ele>1301.6</ele>
        <time>2020-09-12T07:56:16Z</time>
      </trkpt>
      <trkpt lat="41.0031440" lon="-2.2132130">
        <ele>1301.2</ele>
        <time>2020-09-12T07:56:17Z</time>
      </trkpt>
      <trkpt lat="41.0031510" lon="-2.2133370">
        <ele>1300.8</ele>
        <time>2020-09-12T07:56:18Z</time>
      </trkpt>
      <trkpt lat="41.0031610" lon="-2.2134610">
        <ele>1300.4</ele>
        <time>2020-09-12T07:56:19Z</time>
      </trkpt>
      <trkpt lat="41.0031740" lon="-2.2135850">
        <ele>1299.8</ele>
        <time>2020-09-12T07:56:20Z</time>
      </trkpt>
      <trkpt lat="41.0031890" lon="-2.2137100">
        <ele>1299.4</ele>
        <time>2020-09-12T07:56:21Z</time>
      </trkpt>
      <trkpt lat="41.0032020" lon="-2.2138380">
        <ele>1299.0</ele>
        <time>2020-09-12T07:56:22Z</time>
      </trkpt>
      <trkpt lat="41.0032130" lon="-2.2139680">
        <ele>1298.6</ele>
        <time>2020-09-12T07:56:23Z</time>
      </trkpt>
      <trkpt lat="41.0032220" lon="-2.2140990">
        <ele>1298.0</ele>
        <time>2020-09-12T07:56:24Z</time>
      </trkpt>
      <trkpt lat="41.0032250" lon="-2.2142300">
        <ele>1297.4</ele>
        <time>2020-09-12T07:56:25Z</time>
      </trkpt>
      <trkpt lat="41.0032210" lon="-2.2143610">
        <ele>1296.8</ele>
        <time>2020-09-12T07:56:26Z</time>
      </trkpt>
      <trkpt lat="41.0032070" lon="-2.2144890">
        <ele>1296.2</ele>
        <time>2020-09-12T07:56:27Z</time>
      </trkpt>
      <trkpt lat="41.0031830" lon="-2.2146160">
        <ele>1295.4</ele>
        <time>2020-09-12T07:56:28Z</time>
      </trkpt>
      <trkpt lat="41.0031570" lon="-2.2147430">
        <ele>1294.6</ele>
        <time>2020-09-12T07:56:29Z</time>
      </trkpt>
      <trkpt lat="41.0031340" lon="-2.2148690">
        <ele>1294.0</ele>
        <time>2020-09-12T07:56:30Z</time>
      </trkpt>
      <trkpt lat="41.0031180" lon="-2.2149980">
        <ele>1293.6</ele>
        <time>2020-09-12T07:56:31Z</time>
      </trkpt>
      <trkpt lat="41.0031170" lon="-2.2151280">
        <ele>1293.0</ele>
        <time>2020-09-12T07:56:32Z</time>
      </trkpt>
      <trkpt lat="41.0031390" lon="-2.2152570">
        <ele>1292.4</ele>
        <time>2020-09-12T07:56:33Z</time>
      </trkpt>
      <trkpt lat="41.0031820" lon="-2.2153790">
        <ele>1292.0</ele>
        <time>2020-09-12T07:56:34Z</time>
      </trkpt>
      <trkpt lat="41.0032340" lon="-2.2155000">
        <ele>1291.6</ele>
        <time>2020-09-12T07:56:35Z</time>
      </trkpt>
      <trkpt lat="41.0032820" lon="-2.2156250">
        <ele>1291.2</ele>
        <time>2020-09-12T07:56:36Z</time>
      </trkpt>
      <trkpt lat="41.0033160" lon="-2.2157610">
        <ele>1290.6</ele>
        <time>2020-09-12T07:56:37Z</time>
      </trkpt>
      <trkpt lat="41.0033310" lon="-2.2159030">
        <ele>1290.0</ele>
        <time>2020-09-12T07:56:38Z</time>
      </trkpt>
      <trkpt lat="41.0033350" lon="-2.2160440">
        <ele>1289.4</ele>
        <time>2020-09-12T07:56:39Z</time>
      </trkpt>
      <trkpt lat="41.0033310" lon="-2.2161830">
        <ele>1288.4</ele>
        <time>2020-09-12T07:56:40Z</time>
      </trkpt>
      <trkpt lat="41.0033250" lon="-2.2163210">
        <ele>1288.0</ele>
        <time>2020-09-12T07:56:41Z</time>
      </trkpt>
      <trkpt lat="41.0033260" lon="-2.2164580">
        <ele>1287.6</ele>
        <time>2020-09-12T07:56:42Z</time>
      </trkpt>
      <trkpt lat="41.0033390" lon="-2.2165940">
        <ele>1287.4</ele>
        <time>2020-09-12T07:56:43Z</time>
      </trkpt>
      <trkpt lat="41.0033710" lon="-2.2167230">
        <ele>1287.4</ele>
        <time>2020-09-12T07:56:44Z</time>
      </trkpt>
      <trkpt lat="41.0034200" lon="-2.2168410">
        <ele>1287.4</ele>
        <time>2020-09-12T07:56:45Z</time>
      </trkpt>
      <trkpt lat="41.0034770" lon="-2.2169510">
        <ele>1287.2</ele>
        <time>2020-09-12T07:56:46Z</time>
      </trkpt>
      <trkpt lat="41.0035380" lon="-2.2170570">
        <ele>1287.2</ele>
        <time>2020-09-12T07:56:47Z</time>
      </trkpt>
      <trkpt lat="41.0036000" lon="-2.2171590">
        <ele>1287.2</ele>
        <time>2020-09-12T07:56:48Z</time>
      </trkpt>
      <trkpt lat="41.0036620" lon="-2.2172580">
        <ele>1287.2</ele>
        <time>2020-09-12T07:56:49Z</time>
      </trkpt>
      <trkpt lat="41.0037210" lon="-2.2173510">
        <ele>1287.2</ele>
        <time>2020-09-12T07:56:50Z</time>
      </trkpt>
      <trkpt lat="41.0037780" lon="-2.2174380">
        <ele>1287.0</ele>
        <time>2020-09-12T07:56:51Z</time>
      </trkpt>
      <trkpt lat="41.0038330" lon="-2.2175180">
        <ele>1287.0</ele>
        <time>2020-09-12T07:56:52Z</time>
      </trkpt>
      <trkpt lat="41.0038860" lon="-2.2175890">
        <ele>1286.8</ele>
        <time>2020-09-12T07:56:53Z</time>
      </trkpt>
      <trkpt lat="41.0039390" lon="-2.2176490">
        <ele>1287.0</ele>
        <time>2020-09-12T07:56:54Z</time>
      </trkpt>
      <trkpt lat="41.0039930" lon="-2.2176950">
        <ele>1287.0</ele>
        <time>2020-09-12T07:56:55Z</time>
      </trkpt>
      <trkpt lat="41.0040480" lon="-2.2177250">
        <ele>1287.2</ele>
        <time>2020-09-12T07:56:56Z</time>
      </trkpt>
      <trkpt lat="41.0041060" lon="-2.2177430">
        <ele>1287.4</ele>
        <time>2020-09-12T07:56:57Z</time>
      </trkpt>
      <trkpt lat="41.0041660" lon="-2.2177550">
        <ele>1287.6</ele>
        <time>2020-09-12T07:56:58Z</time>
      </trkpt>
      <trkpt lat="41.0042280" lon="-2.2177670">
        <ele>1287.6</ele>
        <time>2020-09-12T07:56:59Z</time>
      </trkpt>
      <trkpt lat="41.0042920" lon="-2.2177820">
        <ele>1287.8</ele>
        <time>2020-09-12T07:57:00Z</time>
      </trkpt>
      <trkpt lat="41.0043580" lon="-2.2178020">
        <ele>1287.6</ele>
        <time>2020-09-12T07:57:01Z</time>
      </trkpt>
      <trkpt lat="41.0044260" lon="-2.2178270">
        <ele>1287.4</ele>
        <time>2020-09-12T07:57:02Z</time>
      </trkpt>
      <trkpt lat="41.0044960" lon="-2.2178600">
        <ele>1287.2</ele>
        <time>2020-09-12T07:57:03Z</time>
      </trkpt>
      <trkpt lat="41.0045640" lon="-2.2179040">
        <ele>1287.0</ele>
        <time>2020-09-12T07:57:04Z</time>
      </trkpt>
      <trkpt lat="41.0046310" lon="-2.2179540">
        <ele>1286.8</ele>
        <time>2020-09-12T07:57:05Z</time>
      </trkpt>
      <trkpt lat="41.0046940" lon="-2.2180080">
        <ele>1286.6</ele>
        <time>2020-09-12T07:57:06Z</time>
      </trkpt>
      <trkpt lat="41.0047540" lon="-2.2180680">
        <ele>1286.0</ele>
        <time>2020-09-12T07:57:07Z</time>
      </trkpt>
      <trkpt lat="41.0048160" lon="-2.2181350">
        <ele>1285.4</ele>
        <time>2020-09-12T07:57:08Z</time>
      </trkpt>
      <trkpt lat="41.0048780" lon="-2.2182080">
        <ele>1284.6</ele>
        <time>2020-09-12T07:57:09Z</time>
      </trkpt>
      <trkpt lat="41.0049400" lon="-2.2182860">
        <ele>1284.2</ele>
        <time>2020-09-12T07:57:10Z</time>
      </trkpt>
      <trkpt lat="41.0050040" lon="-2.2183670">
        <ele>1283.8</ele>
        <time>2020-09-12T07:57:11Z</time>
      </trkpt>
      <trkpt lat="41.0050680" lon="-2.2184510">
        <ele>1283.4</ele>
        <time>2020-09-12T07:57:12Z</time>
      </trkpt>
      <trkpt lat="41.0051330" lon="-2.2185350">
        <ele>1283.0</ele>
        <time>2020-09-12T07:57:13Z</time>
      </trkpt>
      <trkpt lat="41.0051950" lon="-2.2186150">
        <ele>1282.4</ele>
        <time>2020-09-12T07:57:14Z</time>
      </trkpt>
      <trkpt lat="41.0052540" lon="-2.2186890">
        <ele>1281.4</ele>
        <time>2020-09-12T07:57:15Z</time>
      </trkpt>
      <trkpt lat="41.0053100" lon="-2.2187580">
        <ele>1280.6</ele>
        <time>2020-09-12T07:57:16Z</time>
      </trkpt>
      <trkpt lat="41.0053640" lon="-2.2188220">
        <ele>1279.6</ele>
        <time>2020-09-12T07:57:17Z</time>
      </trkpt>
      <trkpt lat="41.0054200" lon="-2.2188810">
        <ele>1278.8</ele>
        <time>2020-09-12T07:57:18Z</time>
      </trkpt>
      <trkpt lat="41.0054820" lon="-2.2189310">
        <ele>1278.2</ele>
        <time>2020-09-12T07:57:19Z</time>
      </trkpt>
      <trkpt lat="41.0055480" lon="-2.2189720">
        <ele>1277.8</ele>
        <time>2020-09-12T07:57:20Z</time>
      </trkpt>
      <trkpt lat="41.0056150" lon="-2.2190000">
        <ele>1277.4</ele>
        <time>2020-09-12T07:57:21Z</time>
      </trkpt>
      <trkpt lat="41.0056830" lon="-2.2190190">
        <ele>1277.2</ele>
        <time>2020-09-12T07:57:22Z</time>
      </trkpt>
      <trkpt lat="41.0057520" lon="-2.2190320">
        <ele>1277.0</ele>
        <time>2020-09-12T07:57:23Z</time>
      </trkpt>
      <trkpt lat="41.0058220" lon="-2.2190450">
        <ele>1276.8</ele>
        <time>2020-09-12T07:57:24Z</time>
      </trkpt>
      <trkpt lat="41.0058950" lon="-2.2190600">
        <ele>1276.6</ele>
        <time>2020-09-12T07:57:25Z</time>
      </trkpt>
      <trkpt lat="41.0059670" lon="-2.2190800">
        <ele>1276.6</ele>
        <time>2020-09-12T07:57:26Z</time>
      </trkpt>
      <trkpt lat="41.0060410" lon="-2.2191000">
        <ele>1276.4</ele>
        <time>2020-09-12T07:57:27Z</time>
      </trkpt>
      <trkpt lat="41.0061130" lon="-2.2191350">
        <ele>1276.2</ele>
        <time>2020-09-12T07:57:28Z</time>
      </trkpt>
      <trkpt lat="41.0061770" lon="-2.2191920">
        <ele>1276.0</ele>
        <time>2020-09-12T07:57:29Z</time>
      </trkpt>
      <trkpt lat="41.0062290" lon="-2.2192730">
        <ele>1275.6</ele>
        <time>2020-09-12T07:57:30Z</time>
      </trkpt>
      <trkpt lat="41.0062680" lon="-2.2193700">
        <ele>1275.2</ele>
        <time>2020-09-12T07:57:31Z</time>
      </trkpt>
      <trkpt lat="41.0062980" lon="-2.2194720">
        <ele>1274.6</ele>
        <time>2020-09-12T07:57:32Z</time>
      </trkpt>
      <trkpt lat="41.0063200" lon="-2.2195770">
        <ele>1274.0</ele>
        <time>2020-09-12T07:57:33Z</time>
      </trkpt>
      <trkpt lat="41.0063370" lon="-2.2196830">
        <ele>1273.4</ele>
        <time>2020-09-12T07:57:34Z</time>
      </trkpt>
      <trkpt lat="41.0063540" lon="-2.2197910">
        <ele>1272.8</ele>
        <time>2020-09-12T07:57:35Z</time>
      </trkpt>
      <trkpt lat="41.0063710" lon="-2.2199020">
        <ele>1272.0</ele>
        <time>2020-09-12T07:57:36Z</time>
      </trkpt>
      <trkpt lat="41.0063900" lon="-2.2200180">
        <ele>1271.6</ele>
        <time>2020-09-12T07:57:37Z</time>
      </trkpt>
      <trkpt lat="41.0064090" lon="-2.2201390">
        <ele>1271.2</ele>
        <time>2020-09-12T07:57:38Z</time>
      </trkpt>
      <trkpt lat="41.0064270" lon="-2.2202650">
        <ele>1270.8</ele>
        <time>2020-09-12T07:57:39Z</time>
      </trkpt>
      <trkpt lat="41.0064480" lon="-2.2203950">
        <ele>1270.2</ele>
        <time>2020-09-12T07:57:40Z</time>
      </trkpt>
      <trkpt lat="41.0064750" lon="-2.2205250">
        <ele>1269.8</ele>
        <time>2020-09-12T07:57:41Z</time>
      </trkpt>
      <trkpt lat="41.0065110" lon="-2.2206500">
        <ele>1269.2</ele>
        <time>2020-09-12T07:57:42Z</time>
      </trkpt>
      <trkpt lat="41.0065610" lon="-2.2207620">
        <ele>1269.0</ele>
        <time>2020-09-12T07:57:43Z</time>
      </trkpt>
      <trkpt lat="41.0066230" lon="-2.2208590">
        <ele>1268.8</ele>
        <time>2020-09-12T07:57:44Z</time>
      </trkpt>
      <trkpt lat="41.0066930" lon="-2.2209370">
        <ele>1268.6</ele>
        <time>2020-09-12T07:57:45Z</time>
      </trkpt>
      <trkpt lat="41.0067640" lon="-2.2210040">
        <ele>1268.4</ele>
        <time>2020-09-12T07:57:46Z</time>
      </trkpt>
      <trkpt lat="41.0068310" lon="-2.2210640">
        <ele>1268.4</ele>
        <time>2020-09-12T07:57:47Z</time>
      </trkpt>
      <trkpt lat="41.0068930" lon="-2.2211170">
        <ele>1268.2</ele>
        <time>2020-09-12T07:57:48Z</time>
      </trkpt>
      <trkpt lat="41.0069480" lon="-2.2211680">
        <ele>1268.2</ele>
        <time>2020-09-12T07:57:49Z</time>
      </trkpt>
      <trkpt lat="41.0070000" lon="-2.2212120">
        <ele>1268.2</ele>
        <time>2020-09-12T07:57:50Z</time>
      </trkpt>
      <trkpt lat="41.0070550" lon="-2.2212440">
        <ele>1268.2</ele>
        <time>2020-09-12T07:57:51Z</time>
      </trkpt>
      <trkpt lat="41.0071110" lon="-2.2212610">
        <ele>1268.4</ele>
        <time>2020-09-12T07:57:52Z</time>
      </trkpt>
      <trkpt lat="41.0071720" lon="-2.2212620">
        <ele>1268.6</ele>
        <time>2020-09-12T07:57:53Z</time>
      </trkpt>
      <trkpt lat="41.0072310" lon="-2.2212490">
        <ele>1268.8</ele>
        <time>2020-09-12T07:57:54Z</time>
      </trkpt>
      <trkpt lat="41.0072860" lon="-2.2212270">
        <ele>1268.8</ele>
        <time>2020-09-12T07:57:55Z</time>
      </trkpt>
      <trkpt lat="41.0073360" lon="-2.2212030">
        <ele>1268.8</ele>
        <time>2020-09-12T07:57:56Z</time>
      </trkpt>
      <trkpt lat="41.0073830" lon="-2.2211760">
        <ele>1269.0</ele>
        <time>2020-09-12T07:57:57Z</time>
      </trkpt>
      <trkpt lat="41.0074270" lon="-2.2211480">
        <ele>1269.0</ele>
        <time>2020-09-12T07:57:58Z</time>
      </trkpt>
      <trkpt lat="41.0074690" lon="-2.2211170">
        <ele>1269.0</ele>
        <time>2020-09-12T07:57:59Z</time>
      </trkpt>
      <trkpt lat="41.0075110" lon="-2.2210850">
        <ele>1269.0</ele>
        <time>2020-09-12T07:58:00Z</time>
      </trkpt>
      <trkpt lat="41.0075490" lon="-2.2210520">
        <ele>1269.2</ele>
        <time>2020-09-12T07:58:01Z</time>
      </trkpt>
      <trkpt lat="41.0075850" lon="-2.2210200">
        <ele>1269.4</ele>
        <time>2020-09-12T07:58:02Z</time>
      </trkpt>
      <trkpt lat="41.0076160" lon="-2.2209880">
        <ele>1269.6</ele>
        <time>2020-09-12T07:58:03Z</time>
      </trkpt>
      <trkpt lat="41.0076490" lon="-2.2209640">
        <ele>1269.6</ele>
        <time>2020-09-12T07:58:04Z</time>
      </trkpt>
      <trkpt lat="41.0076810" lon="-2.2209440">
        <ele>1269.6</ele>
        <time>2020-09-12T07:58:05Z</time>
      </trkpt>
      <trkpt lat="41.0077150" lon="-2.2209300">
        <ele>1269.8</ele>
        <time>2020-09-12T07:58:06Z</time>
      </trkpt>
      <trkpt lat="41.0077450" lon="-2.2209200">
        <ele>1269.8</ele>
        <time>2020-09-12T07:58:07Z</time>
      </trkpt>
      <trkpt lat="41.0077770" lon="-2.2209120">
        <ele>1269.8</ele>
        <time>2020-09-12T07:58:08Z</time>
      </trkpt>
      <trkpt lat="41.0078110" lon="-2.2209050">
        <ele>1270.0</ele>
        <time>2020-09-12T07:58:09Z</time>
      </trkpt>
      <trkpt lat="41.0078420" lon="-2.2208960">
        <ele>1270.2</ele>
        <time>2020-09-12T07:58:10Z</time>
      </trkpt>
      <trkpt lat="41.0078740" lon="-2.2208920">
        <ele>1270.4</ele>
        <time>2020-09-12T07:58:11Z</time>
      </trkpt>
      <trkpt lat="41.0079060" lon="-2.2208920">
        <ele>1270.6</ele>
        <time>2020-09-12T07:58:12Z</time>
      </trkpt>
      <trkpt lat="41.0079390" lon="-2.2208970">
        <ele>1270.8</ele>
        <time>2020-09-12T07:58:13Z</time>
      </trkpt>
      <trkpt lat="41.0079790" lon="-2.2209070">
        <ele>1270.8</ele>
        <time>2020-09-12T07:58:14Z</time>
      </trkpt>
      <trkpt lat="41.0080170" lon="-2.2209230">
        <ele>1271.0</ele>
        <time>2020-09-12T07:58:15Z</time>
      </trkpt>
      <trkpt lat="41.0080530" lon="-2.2209440">
        <ele>1271.0</ele>
        <time>2020-09-12T07:58:16Z</time>
      </trkpt>
      <trkpt lat="41.0080900" lon="-2.2209680">
        <ele>1271.2</ele>
        <time>2020-09-12T07:58:17Z</time>
      </trkpt>
      <trkpt lat="41.0081250" lon="-2.2209950">
        <ele>1271.2</ele>
        <time>2020-09-12T07:58:18Z</time>
      </trkpt>
      <trkpt lat="41.0081560" lon="-2.2210260">
        <ele>1271.0</ele>
        <time>2020-09-12T07:58:19Z</time>
      </trkpt>
      <trkpt lat="41.0081850" lon="-2.2210600">
        <ele>1271.0</ele>
        <time>2020-09-12T07:58:20Z</time>
      </trkpt>
      <trkpt lat="41.0082150" lon="-2.2211000">
        <ele>1271.0</ele>
        <time>2020-09-12T07:58:21Z</time>
      </trkpt>
      <trkpt lat="41.0082480" lon="-2.2211460">
        <ele>1271.0</ele>
        <time>2020-09-12T07:58:22Z</time>
      </trkpt>
      <trkpt lat="41.0082840" lon="-2.2211960">
        <ele>1271.0</ele>
        <time>2020-09-12T07:58:23Z</time>
      </trkpt>
      <trkpt lat="41.0083200" lon="-2.2212520">
        <ele>1271.0</ele>
        <time>2020-09-12T07:58:24Z</time>
      </trkpt>
      <trkpt lat="41.0083580" lon="-2.2213020">
        <ele>1270.8</ele>
        <time>2020-09-12T07:58:25Z</time>
      </trkpt>
      <trkpt lat="41.0084000" lon="-2.2213450">
        <ele>1270.6</ele>
        <time>2020-09-12T07:58:26Z</time>
      </trkpt>
      <trkpt lat="41.0084450" lon="-2.2213850">
        <ele>1270.4</ele>
        <time>2020-09-12T07:58:27Z</time>
      </trkpt>
      <trkpt lat="41.0084950" lon="-2.2214250">
        <ele>1270.4</ele>
        <time>2020-09-12T07:58:28Z</time>
      </trkpt>
      <trkpt lat="41.0085490" lon="-2.2214650">
        <ele>1270.2</ele>
        <time>2020-09-12T07:58:29Z</time>
      </trkpt>
      <trkpt lat="41.0086070" lon="-2.2215030">
        <ele>1270.0</ele>
        <time>2020-09-12T07:58:30Z</time>
      </trkpt>
      <trkpt lat="41.0086690" lon="-2.2215360">
        <ele>1269.6</ele>
        <time>2020-09-12T07:58:31Z</time>
      </trkpt>
      <trkpt lat="41.0087350" lon="-2.2215650">
        <ele>1269.2</ele>
        <time>2020-09-12T07:58:32Z</time>
      </trkpt>
      <trkpt lat="41.0088080" lon="-2.2215950">
        <ele>1268.6</ele>
        <time>2020-09-12T07:58:33Z</time>
      </trkpt>
      <trkpt lat="41.0088830" lon="-2.2216250">
        <ele>1268.4</ele>
        <time>2020-09-12T07:58:34Z</time>
      </trkpt>
      <trkpt lat="41.0089600" lon="-2.2216570">
        <ele>1268.0</ele>
        <time>2020-09-12T07:58:35Z</time>
      </trkpt>
      <trkpt lat="41.0090410" lon="-2.2216910">
        <ele>1267.8</ele>
        <time>2020-09-12T07:58:36Z</time>
      </trkpt>
      <trkpt lat="41.0091220" lon="-2.2217280">
        <ele>1267.2</ele>
        <time>2020-09-12T07:58:37Z</time>
      </trkpt>
      <trkpt lat="41.0092060" lon="-2.2217680">
        <ele>1266.6</ele>
        <time>2020-09-12T07:58:38Z</time>
      </trkpt>
      <trkpt lat="41.0092890" lon="-2.2218140">
        <ele>1266.0</ele>
        <time>2020-09-12T07:58:39Z</time>
      </trkpt>
      <trkpt lat="41.0093670" lon="-2.2218690">
        <ele>1265.2</ele>
        <time>2020-09-12T07:58:40Z</time>
      </trkpt>
      <trkpt lat="41.0094380" lon="-2.2219370">
        <ele>1264.8</ele>
        <time>2020-09-12T07:58:41Z</time>
      </trkpt>
      <trkpt lat="41.0095010" lon="-2.2220180">
        <ele>1264.4</ele>
        <time>2020-09-12T07:58:42Z</time>
      </trkpt>
      <trkpt lat="41.0095540" lon="-2.2221080">
        <ele>1264.0</ele>
        <time>2020-09-12T07:58:43Z</time>
      </trkpt>
      <trkpt lat="41.0096030" lon="-2.2222010">
        <ele>1263.4</ele>
        <time>2020-09-12T07:58:44Z</time>
      </trkpt>
      <trkpt lat="41.0096460" lon="-2.2222980">
        <ele>1262.8</ele>
        <time>2020-09-12T07:58:45Z</time>
      </trkpt>
      <trkpt lat="41.0096920" lon="-2.2223940">
        <ele>1262.0</ele>
        <time>2020-09-12T07:58:46Z</time>
      </trkpt>
      <trkpt lat="41.0097410" lon="-2.2224910">
        <ele>1261.4</ele>
        <time>2020-09-12T07:58:47Z</time>
      </trkpt>
      <trkpt lat="41.0097950" lon="-2.2225850">
        <ele>1260.8</ele>
        <time>2020-09-12T07:58:48Z</time>
      </trkpt>
      <trkpt lat="41.0098590" lon="-2.2226770">
        <ele>1260.2</ele>
        <time>2020-09-12T07:58:49Z</time>
      </trkpt>
      <trkpt lat="41.0099290" lon="-2.2227620">
        <ele>1259.6</ele>
        <time>2020-09-12T07:58:50Z</time>
      </trkpt>
      <trkpt lat="41.0100000" lon="-2.2228430">
        <ele>1258.8</ele>
        <time>2020-09-12T07:58:51Z</time>
      </trkpt>
      <trkpt lat="41.0100720" lon="-2.2229220">
        <ele>1258.0</ele>
        <time>2020-09-12T07:58:52Z</time>
      </trkpt>
      <trkpt lat="41.0101480" lon="-2.2230030">
        <ele>1257.2</ele>
        <time>2020-09-12T07:58:53Z</time>
      </trkpt>
      <trkpt lat="41.0102270" lon="-2.2230850">
        <ele>1256.6</ele>
        <time>2020-09-12T07:58:54Z</time>
      </trkpt>
      <trkpt lat="41.0103110" lon="-2.2231680">
        <ele>1255.8</ele>
        <time>2020-09-12T07:58:55Z</time>
      </trkpt>
      <trkpt lat="41.0104020" lon="-2.2232480">
        <ele>1255.0</ele>
        <time>2020-09-12T07:58:56Z</time>
      </trkpt>
      <trkpt lat="41.0104950" lon="-2.2233240">
        <ele>1254.2</ele>
        <time>2020-09-12T07:58:57Z</time>
      </trkpt>
      <trkpt lat="41.0105910" lon="-2.2233940">
        <ele>1253.2</ele>
        <time>2020-09-12T07:58:58Z</time>
      </trkpt>
      <trkpt lat="41.0106900" lon="-2.2234590">
        <ele>1252.2</ele>
        <time>2020-09-12T07:58:59Z</time>
      </trkpt>
      <trkpt lat="41.0107900" lon="-2.2235200">
        <ele>1251.4</ele>
        <time>2020-09-12T07:59:00Z</time>
      </trkpt>
      <trkpt lat="41.0108930" lon="-2.2235780">
        <ele>1250.8</ele>
        <time>2020-09-12T07:59:01Z</time>
      </trkpt>
      <trkpt lat="41.0110000" lon="-2.2236320">
        <ele>1250.2</ele>
        <time>2020-09-12T07:59:02Z</time>
      </trkpt>
      <trkpt lat="41.0111070" lon="-2.2236840">
        <ele>1249.2</ele>
        <time>2020-09-12T07:59:03Z</time>
      </trkpt>
      <trkpt lat="41.0112150" lon="-2.2237360">
        <ele>1248.4</ele>
        <time>2020-09-12T07:59:04Z</time>
      </trkpt>
      <trkpt lat="41.0113220" lon="-2.2237920">
        <ele>1247.6</ele>
        <time>2020-09-12T07:59:05Z</time>
      </trkpt>
      <trkpt lat="41.0114280" lon="-2.2238540">
        <ele>1247.0</ele>
        <time>2020-09-12T07:59:06Z</time>
      </trkpt>
      <trkpt lat="41.0115300" lon="-2.2239240">
        <ele>1246.6</ele>
        <time>2020-09-12T07:59:07Z</time>
      </trkpt>
      <trkpt lat="41.0116270" lon="-2.2240000">
        <ele>1246.4</ele>
        <time>2020-09-12T07:59:08Z</time>
      </trkpt>
      <trkpt lat="41.0117210" lon="-2.2240790">
        <ele>1246.2</ele>
        <time>2020-09-12T07:59:09Z</time>
      </trkpt>
      <trkpt lat="41.0118110" lon="-2.2241600">
        <ele>1246.0</ele>
        <time>2020-09-12T07:59:10Z</time>
      </trkpt>
      <trkpt lat="41.0119010" lon="-2.2242440">
        <ele>1245.6</ele>
        <time>2020-09-12T07:59:11Z</time>
      </trkpt>
      <trkpt lat="41.0119880" lon="-2.2243290">
        <ele>1245.0</ele>
        <time>2020-09-12T07:59:12Z</time>
      </trkpt>
      <trkpt lat="41.0120710" lon="-2.2244130">
        <ele>1244.6</ele>
        <time>2020-09-12T07:59:13Z</time>
      </trkpt>
      <trkpt lat="41.0121510" lon="-2.2245000">
        <ele>1244.2</ele>
        <time>2020-09-12T07:59:14Z</time>
      </trkpt>
      <trkpt lat="41.0122280" lon="-2.2245870">
        <ele>1243.6</ele>
        <time>2020-09-12T07:59:15Z</time>
      </trkpt>
      <trkpt lat="41.0122990" lon="-2.2246790">
        <ele>1243.2</ele>
        <time>2020-09-12T07:59:16Z</time>
      </trkpt>
      <trkpt lat="41.0123650" lon="-2.2247710">
        <ele>1242.6</ele>
        <time>2020-09-12T07:59:17Z</time>
      </trkpt>
      <trkpt lat="41.0124300" lon="-2.2248610">
        <ele>1242.2</ele>
        <time>2020-09-12T07:59:18Z</time>
      </trkpt>
      <trkpt lat="41.0124930" lon="-2.2249490">
        <ele>1242.0</ele>
        <time>2020-09-12T07:59:19Z</time>
      </trkpt>
      <trkpt lat="41.0125560" lon="-2.2250350">
        <ele>1241.8</ele>
        <time>2020-09-12T07:59:20Z</time>
      </trkpt>
      <trkpt lat="41.0126190" lon="-2.2251180">
        <ele>1241.8</ele>
        <time>2020-09-12T07:59:21Z</time>
      </trkpt>
      <trkpt lat="41.0126780" lon="-2.2252030">
        <ele>1241.8</ele>
        <time>2020-09-12T07:59:22Z</time>
      </trkpt>
      <trkpt lat="41.0127350" lon="-2.2252890">
        <ele>1241.8</ele>
        <time>2020-09-12T07:59:23Z</time>
      </trkpt>
      <trkpt lat="41.0127920" lon="-2.2253760">
        <ele>1241.8</ele>
        <time>2020-09-12T07:59:24Z</time>
      </trkpt>
      <trkpt lat="41.0128480" lon="-2.2254630">
        <ele>1241.8</ele>
        <time>2020-09-12T07:59:25Z</time>
      </trkpt>
      <trkpt lat="41.0129040" lon="-2.2255490">
        <ele>1241.6</ele>
        <time>2020-09-12T07:59:26Z</time>
      </trkpt>
      <trkpt lat="41.0129640" lon="-2.2256330">
        <ele>1241.6</ele>
        <time>2020-09-12T07:59:27Z</time>
      </trkpt>
      <trkpt lat="41.0130240" lon="-2.2257150">
        <ele>1241.4</ele>
        <time>2020-09-12T07:59:28Z</time>
      </trkpt>
      <trkpt lat="41.0130880" lon="-2.2257940">
        <ele>1241.4</ele>
        <time>2020-09-12T07:59:29Z</time>
      </trkpt>
      <trkpt lat="41.0131580" lon="-2.2258690">
        <ele>1241.2</ele>
        <time>2020-09-12T07:59:30Z</time>
      </trkpt>
      <trkpt lat="41.0132320" lon="-2.2259380">
        <ele>1241.2</ele>
        <time>2020-09-12T07:59:31Z</time>
      </trkpt>
      <trkpt lat="41.0133090" lon="-2.2260040">
        <ele>1241.0</ele>
        <time>2020-09-12T07:59:32Z</time>
      </trkpt>
      <trkpt lat="41.0133860" lon="-2.2260690">
        <ele>1240.8</ele>
        <time>2020-09-12T07:59:33Z</time>
      </trkpt>
      <trkpt lat="41.0134640" lon="-2.2261330">
        <ele>1240.6</ele>
        <time>2020-09-12T07:59:34Z</time>
      </trkpt>
      <trkpt lat="41.0135400" lon="-2.2262000">
        <ele>1240.6</ele>
        <time>2020-09-12T07:59:35Z</time>
      </trkpt>
      <trkpt lat="41.0136130" lon="-2.2262700">
        <ele>1240.4</ele>
        <time>2020-09-12T07:59:36Z</time>
      </trkpt>
      <trkpt lat="41.0136820" lon="-2.2263440">
        <ele>1240.2</ele>
        <time>2020-09-12T07:59:37Z</time>
      </trkpt>
      <trkpt lat="41.0137470" lon="-2.2264210">
        <ele>1240.0</ele>
        <time>2020-09-12T07:59:38Z</time>
      </trkpt>
      <trkpt lat="41.0138110" lon="-2.2264990">
        <ele>1239.6</ele>
        <time>2020-09-12T07:59:39Z</time>
      </trkpt>
      <trkpt lat="41.0138760" lon="-2.2265770">
        <ele>1239.4</ele>
        <time>2020-09-12T07:59:40Z</time>
      </trkpt>
      <trkpt lat="41.0139380" lon="-2.2266580">
        <ele>1239.0</ele>
        <time>2020-09-12T07:59:41Z</time>
      </trkpt>
      <trkpt lat="41.0139960" lon="-2.2267430">
        <ele>1239.0</ele>
        <time>2020-09-12T07:59:42Z</time>
      </trkpt>
      <trkpt lat="41.0140510" lon="-2.2268320">
        <ele>1238.8</ele>
        <time>2020-09-12T07:59:43Z</time>
      </trkpt>
      <trkpt lat="41.0141060" lon="-2.2269210">
        <ele>1238.6</ele>
        <time>2020-09-12T07:59:44Z</time>
      </trkpt>
      <trkpt lat="41.0141600" lon="-2.2270110">
        <ele>1238.6</ele>
        <time>2020-09-12T07:59:45Z</time>
      </trkpt>
      <trkpt lat="41.0142130" lon="-2.2271040">
        <ele>1238.4</ele>
        <time>2020-09-12T07:59:46Z</time>
      </trkpt>
      <trkpt lat="41.0142640" lon="-2.2272000">
        <ele>1238.2</ele>
        <time>2020-09-12T07:59:47Z</time>
      </trkpt>
      <trkpt lat="41.0143160" lon="-2.2272960">
        <ele>1238.0</ele>
        <time>2020-09-12T07:59:48Z</time>
      </trkpt>
      <trkpt lat="41.0143690" lon="-2.2273940">
        <ele>1238.0</ele>
        <time>2020-09-12T07:59:49Z</time>
      </trkpt>
      <trkpt lat="41.0144210" lon="-2.2274940">
        <ele>1238.0</ele>
        <time>2020-09-12T07:59:50Z</time>
      </trkpt>
      <trkpt lat="41.0144730" lon="-2.2275930">
        <ele>1238.0</ele>
        <time>2020-09-12T07:59:51Z</time>
      </trkpt>
      <trkpt lat="41.0145280" lon="-2.2276900">
        <ele>1238.0</ele>
        <time>2020-09-12T07:59:52Z</time>
      </trkpt>
      <trkpt lat="41.0145880" lon="-2.2277820">
        <ele>1237.8</ele>
        <time>2020-09-12T07:59:53Z</time>
      </trkpt>
      <trkpt lat="41.0146520" lon="-2.2278680">
        <ele>1237.8</ele>
        <time>2020-09-12T07:59:54Z</time>
      </trkpt>
      <trkpt lat="41.0147200" lon="-2.2279480">
        <ele>1237.6</ele>
        <time>2020-09-12T07:59:55Z</time>
      </trkpt>
      <trkpt lat="41.0147890" lon="-2.2280250">
        <ele>1237.4</ele>
        <time>2020-09-12T07:59:56Z</time>
      </trkpt>
      <trkpt lat="41.0148590" lon="-2.2281000">
        <ele>1237.0</ele>
        <time>2020-09-12T07:59:57Z</time>
      </trkpt>
      <trkpt lat="41.0149280" lon="-2.2281760">
        <ele>1236.8</ele>
        <time>2020-09-12T07:59:58Z</time>
      </trkpt>
      <trkpt lat="41.0149950" lon="-2.2282540">
        <ele>1236.4</ele>
        <time>2020-09-12T07:59:59Z</time>
      </trkpt>
      <trkpt lat="41.0150590" lon="-2.2283380">
        <ele>1236.2</ele>
        <time>2020-09-12T08:00:00Z</time>
      </trkpt>
      <trkpt lat="41.0151220" lon="-2.2284260">
        <ele>1236.2</ele>
        <time>2020-09-12T08:00:01Z</time>
      </trkpt>
      <trkpt lat="41.0151840" lon="-2.2285200">
        <ele>1236.0</ele>
        <time>2020-09-12T08:00:02Z</time>
      </trkpt>
      <trkpt lat="41.0152450" lon="-2.2286190">
        <ele>1235.8</ele>
        <time>2020-09-12T08:00:03Z</time>
      </trkpt>
      <trkpt lat="41.0153050" lon="-2.2287220">
        <ele>1235.6</ele>
        <time>2020-09-12T08:00:04Z</time>
      </trkpt>
      <trkpt lat="41.0153650" lon="-2.2288270">
        <ele>1235.4</ele>
        <time>2020-09-12T08:00:05Z</time>
      </trkpt>
      <trkpt lat="41.0154210" lon="-2.2289360">
        <ele>1235.2</ele>
        <time>2020-09-12T08:00:06Z</time>
      </trkpt>
      <trkpt lat="41.0154730" lon="-2.2290480">
        <ele>1235.0</ele>
        <time>2020-09-12T08:00:07Z</time>
      </trkpt>
      <trkpt lat="41.0155210" lon="-2.2291630">
        <ele>1234.8</ele>
        <time>2020-09-12T08:00:08Z</time>
      </trkpt>
      <trkpt lat="41.0155660" lon="-2.2292800">
        <ele>1234.8</ele>
        <time>2020-09-12T08:00:09Z</time>
      </trkpt>
      <trkpt lat="41.0156110" lon="-2.2293960">
        <ele>1234.6</ele>
        <time>2020-09-12T08:00:10Z</time>
      </trkpt>
      <trkpt lat="41.0156550" lon="-2.2295110">
        <ele>1234.4</ele>
        <time>2020-09-12T08:00:11Z</time>
      </trkpt>
      <trkpt lat="41.0157020" lon="-2.2296230">
        <ele>1234.4</ele>
        <time>2020-09-12T08:00:12Z</time>
      </trkpt>
      <trkpt lat="41.0157500" lon="-2.2297320">
        <ele>1234.2</ele>
        <time>2020-09-12T08:00:13Z</time>
      </trkpt>
      <trkpt lat="41.0157990" lon="-2.2298390">
        <ele>1234.2</ele>
        <time>2020-09-12T08:00:14Z</time>
      </trkpt>
      <trkpt lat="41.0158490" lon="-2.2299450">
        <ele>1234.2</ele>
        <time>2020-09-12T08:00:15Z</time>
      </trkpt>
      <trkpt lat="41.0158980" lon="-2.2300510">
        <ele>1234.0</ele>
        <time>2020-09-12T08:00:16Z</time>
      </trkpt>
      <trkpt lat="41.0159440" lon="-2.2301570">
        <ele>1234.0</ele>
        <time>2020-09-12T08:00:17Z</time>
      </trkpt>
      <trkpt lat="41.0159880" lon="-2.2302640">
        <ele>1234.0</ele>
        <time>2020-09-12T08:00:18Z</time>
      </trkpt>
      <trkpt lat="41.0160330" lon="-2.2303710">
        <ele>1234.0</ele>
        <time>2020-09-12T08:00:19Z</time>
      </trkpt>
      <trkpt lat="41.0160770" lon="-2.2304790">
        <ele>1234.0</ele>
        <time>2020-09-12T08:00:20Z</time>
      </trkpt>
      <trkpt lat="41.0161230" lon="-2.2305910">
        <ele>1234.0</ele>
        <time>2020-09-12T08:00:21Z</time>
      </trkpt>
      <trkpt lat="41.0161670" lon="-2.2307070">
        <ele>1233.8</ele>
        <time>2020-09-12T08:00:22Z</time>
      </trkpt>
      <trkpt lat="41.0162100" lon="-2.2308270">
        <ele>1233.4</ele>
        <time>2020-09-12T08:00:23Z</time>
      </trkpt>
      <trkpt lat="41.0162540" lon="-2.2309470">
        <ele>1233.0</ele>
        <time>2020-09-12T08:00:24Z</time>
      </trkpt>
      <trkpt lat="41.0162990" lon="-2.2310680">
        <ele>1232.6</ele>
        <time>2020-09-12T08:00:25Z</time>
      </trkpt>
      <trkpt lat="41.0163450" lon="-2.2311900">
        <ele>1232.2</ele>
        <time>2020-09-12T08:00:26Z</time>
      </trkpt>
      <trkpt lat="41.0163890" lon="-2.2313100">
        <ele>1231.8</ele>
        <time>2020-09-12T08:00:27Z</time>
      </trkpt>
      <trkpt lat="41.0164330" lon="-2.2314290">
        <ele>1231.4</ele>
        <time>2020-09-12T08:00:28Z</time>
      </trkpt>
      <trkpt lat="41.0164740" lon="-2.2315470">
        <ele>1231.0</ele>
        <time>2020-09-12T08:00:29Z</time>
      </trkpt>
      <trkpt lat="41.0165140" lon="-2.2316670">
        <ele>1230.4</ele>
        <time>2020-09-12T08:00:30Z</time>
      </trkpt>
      <trkpt lat="41.0165530" lon="-2.2317900">
        <ele>1230.0</ele>
        <time>2020-09-12T08:00:31Z</time>
      </trkpt>
      <trkpt lat="41.0165870" lon="-2.2319150">
        <ele>1229.8</ele>
        <time>2020-09-12T08:00:32Z</time>
      </trkpt>
      <trkpt lat="41.0166130" lon="-2.2320430">
        <ele>1229.6</ele>
        <time>2020-09-12T08:00:33Z</time>
      </trkpt>
      <trkpt lat="41.0166300" lon="-2.2321750">
        <ele>1229.4</ele>
        <time>2020-09-12T08:00:34Z</time>
      </trkpt>
      <trkpt lat="41.0166420" lon="-2.2323070">
        <ele>1229.4</ele>
        <time>2020-09-12T08:00:35Z</time>
      </trkpt>
      <trkpt lat="41.0166470" lon="-2.2324400">
        <ele>1229.2</ele>
        <time>2020-09-12T08:00:36Z</time>
      </trkpt>
      <trkpt lat="41.0166460" lon="-2.2325720">
        <ele>1228.8</ele>
        <time>2020-09-12T08:00:37Z</time>
      </trkpt>
      <trkpt lat="41.0166470" lon="-2.2327040">
        <ele>1228.4</ele>
        <time>2020-09-12T08:00:38Z</time>
      </trkpt>
      <trkpt lat="41.0166480" lon="-2.2328360">
        <ele>1228.0</ele>
        <time>2020-09-12T08:00:39Z</time>
      </trkpt>
      <trkpt lat="41.0166470" lon="-2.2329650">
        <ele>1227.6</ele>
        <time>2020-09-12T08:00:40Z</time>
      </trkpt>
      <trkpt lat="41.0166450" lon="-2.2330930">
        <ele>1227.4</ele>
        <time>2020-09-12T08:00:41Z</time>
      </trkpt>
      <trkpt lat="41.0166390" lon="-2.2332200">
        <ele>1227.2</ele>
        <time>2020-09-12T08:00:42Z</time>
      </trkpt>
      <trkpt lat="41.0166330" lon="-2.2333450">
        <ele>1227.0</ele>
        <time>2020-09-12T08:00:43Z</time>
      </trkpt>
      <trkpt lat="41.0166260" lon="-2.2334660">
        <ele>1226.6</ele>
        <time>2020-09-12T08:00:44Z</time>
      </trkpt>
      <trkpt lat="41.0166210" lon="-2.2335860">
        <ele>1226.4</ele>
        <time>2020-09-12T08:00:45Z</time>
      </trkpt>
      <trkpt lat="41.0166180" lon="-2.2337040">
        <ele>1226.4</ele>
        <time>2020-09-12T08:00:46Z</time>
      </trkpt>
      <trkpt lat="41.0166170" lon="-2.2338200">
        <ele>1226.2</ele>
        <time>2020-09-12T08:00:47Z</time>
      </trkpt>
      <trkpt lat="41.0166180" lon="-2.2339350">
        <ele>1226.2</ele>
        <time>2020-09-12T08:00:48Z</time>
      </trkpt>
      <trkpt lat="41.0166210" lon="-2.2340480">
        <ele>1226.4</ele>
        <time>2020-09-12T08:00:49Z</time>
      </trkpt>
      <trkpt lat="41.0166270" lon="-2.2341570">
        <ele>1226.4</ele>
        <time>2020-09-12T08:00:50Z</time>
      </trkpt>
      <trkpt lat="41.0166350" lon="-2.2342640">
        <ele>1226.6</ele>
        <time>2020-09-12T08:00:51Z</time>
      </trkpt>
      <trkpt lat="41.0166450" lon="-2.2343690">
        <ele>1226.8</ele>
        <time>2020-09-12T08:00:52Z</time>
      </trkpt>
      <trkpt lat="41.0166560" lon="-2.2344710">
        <ele>1227.0</ele>
        <time>2020-09-12T08:00:53Z</time>
      </trkpt>
      <trkpt lat="41.0166670" lon="-2.2345690">
        <ele>1227.4</ele>
        <time>2020-09-12T08:00:54Z</time>
      </trkpt>
      <trkpt lat="41.0166770" lon="-2.2346630">
        <ele>1227.8</ele>
        <time>2020-09-12T08:00:55Z</time>
      </trkpt>
      <trkpt lat="41.0166860" lon="-2.2347570">
        <ele>1228.2</ele>
        <time>2020-09-12T08:00:56Z</time>
      </trkpt>
      <trkpt lat="41.0166950" lon="-2.2348480">
        <ele>1228.6</ele>
        <time>2020-09-12T08:00:57Z</time>
      </trkpt>
      <trkpt lat="41.0167060" lon="-2.2349370">
        <ele>1228.8</ele>
        <time>2020-09-12T08:00:58Z</time>
      </trkpt>
      <trkpt lat="41.0167160" lon="-2.2350240">
        <ele>1229.0</ele>
        <time>2020-09-12T08:00:59Z</time>
      </trkpt>
      <trkpt lat="41.0167260" lon="-2.2351110">
        <ele>1229.4</ele>
        <time>2020-09-12T08:01:00Z</time>
      </trkpt>
      <trkpt lat="41.0167370" lon="-2.2352000">
        <ele>1229.6</ele>
        <time>2020-09-12T08:01:01Z</time>
      </trkpt>
      <trkpt lat="41.0167490" lon="-2.2352910">
        <ele>1229.6</ele>
        <time>2020-09-12T08:01:02Z</time>
      </trkpt>
      <trkpt lat="41.0167610" lon="-2.2353860">
        <ele>1229.6</ele>
        <time>2020-09-12T08:01:03Z</time>
      </trkpt>
      <trkpt lat="41.0167730" lon="-2.2354840">
        <ele>1229.6</ele>
        <time>2020-09-12T08:01:04Z</time>
      </trkpt>
      <trkpt lat="41.0167860" lon="-2.2355840">
        <ele>1229.6</ele>
        <time>2020-09-12T08:01:05Z</time>
      </trkpt>
      <trkpt lat="41.0168010" lon="-2.2356870">
        <ele>1229.6</ele>
        <time>2020-09-12T08:01:06Z</time>
      </trkpt>
      <trkpt lat="41.0168170" lon="-2.2357910">
        <ele>1229.6</ele>
        <time>2020-09-12T08:01:07Z</time>
      </trkpt>
      <trkpt lat="41.0168340" lon="-2.2358950">
        <ele>1229.4</ele>
        <time>2020-09-12T08:01:08Z</time>
      </trkpt>
      <trkpt lat="41.0168520" lon="-2.2360010">
        <ele>1229.4</ele>
        <time>2020-09-12T08:01:09Z</time>
      </trkpt>
      <trkpt lat="41.0168740" lon="-2.2361080">
        <ele>1229.2</ele>
        <time>2020-09-12T08:01:10Z</time>
      </trkpt>
      <trkpt lat="41.0168990" lon="-2.2362140">
        <ele>1229.2</ele>
        <time>2020-09-12T08:01:11Z</time>
      </trkpt>
      <trkpt lat="41.0169270" lon="-2.2363200">
        <ele>1229.2</ele>
        <time>2020-09-12T08:01:12Z</time>
      </trkpt>
      <trkpt lat="41.0169570" lon="-2.2364240">
        <ele>1229.0</ele>
        <time>2020-09-12T08:01:13Z</time>
      </trkpt>
      <trkpt lat="41.0169880" lon="-2.2365280">
        <ele>1229.2</ele>
        <time>2020-09-12T08:01:14Z</time>
      </trkpt>
      <trkpt lat="41.0170200" lon="-2.2366300">
        <ele>1229.2</ele>
        <time>2020-09-12T08:01:15Z</time>
      </trkpt>
      <trkpt lat="41.0170520" lon="-2.2367320">
        <ele>1229.2</ele>
        <time>2020-09-12T08:01:16Z</time>
      </trkpt>
      <trkpt lat="41.0170840" lon="-2.2368340">
        <ele>1229.2</ele>
        <time>2020-09-12T08:01:17Z</time>
      </trkpt>
      <trkpt lat="41.0171150" lon="-2.2369360">
        <ele>1229.2</ele>
        <time>2020-09-12T08:01:18Z</time>
      </trkpt>
      <trkpt lat="41.0171470" lon="-2.2370390">
        <ele>1229.2</ele>
        <time>2020-09-12T08:01:19Z</time>
      </trkpt>
      <trkpt lat="41.0171800" lon="-2.2371400">
        <ele>1229.4</ele>
        <time>2020-09-12T08:01:20Z</time>
      </trkpt>
      <trkpt lat="41.0172140" lon="-2.2372390">
        <ele>1229.4</ele>
        <time>2020-09-12T08:01:21Z</time>
      </trkpt>
      <trkpt lat="41.0172480" lon="-2.2373400">
        <ele>1229.2</ele>
        <time>2020-09-12T08:01:22Z</time>
      </trkpt>
      <trkpt lat="41.0172800" lon="-2.2374400">
        <ele>1229.2</ele>
        <time>2020-09-12T08:01:23Z</time>
      </trkpt>
      <trkpt lat="41.0173110" lon="-2.2375390">
        <ele>1229.4</ele>
        <time>2020-09-12T08:01:24Z</time>
      </trkpt>
      <trkpt lat="41.0173400" lon="-2.2376350">
        <ele>1229.4</ele>
        <time>2020-09-12T08:01:25Z</time>
      </trkpt>
      <trkpt lat="41.0173690" lon="-2.2377300">
        <ele>1229.6</ele>
        <time>2020-09-12T08:01:26Z</time>
      </trkpt>
      <trkpt lat="41.0173960" lon="-2.2378240">
        <ele>1229.6</ele>
        <time>2020-09-12T08:01:27Z</time>
      </trkpt>
      <trkpt lat="41.0174240" lon="-2.2379160">
        <ele>1229.8</ele>
        <time>2020-09-12T08:01:28Z</time>
      </trkpt>
      <trkpt lat="41.0174500" lon="-2.2380080">
        <ele>1230.0</ele>
        <time>2020-09-12T08:01:29Z</time>
      </trkpt>
      <trkpt lat="41.0174750" lon="-2.2381000">
        <ele>1230.0</ele>
        <time>2020-09-12T08:01:30Z</time>
      </trkpt>
      <trkpt lat="41.0174960" lon="-2.2381910">
        <ele>1230.2</ele>
        <time>2020-09-12T08:01:31Z</time>
      </trkpt>
      <trkpt lat="41.0175110" lon="-2.2382810">
        <ele>1230.4</ele>
        <time>2020-09-12T08:01:32Z</time>
      </trkpt>
      <trkpt lat="41.0175240" lon="-2.2383690">
        <ele>1230.6</ele>
        <time>2020-09-12T08:01:33Z</time>
      </trkpt>
      <trkpt lat="41.0175360" lon="-2.2384560">
        <ele>1230.6</ele>
        <time>2020-09-12T08:01:34Z</time>
      </trkpt>
      <trkpt lat="41.0175480" lon="-2.2385410">
        <ele>1230.8</ele>
        <time>2020-09-12T08:01:35Z</time>
      </trkpt>
      <trkpt lat="41.0175600" lon="-2.2386240">
        <ele>1231.0</ele>
        <time>2020-09-12T08:01:36Z</time>
      </trkpt>
      <trkpt lat="41.0175720" lon="-2.2387080">
        <ele>1231.2</ele>
        <time>2020-09-12T08:01:37Z</time>
      </trkpt>
      <trkpt lat="41.0175840" lon="-2.2387910">
        <ele>1231.2</ele>
        <time>2020-09-12T08:01:38Z</time>
      </trkpt>
      <trkpt lat="41.0175950" lon="-2.2388750">
        <ele>1231.4</ele>
        <time>2020-09-12T08:01:39Z</time>
      </trkpt>
      <trkpt lat="41.0176080" lon="-2.2389600">
        <ele>1231.4</ele>
        <time>2020-09-12T08:01:40Z</time>
      </trkpt>
      <trkpt lat="41.0176200" lon="-2.2390460">
        <ele>1231.6</ele>
        <time>2020-09-12T08:01:41Z</time>
      </trkpt>
      <trkpt lat="41.0176320" lon="-2.2391360">
        <ele>1231.6</ele>
        <time>2020-09-12T08:01:42Z</time>
      </trkpt>
      <trkpt lat="41.0176430" lon="-2.2392270">
        <ele>1231.8</ele>
        <time>2020-09-12T08:01:43Z</time>
      </trkpt>
      <trkpt lat="41.0176530" lon="-2.2393180">
        <ele>1231.8</ele>
        <time>2020-09-12T08:01:44Z</time>
      </trkpt>
      <trkpt lat="41.0176640" lon="-2.2394090">
        <ele>1232.0</ele>
        <time>2020-09-12T08:01:45Z</time>
      </trkpt>
      <trkpt lat="41.0176740" lon="-2.2395010">
        <ele>1232.0</ele>
        <time>2020-09-12T08:01:46Z</time>
      </trkpt>
      <trkpt lat="41.0176850" lon="-2.2395920">
        <ele>1232.0</ele>
        <time>2020-09-12T08:01:47Z</time>
      </trkpt>
      <trkpt lat="41.0176980" lon="-2.2396830">
        <ele>1232.2</ele>
        <time>2020-09-12T08:01:48Z</time>
      </trkpt>
      <trkpt lat="41.0177110" lon="-2.2397750">
        <ele>1232.2</ele>
        <time>2020-09-12T08:01:49Z</time>
      </trkpt>
      <trkpt lat="41.0177250" lon="-2.2398650">
        <ele>1232.2</ele>
        <time>2020-09-12T08:01:50Z</time>
      </trkpt>
      <trkpt lat="41.0177400" lon="-2.2399550">
        <ele>1232.2</ele>
        <time>2020-09-12T08:01:51Z</time>
      </trkpt>
      <trkpt lat="41.0177540" lon="-2.2400450">
        <ele>1232.4</ele>
        <time>2020-09-12T08:01:52Z</time>
      </trkpt>
      <trkpt lat="41.0177680" lon="-2.2401330">
        <ele>1232.8</ele>
        <time>2020-09-12T08:01:53Z</time>
      </trkpt>
      <trkpt lat="41.0177810" lon="-2.2402210">
        <ele>1233.0</ele>
        <time>2020-09-12T08:01:54Z</time>
      </trkpt>
      <trkpt lat="41.0177930" lon="-2.2403070">
        <ele>1233.0</ele>
        <time>2020-09-12T08:01:55Z</time>
      </trkpt>
      <trkpt lat="41.0178070" lon="-2.2403910">
        <ele>1233.2</ele>
        <time>2020-09-12T08:01:56Z</time>
      </trkpt>
      <trkpt lat="41.0178210" lon="-2.2404730">
        <ele>1233.2</ele>
        <time>2020-09-12T08:01:57Z</time>
      </trkpt>
      <trkpt lat="41.0178340" lon="-2.2405550">
        <ele>1233.4</ele>
        <time>2020-09-12T08:01:58Z</time>
      </trkpt>
      <trkpt lat="41.0178460" lon="-2.2406340">
        <ele>1233.6</ele>
        <time>2020-09-12T08:01:59Z</time>
      </trkpt>
      <trkpt lat="41.0178580" lon="-2.2407110">
        <ele>1233.6</ele>
        <time>2020-09-12T08:02:00Z</time>
      </trkpt>
      <trkpt lat="41.0178710" lon="-2.2407890">
        <ele>1233.8</ele>
        <time>2020-09-12T08:02:01Z</time>
      </trkpt>
      <trkpt lat="41.0178840" lon="-2.2408670">
        <ele>1234.0</ele>
        <time>2020-09-12T08:02:02Z</time>
      </trkpt>
      <trkpt lat="41.0178970" lon="-2.2409440">
        <ele>1234.0</ele>
        <time>2020-09-12T08:02:03Z</time>
      </trkpt>
      <trkpt lat="41.0179090" lon="-2.2410220">
        <ele>1234.2</ele>
        <time>2020-09-12T08:02:04Z</time>
      </trkpt>
      <trkpt lat="41.0179220" lon="-2.2410990">
        <ele>1234.4</ele>
        <time>2020-09-12T08:02:05Z</time>
      </trkpt>
      <trkpt lat="41.0179360" lon="-2.2411760">
        <ele>1234.8</ele>
        <time>2020-09-12T08:02:06Z</time>
      </trkpt>
      <trkpt lat="41.0179490" lon="-2.2412530">
        <ele>1235.0</ele>
        <time>2020-09-12T08:02:07Z</time>
      </trkpt>
      <trkpt lat="41.0179620" lon="-2.2413300">
        <ele>1235.2</ele>
        <time>2020-09-12T08:02:08Z</time>
      </trkpt>
      <trkpt lat="41.0179740" lon="-2.2414110">
        <ele>1235.4</ele>
        <time>2020-09-12T08:02:09Z</time>
      </trkpt>
      <trkpt lat="41.0179860" lon="-2.2414930">
        <ele>1235.6</ele>
        <time>2020-09-12T08:02:10Z</time>
      </trkpt>
      <trkpt lat="41.0179990" lon="-2.2415790">
        <ele>1235.8</ele>
        <time>2020-09-12T08:02:11Z</time>
      </trkpt>
      <trkpt lat="41.0180120" lon="-2.2416660">
        <ele>1235.8</ele>
        <time>2020-09-12T08:02:12Z</time>
      </trkpt>
      <trkpt lat="41.0180270" lon="-2.2417550">
        <ele>1236.0</ele>
        <time>2020-09-12T08:02:13Z</time>
      </trkpt>
      <trkpt lat="41.0180420" lon="-2.2418460">
        <ele>1236.2</ele>
        <time>2020-09-12T08:02:14Z</time>
      </trkpt>
      <trkpt lat="41.0180570" lon="-2.2419390">
        <ele>1236.2</ele>
        <time>2020-09-12T08:02:15Z</time>
      </trkpt>
      <trkpt lat="41.0180720" lon="-2.2420330">
        <ele>1236.2</ele>
        <time>2020-09-12T08:02:16Z</time>
      </trkpt>
      <trkpt lat="41.0180870" lon="-2.2421290">
        <ele>1236.2</ele>
        <time>2020-09-12T08:02:17Z</time>
      </trkpt>
      <trkpt lat="41.0181020" lon="-2.2422260">
        <ele>1236.2</ele>
        <time>2020-09-12T08:02:18Z</time>
      </trkpt>
      <trkpt lat="41.0181180" lon="-2.2423240">
        <ele>1236.4</ele>
        <time>2020-09-12T08:02:19Z</time>
      </trkpt>
      <trkpt lat="41.0181360" lon="-2.2424210">
        <ele>1236.4</ele>
        <time>2020-09-12T08:02:20Z</time>
      </trkpt>
      <trkpt lat="41.0181560" lon="-2.2425200">
        <ele>1236.4</ele>
        <time>2020-09-12T08:02:21Z</time>
      </trkpt>
      <trkpt lat="41.0181780" lon="-2.2426200">
        <ele>1236.6</ele>
        <time>2020-09-12T08:02:22Z</time>
      </trkpt>
      <trkpt lat="41.0182020" lon="-2.2427180">
        <ele>1236.6</ele>
        <time>2020-09-12T08:02:23Z</time>
      </trkpt>
      <trkpt lat="41.0182290" lon="-2.2428150">
        <ele>1236.6</ele>
        <time>2020-09-12T08:02:24Z</time>
      </trkpt>
      <trkpt lat="41.0182550" lon="-2.2429120">
        <ele>1236.6</ele>
        <time>2020-09-12T08:02:25Z</time>
      </trkpt>
      <trkpt lat="41.0182830" lon="-2.2430080">
        <ele>1236.6</ele>
        <time>2020-09-12T08:02:26Z</time>
      </trkpt>
      <trkpt lat="41.0183110" lon="-2.2431030">
        <ele>1236.4</ele>
        <time>2020-09-12T08:02:27Z</time>
      </trkpt>
      <trkpt lat="41.0183410" lon="-2.2431980">
        <ele>1236.2</ele>
        <time>2020-09-12T08:02:28Z</time>
      </trkpt>
      <trkpt lat="41.0183690" lon="-2.2432940">
        <ele>1236.0</ele>
        <time>2020-09-12T08:02:29Z</time>
      </trkpt>
      <trkpt lat="41.0183990" lon="-2.2433890">
        <ele>1236.0</ele>
        <time>2020-09-12T08:02:30Z</time>
      </trkpt>
      <trkpt lat="41.0184290" lon="-2.2434830">
        <ele>1235.8</ele>
        <time>2020-09-12T08:02:31Z</time>
      </trkpt>
      <trkpt lat="41.0184580" lon="-2.2435790">
        <ele>1235.8</ele>
        <time>2020-09-12T08:02:32Z</time>
      </trkpt>
      <trkpt lat="41.0184880" lon="-2.2436770">
        <ele>1236.0</ele>
        <time>2020-09-12T08:02:33Z</time>
      </trkpt>
      <trkpt lat="41.0185170" lon="-2.2437790">
        <ele>1236.0</ele>
        <time>2020-09-12T08:02:34Z</time>
      </trkpt>
      <trkpt lat="41.0185470" lon="-2.2438850">
        <ele>1236.2</ele>
        <time>2020-09-12T08:02:35Z</time>
      </trkpt>
      <trkpt lat="41.0185760" lon="-2.2439920">
        <ele>1236.2</ele>
        <time>2020-09-12T08:02:36Z</time>
      </trkpt>
      <trkpt lat="41.0186050" lon="-2.2441020">
        <ele>1236.0</ele>
        <time>2020-09-12T08:02:37Z</time>
      </trkpt>
      <trkpt lat="41.0186360" lon="-2.2442150">
        <ele>1236.0</ele>
        <time>2020-09-12T08:02:38Z</time>
      </trkpt>
      <trkpt lat="41.0186680" lon="-2.2443320">
        <ele>1235.6</ele>
        <time>2020-09-12T08:02:39Z</time>
      </trkpt>
      <trkpt lat="41.0187030" lon="-2.2444500">
        <ele>1235.0</ele>
        <time>2020-09-12T08:02:40Z</time>
      </trkpt>
      <trkpt lat="41.0187390" lon="-2.2445660">
        <ele>1234.6</ele>
        <time>2020-09-12T08:02:41Z</time>
      </trkpt>
      <trkpt lat="41.0187740" lon="-2.2446820">
        <ele>1234.2</ele>
        <time>2020-09-12T08:02:42Z</time>
      </trkpt>
      <trkpt lat="41.0188080" lon="-2.2447950">
        <ele>1234.0</ele>
        <time>2020-09-12T08:02:43Z</time>
      </trkpt>
      <trkpt lat="41.0188430" lon="-2.2449050">
        <ele>1234.0</ele>
        <time>2020-09-12T08:02:44Z</time>
      </trkpt>
      <trkpt lat="41.0188780" lon="-2.2450120">
        <ele>1233.8</ele>
        <time>2020-09-12T08:02:45Z</time>
      </trkpt>
      <trkpt lat="41.0189140" lon="-2.2451160">
        <ele>1233.8</ele>
        <time>2020-09-12T08:02:46Z</time>
      </trkpt>
      <trkpt lat="41.0189490" lon="-2.2452180">
        <ele>1233.8</ele>
        <time>2020-09-12T08:02:47Z</time>
      </trkpt>
      <trkpt lat="41.0189840" lon="-2.2453180">
        <ele>1233.8</ele>
        <time>2020-09-12T08:02:48Z</time>
      </trkpt>
      <trkpt lat="41.0190170" lon="-2.2454190">
        <ele>1233.8</ele>
        <time>2020-09-12T08:02:49Z</time>
      </trkpt>
      <trkpt lat="41.0190500" lon="-2.2455190">
        <ele>1234.0</ele>
        <time>2020-09-12T08:02:50Z</time>
      </trkpt>
      <trkpt lat="41.0190810" lon="-2.2456170">
        <ele>1234.0</ele>
        <time>2020-09-12T08:02:51Z</time>
      </trkpt>
      <trkpt lat="41.0191100" lon="-2.2457150">
        <ele>1234.2</ele>
        <time>2020-09-12T08:02:52Z</time>
      </trkpt>
      <trkpt lat="41.0191380" lon="-2.2458100">
        <ele>1234.2</ele>
        <time>2020-09-12T08:02:53Z</time>
      </trkpt>
      <trkpt lat="41.0191630" lon="-2.2459060">
        <ele>1234.4</ele>
        <time>2020-09-12T08:02:54Z</time>
      </trkpt>
      <trkpt lat="41.0191870" lon="-2.2460010">
        <ele>1234.4</ele>
        <time>2020-09-12T08:02:55Z</time>
      </trkpt>
      <trkpt lat="41.0192100" lon="-2.2460960">
        <ele>1234.6</ele>
        <time>2020-09-12T08:02:56Z</time>
      </trkpt>
      <trkpt lat="41.0192320" lon="-2.2461900">
        <ele>1234.6</ele>
        <time>2020-09-12T08:02:57Z</time>
      </trkpt>
      <trkpt lat="41.0192530" lon="-2.2462840">
        <ele>1234.8</ele>
        <time>2020-09-12T08:02:58Z</time>
      </trkpt>
      <trkpt lat="41.0192720" lon="-2.2463770">
        <ele>1234.8</ele>
        <time>2020-09-12T08:02:59Z</time>
      </trkpt>
      <trkpt lat="41.0192880" lon="-2.2464680">
        <ele>1235.0</ele>
        <time>2020-09-12T08:03:00Z</time>
      </trkpt>
      <trkpt lat="41.0193010" lon="-2.2465600">
        <ele>1235.2</ele>
        <time>2020-09-12T08:03:01Z</time>
      </trkpt>
      <trkpt lat="41.0193140" lon="-2.2466510">
        <ele>1235.6</ele>
        <time>2020-09-12T08:03:02Z</time>
      </trkpt>
      <trkpt lat="41.0193260" lon="-2.2467410">
        <ele>1235.8</ele>
        <time>2020-09-12T08:03:03Z</time>
      </trkpt>
      <trkpt lat="41.0193350" lon="-2.2468320">
        <ele>1236.2</ele>
        <time>2020-09-12T08:03:04Z</time>
      </trkpt>
      <trkpt lat="41.0193420" lon="-2.2469210">
        <ele>1236.4</ele>
        <time>2020-09-12T08:03:05Z</time>
      </trkpt>
      <trkpt lat="41.0193490" lon="-2.2470090">
        <ele>1236.6</ele>
        <time>2020-09-12T08:03:06Z</time>
      </trkpt>
      <trkpt lat="41.0193560" lon="-2.2470970">
        <ele>1236.6</ele>
        <time>2020-09-12T08:03:07Z</time>
      </trkpt>
      <trkpt lat="41.0193620" lon="-2.2471830">
        <ele>1236.8</ele>
        <time>2020-09-12T08:03:08Z</time>
      </trkpt>
      <trkpt lat="41.0193670" lon="-2.2472700">
        <ele>1236.8</ele>
        <time>2020-09-12T08:03:09Z</time>
      </trkpt>
      <trkpt lat="41.0193710" lon="-2.2473570">
        <ele>1237.0</ele>
        <time>2020-09-12T08:03:10Z</time>
      </trkpt>
      <trkpt lat="41.0193730" lon="-2.2474440">
        <ele>1237.2</ele>
        <time>2020-09-12T08:03:11Z</time>
      </trkpt>
      <trkpt lat="41.0193700" lon="-2.2475320">
        <ele>1237.2</ele>
        <time>2020-09-12T08:03:12Z</time>
      </trkpt>
      <trkpt lat="41.0193650" lon="-2.2476240">
        <ele>1237.4</ele>
        <time>2020-09-12T08:03:13Z</time>
      </trkpt>
      <trkpt lat="41.0193570" lon="-2.2477180">
        <ele>1237.4</ele>
        <time>2020-09-12T08:03:14Z</time>
      </trkpt>
      <trkpt lat="41.0193480" lon="-2.2478170">
        <ele>1237.4</ele>
        <time>2020-09-12T08:03:15Z</time>
      </trkpt>
      <trkpt lat="41.0193360" lon="-2.2479200">
        <ele>1237.4</ele>
        <time>2020-09-12T08:03:16Z</time>
      </trkpt>
      <trkpt lat="41.0193220" lon="-2.2480270">
        <ele>1237.4</ele>
        <time>2020-09-12T08:03:17Z</time>
      </trkpt>
      <trkpt lat="41.0193090" lon="-2.2481340">
        <ele>1237.2</ele>
        <time>2020-09-12T08:03:18Z</time>
      </trkpt>
      <trkpt lat="41.0192950" lon="-2.2482430">
        <ele>1236.8</ele>
        <time>2020-09-12T08:03:19Z</time>
      </trkpt>
      <trkpt lat="41.0192830" lon="-2.2483510">
        <ele>1236.6</ele>
        <time>2020-09-12T08:03:20Z</time>
      </trkpt>
      <trkpt lat="41.0192710" lon="-2.2484600">
        <ele>1236.6</ele>
        <time>2020-09-12T08:03:21Z</time>
      </trkpt>
      <trkpt lat="41.0192580" lon="-2.2485660">
        <ele>1236.4</ele>
        <time>2020-09-12T08:03:22Z</time>
      </trkpt>
      <trkpt lat="41.0192450" lon="-2.2486690">
        <ele>1236.4</ele>
        <time>2020-09-12T08:03:23Z</time>
      </trkpt>
      <trkpt lat="41.0192310" lon="-2.2487690">
        <ele>1236.4</ele>
        <time>2020-09-12T08:03:24Z</time>
      </trkpt>
      <trkpt lat="41.0192170" lon="-2.2488670">
        <ele>1236.4</ele>
        <time>2020-09-12T08:03:25Z</time>
      </trkpt>
      <trkpt lat="41.0192030" lon="-2.2489630">
        <ele>1236.6</ele>
        <time>2020-09-12T08:03:26Z</time>
      </trkpt>
      <trkpt lat="41.0191890" lon="-2.2490590">
        <ele>1236.8</ele>
        <time>2020-09-12T08:03:27Z</time>
      </trkpt>
      <trkpt lat="41.0191740" lon="-2.2491540">
        <ele>1236.8</ele>
        <time>2020-09-12T08:03:28Z</time>
      </trkpt>
      <trkpt lat="41.0191590" lon="-2.2492480">
        <ele>1237.0</ele>
        <time>2020-09-12T08:03:29Z</time>
      </trkpt>
      <trkpt lat="41.0191420" lon="-2.2493410">
        <ele>1237.0</ele>
        <time>2020-09-12T08:03:30Z</time>
      </trkpt>
      <trkpt lat="41.0191210" lon="-2.2494340">
        <ele>1237.2</ele>
        <time>2020-09-12T08:03:31Z</time>
      </trkpt>
      <trkpt lat="41.0190980" lon="-2.2495270">
        <ele>1237.2</ele>
        <time>2020-09-12T08:03:32Z</time>
      </trkpt>
      <trkpt lat="41.0190750" lon="-2.2496240">
        <ele>1237.2</ele>
        <time>2020-09-12T08:03:33Z</time>
      </trkpt>
      <trkpt lat="41.0190510" lon="-2.2497220">
        <ele>1237.2</ele>
        <time>2020-09-12T08:03:34Z</time>
      </trkpt>
      <trkpt lat="41.0190250" lon="-2.2498210">
        <ele>1237.0</ele>
        <time>2020-09-12T08:03:35Z</time>
      </trkpt>
      <trkpt lat="41.0189990" lon="-2.2499240">
        <ele>1236.8</ele>
        <time>2020-09-12T08:03:36Z</time>
      </trkpt>
      <trkpt lat="41.0189710" lon="-2.2500270">
        <ele>1236.8</ele>
        <time>2020-09-12T08:03:37Z</time>
      </trkpt>
      <trkpt lat="41.0189440" lon="-2.2501330">
        <ele>1236.6</ele>
        <time>2020-09-12T08:03:38Z</time>
      </trkpt>
      <trkpt lat="41.0189170" lon="-2.2502410">
        <ele>1236.4</ele>
        <time>2020-09-12T08:03:39Z</time>
      </trkpt>
      <trkpt lat="41.0188880" lon="-2.2503480">
        <ele>1236.2</ele>
        <time>2020-09-12T08:03:40Z</time>
      </trkpt>
      <trkpt lat="41.0188580" lon="-2.2504570">
        <ele>1236.0</ele>
        <time>2020-09-12T08:03:41Z</time>
      </trkpt>
      <trkpt lat="41.0188270" lon="-2.2505670">
        <ele>1235.8</ele>
        <time>2020-09-12T08:03:42Z</time>
      </trkpt>
      <trkpt lat="41.0187960" lon="-2.2506780">
        <ele>1235.6</ele>
        <time>2020-09-12T08:03:43Z</time>
      </trkpt>
      <trkpt lat="41.0187670" lon="-2.2507890">
        <ele>1235.4</ele>
        <time>2020-09-12T08:03:44Z</time>
      </trkpt>
      <trkpt lat="41.0187390" lon="-2.2508990">
        <ele>1235.2</ele>
        <time>2020-09-12T08:03:45Z</time>
      </trkpt>
      <trkpt lat="41.0187120" lon="-2.2510100">
        <ele>1235.0</ele>
        <time>2020-09-12T08:03:46Z</time>
      </trkpt>
      <trkpt lat="41.0186880" lon="-2.2511190">
        <ele>1234.8</ele>
        <time>2020-09-12T08:03:47Z</time>
      </trkpt>
      <trkpt lat="41.0186670" lon="-2.2512270">
        <ele>1235.0</ele>
        <time>2020-09-12T08:03:48Z</time>
      </trkpt>
      <trkpt lat="41.0186520" lon="-2.2513340">
        <ele>1235.0</ele>
        <time>2020-09-12T08:03:49Z</time>
      </trkpt>
      <trkpt lat="41.0186390" lon="-2.2514390">
        <ele>1235.0</ele>
        <time>2020-09-12T08:03:50Z</time>
      </trkpt>
      <trkpt lat="41.0186280" lon="-2.2515410">
        <ele>1235.2</ele>
        <time>2020-09-12T08:03:51Z</time>
      </trkpt>
      <trkpt lat="41.0186210" lon="-2.2516370">
        <ele>1235.2</ele>
        <time>2020-09-12T08:03:52Z</time>
      </trkpt>
      <trkpt lat="41.0186130" lon="-2.2517290">
        <ele>1235.4</ele>
        <time>2020-09-12T08:03:53Z</time>
      </trkpt>
      <trkpt lat="41.0186070" lon="-2.2518160">
        <ele>1235.6</ele>
        <time>2020-09-12T08:03:54Z</time>
      </trkpt>
      <trkpt lat="41.0186010" lon="-2.2518970">
        <ele>1235.8</ele>
        <time>2020-09-12T08:03:55Z</time>
      </trkpt>
      <trkpt lat="41.0185960" lon="-2.2519760">
        <ele>1236.0</ele>
        <time>2020-09-12T08:03:56Z</time>
      </trkpt>
      <trkpt lat="41.0185900" lon="-2.2520550">
        <ele>1236.2</ele>
        <time>2020-09-12T08:03:57Z</time>
      </trkpt>
      <trkpt lat="41.0185850" lon="-2.2521330">
        <ele>1236.2</ele>
        <time>2020-09-12T08:03:58Z</time>
      </trkpt>
      <trkpt lat="41.0185800" lon="-2.2522110">
        <ele>1236.4</ele>
        <time>2020-09-12T08:03:59Z</time>
      </trkpt>
      <trkpt lat="41.0185740" lon="-2.2522890">
        <ele>1236.6</ele>
        <time>2020-09-12T08:04:00Z</time>
      </trkpt>
      <trkpt lat="41.0185690" lon="-2.2523690">
        <ele>1236.8</ele>
        <time>2020-09-12T08:04:01Z</time>
      </trkpt>
      <trkpt lat="41.0185660" lon="-2.2524500">
        <ele>1236.8</ele>
        <time>2020-09-12T08:04:02Z</time>
      </trkpt>
      <trkpt lat="41.0185620" lon="-2.2525330">
        <ele>1237.0</ele>
        <time>2020-09-12T08:04:03Z</time>
      </trkpt>
      <trkpt lat="41.0185570" lon="-2.2526180">
        <ele>1237.2</ele>
        <time>2020-09-12T08:04:04Z</time>
      </trkpt>
      <trkpt lat="41.0185500" lon="-2.2527030">
        <ele>1237.2</ele>
        <time>2020-09-12T08:04:05Z</time>
      </trkpt>
      <trkpt lat="41.0185440" lon="-2.2527880">
        <ele>1237.4</ele>
        <time>2020-09-12T08:04:06Z</time>
      </trkpt>
      <trkpt lat="41.0185390" lon="-2.2528710">
        <ele>1237.4</ele>
        <time>2020-09-12T08:04:07Z</time>
      </trkpt>
      <trkpt lat="41.0185340" lon="-2.2529510">
        <ele>1237.6</ele>
        <time>2020-09-12T08:04:08Z</time>
      </trkpt>
      <trkpt lat="41.0185280" lon="-2.2530310">
        <ele>1237.8</ele>
        <time>2020-09-12T08:04:09Z</time>
      </trkpt>
      <trkpt lat="41.0185220" lon="-2.2531090">
        <ele>1238.0</ele>
        <time>2020-09-12T08:04:10Z</time>
      </trkpt>
      <trkpt lat="41.0185160" lon="-2.2531860">
        <ele>1238.2</ele>
        <time>2020-09-12T08:04:11Z</time>
      </trkpt>
      <trkpt lat="41.0185110" lon="-2.2532630">
        <ele>1238.2</ele>
        <time>2020-09-12T08:04:12Z</time>
      </trkpt>
      <trkpt lat="41.0185060" lon="-2.2533400">
        <ele>1238.4</ele>
        <time>2020-09-12T08:04:13Z</time>
      </trkpt>
      <trkpt lat="41.0185020" lon="-2.2534160">
        <ele>1238.4</ele>
        <time>2020-09-12T08:04:14Z</time>
      </trkpt>
      <trkpt lat="41.0184970" lon="-2.2534930">
        <ele>1238.4</ele>
        <time>2020-09-12T08:04:15Z</time>
      </trkpt>
      <trkpt lat="41.0184910" lon="-2.2535710">
        <ele>1238.4</ele>
        <time>2020-09-12T08:04:16Z</time>
      </trkpt>
      <trkpt lat="41.0184850" lon="-2.2536480">
        <ele>1238.6</ele>
        <time>2020-09-12T08:04:17Z</time>
      </trkpt>
      <trkpt lat="41.0184800" lon="-2.2537250">
        <ele>1238.8</ele>
        <time>2020-09-12T08:04:18Z</time>
      </trkpt>
      <trkpt lat="41.0184750" lon="-2.2538030">
        <ele>1239.0</ele>
        <time>2020-09-12T08:04:19Z</time>
      </trkpt>
      <trkpt lat="41.0184710" lon="-2.2538810">
        <ele>1239.2</ele>
        <time>2020-09-12T08:04:20Z</time>
      </trkpt>
      <trkpt lat="41.0184670" lon="-2.2539580">
        <ele>1239.2</ele>
        <time>2020-09-12T08:04:21Z</time>
      </trkpt>
      <trkpt lat="41.0184620" lon="-2.2540360">
        <ele>1239.2</ele>
        <time>2020-09-12T08:04:22Z</time>
      </trkpt>
      <trkpt lat="41.0184570" lon="-2.2541140">
        <ele>1239.4</ele>
        <time>2020-09-12T08:04:23Z</time>
      </trkpt>
      <trkpt lat="41.0184510" lon="-2.2541900">
        <ele>1239.6</ele>
        <time>2020-09-12T08:04:24Z</time>
      </trkpt>
      <trkpt lat="41.0184440" lon="-2.2542670">
        <ele>1239.6</ele>
        <time>2020-09-12T08:04:25Z</time>
      </trkpt>
      <trkpt lat="41.0184360" lon="-2.2543420">
        <ele>1239.8</ele>
        <time>2020-09-12T08:04:26Z</time>
      </trkpt>
      <trkpt lat="41.0184260" lon="-2.2544160">
        <ele>1239.8</ele>
        <time>2020-09-12T08:04:27Z</time>
      </trkpt>
      <trkpt lat="41.0184130" lon="-2.2544880">
        <ele>1240.0</ele>
        <time>2020-09-12T08:04:28Z</time>
      </trkpt>
      <trkpt lat="41.0183980" lon="-2.2545590">
        <ele>1240.2</ele>
        <time>2020-09-12T08:04:29Z</time>
      </trkpt>
      <trkpt lat="41.0183810" lon="-2.2546290">
        <ele>1240.4</ele>
        <time>2020-09-12T08:04:30Z</time>
      </trkpt>
      <trkpt lat="41.0183610" lon="-2.2546980">
        <ele>1240.6</ele>
        <time>2020-09-12T08:04:31Z</time>
      </trkpt>
      <trkpt lat="41.0183390" lon="-2.2547660">
        <ele>1240.8</ele>
        <time>2020-09-12T08:04:32Z</time>
      </trkpt>
      <trkpt lat="41.0183120" lon="-2.2548310">
        <ele>1241.0</ele>
        <time>2020-09-12T08:04:33Z</time>
      </trkpt>
      <trkpt lat="41.0182840" lon="-2.2548970">
        <ele>1241.2</ele>
        <time>2020-09-12T08:04:34Z</time>
      </trkpt>
      <trkpt lat="41.0182540" lon="-2.2549620">
        <ele>1241.4</ele>
        <time>2020-09-12T08:04:35Z</time>
      </trkpt>
      <trkpt lat="41.0182220" lon="-2.2550250">
        <ele>1241.8</ele>
        <time>2020-09-12T08:04:36Z</time>
      </trkpt>
      <trkpt lat="41.0181890" lon="-2.2550870">
        <ele>1242.2</ele>
        <time>2020-09-12T08:04:37Z</time>
      </trkpt>
      <trkpt lat="41.0181560" lon="-2.2551500">
        <ele>1242.4</ele>
        <time>2020-09-12T08:04:38Z</time>
      </trkpt>
      <trkpt lat="41.0181220" lon="-2.2552120">
        <ele>1242.6</ele>
        <time>2020-09-12T08:04:39Z</time>
      </trkpt>
      <trkpt lat="41.0180870" lon="-2.2552740">
        <ele>1242.8</ele>
        <time>2020-09-12T08:04:40Z</time>
      </trkpt>
      <trkpt lat="41.0180520" lon="-2.2553340">
        <ele>1243.2</ele>
        <time>2020-09-12T08:04:41Z</time>
      </trkpt>
      <trkpt lat="41.0180160" lon="-2.2553960">
        <ele>1243.2</ele>
        <time>2020-09-12T08:04:42Z</time>
      </trkpt>
      <trkpt lat="41.0179790" lon="-2.2554590">
        <ele>1243.4</ele>
        <time>2020-09-12T08:04:43Z</time>
      </trkpt>
      <trkpt lat="41.0179400" lon="-2.2555230">
        <ele>1243.6</ele>
        <time>2020-09-12T08:04:44Z</time>
      </trkpt>
      <trkpt lat="41.0179000" lon="-2.2555890">
        <ele>1243.6</ele>
        <time>2020-09-12T08:04:45Z</time>
      </trkpt>
      <trkpt lat="41.0178620" lon="-2.2556570">
        <ele>1243.6</ele>
        <time>2020-09-12T08:04:46Z</time>
      </trkpt>
      <trkpt lat="41.0178240" lon="-2.2557270">
        <ele>1243.8</ele>
        <time>2020-09-12T08:04:47Z</time>
      </trkpt>
      <trkpt lat="41.0177850" lon="-2.2557980">
        <ele>1243.8</ele>
        <time>2020-09-12T08:04:48Z</time>
      </trkpt>
      <trkpt lat="41.0177440" lon="-2.2558700">
        <ele>1243.8</ele>
        <time>2020-09-12T08:04:49Z</time>
      </trkpt>
      <trkpt lat="41.0177040" lon="-2.2559440">
        <ele>1243.8</ele>
        <time>2020-09-12T08:04:50Z</time>
      </trkpt>
      <trkpt lat="41.0176650" lon="-2.2560200">
        <ele>1243.8</ele>
        <time>2020-09-12T08:04:51Z</time>
      </trkpt>
      <trkpt lat="41.0176290" lon="-2.2561000">
        <ele>1243.8</ele>
        <time>2020-09-12T08:04:52Z</time>
      </trkpt>
      <trkpt lat="41.0175970" lon="-2.2561830">
        <ele>1243.8</ele>
        <time>2020-09-12T08:04:53Z</time>
      </trkpt>
      <trkpt lat="41.0175680" lon="-2.2562710">
        <ele>1243.8</ele>
        <time>2020-09-12T08:04:54Z</time>
      </trkpt>
      <trkpt lat="41.0175440" lon="-2.2563610">
        <ele>1243.8</ele>
        <time>2020-09-12T08:04:55Z</time>
      </trkpt>
      <trkpt lat="41.0175270" lon="-2.2564540">
        <ele>1243.8</ele>
        <time>2020-09-12T08:04:56Z</time>
      </trkpt>
      <trkpt lat="41.0175190" lon="-2.2565490">
        <ele>1243.8</ele>
        <time>2020-09-12T08:04:57Z</time>
      </trkpt>
      <trkpt lat="41.0175210" lon="-2.2566430">
        <ele>1243.8</ele>
        <time>2020-09-12T08:04:58Z</time>
      </trkpt>
      <trkpt lat="41.0175290" lon="-2.2567350">
        <ele>1244.0</ele>
        <time>2020-09-12T08:04:59Z</time>
      </trkpt>
      <trkpt lat="41.0175370" lon="-2.2568220">
        <ele>1244.2</ele>
        <time>2020-09-12T08:05:00Z</time>
      </trkpt>
      <trkpt lat="41.0175440" lon="-2.2569050">
        <ele>1244.4</ele>
        <time>2020-09-12T08:05:01Z</time>
      </trkpt>
      <trkpt lat="41.0175510" lon="-2.2569840">
        <ele>1244.4</ele>
        <time>2020-09-12T08:05:02Z</time>
      </trkpt>
      <trkpt lat="41.0175590" lon="-2.2570600">
        <ele>1244.6</ele>
        <time>2020-09-12T08:05:03Z</time>
      </trkpt>
      <trkpt lat="41.0175640" lon="-2.2571320">
        <ele>1244.8</ele>
        <time>2020-09-12T08:05:04Z</time>
      </trkpt>
      <trkpt lat="41.0175660" lon="-2.2572020">
        <ele>1245.2</ele>
        <time>2020-09-12T08:05:05Z</time>
      </trkpt>
      <trkpt lat="41.0175660" lon="-2.2572700">
        <ele>1245.4</ele>
        <time>2020-09-12T08:05:06Z</time>
      </trkpt>
      <trkpt lat="41.0175650" lon="-2.2573350">
        <ele>1245.6</ele>
        <time>2020-09-12T08:05:07Z</time>
      </trkpt>
      <trkpt lat="41.0175590" lon="-2.2574000">
        <ele>1245.8</ele>
        <time>2020-09-12T08:05:08Z</time>
      </trkpt>
      <trkpt lat="41.0175500" lon="-2.2574660">
        <ele>1246.0</ele>
        <time>2020-09-12T08:05:09Z</time>
      </trkpt>
      <trkpt lat="41.0175380" lon="-2.2575360">
        <ele>1246.0</ele>
        <time>2020-09-12T08:05:10Z</time>
      </trkpt>
      <trkpt lat="41.0175240" lon="-2.2576120">
        <ele>1246.2</ele>
        <time>2020-09-12T08:05:11Z</time>
      </trkpt>
      <trkpt lat="41.0175090" lon="-2.2576950">
        <ele>1246.2</ele>
        <time>2020-09-12T08:05:12Z</time>
      </trkpt>
      <trkpt lat="41.0174920" lon="-2.2577830">
        <ele>1246.0</ele>
        <time>2020-09-12T08:05:13Z</time>
      </trkpt>
      <trkpt lat="41.0174760" lon="-2.2578770">
        <ele>1246.0</ele>
        <time>2020-09-12T08:05:14Z</time>
      </trkpt>
      <trkpt lat="41.0174610" lon="-2.2579790">
        <ele>1245.6</ele>
        <time>2020-09-12T08:05:15Z</time>
      </trkpt>
      <trkpt lat="41.0174490" lon="-2.2580880">
        <ele>1245.4</ele>
        <time>2020-09-12T08:05:16Z</time>
      </trkpt>
      <trkpt lat="41.0174400" lon="-2.2582050">
        <ele>1245.2</ele>
        <time>2020-09-12T08:05:17Z</time>
      </trkpt>
      <trkpt lat="41.0174340" lon="-2.2583300">
        <ele>1245.0</ele>
        <time>2020-09-12T08:05:18Z</time>
      </trkpt>
      <trkpt lat="41.0174320" lon="-2.2584630">
        <ele>1244.6</ele>
        <time>2020-09-12T08:05:19Z</time>
      </trkpt>
      <trkpt lat="41.0174300" lon="-2.2586020">
        <ele>1244.0</ele>
        <time>2020-09-12T08:05:20Z</time>
      </trkpt>
      <trkpt lat="41.0174260" lon="-2.2587510">
        <ele>1243.4</ele>
        <time>2020-09-12T08:05:21Z</time>
      </trkpt>
      <trkpt lat="41.0174200" lon="-2.2589070">
        <ele>1242.8</ele>
        <time>2020-09-12T08:05:22Z</time>
      </trkpt>
      <trkpt lat="41.0174110" lon="-2.2590710">
        <ele>1242.2</ele>
        <time>2020-09-12T08:05:23Z</time>
      </trkpt>
      <trkpt lat="41.0173970" lon="-2.2592410">
        <ele>1241.2</ele>
        <time>2020-09-12T08:05:24Z</time>
      </trkpt>
      <trkpt lat="41.0173800" lon="-2.2594160">
        <ele>1240.0</ele>
        <time>2020-09-12T08:05:25Z</time>
      </trkpt>
      <trkpt lat="41.0173620" lon="-2.2595950">
        <ele>1239.0</ele>
        <time>2020-09-12T08:05:26Z</time>
      </trkpt>
      <trkpt lat="41.0173470" lon="-2.2597780">
        <ele>1238.0</ele>
        <time>2020-09-12T08:05:27Z</time>
      </trkpt>
      <trkpt lat="41.0173400" lon="-2.2599640">
        <ele>1237.0</ele>
        <time>2020-09-12T08:05:28Z</time>
      </trkpt>
      <trkpt lat="41.0173460" lon="-2.2601550">
        <ele>1235.6</ele>
        <time>2020-09-12T08:05:29Z</time>
      </trkpt>
      <trkpt lat="41.0173660" lon="-2.2603450">
        <ele>1234.4</ele>
        <time>2020-09-12T08:05:30Z</time>
      </trkpt>
      <trkpt lat="41.0173960" lon="-2.2605320">
        <ele>1233.2</ele>
        <time>2020-09-12T08:05:31Z</time>
      </trkpt>
      <trkpt lat="41.0174320" lon="-2.2607180">
        <ele>1232.0</ele>
        <time>2020-09-12T08:05:32Z</time>
      </trkpt>
      <trkpt lat="41.0174750" lon="-2.2609010">
        <ele>1231.0</ele>
        <time>2020-09-12T08:05:33Z</time>
      </trkpt>
      <trkpt lat="41.0175240" lon="-2.2610780">
        <ele>1230.2</ele>
        <time>2020-09-12T08:05:34Z</time>
      </trkpt>
      <trkpt lat="41.0175790" lon="-2.2612450">
        <ele>1229.6</ele>
        <time>2020-09-12T08:05:35Z</time>
      </trkpt>
      <trkpt lat="41.0176430" lon="-2.2613990">
        <ele>1229.0</ele>
        <time>2020-09-12T08:05:36Z</time>
      </trkpt>
      <trkpt lat="41.0177190" lon="-2.2615400">
        <ele>1228.0</ele>
        <time>2020-09-12T08:05:37Z</time>
      </trkpt>
      <trkpt lat="41.0178110" lon="-2.2616640">
        <ele>1226.8</ele>
        <time>2020-09-12T08:05:38Z</time>
      </trkpt>
      <trkpt lat="41.0179160" lon="-2.2617650">
        <ele>1226.2</ele>
        <time>2020-09-12T08:05:39Z</time>
      </trkpt>
      <trkpt lat="41.0180300" lon="-2.2618430">
        <ele>1225.8</ele>
        <time>2020-09-12T08:05:40Z</time>
      </trkpt>
      <trkpt lat="41.0181490" lon="-2.2619060">
        <ele>1225.4</ele>
        <time>2020-09-12T08:05:41Z</time>
      </trkpt>
      <trkpt lat="41.0182670" lon="-2.2619640">
        <ele>1225.0</ele>
        <time>2020-09-12T08:05:42Z</time>
      </trkpt>
      <trkpt lat="41.0183860" lon="-2.2620200">
        <ele>1224.8</ele>
        <time>2020-09-12T08:05:43Z</time>
      </trkpt>
      <trkpt lat="41.0185050" lon="-2.2620730">
        <ele>1224.6</ele>
        <time>2020-09-12T08:05:44Z</time>
      </trkpt>
      <trkpt lat="41.0186230" lon="-2.2621240">
        <ele>1224.4</ele>
        <time>2020-09-12T08:05:45Z</time>
      </trkpt>
      <trkpt lat="41.0187410" lon="-2.2621720">
        <ele>1224.2</ele>
        <time>2020-09-12T08:05:46Z</time>
      </trkpt>
      <trkpt lat="41.0188600" lon="-2.2622160">
        <ele>1224.0</ele>
        <time>2020-09-12T08:05:47Z</time>
      </trkpt>
      <trkpt lat="41.0189770" lon="-2.2622560">
        <ele>1223.4</ele>
        <time>2020-09-12T08:05:48Z</time>
      </trkpt>
      <trkpt lat="41.0190930" lon="-2.2622960">
        <ele>1222.8</ele>
        <time>2020-09-12T08:05:49Z</time>
      </trkpt>
      <trkpt lat="41.0192060" lon="-2.2623360">
        <ele>1222.4</ele>
        <time>2020-09-12T08:05:50Z</time>
      </trkpt>
      <trkpt lat="41.0193170" lon="-2.2623800">
        <ele>1222.0</ele>
        <time>2020-09-12T08:05:51Z</time>
      </trkpt>
      <trkpt lat="41.0194250" lon="-2.2624310">
        <ele>1221.4</ele>
        <time>2020-09-12T08:05:52Z</time>
      </trkpt>
      <trkpt lat="41.0195290" lon="-2.2624900">
        <ele>1221.0</ele>
        <time>2020-09-12T08:05:53Z</time>
      </trkpt>
      <trkpt lat="41.0196300" lon="-2.2625550">
        <ele>1220.6</ele>
        <time>2020-09-12T08:05:54Z</time>
      </trkpt>
      <trkpt lat="41.0197320" lon="-2.2626200">
        <ele>1220.4</ele>
        <time>2020-09-12T08:05:55Z</time>
      </trkpt>
      <trkpt lat="41.0198340" lon="-2.2626860">
        <ele>1220.2</ele>
        <time>2020-09-12T08:05:56Z</time>
      </trkpt>
      <trkpt lat="41.0199340" lon="-2.2627530">
        <ele>1220.0</ele>
        <time>2020-09-12T08:05:57Z</time>
      </trkpt>
      <trkpt lat="41.0200350" lon="-2.2628220">
        <ele>1219.6</ele>
        <time>2020-09-12T08:05:58Z</time>
      </trkpt>
      <trkpt lat="41.0201340" lon="-2.2628980">
        <ele>1219.2</ele>
        <time>2020-09-12T08:05:59Z</time>
      </trkpt>
      <trkpt lat="41.0202310" lon="-2.2629810">
        <ele>1218.6</ele>
        <time>2020-09-12T08:06:00Z</time>
      </trkpt>
      <trkpt lat="41.0203260" lon="-2.2630700">
        <ele>1218.2</ele>
        <time>2020-09-12T08:06:01Z</time>
      </trkpt>
      <trkpt lat="41.0204180" lon="-2.2631650">
        <ele>1218.0</ele>
        <time>2020-09-12T08:06:02Z</time>
      </trkpt>
      <trkpt lat="41.0205090" lon="-2.2632630">
        <ele>1217.6</ele>
        <time>2020-09-12T08:06:03Z</time>
      </trkpt>
      <trkpt lat="41.0205990" lon="-2.2633600">
        <ele>1217.6</ele>
        <time>2020-09-12T08:06:04Z</time>
      </trkpt>
      <trkpt lat="41.0206880" lon="-2.2634570">
        <ele>1217.4</ele>
        <time>2020-09-12T08:06:05Z</time>
      </trkpt>
      <trkpt lat="41.0207770" lon="-2.2635550">
        <ele>1217.2</ele>
        <time>2020-09-12T08:06:06Z</time>
      </trkpt>
      <trkpt lat="41.0208630" lon="-2.2636550">
        <ele>1216.8</ele>
        <time>2020-09-12T08:06:07Z</time>
      </trkpt>
      <trkpt lat="41.0209460" lon="-2.2637610">
        <ele>1216.2</ele>
        <time>2020-09-12T08:06:08Z</time>
      </trkpt>
      <trkpt lat="41.0210200" lon="-2.2638730">
        <ele>1215.6</ele>
        <time>2020-09-12T08:06:09Z</time>
      </trkpt>
      <trkpt lat="41.0210880" lon="-2.2639920">
        <ele>1215.0</ele>
        <time>2020-09-12T08:06:10Z</time>
      </trkpt>
      <trkpt lat="41.0211520" lon="-2.2641150">
        <ele>1214.4</ele>
        <time>2020-09-12T08:06:11Z</time>
      </trkpt>
      <trkpt lat="41.0212170" lon="-2.2642420">
        <ele>1214.0</ele>
        <time>2020-09-12T08:06:12Z</time>
      </trkpt>
      <trkpt lat="41.0212820" lon="-2.2643710">
        <ele>1213.6</ele>
        <time>2020-09-12T08:06:13Z</time>
      </trkpt>
      <trkpt lat="41.0213460" lon="-2.2645010">
        <ele>1213.2</ele>
        <time>2020-09-12T08:06:14Z</time>
      </trkpt>
      <trkpt lat="41.0214080" lon="-2.2646320">
        <ele>1212.8</ele>
        <time>2020-09-12T08:06:15Z</time>
      </trkpt>
      <trkpt lat="41.0214690" lon="-2.2647650">
        <ele>1212.4</ele>
        <time>2020-09-12T08:06:16Z</time>
      </trkpt>
      <trkpt lat="41.0215300" lon="-2.2648980">
        <ele>1211.8</ele>
        <time>2020-09-12T08:06:17Z</time>
      </trkpt>
      <trkpt lat="41.0215930" lon="-2.2650290">
        <ele>1211.4</ele>
        <time>2020-09-12T08:06:18Z</time>
      </trkpt>
      <trkpt lat="41.0216580" lon="-2.2651590">
        <ele>1211.0</ele>
        <time>2020-09-12T08:06:19Z</time>
      </trkpt>
      <trkpt lat="41.0217230" lon="-2.2652900">
        <ele>1210.6</ele>
        <time>2020-09-12T08:06:20Z</time>
      </trkpt>
      <trkpt lat="41.0217860" lon="-2.2654240">
        <ele>1210.2</ele>
        <time>2020-09-12T08:06:21Z</time>
      </trkpt>
      <trkpt lat="41.0218510" lon="-2.2655560">
        <ele>1210.0</ele>
        <time>2020-09-12T08:06:22Z</time>
      </trkpt>
      <trkpt lat="41.0219170" lon="-2.2656870">
        <ele>1209.8</ele>
        <time>2020-09-12T08:06:23Z</time>
      </trkpt>
      <trkpt lat="41.0219840" lon="-2.2658180">
        <ele>1209.6</ele>
        <time>2020-09-12T08:06:24Z</time>
      </trkpt>
      <trkpt lat="41.0220490" lon="-2.2659500">
        <ele>1209.2</ele>
        <time>2020-09-12T08:06:25Z</time>
      </trkpt>
      <trkpt lat="41.0221140" lon="-2.2660830">
        <ele>1209.0</ele>
        <time>2020-09-12T08:06:26Z</time>
      </trkpt>
      <trkpt lat="41.0221770" lon="-2.2662150">
        <ele>1208.8</ele>
        <time>2020-09-12T08:06:27Z</time>
      </trkpt>
      <trkpt lat="41.0222400" lon="-2.2663460">
        <ele>1208.6</ele>
        <time>2020-09-12T08:06:28Z</time>
      </trkpt>
      <trkpt lat="41.0223020" lon="-2.2664770">
        <ele>1208.4</ele>
        <time>2020-09-12T08:06:29Z</time>
      </trkpt>
      <trkpt lat="41.0223600" lon="-2.2666090">
        <ele>1208.0</ele>
        <time>2020-09-12T08:06:30Z</time>
      </trkpt>
      <trkpt lat="41.0224140" lon="-2.2667430">
        <ele>1207.8</ele>
        <time>2020-09-12T08:06:31Z</time>
      </trkpt>
      <trkpt lat="41.0224650" lon="-2.2668800">
        <ele>1207.4</ele>
        <time>2020-09-12T08:06:32Z</time>
      </trkpt>
      <trkpt lat="41.0225120" lon="-2.2670180">
        <ele>1206.8</ele>
        <time>2020-09-12T08:06:33Z</time>
      </trkpt>
      <trkpt lat="41.0225550" lon="-2.2671560">
        <ele>1206.4</ele>
        <time>2020-09-12T08:06:34Z</time>
      </trkpt>
      <trkpt lat="41.0225940" lon="-2.2672940">
        <ele>1206.0</ele>
        <time>2020-09-12T08:06:35Z</time>
      </trkpt>
      <trkpt lat="41.0226330" lon="-2.2674320">
        <ele>1205.6</ele>
        <time>2020-09-12T08:06:36Z</time>
      </trkpt>
      <trkpt lat="41.0226710" lon="-2.2675690">
        <ele>1205.2</ele>
        <time>2020-09-12T08:06:37Z</time>
      </trkpt>
      <trkpt lat="41.0227080" lon="-2.2677050">
        <ele>1205.0</ele>
        <time>2020-09-12T08:06:38Z</time>
      </trkpt>
      <trkpt lat="41.0227530" lon="-2.2678350">
        <ele>1204.8</ele>
        <time>2020-09-12T08:06:39Z</time>
      </trkpt>
      <trkpt lat="41.0228090" lon="-2.2679550">
        <ele>1204.6</ele>
        <time>2020-09-12T08:06:40Z</time>
      </trkpt>
      <trkpt lat="41.0228740" lon="-2.2680650">
        <ele>1204.4</ele>
        <time>2020-09-12T08:06:41Z</time>
      </trkpt>
      <trkpt lat="41.0229440" lon="-2.2681690">
        <ele>1204.0</ele>
        <time>2020-09-12T08:06:42Z</time>
      </trkpt>
      <trkpt lat="41.0230160" lon="-2.2682710">
        <ele>1203.6</ele>
        <time>2020-09-12T08:06:43Z</time>
      </trkpt>
      <trkpt lat="41.0230880" lon="-2.2683740">
        <ele>1203.2</ele>
        <time>2020-09-12T08:06:44Z</time>
      </trkpt>
      <trkpt lat="41.0231600" lon="-2.2684770">
        <ele>1203.0</ele>
        <time>2020-09-12T08:06:45Z</time>
      </trkpt>
      <trkpt lat="41.0232320" lon="-2.2685800">
        <ele>1202.6</ele>
        <time>2020-09-12T08:06:46Z</time>
      </trkpt>
      <trkpt lat="41.0233050" lon="-2.2686840">
        <ele>1202.4</ele>
        <time>2020-09-12T08:06:47Z</time>
      </trkpt>
      <trkpt lat="41.0233760" lon="-2.2687900">
        <ele>1201.8</ele>
        <time>2020-09-12T08:06:48Z</time>
      </trkpt>
      <trkpt lat="41.0234470" lon="-2.2688970">
        <ele>1201.4</ele>
        <time>2020-09-12T08:06:49Z</time>
      </trkpt>
      <trkpt lat="41.0235200" lon="-2.2690030">
        <ele>1201.2</ele>
        <time>2020-09-12T08:06:50Z</time>
      </trkpt>
      <trkpt lat="41.0235940" lon="-2.2691090">
        <ele>1201.2</ele>
        <time>2020-09-12T08:06:51Z</time>
      </trkpt>
      <trkpt lat="41.0236680" lon="-2.2692160">
        <ele>1201.0</ele>
        <time>2020-09-12T08:06:52Z</time>
      </trkpt>
      <trkpt lat="41.0237420" lon="-2.2693230">
        <ele>1200.8</ele>
        <time>2020-09-12T08:06:53Z</time>
      </trkpt>
      <trkpt lat="41.0238150" lon="-2.2694310">
        <ele>1200.6</ele>
        <time>2020-09-12T08:06:54Z</time>
      </trkpt>
      <trkpt lat="41.0238890" lon="-2.2695410">
        <ele>1200.2</ele>
        <time>2020-09-12T08:06:55Z</time>
      </trkpt>
      <trkpt lat="41.0239610" lon="-2.2696520">
        <ele>1200.0</ele>
        <time>2020-09-12T08:06:56Z</time>
      </trkpt>
      <trkpt lat="41.0240310" lon="-2.2697680">
        <ele>1199.8</ele>
        <time>2020-09-12T08:06:57Z</time>
      </trkpt>
      <trkpt lat="41.0240940" lon="-2.2698900">
        <ele>1199.8</ele>
        <time>2020-09-12T08:06:58Z</time>
      </trkpt>
      <trkpt lat="41.0241480" lon="-2.2700200">
        <ele>1199.4</ele>
        <time>2020-09-12T08:06:59Z</time>
      </trkpt>
      <trkpt lat="41.0241920" lon="-2.2701560">
        <ele>1199.4</ele>
        <time>2020-09-12T08:07:00Z</time>
      </trkpt>
      <trkpt lat="41.0242230" lon="-2.2702970">
        <ele>1199.2</ele>
        <time>2020-09-12T08:07:01Z</time>
      </trkpt>
      <trkpt lat="41.0242420" lon="-2.2704400">
        <ele>1199.0</ele>
        <time>2020-09-12T08:07:02Z</time>
      </trkpt>
      <trkpt lat="41.0242540" lon="-2.2705840">
        <ele>1198.8</ele>
        <time>2020-09-12T08:07:03Z</time>
      </trkpt>
      <trkpt lat="41.0242640" lon="-2.2707290">
        <ele>1198.4</ele>
        <time>2020-09-12T08:07:04Z</time>
      </trkpt>
      <trkpt lat="41.0242800" lon="-2.2708710">
        <ele>1197.8</ele>
        <time>2020-09-12T08:07:05Z</time>
      </trkpt>
      <trkpt lat="41.0243080" lon="-2.2710110">
        <ele>1197.2</ele>
        <time>2020-09-12T08:07:06Z</time>
      </trkpt>
      <trkpt lat="41.0243480" lon="-2.2711480">
        <ele>1196.6</ele>
        <time>2020-09-12T08:07:07Z</time>
      </trkpt>
      <trkpt lat="41.0243950" lon="-2.2712820">
        <ele>1195.8</ele>
        <time>2020-09-12T08:07:08Z</time>
      </trkpt>
      <trkpt lat="41.0244530" lon="-2.2714120">
        <ele>1195.4</ele>
        <time>2020-09-12T08:07:09Z</time>
      </trkpt>
      <trkpt lat="41.0245170" lon="-2.2715360">
        <ele>1195.0</ele>
        <time>2020-09-12T08:07:10Z</time>
      </trkpt>
      <trkpt lat="41.0245870" lon="-2.2716570">
        <ele>1194.8</ele>
        <time>2020-09-12T08:07:11Z</time>
      </trkpt>
      <trkpt lat="41.0246570" lon="-2.2717750">
        <ele>1194.6</ele>
        <time>2020-09-12T08:07:12Z</time>
      </trkpt>
      <trkpt lat="41.0247280" lon="-2.2718900">
        <ele>1194.2</ele>
        <time>2020-09-12T08:07:13Z</time>
      </trkpt>
      <trkpt lat="41.0248000" lon="-2.2720080">
        <ele>1194.0</ele>
        <time>2020-09-12T08:07:14Z</time>
      </trkpt>
      <trkpt lat="41.0248660" lon="-2.2721310">
        <ele>1193.8</ele>
        <time>2020-09-12T08:07:15Z</time>
      </trkpt>
      <trkpt lat="41.0249150" lon="-2.2722650">
        <ele>1193.4</ele>
        <time>2020-09-12T08:07:16Z</time>
      </trkpt>
      <trkpt lat="41.0249420" lon="-2.2724070">
        <ele>1193.4</ele>
        <time>2020-09-12T08:07:17Z</time>
      </trkpt>
      <trkpt lat="41.0249560" lon="-2.2725510">
        <ele>1193.2</ele>
        <time>2020-09-12T08:07:18Z</time>
      </trkpt>
      <trkpt lat="41.0249620" lon="-2.2726940">
        <ele>1193.2</ele>
        <time>2020-09-12T08:07:19Z</time>
      </trkpt>
      <trkpt lat="41.0249670" lon="-2.2728340">
        <ele>1193.0</ele>
        <time>2020-09-12T08:07:20Z</time>
      </trkpt>
      <trkpt lat="41.0249740" lon="-2.2729710">
        <ele>1193.0</ele>
        <time>2020-09-12T08:07:21Z</time>
      </trkpt>
      <trkpt lat="41.0249830" lon="-2.2731040">
        <ele>1192.8</ele>
        <time>2020-09-12T08:07:22Z</time>
      </trkpt>
      <trkpt lat="41.0249920" lon="-2.2732330">
        <ele>1192.8</ele>
        <time>2020-09-12T08:07:23Z</time>
      </trkpt>
      <trkpt lat="41.0250010" lon="-2.2733590">
        <ele>1192.6</ele>
        <time>2020-09-12T08:07:24Z</time>
      </trkpt>
      <trkpt lat="41.0250120" lon="-2.2734810">
        <ele>1192.8</ele>
        <time>2020-09-12T08:07:25Z</time>
      </trkpt>
      <trkpt lat="41.0250230" lon="-2.2736020">
        <ele>1192.8</ele>
        <time>2020-09-12T08:07:26Z</time>
      </trkpt>
      <trkpt lat="41.0250350" lon="-2.2737210">
        <ele>1192.8</ele>
        <time>2020-09-12T08:07:27Z</time>
      </trkpt>
      <trkpt lat="41.0250480" lon="-2.2738420">
        <ele>1192.8</ele>
        <time>2020-09-12T08:07:28Z</time>
      </trkpt>
      <trkpt lat="41.0250630" lon="-2.2739610">
        <ele>1192.8</ele>
        <time>2020-09-12T08:07:29Z</time>
      </trkpt>
      <trkpt lat="41.0250810" lon="-2.2740800">
        <ele>1192.8</ele>
        <time>2020-09-12T08:07:30Z</time>
      </trkpt>
      <trkpt lat="41.0251030" lon="-2.2741970">
        <ele>1192.8</ele>
        <time>2020-09-12T08:07:31Z</time>
      </trkpt>
      <trkpt lat="41.0251280" lon="-2.2743140">
        <ele>1192.6</ele>
        <time>2020-09-12T08:07:32Z</time>
      </trkpt>
      <trkpt lat="41.0251560" lon="-2.2744300">
        <ele>1192.4</ele>
        <time>2020-09-12T08:07:33Z</time>
      </trkpt>
      <trkpt lat="41.0251840" lon="-2.2745430">
        <ele>1192.4</ele>
        <time>2020-09-12T08:07:34Z</time>
      </trkpt>
      <trkpt lat="41.0252150" lon="-2.2746540">
        <ele>1192.2</ele>
        <time>2020-09-12T08:07:35Z</time>
      </trkpt>
      <trkpt lat="41.0252510" lon="-2.2747620">
        <ele>1192.0</ele>
        <time>2020-09-12T08:07:36Z</time>
      </trkpt>
      <trkpt lat="41.0252910" lon="-2.2748680">
        <ele>1192.0</ele>
        <time>2020-09-12T08:07:37Z</time>
      </trkpt>
      <trkpt lat="41.0253350" lon="-2.2749700">
        <ele>1192.0</ele>
        <time>2020-09-12T08:07:38Z</time>
      </trkpt>
      <trkpt lat="41.0253850" lon="-2.2750690">
        <ele>1192.0</ele>
        <time>2020-09-12T08:07:39Z</time>
      </trkpt>
      <trkpt lat="41.0254400" lon="-2.2751640">
        <ele>1192.0</ele>
        <time>2020-09-12T08:07:40Z</time>
      </trkpt>
      <trkpt lat="41.0255000" lon="-2.2752570">
        <ele>1191.8</ele>
        <time>2020-09-12T08:07:41Z</time>
      </trkpt>
      <trkpt lat="41.0255650" lon="-2.2753460">
        <ele>1191.8</ele>
        <time>2020-09-12T08:07:42Z</time>
      </trkpt>
      <trkpt lat="41.0256340" lon="-2.2754300">
        <ele>1191.6</ele>
        <time>2020-09-12T08:07:43Z</time>
      </trkpt>
      <trkpt lat="41.0257080" lon="-2.2755090">
        <ele>1191.4</ele>
        <time>2020-09-12T08:07:44Z</time>
      </trkpt>
      <trkpt lat="41.0257860" lon="-2.2755800">
        <ele>1191.2</ele>
        <time>2020-09-12T08:07:45Z</time>
      </trkpt>
      <trkpt lat="41.0258690" lon="-2.2756410">
        <ele>1191.0</ele>
        <time>2020-09-12T08:07:46Z</time>
      </trkpt>
      <trkpt lat="41.0259550" lon="-2.2756940">
        <ele>1190.6</ele>
        <time>2020-09-12T08:07:47Z</time>
      </trkpt>
      <trkpt lat="41.0260410" lon="-2.2757440">
        <ele>1190.4</ele>
        <time>2020-09-12T08:07:48Z</time>
      </trkpt>
      <trkpt lat="41.0261280" lon="-2.2757880">
        <ele>1190.0</ele>
        <time>2020-09-12T08:07:49Z</time>
      </trkpt>
      <trkpt lat="41.0262130" lon="-2.2758310">
        <ele>1189.8</ele>
        <time>2020-09-12T08:07:50Z</time>
      </trkpt>
      <trkpt lat="41.0262970" lon="-2.2758720">
        <ele>1189.4</ele>
        <time>2020-09-12T08:07:51Z</time>
      </trkpt>
      <trkpt lat="41.0263800" lon="-2.2759110">
        <ele>1189.2</ele>
        <time>2020-09-12T08:07:52Z</time>
      </trkpt>
      <trkpt lat="41.0264630" lon="-2.2759460">
        <ele>1189.0</ele>
        <time>2020-09-12T08:07:53Z</time>
      </trkpt>
      <trkpt lat="41.0265450" lon="-2.2759760">
        <ele>1188.8</ele>
        <time>2020-09-12T08:07:54Z</time>
      </trkpt>
      <trkpt lat="41.0266250" lon="-2.2760040">
        <ele>1188.8</ele>
        <time>2020-09-12T08:07:55Z</time>
      </trkpt>
      <trkpt lat="41.0267010" lon="-2.2760320">
        <ele>1188.8</ele>
        <time>2020-09-12T08:07:56Z</time>
      </trkpt>
      <trkpt lat="41.0267780" lon="-2.2760610">
        <ele>1188.8</ele>
        <time>2020-09-12T08:07:57Z</time>
      </trkpt>
      <trkpt lat="41.0268490" lon="-2.2760920">
        <ele>1188.6</ele>
        <time>2020-09-12T08:07:58Z</time>
      </trkpt>
      <trkpt lat="41.0269190" lon="-2.2761180">
        <ele>1188.6</ele>
        <time>2020-09-12T08:07:59Z</time>
      </trkpt>
      <trkpt lat="41.0269900" lon="-2.2761340">
        <ele>1188.4</ele>
        <time>2020-09-12T08:08:00Z</time>
      </trkpt>
      <trkpt lat="41.0270640" lon="-2.2761320">
        <ele>1188.2</ele>
        <time>2020-09-12T08:08:01Z</time>
      </trkpt>
      <trkpt lat="41.0271340" lon="-2.2761150">
        <ele>1188.2</ele>
        <time>2020-09-12T08:08:02Z</time>
      </trkpt>
      <trkpt lat="41.0272030" lon="-2.2760910">
        <ele>1188.2</ele>
        <time>2020-09-12T08:08:03Z</time>
      </trkpt>
      <trkpt lat="41.0272730" lon="-2.2760690">
        <ele>1188.2</ele>
        <time>2020-09-12T08:08:04Z</time>
      </trkpt>
      <trkpt lat="41.0273440" lon="-2.2760600">
        <ele>1188.2</ele>
        <time>2020-09-12T08:08:05Z</time>
      </trkpt>
      <trkpt lat="41.0274150" lon="-2.2760610">
        <ele>1188.2</ele>
        <time>2020-09-12T08:08:06Z</time>
      </trkpt>
      <trkpt lat="41.0274870" lon="-2.2760670">
        <ele>1188.2</ele>
        <time>2020-09-12T08:08:07Z</time>
      </trkpt>
      <trkpt lat="41.0275580" lon="-2.2760730">
        <ele>1188.2</ele>
        <time>2020-09-12T08:08:08Z</time>
      </trkpt>
      <trkpt lat="41.0276270" lon="-2.2760840">
        <ele>1188.2</ele>
        <time>2020-09-12T08:08:09Z</time>
      </trkpt>
      <trkpt lat="41.0276960" lon="-2.2760980">
        <ele>1188.0</ele>
        <time>2020-09-12T08:08:10Z</time>
      </trkpt>
      <trkpt lat="41.0277640" lon="-2.2761120">
        <ele>1188.0</ele>
        <time>2020-09-12T08:08:11Z</time>
      </trkpt>
      <trkpt lat="41.0278330" lon="-2.2761250">
        <ele>1188.0</ele>
        <time>2020-09-12T08:08:12Z</time>
      </trkpt>
      <trkpt lat="41.0279030" lon="-2.2761330">
        <ele>1188.0</ele>
        <time>2020-09-12T08:08:13Z</time>
      </trkpt>
      <trkpt lat="41.0279720" lon="-2.2761330">
        <ele>1188.0</ele>
        <time>2020-09-12T08:08:14Z</time>
      </trkpt>
      <trkpt lat="41.0280390" lon="-2.2761300">
        <ele>1188.0</ele>
        <time>2020-09-12T08:08:15Z</time>
      </trkpt>
      <trkpt lat="41.0281020" lon="-2.2761230">
        <ele>1188.0</ele>
        <time>2020-09-12T08:08:16Z</time>
      </trkpt>
      <trkpt lat="41.0281590" lon="-2.2761160">
        <ele>1188.0</ele>
        <time>2020-09-12T08:08:17Z</time>
      </trkpt>
      <trkpt lat="41.0282130" lon="-2.2761070">
        <ele>1187.8</ele>
        <time>2020-09-12T08:08:18Z</time>
      </trkpt>
      <trkpt lat="41.0282660" lon="-2.2761010">
        <ele>1187.4</ele>
        <time>2020-09-12T08:08:19Z</time>
      </trkpt>
      <trkpt lat="41.0283160" lon="-2.2761110">
        <ele>1187.0</ele>
        <time>2020-09-12T08:08:20Z</time>
      </trkpt>
      <trkpt lat="41.0283650" lon="-2.2761460">
        <ele>1186.8</ele>
        <time>2020-09-12T08:08:21Z</time>
      </trkpt>
      <trkpt lat="41.0284040" lon="-2.2762040">
        <ele>1186.4</ele>
        <time>2020-09-12T08:08:22Z</time>
      </trkpt>
      <trkpt lat="41.0284300" lon="-2.2762770">
        <ele>1186.0</ele>
        <time>2020-09-12T08:08:23Z</time>
      </trkpt>
      <trkpt lat="41.0284420" lon="-2.2763610">
        <ele>1185.8</ele>
        <time>2020-09-12T08:08:24Z</time>
      </trkpt>
      <trkpt lat="41.0284430" lon="-2.2764480">
        <ele>1185.8</ele>
        <time>2020-09-12T08:08:25Z</time>
      </trkpt>
      <trkpt lat="41.0284350" lon="-2.2765380">
        <ele>1185.6</ele>
        <time>2020-09-12T08:08:26Z</time>
      </trkpt>
      <trkpt lat="41.0284210" lon="-2.2766290">
        <ele>1185.6</ele>
        <time>2020-09-12T08:08:27Z</time>
      </trkpt>
      <trkpt lat="41.0284060" lon="-2.2767200">
        <ele>1185.6</ele>
        <time>2020-09-12T08:08:28Z</time>
      </trkpt>
      <trkpt lat="41.0283920" lon="-2.2768120">
        <ele>1185.6</ele>
        <time>2020-09-12T08:08:29Z</time>
      </trkpt>
      <trkpt lat="41.0283800" lon="-2.2769060">
        <ele>1185.8</ele>
        <time>2020-09-12T08:08:30Z</time>
      </trkpt>
      <trkpt lat="41.0283670" lon="-2.2770010">
        <ele>1185.6</ele>
        <time>2020-09-12T08:08:31Z</time>
      </trkpt>
      <trkpt lat="41.0283470" lon="-2.2770960">
        <ele>1185.4</ele>
        <time>2020-09-12T08:08:32Z</time>
      </trkpt>
      <trkpt lat="41.0283190" lon="-2.2771890">
        <ele>1185.2</ele>
        <time>2020-09-12T08:08:33Z</time>
      </trkpt>
      <trkpt lat="41.0282850" lon="-2.2772790">
        <ele>1185.0</ele>
        <time>2020-09-12T08:08:34Z</time>
      </trkpt>
      <trkpt lat="41.0282450" lon="-2.2773650">
        <ele>1185.0</ele>
        <time>2020-09-12T08:08:35Z</time>
      </trkpt>
      <trkpt lat="41.0282020" lon="-2.2774490">
        <ele>1185.0</ele>
        <time>2020-09-12T08:08:36Z</time>
      </trkpt>
      <trkpt lat="41.0281560" lon="-2.2775290">
        <ele>1185.0</ele>
        <time>2020-09-12T08:08:37Z</time>
      </trkpt>
      <trkpt lat="41.0281090" lon="-2.2776050">
        <ele>1185.0</ele>
        <time>2020-09-12T08:08:38Z</time>
      </trkpt>
      <trkpt lat="41.0280610" lon="-2.2776780">
        <ele>1185.0</ele>
        <time>2020-09-12T08:08:39Z</time>
      </trkpt>
      <trkpt lat="41.0280140" lon="-2.2777490">
        <ele>1185.0</ele>
        <time>2020-09-12T08:08:40Z</time>
      </trkpt>
      <trkpt lat="41.0279680" lon="-2.2778160">
        <ele>1185.2</ele>
        <time>2020-09-12T08:08:41Z</time>
      </trkpt>
      <trkpt lat="41.0279230" lon="-2.2778850">
        <ele>1185.2</ele>
        <time>2020-09-12T08:08:42Z</time>
      </trkpt>
      <trkpt lat="41.0278810" lon="-2.2779560">
        <ele>1185.2</ele>
        <time>2020-09-12T08:08:43Z</time>
      </trkpt>
      <trkpt lat="41.0278380" lon="-2.2780310">
        <ele>1185.0</ele>
        <time>2020-09-12T08:08:44Z</time>
      </trkpt>
      <trkpt lat="41.0277950" lon="-2.2781030">
        <ele>1185.0</ele>
        <time>2020-09-12T08:08:45Z</time>
      </trkpt>
      <trkpt lat="41.0277520" lon="-2.2781690">
        <ele>1184.8</ele>
        <time>2020-09-12T08:08:46Z</time>
      </trkpt>
      <trkpt lat="41.0277070" lon="-2.2782290">
        <ele>1184.6</ele>
        <time>2020-09-12T08:08:47Z</time>
      </trkpt>
      <trkpt lat="41.0276620" lon="-2.2782840">
        <ele>1184.4</ele>
        <time>2020-09-12T08:08:48Z</time>
      </trkpt>
      <trkpt lat="41.0276240" lon="-2.2783410">
        <ele>1184.0</ele>
        <time>2020-09-12T08:08:49Z</time>
      </trkpt>
      <trkpt lat="41.0275990" lon="-2.2784030">
        <ele>1183.6</ele>
        <time>2020-09-12T08:08:50Z</time>
      </trkpt>
      <trkpt lat="41.0275920" lon="-2.2784720">
        <ele>1183.0</ele>
        <time>2020-09-12T08:08:51Z</time>
      </trkpt>
      <trkpt lat="41.0276040" lon="-2.2785440">
        <ele>1182.6</ele>
        <time>2020-09-12T08:08:52Z</time>
      </trkpt>
      <trkpt lat="41.0276240" lon="-2.2786170">
        <ele>1182.4</ele>
        <time>2020-09-12T08:08:53Z</time>
      </trkpt>
      <trkpt lat="41.0276450" lon="-2.2786900">
        <ele>1182.0</ele>
        <time>2020-09-12T08:08:54Z</time>
      </trkpt>
      <trkpt lat="41.0276620" lon="-2.2787640">
        <ele>1182.0</ele>
        <time>2020-09-12T08:08:55Z</time>
      </trkpt>
      <trkpt lat="41.0276730" lon="-2.2788410">
        <ele>1181.8</ele>
        <time>2020-09-12T08:08:56Z</time>
      </trkpt>
      <trkpt lat="41.0276740" lon="-2.2789210">
        <ele>1181.6</ele>
        <time>2020-09-12T08:08:57Z</time>
      </trkpt>
      <trkpt lat="41.0276610" lon="-2.2789990">
        <ele>1181.6</ele>
        <time>2020-09-12T08:08:58Z</time>
      </trkpt>
      <trkpt lat="41.0276360" lon="-2.2790720">
        <ele>1181.6</ele>
        <time>2020-09-12T08:08:59Z</time>
      </trkpt>
      <trkpt lat="41.0275990" lon="-2.2791390">
        <ele>1181.6</ele>
        <time>2020-09-12T08:09:00Z</time>
      </trkpt>
      <trkpt lat="41.0275580" lon="-2.2792020">
        <ele>1181.6</ele>
        <time>2020-09-12T08:09:01Z</time>
      </trkpt>
      <trkpt lat="41.0275160" lon="-2.2792630">
        <ele>1181.8</ele>
        <time>2020-09-12T08:09:02Z</time>
      </trkpt>
      <trkpt lat="41.0274750" lon="-2.2793240">
        <ele>1181.8</ele>
        <time>2020-09-12T08:09:03Z</time>
      </trkpt>
      <trkpt lat="41.0274350" lon="-2.2793870">
        <ele>1182.0</ele>
        <time>2020-09-12T08:09:04Z</time>
      </trkpt>
      <trkpt lat="41.0273960" lon="-2.2794500">
        <ele>1182.0</ele>
        <time>2020-09-12T08:09:05Z</time>
      </trkpt>
      <trkpt lat="41.0273590" lon="-2.2795140">
        <ele>1182.2</ele>
        <time>2020-09-12T08:09:06Z</time>
      </trkpt>
      <trkpt lat="41.0273240" lon="-2.2795780">
        <ele>1182.2</ele>
        <time>2020-09-12T08:09:07Z</time>
      </trkpt>
      <trkpt lat="41.0272920" lon="-2.2796450">
        <ele>1182.2</ele>
        <time>2020-09-12T08:09:08Z</time>
      </trkpt>
      <trkpt lat="41.0272620" lon="-2.2797130">
        <ele>1182.4</ele>
        <time>2020-09-12T08:09:09Z</time>
      </trkpt>
      <trkpt lat="41.0272340" lon="-2.2797830">
        <ele>1182.6</ele>
        <time>2020-09-12T08:09:10Z</time>
      </trkpt>
      <trkpt lat="41.0272080" lon="-2.2798580">
        <ele>1182.8</ele>
        <time>2020-09-12T08:09:11Z</time>
      </trkpt>
      <trkpt lat="41.0271810" lon="-2.2799380">
        <ele>1182.8</ele>
        <time>2020-09-12T08:09:12Z</time>
      </trkpt>
      <trkpt lat="41.0271570" lon="-2.2800240">
        <ele>1183.0</ele>
        <time>2020-09-12T08:09:13Z</time>
      </trkpt>
      <trkpt lat="41.0271350" lon="-2.2801150">
        <ele>1183.0</ele>
        <time>2020-09-12T08:09:14Z</time>
      </trkpt>
      <trkpt lat="41.0271150" lon="-2.2802090">
        <ele>1182.8</ele>
        <time>2020-09-12T08:09:15Z</time>
      </trkpt>
      <trkpt lat="41.0270970" lon="-2.2803060">
        <ele>1182.8</ele>
        <time>2020-09-12T08:09:16Z</time>
      </trkpt>
      <trkpt lat="41.0270850" lon="-2.2804030">
        <ele>1182.8</ele>
        <time>2020-09-12T08:09:17Z</time>
      </trkpt>
      <trkpt lat="41.0270740" lon="-2.2805010">
        <ele>1182.6</ele>
        <time>2020-09-12T08:09:18Z</time>
      </trkpt>
      <trkpt lat="41.0270690" lon="-2.2805990">
        <ele>1182.6</ele>
        <time>2020-09-12T08:09:19Z</time>
      </trkpt>
      <trkpt lat="41.0270670" lon="-2.2806980">
        <ele>1182.6</ele>
        <time>2020-09-12T08:09:20Z</time>
      </trkpt>
      <trkpt lat="41.0270680" lon="-2.2807970">
        <ele>1182.6</ele>
        <time>2020-09-12T08:09:21Z</time>
      </trkpt>
      <trkpt lat="41.0270690" lon="-2.2808970">
        <ele>1182.4</ele>
        <time>2020-09-12T08:09:22Z</time>
      </trkpt>
      <trkpt lat="41.0270710" lon="-2.2809960">
        <ele>1182.4</ele>
        <time>2020-09-12T08:09:23Z</time>
      </trkpt>
      <trkpt lat="41.0270740" lon="-2.2810970">
        <ele>1182.4</ele>
        <time>2020-09-12T08:09:24Z</time>
      </trkpt>
      <trkpt lat="41.0270750" lon="-2.2811980">
        <ele>1182.4</ele>
        <time>2020-09-12T08:09:25Z</time>
      </trkpt>
      <trkpt lat="41.0270770" lon="-2.2812970">
        <ele>1182.2</ele>
        <time>2020-09-12T08:09:26Z</time>
      </trkpt>
      <trkpt lat="41.0270810" lon="-2.2813960">
        <ele>1182.2</ele>
        <time>2020-09-12T08:09:27Z</time>
      </trkpt>
      <trkpt lat="41.0270850" lon="-2.2814940">
        <ele>1182.0</ele>
        <time>2020-09-12T08:09:28Z</time>
      </trkpt>
      <trkpt lat="41.0270890" lon="-2.2815920">
        <ele>1182.0</ele>
        <time>2020-09-12T08:09:29Z</time>
      </trkpt>
      <trkpt lat="41.0270920" lon="-2.2816900">
        <ele>1182.0</ele>
        <time>2020-09-12T08:09:30Z</time>
      </trkpt>
      <trkpt lat="41.0270960" lon="-2.2817880">
        <ele>1182.0</ele>
        <time>2020-09-12T08:09:31Z</time>
      </trkpt>
      <trkpt lat="41.0271000" lon="-2.2818860">
        <ele>1182.0</ele>
        <time>2020-09-12T08:09:32Z</time>
      </trkpt>
      <trkpt lat="41.0271050" lon="-2.2819850">
        <ele>1182.0</ele>
        <time>2020-09-12T08:09:33Z</time>
      </trkpt>
      <trkpt lat="41.0271090" lon="-2.2820850">
        <ele>1181.8</ele>
        <time>2020-09-12T08:09:34Z</time>
      </trkpt>
      <trkpt lat="41.0271140" lon="-2.2821880">
        <ele>1181.8</ele>
        <time>2020-09-12T08:09:35Z</time>
      </trkpt>
      <trkpt lat="41.0271190" lon="-2.2822910">
        <ele>1181.8</ele>
        <time>2020-09-12T08:09:36Z</time>
      </trkpt>
      <trkpt lat="41.0271240" lon="-2.2823960">
        <ele>1181.8</ele>
        <time>2020-09-12T08:09:37Z</time>
      </trkpt>
      <trkpt lat="41.0271310" lon="-2.2825000">
        <ele>1181.8</ele>
        <time>2020-09-12T08:09:38Z</time>
      </trkpt>
      <trkpt lat="41.0271400" lon="-2.2826060">
        <ele>1181.8</ele>
        <time>2020-09-12T08:09:39Z</time>
      </trkpt>
      <trkpt lat="41.0271490" lon="-2.2827110">
        <ele>1181.8</ele>
        <time>2020-09-12T08:09:40Z</time>
      </trkpt>
      <trkpt lat="41.0271600" lon="-2.2828180">
        <ele>1181.8</ele>
        <time>2020-09-12T08:09:41Z</time>
      </trkpt>
      <trkpt lat="41.0271740" lon="-2.2829260">
        <ele>1181.8</ele>
        <time>2020-09-12T08:09:42Z</time>
      </trkpt>
      <trkpt lat="41.0271900" lon="-2.2830350">
        <ele>1181.8</ele>
        <time>2020-09-12T08:09:43Z</time>
      </trkpt>
      <trkpt lat="41.0272050" lon="-2.2831450">
        <ele>1181.8</ele>
        <time>2020-09-12T08:09:44Z</time>
      </trkpt>
      <trkpt lat="41.0272200" lon="-2.2832560">
        <ele>1181.8</ele>
        <time>2020-09-12T08:09:45Z</time>
      </trkpt>
      <trkpt lat="41.0272360" lon="-2.2833680">
        <ele>1181.8</ele>
        <time>2020-09-12T08:09:46Z</time>
      </trkpt>
      <trkpt lat="41.0272530" lon="-2.2834790">
        <ele>1181.8</ele>
        <time>2020-09-12T08:09:47Z</time>
      </trkpt>
      <trkpt lat="41.0272710" lon="-2.2835900">
        <ele>1181.8</ele>
        <time>2020-09-12T08:09:48Z</time>
      </trkpt>
      <trkpt lat="41.0272880" lon="-2.2837010">
        <ele>1181.6</ele>
        <time>2020-09-12T08:09:49Z</time>
      </trkpt>
      <trkpt lat="41.0273070" lon="-2.2838120">
        <ele>1181.4</ele>
        <time>2020-09-12T08:09:50Z</time>
      </trkpt>
      <trkpt lat="41.0273260" lon="-2.2839220">
        <ele>1181.6</ele>
        <time>2020-09-12T08:09:51Z</time>
      </trkpt>
      <trkpt lat="41.0273460" lon="-2.2840310">
        <ele>1181.4</ele>
        <time>2020-09-12T08:09:52Z</time>
      </trkpt>
      <trkpt lat="41.0273650" lon="-2.2841410">
        <ele>1181.4</ele>
        <time>2020-09-12T08:09:53Z</time>
      </trkpt>
      <trkpt lat="41.0273850" lon="-2.2842500">
        <ele>1181.4</ele>
        <time>2020-09-12T08:09:54Z</time>
      </trkpt>
      <trkpt lat="41.0274040" lon="-2.2843590">
        <ele>1181.4</ele>
        <time>2020-09-12T08:09:55Z</time>
      </trkpt>
      <trkpt lat="41.0274230" lon="-2.2844670">
        <ele>1181.2</ele>
        <time>2020-09-12T08:09:56Z</time>
      </trkpt>
      <trkpt lat="41.0274430" lon="-2.2845760">
        <ele>1181.2</ele>
        <time>2020-09-12T08:09:57Z</time>
      </trkpt>
      <trkpt lat="41.0274630" lon="-2.2846850">
        <ele>1181.2</ele>
        <time>2020-09-12T08:09:58Z</time>
      </trkpt>
      <trkpt lat="41.0274830" lon="-2.2847940">
        <ele>1181.0</ele>
        <time>2020-09-12T08:09:59Z</time>
      </trkpt>
      <trkpt lat="41.0275030" lon="-2.2849040">
        <ele>1181.0</ele>
        <time>2020-09-12T08:10:00Z</time>
      </trkpt>
      <trkpt lat="41.0275230" lon="-2.2850140">
        <ele>1180.8</ele>
        <time>2020-09-12T08:10:01Z</time>
      </trkpt>
      <trkpt lat="41.0275420" lon="-2.2851240">
        <ele>1180.8</ele>
        <time>2020-09-12T08:10:02Z</time>
      </trkpt>
      <trkpt lat="41.0275610" lon="-2.2852360">
        <ele>1180.6</ele>
        <time>2020-09-12T08:10:03Z</time>
      </trkpt>
      <trkpt lat="41.0275790" lon="-2.2853480">
        <ele>1180.6</ele>
        <time>2020-09-12T08:10:04Z</time>
      </trkpt>
      <trkpt lat="41.0275960" lon="-2.2854610">
        <ele>1180.6</ele>
        <time>2020-09-12T08:10:05Z</time>
      </trkpt>
      <trkpt lat="41.0276130" lon="-2.2855750">
        <ele>1180.6</ele>
        <time>2020-09-12T08:10:06Z</time>
      </trkpt>
      <trkpt lat="41.0276290" lon="-2.2856890">
        <ele>1180.6</ele>
        <time>2020-09-12T08:10:07Z</time>
      </trkpt>
      <trkpt lat="41.0276450" lon="-2.2858030">
        <ele>1180.4</ele>
        <time>2020-09-12T08:10:08Z</time>
      </trkpt>
      <trkpt lat="41.0276620" lon="-2.2859180">
        <ele>1180.4</ele>
        <time>2020-09-12T08:10:09Z</time>
      </trkpt>
      <trkpt lat="41.0276770" lon="-2.2860350">
        <ele>1180.2</ele>
        <time>2020-09-12T08:10:10Z</time>
      </trkpt>
      <trkpt lat="41.0276890" lon="-2.2861520">
        <ele>1180.0</ele>
        <time>2020-09-12T08:10:11Z</time>
      </trkpt>
      <trkpt lat="41.0277010" lon="-2.2862710">
        <ele>1179.8</ele>
        <time>2020-09-12T08:10:12Z</time>
      </trkpt>
      <trkpt lat="41.0277100" lon="-2.2863920">
        <ele>1179.6</ele>
        <time>2020-09-12T08:10:13Z</time>
      </trkpt>
      <trkpt lat="41.0277180" lon="-2.2865130">
        <ele>1179.4</ele>
        <time>2020-09-12T08:10:14Z</time>
      </trkpt>
      <trkpt lat="41.0277240" lon="-2.2866350">
        <ele>1179.2</ele>
        <time>2020-09-12T08:10:15Z</time>
      </trkpt>
      <trkpt lat="41.0277300" lon="-2.2867590">
        <ele>1179.2</ele>
        <time>2020-09-12T08:10:16Z</time>
      </trkpt>
      <trkpt lat="41.0277360" lon="-2.2868820">
        <ele>1179.0</ele>
        <time>2020-09-12T08:10:17Z</time>
      </trkpt>
      <trkpt lat="41.0277400" lon="-2.2870050">
        <ele>1178.8</ele>
        <time>2020-09-12T08:10:18Z</time>
      </trkpt>
      <trkpt lat="41.0277450" lon="-2.2871270">
        <ele>1178.6</ele>
        <time>2020-09-12T08:10:19Z</time>
      </trkpt>
      <trkpt lat="41.0277480" lon="-2.2872480">
        <ele>1178.6</ele>
        <time>2020-09-12T08:10:20Z</time>
      </trkpt>
      <trkpt lat="41.0277520" lon="-2.2873690">
        <ele>1178.6</ele>
        <time>2020-09-12T08:10:21Z</time>
      </trkpt>
      <trkpt lat="41.0277540" lon="-2.2874910">
        <ele>1178.6</ele>
        <time>2020-09-12T08:10:22Z</time>
      </trkpt>
      <trkpt lat="41.0277580" lon="-2.2876150">
        <ele>1178.4</ele>
        <time>2020-09-12T08:10:23Z</time>
      </trkpt>
      <trkpt lat="41.0277610" lon="-2.2877380">
        <ele>1178.4</ele>
        <time>2020-09-12T08:10:24Z</time>
      </trkpt>
      <trkpt lat="41.0277650" lon="-2.2878620">
        <ele>1178.4</ele>
        <time>2020-09-12T08:10:25Z</time>
      </trkpt>
      <trkpt lat="41.0277680" lon="-2.2879870">
        <ele>1178.4</ele>
        <time>2020-09-12T08:10:26Z</time>
      </trkpt>
      <trkpt lat="41.0277710" lon="-2.2881130">
        <ele>1178.4</ele>
        <time>2020-09-12T08:10:27Z</time>
      </trkpt>
      <trkpt lat="41.0277750" lon="-2.2882380">
        <ele>1178.4</ele>
        <time>2020-09-12T08:10:28Z</time>
      </trkpt>
      <trkpt lat="41.0277790" lon="-2.2883630">
        <ele>1178.4</ele>
        <time>2020-09-12T08:10:29Z</time>
      </trkpt>
      <trkpt lat="41.0277810" lon="-2.2884900">
        <ele>1178.2</ele>
        <time>2020-09-12T08:10:30Z</time>
      </trkpt>
      <trkpt lat="41.0277830" lon="-2.2886160">
        <ele>1178.0</ele>
        <time>2020-09-12T08:10:31Z</time>
      </trkpt>
      <trkpt lat="41.0277870" lon="-2.2887420">
        <ele>1177.8</ele>
        <time>2020-09-12T08:10:32Z</time>
      </trkpt>
      <trkpt lat="41.0277920" lon="-2.2888680">
        <ele>1177.6</ele>
        <time>2020-09-12T08:10:33Z</time>
      </trkpt>
      <trkpt lat="41.0277950" lon="-2.2889940">
        <ele>1177.4</ele>
        <time>2020-09-12T08:10:34Z</time>
      </trkpt>
      <trkpt lat="41.0277970" lon="-2.2891200">
        <ele>1177.2</ele>
        <time>2020-09-12T08:10:35Z</time>
      </trkpt>
      <trkpt lat="41.0277950" lon="-2.2892450">
        <ele>1176.8</ele>
        <time>2020-09-12T08:10:36Z</time>
      </trkpt>
      <trkpt lat="41.0277900" lon="-2.2893690">
        <ele>1176.6</ele>
        <time>2020-09-12T08:10:37Z</time>
      </trkpt>
      <trkpt lat="41.0277820" lon="-2.2894890">
        <ele>1176.4</ele>
        <time>2020-09-12T08:10:38Z</time>
      </trkpt>
      <trkpt lat="41.0277710" lon="-2.2896090">
        <ele>1176.4</ele>
        <time>2020-09-12T08:10:39Z</time>
      </trkpt>
      <trkpt lat="41.0277570" lon="-2.2897280">
        <ele>1176.2</ele>
        <time>2020-09-12T08:10:40Z</time>
      </trkpt>
      <trkpt lat="41.0277400" lon="-2.2898480">
        <ele>1176.2</ele>
        <time>2020-09-12T08:10:41Z</time>
      </trkpt>
      <trkpt lat="41.0277220" lon="-2.2899660">
        <ele>1176.2</ele>
        <time>2020-09-12T08:10:42Z</time>
      </trkpt>
      <trkpt lat="41.0277030" lon="-2.2900840">
        <ele>1176.2</ele>
        <time>2020-09-12T08:10:43Z</time>
      </trkpt>
      <trkpt lat="41.0276830" lon="-2.2902010">
        <ele>1176.0</ele>
        <time>2020-09-12T08:10:44Z</time>
      </trkpt>
      <trkpt lat="41.0276630" lon="-2.2903170">
        <ele>1176.0</ele>
        <time>2020-09-12T08:10:45Z</time>
      </trkpt>
      <trkpt lat="41.0276420" lon="-2.2904330">
        <ele>1176.0</ele>
        <time>2020-09-12T08:10:46Z</time>
      </trkpt>
      <trkpt lat="41.0276200" lon="-2.2905460">
        <ele>1176.2</ele>
        <time>2020-09-12T08:10:47Z</time>
      </trkpt>
      <trkpt lat="41.0275980" lon="-2.2906590">
        <ele>1176.0</ele>
        <time>2020-09-12T08:10:48Z</time>
      </trkpt>
      <trkpt lat="41.0275770" lon="-2.2907720">
        <ele>1175.8</ele>
        <time>2020-09-12T08:10:49Z</time>
      </trkpt>
      <trkpt lat="41.0275540" lon="-2.2908840">
        <ele>1176.0</ele>
        <time>2020-09-12T08:10:50Z</time>
      </trkpt>
      <trkpt lat="41.0275310" lon="-2.2909950">
        <ele>1176.0</ele>
        <time>2020-09-12T08:10:51Z</time>
      </trkpt>
      <trkpt lat="41.0275090" lon="-2.2911060">
        <ele>1176.0</ele>
        <time>2020-09-12T08:10:52Z</time>
      </trkpt>
      <trkpt lat="41.0274870" lon="-2.2912160">
        <ele>1176.0</ele>
        <time>2020-09-12T08:10:53Z</time>
      </trkpt>
      <trkpt lat="41.0274660" lon="-2.2913260">
        <ele>1176.0</ele>
        <time>2020-09-12T08:10:54Z</time>
      </trkpt>
      <trkpt lat="41.0274420" lon="-2.2914350">
        <ele>1176.0</ele>
        <time>2020-09-12T08:10:55Z</time>
      </trkpt>
      <trkpt lat="41.0274180" lon="-2.2915430">
        <ele>1176.0</ele>
        <time>2020-09-12T08:10:56Z</time>
      </trkpt>
      <trkpt lat="41.0273940" lon="-2.2916510">
        <ele>1176.0</ele>
        <time>2020-09-12T08:10:57Z</time>
      </trkpt>
      <trkpt lat="41.0273710" lon="-2.2917580">
        <ele>1176.0</ele>
        <time>2020-09-12T08:10:58Z</time>
      </trkpt>
      <trkpt lat="41.0273470" lon="-2.2918630">
        <ele>1176.0</ele>
        <time>2020-09-12T08:10:59Z</time>
      </trkpt>
      <trkpt lat="41.0273230" lon="-2.2919670">
        <ele>1176.0</ele>
        <time>2020-09-12T08:11:00Z</time>
      </trkpt>
      <trkpt lat="41.0273000" lon="-2.2920690">
        <ele>1176.0</ele>
        <time>2020-09-12T08:11:01Z</time>
      </trkpt>
      <trkpt lat="41.0272780" lon="-2.2921700">
        <ele>1176.0</ele>
        <time>2020-09-12T08:11:02Z</time>
      </trkpt>
      <trkpt lat="41.0272570" lon="-2.2922700">
        <ele>1176.0</ele>
        <time>2020-09-12T08:11:03Z</time>
      </trkpt>
      <trkpt lat="41.0272360" lon="-2.2923680">
        <ele>1176.0</ele>
        <time>2020-09-12T08:11:04Z</time>
      </trkpt>
      <trkpt lat="41.0272150" lon="-2.2924630">
        <ele>1176.0</ele>
        <time>2020-09-12T08:11:05Z</time>
      </trkpt>
      <trkpt lat="41.0271940" lon="-2.2925570">
        <ele>1176.0</ele>
        <time>2020-09-12T08:11:06Z</time>
      </trkpt>
      <trkpt lat="41.0271720" lon="-2.2926510">
        <ele>1176.0</ele>
        <time>2020-09-12T08:11:07Z</time>
      </trkpt>
      <trkpt lat="41.0271520" lon="-2.2927450">
        <ele>1176.0</ele>
        <time>2020-09-12T08:11:08Z</time>
      </trkpt>
      <trkpt lat="41.0271340" lon="-2.2928390">
        <ele>1176.0</ele>
        <time>2020-09-12T08:11:09Z</time>
      </trkpt>
      <trkpt lat="41.0271170" lon="-2.2929320">
        <ele>1176.0</ele>
        <time>2020-09-12T08:11:10Z</time>
      </trkpt>
      <trkpt lat="41.0270990" lon="-2.2930240">
        <ele>1176.0</ele>
        <time>2020-09-12T08:11:11Z</time>
      </trkpt>
      <trkpt lat="41.0270820" lon="-2.2931160">
        <ele>1176.0</ele>
        <time>2020-09-12T08:11:12Z</time>
      </trkpt>
      <trkpt lat="41.0270640" lon="-2.2932070">
        <ele>1176.0</ele>
        <time>2020-09-12T08:11:13Z</time>
      </trkpt>
      <trkpt lat="41.0270470" lon="-2.2932990">
        <ele>1176.0</ele>
        <time>2020-09-12T08:11:14Z</time>
      </trkpt>
      <trkpt lat="41.0270310" lon="-2.2933940">
        <ele>1176.0</ele>
        <time>2020-09-12T08:11:15Z</time>
      </trkpt>
      <trkpt lat="41.0270190" lon="-2.2934900">
        <ele>1176.0</ele>
        <time>2020-09-12T08:11:16Z</time>
      </trkpt>
      <trkpt lat="41.0270100" lon="-2.2935890">
        <ele>1176.0</ele>
        <time>2020-09-12T08:11:17Z</time>
      </trkpt>
      <trkpt lat="41.0270030" lon="-2.2936890">
        <ele>1176.0</ele>
        <time>2020-09-12T08:11:18Z</time>
      </trkpt>
      <trkpt lat="41.0269900" lon="-2.2937860">
        <ele>1176.0</ele>
        <time>2020-09-12T08:11:19Z</time>
      </trkpt>
      <trkpt lat="41.0269620" lon="-2.2938760">
        <ele>1176.2</ele>
        <time>2020-09-12T08:11:20Z</time>
      </trkpt>
      <trkpt lat="41.0269150" lon="-2.2939520">
        <ele>1176.0</ele>
        <time>2020-09-12T08:11:21Z</time>
      </trkpt>
      <trkpt lat="41.0268490" lon="-2.2940060">
        <ele>1175.8</ele>
        <time>2020-09-12T08:11:22Z</time>
      </trkpt>
      <trkpt lat="41.0267730" lon="-2.2940470">
        <ele>1175.6</ele>
        <time>2020-09-12T08:11:23Z</time>
      </trkpt>
      <trkpt lat="41.0266950" lon="-2.2940860">
        <ele>1175.4</ele>
        <time>2020-09-12T08:11:24Z</time>
      </trkpt>
      <trkpt lat="41.0266150" lon="-2.2941310">
        <ele>1175.2</ele>
        <time>2020-09-12T08:11:25Z</time>
      </trkpt>
      <trkpt lat="41.0265290" lon="-2.2941800">
        <ele>1175.0</ele>
        <time>2020-09-12T08:11:26Z</time>
      </trkpt>
      <trkpt lat="41.0264460" lon="-2.2942280">
        <ele>1174.6</ele>
        <time>2020-09-12T08:11:27Z</time>
      </trkpt>
      <trkpt lat="41.0263660" lon="-2.2942660">
        <ele>1174.2</ele>
        <time>2020-09-12T08:11:28Z</time>
      </trkpt>
      <trkpt lat="41.0262840" lon="-2.2942800">
        <ele>1173.8</ele>
        <time>2020-09-12T08:11:29Z</time>
      </trkpt>
      <trkpt lat="41.0262040" lon="-2.2942480">
        <ele>1173.4</ele>
        <time>2020-09-12T08:11:30Z</time>
      </trkpt>
      <trkpt lat="41.0261360" lon="-2.2941910">
        <ele>1173.2</ele>
        <time>2020-09-12T08:11:31Z</time>
      </trkpt>
      <trkpt lat="41.0260820" lon="-2.2941200">
        <ele>1173.0</ele>
        <time>2020-09-12T08:11:32Z</time>
      </trkpt>
      <trkpt lat="41.0260350" lon="-2.2940480">
        <ele>1172.6</ele>
        <time>2020-09-12T08:11:33Z</time>
      </trkpt>
      <trkpt lat="41.0259820" lon="-2.2939960">
        <ele>1172.4</ele>
        <time>2020-09-12T08:11:34Z</time>
      </trkpt>
      <trkpt lat="41.0259200" lon="-2.2939650">
        <ele>1172.2</ele>
        <time>2020-09-12T08:11:35Z</time>
      </trkpt>
      <trkpt lat="41.0258550" lon="-2.2939650">
        <ele>1172.0</ele>
        <time>2020-09-12T08:11:36Z</time>
      </trkpt>
      <trkpt lat="41.0258000" lon="-2.2940010">
        <ele>1172.0</ele>
        <time>2020-09-12T08:11:37Z</time>
      </trkpt>
      <trkpt lat="41.0257610" lon="-2.2940530">
        <ele>1171.8</ele>
        <time>2020-09-12T08:11:38Z</time>
      </trkpt>
      <trkpt lat="41.0257160" lon="-2.2941100">
        <ele>1171.8</ele>
        <time>2020-09-12T08:11:39Z</time>
      </trkpt>
      <trkpt lat="41.0256610" lon="-2.2941400">
        <ele>1171.8</ele>
        <time>2020-09-12T08:11:40Z</time>
      </trkpt>
      <trkpt lat="41.0256070" lon="-2.2941380">
        <ele>1172.2</ele>
        <time>2020-09-12T08:11:41Z</time>
      </trkpt>
      <trkpt lat="41.0255540" lon="-2.2941220">
        <ele>1172.2</ele>
        <time>2020-09-12T08:11:42Z</time>
      </trkpt>
      <trkpt lat="41.0255070" lon="-2.2940950">
        <ele>1172.4</ele>
        <time>2020-09-12T08:11:43Z</time>
      </trkpt>
      <trkpt lat="41.0254650" lon="-2.2940670">
        <ele>1172.6</ele>
        <time>2020-09-12T08:11:44Z</time>
      </trkpt>
      <trkpt lat="41.0254240" lon="-2.2940420">
        <ele>1172.8</ele>
        <time>2020-09-12T08:11:45Z</time>
      </trkpt>
      <trkpt lat="41.0253890" lon="-2.2940170">
        <ele>1173.0</ele>
        <time>2020-09-12T08:11:46Z</time>
      </trkpt>
      <trkpt lat="41.0253550" lon="-2.2939960">
        <ele>1173.2</ele>
        <time>2020-09-12T08:11:47Z</time>
      </trkpt>
      <trkpt lat="41.0253230" lon="-2.2939770">
        <ele>1173.4</ele>
        <time>2020-09-12T08:11:48Z</time>
      </trkpt>
      <trkpt lat="41.0252930" lon="-2.2939560">
        <ele>1173.8</ele>
        <time>2020-09-12T08:11:49Z</time>
      </trkpt>
      <trkpt lat="41.0252650" lon="-2.2939370">
        <ele>1174.0</ele>
        <time>2020-09-12T08:11:50Z</time>
      </trkpt>
      <trkpt lat="41.0252370" lon="-2.2939190">
        <ele>1174.2</ele>
        <time>2020-09-12T08:11:51Z</time>
      </trkpt>
      <trkpt lat="41.0252110" lon="-2.2939030">
        <ele>1174.6</ele>
        <time>2020-09-12T08:11:52Z</time>
      </trkpt>
      <trkpt lat="41.0251860" lon="-2.2938880">
        <ele>1174.8</ele>
        <time>2020-09-12T08:11:53Z</time>
      </trkpt>
      <trkpt lat="41.0251630" lon="-2.2938690">
        <ele>1175.2</ele>
        <time>2020-09-12T08:11:54Z</time>
      </trkpt>
      <trkpt lat="41.0251400" lon="-2.2938520">
        <ele>1175.4</ele>
        <time>2020-09-12T08:11:55Z</time>
      </trkpt>
      <trkpt lat="41.0251160" lon="-2.2938360">
        <ele>1175.8</ele>
        <time>2020-09-12T08:11:56Z</time>
      </trkpt>
      <trkpt lat="41.0250930" lon="-2.2938230">
        <ele>1176.2</ele>
        <time>2020-09-12T08:11:57Z</time>
      </trkpt>
      <trkpt lat="41.0250700" lon="-2.2938080">
        <ele>1176.4</ele>
        <time>2020-09-12T08:11:58Z</time>
      </trkpt>
      <trkpt lat="41.0250480" lon="-2.2937940">
        <ele>1176.8</ele>
        <time>2020-09-12T08:11:59Z</time>
      </trkpt>
      <trkpt lat="41.0250260" lon="-2.2937800">
        <ele>1177.0</ele>
        <time>2020-09-12T08:12:00Z</time>
      </trkpt>
      <trkpt lat="41.0250060" lon="-2.2937670">
        <ele>1177.2</ele>
        <time>2020-09-12T08:12:01Z</time>
      </trkpt>
      <trkpt lat="41.0249870" lon="-2.2937490">
        <ele>1177.4</ele>
        <time>2020-09-12T08:12:02Z</time>
      </trkpt>
      <trkpt lat="41.0249680" lon="-2.2937280">
        <ele>1177.4</ele>
        <time>2020-09-12T08:12:03Z</time>
      </trkpt>
      <trkpt lat="41.0249510" lon="-2.2937030">
        <ele>1177.6</ele>
        <time>2020-09-12T08:12:04Z</time>
      </trkpt>
      <trkpt lat="41.0249340" lon="-2.2936770">
        <ele>1178.0</ele>
        <time>2020-09-12T08:12:05Z</time>
      </trkpt>
      <trkpt lat="41.0249180" lon="-2.2936500">
        <ele>1178.4</ele>
        <time>2020-09-12T08:12:06Z</time>
      </trkpt>
      <trkpt lat="41.0249060" lon="-2.2936190">
        <ele>1178.8</ele>
        <time>2020-09-12T08:12:07Z</time>
      </trkpt>
      <trkpt lat="41.0248940" lon="-2.2935890">
        <ele>1179.2</ele>
        <time>2020-09-12T08:12:08Z</time>
      </trkpt>
      <trkpt lat="41.0248850" lon="-2.2935580">
        <ele>1179.4</ele>
        <time>2020-09-12T08:12:09Z</time>
      </trkpt>
      <trkpt lat="41.0248800" lon="-2.2935260">
        <ele>1179.6</ele>
        <time>2020-09-12T08:12:10Z</time>
      </trkpt>
      <trkpt lat="41.0248800" lon="-2.2934910">
        <ele>1179.8</ele>
        <time>2020-09-12T08:12:11Z</time>
      </trkpt>
      <trkpt lat="41.0248840" lon="-2.2934540">
        <ele>1179.8</ele>
        <time>2020-09-12T08:12:12Z</time>
      </trkpt>
      <trkpt lat="41.0248890" lon="-2.2934180">
        <ele>1180.0</ele>
        <time>2020-09-12T08:12:13Z</time>
      </trkpt>
      <trkpt lat="41.0248940" lon="-2.2933830">
        <ele>1180.4</ele>
        <time>2020-09-12T08:12:14Z</time>
      </trkpt>
      <trkpt lat="41.0249010" lon="-2.2933470">
        <ele>1181.0</ele>
        <time>2020-09-12T08:12:15Z</time>
      </trkpt>
      <trkpt lat="41.0249060" lon="-2.2933130">
        <ele>1181.6</ele>
        <time>2020-09-12T08:12:16Z</time>
      </trkpt>
      <trkpt lat="41.0249120" lon="-2.2932790">
        <ele>1181.8</ele>
        <time>2020-09-12T08:12:17Z</time>
      </trkpt>
      <trkpt lat="41.0249190" lon="-2.2932460">
        <ele>1182.0</ele>
        <time>2020-09-12T08:12:18Z</time>
      </trkpt>
      <trkpt lat="41.0249260" lon="-2.2932130">
        <ele>1182.0</ele>
        <time>2020-09-12T08:12:19Z</time>
      </trkpt>
      <trkpt lat="41.0249310" lon="-2.2931790">
        <ele>1182.0</ele>
        <time>2020-09-12T08:12:20Z</time>
      </trkpt>
      <trkpt lat="41.0249360" lon="-2.2931460">
        <ele>1182.2</ele>
        <time>2020-09-12T08:12:21Z</time>
      </trkpt>
      <trkpt lat="41.0249430" lon="-2.2931140">
        <ele>1182.4</ele>
        <time>2020-09-12T08:12:22Z</time>
      </trkpt>
      <trkpt lat="41.0249500" lon="-2.2930810">
        <ele>1182.6</ele>
        <time>2020-09-12T08:12:23Z</time>
      </trkpt>
      <trkpt lat="41.0249560" lon="-2.2930480">
        <ele>1183.0</ele>
        <time>2020-09-12T08:12:24Z</time>
      </trkpt>
      <trkpt lat="41.0249620" lon="-2.2930140">
        <ele>1183.4</ele>
        <time>2020-09-12T08:12:25Z</time>
      </trkpt>
      <trkpt lat="41.0249690" lon="-2.2929800">
        <ele>1183.8</ele>
        <time>2020-09-12T08:12:26Z</time>
      </trkpt>
      <trkpt lat="41.0249750" lon="-2.2929480">
        <ele>1184.2</ele>
        <time>2020-09-12T08:12:27Z</time>
      </trkpt>
      <trkpt lat="41.0249820" lon="-2.2929120">
        <ele>1184.2</ele>
        <time>2020-09-12T08:12:28Z</time>
      </trkpt>
      <trkpt lat="41.0249880" lon="-2.2928800">
        <ele>1184.4</ele>
        <time>2020-09-12T08:12:29Z</time>
      </trkpt>
      <trkpt lat="41.0249960" lon="-2.2928470">
        <ele>1184.4</ele>
        <time>2020-09-12T08:12:30Z</time>
      </trkpt>
      <trkpt lat="41.0250040" lon="-2.2928150">
        <ele>1184.6</ele>
        <time>2020-09-12T08:12:31Z</time>
      </trkpt>
      <trkpt lat="41.0250110" lon="-2.2927810">
        <ele>1185.0</ele>
        <time>2020-09-12T08:12:32Z</time>
      </trkpt>
      <trkpt lat="41.0250170" lon="-2.2927480">
        <ele>1185.2</ele>
        <time>2020-09-12T08:12:33Z</time>
      </trkpt>
      <trkpt lat="41.0250230" lon="-2.2927140">
        <ele>1185.6</ele>
        <time>2020-09-12T08:12:34Z</time>
      </trkpt>
      <trkpt lat="41.0250310" lon="-2.2926820">
        <ele>1186.0</ele>
        <time>2020-09-12T08:12:35Z</time>
      </trkpt>
      <trkpt lat="41.0250380" lon="-2.2926480">
        <ele>1186.2</ele>
        <time>2020-09-12T08:12:36Z</time>
      </trkpt>
      <trkpt lat="41.0250430" lon="-2.2926130">
        <ele>1186.4</ele>
        <time>2020-09-12T08:12:37Z</time>
      </trkpt>
      <trkpt lat="41.0250470" lon="-2.2925770">
        <ele>1186.6</ele>
        <time>2020-09-12T08:12:38Z</time>
      </trkpt>
      <trkpt lat="41.0250520" lon="-2.2925420">
        <ele>1186.8</ele>
        <time>2020-09-12T08:12:39Z</time>
      </trkpt>
      <trkpt lat="41.0250550" lon="-2.2925070">
        <ele>1187.0</ele>
        <time>2020-09-12T08:12:40Z</time>
      </trkpt>
      <trkpt lat="41.0250580" lon="-2.2924730">
        <ele>1187.2</ele>
        <time>2020-09-12T08:12:41Z</time>
      </trkpt>
      <trkpt lat="41.0250590" lon="-2.2924390">
        <ele>1187.4</ele>
        <time>2020-09-12T08:12:42Z</time>
      </trkpt>
      <trkpt lat="41.0250610" lon="-2.2924050">
        <ele>1187.8</ele>
        <time>2020-09-12T08:12:43Z</time>
      </trkpt>
      <trkpt lat="41.0250600" lon="-2.2923690">
        <ele>1188.0</ele>
        <time>2020-09-12T08:12:44Z</time>
      </trkpt>
      <trkpt lat="41.0250600" lon="-2.2923320">
        <ele>1188.2</ele>
        <time>2020-09-12T08:12:45Z</time>
      </trkpt>
      <trkpt lat="41.0250610" lon="-2.2922960">
        <ele>1188.4</ele>
        <time>2020-09-12T08:12:46Z</time>
      </trkpt>
      <trkpt lat="41.0250610" lon="-2.2922590">
        <ele>1188.6</ele>
        <time>2020-09-12T08:12:47Z</time>
      </trkpt>
      <trkpt lat="41.0250630" lon="-2.2922210">
        <ele>1189.0</ele>
        <time>2020-09-12T08:12:48Z</time>
      </trkpt>
      <trkpt lat="41.0250670" lon="-2.2921840">
        <ele>1189.2</ele>
        <time>2020-09-12T08:12:49Z</time>
      </trkpt>
      <trkpt lat="41.0250690" lon="-2.2921470">
        <ele>1189.4</ele>
        <time>2020-09-12T08:12:50Z</time>
      </trkpt>
      <trkpt lat="41.0250660" lon="-2.2921090">
        <ele>1189.6</ele>
        <time>2020-09-12T08:12:51Z</time>
      </trkpt>
      <trkpt lat="41.0250640" lon="-2.2920720">
        <ele>1189.8</ele>
        <time>2020-09-12T08:12:52Z</time>
      </trkpt>
      <trkpt lat="41.0250640" lon="-2.2920340">
        <ele>1189.8</ele>
        <time>2020-09-12T08:12:53Z</time>
      </trkpt>
      <trkpt lat="41.0250640" lon="-2.2919950">
        <ele>1190.0</ele>
        <time>2020-09-12T08:12:54Z</time>
      </trkpt>
      <trkpt lat="41.0250650" lon="-2.2919550">
        <ele>1190.4</ele>
        <time>2020-09-12T08:12:55Z</time>
      </trkpt>
      <trkpt lat="41.0250650" lon="-2.2919150">
        <ele>1190.6</ele>
        <time>2020-09-12T08:12:56Z</time>
      </trkpt>
      <trkpt lat="41.0250610" lon="-2.2918740">
        <ele>1190.8</ele>
        <time>2020-09-12T08:12:57Z</time>
      </trkpt>
      <trkpt lat="41.0250600" lon="-2.2918320">
        <ele>1191.0</ele>
        <time>2020-09-12T08:12:58Z</time>
      </trkpt>
      <trkpt lat="41.0250590" lon="-2.2917900">
        <ele>1191.0</ele>
        <time>2020-09-12T08:12:59Z</time>
      </trkpt>
      <trkpt lat="41.0250570" lon="-2.2917480">
        <ele>1191.2</ele>
        <time>2020-09-12T08:13:00Z</time>
      </trkpt>
      <trkpt lat="41.0250520" lon="-2.2917050">
        <ele>1191.2</ele>
        <time>2020-09-12T08:13:01Z</time>
      </trkpt>
      <trkpt lat="41.0250440" lon="-2.2916640">
        <ele>1191.4</ele>
        <time>2020-09-12T08:13:02Z</time>
      </trkpt>
      <trkpt lat="41.0250330" lon="-2.2916240">
        <ele>1191.6</ele>
        <time>2020-09-12T08:13:03Z</time>
      </trkpt>
      <trkpt lat="41.0250160" lon="-2.2915880">
        <ele>1191.6</ele>
        <time>2020-09-12T08:13:04Z</time>
      </trkpt>
      <trkpt lat="41.0249950" lon="-2.2915580">
        <ele>1191.6</ele>
        <time>2020-09-12T08:13:05Z</time>
      </trkpt>
      <trkpt lat="41.0249690" lon="-2.2915350">
        <ele>1191.6</ele>
        <time>2020-09-12T08:13:06Z</time>
      </trkpt>
      <trkpt lat="41.0249400" lon="-2.2915210">
        <ele>1191.8</ele>
        <time>2020-09-12T08:13:07Z</time>
      </trkpt>
      <trkpt lat="41.0249100" lon="-2.2915120">
        <ele>1191.8</ele>
        <time>2020-09-12T08:13:08Z</time>
      </trkpt>
      <trkpt lat="41.0248810" lon="-2.2915120">
        <ele>1192.0</ele>
        <time>2020-09-12T08:13:09Z</time>
      </trkpt>
      <trkpt lat="41.0248540" lon="-2.2915190">
        <ele>1192.0</ele>
        <time>2020-09-12T08:13:10Z</time>
      </trkpt>
      <trkpt lat="41.0248270" lon="-2.2915270">
        <ele>1192.2</ele>
        <time>2020-09-12T08:13:11Z</time>
      </trkpt>
      <trkpt lat="41.0248010" lon="-2.2915340">
        <ele>1192.4</ele>
        <time>2020-09-12T08:13:12Z</time>
      </trkpt>
      <trkpt lat="41.0247770" lon="-2.2915430">
        <ele>1192.6</ele>
        <time>2020-09-12T08:13:13Z</time>
      </trkpt>
      <trkpt lat="41.0247550" lon="-2.2915580">
        <ele>1193.2</ele>
        <time>2020-09-12T08:13:14Z</time>
      </trkpt>
      <trkpt lat="41.0247340" lon="-2.2915770">
        <ele>1193.6</ele>
        <time>2020-09-12T08:13:15Z</time>
      </trkpt>
      <trkpt lat="41.0247140" lon="-2.2915980">
        <ele>1193.8</ele>
        <time>2020-09-12T08:13:16Z</time>
      </trkpt>
      <trkpt lat="41.0246940" lon="-2.2916190">
        <ele>1194.2</ele>
        <time>2020-09-12T08:13:17Z</time>
      </trkpt>
      <trkpt lat="41.0246760" lon="-2.2916420">
        <ele>1194.6</ele>
        <time>2020-09-12T08:13:18Z</time>
      </trkpt>
      <trkpt lat="41.0246600" lon="-2.2916660">
        <ele>1194.8</ele>
        <time>2020-09-12T08:13:19Z</time>
      </trkpt>
      <trkpt lat="41.0246440" lon="-2.2916910">
        <ele>1195.0</ele>
        <time>2020-09-12T08:13:20Z</time>
      </trkpt>
      <trkpt lat="41.0246280" lon="-2.2917170">
        <ele>1195.2</ele>
        <time>2020-09-12T08:13:21Z</time>
      </trkpt>
      <trkpt lat="41.0246130" lon="-2.2917420">
        <ele>1195.4</ele>
        <time>2020-09-12T08:13:22Z</time>
      </trkpt>
      <trkpt lat="41.0245980" lon="-2.2917690">
        <ele>1195.6</ele>
        <time>2020-09-12T08:13:23Z</time>
      </trkpt>
      <trkpt lat="41.0245850" lon="-2.2917980">
        <ele>1196.0</ele>
        <time>2020-09-12T08:13:24Z</time>
      </trkpt>
      <trkpt lat="41.0245720" lon="-2.2918290">
        <ele>1196.4</ele>
        <time>2020-09-12T08:13:25Z</time>
      </trkpt>
      <trkpt lat="41.0245610" lon="-2.2918610">
        <ele>1196.6</ele>
        <time>2020-09-12T08:13:26Z</time>
      </trkpt>
      <trkpt lat="41.0245490" lon="-2.2918910">
        <ele>1196.8</ele>
        <time>2020-09-12T08:13:27Z</time>
      </trkpt>
      <trkpt lat="41.0245360" lon="-2.2919200">
        <ele>1197.2</ele>
        <time>2020-09-12T08:13:28Z</time>
      </trkpt>
      <trkpt lat="41.0245240" lon="-2.2919480">
        <ele>1197.6</ele>
        <time>2020-09-12T08:13:29Z</time>
      </trkpt>
      <trkpt lat="41.0245110" lon="-2.2919760">
        <ele>1197.8</ele>
        <time>2020-09-12T08:13:30Z</time>
      </trkpt>
      <trkpt lat="41.0244980" lon="-2.2920030">
        <ele>1198.2</ele>
        <time>2020-09-12T08:13:31Z</time>
      </trkpt>
      <trkpt lat="41.0244860" lon="-2.2920320">
        <ele>1198.4</ele>
        <time>2020-09-12T08:13:32Z</time>
      </trkpt>
      <trkpt lat="41.0244750" lon="-2.2920620">
        <ele>1198.6</ele>
        <time>2020-09-12T08:13:33Z</time>
      </trkpt>
      <trkpt lat="41.0244630" lon="-2.2920900">
        <ele>1199.0</ele>
        <time>2020-09-12T08:13:34Z</time>
      </trkpt>
      <trkpt lat="41.0244480" lon="-2.2921170">
        <ele>1199.2</ele>
        <time>2020-09-12T08:13:35Z</time>
      </trkpt>
      <trkpt lat="41.0244350" lon="-2.2921460">
        <ele>1199.6</ele>
        <time>2020-09-12T08:13:36Z</time>
      </trkpt>
      <trkpt lat="41.0244230" lon="-2.2921750">
        <ele>1199.8</ele>
        <time>2020-09-12T08:13:37Z</time>
      </trkpt>
      <trkpt lat="41.0244100" lon="-2.2922030">
        <ele>1200.0</ele>
        <time>2020-09-12T08:13:38Z</time>
      </trkpt>
      <trkpt lat="41.0243970" lon="-2.2922300">
        <ele>1200.4</ele>
        <time>2020-09-12T08:13:39Z</time>
      </trkpt>
      <trkpt lat="41.0243840" lon="-2.2922550">
        <ele>1200.8</ele>
        <time>2020-09-12T08:13:40Z</time>
      </trkpt>
      <trkpt lat="41.0243700" lon="-2.2922810">
        <ele>1201.2</ele>
        <time>2020-09-12T08:13:41Z</time>
      </trkpt>
      <trkpt lat="41.0243540" lon="-2.2923060">
        <ele>1201.4</ele>
        <time>2020-09-12T08:13:42Z</time>
      </trkpt>
      <trkpt lat="41.0243390" lon="-2.2923310">
        <ele>1201.8</ele>
        <time>2020-09-12T08:13:43Z</time>
      </trkpt>
      <trkpt lat="41.0243220" lon="-2.2923550">
        <ele>1202.0</ele>
        <time>2020-09-12T08:13:44Z</time>
      </trkpt>
      <trkpt lat="41.0243060" lon="-2.2923780">
        <ele>1202.2</ele>
        <time>2020-09-12T08:13:45Z</time>
      </trkpt>
      <trkpt lat="41.0242890" lon="-2.2924010">
        <ele>1202.4</ele>
        <time>2020-09-12T08:13:46Z</time>
      </trkpt>
      <trkpt lat="41.0242730" lon="-2.2924250">
        <ele>1202.8</ele>
        <time>2020-09-12T08:13:47Z</time>
      </trkpt>
      <trkpt lat="41.0242560" lon="-2.2924470">
        <ele>1203.2</ele>
        <time>2020-09-12T08:13:48Z</time>
      </trkpt>
      <trkpt lat="41.0242390" lon="-2.2924690">
        <ele>1203.6</ele>
        <time>2020-09-12T08:13:49Z</time>
      </trkpt>
      <trkpt lat="41.0242230" lon="-2.2924920">
        <ele>1204.0</ele>
        <time>2020-09-12T08:13:50Z</time>
      </trkpt>
      <trkpt lat="41.0242070" lon="-2.2925140">
        <ele>1204.2</ele>
        <time>2020-09-12T08:13:51Z</time>
      </trkpt>
      <trkpt lat="41.0241900" lon="-2.2925350">
        <ele>1204.2</ele>
        <time>2020-09-12T08:13:52Z</time>
      </trkpt>
      <trkpt lat="41.0241710" lon="-2.2925550">
        <ele>1204.4</ele>
        <time>2020-09-12T08:13:53Z</time>
      </trkpt>
      <trkpt lat="41.0241520" lon="-2.2925750">
        <ele>1204.8</ele>
        <time>2020-09-12T08:13:54Z</time>
      </trkpt>
      <trkpt lat="41.0241340" lon="-2.2925950">
        <ele>1205.2</ele>
        <time>2020-09-12T08:13:55Z</time>
      </trkpt>
      <trkpt lat="41.0241160" lon="-2.2926140">
        <ele>1205.4</ele>
        <time>2020-09-12T08:13:56Z</time>
      </trkpt>
      <trkpt lat="41.0240970" lon="-2.2926310">
        <ele>1205.6</ele>
        <time>2020-09-12T08:13:57Z</time>
      </trkpt>
      <trkpt lat="41.0240780" lon="-2.2926490">
        <ele>1205.8</ele>
        <time>2020-09-12T08:13:58Z</time>
      </trkpt>
      <trkpt lat="41.0240600" lon="-2.2926670">
        <ele>1206.2</ele>
        <time>2020-09-12T08:13:59Z</time>
      </trkpt>
      <trkpt lat="41.0240420" lon="-2.2926850">
        <ele>1206.4</ele>
        <time>2020-09-12T08:14:00Z</time>
      </trkpt>
      <trkpt lat="41.0240250" lon="-2.2927040">
        <ele>1206.8</ele>
        <time>2020-09-12T08:14:01Z</time>
      </trkpt>
      <trkpt lat="41.0240070" lon="-2.2927220">
        <ele>1207.0</ele>
        <time>2020-09-12T08:14:02Z</time>
      </trkpt>
      <trkpt lat="41.0239900" lon="-2.2927400">
        <ele>1207.4</ele>
        <time>2020-09-12T08:14:03Z</time>
      </trkpt>
      <trkpt lat="41.0239710" lon="-2.2927550">
        <ele>1207.6</ele>
        <time>2020-09-12T08:14:04Z</time>
      </trkpt>
      <trkpt lat="41.0239510" lon="-2.2927720">
        <ele>1208.0</ele>
        <time>2020-09-12T08:14:05Z</time>
      </trkpt>
      <trkpt lat="41.0239330" lon="-2.2927900">
        <ele>1208.2</ele>
        <time>2020-09-12T08:14:06Z</time>
      </trkpt>
      <trkpt lat="41.0239150" lon="-2.2928070">
        <ele>1208.4</ele>
        <time>2020-09-12T08:14:07Z</time>
      </trkpt>
      <trkpt lat="41.0238970" lon="-2.2928230">
        <ele>1208.6</ele>
        <time>2020-09-12T08:14:08Z</time>
      </trkpt>
      <trkpt lat="41.0238790" lon="-2.2928380">
        <ele>1209.0</ele>
        <time>2020-09-12T08:14:09Z</time>
      </trkpt>
      <trkpt lat="41.0238590" lon="-2.2928510">
        <ele>1209.2</ele>
        <time>2020-09-12T08:14:10Z</time>
      </trkpt>
      <trkpt lat="41.0238390" lon="-2.2928620">
        <ele>1209.4</ele>
        <time>2020-09-12T08:14:11Z</time>
      </trkpt>
      <trkpt lat="41.0238190" lon="-2.2928740">
        <ele>1209.8</ele>
        <time>2020-09-12T08:14:12Z</time>
      </trkpt>
      <trkpt lat="41.0237980" lon="-2.2928850">
        <ele>1210.0</ele>
        <time>2020-09-12T08:14:13Z</time>
      </trkpt>
      <trkpt lat="41.0237780" lon="-2.2928960">
        <ele>1210.4</ele>
        <time>2020-09-12T08:14:14Z</time>
      </trkpt>
      <trkpt lat="41.0237570" lon="-2.2929070">
        <ele>1210.6</ele>
        <time>2020-09-12T08:14:15Z</time>
      </trkpt>
      <trkpt lat="41.0237360" lon="-2.2929150">
        <ele>1211.0</ele>
        <time>2020-09-12T08:14:16Z</time>
      </trkpt>
      <trkpt lat="41.0237150" lon="-2.2929190">
        <ele>1211.2</ele>
        <time>2020-09-12T08:14:17Z</time>
      </trkpt>
      <trkpt lat="41.0236920" lon="-2.2929260">
        <ele>1211.4</ele>
        <time>2020-09-12T08:14:18Z</time>
      </trkpt>
      <trkpt lat="41.0236700" lon="-2.2929330">
        <ele>1211.6</ele>
        <time>2020-09-12T08:14:19Z</time>
      </trkpt>
      <trkpt lat="41.0236470" lon="-2.2929340">
        <ele>1211.8</ele>
        <time>2020-09-12T08:14:20Z</time>
      </trkpt>
      <trkpt lat="41.0236230" lon="-2.2929360">
        <ele>1212.2</ele>
        <time>2020-09-12T08:14:21Z</time>
      </trkpt>
      <trkpt lat="41.0236000" lon="-2.2929400">
        <ele>1212.6</ele>
        <time>2020-09-12T08:14:22Z</time>
      </trkpt>
      <trkpt lat="41.0235790" lon="-2.2929460">
        <ele>1212.8</ele>
        <time>2020-09-12T08:14:23Z</time>
      </trkpt>
      <trkpt lat="41.0235580" lon="-2.2929490">
        <ele>1213.2</ele>
        <time>2020-09-12T08:14:24Z</time>
      </trkpt>
      <trkpt lat="41.0235360" lon="-2.2929510">
        <ele>1213.6</ele>
        <time>2020-09-12T08:14:25Z</time>
      </trkpt>
      <trkpt lat="41.0235120" lon="-2.2929540">
        <ele>1213.8</ele>
        <time>2020-09-12T08:14:26Z</time>
      </trkpt>
      <trkpt lat="41.0234880" lon="-2.2929560">
        <ele>1214.0</ele>
        <time>2020-09-12T08:14:27Z</time>
      </trkpt>
      <trkpt lat="41.0234660" lon="-2.2929590">
        <ele>1214.2</ele>
        <time>2020-09-12T08:14:28Z</time>
      </trkpt>
      <trkpt lat="41.0234450" lon="-2.2929610">
        <ele>1214.4</ele>
        <time>2020-09-12T08:14:29Z</time>
      </trkpt>
      <trkpt lat="41.0234230" lon="-2.2929620">
        <ele>1214.8</ele>
        <time>2020-09-12T08:14:30Z</time>
      </trkpt>
      <trkpt lat="41.0234020" lon="-2.2929630">
        <ele>1215.0</ele>
        <time>2020-09-12T08:14:31Z</time>
      </trkpt>
      <trkpt lat="41.0233800" lon="-2.2929630">
        <ele>1215.2</ele>
        <time>2020-09-12T08:14:32Z</time>
      </trkpt>
      <trkpt lat="41.0233570" lon="-2.2929630">
        <ele>1215.4</ele>
        <time>2020-09-12T08:14:33Z</time>
      </trkpt>
      <trkpt lat="41.0233330" lon="-2.2929640">
        <ele>1215.6</ele>
        <time>2020-09-12T08:14:34Z</time>
      </trkpt>
      <trkpt lat="41.0233110" lon="-2.2929670">
        <ele>1215.8</ele>
        <time>2020-09-12T08:14:35Z</time>
      </trkpt>
      <trkpt lat="41.0232900" lon="-2.2929690">
        <ele>1216.0</ele>
        <time>2020-09-12T08:14:36Z</time>
      </trkpt>
      <trkpt lat="41.0232680" lon="-2.2929670">
        <ele>1216.4</ele>
        <time>2020-09-12T08:14:37Z</time>
      </trkpt>
      <trkpt lat="41.0232450" lon="-2.2929660">
        <ele>1216.6</ele>
        <time>2020-09-12T08:14:38Z</time>
      </trkpt>
      <trkpt lat="41.0232210" lon="-2.2929700">
        <ele>1217.0</ele>
        <time>2020-09-12T08:14:39Z</time>
      </trkpt>
      <trkpt lat="41.0231990" lon="-2.2929730">
        <ele>1217.2</ele>
        <time>2020-09-12T08:14:40Z</time>
      </trkpt>
      <trkpt lat="41.0231750" lon="-2.2929730">
        <ele>1217.4</ele>
        <time>2020-09-12T08:14:41Z</time>
      </trkpt>
      <trkpt lat="41.0231520" lon="-2.2929730">
        <ele>1217.6</ele>
        <time>2020-09-12T08:14:42Z</time>
      </trkpt>
      <trkpt lat="41.0231280" lon="-2.2929750">
        <ele>1217.8</ele>
        <time>2020-09-12T08:14:43Z</time>
      </trkpt>
      <trkpt lat="41.0231050" lon="-2.2929760">
        <ele>1218.2</ele>
        <time>2020-09-12T08:14:44Z</time>
      </trkpt>
      <trkpt lat="41.0230830" lon="-2.2929760">
        <ele>1218.4</ele>
        <time>2020-09-12T08:14:45Z</time>
      </trkpt>
      <trkpt lat="41.0230600" lon="-2.2929780">
        <ele>1218.6</ele>
        <time>2020-09-12T08:14:46Z</time>
      </trkpt>
      <trkpt lat="41.0230380" lon="-2.2929790">
        <ele>1219.0</ele>
        <time>2020-09-12T08:14:47Z</time>
      </trkpt>
      <trkpt lat="41.0230160" lon="-2.2929760">
        <ele>1219.4</ele>
        <time>2020-09-12T08:14:48Z</time>
      </trkpt>
      <trkpt lat="41.0229920" lon="-2.2929700">
        <ele>1219.6</ele>
        <time>2020-09-12T08:14:49Z</time>
      </trkpt>
      <trkpt lat="41.0229680" lon="-2.2929700">
        <ele>1219.6</ele>
        <time>2020-09-12T08:14:50Z</time>
      </trkpt>
      <trkpt lat="41.0229430" lon="-2.2929770">
        <ele>1219.8</ele>
        <time>2020-09-12T08:14:51Z</time>
      </trkpt>
      <trkpt lat="41.0229170" lon="-2.2929850">
        <ele>1220.0</ele>
        <time>2020-09-12T08:14:52Z</time>
      </trkpt>
      <trkpt lat="41.0228920" lon="-2.2929860">
        <ele>1220.4</ele>
        <time>2020-09-12T08:14:53Z</time>
      </trkpt>
      <trkpt lat="41.0228650" lon="-2.2929880">
        <ele>1220.6</ele>
        <time>2020-09-12T08:14:54Z</time>
      </trkpt>
      <trkpt lat="41.0228390" lon="-2.2929880">
        <ele>1221.0</ele>
        <time>2020-09-12T08:14:55Z</time>
      </trkpt>
      <trkpt lat="41.0228120" lon="-2.2929860">
        <ele>1221.2</ele>
        <time>2020-09-12T08:14:56Z</time>
      </trkpt>
      <trkpt lat="41.0227850" lon="-2.2929830">
        <ele>1221.2</ele>
        <time>2020-09-12T08:14:57Z</time>
      </trkpt>
      <trkpt lat="41.0227590" lon="-2.2929780">
        <ele>1221.4</ele>
        <time>2020-09-12T08:14:58Z</time>
      </trkpt>
      <trkpt lat="41.0227320" lon="-2.2929730">
        <ele>1221.4</ele>
        <time>2020-09-12T08:14:59Z</time>
      </trkpt>
      <trkpt lat="41.0227070" lon="-2.2929650">
        <ele>1221.6</ele>
        <time>2020-09-12T08:15:00Z</time>
      </trkpt>
      <trkpt lat="41.0226810" lon="-2.2929560">
        <ele>1221.8</ele>
        <time>2020-09-12T08:15:01Z</time>
      </trkpt>
      <trkpt lat="41.0226550" lon="-2.2929470">
        <ele>1222.0</ele>
        <time>2020-09-12T08:15:02Z</time>
      </trkpt>
      <trkpt lat="41.0226290" lon="-2.2929380">
        <ele>1222.2</ele>
        <time>2020-09-12T08:15:03Z</time>
      </trkpt>
      <trkpt lat="41.0226020" lon="-2.2929290">
        <ele>1222.4</ele>
        <time>2020-09-12T08:15:04Z</time>
      </trkpt>
      <trkpt lat="41.0225760" lon="-2.2929180">
        <ele>1222.6</ele>
        <time>2020-09-12T08:15:05Z</time>
      </trkpt>
      <trkpt lat="41.0225490" lon="-2.2929070">
        <ele>1222.8</ele>
        <time>2020-09-12T08:15:06Z</time>
      </trkpt>
      <trkpt lat="41.0225220" lon="-2.2928950">
        <ele>1223.0</ele>
        <time>2020-09-12T08:15:07Z</time>
      </trkpt>
      <trkpt lat="41.0224950" lon="-2.2928860">
        <ele>1223.2</ele>
        <time>2020-09-12T08:15:08Z</time>
      </trkpt>
      <trkpt lat="41.0224680" lon="-2.2928740">
        <ele>1223.4</ele>
        <time>2020-09-12T08:15:09Z</time>
      </trkpt>
      <trkpt lat="41.0224410" lon="-2.2928620">
        <ele>1223.6</ele>
        <time>2020-09-12T08:15:10Z</time>
      </trkpt>
      <trkpt lat="41.0224120" lon="-2.2928510">
        <ele>1223.6</ele>
        <time>2020-09-12T08:15:11Z</time>
      </trkpt>
      <trkpt lat="41.0223820" lon="-2.2928380">
        <ele>1223.8</ele>
        <time>2020-09-12T08:15:12Z</time>
      </trkpt>
      <trkpt lat="41.0223520" lon="-2.2928220">
        <ele>1224.0</ele>
        <time>2020-09-12T08:15:13Z</time>
      </trkpt>
      <trkpt lat="41.0223210" lon="-2.2928080">
        <ele>1224.2</ele>
        <time>2020-09-12T08:15:14Z</time>
      </trkpt>
      <trkpt lat="41.0222910" lon="-2.2927940">
        <ele>1224.2</ele>
        <time>2020-09-12T08:15:15Z</time>
      </trkpt>
      <trkpt lat="41.0222610" lon="-2.2927810">
        <ele>1224.4</ele>
        <time>2020-09-12T08:15:16Z</time>
      </trkpt>
      <trkpt lat="41.0222300" lon="-2.2927660">
        <ele>1224.6</ele>
        <time>2020-09-12T08:15:17Z</time>
      </trkpt>
      <trkpt lat="41.0222010" lon="-2.2927530">
        <ele>1224.8</ele>
        <time>2020-09-12T08:15:18Z</time>
      </trkpt>
      <trkpt lat="41.0221700" lon="-2.2927390">
        <ele>1224.8</ele>
        <time>2020-09-12T08:15:19Z</time>
      </trkpt>
      <trkpt lat="41.0221410" lon="-2.2927250">
        <ele>1225.0</ele>
        <time>2020-09-12T08:15:20Z</time>
      </trkpt>
      <trkpt lat="41.0221110" lon="-2.2927090">
        <ele>1225.2</ele>
        <time>2020-09-12T08:15:21Z</time>
      </trkpt>
      <trkpt lat="41.0220820" lon="-2.2926940">
        <ele>1225.6</ele>
        <time>2020-09-12T08:15:22Z</time>
      </trkpt>
      <trkpt lat="41.0220520" lon="-2.2926790">
        <ele>1225.8</ele>
        <time>2020-09-12T08:15:23Z</time>
      </trkpt>
      <trkpt lat="41.0220230" lon="-2.2926640">
        <ele>1225.8</ele>
        <time>2020-09-12T08:15:24Z</time>
      </trkpt>
      <trkpt lat="41.0219940" lon="-2.2926480">
        <ele>1226.0</ele>
        <time>2020-09-12T08:15:25Z</time>
      </trkpt>
      <trkpt lat="41.0219660" lon="-2.2926320">
        <ele>1226.0</ele>
        <time>2020-09-12T08:15:26Z</time>
      </trkpt>
      <trkpt lat="41.0219370" lon="-2.2926170">
        <ele>1226.2</ele>
        <time>2020-09-12T08:15:27Z</time>
      </trkpt>
      <trkpt lat="41.0219070" lon="-2.2926030">
        <ele>1226.2</ele>
        <time>2020-09-12T08:15:28Z</time>
      </trkpt>
      <trkpt lat="41.0218770" lon="-2.2925860">
        <ele>1226.4</ele>
        <time>2020-09-12T08:15:29Z</time>
      </trkpt>
      <trkpt lat="41.0218480" lon="-2.2925700">
        <ele>1226.4</ele>
        <time>2020-09-12T08:15:30Z</time>
      </trkpt>
      <trkpt lat="41.0218190" lon="-2.2925520">
        <ele>1226.4</ele>
        <time>2020-09-12T08:15:31Z</time>
      </trkpt>
      <trkpt lat="41.0217900" lon="-2.2925340">
        <ele>1226.4</ele>
        <time>2020-09-12T08:15:32Z</time>
      </trkpt>
      <trkpt lat="41.0217610" lon="-2.2925160">
        <ele>1226.6</ele>
        <time>2020-09-12T08:15:33Z</time>
      </trkpt>
      <trkpt lat="41.0217320" lon="-2.2924970">
        <ele>1226.8</ele>
        <time>2020-09-12T08:15:34Z</time>
      </trkpt>
      <trkpt lat="41.0217030" lon="-2.2924770">
        <ele>1227.2</ele>
        <time>2020-09-12T08:15:35Z</time>
      </trkpt>
      <trkpt lat="41.0216750" lon="-2.2924580">
        <ele>1227.4</ele>
        <time>2020-09-12T08:15:36Z</time>
      </trkpt>
      <trkpt lat="41.0216470" lon="-2.2924370">
        <ele>1227.6</ele>
        <time>2020-09-12T08:15:37Z</time>
      </trkpt>
      <trkpt lat="41.0216180" lon="-2.2924160">
        <ele>1227.8</ele>
        <time>2020-09-12T08:15:38Z</time>
      </trkpt>
      <trkpt lat="41.0215900" lon="-2.2923940">
        <ele>1228.0</ele>
        <time>2020-09-12T08:15:39Z</time>
      </trkpt>
      <trkpt lat="41.0215610" lon="-2.2923730">
        <ele>1228.0</ele>
        <time>2020-09-12T08:15:40Z</time>
      </trkpt>
      <trkpt lat="41.0215320" lon="-2.2923530">
        <ele>1228.2</ele>
        <time>2020-09-12T08:15:41Z</time>
      </trkpt>
      <trkpt lat="41.0215030" lon="-2.2923300">
        <ele>1228.2</ele>
        <time>2020-09-12T08:15:42Z</time>
      </trkpt>
      <trkpt lat="41.0214750" lon="-2.2923100">
        <ele>1228.4</ele>
        <time>2020-09-12T08:15:43Z</time>
      </trkpt>
      <trkpt lat="41.0214440" lon="-2.2922880">
        <ele>1228.8</ele>
        <time>2020-09-12T08:15:44Z</time>
      </trkpt>
      <trkpt lat="41.0214130" lon="-2.2922680">
        <ele>1229.0</ele>
        <time>2020-09-12T08:15:45Z</time>
      </trkpt>
      <trkpt lat="41.0213850" lon="-2.2922470">
        <ele>1229.0</ele>
        <time>2020-09-12T08:15:46Z</time>
      </trkpt>
      <trkpt lat="41.0213550" lon="-2.2922260">
        <ele>1229.2</ele>
        <time>2020-09-12T08:15:47Z</time>
      </trkpt>
      <trkpt lat="41.0213240" lon="-2.2922080">
        <ele>1229.2</ele>
        <time>2020-09-12T08:15:48Z</time>
      </trkpt>
      <trkpt lat="41.0212920" lon="-2.2921890">
        <ele>1229.2</ele>
        <time>2020-09-12T08:15:49Z</time>
      </trkpt>
      <trkpt lat="41.0212600" lon="-2.2921720">
        <ele>1229.4</ele>
        <time>2020-09-12T08:15:50Z</time>
      </trkpt>
      <trkpt lat="41.0212290" lon="-2.2921550">
        <ele>1229.4</ele>
        <time>2020-09-12T08:15:51Z</time>
      </trkpt>
      <trkpt lat="41.0211970" lon="-2.2921390">
        <ele>1229.6</ele>
        <time>2020-09-12T08:15:52Z</time>
      </trkpt>
      <trkpt lat="41.0211650" lon="-2.2921220">
        <ele>1229.8</ele>
        <time>2020-09-12T08:15:53Z</time>
      </trkpt>
      <trkpt lat="41.0211320" lon="-2.2921100">
        <ele>1230.0</ele>
        <time>2020-09-12T08:15:54Z</time>
      </trkpt>
      <trkpt lat="41.0210980" lon="-2.2921000">
        <ele>1230.0</ele>
        <time>2020-09-12T08:15:55Z</time>
      </trkpt>
      <trkpt lat="41.0210630" lon="-2.2920900">
        <ele>1230.2</ele>
        <time>2020-09-12T08:15:56Z</time>
      </trkpt>
      <trkpt lat="41.0210290" lon="-2.2920800">
        <ele>1230.2</ele>
        <time>2020-09-12T08:15:57Z</time>
      </trkpt>
      <trkpt lat="41.0209930" lon="-2.2920730">
        <ele>1230.4</ele>
        <time>2020-09-12T08:15:58Z</time>
      </trkpt>
      <trkpt lat="41.0209580" lon="-2.2920650">
        <ele>1230.4</ele>
        <time>2020-09-12T08:15:59Z</time>
      </trkpt>
      <trkpt lat="41.0209240" lon="-2.2920560">
        <ele>1230.4</ele>
        <time>2020-09-12T08:16:00Z</time>
      </trkpt>
      <trkpt lat="41.0208880" lon="-2.2920500">
        <ele>1230.6</ele>
        <time>2020-09-12T08:16:01Z</time>
      </trkpt>
      <trkpt lat="41.0208530" lon="-2.2920480">
        <ele>1230.6</ele>
        <time>2020-09-12T08:16:02Z</time>
      </trkpt>
      <trkpt lat="41.0208190" lon="-2.2920470">
        <ele>1230.8</ele>
        <time>2020-09-12T08:16:03Z</time>
      </trkpt>
      <trkpt lat="41.0207840" lon="-2.2920490">
        <ele>1230.8</ele>
        <time>2020-09-12T08:16:04Z</time>
      </trkpt>
      <trkpt lat="41.0207490" lon="-2.2920510">
        <ele>1231.0</ele>
        <time>2020-09-12T08:16:05Z</time>
      </trkpt>
      <trkpt lat="41.0207140" lon="-2.2920540">
        <ele>1231.2</ele>
        <time>2020-09-12T08:16:06Z</time>
      </trkpt>
      <trkpt lat="41.0206790" lon="-2.2920560">
        <ele>1231.2</ele>
        <time>2020-09-12T08:16:07Z</time>
      </trkpt>
      <trkpt lat="41.0206450" lon="-2.2920590">
        <ele>1231.4</ele>
        <time>2020-09-12T08:16:08Z</time>
      </trkpt>
      <trkpt lat="41.0206100" lon="-2.2920630">
        <ele>1231.4</ele>
        <time>2020-09-12T08:16:09Z</time>
      </trkpt>
      <trkpt lat="41.0205750" lon="-2.2920660">
        <ele>1231.6</ele>
        <time>2020-09-12T08:16:10Z</time>
      </trkpt>
      <trkpt lat="41.0205400" lon="-2.2920690">
        <ele>1231.8</ele>
        <time>2020-09-12T08:16:11Z</time>
      </trkpt>
      <trkpt lat="41.0205060" lon="-2.2920710">
        <ele>1231.8</ele>
        <time>2020-09-12T08:16:12Z</time>
      </trkpt>
      <trkpt lat="41.0204730" lon="-2.2920740">
        <ele>1232.0</ele>
        <time>2020-09-12T08:16:13Z</time>
      </trkpt>
      <trkpt lat="41.0204400" lon="-2.2920770">
        <ele>1232.4</ele>
        <time>2020-09-12T08:16:14Z</time>
      </trkpt>
      <trkpt lat="41.0204060" lon="-2.2920770">
        <ele>1232.6</ele>
        <time>2020-09-12T08:16:15Z</time>
      </trkpt>
      <trkpt lat="41.0203730" lon="-2.2920760">
        <ele>1232.6</ele>
        <time>2020-09-12T08:16:16Z</time>
      </trkpt>
      <trkpt lat="41.0203410" lon="-2.2920770">
        <ele>1232.8</ele>
        <time>2020-09-12T08:16:17Z</time>
      </trkpt>
      <trkpt lat="41.0203090" lon="-2.2920770">
        <ele>1233.0</ele>
        <time>2020-09-12T08:16:18Z</time>
      </trkpt>
      <trkpt lat="41.0202780" lon="-2.2920750">
        <ele>1233.2</ele>
        <time>2020-09-12T08:16:19Z</time>
      </trkpt>
      <trkpt lat="41.0202460" lon="-2.2920760">
        <ele>1233.4</ele>
        <time>2020-09-12T08:16:20Z</time>
      </trkpt>
      <trkpt lat="41.0202150" lon="-2.2920760">
        <ele>1233.8</ele>
        <time>2020-09-12T08:16:21Z</time>
      </trkpt>
      <trkpt lat="41.0201840" lon="-2.2920740">
        <ele>1233.8</ele>
        <time>2020-09-12T08:16:22Z</time>
      </trkpt>
      <trkpt lat="41.0201530" lon="-2.2920690">
        <ele>1234.0</ele>
        <time>2020-09-12T08:16:23Z</time>
      </trkpt>
      <trkpt lat="41.0201230" lon="-2.2920620">
        <ele>1234.4</ele>
        <time>2020-09-12T08:16:24Z</time>
      </trkpt>
      <trkpt lat="41.0200920" lon="-2.2920540">
        <ele>1234.6</ele>
        <time>2020-09-12T08:16:25Z</time>
      </trkpt>
      <trkpt lat="41.0200630" lon="-2.2920440">
        <ele>1235.0</ele>
        <time>2020-09-12T08:16:26Z</time>
      </trkpt>
      <trkpt lat="41.0200350" lon="-2.2920350">
        <ele>1235.2</ele>
        <time>2020-09-12T08:16:27Z</time>
      </trkpt>
      <trkpt lat="41.0200090" lon="-2.2920240">
        <ele>1235.4</ele>
        <time>2020-09-12T08:16:28Z</time>
      </trkpt>
      <trkpt lat="41.0199830" lon="-2.2920100">
        <ele>1235.4</ele>
        <time>2020-09-12T08:16:29Z</time>
      </trkpt>
      <trkpt lat="41.0199580" lon="-2.2919920">
        <ele>1235.8</ele>
        <time>2020-09-12T08:16:30Z</time>
      </trkpt>
      <trkpt lat="41.0199350" lon="-2.2919710">
        <ele>1236.0</ele>
        <time>2020-09-12T08:16:31Z</time>
      </trkpt>
      <trkpt lat="41.0199130" lon="-2.2919470">
        <ele>1236.4</ele>
        <time>2020-09-12T08:16:32Z</time>
      </trkpt>
      <trkpt lat="41.0198940" lon="-2.2919170">
        <ele>1236.8</ele>
        <time>2020-09-12T08:16:33Z</time>
      </trkpt>
      <trkpt lat="41.0198800" lon="-2.2918800">
        <ele>1237.0</ele>
        <time>2020-09-12T08:16:34Z</time>
      </trkpt>
      <trkpt lat="41.0198680" lon="-2.2918410">
        <ele>1237.4</ele>
        <time>2020-09-12T08:16:35Z</time>
      </trkpt>
      <trkpt lat="41.0198580" lon="-2.2918010">
        <ele>1237.6</ele>
        <time>2020-09-12T08:16:36Z</time>
      </trkpt>
      <trkpt lat="41.0198490" lon="-2.2917610">
        <ele>1238.0</ele>
        <time>2020-09-12T08:16:37Z</time>
      </trkpt>
      <trkpt lat="41.0198410" lon="-2.2917230">
        <ele>1238.4</ele>
        <time>2020-09-12T08:16:38Z</time>
      </trkpt>
      <trkpt lat="41.0198350" lon="-2.2916820">
        <ele>1238.6</ele>
        <time>2020-09-12T08:16:39Z</time>
      </trkpt>
      <trkpt lat="41.0198310" lon="-2.2916430">
        <ele>1239.0</ele>
        <time>2020-09-12T08:16:40Z</time>
      </trkpt>
      <trkpt lat="41.0198260" lon="-2.2916030">
        <ele>1239.4</ele>
        <time>2020-09-12T08:16:41Z</time>
      </trkpt>
      <trkpt lat="41.0198230" lon="-2.2915620">
        <ele>1239.8</ele>
        <time>2020-09-12T08:16:42Z</time>
      </trkpt>
      <trkpt lat="41.0198180" lon="-2.2915230">
        <ele>1240.0</ele>
        <time>2020-09-12T08:16:43Z</time>
      </trkpt>
      <trkpt lat="41.0198150" lon="-2.2914810">
        <ele>1240.4</ele>
        <time>2020-09-12T08:16:44Z</time>
      </trkpt>
      <trkpt lat="41.0198120" lon="-2.2914380">
        <ele>1240.8</ele>
        <time>2020-09-12T08:16:45Z</time>
      </trkpt>
      <trkpt lat="41.0198080" lon="-2.2913960">
        <ele>1241.2</ele>
        <time>2020-09-12T08:16:46Z</time>
      </trkpt>
      <trkpt lat="41.0198040" lon="-2.2913550">
        <ele>1241.4</ele>
        <time>2020-09-12T08:16:47Z</time>
      </trkpt>
      <trkpt lat="41.0198010" lon="-2.2913150">
        <ele>1241.8</ele>
        <time>2020-09-12T08:16:48Z</time>
      </trkpt>
      <trkpt lat="41.0197990" lon="-2.2912750">
        <ele>1242.0</ele>
        <time>2020-09-12T08:16:49Z</time>
      </trkpt>
      <trkpt lat="41.0197950" lon="-2.2912350">
        <ele>1242.2</ele>
        <time>2020-09-12T08:16:50Z</time>
      </trkpt>
      <trkpt lat="41.0197920" lon="-2.2911950">
        <ele>1242.4</ele>
        <time>2020-09-12T08:16:51Z</time>
      </trkpt>
      <trkpt lat="41.0197900" lon="-2.2911540">
        <ele>1242.6</ele>
        <time>2020-09-12T08:16:52Z</time>
      </trkpt>
      <trkpt lat="41.0197890" lon="-2.2911140">
        <ele>1242.8</ele>
        <time>2020-09-12T08:16:53Z</time>
      </trkpt>
      <trkpt lat="41.0197860" lon="-2.2910750">
        <ele>1243.0</ele>
        <time>2020-09-12T08:16:54Z</time>
      </trkpt>
      <trkpt lat="41.0197800" lon="-2.2910360">
        <ele>1243.2</ele>
        <time>2020-09-12T08:16:55Z</time>
      </trkpt>
      <trkpt lat="41.0197760" lon="-2.2909960">
        <ele>1243.4</ele>
        <time>2020-09-12T08:16:56Z</time>
      </trkpt>
      <trkpt lat="41.0197750" lon="-2.2909570">
        <ele>1243.6</ele>
        <time>2020-09-12T08:16:57Z</time>
      </trkpt>
      <trkpt lat="41.0197720" lon="-2.2909180">
        <ele>1243.8</ele>
        <time>2020-09-12T08:16:58Z</time>
      </trkpt>
      <trkpt lat="41.0197670" lon="-2.2908810">
        <ele>1244.2</ele>
        <time>2020-09-12T08:16:59Z</time>
      </trkpt>
      <trkpt lat="41.0197630" lon="-2.2908440">
        <ele>1244.4</ele>
        <time>2020-09-12T08:17:00Z</time>
      </trkpt>
      <trkpt lat="41.0197590" lon="-2.2908060">
        <ele>1244.6</ele>
        <time>2020-09-12T08:17:01Z</time>
      </trkpt>
      <trkpt lat="41.0197540" lon="-2.2907690">
        <ele>1244.8</ele>
        <time>2020-09-12T08:17:02Z</time>
      </trkpt>
      <trkpt lat="41.0197490" lon="-2.2907340">
        <ele>1244.8</ele>
        <time>2020-09-12T08:17:03Z</time>
      </trkpt>
      <trkpt lat="41.0197420" lon="-2.2906970">
        <ele>1245.0</ele>
        <time>2020-09-12T08:17:04Z</time>
      </trkpt>
      <trkpt lat="41.0197340" lon="-2.2906600">
        <ele>1245.2</ele>
        <time>2020-09-12T08:17:05Z</time>
      </trkpt>
      <trkpt lat="41.0197260" lon="-2.2906200">
        <ele>1245.6</ele>
        <time>2020-09-12T08:17:06Z</time>
      </trkpt>
      <trkpt lat="41.0197160" lon="-2.2905820">
        <ele>1246.0</ele>
        <time>2020-09-12T08:17:07Z</time>
      </trkpt>
      <trkpt lat="41.0197040" lon="-2.2905440">
        <ele>1246.4</ele>
        <time>2020-09-12T08:17:08Z</time>
      </trkpt>
      <trkpt lat="41.0196900" lon="-2.2905090">
        <ele>1246.6</ele>
        <time>2020-09-12T08:17:09Z</time>
      </trkpt>
      <trkpt lat="41.0196730" lon="-2.2904740">
        <ele>1246.8</ele>
        <time>2020-09-12T08:17:10Z</time>
      </trkpt>
      <trkpt lat="41.0196550" lon="-2.2904430">
        <ele>1247.0</ele>
        <time>2020-09-12T08:17:11Z</time>
      </trkpt>
      <trkpt lat="41.0196350" lon="-2.2904110">
        <ele>1247.4</ele>
        <time>2020-09-12T08:17:12Z</time>
      </trkpt>
      <trkpt lat="41.0196140" lon="-2.2903790">
        <ele>1247.6</ele>
        <time>2020-09-12T08:17:13Z</time>
      </trkpt>
      <trkpt lat="41.0195930" lon="-2.2903480">
        <ele>1247.8</ele>
        <time>2020-09-12T08:17:14Z</time>
      </trkpt>
      <trkpt lat="41.0195740" lon="-2.2903160">
        <ele>1248.0</ele>
        <time>2020-09-12T08:17:15Z</time>
      </trkpt>
      <trkpt lat="41.0195540" lon="-2.2902840">
        <ele>1248.2</ele>
        <time>2020-09-12T08:17:16Z</time>
      </trkpt>
      <trkpt lat="41.0195340" lon="-2.2902550">
        <ele>1248.4</ele>
        <time>2020-09-12T08:17:17Z</time>
      </trkpt>
      <trkpt lat="41.0195110" lon="-2.2902270">
        <ele>1248.6</ele>
        <time>2020-09-12T08:17:18Z</time>
      </trkpt>
      <trkpt lat="41.0194900" lon="-2.2902000">
        <ele>1248.8</ele>
        <time>2020-09-12T08:17:19Z</time>
      </trkpt>
      <trkpt lat="41.0194690" lon="-2.2901730">
        <ele>1249.2</ele>
        <time>2020-09-12T08:17:20Z</time>
      </trkpt>
      <trkpt lat="41.0194480" lon="-2.2901460">
        <ele>1249.6</ele>
        <time>2020-09-12T08:17:21Z</time>
      </trkpt>
      <trkpt lat="41.0194270" lon="-2.2901160">
        <ele>1249.8</ele>
        <time>2020-09-12T08:17:22Z</time>
      </trkpt>
      <trkpt lat="41.0194070" lon="-2.2900880">
        <ele>1250.0</ele>
        <time>2020-09-12T08:17:23Z</time>
      </trkpt>
      <trkpt lat="41.0193880" lon="-2.2900590">
        <ele>1250.2</ele>
        <time>2020-09-12T08:17:24Z</time>
      </trkpt>
      <trkpt lat="41.0193690" lon="-2.2900290">
        <ele>1250.4</ele>
        <time>2020-09-12T08:17:25Z</time>
      </trkpt>
      <trkpt lat="41.0193490" lon="-2.2899990">
        <ele>1250.6</ele>
        <time>2020-09-12T08:17:26Z</time>
      </trkpt>
      <trkpt lat="41.0193300" lon="-2.2899690">
        <ele>1251.0</ele>
        <time>2020-09-12T08:17:27Z</time>
      </trkpt>
      <trkpt lat="41.0193110" lon="-2.2899400">
        <ele>1251.2</ele>
        <time>2020-09-12T08:17:28Z</time>
      </trkpt>
      <trkpt lat="41.0192900" lon="-2.2899120">
        <ele>1251.6</ele>
        <time>2020-09-12T08:17:29Z</time>
      </trkpt>
      <trkpt lat="41.0192680" lon="-2.2898860">
        <ele>1251.6</ele>
        <time>2020-09-12T08:17:30Z</time>
      </trkpt>
      <trkpt lat="41.0192470" lon="-2.2898590">
        <ele>1251.8</ele>
        <time>2020-09-12T08:17:31Z</time>
      </trkpt>
      <trkpt lat="41.0192270" lon="-2.2898290">
        <ele>1252.0</ele>
        <time>2020-09-12T08:17:32Z</time>
      </trkpt>
      <trkpt lat="41.0192080" lon="-2.2898000">
        <ele>1252.4</ele>
        <time>2020-09-12T08:17:33Z</time>
      </trkpt>
      <trkpt lat="41.0191890" lon="-2.2897700">
        <ele>1252.6</ele>
        <time>2020-09-12T08:17:34Z</time>
      </trkpt>
      <trkpt lat="41.0191690" lon="-2.2897420">
        <ele>1252.8</ele>
        <time>2020-09-12T08:17:35Z</time>
      </trkpt>
      <trkpt lat="41.0191490" lon="-2.2897150">
        <ele>1253.2</ele>
        <time>2020-09-12T08:17:36Z</time>
      </trkpt>
      <trkpt lat="41.0191270" lon="-2.2896870">
        <ele>1253.4</ele>
        <time>2020-09-12T08:17:37Z</time>
      </trkpt>
      <trkpt lat="41.0191060" lon="-2.2896590">
        <ele>1253.8</ele>
        <time>2020-09-12T08:17:38Z</time>
      </trkpt>
      <trkpt lat="41.0190840" lon="-2.2896300">
        <ele>1254.0</ele>
        <time>2020-09-12T08:17:39Z</time>
      </trkpt>
      <trkpt lat="41.0190630" lon="-2.2896020">
        <ele>1254.2</ele>
        <time>2020-09-12T08:17:40Z</time>
      </trkpt>
      <trkpt lat="41.0190430" lon="-2.2895720">
        <ele>1254.4</ele>
        <time>2020-09-12T08:17:41Z</time>
      </trkpt>
      <trkpt lat="41.0190240" lon="-2.2895420">
        <ele>1254.6</ele>
        <time>2020-09-12T08:17:42Z</time>
      </trkpt>
      <trkpt lat="41.0190060" lon="-2.2895130">
        <ele>1255.0</ele>
        <time>2020-09-12T08:17:43Z</time>
      </trkpt>
      <trkpt lat="41.0189860" lon="-2.2894860">
        <ele>1255.2</ele>
        <time>2020-09-12T08:17:44Z</time>
      </trkpt>
      <trkpt lat="41.0189660" lon="-2.2894570">
        <ele>1255.4</ele>
        <time>2020-09-12T08:17:45Z</time>
      </trkpt>
      <trkpt lat="41.0189450" lon="-2.2894300">
        <ele>1255.6</ele>
        <time>2020-09-12T08:17:46Z</time>
      </trkpt>
      <trkpt lat="41.0189230" lon="-2.2894040">
        <ele>1255.8</ele>
        <time>2020-09-12T08:17:47Z</time>
      </trkpt>
      <trkpt lat="41.0189020" lon="-2.2893760">
        <ele>1255.8</ele>
        <time>2020-09-12T08:17:48Z</time>
      </trkpt>
      <trkpt lat="41.0188830" lon="-2.2893470">
        <ele>1256.0</ele>
        <time>2020-09-12T08:17:49Z</time>
      </trkpt>
      <trkpt lat="41.0188640" lon="-2.2893190">
        <ele>1256.0</ele>
        <time>2020-09-12T08:17:50Z</time>
      </trkpt>
      <trkpt lat="41.0188440" lon="-2.2892910">
        <ele>1256.4</ele>
        <time>2020-09-12T08:17:51Z</time>
      </trkpt>
      <trkpt lat="41.0188250" lon="-2.2892600">
        <ele>1256.6</ele>
        <time>2020-09-12T08:17:52Z</time>
      </trkpt>
      <trkpt lat="41.0188060" lon="-2.2892310">
        <ele>1257.0</ele>
        <time>2020-09-12T08:17:53Z</time>
      </trkpt>
      <trkpt lat="41.0187860" lon="-2.2892030">
        <ele>1257.2</ele>
        <time>2020-09-12T08:17:54Z</time>
      </trkpt>
      <trkpt lat="41.0187650" lon="-2.2891750">
        <ele>1257.4</ele>
        <time>2020-09-12T08:17:55Z</time>
      </trkpt>
      <trkpt lat="41.0187450" lon="-2.2891480">
        <ele>1257.6</ele>
        <time>2020-09-12T08:17:56Z</time>
      </trkpt>
      <trkpt lat="41.0187250" lon="-2.2891210">
        <ele>1258.0</ele>
        <time>2020-09-12T08:17:57Z</time>
      </trkpt>
      <trkpt lat="41.0187050" lon="-2.2890940">
        <ele>1258.2</ele>
        <time>2020-09-12T08:17:58Z</time>
      </trkpt>
      <trkpt lat="41.0186840" lon="-2.2890670">
        <ele>1258.6</ele>
        <time>2020-09-12T08:17:59Z</time>
      </trkpt>
      <trkpt lat="41.0186640" lon="-2.2890390">
        <ele>1258.8</ele>
        <time>2020-09-12T08:18:00Z</time>
      </trkpt>
      <trkpt lat="41.0186450" lon="-2.2890110">
        <ele>1259.0</ele>
        <time>2020-09-12T08:18:01Z</time>
      </trkpt>
      <trkpt lat="41.0186240" lon="-2.2889860">
        <ele>1259.4</ele>
        <time>2020-09-12T08:18:02Z</time>
      </trkpt>
      <trkpt lat="41.0186040" lon="-2.2889600">
        <ele>1259.6</ele>
        <time>2020-09-12T08:18:03Z</time>
      </trkpt>
      <trkpt lat="41.0185840" lon="-2.2889340">
        <ele>1259.8</ele>
        <time>2020-09-12T08:18:04Z</time>
      </trkpt>
      <trkpt lat="41.0185610" lon="-2.2889100">
        <ele>1260.2</ele>
        <time>2020-09-12T08:18:05Z</time>
      </trkpt>
      <trkpt lat="41.0185340" lon="-2.2888930">
        <ele>1260.4</ele>
        <time>2020-09-12T08:18:06Z</time>
      </trkpt>
      <trkpt lat="41.0185040" lon="-2.2888840">
        <ele>1260.6</ele>
        <time>2020-09-12T08:18:07Z</time>
      </trkpt>
      <trkpt lat="41.0184720" lon="-2.2888780">
        <ele>1261.0</ele>
        <time>2020-09-12T08:18:08Z</time>
      </trkpt>
      <trkpt lat="41.0184380" lon="-2.2888820">
        <ele>1261.4</ele>
        <time>2020-09-12T08:18:09Z</time>
      </trkpt>
      <trkpt lat="41.0184050" lon="-2.2889000">
        <ele>1261.6</ele>
        <time>2020-09-12T08:18:10Z</time>
      </trkpt>
      <trkpt lat="41.0183750" lon="-2.2889260">
        <ele>1261.8</ele>
        <time>2020-09-12T08:18:11Z</time>
      </trkpt>
      <trkpt lat="41.0183490" lon="-2.2889610">
        <ele>1262.0</ele>
        <time>2020-09-12T08:18:12Z</time>
      </trkpt>
      <trkpt lat="41.0183270" lon="-2.2890020">
        <ele>1262.0</ele>
        <time>2020-09-12T08:18:13Z</time>
      </trkpt>
      <trkpt lat="41.0183060" lon="-2.2890450">
        <ele>1262.2</ele>
        <time>2020-09-12T08:18:14Z</time>
      </trkpt>
      <trkpt lat="41.0182850" lon="-2.2890900">
        <ele>1262.2</ele>
        <time>2020-09-12T08:18:15Z</time>
      </trkpt>
      <trkpt lat="41.0182640" lon="-2.2891370">
        <ele>1262.6</ele>
        <time>2020-09-12T08:18:16Z</time>
      </trkpt>
      <trkpt lat="41.0182430" lon="-2.2891850">
        <ele>1262.6</ele>
        <time>2020-09-12T08:18:17Z</time>
      </trkpt>
      <trkpt lat="41.0182210" lon="-2.2892340">
        <ele>1262.8</ele>
        <time>2020-09-12T08:18:18Z</time>
      </trkpt>
      <trkpt lat="41.0182000" lon="-2.2892820">
        <ele>1262.8</ele>
        <time>2020-09-12T08:18:19Z</time>
      </trkpt>
      <trkpt lat="41.0181800" lon="-2.2893300">
        <ele>1262.8</ele>
        <time>2020-09-12T08:18:20Z</time>
      </trkpt>
      <trkpt lat="41.0181590" lon="-2.2893780">
        <ele>1263.0</ele>
        <time>2020-09-12T08:18:21Z</time>
      </trkpt>
      <trkpt lat="41.0181390" lon="-2.2894250">
        <ele>1263.0</ele>
        <time>2020-09-12T08:18:22Z</time>
      </trkpt>
      <trkpt lat="41.0181190" lon="-2.2894690">
        <ele>1263.0</ele>
        <time>2020-09-12T08:18:23Z</time>
      </trkpt>
      <trkpt lat="41.0180990" lon="-2.2895130">
        <ele>1263.2</ele>
        <time>2020-09-12T08:18:24Z</time>
      </trkpt>
      <trkpt lat="41.0180770" lon="-2.2895550">
        <ele>1263.2</ele>
        <time>2020-09-12T08:18:25Z</time>
      </trkpt>
      <trkpt lat="41.0180560" lon="-2.2895990">
        <ele>1263.2</ele>
        <time>2020-09-12T08:18:26Z</time>
      </trkpt>
      <trkpt lat="41.0180340" lon="-2.2896450">
        <ele>1263.2</ele>
        <time>2020-09-12T08:18:27Z</time>
      </trkpt>
      <trkpt lat="41.0180140" lon="-2.2896920">
        <ele>1263.2</ele>
        <time>2020-09-12T08:18:28Z</time>
      </trkpt>
      <trkpt lat="41.0179930" lon="-2.2897380">
        <ele>1263.2</ele>
        <time>2020-09-12T08:18:29Z</time>
      </trkpt>
      <trkpt lat="41.0179710" lon="-2.2897830">
        <ele>1263.2</ele>
        <time>2020-09-12T08:18:30Z</time>
      </trkpt>
      <trkpt lat="41.0179500" lon="-2.2898260">
        <ele>1263.2</ele>
        <time>2020-09-12T08:18:31Z</time>
      </trkpt>
      <trkpt lat="41.0179260" lon="-2.2898690">
        <ele>1263.2</ele>
        <time>2020-09-12T08:18:32Z</time>
      </trkpt>
      <trkpt lat="41.0179010" lon="-2.2899140">
        <ele>1263.2</ele>
        <time>2020-09-12T08:18:33Z</time>
      </trkpt>
      <trkpt lat="41.0178750" lon="-2.2899610">
        <ele>1263.2</ele>
        <time>2020-09-12T08:18:34Z</time>
      </trkpt>
      <trkpt lat="41.0178510" lon="-2.2900080">
        <ele>1263.2</ele>
        <time>2020-09-12T08:18:35Z</time>
      </trkpt>
      <trkpt lat="41.0178250" lon="-2.2900560">
        <ele>1263.2</ele>
        <time>2020-09-12T08:18:36Z</time>
      </trkpt>
      <trkpt lat="41.0177990" lon="-2.2901040">
        <ele>1263.2</ele>
        <time>2020-09-12T08:18:37Z</time>
      </trkpt>
      <trkpt lat="41.0177710" lon="-2.2901520">
        <ele>1263.2</ele>
        <time>2020-09-12T08:18:38Z</time>
      </trkpt>
      <trkpt lat="41.0177420" lon="-2.2902000">
        <ele>1263.2</ele>
        <time>2020-09-12T08:18:39Z</time>
      </trkpt>
      <trkpt lat="41.0177130" lon="-2.2902510">
        <ele>1263.2</ele>
        <time>2020-09-12T08:18:40Z</time>
      </trkpt>
      <trkpt lat="41.0176820" lon="-2.2903030">
        <ele>1263.0</ele>
        <time>2020-09-12T08:18:41Z</time>
      </trkpt>
      <trkpt lat="41.0176500" lon="-2.2903550">
        <ele>1263.0</ele>
        <time>2020-09-12T08:18:42Z</time>
      </trkpt>
      <trkpt lat="41.0176170" lon="-2.2904080">
        <ele>1263.0</ele>
        <time>2020-09-12T08:18:43Z</time>
      </trkpt>
      <trkpt lat="41.0175850" lon="-2.2904610">
        <ele>1263.0</ele>
        <time>2020-09-12T08:18:44Z</time>
      </trkpt>
      <trkpt lat="41.0175520" lon="-2.2905130">
        <ele>1263.0</ele>
        <time>2020-09-12T08:18:45Z</time>
      </trkpt>
      <trkpt lat="41.0175200" lon="-2.2905630">
        <ele>1263.0</ele>
        <time>2020-09-12T08:18:46Z</time>
      </trkpt>
      <trkpt lat="41.0174870" lon="-2.2906140">
        <ele>1263.0</ele>
        <time>2020-09-12T08:18:47Z</time>
      </trkpt>
      <trkpt lat="41.0174540" lon="-2.2906640">
        <ele>1263.0</ele>
        <time>2020-09-12T08:18:48Z</time>
      </trkpt>
      <trkpt lat="41.0174210" lon="-2.2907130">
        <ele>1263.0</ele>
        <time>2020-09-12T08:18:49Z</time>
      </trkpt>
      <trkpt lat="41.0173860" lon="-2.2907620">
        <ele>1263.2</ele>
        <time>2020-09-12T08:18:50Z</time>
      </trkpt>
      <trkpt lat="41.0173520" lon="-2.2908090">
        <ele>1263.4</ele>
        <time>2020-09-12T08:18:51Z</time>
      </trkpt>
      <trkpt lat="41.0173150" lon="-2.2908540">
        <ele>1263.6</ele>
        <time>2020-09-12T08:18:52Z</time>
      </trkpt>
      <trkpt lat="41.0172750" lon="-2.2908970">
        <ele>1263.6</ele>
        <time>2020-09-12T08:18:53Z</time>
      </trkpt>
      <trkpt lat="41.0172320" lon="-2.2909370">
        <ele>1263.6</ele>
        <time>2020-09-12T08:18:54Z</time>
      </trkpt>
      <trkpt lat="41.0171840" lon="-2.2909700">
        <ele>1263.6</ele>
        <time>2020-09-12T08:18:55Z</time>
      </trkpt>
      <trkpt lat="41.0171290" lon="-2.2909950">
        <ele>1263.6</ele>
        <time>2020-09-12T08:18:56Z</time>
      </trkpt>
      <trkpt lat="41.0170710" lon="-2.2910120">
        <ele>1263.6</ele>
        <time>2020-09-12T08:18:57Z</time>
      </trkpt>
      <trkpt lat="41.0170080" lon="-2.2910230">
        <ele>1263.6</ele>
        <time>2020-09-12T08:18:58Z</time>
      </trkpt>
      <trkpt lat="41.0169430" lon="-2.2910290">
        <ele>1263.4</ele>
        <time>2020-09-12T08:18:59Z</time>
      </trkpt>
      <trkpt lat="41.0168750" lon="-2.2910360">
        <ele>1263.4</ele>
        <time>2020-09-12T08:19:00Z</time>
      </trkpt>
      <trkpt lat="41.0168040" lon="-2.2910430">
        <ele>1263.2</ele>
        <time>2020-09-12T08:19:01Z</time>
      </trkpt>
      <trkpt lat="41.0167300" lon="-2.2910480">
        <ele>1263.0</ele>
        <time>2020-09-12T08:19:02Z</time>
      </trkpt>
      <trkpt lat="41.0166530" lon="-2.2910520">
        <ele>1262.8</ele>
        <time>2020-09-12T08:19:03Z</time>
      </trkpt>
      <trkpt lat="41.0165730" lon="-2.2910550">
        <ele>1262.6</ele>
        <time>2020-09-12T08:19:04Z</time>
      </trkpt>
      <trkpt lat="41.0164910" lon="-2.2910570">
        <ele>1262.4</ele>
        <time>2020-09-12T08:19:05Z</time>
      </trkpt>
      <trkpt lat="41.0164080" lon="-2.2910630">
        <ele>1262.2</ele>
        <time>2020-09-12T08:19:06Z</time>
      </trkpt>
      <trkpt lat="41.0163250" lon="-2.2910730">
        <ele>1262.0</ele>
        <time>2020-09-12T08:19:07Z</time>
      </trkpt>
      <trkpt lat="41.0162430" lon="-2.2910840">
        <ele>1261.8</ele>
        <time>2020-09-12T08:19:08Z</time>
      </trkpt>
      <trkpt lat="41.0161600" lon="-2.2910920">
        <ele>1261.6</ele>
        <time>2020-09-12T08:19:09Z</time>
      </trkpt>
      <trkpt lat="41.0160790" lon="-2.2910990">
        <ele>1261.4</ele>
        <time>2020-09-12T08:19:10Z</time>
      </trkpt>
      <trkpt lat="41.0159970" lon="-2.2911080">
        <ele>1261.6</ele>
        <time>2020-09-12T08:19:11Z</time>
      </trkpt>
      <trkpt lat="41.0159160" lon="-2.2911140">
        <ele>1261.4</ele>
        <time>2020-09-12T08:19:12Z</time>
      </trkpt>
      <trkpt lat="41.0158360" lon="-2.2911220">
        <ele>1261.4</ele>
        <time>2020-09-12T08:19:13Z</time>
      </trkpt>
      <trkpt lat="41.0157570" lon="-2.2911310">
        <ele>1261.4</ele>
        <time>2020-09-12T08:19:14Z</time>
      </trkpt>
      <trkpt lat="41.0156790" lon="-2.2911410">
        <ele>1261.4</ele>
        <time>2020-09-12T08:19:15Z</time>
      </trkpt>
      <trkpt lat="41.0156030" lon="-2.2911510">
        <ele>1261.4</ele>
        <time>2020-09-12T08:19:16Z</time>
      </trkpt>
      <trkpt lat="41.0155280" lon="-2.2911620">
        <ele>1261.6</ele>
        <time>2020-09-12T08:19:17Z</time>
      </trkpt>
      <trkpt lat="41.0154540" lon="-2.2911770">
        <ele>1261.6</ele>
        <time>2020-09-12T08:19:18Z</time>
      </trkpt>
      <trkpt lat="41.0153810" lon="-2.2911910">
        <ele>1261.6</ele>
        <time>2020-09-12T08:19:19Z</time>
      </trkpt>
      <trkpt lat="41.0153090" lon="-2.2912040">
        <ele>1261.4</ele>
        <time>2020-09-12T08:19:20Z</time>
      </trkpt>
      <trkpt lat="41.0152380" lon="-2.2912150">
        <ele>1261.2</ele>
        <time>2020-09-12T08:19:21Z</time>
      </trkpt>
      <trkpt lat="41.0151680" lon="-2.2912250">
        <ele>1261.0</ele>
        <time>2020-09-12T08:19:22Z</time>
      </trkpt>
      <trkpt lat="41.0150980" lon="-2.2912360">
        <ele>1261.0</ele>
        <time>2020-09-12T08:19:23Z</time>
      </trkpt>
      <trkpt lat="41.0150300" lon="-2.2912480">
        <ele>1260.8</ele>
        <time>2020-09-12T08:19:24Z</time>
      </trkpt>
      <trkpt lat="41.0149610" lon="-2.2912600">
        <ele>1260.8</ele>
        <time>2020-09-12T08:19:25Z</time>
      </trkpt>
      <trkpt lat="41.0148930" lon="-2.2912730">
        <ele>1261.0</ele>
        <time>2020-09-12T08:19:26Z</time>
      </trkpt>
      <trkpt lat="41.0148250" lon="-2.2912860">
        <ele>1261.2</ele>
        <time>2020-09-12T08:19:27Z</time>
      </trkpt>
      <trkpt lat="41.0147590" lon="-2.2912990">
        <ele>1261.6</ele>
        <time>2020-09-12T08:19:28Z</time>
      </trkpt>
      <trkpt lat="41.0146930" lon="-2.2913120">
        <ele>1261.6</ele>
        <time>2020-09-12T08:19:29Z</time>
      </trkpt>
      <trkpt lat="41.0146270" lon="-2.2913270">
        <ele>1261.6</ele>
        <time>2020-09-12T08:19:30Z</time>
      </trkpt>
      <trkpt lat="41.0145620" lon="-2.2913400">
        <ele>1261.6</ele>
        <time>2020-09-12T08:19:31Z</time>
      </trkpt>
      <trkpt lat="41.0144980" lon="-2.2913550">
        <ele>1261.6</ele>
        <time>2020-09-12T08:19:32Z</time>
      </trkpt>
      <trkpt lat="41.0144350" lon="-2.2913720">
        <ele>1261.6</ele>
        <time>2020-09-12T08:19:33Z</time>
      </trkpt>
      <trkpt lat="41.0143720" lon="-2.2913870">
        <ele>1261.6</ele>
        <time>2020-09-12T08:19:34Z</time>
      </trkpt>
      <trkpt lat="41.0143100" lon="-2.2914040">
        <ele>1261.6</ele>
        <time>2020-09-12T08:19:35Z</time>
      </trkpt>
      <trkpt lat="41.0142470" lon="-2.2914260">
        <ele>1261.6</ele>
        <time>2020-09-12T08:19:36Z</time>
      </trkpt>
      <trkpt lat="41.0141860" lon="-2.2914520">
        <ele>1261.8</ele>
        <time>2020-09-12T08:19:37Z</time>
      </trkpt>
      <trkpt lat="41.0141250" lon="-2.2914830">
        <ele>1262.0</ele>
        <time>2020-09-12T08:19:38Z</time>
      </trkpt>
      <trkpt lat="41.0140640" lon="-2.2915170">
        <ele>1262.0</ele>
        <time>2020-09-12T08:19:39Z</time>
      </trkpt>
      <trkpt lat="41.0140040" lon="-2.2915540">
        <ele>1262.2</ele>
        <time>2020-09-12T08:19:40Z</time>
      </trkpt>
      <trkpt lat="41.0139440" lon="-2.2915900">
        <ele>1262.2</ele>
        <time>2020-09-12T08:19:41Z</time>
      </trkpt>
      <trkpt lat="41.0138830" lon="-2.2916270">
        <ele>1262.2</ele>
        <time>2020-09-12T08:19:42Z</time>
      </trkpt>
      <trkpt lat="41.0138220" lon="-2.2916640">
        <ele>1262.2</ele>
        <time>2020-09-12T08:19:43Z</time>
      </trkpt>
      <trkpt lat="41.0137580" lon="-2.2916970">
        <ele>1262.0</ele>
        <time>2020-09-12T08:19:44Z</time>
      </trkpt>
      <trkpt lat="41.0136940" lon="-2.2917260">
        <ele>1262.0</ele>
        <time>2020-09-12T08:19:45Z</time>
      </trkpt>
      <trkpt lat="41.0136280" lon="-2.2917510">
        <ele>1261.8</ele>
        <time>2020-09-12T08:19:46Z</time>
      </trkpt>
      <trkpt lat="41.0135630" lon="-2.2917740">
        <ele>1261.8</ele>
        <time>2020-09-12T08:19:47Z</time>
      </trkpt>
      <trkpt lat="41.0134960" lon="-2.2917950">
        <ele>1261.8</ele>
        <time>2020-09-12T08:19:48Z</time>
      </trkpt>
      <trkpt lat="41.0134300" lon="-2.2918140">
        <ele>1262.0</ele>
        <time>2020-09-12T08:19:49Z</time>
      </trkpt>
      <trkpt lat="41.0133650" lon="-2.2918330">
        <ele>1262.2</ele>
        <time>2020-09-12T08:19:50Z</time>
      </trkpt>
      <trkpt lat="41.0132990" lon="-2.2918510">
        <ele>1262.2</ele>
        <time>2020-09-12T08:19:51Z</time>
      </trkpt>
      <trkpt lat="41.0132330" lon="-2.2918680">
        <ele>1262.4</ele>
        <time>2020-09-12T08:19:52Z</time>
      </trkpt>
      <trkpt lat="41.0131680" lon="-2.2918870">
        <ele>1262.4</ele>
        <time>2020-09-12T08:19:53Z</time>
      </trkpt>
      <trkpt lat="41.0131050" lon="-2.2919070">
        <ele>1262.4</ele>
        <time>2020-09-12T08:19:54Z</time>
      </trkpt>
      <trkpt lat="41.0130430" lon="-2.2919240">
        <ele>1262.4</ele>
        <time>2020-09-12T08:19:55Z</time>
      </trkpt>
      <trkpt lat="41.0129840" lon="-2.2919410">
        <ele>1262.4</ele>
        <time>2020-09-12T08:19:56Z</time>
      </trkpt>
      <trkpt lat="41.0129280" lon="-2.2919570">
        <ele>1262.6</ele>
        <time>2020-09-12T08:19:57Z</time>
      </trkpt>
      <trkpt lat="41.0128730" lon="-2.2919740">
        <ele>1262.8</ele>
        <time>2020-09-12T08:19:58Z</time>
      </trkpt>
      <trkpt lat="41.0128210" lon="-2.2919910">
        <ele>1263.0</ele>
        <time>2020-09-12T08:19:59Z</time>
      </trkpt>
      <trkpt lat="41.0127690" lon="-2.2920070">
        <ele>1263.0</ele>
        <time>2020-09-12T08:20:00Z</time>
      </trkpt>
      <trkpt lat="41.0127200" lon="-2.2920240">
        <ele>1263.4</ele>
        <time>2020-09-12T08:20:01Z</time>
      </trkpt>
      <trkpt lat="41.0126730" lon="-2.2920450">
        <ele>1263.6</ele>
        <time>2020-09-12T08:20:02Z</time>
      </trkpt>
      <trkpt lat="41.0126270" lon="-2.2920700">
        <ele>1264.0</ele>
        <time>2020-09-12T08:20:03Z</time>
      </trkpt>
      <trkpt lat="41.0125830" lon="-2.2921010">
        <ele>1264.0</ele>
        <time>2020-09-12T08:20:04Z</time>
      </trkpt>
      <trkpt lat="41.0125390" lon="-2.2921350">
        <ele>1264.2</ele>
        <time>2020-09-12T08:20:05Z</time>
      </trkpt>
      <trkpt lat="41.0124950" lon="-2.2921690">
        <ele>1264.4</ele>
        <time>2020-09-12T08:20:06Z</time>
      </trkpt>
      <trkpt lat="41.0124510" lon="-2.2922060">
        <ele>1264.8</ele>
        <time>2020-09-12T08:20:07Z</time>
      </trkpt>
      <trkpt lat="41.0124100" lon="-2.2922420">
        <ele>1265.0</ele>
        <time>2020-09-12T08:20:08Z</time>
      </trkpt>
      <trkpt lat="41.0123690" lon="-2.2922810">
        <ele>1265.4</ele>
        <time>2020-09-12T08:20:09Z</time>
      </trkpt>
      <trkpt lat="41.0123270" lon="-2.2923250">
        <ele>1265.4</ele>
        <time>2020-09-12T08:20:10Z</time>
      </trkpt>
      <trkpt lat="41.0122850" lon="-2.2923710">
        <ele>1265.6</ele>
        <time>2020-09-12T08:20:11Z</time>
      </trkpt>
      <trkpt lat="41.0122440" lon="-2.2924240">
        <ele>1265.4</ele>
        <time>2020-09-12T08:20:12Z</time>
      </trkpt>
      <trkpt lat="41.0122040" lon="-2.2924850">
        <ele>1265.4</ele>
        <time>2020-09-12T08:20:13Z</time>
      </trkpt>
      <trkpt lat="41.0121610" lon="-2.2925510">
        <ele>1265.4</ele>
        <time>2020-09-12T08:20:14Z</time>
      </trkpt>
      <trkpt lat="41.0121150" lon="-2.2926180">
        <ele>1265.4</ele>
        <time>2020-09-12T08:20:15Z</time>
      </trkpt>
      <trkpt lat="41.0120700" lon="-2.2926910">
        <ele>1265.4</ele>
        <time>2020-09-12T08:20:16Z</time>
      </trkpt>
      <trkpt lat="41.0120260" lon="-2.2927680">
        <ele>1265.4</ele>
        <time>2020-09-12T08:20:17Z</time>
      </trkpt>
      <trkpt lat="41.0119830" lon="-2.2928480">
        <ele>1265.2</ele>
        <time>2020-09-12T08:20:18Z</time>
      </trkpt>
      <trkpt lat="41.0119410" lon="-2.2929310">
        <ele>1265.0</ele>
        <time>2020-09-12T08:20:19Z</time>
      </trkpt>
      <trkpt lat="41.0119010" lon="-2.2930150">
        <ele>1264.8</ele>
        <time>2020-09-12T08:20:20Z</time>
      </trkpt>
      <trkpt lat="41.0118620" lon="-2.2931000">
        <ele>1264.4</ele>
        <time>2020-09-12T08:20:21Z</time>
      </trkpt>
      <trkpt lat="41.0118260" lon="-2.2931870">
        <ele>1264.2</ele>
        <time>2020-09-12T08:20:22Z</time>
      </trkpt>
      <trkpt lat="41.0117950" lon="-2.2932760">
        <ele>1263.8</ele>
        <time>2020-09-12T08:20:23Z</time>
      </trkpt>
      <trkpt lat="41.0117690" lon="-2.2933700">
        <ele>1263.6</ele>
        <time>2020-09-12T08:20:24Z</time>
      </trkpt>
      <trkpt lat="41.0117480" lon="-2.2934670">
        <ele>1263.4</ele>
        <time>2020-09-12T08:20:25Z</time>
      </trkpt>
      <trkpt lat="41.0117310" lon="-2.2935650">
        <ele>1263.4</ele>
        <time>2020-09-12T08:20:26Z</time>
      </trkpt>
      <trkpt lat="41.0117150" lon="-2.2936620">
        <ele>1263.2</ele>
        <time>2020-09-12T08:20:27Z</time>
      </trkpt>
      <trkpt lat="41.0117000" lon="-2.2937590">
        <ele>1263.2</ele>
        <time>2020-09-12T08:20:28Z</time>
      </trkpt>
      <trkpt lat="41.0116850" lon="-2.2938550">
        <ele>1263.2</ele>
        <time>2020-09-12T08:20:29Z</time>
      </trkpt>
      <trkpt lat="41.0116720" lon="-2.2939510">
        <ele>1263.2</ele>
        <time>2020-09-12T08:20:30Z</time>
      </trkpt>
      <trkpt lat="41.0116590" lon="-2.2940470">
        <ele>1263.2</ele>
        <time>2020-09-12T08:20:31Z</time>
      </trkpt>
      <trkpt lat="41.0116460" lon="-2.2941450">
        <ele>1263.2</ele>
        <time>2020-09-12T08:20:32Z</time>
      </trkpt>
      <trkpt lat="41.0116330" lon="-2.2942430">
        <ele>1263.2</ele>
        <time>2020-09-12T08:20:33Z</time>
      </trkpt>
      <trkpt lat="41.0116200" lon="-2.2943410">
        <ele>1263.4</ele>
        <time>2020-09-12T08:20:34Z</time>
      </trkpt>
      <trkpt lat="41.0116070" lon="-2.2944400">
        <ele>1263.2</ele>
        <time>2020-09-12T08:20:35Z</time>
      </trkpt>
      <trkpt lat="41.0115950" lon="-2.2945400">
        <ele>1263.4</ele>
        <time>2020-09-12T08:20:36Z</time>
      </trkpt>
      <trkpt lat="41.0115830" lon="-2.2946390">
        <ele>1263.4</ele>
        <time>2020-09-12T08:20:37Z</time>
      </trkpt>
      <trkpt lat="41.0115700" lon="-2.2947390">
        <ele>1263.2</ele>
        <time>2020-09-12T08:20:38Z</time>
      </trkpt>
      <trkpt lat="41.0115580" lon="-2.2948410">
        <ele>1263.2</ele>
        <time>2020-09-12T08:20:39Z</time>
      </trkpt>
      <trkpt lat="41.0115450" lon="-2.2949430">
        <ele>1263.0</ele>
        <time>2020-09-12T08:20:40Z</time>
      </trkpt>
      <trkpt lat="41.0115320" lon="-2.2950460">
        <ele>1262.8</ele>
        <time>2020-09-12T08:20:41Z</time>
      </trkpt>
      <trkpt lat="41.0115180" lon="-2.2951490">
        <ele>1262.6</ele>
        <time>2020-09-12T08:20:42Z</time>
      </trkpt>
      <trkpt lat="41.0115040" lon="-2.2952520">
        <ele>1262.0</ele>
        <time>2020-09-12T08:20:43Z</time>
      </trkpt>
      <trkpt lat="41.0114910" lon="-2.2953570">
        <ele>1261.4</ele>
        <time>2020-09-12T08:20:44Z</time>
      </trkpt>
      <trkpt lat="41.0114770" lon="-2.2954630">
        <ele>1261.0</ele>
        <time>2020-09-12T08:20:45Z</time>
      </trkpt>
      <trkpt lat="41.0114640" lon="-2.2955710">
        <ele>1260.8</ele>
        <time>2020-09-12T08:20:46Z</time>
      </trkpt>
      <trkpt lat="41.0114490" lon="-2.2956790">
        <ele>1260.6</ele>
        <time>2020-09-12T08:20:47Z</time>
      </trkpt>
      <trkpt lat="41.0114340" lon="-2.2957870">
        <ele>1260.6</ele>
        <time>2020-09-12T08:20:48Z</time>
      </trkpt>
      <trkpt lat="41.0114210" lon="-2.2958950">
        <ele>1260.4</ele>
        <time>2020-09-12T08:20:49Z</time>
      </trkpt>
      <trkpt lat="41.0114090" lon="-2.2960050">
        <ele>1260.2</ele>
        <time>2020-09-12T08:20:50Z</time>
      </trkpt>
      <trkpt lat="41.0113940" lon="-2.2961170">
        <ele>1260.2</ele>
        <time>2020-09-12T08:20:51Z</time>
      </trkpt>
      <trkpt lat="41.0113790" lon="-2.2962300">
        <ele>1260.0</ele>
        <time>2020-09-12T08:20:52Z</time>
      </trkpt>
      <trkpt lat="41.0113640" lon="-2.2963420">
        <ele>1259.6</ele>
        <time>2020-09-12T08:20:53Z</time>
      </trkpt>
      <trkpt lat="41.0113490" lon="-2.2964530">
        <ele>1259.4</ele>
        <time>2020-09-12T08:20:54Z</time>
      </trkpt>
      <trkpt lat="41.0113350" lon="-2.2965640">
        <ele>1259.2</ele>
        <time>2020-09-12T08:20:55Z</time>
      </trkpt>
      <trkpt lat="41.0113240" lon="-2.2966730">
        <ele>1259.0</ele>
        <time>2020-09-12T08:20:56Z</time>
      </trkpt>
      <trkpt lat="41.0113110" lon="-2.2967810">
        <ele>1258.8</ele>
        <time>2020-09-12T08:20:57Z</time>
      </trkpt>
      <trkpt lat="41.0112940" lon="-2.2968860">
        <ele>1258.8</ele>
        <time>2020-09-12T08:20:58Z</time>
      </trkpt>
      <trkpt lat="41.0112720" lon="-2.2969880">
        <ele>1258.8</ele>
        <time>2020-09-12T08:20:59Z</time>
      </trkpt>
      <trkpt lat="41.0112420" lon="-2.2970850">
        <ele>1258.8</ele>
        <time>2020-09-12T08:21:00Z</time>
      </trkpt>
      <trkpt lat="41.0112030" lon="-2.2971770">
        <ele>1258.6</ele>
        <time>2020-09-12T08:21:01Z</time>
      </trkpt>
      <trkpt lat="41.0111550" lon="-2.2972630">
        <ele>1258.2</ele>
        <time>2020-09-12T08:21:02Z</time>
      </trkpt>
      <trkpt lat="41.0111020" lon="-2.2973440">
        <ele>1258.0</ele>
        <time>2020-09-12T08:21:03Z</time>
      </trkpt>
      <trkpt lat="41.0110450" lon="-2.2974250">
        <ele>1257.6</ele>
        <time>2020-09-12T08:21:04Z</time>
      </trkpt>
      <trkpt lat="41.0109860" lon="-2.2975080">
        <ele>1257.4</ele>
        <time>2020-09-12T08:21:05Z</time>
      </trkpt>
      <trkpt lat="41.0109260" lon="-2.2975900">
        <ele>1257.0</ele>
        <time>2020-09-12T08:21:06Z</time>
      </trkpt>
      <trkpt lat="41.0108650" lon="-2.2976730">
        <ele>1256.8</ele>
        <time>2020-09-12T08:21:07Z</time>
      </trkpt>
      <trkpt lat="41.0108030" lon="-2.2977600">
        <ele>1256.6</ele>
        <time>2020-09-12T08:21:08Z</time>
      </trkpt>
      <trkpt lat="41.0107400" lon="-2.2978490">
        <ele>1256.4</ele>
        <time>2020-09-12T08:21:09Z</time>
      </trkpt>
      <trkpt lat="41.0106760" lon="-2.2979410">
        <ele>1255.8</ele>
        <time>2020-09-12T08:21:10Z</time>
      </trkpt>
      <trkpt lat="41.0106100" lon="-2.2980330">
        <ele>1255.4</ele>
        <time>2020-09-12T08:21:11Z</time>
      </trkpt>
      <trkpt lat="41.0105440" lon="-2.2981270">
        <ele>1254.8</ele>
        <time>2020-09-12T08:21:12Z</time>
      </trkpt>
      <trkpt lat="41.0104770" lon="-2.2982210">
        <ele>1254.4</ele>
        <time>2020-09-12T08:21:13Z</time>
      </trkpt>
      <trkpt lat="41.0104100" lon="-2.2983170">
        <ele>1254.0</ele>
        <time>2020-09-12T08:21:14Z</time>
      </trkpt>
      <trkpt lat="41.0103430" lon="-2.2984140">
        <ele>1253.6</ele>
        <time>2020-09-12T08:21:15Z</time>
      </trkpt>
      <trkpt lat="41.0102770" lon="-2.2985100">
        <ele>1253.4</ele>
        <time>2020-09-12T08:21:16Z</time>
      </trkpt>
      <trkpt lat="41.0102100" lon="-2.2986080">
        <ele>1253.2</ele>
        <time>2020-09-12T08:21:17Z</time>
      </trkpt>
      <trkpt lat="41.0101410" lon="-2.2987070">
        <ele>1252.8</ele>
        <time>2020-09-12T08:21:18Z</time>
      </trkpt>
      <trkpt lat="41.0100700" lon="-2.2988070">
        <ele>1252.0</ele>
        <time>2020-09-12T08:21:19Z</time>
      </trkpt>
      <trkpt lat="41.0100000" lon="-2.2989090">
        <ele>1251.4</ele>
        <time>2020-09-12T08:21:20Z</time>
      </trkpt>
      <trkpt lat="41.0099280" lon="-2.2990110">
        <ele>1251.0</ele>
        <time>2020-09-12T08:21:21Z</time>
      </trkpt>
      <trkpt lat="41.0098550" lon="-2.2991160">
        <ele>1250.6</ele>
        <time>2020-09-12T08:21:22Z</time>
      </trkpt>
      <trkpt lat="41.0097820" lon="-2.2992230">
        <ele>1250.2</ele>
        <time>2020-09-12T08:21:23Z</time>
      </trkpt>
      <trkpt lat="41.0097100" lon="-2.2993270">
        <ele>1249.6</ele>
        <time>2020-09-12T08:21:24Z</time>
      </trkpt>
      <trkpt lat="41.0096350" lon="-2.2994330">
        <ele>1249.4</ele>
        <time>2020-09-12T08:21:25Z</time>
      </trkpt>
      <trkpt lat="41.0095630" lon="-2.2995380">
        <ele>1248.8</ele>
        <time>2020-09-12T08:21:26Z</time>
      </trkpt>
      <trkpt lat="41.0094940" lon="-2.2996420">
        <ele>1248.0</ele>
        <time>2020-09-12T08:21:27Z</time>
      </trkpt>
      <trkpt lat="41.0094250" lon="-2.2997430">
        <ele>1247.4</ele>
        <time>2020-09-12T08:21:28Z</time>
      </trkpt>
      <trkpt lat="41.0093560" lon="-2.2998410">
        <ele>1246.8</ele>
        <time>2020-09-12T08:21:29Z</time>
      </trkpt>
      <trkpt lat="41.0092210" lon="-2.3000340">
        <ele>1246.0</ele>
        <time>2020-09-12T08:21:31Z</time>
      </trkpt>
      <trkpt lat="41.0091550" lon="-2.3001300">
        <ele>1245.8</ele>
        <time>2020-09-12T08:21:32Z</time>
      </trkpt>
      <trkpt lat="41.0089020" lon="-2.3004900">
        <ele>1244.8</ele>
        <time>2020-09-12T08:21:36Z</time>
      </trkpt>
      <trkpt lat="41.0087810" lon="-2.3006630">
        <ele>1244.0</ele>
        <time>2020-09-12T08:21:38Z</time>
      </trkpt>
      <trkpt lat="41.0087220" lon="-2.3007480">
        <ele>1243.8</ele>
        <time>2020-09-12T08:21:39Z</time>
      </trkpt>
      <trkpt lat="41.0086650" lon="-2.3008330">
        <ele>1243.8</ele>
        <time>2020-09-12T08:21:40Z</time>
      </trkpt>
      <trkpt lat="41.0086080" lon="-2.3009160">
        <ele>1243.8</ele>
        <time>2020-09-12T08:21:41Z</time>
      </trkpt>
      <trkpt lat="41.0085510" lon="-2.3009980">
        <ele>1243.6</ele>
        <time>2020-09-12T08:21:42Z</time>
      </trkpt>
      <trkpt lat="41.0084950" lon="-2.3010790">
        <ele>1243.6</ele>
        <time>2020-09-12T08:21:43Z</time>
      </trkpt>
      <trkpt lat="41.0084400" lon="-2.3011580">
        <ele>1243.8</ele>
        <time>2020-09-12T08:21:44Z</time>
      </trkpt>
      <trkpt lat="41.0083870" lon="-2.3012350">
        <ele>1244.0</ele>
        <time>2020-09-12T08:21:45Z</time>
      </trkpt>
      <trkpt lat="41.0083340" lon="-2.3013090">
        <ele>1244.2</ele>
        <time>2020-09-12T08:21:46Z</time>
      </trkpt>
      <trkpt lat="41.0082830" lon="-2.3013810">
        <ele>1244.4</ele>
        <time>2020-09-12T08:21:47Z</time>
      </trkpt>
      <trkpt lat="41.0082340" lon="-2.3014490">
        <ele>1244.6</ele>
        <time>2020-09-12T08:21:48Z</time>
      </trkpt>
      <trkpt lat="41.0081900" lon="-2.3015120">
        <ele>1244.6</ele>
        <time>2020-09-12T08:21:49Z</time>
      </trkpt>
      <trkpt lat="41.0081480" lon="-2.3015730">
        <ele>1244.8</ele>
        <time>2020-09-12T08:21:50Z</time>
      </trkpt>
      <trkpt lat="41.0081080" lon="-2.3016300">
        <ele>1245.0</ele>
        <time>2020-09-12T08:21:51Z</time>
      </trkpt>
      <trkpt lat="41.0080700" lon="-2.3016830">
        <ele>1245.2</ele>
        <time>2020-09-12T08:21:52Z</time>
      </trkpt>
      <trkpt lat="41.0080340" lon="-2.3017310">
        <ele>1245.8</ele>
        <time>2020-09-12T08:21:53Z</time>
      </trkpt>
      <trkpt lat="41.0080020" lon="-2.3017760">
        <ele>1246.2</ele>
        <time>2020-09-12T08:21:54Z</time>
      </trkpt>
      <trkpt lat="41.0079710" lon="-2.3018170">
        <ele>1246.6</ele>
        <time>2020-09-12T08:21:55Z</time>
      </trkpt>
      <trkpt lat="41.0079430" lon="-2.3018550">
        <ele>1247.0</ele>
        <time>2020-09-12T08:21:56Z</time>
      </trkpt>
      <trkpt lat="41.0079160" lon="-2.3018890">
        <ele>1247.4</ele>
        <time>2020-09-12T08:21:57Z</time>
      </trkpt>
      <trkpt lat="41.0078900" lon="-2.3019190">
        <ele>1247.8</ele>
        <time>2020-09-12T08:21:58Z</time>
      </trkpt>
      <trkpt lat="41.0078650" lon="-2.3019440">
        <ele>1248.2</ele>
        <time>2020-09-12T08:21:59Z</time>
      </trkpt>
      <trkpt lat="41.0078400" lon="-2.3019700">
        <ele>1248.6</ele>
        <time>2020-09-12T08:22:00Z</time>
      </trkpt>
      <trkpt lat="41.0078150" lon="-2.3019930">
        <ele>1248.8</ele>
        <time>2020-09-12T08:22:01Z</time>
      </trkpt>
      <trkpt lat="41.0077890" lon="-2.3020130">
        <ele>1249.4</ele>
        <time>2020-09-12T08:22:02Z</time>
      </trkpt>
      <trkpt lat="41.0077610" lon="-2.3020300">
        <ele>1249.8</ele>
        <time>2020-09-12T08:22:03Z</time>
      </trkpt>
      <trkpt lat="41.0077320" lon="-2.3020460">
        <ele>1250.2</ele>
        <time>2020-09-12T08:22:04Z</time>
      </trkpt>
      <trkpt lat="41.0077010" lon="-2.3020520">
        <ele>1250.4</ele>
        <time>2020-09-12T08:22:05Z</time>
      </trkpt>
      <trkpt lat="41.0076660" lon="-2.3020500">
        <ele>1250.6</ele>
        <time>2020-09-12T08:22:06Z</time>
      </trkpt>
      <trkpt lat="41.0076270" lon="-2.3020410">
        <ele>1250.8</ele>
        <time>2020-09-12T08:22:07Z</time>
      </trkpt>
      <trkpt lat="41.0075880" lon="-2.3020270">
        <ele>1251.0</ele>
        <time>2020-09-12T08:22:08Z</time>
      </trkpt>
      <trkpt lat="41.0075500" lon="-2.3020080">
        <ele>1251.0</ele>
        <time>2020-09-12T08:22:09Z</time>
      </trkpt>
      <trkpt lat="41.0075120" lon="-2.3019870">
        <ele>1251.2</ele>
        <time>2020-09-12T08:22:10Z</time>
      </trkpt>
      <trkpt lat="41.0074710" lon="-2.3019680">
        <ele>1251.2</ele>
        <time>2020-09-12T08:22:11Z</time>
      </trkpt>
      <trkpt lat="41.0074280" lon="-2.3019520">
        <ele>1251.4</ele>
        <time>2020-09-12T08:22:12Z</time>
      </trkpt>
      <trkpt lat="41.0073830" lon="-2.3019350">
        <ele>1251.6</ele>
        <time>2020-09-12T08:22:13Z</time>
      </trkpt>
      <trkpt lat="41.0073360" lon="-2.3019210">
        <ele>1251.8</ele>
        <time>2020-09-12T08:22:14Z</time>
      </trkpt>
      <trkpt lat="41.0072860" lon="-2.3019150">
        <ele>1251.8</ele>
        <time>2020-09-12T08:22:15Z</time>
      </trkpt>
      <trkpt lat="41.0072340" lon="-2.3019150">
        <ele>1251.8</ele>
        <time>2020-09-12T08:22:16Z</time>
      </trkpt>
      <trkpt lat="41.0071800" lon="-2.3019220">
        <ele>1251.8</ele>
        <time>2020-09-12T08:22:17Z</time>
      </trkpt>
      <trkpt lat="41.0071250" lon="-2.3019320">
        <ele>1251.8</ele>
        <time>2020-09-12T08:22:18Z</time>
      </trkpt>
      <trkpt lat="41.0070690" lon="-2.3019460">
        <ele>1251.8</ele>
        <time>2020-09-12T08:22:19Z</time>
      </trkpt>
      <trkpt lat="41.0070130" lon="-2.3019600">
        <ele>1251.8</ele>
        <time>2020-09-12T08:22:20Z</time>
      </trkpt>
      <trkpt lat="41.0069560" lon="-2.3019740">
        <ele>1251.8</ele>
        <time>2020-09-12T08:22:21Z</time>
      </trkpt>
      <trkpt lat="41.0068980" lon="-2.3019870">
        <ele>1251.8</ele>
        <time>2020-09-12T08:22:22Z</time>
      </trkpt>
      <trkpt lat="41.0068410" lon="-2.3019990">
        <ele>1251.8</ele>
        <time>2020-09-12T08:22:23Z</time>
      </trkpt>
      <trkpt lat="41.0067820" lon="-2.3020120">
        <ele>1251.8</ele>
        <time>2020-09-12T08:22:24Z</time>
      </trkpt>
      <trkpt lat="41.0067230" lon="-2.3020260">
        <ele>1251.4</ele>
        <time>2020-09-12T08:22:25Z</time>
      </trkpt>
      <trkpt lat="41.0066630" lon="-2.3020420">
        <ele>1251.4</ele>
        <time>2020-09-12T08:22:26Z</time>
      </trkpt>
      <trkpt lat="41.0066030" lon="-2.3020590">
        <ele>1251.4</ele>
        <time>2020-09-12T08:22:27Z</time>
      </trkpt>
      <trkpt lat="41.0065430" lon="-2.3020770">
        <ele>1251.2</ele>
        <time>2020-09-12T08:22:28Z</time>
      </trkpt>
      <trkpt lat="41.0064840" lon="-2.3020940">
        <ele>1251.2</ele>
        <time>2020-09-12T08:22:29Z</time>
      </trkpt>
      <trkpt lat="41.0064250" lon="-2.3021100">
        <ele>1251.0</ele>
        <time>2020-09-12T08:22:30Z</time>
      </trkpt>
      <trkpt lat="41.0063660" lon="-2.3021280">
        <ele>1251.0</ele>
        <time>2020-09-12T08:22:31Z</time>
      </trkpt>
      <trkpt lat="41.0063070" lon="-2.3021480">
        <ele>1251.0</ele>
        <time>2020-09-12T08:22:32Z</time>
      </trkpt>
      <trkpt lat="41.0062470" lon="-2.3021730">
        <ele>1251.0</ele>
        <time>2020-09-12T08:22:33Z</time>
      </trkpt>
      <trkpt lat="41.0061890" lon="-2.3022030">
        <ele>1250.8</ele>
        <time>2020-09-12T08:22:34Z</time>
      </trkpt>
      <trkpt lat="41.0061300" lon="-2.3022330">
        <ele>1250.6</ele>
        <time>2020-09-12T08:22:35Z</time>
      </trkpt>
      <trkpt lat="41.0060700" lon="-2.3022630">
        <ele>1250.4</ele>
        <time>2020-09-12T08:22:36Z</time>
      </trkpt>
      <trkpt lat="41.0060060" lon="-2.3022930">
        <ele>1250.2</ele>
        <time>2020-09-12T08:22:37Z</time>
      </trkpt>
      <trkpt lat="41.0059380" lon="-2.3023250">
        <ele>1250.2</ele>
        <time>2020-09-12T08:22:38Z</time>
      </trkpt>
      <trkpt lat="41.0058670" lon="-2.3023610">
        <ele>1250.0</ele>
        <time>2020-09-12T08:22:39Z</time>
      </trkpt>
      <trkpt lat="41.0057950" lon="-2.3024000">
        <ele>1249.6</ele>
        <time>2020-09-12T08:22:40Z</time>
      </trkpt>
      <trkpt lat="41.0057220" lon="-2.3024420">
        <ele>1249.4</ele>
        <time>2020-09-12T08:22:41Z</time>
      </trkpt>
      <trkpt lat="41.0056510" lon="-2.3024880">
        <ele>1249.2</ele>
        <time>2020-09-12T08:22:42Z</time>
      </trkpt>
      <trkpt lat="41.0055830" lon="-2.3025420">
        <ele>1248.8</ele>
        <time>2020-09-12T08:22:43Z</time>
      </trkpt>
      <trkpt lat="41.0055160" lon="-2.3026050">
        <ele>1248.0</ele>
        <time>2020-09-12T08:22:44Z</time>
      </trkpt>
      <trkpt lat="41.0054520" lon="-2.3026750">
        <ele>1247.4</ele>
        <time>2020-09-12T08:22:45Z</time>
      </trkpt>
      <trkpt lat="41.0053900" lon="-2.3027480">
        <ele>1246.8</ele>
        <time>2020-09-12T08:22:46Z</time>
      </trkpt>
      <trkpt lat="41.0053280" lon="-2.3028210">
        <ele>1246.2</ele>
        <time>2020-09-12T08:22:47Z</time>
      </trkpt>
      <trkpt lat="41.0052630" lon="-2.3028940">
        <ele>1245.8</ele>
        <time>2020-09-12T08:22:48Z</time>
      </trkpt>
      <trkpt lat="41.0051960" lon="-2.3029640">
        <ele>1245.2</ele>
        <time>2020-09-12T08:22:49Z</time>
      </trkpt>
      <trkpt lat="41.0051250" lon="-2.3030350">
        <ele>1244.8</ele>
        <time>2020-09-12T08:22:50Z</time>
      </trkpt>
      <trkpt lat="41.0050510" lon="-2.3031050">
        <ele>1244.4</ele>
        <time>2020-09-12T08:22:51Z</time>
      </trkpt>
      <trkpt lat="41.0049760" lon="-2.3031750">
        <ele>1244.0</ele>
        <time>2020-09-12T08:22:52Z</time>
      </trkpt>
      <trkpt lat="41.0049000" lon="-2.3032440">
        <ele>1243.6</ele>
        <time>2020-09-12T08:22:53Z</time>
      </trkpt>
      <trkpt lat="41.0048260" lon="-2.3033130">
        <ele>1243.2</ele>
        <time>2020-09-12T08:22:54Z</time>
      </trkpt>
      <trkpt lat="41.0047530" lon="-2.3033820">
        <ele>1242.6</ele>
        <time>2020-09-12T08:22:55Z</time>
      </trkpt>
      <trkpt lat="41.0046800" lon="-2.3034480">
        <ele>1242.2</ele>
        <time>2020-09-12T08:22:56Z</time>
      </trkpt>
      <trkpt lat="41.0046070" lon="-2.3035110">
        <ele>1242.0</ele>
        <time>2020-09-12T08:22:57Z</time>
      </trkpt>
      <trkpt lat="41.0045360" lon="-2.3035730">
        <ele>1241.6</ele>
        <time>2020-09-12T08:22:58Z</time>
      </trkpt>
      <trkpt lat="41.0044650" lon="-2.3036370">
        <ele>1241.4</ele>
        <time>2020-09-12T08:22:59Z</time>
      </trkpt>
      <trkpt lat="41.0043940" lon="-2.3037010">
        <ele>1241.2</ele>
        <time>2020-09-12T08:23:00Z</time>
      </trkpt>
      <trkpt lat="41.0043220" lon="-2.3037630">
        <ele>1241.0</ele>
        <time>2020-09-12T08:23:01Z</time>
      </trkpt>
      <trkpt lat="41.0042490" lon="-2.3038260">
        <ele>1240.6</ele>
        <time>2020-09-12T08:23:02Z</time>
      </trkpt>
      <trkpt lat="41.0041770" lon="-2.3038920">
        <ele>1240.4</ele>
        <time>2020-09-12T08:23:03Z</time>
      </trkpt>
      <trkpt lat="41.0041040" lon="-2.3039590">
        <ele>1239.8</ele>
        <time>2020-09-12T08:23:04Z</time>
      </trkpt>
      <trkpt lat="41.0040310" lon="-2.3040250">
        <ele>1239.4</ele>
        <time>2020-09-12T08:23:05Z</time>
      </trkpt>
      <trkpt lat="41.0039570" lon="-2.3040900">
        <ele>1239.2</ele>
        <time>2020-09-12T08:23:06Z</time>
      </trkpt>
      <trkpt lat="41.0038840" lon="-2.3041540">
        <ele>1239.0</ele>
        <time>2020-09-12T08:23:07Z</time>
      </trkpt>
      <trkpt lat="41.0038120" lon="-2.3042210">
        <ele>1238.8</ele>
        <time>2020-09-12T08:23:08Z</time>
      </trkpt>
      <trkpt lat="41.0037380" lon="-2.3042890">
        <ele>1238.6</ele>
        <time>2020-09-12T08:23:09Z</time>
      </trkpt>
      <trkpt lat="41.0036640" lon="-2.3043590">
        <ele>1238.4</ele>
        <time>2020-09-12T08:23:10Z</time>
      </trkpt>
      <trkpt lat="41.0035880" lon="-2.3044290">
        <ele>1237.8</ele>
        <time>2020-09-12T08:23:11Z</time>
      </trkpt>
      <trkpt lat="41.0035130" lon="-2.3044970">
        <ele>1237.4</ele>
        <time>2020-09-12T08:23:12Z</time>
      </trkpt>
      <trkpt lat="41.0034390" lon="-2.3045650">
        <ele>1237.2</ele>
        <time>2020-09-12T08:23:13Z</time>
      </trkpt>
      <trkpt lat="41.0033650" lon="-2.3046310">
        <ele>1236.8</ele>
        <time>2020-09-12T08:23:14Z</time>
      </trkpt>
      <trkpt lat="41.0032890" lon="-2.3046860">
        <ele>1236.4</ele>
        <time>2020-09-12T08:23:15Z</time>
      </trkpt>
      <trkpt lat="41.0032090" lon="-2.3047230">
        <ele>1235.8</ele>
        <time>2020-09-12T08:23:16Z</time>
      </trkpt>
      <trkpt lat="41.0031230" lon="-2.3047380">
        <ele>1235.2</ele>
        <time>2020-09-12T08:23:17Z</time>
      </trkpt>
      <trkpt lat="41.0030320" lon="-2.3047340">
        <ele>1234.4</ele>
        <time>2020-09-12T08:23:18Z</time>
      </trkpt>
      <trkpt lat="41.0029370" lon="-2.3047160">
        <ele>1233.6</ele>
        <time>2020-09-12T08:23:19Z</time>
      </trkpt>
      <trkpt lat="41.0028400" lon="-2.3046930">
        <ele>1232.6</ele>
        <time>2020-09-12T08:23:20Z</time>
      </trkpt>
      <trkpt lat="41.0027400" lon="-2.3046690">
        <ele>1232.0</ele>
        <time>2020-09-12T08:23:21Z</time>
      </trkpt>
      <trkpt lat="41.0026370" lon="-2.3046430">
        <ele>1231.4</ele>
        <time>2020-09-12T08:23:22Z</time>
      </trkpt>
      <trkpt lat="41.0025340" lon="-2.3046170">
        <ele>1231.2</ele>
        <time>2020-09-12T08:23:23Z</time>
      </trkpt>
      <trkpt lat="41.0024300" lon="-2.3045940">
        <ele>1230.8</ele>
        <time>2020-09-12T08:23:24Z</time>
      </trkpt>
      <trkpt lat="41.0023270" lon="-2.3045700">
        <ele>1230.4</ele>
        <time>2020-09-12T08:23:25Z</time>
      </trkpt>
      <trkpt lat="41.0022240" lon="-2.3045500">
        <ele>1230.0</ele>
        <time>2020-09-12T08:23:26Z</time>
      </trkpt>
      <trkpt lat="41.0021250" lon="-2.3045340">
        <ele>1229.6</ele>
        <time>2020-09-12T08:23:27Z</time>
      </trkpt>
      <trkpt lat="41.0020290" lon="-2.3045190">
        <ele>1229.2</ele>
        <time>2020-09-12T08:23:28Z</time>
      </trkpt>
      <trkpt lat="41.0019380" lon="-2.3045070">
        <ele>1229.0</ele>
        <time>2020-09-12T08:23:29Z</time>
      </trkpt>
      <trkpt lat="41.0018530" lon="-2.3044980">
        <ele>1228.8</ele>
        <time>2020-09-12T08:23:30Z</time>
      </trkpt>
      <trkpt lat="41.0017730" lon="-2.3044910">
        <ele>1228.8</ele>
        <time>2020-09-12T08:23:31Z</time>
      </trkpt>
      <trkpt lat="41.0016980" lon="-2.3044870">
        <ele>1228.8</ele>
        <time>2020-09-12T08:23:32Z</time>
      </trkpt>
      <trkpt lat="41.0016290" lon="-2.3044880">
        <ele>1228.8</ele>
        <time>2020-09-12T08:23:33Z</time>
      </trkpt>
      <trkpt lat="41.0015670" lon="-2.3044880">
        <ele>1229.0</ele>
        <time>2020-09-12T08:23:34Z</time>
      </trkpt>
      <trkpt lat="41.0015110" lon="-2.3044860">
        <ele>1229.4</ele>
        <time>2020-09-12T08:23:35Z</time>
      </trkpt>
      <trkpt lat="41.0014590" lon="-2.3044810">
        <ele>1229.6</ele>
        <time>2020-09-12T08:23:36Z</time>
      </trkpt>
      <trkpt lat="41.0014130" lon="-2.3044760">
        <ele>1230.0</ele>
        <time>2020-09-12T08:23:37Z</time>
      </trkpt>
      <trkpt lat="41.0013720" lon="-2.3044730">
        <ele>1230.4</ele>
        <time>2020-09-12T08:23:38Z</time>
      </trkpt>
      <trkpt lat="41.0013320" lon="-2.3044710">
        <ele>1231.0</ele>
        <time>2020-09-12T08:23:39Z</time>
      </trkpt>
      <trkpt lat="41.0012930" lon="-2.3044710">
        <ele>1231.6</ele>
        <time>2020-09-12T08:23:40Z</time>
      </trkpt>
      <trkpt lat="41.0012550" lon="-2.3044690">
        <ele>1232.0</ele>
        <time>2020-09-12T08:23:41Z</time>
      </trkpt>
      <trkpt lat="41.0012150" lon="-2.3044700">
        <ele>1232.6</ele>
        <time>2020-09-12T08:23:42Z</time>
      </trkpt>
      <trkpt lat="41.0011770" lon="-2.3044730">
        <ele>1233.0</ele>
        <time>2020-09-12T08:23:43Z</time>
      </trkpt>
      <trkpt lat="41.0011390" lon="-2.3044760">
        <ele>1233.4</ele>
        <time>2020-09-12T08:23:44Z</time>
      </trkpt>
      <trkpt lat="41.0011010" lon="-2.3044800">
        <ele>1233.8</ele>
        <time>2020-09-12T08:23:45Z</time>
      </trkpt>
      <trkpt lat="41.0010610" lon="-2.3044830">
        <ele>1234.0</ele>
        <time>2020-09-12T08:23:46Z</time>
      </trkpt>
      <trkpt lat="41.0010210" lon="-2.3044860">
        <ele>1234.4</ele>
        <time>2020-09-12T08:23:47Z</time>
      </trkpt>
      <trkpt lat="41.0009810" lon="-2.3044910">
        <ele>1234.6</ele>
        <time>2020-09-12T08:23:48Z</time>
      </trkpt>
      <trkpt lat="41.0009410" lon="-2.3044950">
        <ele>1234.8</ele>
        <time>2020-09-12T08:23:49Z</time>
      </trkpt>
      <trkpt lat="41.0008990" lon="-2.3045010">
        <ele>1235.0</ele>
        <time>2020-09-12T08:23:50Z</time>
      </trkpt>
      <trkpt lat="41.0008580" lon="-2.3045070">
        <ele>1235.2</ele>
        <time>2020-09-12T08:23:51Z</time>
      </trkpt>
      <trkpt lat="41.0008140" lon="-2.3045140">
        <ele>1235.4</ele>
        <time>2020-09-12T08:23:52Z</time>
      </trkpt>
      <trkpt lat="41.0007700" lon="-2.3045220">
        <ele>1235.4</ele>
        <time>2020-09-12T08:23:53Z</time>
      </trkpt>
      <trkpt lat="41.0007240" lon="-2.3045290">
        <ele>1235.6</ele>
        <time>2020-09-12T08:23:54Z</time>
      </trkpt>
      <trkpt lat="41.0006740" lon="-2.3045340">
        <ele>1235.6</ele>
        <time>2020-09-12T08:23:55Z</time>
      </trkpt>
      <trkpt lat="41.0006230" lon="-2.3045400">
        <ele>1235.8</ele>
        <time>2020-09-12T08:23:56Z</time>
      </trkpt>
      <trkpt lat="41.0005700" lon="-2.3045490">
        <ele>1235.8</ele>
        <time>2020-09-12T08:23:57Z</time>
      </trkpt>
      <trkpt lat="41.0005170" lon="-2.3045580">
        <ele>1235.8</ele>
        <time>2020-09-12T08:23:58Z</time>
      </trkpt>
      <trkpt lat="41.0004620" lon="-2.3045650">
        <ele>1235.8</ele>
        <time>2020-09-12T08:23:59Z</time>
      </trkpt>
      <trkpt lat="41.0004040" lon="-2.3045740">
        <ele>1235.8</ele>
        <time>2020-09-12T08:24:00Z</time>
      </trkpt>
      <trkpt lat="41.0003440" lon="-2.3045830">
        <ele>1235.6</ele>
        <time>2020-09-12T08:24:01Z</time>
      </trkpt>
      <trkpt lat="41.0002830" lon="-2.3045970">
        <ele>1235.0</ele>
        <time>2020-09-12T08:24:02Z</time>
      </trkpt>
      <trkpt lat="41.0002210" lon="-2.3046170">
        <ele>1234.4</ele>
        <time>2020-09-12T08:24:03Z</time>
      </trkpt>
      <trkpt lat="41.0001590" lon="-2.3046440">
        <ele>1234.0</ele>
        <time>2020-09-12T08:24:04Z</time>
      </trkpt>
      <trkpt lat="41.0000960" lon="-2.3046780">
        <ele>1233.6</ele>
        <time>2020-09-12T08:24:05Z</time>
      </trkpt>
      <trkpt lat="41.0000330" lon="-2.3047210">
        <ele>1233.4</ele>
        <time>2020-09-12T08:24:06Z</time>
      </trkpt>
      <trkpt lat="40.9999720" lon="-2.3047720">
        <ele>1233.4</ele>
        <time>2020-09-12T08:24:07Z</time>
      </trkpt>
      <trkpt lat="40.9999120" lon="-2.3048270">
        <ele>1233.2</ele>
        <time>2020-09-12T08:24:08Z</time>
      </trkpt>
      <trkpt lat="40.9998510" lon="-2.3048860">
        <ele>1233.0</ele>
        <time>2020-09-12T08:24:09Z</time>
      </trkpt>
      <trkpt lat="40.9997880" lon="-2.3049450">
        <ele>1232.4</ele>
        <time>2020-09-12T08:24:10Z</time>
      </trkpt>
      <trkpt lat="40.9997240" lon="-2.3050070">
        <ele>1232.0</ele>
        <time>2020-09-12T08:24:11Z</time>
      </trkpt>
      <trkpt lat="40.9996580" lon="-2.3050700">
        <ele>1231.4</ele>
        <time>2020-09-12T08:24:12Z</time>
      </trkpt>
      <trkpt lat="40.9995930" lon="-2.3051350">
        <ele>1230.8</ele>
        <time>2020-09-12T08:24:13Z</time>
      </trkpt>
      <trkpt lat="40.9995270" lon="-2.3052010">
        <ele>1230.2</ele>
        <time>2020-09-12T08:24:14Z</time>
      </trkpt>
      <trkpt lat="40.9994600" lon="-2.3052680">
        <ele>1229.6</ele>
        <time>2020-09-12T08:24:15Z</time>
      </trkpt>
      <trkpt lat="40.9993920" lon="-2.3053380">
        <ele>1229.2</ele>
        <time>2020-09-12T08:24:16Z</time>
      </trkpt>
      <trkpt lat="40.9993220" lon="-2.3054080">
        <ele>1228.8</ele>
        <time>2020-09-12T08:24:17Z</time>
      </trkpt>
      <trkpt lat="40.9992510" lon="-2.3054780">
        <ele>1228.6</ele>
        <time>2020-09-12T08:24:18Z</time>
      </trkpt>
      <trkpt lat="40.9991790" lon="-2.3055490">
        <ele>1228.0</ele>
        <time>2020-09-12T08:24:19Z</time>
      </trkpt>
      <trkpt lat="40.9991050" lon="-2.3056210">
        <ele>1227.6</ele>
        <time>2020-09-12T08:24:20Z</time>
      </trkpt>
      <trkpt lat="40.9990330" lon="-2.3056940">
        <ele>1227.2</ele>
        <time>2020-09-12T08:24:21Z</time>
      </trkpt>
      <trkpt lat="40.9989590" lon="-2.3057670">
        <ele>1226.6</ele>
        <time>2020-09-12T08:24:22Z</time>
      </trkpt>
      <trkpt lat="40.9988860" lon="-2.3058370">
        <ele>1226.0</ele>
        <time>2020-09-12T08:24:23Z</time>
      </trkpt>
      <trkpt lat="40.9988120" lon="-2.3059070">
        <ele>1225.4</ele>
        <time>2020-09-12T08:24:24Z</time>
      </trkpt>
      <trkpt lat="40.9987380" lon="-2.3059790">
        <ele>1224.8</ele>
        <time>2020-09-12T08:24:25Z</time>
      </trkpt>
      <trkpt lat="40.9986650" lon="-2.3060520">
        <ele>1224.0</ele>
        <time>2020-09-12T08:24:26Z</time>
      </trkpt>
      <trkpt lat="40.9985960" lon="-2.3061240">
        <ele>1223.4</ele>
        <time>2020-09-12T08:24:27Z</time>
      </trkpt>
      <trkpt lat="40.9985280" lon="-2.3062000">
        <ele>1222.6</ele>
        <time>2020-09-12T08:24:28Z</time>
      </trkpt>
      <trkpt lat="40.9984640" lon="-2.3062840">
        <ele>1222.0</ele>
        <time>2020-09-12T08:24:29Z</time>
      </trkpt>
      <trkpt lat="40.9984090" lon="-2.3063760">
        <ele>1221.4</ele>
        <time>2020-09-12T08:24:30Z</time>
      </trkpt>
      <trkpt lat="40.9983620" lon="-2.3064750">
        <ele>1221.0</ele>
        <time>2020-09-12T08:24:31Z</time>
      </trkpt>
      <trkpt lat="40.9983210" lon="-2.3065790">
        <ele>1220.6</ele>
        <time>2020-09-12T08:24:32Z</time>
      </trkpt>
      <trkpt lat="40.9982840" lon="-2.3066830">
        <ele>1220.2</ele>
        <time>2020-09-12T08:24:33Z</time>
      </trkpt>
      <trkpt lat="40.9982470" lon="-2.3067890">
        <ele>1219.6</ele>
        <time>2020-09-12T08:24:34Z</time>
      </trkpt>
      <trkpt lat="40.9982080" lon="-2.3068970">
        <ele>1219.2</ele>
        <time>2020-09-12T08:24:35Z</time>
      </trkpt>
      <trkpt lat="40.9981680" lon="-2.3070060">
        <ele>1218.8</ele>
        <time>2020-09-12T08:24:36Z</time>
      </trkpt>
      <trkpt lat="40.9981270" lon="-2.3071190">
        <ele>1218.4</ele>
        <time>2020-09-12T08:24:37Z</time>
      </trkpt>
      <trkpt lat="40.9980870" lon="-2.3072330">
        <ele>1218.2</ele>
        <time>2020-09-12T08:24:38Z</time>
      </trkpt>
      <trkpt lat="40.9980450" lon="-2.3073490">
        <ele>1217.8</ele>
        <time>2020-09-12T08:24:39Z</time>
      </trkpt>
      <trkpt lat="40.9980020" lon="-2.3074660">
        <ele>1217.4</ele>
        <time>2020-09-12T08:24:40Z</time>
      </trkpt>
      <trkpt lat="40.9979580" lon="-2.3075840">
        <ele>1216.8</ele>
        <time>2020-09-12T08:24:41Z</time>
      </trkpt>
      <trkpt lat="40.9979140" lon="-2.3077010">
        <ele>1216.2</ele>
        <time>2020-09-12T08:24:42Z</time>
      </trkpt>
      <trkpt lat="40.9978710" lon="-2.3078150">
        <ele>1215.4</ele>
        <time>2020-09-12T08:24:43Z</time>
      </trkpt>
      <trkpt lat="40.9978300" lon="-2.3079260">
        <ele>1214.4</ele>
        <time>2020-09-12T08:24:44Z</time>
      </trkpt>
      <trkpt lat="40.9977940" lon="-2.3080340">
        <ele>1213.8</ele>
        <time>2020-09-12T08:24:45Z</time>
      </trkpt>
      <trkpt lat="40.9977670" lon="-2.3081410">
        <ele>1213.4</ele>
        <time>2020-09-12T08:24:46Z</time>
      </trkpt>
      <trkpt lat="40.9977600" lon="-2.3082530">
        <ele>1213.0</ele>
        <time>2020-09-12T08:24:47Z</time>
      </trkpt>
      <trkpt lat="40.9977720" lon="-2.3083610">
        <ele>1212.4</ele>
        <time>2020-09-12T08:24:48Z</time>
      </trkpt>
      <trkpt lat="40.9978020" lon="-2.3084630">
        <ele>1212.0</ele>
        <time>2020-09-12T08:24:49Z</time>
      </trkpt>
      <trkpt lat="40.9978420" lon="-2.3085630">
        <ele>1211.8</ele>
        <time>2020-09-12T08:24:50Z</time>
      </trkpt>
      <trkpt lat="40.9978860" lon="-2.3086620">
        <ele>1211.6</ele>
        <time>2020-09-12T08:24:51Z</time>
      </trkpt>
      <trkpt lat="40.9979300" lon="-2.3087620">
        <ele>1211.4</ele>
        <time>2020-09-12T08:24:52Z</time>
      </trkpt>
      <trkpt lat="40.9979730" lon="-2.3088650">
        <ele>1211.0</ele>
        <time>2020-09-12T08:24:53Z</time>
      </trkpt>
      <trkpt lat="40.9980150" lon="-2.3089690">
        <ele>1210.6</ele>
        <time>2020-09-12T08:24:54Z</time>
      </trkpt>
      <trkpt lat="40.9980570" lon="-2.3090730">
        <ele>1210.4</ele>
        <time>2020-09-12T08:24:55Z</time>
      </trkpt>
      <trkpt lat="40.9980980" lon="-2.3091780">
        <ele>1210.0</ele>
        <time>2020-09-12T08:24:56Z</time>
      </trkpt>
      <trkpt lat="40.9981390" lon="-2.3092820">
        <ele>1209.8</ele>
        <time>2020-09-12T08:24:57Z</time>
      </trkpt>
      <trkpt lat="40.9981800" lon="-2.3093850">
        <ele>1209.2</ele>
        <time>2020-09-12T08:24:58Z</time>
      </trkpt>
      <trkpt lat="40.9982210" lon="-2.3094870">
        <ele>1208.4</ele>
        <time>2020-09-12T08:24:59Z</time>
      </trkpt>
      <trkpt lat="40.9982600" lon="-2.3095890">
        <ele>1207.6</ele>
        <time>2020-09-12T08:25:00Z</time>
      </trkpt>
      <trkpt lat="40.9983000" lon="-2.3096940">
        <ele>1207.0</ele>
        <time>2020-09-12T08:25:01Z</time>
      </trkpt>
      <trkpt lat="40.9983350" lon="-2.3098010">
        <ele>1206.2</ele>
        <time>2020-09-12T08:25:02Z</time>
      </trkpt>
      <trkpt lat="40.9983640" lon="-2.3099100">
        <ele>1205.4</ele>
        <time>2020-09-12T08:25:03Z</time>
      </trkpt>
      <trkpt lat="40.9983900" lon="-2.3100210">
        <ele>1204.8</ele>
        <time>2020-09-12T08:25:04Z</time>
      </trkpt>
      <trkpt lat="40.9984110" lon="-2.3101330">
        <ele>1204.0</ele>
        <time>2020-09-12T08:25:05Z</time>
      </trkpt>
      <trkpt lat="40.9984250" lon="-2.3102480">
        <ele>1203.4</ele>
        <time>2020-09-12T08:25:06Z</time>
      </trkpt>
      <trkpt lat="40.9984350" lon="-2.3103640">
        <ele>1202.4</ele>
        <time>2020-09-12T08:25:07Z</time>
      </trkpt>
      <trkpt lat="40.9984430" lon="-2.3104800">
        <ele>1201.6</ele>
        <time>2020-09-12T08:25:08Z</time>
      </trkpt>
      <trkpt lat="40.9984520" lon="-2.3105950">
        <ele>1201.2</ele>
        <time>2020-09-12T08:25:09Z</time>
      </trkpt>
      <trkpt lat="40.9984600" lon="-2.3107090">
        <ele>1200.4</ele>
        <time>2020-09-12T08:25:10Z</time>
      </trkpt>
      <trkpt lat="40.9984670" lon="-2.3108190">
        <ele>1199.6</ele>
        <time>2020-09-12T08:25:11Z</time>
      </trkpt>
      <trkpt lat="40.9984740" lon="-2.3109260">
        <ele>1198.6</ele>
        <time>2020-09-12T08:25:12Z</time>
      </trkpt>
      <trkpt lat="40.9984800" lon="-2.3110300">
        <ele>1197.8</ele>
        <time>2020-09-12T08:25:13Z</time>
      </trkpt>
      <trkpt lat="40.9984870" lon="-2.3111310">
        <ele>1197.2</ele>
        <time>2020-09-12T08:25:14Z</time>
      </trkpt>
      <trkpt lat="40.9984950" lon="-2.3112300">
        <ele>1196.6</ele>
        <time>2020-09-12T08:25:15Z</time>
      </trkpt>
      <trkpt lat="40.9985010" lon="-2.3113240">
        <ele>1196.0</ele>
        <time>2020-09-12T08:25:16Z</time>
      </trkpt>
      <trkpt lat="40.9985010" lon="-2.3114170">
        <ele>1195.2</ele>
        <time>2020-09-12T08:25:17Z</time>
      </trkpt>
      <trkpt lat="40.9984890" lon="-2.3115040">
        <ele>1194.4</ele>
        <time>2020-09-12T08:25:18Z</time>
      </trkpt>
      <trkpt lat="40.9984610" lon="-2.3115780">
        <ele>1193.4</ele>
        <time>2020-09-12T08:25:19Z</time>
      </trkpt>
      <trkpt lat="40.9984110" lon="-2.3116370">
        <ele>1192.6</ele>
        <time>2020-09-12T08:25:20Z</time>
      </trkpt>
      <trkpt lat="40.9983450" lon="-2.3116670">
        <ele>1191.6</ele>
        <time>2020-09-12T08:25:21Z</time>
      </trkpt>
      <trkpt lat="40.9982680" lon="-2.3116730">
        <ele>1190.8</ele>
        <time>2020-09-12T08:25:22Z</time>
      </trkpt>
      <trkpt lat="40.9981850" lon="-2.3116690">
        <ele>1189.8</ele>
        <time>2020-09-12T08:25:23Z</time>
      </trkpt>
      <trkpt lat="40.9980970" lon="-2.3116590">
        <ele>1189.2</ele>
        <time>2020-09-12T08:25:24Z</time>
      </trkpt>
      <trkpt lat="40.9980090" lon="-2.3116510">
        <ele>1188.4</ele>
        <time>2020-09-12T08:25:25Z</time>
      </trkpt>
      <trkpt lat="40.9979200" lon="-2.3116480">
        <ele>1187.6</ele>
        <time>2020-09-12T08:25:26Z</time>
      </trkpt>
      <trkpt lat="40.9978310" lon="-2.3116550">
        <ele>1186.8</ele>
        <time>2020-09-12T08:25:27Z</time>
      </trkpt>
      <trkpt lat="40.9977420" lon="-2.3116760">
        <ele>1186.2</ele>
        <time>2020-09-12T08:25:28Z</time>
      </trkpt>
      <trkpt lat="40.9976530" lon="-2.3117060">
        <ele>1185.6</ele>
        <time>2020-09-12T08:25:29Z</time>
      </trkpt>
      <trkpt lat="40.9975600" lon="-2.3117420">
        <ele>1185.0</ele>
        <time>2020-09-12T08:25:30Z</time>
      </trkpt>
      <trkpt lat="40.9974670" lon="-2.3117830">
        <ele>1184.4</ele>
        <time>2020-09-12T08:25:31Z</time>
      </trkpt>
      <trkpt lat="40.9973720" lon="-2.3118260">
        <ele>1183.6</ele>
        <time>2020-09-12T08:25:32Z</time>
      </trkpt>
      <trkpt lat="40.9972750" lon="-2.3118700">
        <ele>1182.6</ele>
        <time>2020-09-12T08:25:33Z</time>
      </trkpt>
      <trkpt lat="40.9971740" lon="-2.3119170">
        <ele>1181.4</ele>
        <time>2020-09-12T08:25:34Z</time>
      </trkpt>
      <trkpt lat="40.9970720" lon="-2.3119670">
        <ele>1180.4</ele>
        <time>2020-09-12T08:25:35Z</time>
      </trkpt>
      <trkpt lat="40.9969730" lon="-2.3120240">
        <ele>1179.4</ele>
        <time>2020-09-12T08:25:36Z</time>
      </trkpt>
      <trkpt lat="40.9968790" lon="-2.3120920">
        <ele>1178.4</ele>
        <time>2020-09-12T08:25:37Z</time>
      </trkpt>
      <trkpt lat="40.9967900" lon="-2.3121720">
        <ele>1177.4</ele>
        <time>2020-09-12T08:25:38Z</time>
      </trkpt>
      <trkpt lat="40.9967050" lon="-2.3122570">
        <ele>1176.6</ele>
        <time>2020-09-12T08:25:39Z</time>
      </trkpt>
      <trkpt lat="40.9966220" lon="-2.3123420">
        <ele>1175.8</ele>
        <time>2020-09-12T08:25:40Z</time>
      </trkpt>
      <trkpt lat="40.9965410" lon="-2.3124270">
        <ele>1175.2</ele>
        <time>2020-09-12T08:25:41Z</time>
      </trkpt>
      <trkpt lat="40.9964590" lon="-2.3125100">
        <ele>1174.6</ele>
        <time>2020-09-12T08:25:42Z</time>
      </trkpt>
      <trkpt lat="40.9963780" lon="-2.3125920">
        <ele>1174.0</ele>
        <time>2020-09-12T08:25:43Z</time>
      </trkpt>
      <trkpt lat="40.9962970" lon="-2.3126730">
        <ele>1173.4</ele>
        <time>2020-09-12T08:25:44Z</time>
      </trkpt>
      <trkpt lat="40.9962170" lon="-2.3127540">
        <ele>1173.0</ele>
        <time>2020-09-12T08:25:45Z</time>
      </trkpt>
      <trkpt lat="40.9961380" lon="-2.3128350">
        <ele>1172.2</ele>
        <time>2020-09-12T08:25:46Z</time>
      </trkpt>
      <trkpt lat="40.9960570" lon="-2.3129140">
        <ele>1171.4</ele>
        <time>2020-09-12T08:25:47Z</time>
      </trkpt>
      <trkpt lat="40.9959760" lon="-2.3129930">
        <ele>1170.8</ele>
        <time>2020-09-12T08:25:48Z</time>
      </trkpt>
      <trkpt lat="40.9958960" lon="-2.3130720">
        <ele>1170.2</ele>
        <time>2020-09-12T08:25:49Z</time>
      </trkpt>
      <trkpt lat="40.9958160" lon="-2.3131520">
        <ele>1169.8</ele>
        <time>2020-09-12T08:25:50Z</time>
      </trkpt>
      <trkpt lat="40.9957370" lon="-2.3132360">
        <ele>1169.6</ele>
        <time>2020-09-12T08:25:51Z</time>
      </trkpt>
      <trkpt lat="40.9956610" lon="-2.3133260">
        <ele>1169.2</ele>
        <time>2020-09-12T08:25:52Z</time>
      </trkpt>
      <trkpt lat="40.9955910" lon="-2.3134220">
        <ele>1168.8</ele>
        <time>2020-09-12T08:25:53Z</time>
      </trkpt>
      <trkpt lat="40.9955260" lon="-2.3135280">
        <ele>1168.2</ele>
        <time>2020-09-12T08:25:54Z</time>
      </trkpt>
      <trkpt lat="40.9954670" lon="-2.3136350">
        <ele>1167.8</ele>
        <time>2020-09-12T08:25:55Z</time>
      </trkpt>
      <trkpt lat="40.9954060" lon="-2.3137400">
        <ele>1167.2</ele>
        <time>2020-09-12T08:25:56Z</time>
      </trkpt>
      <trkpt lat="40.9953390" lon="-2.3138350">
        <ele>1167.0</ele>
        <time>2020-09-12T08:25:57Z</time>
      </trkpt>
      <trkpt lat="40.9952670" lon="-2.3139210">
        <ele>1166.8</ele>
        <time>2020-09-12T08:25:58Z</time>
      </trkpt>
      <trkpt lat="40.9951910" lon="-2.3139990">
        <ele>1166.6</ele>
        <time>2020-09-12T08:25:59Z</time>
      </trkpt>
      <trkpt lat="40.9951100" lon="-2.3140640">
        <ele>1166.4</ele>
        <time>2020-09-12T08:26:00Z</time>
      </trkpt>
      <trkpt lat="40.9950250" lon="-2.3141110">
        <ele>1166.2</ele>
        <time>2020-09-12T08:26:01Z</time>
      </trkpt>
      <trkpt lat="40.9949370" lon="-2.3141400">
        <ele>1165.8</ele>
        <time>2020-09-12T08:26:02Z</time>
      </trkpt>
      <trkpt lat="40.9948480" lon="-2.3141580">
        <ele>1165.6</ele>
        <time>2020-09-12T08:26:03Z</time>
      </trkpt>
      <trkpt lat="40.9947610" lon="-2.3141730">
        <ele>1165.4</ele>
        <time>2020-09-12T08:26:04Z</time>
      </trkpt>
      <trkpt lat="40.9946730" lon="-2.3141870">
        <ele>1165.4</ele>
        <time>2020-09-12T08:26:05Z</time>
      </trkpt>
      <trkpt lat="40.9945850" lon="-2.3142050">
        <ele>1165.0</ele>
        <time>2020-09-12T08:26:06Z</time>
      </trkpt>
      <trkpt lat="40.9944980" lon="-2.3142280">
        <ele>1164.6</ele>
        <time>2020-09-12T08:26:07Z</time>
      </trkpt>
      <trkpt lat="40.9944090" lon="-2.3142570">
        <ele>1164.2</ele>
        <time>2020-09-12T08:26:08Z</time>
      </trkpt>
      <trkpt lat="40.9943200" lon="-2.3142900">
        <ele>1163.6</ele>
        <time>2020-09-12T08:26:09Z</time>
      </trkpt>
      <trkpt lat="40.9942320" lon="-2.3143290">
        <ele>1163.2</ele>
        <time>2020-09-12T08:26:10Z</time>
      </trkpt>
      <trkpt lat="40.9941440" lon="-2.3143740">
        <ele>1162.8</ele>
        <time>2020-09-12T08:26:11Z</time>
      </trkpt>
      <trkpt lat="40.9940590" lon="-2.3144220">
        <ele>1162.4</ele>
        <time>2020-09-12T08:26:12Z</time>
      </trkpt>
      <trkpt lat="40.9939740" lon="-2.3144700">
        <ele>1162.2</ele>
        <time>2020-09-12T08:26:13Z</time>
      </trkpt>
      <trkpt lat="40.9938880" lon="-2.3145150">
        <ele>1161.8</ele>
        <time>2020-09-12T08:26:14Z</time>
      </trkpt>
      <trkpt lat="40.9938010" lon="-2.3145570">
        <ele>1161.4</ele>
        <time>2020-09-12T08:26:15Z</time>
      </trkpt>
      <trkpt lat="40.9937130" lon="-2.3145960">
        <ele>1161.0</ele>
        <time>2020-09-12T08:26:16Z</time>
      </trkpt>
      <trkpt lat="40.9936240" lon="-2.3146310">
        <ele>1160.8</ele>
        <time>2020-09-12T08:26:17Z</time>
      </trkpt>
      <trkpt lat="40.9935360" lon="-2.3146600">
        <ele>1160.6</ele>
        <time>2020-09-12T08:26:18Z</time>
      </trkpt>
      <trkpt lat="40.9934490" lon="-2.3146860">
        <ele>1160.2</ele>
        <time>2020-09-12T08:26:19Z</time>
      </trkpt>
      <trkpt lat="40.9933640" lon="-2.3147120">
        <ele>1160.0</ele>
        <time>2020-09-12T08:26:20Z</time>
      </trkpt>
      <trkpt lat="40.9932780" lon="-2.3147430">
        <ele>1159.8</ele>
        <time>2020-09-12T08:26:21Z</time>
      </trkpt>
      <trkpt lat="40.9931930" lon="-2.3147780">
        <ele>1159.4</ele>
        <time>2020-09-12T08:26:22Z</time>
      </trkpt>
      <trkpt lat="40.9931080" lon="-2.3148170">
        <ele>1159.2</ele>
        <time>2020-09-12T08:26:23Z</time>
      </trkpt>
      <trkpt lat="40.9930230" lon="-2.3148590">
        <ele>1159.0</ele>
        <time>2020-09-12T08:26:24Z</time>
      </trkpt>
      <trkpt lat="40.9929370" lon="-2.3149000">
        <ele>1158.6</ele>
        <time>2020-09-12T08:26:25Z</time>
      </trkpt>
      <trkpt lat="40.9928510" lon="-2.3149410">
        <ele>1158.4</ele>
        <time>2020-09-12T08:26:26Z</time>
      </trkpt>
      <trkpt lat="40.9927630" lon="-2.3149780">
        <ele>1158.2</ele>
        <time>2020-09-12T08:26:27Z</time>
      </trkpt>
      <trkpt lat="40.9926740" lon="-2.3150150">
        <ele>1157.8</ele>
        <time>2020-09-12T08:26:28Z</time>
      </trkpt>
      <trkpt lat="40.9925870" lon="-2.3150520">
        <ele>1157.6</ele>
        <time>2020-09-12T08:26:29Z</time>
      </trkpt>
      <trkpt lat="40.9925010" lon="-2.3150900">
        <ele>1157.2</ele>
        <time>2020-09-12T08:26:30Z</time>
      </trkpt>
      <trkpt lat="40.9924150" lon="-2.3151290">
        <ele>1156.8</ele>
        <time>2020-09-12T08:26:31Z</time>
      </trkpt>
      <trkpt lat="40.9923300" lon="-2.3151660">
        <ele>1156.4</ele>
        <time>2020-09-12T08:26:32Z</time>
      </trkpt>
      <trkpt lat="40.9922440" lon="-2.3152040">
        <ele>1156.2</ele>
        <time>2020-09-12T08:26:33Z</time>
      </trkpt>
      <trkpt lat="40.9921580" lon="-2.3152410">
        <ele>1155.8</ele>
        <time>2020-09-12T08:26:34Z</time>
      </trkpt>
      <trkpt lat="40.9920720" lon="-2.3152780">
        <ele>1155.6</ele>
        <time>2020-09-12T08:26:35Z</time>
      </trkpt>
      <trkpt lat="40.9919880" lon="-2.3153170">
        <ele>1155.4</ele>
        <time>2020-09-12T08:26:36Z</time>
      </trkpt>
      <trkpt lat="40.9919060" lon="-2.3153600">
        <ele>1155.0</ele>
        <time>2020-09-12T08:26:37Z</time>
      </trkpt>
      <trkpt lat="40.9918250" lon="-2.3154070">
        <ele>1154.8</ele>
        <time>2020-09-12T08:26:38Z</time>
      </trkpt>
      <trkpt lat="40.9917470" lon="-2.3154580">
        <ele>1154.4</ele>
        <time>2020-09-12T08:26:39Z</time>
      </trkpt>
      <trkpt lat="40.9916720" lon="-2.3155170">
        <ele>1154.0</ele>
        <time>2020-09-12T08:26:40Z</time>
      </trkpt>
      <trkpt lat="40.9916000" lon="-2.3155810">
        <ele>1153.6</ele>
        <time>2020-09-12T08:26:41Z</time>
      </trkpt>
      <trkpt lat="40.9915310" lon="-2.3156500">
        <ele>1153.4</ele>
        <time>2020-09-12T08:26:42Z</time>
      </trkpt>
      <trkpt lat="40.9914660" lon="-2.3157260">
        <ele>1153.2</ele>
        <time>2020-09-12T08:26:43Z</time>
      </trkpt>
      <trkpt lat="40.9914040" lon="-2.3158050">
        <ele>1153.2</ele>
        <time>2020-09-12T08:26:44Z</time>
      </trkpt>
      <trkpt lat="40.9913430" lon="-2.3158850">
        <ele>1153.0</ele>
        <time>2020-09-12T08:26:45Z</time>
      </trkpt>
      <trkpt lat="40.9912850" lon="-2.3159660">
        <ele>1153.0</ele>
        <time>2020-09-12T08:26:46Z</time>
      </trkpt>
      <trkpt lat="40.9912290" lon="-2.3160480">
        <ele>1153.0</ele>
        <time>2020-09-12T08:26:47Z</time>
      </trkpt>
      <trkpt lat="40.9911750" lon="-2.3161270">
        <ele>1153.0</ele>
        <time>2020-09-12T08:26:48Z</time>
      </trkpt>
      <trkpt lat="40.9911240" lon="-2.3162050">
        <ele>1152.8</ele>
        <time>2020-09-12T08:26:49Z</time>
      </trkpt>
      <trkpt lat="40.9910760" lon="-2.3162800">
        <ele>1152.8</ele>
        <time>2020-09-12T08:26:50Z</time>
      </trkpt>
      <trkpt lat="40.9910290" lon="-2.3163480">
        <ele>1152.8</ele>
        <time>2020-09-12T08:26:51Z</time>
      </trkpt>
      <trkpt lat="40.9909850" lon="-2.3164110">
        <ele>1152.8</ele>
        <time>2020-09-12T08:26:52Z</time>
      </trkpt>
      <trkpt lat="40.9909420" lon="-2.3164690">
        <ele>1153.0</ele>
        <time>2020-09-12T08:26:53Z</time>
      </trkpt>
      <trkpt lat="40.9909010" lon="-2.3165250">
        <ele>1153.2</ele>
        <time>2020-09-12T08:26:54Z</time>
      </trkpt>
      <trkpt lat="40.9908610" lon="-2.3165770">
        <ele>1153.8</ele>
        <time>2020-09-12T08:26:55Z</time>
      </trkpt>
      <trkpt lat="40.9908210" lon="-2.3166280">
        <ele>1154.0</ele>
        <time>2020-09-12T08:26:56Z</time>
      </trkpt>
      <trkpt lat="40.9907840" lon="-2.3166770">
        <ele>1154.4</ele>
        <time>2020-09-12T08:26:57Z</time>
      </trkpt>
      <trkpt lat="40.9907470" lon="-2.3167250">
        <ele>1154.6</ele>
        <time>2020-09-12T08:26:58Z</time>
      </trkpt>
      <trkpt lat="40.9907100" lon="-2.3167730">
        <ele>1154.6</ele>
        <time>2020-09-12T08:26:59Z</time>
      </trkpt>
      <trkpt lat="40.9906710" lon="-2.3168200">
        <ele>1154.8</ele>
        <time>2020-09-12T08:27:00Z</time>
      </trkpt>
      <trkpt lat="40.9906300" lon="-2.3168660">
        <ele>1154.8</ele>
        <time>2020-09-12T08:27:01Z</time>
      </trkpt>
      <trkpt lat="40.9905900" lon="-2.3169120">
        <ele>1154.8</ele>
        <time>2020-09-12T08:27:02Z</time>
      </trkpt>
      <trkpt lat="40.9905500" lon="-2.3169590">
        <ele>1154.8</ele>
        <time>2020-09-12T08:27:03Z</time>
      </trkpt>
      <trkpt lat="40.9905090" lon="-2.3170060">
        <ele>1154.8</ele>
        <time>2020-09-12T08:27:04Z</time>
      </trkpt>
      <trkpt lat="40.9904680" lon="-2.3170530">
        <ele>1154.8</ele>
        <time>2020-09-12T08:27:05Z</time>
      </trkpt>
      <trkpt lat="40.9904260" lon="-2.3171020">
        <ele>1154.8</ele>
        <time>2020-09-12T08:27:06Z</time>
      </trkpt>
      <trkpt lat="40.9903830" lon="-2.3171520">
        <ele>1154.8</ele>
        <time>2020-09-12T08:27:07Z</time>
      </trkpt>
      <trkpt lat="40.9903400" lon="-2.3172020">
        <ele>1154.8</ele>
        <time>2020-09-12T08:27:08Z</time>
      </trkpt>
      <trkpt lat="40.9902960" lon="-2.3172510">
        <ele>1155.0</ele>
        <time>2020-09-12T08:27:09Z</time>
      </trkpt>
      <trkpt lat="40.9902510" lon="-2.3173010">
        <ele>1155.0</ele>
        <time>2020-09-12T08:27:10Z</time>
      </trkpt>
      <trkpt lat="40.9902080" lon="-2.3173510">
        <ele>1155.0</ele>
        <time>2020-09-12T08:27:11Z</time>
      </trkpt>
      <trkpt lat="40.9901660" lon="-2.3174020">
        <ele>1155.2</ele>
        <time>2020-09-12T08:27:12Z</time>
      </trkpt>
      <trkpt lat="40.9901220" lon="-2.3174510">
        <ele>1155.4</ele>
        <time>2020-09-12T08:27:13Z</time>
      </trkpt>
      <trkpt lat="40.9900780" lon="-2.3174980">
        <ele>1155.8</ele>
        <time>2020-09-12T08:27:14Z</time>
      </trkpt>
      <trkpt lat="40.9900360" lon="-2.3175450">
        <ele>1156.0</ele>
        <time>2020-09-12T08:27:15Z</time>
      </trkpt>
      <trkpt lat="40.9899950" lon="-2.3175920">
        <ele>1156.0</ele>
        <time>2020-09-12T08:27:16Z</time>
      </trkpt>
      <trkpt lat="40.9899540" lon="-2.3176380">
        <ele>1156.2</ele>
        <time>2020-09-12T08:27:17Z</time>
      </trkpt>
      <trkpt lat="40.9899140" lon="-2.3176860">
        <ele>1156.2</ele>
        <time>2020-09-12T08:27:18Z</time>
      </trkpt>
      <trkpt lat="40.9898760" lon="-2.3177320">
        <ele>1156.4</ele>
        <time>2020-09-12T08:27:19Z</time>
      </trkpt>
      <trkpt lat="40.9898380" lon="-2.3177760">
        <ele>1156.4</ele>
        <time>2020-09-12T08:27:20Z</time>
      </trkpt>
      <trkpt lat="40.9898020" lon="-2.3178190">
        <ele>1156.6</ele>
        <time>2020-09-12T08:27:21Z</time>
      </trkpt>
      <trkpt lat="40.9897650" lon="-2.3178590">
        <ele>1157.0</ele>
        <time>2020-09-12T08:27:22Z</time>
      </trkpt>
      <trkpt lat="40.9897300" lon="-2.3178990">
        <ele>1157.2</ele>
        <time>2020-09-12T08:27:23Z</time>
      </trkpt>
      <trkpt lat="40.9896960" lon="-2.3179370">
        <ele>1157.4</ele>
        <time>2020-09-12T08:27:24Z</time>
      </trkpt>
      <trkpt lat="40.9896630" lon="-2.3179750">
        <ele>1157.4</ele>
        <time>2020-09-12T08:27:25Z</time>
      </trkpt>
      <trkpt lat="40.9896320" lon="-2.3180110">
        <ele>1157.6</ele>
        <time>2020-09-12T08:27:26Z</time>
      </trkpt>
      <trkpt lat="40.9896030" lon="-2.3180450">
        <ele>1157.8</ele>
        <time>2020-09-12T08:27:27Z</time>
      </trkpt>
      <trkpt lat="40.9895750" lon="-2.3180780">
        <ele>1158.0</ele>
        <time>2020-09-12T08:27:28Z</time>
      </trkpt>
      <trkpt lat="40.9895480" lon="-2.3181100">
        <ele>1158.0</ele>
        <time>2020-09-12T08:27:29Z</time>
      </trkpt>
      <trkpt lat="40.9895220" lon="-2.3181410">
        <ele>1158.2</ele>
        <time>2020-09-12T08:27:30Z</time>
      </trkpt>
      <trkpt lat="40.9894960" lon="-2.3181700">
        <ele>1158.4</ele>
        <time>2020-09-12T08:27:31Z</time>
      </trkpt>
      <trkpt lat="40.9894700" lon="-2.3181960">
        <ele>1158.6</ele>
        <time>2020-09-12T08:27:32Z</time>
      </trkpt>
      <trkpt lat="40.9894450" lon="-2.3182230">
        <ele>1159.0</ele>
        <time>2020-09-12T08:27:33Z</time>
      </trkpt>
      <trkpt lat="40.9894230" lon="-2.3182500">
        <ele>1159.2</ele>
        <time>2020-09-12T08:27:34Z</time>
      </trkpt>
      <trkpt lat="40.9894010" lon="-2.3182770">
        <ele>1159.4</ele>
        <time>2020-09-12T08:27:35Z</time>
      </trkpt>
      <trkpt lat="40.9893780" lon="-2.3183020">
        <ele>1159.6</ele>
        <time>2020-09-12T08:27:36Z</time>
      </trkpt>
      <trkpt lat="40.9893530" lon="-2.3183280">
        <ele>1159.8</ele>
        <time>2020-09-12T08:27:37Z</time>
      </trkpt>
      <trkpt lat="40.9893310" lon="-2.3183550">
        <ele>1160.0</ele>
        <time>2020-09-12T08:27:38Z</time>
      </trkpt>
      <trkpt lat="40.9893100" lon="-2.3183840">
        <ele>1160.2</ele>
        <time>2020-09-12T08:27:39Z</time>
      </trkpt>
      <trkpt lat="40.9892900" lon="-2.3184100">
        <ele>1160.4</ele>
        <time>2020-09-12T08:27:40Z</time>
      </trkpt>
      <trkpt lat="40.9892680" lon="-2.3184360">
        <ele>1160.8</ele>
        <time>2020-09-12T08:27:41Z</time>
      </trkpt>
      <trkpt lat="40.9892450" lon="-2.3184630">
        <ele>1161.0</ele>
        <time>2020-09-12T08:27:42Z</time>
      </trkpt>
      <trkpt lat="40.9892200" lon="-2.3184930">
        <ele>1161.2</ele>
        <time>2020-09-12T08:27:43Z</time>
      </trkpt>
      <trkpt lat="40.9891940" lon="-2.3185230">
        <ele>1161.2</ele>
        <time>2020-09-12T08:27:44Z</time>
      </trkpt>
      <trkpt lat="40.9891660" lon="-2.3185510">
        <ele>1161.4</ele>
        <time>2020-09-12T08:27:45Z</time>
      </trkpt>
      <trkpt lat="40.9891400" lon="-2.3185800">
        <ele>1161.6</ele>
        <time>2020-09-12T08:27:46Z</time>
      </trkpt>
      <trkpt lat="40.9891150" lon="-2.3186080">
        <ele>1161.8</ele>
        <time>2020-09-12T08:27:47Z</time>
      </trkpt>
      <trkpt lat="40.9890910" lon="-2.3186360">
        <ele>1162.2</ele>
        <time>2020-09-12T08:27:48Z</time>
      </trkpt>
      <trkpt lat="40.9890660" lon="-2.3186650">
        <ele>1162.4</ele>
        <time>2020-09-12T08:27:49Z</time>
      </trkpt>
      <trkpt lat="40.9890420" lon="-2.3186940">
        <ele>1162.6</ele>
        <time>2020-09-12T08:27:50Z</time>
      </trkpt>
      <trkpt lat="40.9890170" lon="-2.3187210">
        <ele>1162.6</ele>
        <time>2020-09-12T08:27:51Z</time>
      </trkpt>
      <trkpt lat="40.9889920" lon="-2.3187470">
        <ele>1162.8</ele>
        <time>2020-09-12T08:27:52Z</time>
      </trkpt>
      <trkpt lat="40.9889680" lon="-2.3187730">
        <ele>1163.0</ele>
        <time>2020-09-12T08:27:53Z</time>
      </trkpt>
      <trkpt lat="40.9889440" lon="-2.3187990">
        <ele>1163.4</ele>
        <time>2020-09-12T08:27:54Z</time>
      </trkpt>
      <trkpt lat="40.9889210" lon="-2.3188270">
        <ele>1163.6</ele>
        <time>2020-09-12T08:27:55Z</time>
      </trkpt>
      <trkpt lat="40.9888980" lon="-2.3188530">
        <ele>1163.8</ele>
        <time>2020-09-12T08:27:56Z</time>
      </trkpt>
      <trkpt lat="40.9888740" lon="-2.3188790">
        <ele>1164.0</ele>
        <time>2020-09-12T08:27:57Z</time>
      </trkpt>
      <trkpt lat="40.9888510" lon="-2.3189050">
        <ele>1164.2</ele>
        <time>2020-09-12T08:27:58Z</time>
      </trkpt>
      <trkpt lat="40.9888290" lon="-2.3189310">
        <ele>1164.4</ele>
        <time>2020-09-12T08:27:59Z</time>
      </trkpt>
      <trkpt lat="40.9888070" lon="-2.3189560">
        <ele>1164.8</ele>
        <time>2020-09-12T08:28:00Z</time>
      </trkpt>
      <trkpt lat="40.9887850" lon="-2.3189810">
        <ele>1165.2</ele>
        <time>2020-09-12T08:28:01Z</time>
      </trkpt>
      <trkpt lat="40.9887650" lon="-2.3190050">
        <ele>1165.6</ele>
        <time>2020-09-12T08:28:02Z</time>
      </trkpt>
      <trkpt lat="40.9887460" lon="-2.3190320">
        <ele>1166.0</ele>
        <time>2020-09-12T08:28:03Z</time>
      </trkpt>
      <trkpt lat="40.9887290" lon="-2.3190580">
        <ele>1166.2</ele>
        <time>2020-09-12T08:28:04Z</time>
      </trkpt>
      <trkpt lat="40.9887120" lon="-2.3190870">
        <ele>1166.4</ele>
        <time>2020-09-12T08:28:05Z</time>
      </trkpt>
      <trkpt lat="40.9886990" lon="-2.3191180">
        <ele>1166.6</ele>
        <time>2020-09-12T08:28:06Z</time>
      </trkpt>
      <trkpt lat="40.9886840" lon="-2.3191510">
        <ele>1166.8</ele>
        <time>2020-09-12T08:28:07Z</time>
      </trkpt>
      <trkpt lat="40.9886700" lon="-2.3191840">
        <ele>1166.8</ele>
        <time>2020-09-12T08:28:08Z</time>
      </trkpt>
      <trkpt lat="40.9886580" lon="-2.3192180">
        <ele>1167.0</ele>
        <time>2020-09-12T08:28:09Z</time>
      </trkpt>
      <trkpt lat="40.9886480" lon="-2.3192530">
        <ele>1167.2</ele>
        <time>2020-09-12T08:28:10Z</time>
      </trkpt>
      <trkpt lat="40.9886390" lon="-2.3192870">
        <ele>1167.6</ele>
        <time>2020-09-12T08:28:11Z</time>
      </trkpt>
      <trkpt lat="40.9886290" lon="-2.3193230">
        <ele>1167.8</ele>
        <time>2020-09-12T08:28:12Z</time>
      </trkpt>
      <trkpt lat="40.9886190" lon="-2.3193590">
        <ele>1168.0</ele>
        <time>2020-09-12T08:28:13Z</time>
      </trkpt>
      <trkpt lat="40.9886090" lon="-2.3193950">
        <ele>1168.2</ele>
        <time>2020-09-12T08:28:14Z</time>
      </trkpt>
      <trkpt lat="40.9885970" lon="-2.3194290">
        <ele>1168.4</ele>
        <time>2020-09-12T08:28:15Z</time>
      </trkpt>
      <trkpt lat="40.9885850" lon="-2.3194640">
        <ele>1168.6</ele>
        <time>2020-09-12T08:28:16Z</time>
      </trkpt>
      <trkpt lat="40.9885750" lon="-2.3195000">
        <ele>1168.8</ele>
        <time>2020-09-12T08:28:17Z</time>
      </trkpt>
      <trkpt lat="40.9885630" lon="-2.3195370">
        <ele>1169.2</ele>
        <time>2020-09-12T08:28:18Z</time>
      </trkpt>
      <trkpt lat="40.9885520" lon="-2.3195730">
        <ele>1169.4</ele>
        <time>2020-09-12T08:28:19Z</time>
      </trkpt>
      <trkpt lat="40.9885420" lon="-2.3196100">
        <ele>1169.6</ele>
        <time>2020-09-12T08:28:20Z</time>
      </trkpt>
      <trkpt lat="40.9885310" lon="-2.3196460">
        <ele>1169.8</ele>
        <time>2020-09-12T08:28:21Z</time>
      </trkpt>
      <trkpt lat="40.9885200" lon="-2.3196820">
        <ele>1169.8</ele>
        <time>2020-09-12T08:28:22Z</time>
      </trkpt>
      <trkpt lat="40.9885100" lon="-2.3197170">
        <ele>1170.0</ele>
        <time>2020-09-12T08:28:23Z</time>
      </trkpt>
      <trkpt lat="40.9885000" lon="-2.3197520">
        <ele>1170.4</ele>
        <time>2020-09-12T08:28:24Z</time>
      </trkpt>
      <trkpt lat="40.9884900" lon="-2.3197860">
        <ele>1170.8</ele>
        <time>2020-09-12T08:28:25Z</time>
      </trkpt>
      <trkpt lat="40.9884790" lon="-2.3198200">
        <ele>1171.0</ele>
        <time>2020-09-12T08:28:26Z</time>
      </trkpt>
      <trkpt lat="40.9884680" lon="-2.3198540">
        <ele>1171.4</ele>
        <time>2020-09-12T08:28:27Z</time>
      </trkpt>
      <trkpt lat="40.9884580" lon="-2.3198870">
        <ele>1171.6</ele>
        <time>2020-09-12T08:28:28Z</time>
      </trkpt>
      <trkpt lat="40.9884460" lon="-2.3199190">
        <ele>1171.8</ele>
        <time>2020-09-12T08:28:29Z</time>
      </trkpt>
      <trkpt lat="40.9884350" lon="-2.3199510">
        <ele>1172.0</ele>
        <time>2020-09-12T08:28:30Z</time>
      </trkpt>
      <trkpt lat="40.9884230" lon="-2.3199850">
        <ele>1172.2</ele>
        <time>2020-09-12T08:28:31Z</time>
      </trkpt>
      <trkpt lat="40.9884130" lon="-2.3200190">
        <ele>1172.2</ele>
        <time>2020-09-12T08:28:32Z</time>
      </trkpt>
      <trkpt lat="40.9884020" lon="-2.3200540">
        <ele>1172.4</ele>
        <time>2020-09-12T08:28:33Z</time>
      </trkpt>
      <trkpt lat="40.9883900" lon="-2.3200900">
        <ele>1172.8</ele>
        <time>2020-09-12T08:28:34Z</time>
      </trkpt>
      <trkpt lat="40.9883780" lon="-2.3201250">
        <ele>1173.2</ele>
        <time>2020-09-12T08:28:35Z</time>
      </trkpt>
      <trkpt lat="40.9883650" lon="-2.3201590">
        <ele>1173.4</ele>
        <time>2020-09-12T08:28:36Z</time>
      </trkpt>
      <trkpt lat="40.9883540" lon="-2.3201930">
        <ele>1173.4</ele>
        <time>2020-09-12T08:28:37Z</time>
      </trkpt>
      <trkpt lat="40.9883440" lon="-2.3202280">
        <ele>1173.8</ele>
        <time>2020-09-12T08:28:38Z</time>
      </trkpt>
      <trkpt lat="40.9883330" lon="-2.3202630">
        <ele>1174.0</ele>
        <time>2020-09-12T08:28:39Z</time>
      </trkpt>
      <trkpt lat="40.9883230" lon="-2.3202960">
        <ele>1174.4</ele>
        <time>2020-09-12T08:28:40Z</time>
      </trkpt>
      <trkpt lat="40.9883120" lon="-2.3203310">
        <ele>1174.6</ele>
        <time>2020-09-12T08:28:41Z</time>
      </trkpt>
      <trkpt lat="40.9883010" lon="-2.3203650">
        <ele>1174.8</ele>
        <time>2020-09-12T08:28:42Z</time>
      </trkpt>
      <trkpt lat="40.9882900" lon="-2.3203990">
        <ele>1175.0</ele>
        <time>2020-09-12T08:28:43Z</time>
      </trkpt>
      <trkpt lat="40.9882790" lon="-2.3204330">
        <ele>1175.2</ele>
        <time>2020-09-12T08:28:44Z</time>
      </trkpt>
      <trkpt lat="40.9882690" lon="-2.3204670">
        <ele>1175.4</ele>
        <time>2020-09-12T08:28:45Z</time>
      </trkpt>
      <trkpt lat="40.9882580" lon="-2.3205000">
        <ele>1175.4</ele>
        <time>2020-09-12T08:28:46Z</time>
      </trkpt>
      <trkpt lat="40.9882450" lon="-2.3205330">
        <ele>1175.6</ele>
        <time>2020-09-12T08:28:47Z</time>
      </trkpt>
      <trkpt lat="40.9882330" lon="-2.3205670">
        <ele>1175.8</ele>
        <time>2020-09-12T08:28:48Z</time>
      </trkpt>
      <trkpt lat="40.9882220" lon="-2.3206020">
        <ele>1176.0</ele>
        <time>2020-09-12T08:28:49Z</time>
      </trkpt>
      <trkpt lat="40.9882110" lon="-2.3206380">
        <ele>1176.4</ele>
        <time>2020-09-12T08:28:50Z</time>
      </trkpt>
      <trkpt lat="40.9882000" lon="-2.3206740">
        <ele>1176.6</ele>
        <time>2020-09-12T08:28:51Z</time>
      </trkpt>
      <trkpt lat="40.9881880" lon="-2.3207120">
        <ele>1176.8</ele>
        <time>2020-09-12T08:28:52Z</time>
      </trkpt>
      <trkpt lat="40.9881780" lon="-2.3207500">
        <ele>1177.0</ele>
        <time>2020-09-12T08:28:53Z</time>
      </trkpt>
      <trkpt lat="40.9881690" lon="-2.3207870">
        <ele>1177.2</ele>
        <time>2020-09-12T08:28:54Z</time>
      </trkpt>
      <trkpt lat="40.9881610" lon="-2.3208250">
        <ele>1177.4</ele>
        <time>2020-09-12T08:28:55Z</time>
      </trkpt>
      <trkpt lat="40.9881520" lon="-2.3208640">
        <ele>1177.8</ele>
        <time>2020-09-12T08:28:56Z</time>
      </trkpt>
      <trkpt lat="40.9881410" lon="-2.3209010">
        <ele>1178.0</ele>
        <time>2020-09-12T08:28:57Z</time>
      </trkpt>
      <trkpt lat="40.9881320" lon="-2.3209400">
        <ele>1178.4</ele>
        <time>2020-09-12T08:28:58Z</time>
      </trkpt>
      <trkpt lat="40.9881250" lon="-2.3209790">
        <ele>1178.6</ele>
        <time>2020-09-12T08:28:59Z</time>
      </trkpt>
      <trkpt lat="40.9881190" lon="-2.3210200">
        <ele>1178.8</ele>
        <time>2020-09-12T08:29:00Z</time>
      </trkpt>
      <trkpt lat="40.9881100" lon="-2.3210620">
        <ele>1179.0</ele>
        <time>2020-09-12T08:29:01Z</time>
      </trkpt>
      <trkpt lat="40.9881030" lon="-2.3211050">
        <ele>1179.2</ele>
        <time>2020-09-12T08:29:02Z</time>
      </trkpt>
      <trkpt lat="40.9880960" lon="-2.3211480">
        <ele>1179.2</ele>
        <time>2020-09-12T08:29:03Z</time>
      </trkpt>
      <trkpt lat="40.9880900" lon="-2.3211900">
        <ele>1179.4</ele>
        <time>2020-09-12T08:29:04Z</time>
      </trkpt>
      <trkpt lat="40.9880840" lon="-2.3212330">
        <ele>1179.6</ele>
        <time>2020-09-12T08:29:05Z</time>
      </trkpt>
      <trkpt lat="40.9880790" lon="-2.3212750">
        <ele>1179.8</ele>
        <time>2020-09-12T08:29:06Z</time>
      </trkpt>
      <trkpt lat="40.9880740" lon="-2.3213170">
        <ele>1180.0</ele>
        <time>2020-09-12T08:29:07Z</time>
      </trkpt>
      <trkpt lat="40.9880710" lon="-2.3213600">
        <ele>1180.0</ele>
        <time>2020-09-12T08:29:08Z</time>
      </trkpt>
      <trkpt lat="40.9880670" lon="-2.3214030">
        <ele>1180.2</ele>
        <time>2020-09-12T08:29:09Z</time>
      </trkpt>
      <trkpt lat="40.9880630" lon="-2.3214460">
        <ele>1180.2</ele>
        <time>2020-09-12T08:29:10Z</time>
      </trkpt>
      <trkpt lat="40.9880610" lon="-2.3214890">
        <ele>1180.4</ele>
        <time>2020-09-12T08:29:11Z</time>
      </trkpt>
      <trkpt lat="40.9880570" lon="-2.3215320">
        <ele>1180.8</ele>
        <time>2020-09-12T08:29:12Z</time>
      </trkpt>
      <trkpt lat="40.9880530" lon="-2.3215760">
        <ele>1181.0</ele>
        <time>2020-09-12T08:29:13Z</time>
      </trkpt>
      <trkpt lat="40.9880480" lon="-2.3216200">
        <ele>1181.4</ele>
        <time>2020-09-12T08:29:14Z</time>
      </trkpt>
      <trkpt lat="40.9880420" lon="-2.3216650">
        <ele>1181.8</ele>
        <time>2020-09-12T08:29:15Z</time>
      </trkpt>
      <trkpt lat="40.9880360" lon="-2.3217090">
        <ele>1182.0</ele>
        <time>2020-09-12T08:29:16Z</time>
      </trkpt>
      <trkpt lat="40.9880300" lon="-2.3217550">
        <ele>1182.0</ele>
        <time>2020-09-12T08:29:17Z</time>
      </trkpt>
      <trkpt lat="40.9880230" lon="-2.3218020">
        <ele>1182.0</ele>
        <time>2020-09-12T08:29:18Z</time>
      </trkpt>
      <trkpt lat="40.9880150" lon="-2.3218490">
        <ele>1182.0</ele>
        <time>2020-09-12T08:29:19Z</time>
      </trkpt>
      <trkpt lat="40.9880080" lon="-2.3218980">
        <ele>1182.2</ele>
        <time>2020-09-12T08:29:20Z</time>
      </trkpt>
      <trkpt lat="40.9880010" lon="-2.3219460">
        <ele>1182.2</ele>
        <time>2020-09-12T08:29:21Z</time>
      </trkpt>
      <trkpt lat="40.9879940" lon="-2.3219940">
        <ele>1182.2</ele>
        <time>2020-09-12T08:29:22Z</time>
      </trkpt>
      <trkpt lat="40.9879860" lon="-2.3220440">
        <ele>1182.2</ele>
        <time>2020-09-12T08:29:23Z</time>
      </trkpt>
      <trkpt lat="40.9879770" lon="-2.3220940">
        <ele>1182.2</ele>
        <time>2020-09-12T08:29:24Z</time>
      </trkpt>
      <trkpt lat="40.9879690" lon="-2.3221450">
        <ele>1182.2</ele>
        <time>2020-09-12T08:29:25Z</time>
      </trkpt>
      <trkpt lat="40.9879610" lon="-2.3221970">
        <ele>1182.2</ele>
        <time>2020-09-12T08:29:26Z</time>
      </trkpt>
      <trkpt lat="40.9879540" lon="-2.3222500">
        <ele>1182.2</ele>
        <time>2020-09-12T08:29:27Z</time>
      </trkpt>
      <trkpt lat="40.9879450" lon="-2.3223010">
        <ele>1182.2</ele>
        <time>2020-09-12T08:29:28Z</time>
      </trkpt>
      <trkpt lat="40.9879370" lon="-2.3223530">
        <ele>1182.2</ele>
        <time>2020-09-12T08:29:29Z</time>
      </trkpt>
      <trkpt lat="40.9879290" lon="-2.3224060">
        <ele>1182.4</ele>
        <time>2020-09-12T08:29:30Z</time>
      </trkpt>
      <trkpt lat="40.9879210" lon="-2.3224580">
        <ele>1182.4</ele>
        <time>2020-09-12T08:29:31Z</time>
      </trkpt>
      <trkpt lat="40.9879140" lon="-2.3225100">
        <ele>1182.4</ele>
        <time>2020-09-12T08:29:32Z</time>
      </trkpt>
      <trkpt lat="40.9879050" lon="-2.3225610">
        <ele>1182.4</ele>
        <time>2020-09-12T08:29:33Z</time>
      </trkpt>
      <trkpt lat="40.9878950" lon="-2.3226120">
        <ele>1182.6</ele>
        <time>2020-09-12T08:29:34Z</time>
      </trkpt>
      <trkpt lat="40.9878850" lon="-2.3226630">
        <ele>1182.8</ele>
        <time>2020-09-12T08:29:35Z</time>
      </trkpt>
      <trkpt lat="40.9878760" lon="-2.3227120">
        <ele>1182.8</ele>
        <time>2020-09-12T08:29:36Z</time>
      </trkpt>
      <trkpt lat="40.9878640" lon="-2.3227600">
        <ele>1183.0</ele>
        <time>2020-09-12T08:29:37Z</time>
      </trkpt>
      <trkpt lat="40.9878520" lon="-2.3228060">
        <ele>1183.2</ele>
        <time>2020-09-12T08:29:38Z</time>
      </trkpt>
      <trkpt lat="40.9878410" lon="-2.3228500">
        <ele>1183.4</ele>
        <time>2020-09-12T08:29:39Z</time>
      </trkpt>
      <trkpt lat="40.9878270" lon="-2.3228900">
        <ele>1183.6</ele>
        <time>2020-09-12T08:29:40Z</time>
      </trkpt>
      <trkpt lat="40.9878110" lon="-2.3229280">
        <ele>1183.6</ele>
        <time>2020-09-12T08:29:41Z</time>
      </trkpt>
      <trkpt lat="40.9877950" lon="-2.3229630">
        <ele>1183.8</ele>
        <time>2020-09-12T08:29:42Z</time>
      </trkpt>
      <trkpt lat="40.9877780" lon="-2.3229960">
        <ele>1183.8</ele>
        <time>2020-09-12T08:29:43Z</time>
      </trkpt>
      <trkpt lat="40.9877640" lon="-2.3230290">
        <ele>1184.0</ele>
        <time>2020-09-12T08:29:44Z</time>
      </trkpt>
      <trkpt lat="40.9877500" lon="-2.3230630">
        <ele>1184.2</ele>
        <time>2020-09-12T08:29:45Z</time>
      </trkpt>
      <trkpt lat="40.9877350" lon="-2.3231000">
        <ele>1184.4</ele>
        <time>2020-09-12T08:29:46Z</time>
      </trkpt>
      <trkpt lat="40.9877250" lon="-2.3231400">
        <ele>1184.4</ele>
        <time>2020-09-12T08:29:47Z</time>
      </trkpt>
      <trkpt lat="40.9877190" lon="-2.3231840">
        <ele>1184.6</ele>
        <time>2020-09-12T08:29:48Z</time>
      </trkpt>
      <trkpt lat="40.9877150" lon="-2.3232290">
        <ele>1184.6</ele>
        <time>2020-09-12T08:29:49Z</time>
      </trkpt>
      <trkpt lat="40.9877120" lon="-2.3232750">
        <ele>1184.6</ele>
        <time>2020-09-12T08:29:50Z</time>
      </trkpt>
      <trkpt lat="40.9877090" lon="-2.3233210">
        <ele>1184.8</ele>
        <time>2020-09-12T08:29:51Z</time>
      </trkpt>
      <trkpt lat="40.9877060" lon="-2.3233670">
        <ele>1184.8</ele>
        <time>2020-09-12T08:29:52Z</time>
      </trkpt>
      <trkpt lat="40.9877050" lon="-2.3234110">
        <ele>1185.0</ele>
        <time>2020-09-12T08:29:53Z</time>
      </trkpt>
      <trkpt lat="40.9877070" lon="-2.3234550">
        <ele>1185.0</ele>
        <time>2020-09-12T08:29:54Z</time>
      </trkpt>
      <trkpt lat="40.9877130" lon="-2.3235010">
        <ele>1185.0</ele>
        <time>2020-09-12T08:29:55Z</time>
      </trkpt>
      <trkpt lat="40.9877200" lon="-2.3235480">
        <ele>1185.2</ele>
        <time>2020-09-12T08:29:56Z</time>
      </trkpt>
      <trkpt lat="40.9877270" lon="-2.3235970">
        <ele>1185.2</ele>
        <time>2020-09-12T08:29:57Z</time>
      </trkpt>
      <trkpt lat="40.9877340" lon="-2.3236450">
        <ele>1185.2</ele>
        <time>2020-09-12T08:29:58Z</time>
      </trkpt>
      <trkpt lat="40.9877380" lon="-2.3236940">
        <ele>1185.2</ele>
        <time>2020-09-12T08:29:59Z</time>
      </trkpt>
      <trkpt lat="40.9877410" lon="-2.3237430">
        <ele>1185.2</ele>
        <time>2020-09-12T08:30:00Z</time>
      </trkpt>
      <trkpt lat="40.9877420" lon="-2.3237850">
        <ele>1185.2</ele>
        <time>2020-09-12T08:30:01Z</time>
      </trkpt>
      <trkpt lat="40.9877430" lon="-2.3238280">
        <ele>1185.2</ele>
        <time>2020-09-12T08:30:02Z</time>
      </trkpt>
      <trkpt lat="40.9877500" lon="-2.3238770">
        <ele>1185.2</ele>
        <time>2020-09-12T08:30:03Z</time>
      </trkpt>
      <trkpt lat="40.9877610" lon="-2.3239270">
        <ele>1185.2</ele>
        <time>2020-09-12T08:30:04Z</time>
      </trkpt>
      <trkpt lat="40.9877690" lon="-2.3239730">
        <ele>1185.4</ele>
        <time>2020-09-12T08:30:05Z</time>
      </trkpt>
      <trkpt lat="40.9877810" lon="-2.3240170">
        <ele>1185.6</ele>
        <time>2020-09-12T08:30:06Z</time>
      </trkpt>
      <trkpt lat="40.9877920" lon="-2.3240610">
        <ele>1185.8</ele>
        <time>2020-09-12T08:30:07Z</time>
      </trkpt>
      <trkpt lat="40.9878020" lon="-2.3241040">
        <ele>1186.0</ele>
        <time>2020-09-12T08:30:08Z</time>
      </trkpt>
      <trkpt lat="40.9878110" lon="-2.3241460">
        <ele>1186.2</ele>
        <time>2020-09-12T08:30:09Z</time>
      </trkpt>
      <trkpt lat="40.9878190" lon="-2.3241890">
        <ele>1186.6</ele>
        <time>2020-09-12T08:30:10Z</time>
      </trkpt>
      <trkpt lat="40.9878290" lon="-2.3242330">
        <ele>1186.8</ele>
        <time>2020-09-12T08:30:11Z</time>
      </trkpt>
      <trkpt lat="40.9878390" lon="-2.3242790">
        <ele>1187.0</ele>
        <time>2020-09-12T08:30:12Z</time>
      </trkpt>
      <trkpt lat="40.9878500" lon="-2.3243260">
        <ele>1187.2</ele>
        <time>2020-09-12T08:30:13Z</time>
      </trkpt>
      <trkpt lat="40.9878590" lon="-2.3243740">
        <ele>1187.4</ele>
        <time>2020-09-12T08:30:14Z</time>
      </trkpt>
      <trkpt lat="40.9878680" lon="-2.3244230">
        <ele>1187.6</ele>
        <time>2020-09-12T08:30:15Z</time>
      </trkpt>
      <trkpt lat="40.9878770" lon="-2.3244720">
        <ele>1187.6</ele>
        <time>2020-09-12T08:30:16Z</time>
      </trkpt>
      <trkpt lat="40.9878830" lon="-2.3245200">
        <ele>1187.8</ele>
        <time>2020-09-12T08:30:17Z</time>
      </trkpt>
      <trkpt lat="40.9878850" lon="-2.3245710">
        <ele>1187.8</ele>
        <time>2020-09-12T08:30:18Z</time>
      </trkpt>
      <trkpt lat="40.9878850" lon="-2.3246220">
        <ele>1187.8</ele>
        <time>2020-09-12T08:30:19Z</time>
      </trkpt>
      <trkpt lat="40.9878820" lon="-2.3246720">
        <ele>1188.0</ele>
        <time>2020-09-12T08:30:20Z</time>
      </trkpt>
      <trkpt lat="40.9878740" lon="-2.3247220">
        <ele>1188.2</ele>
        <time>2020-09-12T08:30:21Z</time>
      </trkpt>
      <trkpt lat="40.9878640" lon="-2.3247730">
        <ele>1188.4</ele>
        <time>2020-09-12T08:30:22Z</time>
      </trkpt>
      <trkpt lat="40.9878540" lon="-2.3248240">
        <ele>1188.4</ele>
        <time>2020-09-12T08:30:23Z</time>
      </trkpt>
      <trkpt lat="40.9878440" lon="-2.3248790">
        <ele>1188.4</ele>
        <time>2020-09-12T08:30:24Z</time>
      </trkpt>
      <trkpt lat="40.9878320" lon="-2.3249370">
        <ele>1188.6</ele>
        <time>2020-09-12T08:30:25Z</time>
      </trkpt>
      <trkpt lat="40.9878180" lon="-2.3249970">
        <ele>1188.6</ele>
        <time>2020-09-12T08:30:26Z</time>
      </trkpt>
      <trkpt lat="40.9878060" lon="-2.3250580">
        <ele>1188.4</ele>
        <time>2020-09-12T08:30:27Z</time>
      </trkpt>
      <trkpt lat="40.9877920" lon="-2.3251180">
        <ele>1188.4</ele>
        <time>2020-09-12T08:30:28Z</time>
      </trkpt>
      <trkpt lat="40.9877780" lon="-2.3251780">
        <ele>1188.6</ele>
        <time>2020-09-12T08:30:29Z</time>
      </trkpt>
      <trkpt lat="40.9877650" lon="-2.3252410">
        <ele>1188.6</ele>
        <time>2020-09-12T08:30:30Z</time>
      </trkpt>
      <trkpt lat="40.9877570" lon="-2.3253050">
        <ele>1188.6</ele>
        <time>2020-09-12T08:30:31Z</time>
      </trkpt>
      <trkpt lat="40.9877520" lon="-2.3253710">
        <ele>1188.8</ele>
        <time>2020-09-12T08:30:32Z</time>
      </trkpt>
      <trkpt lat="40.9877500" lon="-2.3254370">
        <ele>1188.8</ele>
        <time>2020-09-12T08:30:33Z</time>
      </trkpt>
      <trkpt lat="40.9877490" lon="-2.3255020">
        <ele>1189.0</ele>
        <time>2020-09-12T08:30:34Z</time>
      </trkpt>
      <trkpt lat="40.9877470" lon="-2.3255680">
        <ele>1189.0</ele>
        <time>2020-09-12T08:30:35Z</time>
      </trkpt>
      <trkpt lat="40.9877460" lon="-2.3256350">
        <ele>1189.0</ele>
        <time>2020-09-12T08:30:36Z</time>
      </trkpt>
      <trkpt lat="40.9877460" lon="-2.3257040">
        <ele>1189.2</ele>
        <time>2020-09-12T08:30:37Z</time>
      </trkpt>
      <trkpt lat="40.9877460" lon="-2.3257760">
        <ele>1189.0</ele>
        <time>2020-09-12T08:30:38Z</time>
      </trkpt>
      <trkpt lat="40.9877460" lon="-2.3258490">
        <ele>1189.0</ele>
        <time>2020-09-12T08:30:39Z</time>
      </trkpt>
      <trkpt lat="40.9877470" lon="-2.3259240">
        <ele>1189.0</ele>
        <time>2020-09-12T08:30:40Z</time>
      </trkpt>
      <trkpt lat="40.9877490" lon="-2.3259980">
        <ele>1189.0</ele>
        <time>2020-09-12T08:30:41Z</time>
      </trkpt>
      <trkpt lat="40.9877520" lon="-2.3260740">
        <ele>1189.0</ele>
        <time>2020-09-12T08:30:42Z</time>
      </trkpt>
      <trkpt lat="40.9877540" lon="-2.3261490">
        <ele>1189.0</ele>
        <time>2020-09-12T08:30:43Z</time>
      </trkpt>
      <trkpt lat="40.9877550" lon="-2.3262240">
        <ele>1189.0</ele>
        <time>2020-09-12T08:30:44Z</time>
      </trkpt>
      <trkpt lat="40.9877550" lon="-2.3262990">
        <ele>1188.8</ele>
        <time>2020-09-12T08:30:45Z</time>
      </trkpt>
      <trkpt lat="40.9877550" lon="-2.3263740">
        <ele>1188.8</ele>
        <time>2020-09-12T08:30:46Z</time>
      </trkpt>
      <trkpt lat="40.9877560" lon="-2.3264510">
        <ele>1188.6</ele>
        <time>2020-09-12T08:30:47Z</time>
      </trkpt>
      <trkpt lat="40.9877590" lon="-2.3265260">
        <ele>1188.6</ele>
        <time>2020-09-12T08:30:48Z</time>
      </trkpt>
      <trkpt lat="40.9877620" lon="-2.3265990">
        <ele>1188.8</ele>
        <time>2020-09-12T08:30:49Z</time>
      </trkpt>
      <trkpt lat="40.9877640" lon="-2.3266720">
        <ele>1189.0</ele>
        <time>2020-09-12T08:30:50Z</time>
      </trkpt>
      <trkpt lat="40.9877650" lon="-2.3267450">
        <ele>1189.2</ele>
        <time>2020-09-12T08:30:51Z</time>
      </trkpt>
      <trkpt lat="40.9877650" lon="-2.3268170">
        <ele>1189.4</ele>
        <time>2020-09-12T08:30:52Z</time>
      </trkpt>
      <trkpt lat="40.9877660" lon="-2.3268880">
        <ele>1189.4</ele>
        <time>2020-09-12T08:30:53Z</time>
      </trkpt>
      <trkpt lat="40.9877680" lon="-2.3269590">
        <ele>1189.4</ele>
        <time>2020-09-12T08:30:54Z</time>
      </trkpt>
      <trkpt lat="40.9877720" lon="-2.3270310">
        <ele>1189.4</ele>
        <time>2020-09-12T08:30:55Z</time>
      </trkpt>
      <trkpt lat="40.9877750" lon="-2.3271030">
        <ele>1189.4</ele>
        <time>2020-09-12T08:30:56Z</time>
      </trkpt>
      <trkpt lat="40.9877790" lon="-2.3271750">
        <ele>1189.6</ele>
        <time>2020-09-12T08:30:57Z</time>
      </trkpt>
      <trkpt lat="40.9877810" lon="-2.3272450">
        <ele>1189.8</ele>
        <time>2020-09-12T08:30:58Z</time>
      </trkpt>
      <trkpt lat="40.9877850" lon="-2.3273120">
        <ele>1190.0</ele>
        <time>2020-09-12T08:30:59Z</time>
      </trkpt>
      <trkpt lat="40.9877890" lon="-2.3273770">
        <ele>1190.2</ele>
        <time>2020-09-12T08:31:00Z</time>
      </trkpt>
      <trkpt lat="40.9877940" lon="-2.3274390">
        <ele>1190.4</ele>
        <time>2020-09-12T08:31:01Z</time>
      </trkpt>
      <trkpt lat="40.9878010" lon="-2.3274990">
        <ele>1190.6</ele>
        <time>2020-09-12T08:31:02Z</time>
      </trkpt>
      <trkpt lat="40.9878080" lon="-2.3275570">
        <ele>1190.6</ele>
        <time>2020-09-12T08:31:03Z</time>
      </trkpt>
      <trkpt lat="40.9878150" lon="-2.3276140">
        <ele>1190.8</ele>
        <time>2020-09-12T08:31:04Z</time>
      </trkpt>
      <trkpt lat="40.9878240" lon="-2.3276700">
        <ele>1191.2</ele>
        <time>2020-09-12T08:31:05Z</time>
      </trkpt>
      <trkpt lat="40.9878340" lon="-2.3277260">
        <ele>1191.4</ele>
        <time>2020-09-12T08:31:06Z</time>
      </trkpt>
      <trkpt lat="40.9878440" lon="-2.3277810">
        <ele>1191.6</ele>
        <time>2020-09-12T08:31:07Z</time>
      </trkpt>
      <trkpt lat="40.9878540" lon="-2.3278340">
        <ele>1192.0</ele>
        <time>2020-09-12T08:31:08Z</time>
      </trkpt>
      <trkpt lat="40.9878630" lon="-2.3278870">
        <ele>1192.2</ele>
        <time>2020-09-12T08:31:09Z</time>
      </trkpt>
      <trkpt lat="40.9878710" lon="-2.3279400">
        <ele>1192.6</ele>
        <time>2020-09-12T08:31:10Z</time>
      </trkpt>
      <trkpt lat="40.9878780" lon="-2.3279910">
        <ele>1192.6</ele>
        <time>2020-09-12T08:31:11Z</time>
      </trkpt>
      <trkpt lat="40.9878850" lon="-2.3280430">
        <ele>1192.8</ele>
        <time>2020-09-12T08:31:12Z</time>
      </trkpt>
      <trkpt lat="40.9878910" lon="-2.3280950">
        <ele>1193.0</ele>
        <time>2020-09-12T08:31:13Z</time>
      </trkpt>
      <trkpt lat="40.9878960" lon="-2.3281470">
        <ele>1193.2</ele>
        <time>2020-09-12T08:31:14Z</time>
      </trkpt>
      <trkpt lat="40.9879010" lon="-2.3282010">
        <ele>1193.4</ele>
        <time>2020-09-12T08:31:15Z</time>
      </trkpt>
      <trkpt lat="40.9879050" lon="-2.3282540">
        <ele>1193.8</ele>
        <time>2020-09-12T08:31:16Z</time>
      </trkpt>
      <trkpt lat="40.9879090" lon="-2.3283080">
        <ele>1194.0</ele>
        <time>2020-09-12T08:31:17Z</time>
      </trkpt>
      <trkpt lat="40.9879140" lon="-2.3283620">
        <ele>1194.2</ele>
        <time>2020-09-12T08:31:18Z</time>
      </trkpt>
      <trkpt lat="40.9879180" lon="-2.3284160">
        <ele>1194.2</ele>
        <time>2020-09-12T08:31:19Z</time>
      </trkpt>
      <trkpt lat="40.9879220" lon="-2.3284700">
        <ele>1194.4</ele>
        <time>2020-09-12T08:31:20Z</time>
      </trkpt>
      <trkpt lat="40.9879270" lon="-2.3285240">
        <ele>1194.8</ele>
        <time>2020-09-12T08:31:21Z</time>
      </trkpt>
      <trkpt lat="40.9879340" lon="-2.3285790">
        <ele>1195.0</ele>
        <time>2020-09-12T08:31:22Z</time>
      </trkpt>
      <trkpt lat="40.9879410" lon="-2.3286340">
        <ele>1195.2</ele>
        <time>2020-09-12T08:31:23Z</time>
      </trkpt>
      <trkpt lat="40.9879460" lon="-2.3286880">
        <ele>1195.4</ele>
        <time>2020-09-12T08:31:24Z</time>
      </trkpt>
      <trkpt lat="40.9879490" lon="-2.3287420">
        <ele>1195.8</ele>
        <time>2020-09-12T08:31:25Z</time>
      </trkpt>
      <trkpt lat="40.9879530" lon="-2.3287960">
        <ele>1196.0</ele>
        <time>2020-09-12T08:31:26Z</time>
      </trkpt>
      <trkpt lat="40.9879580" lon="-2.3288490">
        <ele>1196.2</ele>
        <time>2020-09-12T08:31:27Z</time>
      </trkpt>
      <trkpt lat="40.9879620" lon="-2.3289020">
        <ele>1196.2</ele>
        <time>2020-09-12T08:31:28Z</time>
      </trkpt>
      <trkpt lat="40.9879650" lon="-2.3289550">
        <ele>1196.4</ele>
        <time>2020-09-12T08:31:29Z</time>
      </trkpt>
      <trkpt lat="40.9879700" lon="-2.3290090">
        <ele>1196.6</ele>
        <time>2020-09-12T08:31:30Z</time>
      </trkpt>
      <trkpt lat="40.9879750" lon="-2.3290620">
        <ele>1196.8</ele>
        <time>2020-09-12T08:31:31Z</time>
      </trkpt>
      <trkpt lat="40.9879790" lon="-2.3291150">
        <ele>1197.2</ele>
        <time>2020-09-12T08:31:32Z</time>
      </trkpt>
      <trkpt lat="40.9879840" lon="-2.3291690">
        <ele>1197.4</ele>
        <time>2020-09-12T08:31:33Z</time>
      </trkpt>
      <trkpt lat="40.9879890" lon="-2.3292220">
        <ele>1197.8</ele>
        <time>2020-09-12T08:31:34Z</time>
      </trkpt>
      <trkpt lat="40.9879950" lon="-2.3292750">
        <ele>1198.2</ele>
        <time>2020-09-12T08:31:35Z</time>
      </trkpt>
      <trkpt lat="40.9880010" lon="-2.3293270">
        <ele>1198.4</ele>
        <time>2020-09-12T08:31:36Z</time>
      </trkpt>
      <trkpt lat="40.9880050" lon="-2.3293790">
        <ele>1198.6</ele>
        <time>2020-09-12T08:31:37Z</time>
      </trkpt>
      <trkpt lat="40.9880100" lon="-2.3294310">
        <ele>1198.8</ele>
        <time>2020-09-12T08:31:38Z</time>
      </trkpt>
      <trkpt lat="40.9880150" lon="-2.3294820">
        <ele>1199.0</ele>
        <time>2020-09-12T08:31:39Z</time>
      </trkpt>
      <trkpt lat="40.9880210" lon="-2.3295350">
        <ele>1199.4</ele>
        <time>2020-09-12T08:31:40Z</time>
      </trkpt>
      <trkpt lat="40.9880260" lon="-2.3295870">
        <ele>1199.6</ele>
        <time>2020-09-12T08:31:41Z</time>
      </trkpt>
      <trkpt lat="40.9880320" lon="-2.3296400">
        <ele>1199.8</ele>
        <time>2020-09-12T08:31:42Z</time>
      </trkpt>
      <trkpt lat="40.9880380" lon="-2.3296920">
        <ele>1200.0</ele>
        <time>2020-09-12T08:31:43Z</time>
      </trkpt>
      <trkpt lat="40.9880440" lon="-2.3297450">
        <ele>1200.2</ele>
        <time>2020-09-12T08:31:44Z</time>
      </trkpt>
      <trkpt lat="40.9880480" lon="-2.3297990">
        <ele>1200.6</ele>
        <time>2020-09-12T08:31:45Z</time>
      </trkpt>
      <trkpt lat="40.9880540" lon="-2.3298510">
        <ele>1201.0</ele>
        <time>2020-09-12T08:31:46Z</time>
      </trkpt>
      <trkpt lat="40.9880570" lon="-2.3299050">
        <ele>1201.4</ele>
        <time>2020-09-12T08:31:47Z</time>
      </trkpt>
      <trkpt lat="40.9880610" lon="-2.3299590">
        <ele>1201.6</ele>
        <time>2020-09-12T08:31:48Z</time>
      </trkpt>
      <trkpt lat="40.9880670" lon="-2.3300090">
        <ele>1201.8</ele>
        <time>2020-09-12T08:31:49Z</time>
      </trkpt>
      <trkpt lat="40.9880760" lon="-2.3300580">
        <ele>1202.4</ele>
        <time>2020-09-12T08:31:50Z</time>
      </trkpt>
      <trkpt lat="40.9880840" lon="-2.3301060">
        <ele>1202.8</ele>
        <time>2020-09-12T08:31:51Z</time>
      </trkpt>
      <trkpt lat="40.9880900" lon="-2.3301530">
        <ele>1203.0</ele>
        <time>2020-09-12T08:31:52Z</time>
      </trkpt>
      <trkpt lat="40.9880940" lon="-2.3301990">
        <ele>1203.2</ele>
        <time>2020-09-12T08:31:53Z</time>
      </trkpt>
      <trkpt lat="40.9880980" lon="-2.3302450">
        <ele>1203.4</ele>
        <time>2020-09-12T08:31:54Z</time>
      </trkpt>
      <trkpt lat="40.9881030" lon="-2.3302930">
        <ele>1203.8</ele>
        <time>2020-09-12T08:31:55Z</time>
      </trkpt>
      <trkpt lat="40.9881110" lon="-2.3303420">
        <ele>1204.0</ele>
        <time>2020-09-12T08:31:56Z</time>
      </trkpt>
      <trkpt lat="40.9881180" lon="-2.3303910">
        <ele>1204.2</ele>
        <time>2020-09-12T08:31:57Z</time>
      </trkpt>
      <trkpt lat="40.9881260" lon="-2.3304410">
        <ele>1204.4</ele>
        <time>2020-09-12T08:31:58Z</time>
      </trkpt>
      <trkpt lat="40.9881330" lon="-2.3304920">
        <ele>1204.6</ele>
        <time>2020-09-12T08:31:59Z</time>
      </trkpt>
      <trkpt lat="40.9881400" lon="-2.3305460">
        <ele>1204.6</ele>
        <time>2020-09-12T08:32:00Z</time>
      </trkpt>
      <trkpt lat="40.9881490" lon="-2.3306020">
        <ele>1204.6</ele>
        <time>2020-09-12T08:32:01Z</time>
      </trkpt>
      <trkpt lat="40.9881590" lon="-2.3306610">
        <ele>1204.6</ele>
        <time>2020-09-12T08:32:02Z</time>
      </trkpt>
      <trkpt lat="40.9881740" lon="-2.3307240">
        <ele>1204.6</ele>
        <time>2020-09-12T08:32:03Z</time>
      </trkpt>
      <trkpt lat="40.9881890" lon="-2.3307890">
        <ele>1204.4</ele>
        <time>2020-09-12T08:32:04Z</time>
      </trkpt>
      <trkpt lat="40.9882050" lon="-2.3308590">
        <ele>1204.2</ele>
        <time>2020-09-12T08:32:05Z</time>
      </trkpt>
      <trkpt lat="40.9882220" lon="-2.3309340">
        <ele>1204.0</ele>
        <time>2020-09-12T08:32:06Z</time>
      </trkpt>
      <trkpt lat="40.9882390" lon="-2.3310130">
        <ele>1203.6</ele>
        <time>2020-09-12T08:32:07Z</time>
      </trkpt>
      <trkpt lat="40.9882570" lon="-2.3310970">
        <ele>1203.4</ele>
        <time>2020-09-12T08:32:08Z</time>
      </trkpt>
      <trkpt lat="40.9882780" lon="-2.3311850">
        <ele>1203.0</ele>
        <time>2020-09-12T08:32:09Z</time>
      </trkpt>
      <trkpt lat="40.9883000" lon="-2.3312770">
        <ele>1202.6</ele>
        <time>2020-09-12T08:32:10Z</time>
      </trkpt>
      <trkpt lat="40.9883220" lon="-2.3313750">
        <ele>1202.4</ele>
        <time>2020-09-12T08:32:11Z</time>
      </trkpt>
      <trkpt lat="40.9883440" lon="-2.3314780">
        <ele>1202.0</ele>
        <time>2020-09-12T08:32:12Z</time>
      </trkpt>
      <trkpt lat="40.9883680" lon="-2.3315860">
        <ele>1201.2</ele>
        <time>2020-09-12T08:32:13Z</time>
      </trkpt>
      <trkpt lat="40.9883950" lon="-2.3317000">
        <ele>1200.6</ele>
        <time>2020-09-12T08:32:14Z</time>
      </trkpt>
      <trkpt lat="40.9884230" lon="-2.3318180">
        <ele>1200.2</ele>
        <time>2020-09-12T08:32:15Z</time>
      </trkpt>
      <trkpt lat="40.9884520" lon="-2.3319420">
        <ele>1199.8</ele>
        <time>2020-09-12T08:32:16Z</time>
      </trkpt>
      <trkpt lat="40.9884840" lon="-2.3320700">
        <ele>1199.4</ele>
        <time>2020-09-12T08:32:17Z</time>
      </trkpt>
      <trkpt lat="40.9885160" lon="-2.3322020">
        <ele>1198.8</ele>
        <time>2020-09-12T08:32:18Z</time>
      </trkpt>
      <trkpt lat="40.9885500" lon="-2.3323370">
        <ele>1198.4</ele>
        <time>2020-09-12T08:32:19Z</time>
      </trkpt>
      <trkpt lat="40.9885850" lon="-2.3324770">
        <ele>1197.8</ele>
        <time>2020-09-12T08:32:20Z</time>
      </trkpt>
      <trkpt lat="40.9886190" lon="-2.3326170">
        <ele>1197.2</ele>
        <time>2020-09-12T08:32:21Z</time>
      </trkpt>
      <trkpt lat="40.9886530" lon="-2.3327560">
        <ele>1196.6</ele>
        <time>2020-09-12T08:32:22Z</time>
      </trkpt>
      <trkpt lat="40.9886860" lon="-2.3328950">
        <ele>1196.2</ele>
        <time>2020-09-12T08:32:23Z</time>
      </trkpt>
      <trkpt lat="40.9887190" lon="-2.3330310">
        <ele>1196.0</ele>
        <time>2020-09-12T08:32:24Z</time>
      </trkpt>
      <trkpt lat="40.9887530" lon="-2.3331660">
        <ele>1195.8</ele>
        <time>2020-09-12T08:32:25Z</time>
      </trkpt>
      <trkpt lat="40.9887860" lon="-2.3332990">
        <ele>1195.6</ele>
        <time>2020-09-12T08:32:26Z</time>
      </trkpt>
      <trkpt lat="40.9888170" lon="-2.3334310">
        <ele>1195.2</ele>
        <time>2020-09-12T08:32:27Z</time>
      </trkpt>
      <trkpt lat="40.9888480" lon="-2.3335620">
        <ele>1194.8</ele>
        <time>2020-09-12T08:32:28Z</time>
      </trkpt>
      <trkpt lat="40.9888780" lon="-2.3336900">
        <ele>1194.4</ele>
        <time>2020-09-12T08:32:29Z</time>
      </trkpt>
      <trkpt lat="40.9889060" lon="-2.3338150">
        <ele>1194.0</ele>
        <time>2020-09-12T08:32:30Z</time>
      </trkpt>
      <trkpt lat="40.9889290" lon="-2.3339360">
        <ele>1193.6</ele>
        <time>2020-09-12T08:32:31Z</time>
      </trkpt>
      <trkpt lat="40.9889480" lon="-2.3340550">
        <ele>1193.4</ele>
        <time>2020-09-12T08:32:32Z</time>
      </trkpt>
      <trkpt lat="40.9889630" lon="-2.3341700">
        <ele>1193.2</ele>
        <time>2020-09-12T08:32:33Z</time>
      </trkpt>
      <trkpt lat="40.9889760" lon="-2.3342860">
        <ele>1192.6</ele>
        <time>2020-09-12T08:32:34Z</time>
      </trkpt>
      <trkpt lat="40.9889860" lon="-2.3344000">
        <ele>1192.2</ele>
        <time>2020-09-12T08:32:35Z</time>
      </trkpt>
      <trkpt lat="40.9889950" lon="-2.3345130">
        <ele>1192.0</ele>
        <time>2020-09-12T08:32:36Z</time>
      </trkpt>
      <trkpt lat="40.9890030" lon="-2.3346240">
        <ele>1191.8</ele>
        <time>2020-09-12T08:32:37Z</time>
      </trkpt>
      <trkpt lat="40.9890100" lon="-2.3347350">
        <ele>1191.6</ele>
        <time>2020-09-12T08:32:38Z</time>
      </trkpt>
      <trkpt lat="40.9890160" lon="-2.3348450">
        <ele>1191.6</ele>
        <time>2020-09-12T08:32:39Z</time>
      </trkpt>
      <trkpt lat="40.9890220" lon="-2.3349540">
        <ele>1191.4</ele>
        <time>2020-09-12T08:32:40Z</time>
      </trkpt>
      <trkpt lat="40.9890300" lon="-2.3350610">
        <ele>1191.4</ele>
        <time>2020-09-12T08:32:41Z</time>
      </trkpt>
      <trkpt lat="40.9890380" lon="-2.3351670">
        <ele>1191.2</ele>
        <time>2020-09-12T08:32:42Z</time>
      </trkpt>
      <trkpt lat="40.9890470" lon="-2.3352710">
        <ele>1191.2</ele>
        <time>2020-09-12T08:32:43Z</time>
      </trkpt>
      <trkpt lat="40.9890550" lon="-2.3353740">
        <ele>1191.2</ele>
        <time>2020-09-12T08:32:44Z</time>
      </trkpt>
      <trkpt lat="40.9890610" lon="-2.3354740">
        <ele>1191.2</ele>
        <time>2020-09-12T08:32:45Z</time>
      </trkpt>
      <trkpt lat="40.9890670" lon="-2.3355710">
        <ele>1191.4</ele>
        <time>2020-09-12T08:32:46Z</time>
      </trkpt>
      <trkpt lat="40.9890700" lon="-2.3356650">
        <ele>1191.4</ele>
        <time>2020-09-12T08:32:47Z</time>
      </trkpt>
      <trkpt lat="40.9890730" lon="-2.3357560">
        <ele>1191.6</ele>
        <time>2020-09-12T08:32:48Z</time>
      </trkpt>
      <trkpt lat="40.9890730" lon="-2.3358430">
        <ele>1191.6</ele>
        <time>2020-09-12T08:32:49Z</time>
      </trkpt>
      <trkpt lat="40.9890680" lon="-2.3359270">
        <ele>1191.8</ele>
        <time>2020-09-12T08:32:50Z</time>
      </trkpt>
      <trkpt lat="40.9890610" lon="-2.3360050">
        <ele>1192.0</ele>
        <time>2020-09-12T08:32:51Z</time>
      </trkpt>
      <trkpt lat="40.9890520" lon="-2.3360810">
        <ele>1192.2</ele>
        <time>2020-09-12T08:32:52Z</time>
      </trkpt>
      <trkpt lat="40.9890420" lon="-2.3361550">
        <ele>1192.4</ele>
        <time>2020-09-12T08:32:53Z</time>
      </trkpt>
      <trkpt lat="40.9890330" lon="-2.3362260">
        <ele>1192.8</ele>
        <time>2020-09-12T08:32:54Z</time>
      </trkpt>
      <trkpt lat="40.9890260" lon="-2.3362960">
        <ele>1193.0</ele>
        <time>2020-09-12T08:32:55Z</time>
      </trkpt>
      <trkpt lat="40.9890180" lon="-2.3363640">
        <ele>1193.2</ele>
        <time>2020-09-12T08:32:56Z</time>
      </trkpt>
      <trkpt lat="40.9890110" lon="-2.3364290">
        <ele>1193.4</ele>
        <time>2020-09-12T08:32:57Z</time>
      </trkpt>
      <trkpt lat="40.9890040" lon="-2.3364930">
        <ele>1193.6</ele>
        <time>2020-09-12T08:32:58Z</time>
      </trkpt>
      <trkpt lat="40.9889980" lon="-2.3365520">
        <ele>1193.8</ele>
        <time>2020-09-12T08:32:59Z</time>
      </trkpt>
      <trkpt lat="40.9889930" lon="-2.3366080">
        <ele>1194.2</ele>
        <time>2020-09-12T08:33:00Z</time>
      </trkpt>
      <trkpt lat="40.9889870" lon="-2.3366640">
        <ele>1194.4</ele>
        <time>2020-09-12T08:33:01Z</time>
      </trkpt>
      <trkpt lat="40.9889840" lon="-2.3367180">
        <ele>1194.6</ele>
        <time>2020-09-12T08:33:02Z</time>
      </trkpt>
      <trkpt lat="40.9889830" lon="-2.3367700">
        <ele>1195.0</ele>
        <time>2020-09-12T08:33:03Z</time>
      </trkpt>
      <trkpt lat="40.9889840" lon="-2.3368210">
        <ele>1195.4</ele>
        <time>2020-09-12T08:33:04Z</time>
      </trkpt>
      <trkpt lat="40.9889870" lon="-2.3368710">
        <ele>1195.6</ele>
        <time>2020-09-12T08:33:05Z</time>
      </trkpt>
      <trkpt lat="40.9889910" lon="-2.3369190">
        <ele>1196.0</ele>
        <time>2020-09-12T08:33:06Z</time>
      </trkpt>
      <trkpt lat="40.9890010" lon="-2.3369660">
        <ele>1196.4</ele>
        <time>2020-09-12T08:33:07Z</time>
      </trkpt>
      <trkpt lat="40.9890140" lon="-2.3370130">
        <ele>1196.6</ele>
        <time>2020-09-12T08:33:08Z</time>
      </trkpt>
      <trkpt lat="40.9890300" lon="-2.3370590">
        <ele>1196.8</ele>
        <time>2020-09-12T08:33:09Z</time>
      </trkpt>
      <trkpt lat="40.9890480" lon="-2.3371050">
        <ele>1197.2</ele>
        <time>2020-09-12T08:33:10Z</time>
      </trkpt>
      <trkpt lat="40.9890660" lon="-2.3371520">
        <ele>1197.6</ele>
        <time>2020-09-12T08:33:11Z</time>
      </trkpt>
      <trkpt lat="40.9890850" lon="-2.3372000">
        <ele>1198.0</ele>
        <time>2020-09-12T08:33:12Z</time>
      </trkpt>
      <trkpt lat="40.9891060" lon="-2.3372480">
        <ele>1198.4</ele>
        <time>2020-09-12T08:33:13Z</time>
      </trkpt>
      <trkpt lat="40.9891320" lon="-2.3372990">
        <ele>1198.6</ele>
        <time>2020-09-12T08:33:14Z</time>
      </trkpt>
      <trkpt lat="40.9891620" lon="-2.3373520">
        <ele>1198.8</ele>
        <time>2020-09-12T08:33:15Z</time>
      </trkpt>
      <trkpt lat="40.9891930" lon="-2.3374020">
        <ele>1199.0</ele>
        <time>2020-09-12T08:33:16Z</time>
      </trkpt>
      <trkpt lat="40.9892260" lon="-2.3374520">
        <ele>1199.2</ele>
        <time>2020-09-12T08:33:17Z</time>
      </trkpt>
      <trkpt lat="40.9892630" lon="-2.3374990">
        <ele>1199.6</ele>
        <time>2020-09-12T08:33:18Z</time>
      </trkpt>
      <trkpt lat="40.9893010" lon="-2.3375440">
        <ele>1199.8</ele>
        <time>2020-09-12T08:33:19Z</time>
      </trkpt>
      <trkpt lat="40.9893410" lon="-2.3375850">
        <ele>1200.0</ele>
        <time>2020-09-12T08:33:20Z</time>
      </trkpt>
      <trkpt lat="40.9893830" lon="-2.3376240">
        <ele>1200.0</ele>
        <time>2020-09-12T08:33:21Z</time>
      </trkpt>
      <trkpt lat="40.9894260" lon="-2.3376640">
        <ele>1200.2</ele>
        <time>2020-09-12T08:33:22Z</time>
      </trkpt>
      <trkpt lat="40.9894670" lon="-2.3377030">
        <ele>1200.4</ele>
        <time>2020-09-12T08:33:23Z</time>
      </trkpt>
      <trkpt lat="40.9895080" lon="-2.3377430">
        <ele>1200.6</ele>
        <time>2020-09-12T08:33:24Z</time>
      </trkpt>
      <trkpt lat="40.9895490" lon="-2.3377860">
        <ele>1200.8</ele>
        <time>2020-09-12T08:33:25Z</time>
      </trkpt>
      <trkpt lat="40.9895860" lon="-2.3378320">
        <ele>1201.0</ele>
        <time>2020-09-12T08:33:26Z</time>
      </trkpt>
      <trkpt lat="40.9896210" lon="-2.3378810">
        <ele>1201.0</ele>
        <time>2020-09-12T08:33:27Z</time>
      </trkpt>
      <trkpt lat="40.9896520" lon="-2.3379340">
        <ele>1201.0</ele>
        <time>2020-09-12T08:33:28Z</time>
      </trkpt>
      <trkpt lat="40.9896780" lon="-2.3379890">
        <ele>1201.0</ele>
        <time>2020-09-12T08:33:29Z</time>
      </trkpt>
      <trkpt lat="40.9897000" lon="-2.3380480">
        <ele>1201.0</ele>
        <time>2020-09-12T08:33:30Z</time>
      </trkpt>
      <trkpt lat="40.9897200" lon="-2.3381080">
        <ele>1201.0</ele>
        <time>2020-09-12T08:33:31Z</time>
      </trkpt>
      <trkpt lat="40.9897400" lon="-2.3381680">
        <ele>1201.0</ele>
        <time>2020-09-12T08:33:32Z</time>
      </trkpt>
      <trkpt lat="40.9897580" lon="-2.3382320">
        <ele>1201.0</ele>
        <time>2020-09-12T08:33:33Z</time>
      </trkpt>
      <trkpt lat="40.9897740" lon="-2.3382990">
        <ele>1201.0</ele>
        <time>2020-09-12T08:33:34Z</time>
      </trkpt>
      <trkpt lat="40.9897890" lon="-2.3383680">
        <ele>1201.0</ele>
        <time>2020-09-12T08:33:35Z</time>
      </trkpt>
      <trkpt lat="40.9898020" lon="-2.3384420">
        <ele>1201.0</ele>
        <time>2020-09-12T08:33:36Z</time>
      </trkpt>
      <trkpt lat="40.9898140" lon="-2.3385180">
        <ele>1201.0</ele>
        <time>2020-09-12T08:33:37Z</time>
      </trkpt>
      <trkpt lat="40.9898290" lon="-2.3385970">
        <ele>1200.8</ele>
        <time>2020-09-12T08:33:38Z</time>
      </trkpt>
      <trkpt lat="40.9898460" lon="-2.3386770">
        <ele>1200.8</ele>
        <time>2020-09-12T08:33:39Z</time>
      </trkpt>
      <trkpt lat="40.9898630" lon="-2.3387600">
        <ele>1200.6</ele>
        <time>2020-09-12T08:33:40Z</time>
      </trkpt>
      <trkpt lat="40.9898820" lon="-2.3388440">
        <ele>1200.6</ele>
        <time>2020-09-12T08:33:41Z</time>
      </trkpt>
      <trkpt lat="40.9899030" lon="-2.3389290">
        <ele>1200.4</ele>
        <time>2020-09-12T08:33:42Z</time>
      </trkpt>
      <trkpt lat="40.9899290" lon="-2.3390140">
        <ele>1200.2</ele>
        <time>2020-09-12T08:33:43Z</time>
      </trkpt>
      <trkpt lat="40.9899610" lon="-2.3390980">
        <ele>1200.0</ele>
        <time>2020-09-12T08:33:44Z</time>
      </trkpt>
      <trkpt lat="40.9900010" lon="-2.3391810">
        <ele>1199.8</ele>
        <time>2020-09-12T08:33:45Z</time>
      </trkpt>
      <trkpt lat="40.9900460" lon="-2.3392630">
        <ele>1199.4</ele>
        <time>2020-09-12T08:33:46Z</time>
      </trkpt>
      <trkpt lat="40.9900960" lon="-2.3393440">
        <ele>1199.0</ele>
        <time>2020-09-12T08:33:47Z</time>
      </trkpt>
      <trkpt lat="40.9901470" lon="-2.3394250">
        <ele>1198.6</ele>
        <time>2020-09-12T08:33:48Z</time>
      </trkpt>
      <trkpt lat="40.9901980" lon="-2.3395040">
        <ele>1198.4</ele>
        <time>2020-09-12T08:33:49Z</time>
      </trkpt>
      <trkpt lat="40.9902470" lon="-2.3395780">
        <ele>1198.2</ele>
        <time>2020-09-12T08:33:50Z</time>
      </trkpt>
      <trkpt lat="40.9902920" lon="-2.3396500">
        <ele>1198.2</ele>
        <time>2020-09-12T08:33:51Z</time>
      </trkpt>
      <trkpt lat="40.9903340" lon="-2.3397190">
        <ele>1198.2</ele>
        <time>2020-09-12T08:33:52Z</time>
      </trkpt>
      <trkpt lat="40.9903730" lon="-2.3397860">
        <ele>1198.4</ele>
        <time>2020-09-12T08:33:53Z</time>
      </trkpt>
      <trkpt lat="40.9904110" lon="-2.3398490">
        <ele>1198.4</ele>
        <time>2020-09-12T08:33:54Z</time>
      </trkpt>
      <trkpt lat="40.9904470" lon="-2.3399090">
        <ele>1198.6</ele>
        <time>2020-09-12T08:33:55Z</time>
      </trkpt>
      <trkpt lat="40.9904820" lon="-2.3399650">
        <ele>1199.0</ele>
        <time>2020-09-12T08:33:56Z</time>
      </trkpt>
      <trkpt lat="40.9905160" lon="-2.3400180">
        <ele>1199.2</ele>
        <time>2020-09-12T08:33:57Z</time>
      </trkpt>
      <trkpt lat="40.9905480" lon="-2.3400720">
        <ele>1199.6</ele>
        <time>2020-09-12T08:33:58Z</time>
      </trkpt>
      <trkpt lat="40.9905790" lon="-2.3401250">
        <ele>1200.0</ele>
        <time>2020-09-12T08:33:59Z</time>
      </trkpt>
      <trkpt lat="40.9906070" lon="-2.3401820">
        <ele>1200.2</ele>
        <time>2020-09-12T08:34:00Z</time>
      </trkpt>
      <trkpt lat="40.9906340" lon="-2.3402430">
        <ele>1200.4</ele>
        <time>2020-09-12T08:34:01Z</time>
      </trkpt>
      <trkpt lat="40.9906600" lon="-2.3403090">
        <ele>1200.6</ele>
        <time>2020-09-12T08:34:02Z</time>
      </trkpt>
      <trkpt lat="40.9906840" lon="-2.3403790">
        <ele>1200.6</ele>
        <time>2020-09-12T08:34:03Z</time>
      </trkpt>
      <trkpt lat="40.9907060" lon="-2.3404520">
        <ele>1200.6</ele>
        <time>2020-09-12T08:34:04Z</time>
      </trkpt>
      <trkpt lat="40.9907270" lon="-2.3405260">
        <ele>1200.4</ele>
        <time>2020-09-12T08:34:05Z</time>
      </trkpt>
      <trkpt lat="40.9907460" lon="-2.3406000">
        <ele>1200.6</ele>
        <time>2020-09-12T08:34:06Z</time>
      </trkpt>
      <trkpt lat="40.9907650" lon="-2.3406740">
        <ele>1200.6</ele>
        <time>2020-09-12T08:34:07Z</time>
      </trkpt>
      <trkpt lat="40.9907830" lon="-2.3407480">
        <ele>1200.6</ele>
        <time>2020-09-12T08:34:08Z</time>
      </trkpt>
      <trkpt lat="40.9908020" lon="-2.3408230">
        <ele>1200.6</ele>
        <time>2020-09-12T08:34:09Z</time>
      </trkpt>
      <trkpt lat="40.9908220" lon="-2.3408990">
        <ele>1200.6</ele>
        <time>2020-09-12T08:34:10Z</time>
      </trkpt>
      <trkpt lat="40.9908400" lon="-2.3409760">
        <ele>1200.6</ele>
        <time>2020-09-12T08:34:11Z</time>
      </trkpt>
      <trkpt lat="40.9908560" lon="-2.3410580">
        <ele>1200.6</ele>
        <time>2020-09-12T08:34:12Z</time>
      </trkpt>
      <trkpt lat="40.9908710" lon="-2.3411400">
        <ele>1200.4</ele>
        <time>2020-09-12T08:34:13Z</time>
      </trkpt>
      <trkpt lat="40.9908850" lon="-2.3412210">
        <ele>1200.0</ele>
        <time>2020-09-12T08:34:14Z</time>
      </trkpt>
      <trkpt lat="40.9908990" lon="-2.3413010">
        <ele>1199.8</ele>
        <time>2020-09-12T08:34:15Z</time>
      </trkpt>
      <trkpt lat="40.9909130" lon="-2.3413780">
        <ele>1199.6</ele>
        <time>2020-09-12T08:34:16Z</time>
      </trkpt>
      <trkpt lat="40.9909290" lon="-2.3414520">
        <ele>1199.4</ele>
        <time>2020-09-12T08:34:17Z</time>
      </trkpt>
      <trkpt lat="40.9909460" lon="-2.3415240">
        <ele>1199.4</ele>
        <time>2020-09-12T08:34:18Z</time>
      </trkpt>
      <trkpt lat="40.9909620" lon="-2.3415930">
        <ele>1199.4</ele>
        <time>2020-09-12T08:34:19Z</time>
      </trkpt>
      <trkpt lat="40.9909800" lon="-2.3416580">
        <ele>1199.6</ele>
        <time>2020-09-12T08:34:20Z</time>
      </trkpt>
      <trkpt lat="40.9909980" lon="-2.3417190">
        <ele>1199.8</ele>
        <time>2020-09-12T08:34:21Z</time>
      </trkpt>
      <trkpt lat="40.9910160" lon="-2.3417810">
        <ele>1200.2</ele>
        <time>2020-09-12T08:34:22Z</time>
      </trkpt>
      <trkpt lat="40.9910330" lon="-2.3418430">
        <ele>1200.6</ele>
        <time>2020-09-12T08:34:23Z</time>
      </trkpt>
      <trkpt lat="40.9910500" lon="-2.3419070">
        <ele>1200.6</ele>
        <time>2020-09-12T08:34:24Z</time>
      </trkpt>
      <trkpt lat="40.9910670" lon="-2.3419730">
        <ele>1200.8</ele>
        <time>2020-09-12T08:34:25Z</time>
      </trkpt>
      <trkpt lat="40.9910820" lon="-2.3420420">
        <ele>1200.8</ele>
        <time>2020-09-12T08:34:26Z</time>
      </trkpt>
      <trkpt lat="40.9910960" lon="-2.3421160">
        <ele>1201.0</ele>
        <time>2020-09-12T08:34:27Z</time>
      </trkpt>
      <trkpt lat="40.9911080" lon="-2.3421950">
        <ele>1201.0</ele>
        <time>2020-09-12T08:34:28Z</time>
      </trkpt>
      <trkpt lat="40.9911220" lon="-2.3422790">
        <ele>1201.0</ele>
        <time>2020-09-12T08:34:29Z</time>
      </trkpt>
      <trkpt lat="40.9911340" lon="-2.3423680">
        <ele>1200.8</ele>
        <time>2020-09-12T08:34:30Z</time>
      </trkpt>
      <trkpt lat="40.9911450" lon="-2.3424630">
        <ele>1200.4</ele>
        <time>2020-09-12T08:34:31Z</time>
      </trkpt>
      <trkpt lat="40.9911580" lon="-2.3425620">
        <ele>1200.2</ele>
        <time>2020-09-12T08:34:32Z</time>
      </trkpt>
      <trkpt lat="40.9911710" lon="-2.3426630">
        <ele>1200.0</ele>
        <time>2020-09-12T08:34:33Z</time>
      </trkpt>
      <trkpt lat="40.9911840" lon="-2.3427660">
        <ele>1199.6</ele>
        <time>2020-09-12T08:34:34Z</time>
      </trkpt>
      <trkpt lat="40.9911950" lon="-2.3428700">
        <ele>1199.4</ele>
        <time>2020-09-12T08:34:35Z</time>
      </trkpt>
      <trkpt lat="40.9912060" lon="-2.3429760">
        <ele>1198.8</ele>
        <time>2020-09-12T08:34:36Z</time>
      </trkpt>
      <trkpt lat="40.9912180" lon="-2.3430830">
        <ele>1198.2</ele>
        <time>2020-09-12T08:34:37Z</time>
      </trkpt>
      <trkpt lat="40.9912280" lon="-2.3431910">
        <ele>1197.6</ele>
        <time>2020-09-12T08:34:38Z</time>
      </trkpt>
      <trkpt lat="40.9912390" lon="-2.3432990">
        <ele>1197.2</ele>
        <time>2020-09-12T08:34:39Z</time>
      </trkpt>
      <trkpt lat="40.9912500" lon="-2.3434060">
        <ele>1197.0</ele>
        <time>2020-09-12T08:34:40Z</time>
      </trkpt>
      <trkpt lat="40.9912620" lon="-2.3435130">
        <ele>1196.8</ele>
        <time>2020-09-12T08:34:41Z</time>
      </trkpt>
      <trkpt lat="40.9912760" lon="-2.3436210">
        <ele>1196.6</ele>
        <time>2020-09-12T08:34:42Z</time>
      </trkpt>
      <trkpt lat="40.9912890" lon="-2.3437290">
        <ele>1196.4</ele>
        <time>2020-09-12T08:34:43Z</time>
      </trkpt>
      <trkpt lat="40.9913040" lon="-2.3438330">
        <ele>1196.2</ele>
        <time>2020-09-12T08:34:44Z</time>
      </trkpt>
      <trkpt lat="40.9913210" lon="-2.3439350">
        <ele>1196.0</ele>
        <time>2020-09-12T08:34:45Z</time>
      </trkpt>
      <trkpt lat="40.9913390" lon="-2.3440330">
        <ele>1195.8</ele>
        <time>2020-09-12T08:34:46Z</time>
      </trkpt>
      <trkpt lat="40.9913570" lon="-2.3441290">
        <ele>1195.8</ele>
        <time>2020-09-12T08:34:47Z</time>
      </trkpt>
      <trkpt lat="40.9913750" lon="-2.3442230">
        <ele>1195.6</ele>
        <time>2020-09-12T08:34:48Z</time>
      </trkpt>
      <trkpt lat="40.9913920" lon="-2.3443160">
        <ele>1195.6</ele>
        <time>2020-09-12T08:34:49Z</time>
      </trkpt>
      <trkpt lat="40.9914080" lon="-2.3444060">
        <ele>1195.6</ele>
        <time>2020-09-12T08:34:50Z</time>
      </trkpt>
      <trkpt lat="40.9914270" lon="-2.3444960">
        <ele>1195.6</ele>
        <time>2020-09-12T08:34:51Z</time>
      </trkpt>
      <trkpt lat="40.9914480" lon="-2.3445830">
        <ele>1195.6</ele>
        <time>2020-09-12T08:34:52Z</time>
      </trkpt>
      <trkpt lat="40.9914710" lon="-2.3446670">
        <ele>1195.8</ele>
        <time>2020-09-12T08:34:53Z</time>
      </trkpt>
      <trkpt lat="40.9915000" lon="-2.3447470">
        <ele>1195.8</ele>
        <time>2020-09-12T08:34:54Z</time>
      </trkpt>
      <trkpt lat="40.9915350" lon="-2.3448240">
        <ele>1196.0</ele>
        <time>2020-09-12T08:34:55Z</time>
      </trkpt>
      <trkpt lat="40.9915750" lon="-2.3448980">
        <ele>1196.0</ele>
        <time>2020-09-12T08:34:56Z</time>
      </trkpt>
      <trkpt lat="40.9916190" lon="-2.3449700">
        <ele>1196.0</ele>
        <time>2020-09-12T08:34:57Z</time>
      </trkpt>
      <trkpt lat="40.9916660" lon="-2.3450410">
        <ele>1196.0</ele>
        <time>2020-09-12T08:34:58Z</time>
      </trkpt>
      <trkpt lat="40.9917150" lon="-2.3451080">
        <ele>1196.0</ele>
        <time>2020-09-12T08:34:59Z</time>
      </trkpt>
      <trkpt lat="40.9917700" lon="-2.3451690">
        <ele>1196.0</ele>
        <time>2020-09-12T08:35:00Z</time>
      </trkpt>
      <trkpt lat="40.9918300" lon="-2.3452240">
        <ele>1195.8</ele>
        <time>2020-09-12T08:35:01Z</time>
      </trkpt>
      <trkpt lat="40.9918960" lon="-2.3452720">
        <ele>1195.6</ele>
        <time>2020-09-12T08:35:02Z</time>
      </trkpt>
      <trkpt lat="40.9919670" lon="-2.3453140">
        <ele>1195.4</ele>
        <time>2020-09-12T08:35:03Z</time>
      </trkpt>
      <trkpt lat="40.9920420" lon="-2.3453510">
        <ele>1195.4</ele>
        <time>2020-09-12T08:35:04Z</time>
      </trkpt>
      <trkpt lat="40.9921190" lon="-2.3453860">
        <ele>1195.2</ele>
        <time>2020-09-12T08:35:05Z</time>
      </trkpt>
      <trkpt lat="40.9921990" lon="-2.3454190">
        <ele>1195.0</ele>
        <time>2020-09-12T08:35:06Z</time>
      </trkpt>
      <trkpt lat="40.9922790" lon="-2.3454490">
        <ele>1194.6</ele>
        <time>2020-09-12T08:35:07Z</time>
      </trkpt>
      <trkpt lat="40.9923610" lon="-2.3454770">
        <ele>1194.4</ele>
        <time>2020-09-12T08:35:08Z</time>
      </trkpt>
      <trkpt lat="40.9924450" lon="-2.3454990">
        <ele>1194.0</ele>
        <time>2020-09-12T08:35:09Z</time>
      </trkpt>
      <trkpt lat="40.9925340" lon="-2.3455160">
        <ele>1193.6</ele>
        <time>2020-09-12T08:35:10Z</time>
      </trkpt>
      <trkpt lat="40.9926240" lon="-2.3455300">
        <ele>1193.2</ele>
        <time>2020-09-12T08:35:11Z</time>
      </trkpt>
      <trkpt lat="40.9927150" lon="-2.3455450">
        <ele>1192.8</ele>
        <time>2020-09-12T08:35:12Z</time>
      </trkpt>
      <trkpt lat="40.9928060" lon="-2.3455600">
        <ele>1192.4</ele>
        <time>2020-09-12T08:35:13Z</time>
      </trkpt>
      <trkpt lat="40.9928990" lon="-2.3455700">
        <ele>1192.0</ele>
        <time>2020-09-12T08:35:14Z</time>
      </trkpt>
      <trkpt lat="40.9929900" lon="-2.3455850">
        <ele>1191.6</ele>
        <time>2020-09-12T08:35:15Z</time>
      </trkpt>
      <trkpt lat="40.9930830" lon="-2.3456010">
        <ele>1191.2</ele>
        <time>2020-09-12T08:35:16Z</time>
      </trkpt>
      <trkpt lat="40.9931760" lon="-2.3456170">
        <ele>1190.8</ele>
        <time>2020-09-12T08:35:17Z</time>
      </trkpt>
      <trkpt lat="40.9932710" lon="-2.3456340">
        <ele>1190.2</ele>
        <time>2020-09-12T08:35:18Z</time>
      </trkpt>
      <trkpt lat="40.9933650" lon="-2.3456510">
        <ele>1189.8</ele>
        <time>2020-09-12T08:35:19Z</time>
      </trkpt>
      <trkpt lat="40.9934600" lon="-2.3456660">
        <ele>1189.4</ele>
        <time>2020-09-12T08:35:20Z</time>
      </trkpt>
      <trkpt lat="40.9935540" lon="-2.3456810">
        <ele>1189.0</ele>
        <time>2020-09-12T08:35:21Z</time>
      </trkpt>
      <trkpt lat="40.9936470" lon="-2.3456970">
        <ele>1188.6</ele>
        <time>2020-09-12T08:35:22Z</time>
      </trkpt>
      <trkpt lat="40.9937400" lon="-2.3457140">
        <ele>1188.2</ele>
        <time>2020-09-12T08:35:23Z</time>
      </trkpt>
      <trkpt lat="40.9938320" lon="-2.3457310">
        <ele>1187.6</ele>
        <time>2020-09-12T08:35:24Z</time>
      </trkpt>
      <trkpt lat="40.9939250" lon="-2.3457490">
        <ele>1187.2</ele>
        <time>2020-09-12T08:35:25Z</time>
      </trkpt>
      <trkpt lat="40.9940150" lon="-2.3457740">
        <ele>1186.6</ele>
        <time>2020-09-12T08:35:26Z</time>
      </trkpt>
      <trkpt lat="40.9941040" lon="-2.3458080">
        <ele>1186.0</ele>
        <time>2020-09-12T08:35:27Z</time>
      </trkpt>
      <trkpt lat="40.9941870" lon="-2.3458530">
        <ele>1185.4</ele>
        <time>2020-09-12T08:35:28Z</time>
      </trkpt>
      <trkpt lat="40.9942630" lon="-2.3459100">
        <ele>1184.8</ele>
        <time>2020-09-12T08:35:29Z</time>
      </trkpt>
      <trkpt lat="40.9943310" lon="-2.3459900">
        <ele>1184.2</ele>
        <time>2020-09-12T08:35:30Z</time>
      </trkpt>
      <trkpt lat="40.9943900" lon="-2.3460810">
        <ele>1183.8</ele>
        <time>2020-09-12T08:35:31Z</time>
      </trkpt>
      <trkpt lat="40.9944420" lon="-2.3461750">
        <ele>1183.4</ele>
        <time>2020-09-12T08:35:32Z</time>
      </trkpt>
      <trkpt lat="40.9944900" lon="-2.3462740">
        <ele>1183.0</ele>
        <time>2020-09-12T08:35:33Z</time>
      </trkpt>
      <trkpt lat="40.9945360" lon="-2.3463750">
        <ele>1182.6</ele>
        <time>2020-09-12T08:35:34Z</time>
      </trkpt>
      <trkpt lat="40.9945820" lon="-2.3464780">
        <ele>1182.2</ele>
        <time>2020-09-12T08:35:35Z</time>
      </trkpt>
      <trkpt lat="40.9946280" lon="-2.3465800">
        <ele>1181.8</ele>
        <time>2020-09-12T08:35:36Z</time>
      </trkpt>
      <trkpt lat="40.9946760" lon="-2.3466790">
        <ele>1181.4</ele>
        <time>2020-09-12T08:35:37Z</time>
      </trkpt>
      <trkpt lat="40.9947250" lon="-2.3467730">
        <ele>1181.0</ele>
        <time>2020-09-12T08:35:38Z</time>
      </trkpt>
      <trkpt lat="40.9947710" lon="-2.3468660">
        <ele>1180.6</ele>
        <time>2020-09-12T08:35:39Z</time>
      </trkpt>
      <trkpt lat="40.9948140" lon="-2.3469590">
        <ele>1180.2</ele>
        <time>2020-09-12T08:35:40Z</time>
      </trkpt>
      <trkpt lat="40.9948570" lon="-2.3470500">
        <ele>1180.0</ele>
        <time>2020-09-12T08:35:41Z</time>
      </trkpt>
      <trkpt lat="40.9948970" lon="-2.3471420">
        <ele>1179.6</ele>
        <time>2020-09-12T08:35:42Z</time>
      </trkpt>
      <trkpt lat="40.9949360" lon="-2.3472330">
        <ele>1179.4</ele>
        <time>2020-09-12T08:35:43Z</time>
      </trkpt>
      <trkpt lat="40.9949770" lon="-2.3473210">
        <ele>1179.2</ele>
        <time>2020-09-12T08:35:44Z</time>
      </trkpt>
      <trkpt lat="40.9950170" lon="-2.3474100">
        <ele>1179.0</ele>
        <time>2020-09-12T08:35:45Z</time>
      </trkpt>
      <trkpt lat="40.9950560" lon="-2.3474960">
        <ele>1179.0</ele>
        <time>2020-09-12T08:35:46Z</time>
      </trkpt>
      <trkpt lat="40.9950990" lon="-2.3475790">
        <ele>1178.8</ele>
        <time>2020-09-12T08:35:47Z</time>
      </trkpt>
      <trkpt lat="40.9951480" lon="-2.3476560">
        <ele>1178.6</ele>
        <time>2020-09-12T08:35:48Z</time>
      </trkpt>
      <trkpt lat="40.9952030" lon="-2.3477280">
        <ele>1178.2</ele>
        <time>2020-09-12T08:35:49Z</time>
      </trkpt>
      <trkpt lat="40.9952660" lon="-2.3477900">
        <ele>1178.0</ele>
        <time>2020-09-12T08:35:50Z</time>
      </trkpt>
      <trkpt lat="40.9953370" lon="-2.3478400">
        <ele>1177.8</ele>
        <time>2020-09-12T08:35:51Z</time>
      </trkpt>
      <trkpt lat="40.9954160" lon="-2.3478720">
        <ele>1177.6</ele>
        <time>2020-09-12T08:35:52Z</time>
      </trkpt>
      <trkpt lat="40.9955020" lon="-2.3478800">
        <ele>1177.2</ele>
        <time>2020-09-12T08:35:53Z</time>
      </trkpt>
      <trkpt lat="40.9955930" lon="-2.3478720">
        <ele>1176.6</ele>
        <time>2020-09-12T08:35:54Z</time>
      </trkpt>
      <trkpt lat="40.9956860" lon="-2.3478540">
        <ele>1176.0</ele>
        <time>2020-09-12T08:35:55Z</time>
      </trkpt>
      <trkpt lat="40.9957840" lon="-2.3478310">
        <ele>1175.2</ele>
        <time>2020-09-12T08:35:56Z</time>
      </trkpt>
      <trkpt lat="40.9958870" lon="-2.3478080">
        <ele>1174.6</ele>
        <time>2020-09-12T08:35:57Z</time>
      </trkpt>
      <trkpt lat="40.9959930" lon="-2.3477860">
        <ele>1174.0</ele>
        <time>2020-09-12T08:35:58Z</time>
      </trkpt>
      <trkpt lat="40.9961000" lon="-2.3477640">
        <ele>1173.2</ele>
        <time>2020-09-12T08:35:59Z</time>
      </trkpt>
      <trkpt lat="40.9962100" lon="-2.3477380">
        <ele>1172.2</ele>
        <time>2020-09-12T08:36:00Z</time>
      </trkpt>
      <trkpt lat="40.9963240" lon="-2.3477090">
        <ele>1170.4</ele>
        <time>2020-09-12T08:36:01Z</time>
      </trkpt>
      <trkpt lat="40.9964950" lon="-2.3476650">
        <ele>1170.4</ele>
        <time>2020-09-12T08:36:02Z</time>
      </trkpt>
      <trkpt lat="40.9965530" lon="-2.3476500">
        <ele>1170.0</ele>
        <time>2020-09-12T08:36:03Z</time>
      </trkpt>
      <trkpt lat="40.9966680" lon="-2.3476200">
        <ele>1169.4</ele>
        <time>2020-09-12T08:36:04Z</time>
      </trkpt>
      <trkpt lat="40.9967830" lon="-2.3475870">
        <ele>1168.6</ele>
        <time>2020-09-12T08:36:05Z</time>
      </trkpt>
      <trkpt lat="40.9968960" lon="-2.3475540">
        <ele>1168.0</ele>
        <time>2020-09-12T08:36:06Z</time>
      </trkpt>
      <trkpt lat="40.9970060" lon="-2.3475200">
        <ele>1167.4</ele>
        <time>2020-09-12T08:36:07Z</time>
      </trkpt>
      <trkpt lat="40.9971150" lon="-2.3474860">
        <ele>1167.0</ele>
        <time>2020-09-12T08:36:08Z</time>
      </trkpt>
      <trkpt lat="40.9972190" lon="-2.3474520">
        <ele>1166.4</ele>
        <time>2020-09-12T08:36:09Z</time>
      </trkpt>
      <trkpt lat="40.9973220" lon="-2.3474200">
        <ele>1165.8</ele>
        <time>2020-09-12T08:36:10Z</time>
      </trkpt>
      <trkpt lat="40.9974230" lon="-2.3473910">
        <ele>1165.4</ele>
        <time>2020-09-12T08:36:11Z</time>
      </trkpt>
      <trkpt lat="40.9975230" lon="-2.3473680">
        <ele>1164.8</ele>
        <time>2020-09-12T08:36:12Z</time>
      </trkpt>
      <trkpt lat="40.9976240" lon="-2.3473500">
        <ele>1164.4</ele>
        <time>2020-09-12T08:36:13Z</time>
      </trkpt>
      <trkpt lat="40.9977230" lon="-2.3473380">
        <ele>1164.2</ele>
        <time>2020-09-12T08:36:14Z</time>
      </trkpt>
      <trkpt lat="40.9978220" lon="-2.3473330">
        <ele>1163.8</ele>
        <time>2020-09-12T08:36:15Z</time>
      </trkpt>
      <trkpt lat="40.9979200" lon="-2.3473340">
        <ele>1163.4</ele>
        <time>2020-09-12T08:36:16Z</time>
      </trkpt>
      <trkpt lat="40.9980170" lon="-2.3473370">
        <ele>1162.8</ele>
        <time>2020-09-12T08:36:17Z</time>
      </trkpt>
      <trkpt lat="40.9981140" lon="-2.3473430">
        <ele>1162.4</ele>
        <time>2020-09-12T08:36:18Z</time>
      </trkpt>
      <trkpt lat="40.9982100" lon="-2.3473550">
        <ele>1162.2</ele>
        <time>2020-09-12T08:36:19Z</time>
      </trkpt>
      <trkpt lat="40.9983050" lon="-2.3473700">
        <ele>1161.8</ele>
        <time>2020-09-12T08:36:20Z</time>
      </trkpt>
      <trkpt lat="40.9983990" lon="-2.3473840">
        <ele>1161.6</ele>
        <time>2020-09-12T08:36:21Z</time>
      </trkpt>
      <trkpt lat="40.9984900" lon="-2.3473970">
        <ele>1161.4</ele>
        <time>2020-09-12T08:36:22Z</time>
      </trkpt>
      <trkpt lat="40.9985820" lon="-2.3474110">
        <ele>1161.4</ele>
        <time>2020-09-12T08:36:23Z</time>
      </trkpt>
      <trkpt lat="40.9986730" lon="-2.3474260">
        <ele>1161.2</ele>
        <time>2020-09-12T08:36:24Z</time>
      </trkpt>
      <trkpt lat="40.9987630" lon="-2.3474430">
        <ele>1161.0</ele>
        <time>2020-09-12T08:36:25Z</time>
      </trkpt>
      <trkpt lat="40.9988530" lon="-2.3474590">
        <ele>1160.8</ele>
        <time>2020-09-12T08:36:26Z</time>
      </trkpt>
      <trkpt lat="40.9989420" lon="-2.3474780">
        <ele>1160.6</ele>
        <time>2020-09-12T08:36:27Z</time>
      </trkpt>
      <trkpt lat="40.9990320" lon="-2.3474970">
        <ele>1160.4</ele>
        <time>2020-09-12T08:36:28Z</time>
      </trkpt>
      <trkpt lat="40.9991210" lon="-2.3475180">
        <ele>1160.2</ele>
        <time>2020-09-12T08:36:29Z</time>
      </trkpt>
      <trkpt lat="40.9992110" lon="-2.3475390">
        <ele>1160.0</ele>
        <time>2020-09-12T08:36:30Z</time>
      </trkpt>
      <trkpt lat="40.9993020" lon="-2.3475610">
        <ele>1159.8</ele>
        <time>2020-09-12T08:36:31Z</time>
      </trkpt>
      <trkpt lat="40.9993930" lon="-2.3475840">
        <ele>1159.4</ele>
        <time>2020-09-12T08:36:32Z</time>
      </trkpt>
      <trkpt lat="40.9994860" lon="-2.3476110">
        <ele>1159.2</ele>
        <time>2020-09-12T08:36:33Z</time>
      </trkpt>
      <trkpt lat="40.9995780" lon="-2.3476400">
        <ele>1158.8</ele>
        <time>2020-09-12T08:36:34Z</time>
      </trkpt>
      <trkpt lat="40.9996720" lon="-2.3476660">
        <ele>1158.6</ele>
        <time>2020-09-12T08:36:35Z</time>
      </trkpt>
      <trkpt lat="40.9997670" lon="-2.3476900">
        <ele>1158.4</ele>
        <time>2020-09-12T08:36:36Z</time>
      </trkpt>
      <trkpt lat="40.9998640" lon="-2.3477140">
        <ele>1158.2</ele>
        <time>2020-09-12T08:36:37Z</time>
      </trkpt>
      <trkpt lat="40.9999590" lon="-2.3477390">
        <ele>1157.8</ele>
        <time>2020-09-12T08:36:38Z</time>
      </trkpt>
      <trkpt lat="41.0000550" lon="-2.3477630">
        <ele>1157.4</ele>
        <time>2020-09-12T08:36:39Z</time>
      </trkpt>
      <trkpt lat="41.0001490" lon="-2.3477920">
        <ele>1157.0</ele>
        <time>2020-09-12T08:36:40Z</time>
      </trkpt>
      <trkpt lat="41.0002410" lon="-2.3478280">
        <ele>1157.0</ele>
        <time>2020-09-12T08:36:41Z</time>
      </trkpt>
      <trkpt lat="41.0003290" lon="-2.3478730">
        <ele>1156.8</ele>
        <time>2020-09-12T08:36:42Z</time>
      </trkpt>
      <trkpt lat="41.0004120" lon="-2.3479280">
        <ele>1156.6</ele>
        <time>2020-09-12T08:36:43Z</time>
      </trkpt>
      <trkpt lat="41.0004910" lon="-2.3479880">
        <ele>1156.4</ele>
        <time>2020-09-12T08:36:44Z</time>
      </trkpt>
      <trkpt lat="41.0005670" lon="-2.3480540">
        <ele>1156.4</ele>
        <time>2020-09-12T08:36:45Z</time>
      </trkpt>
      <trkpt lat="41.0006390" lon="-2.3481210">
        <ele>1156.2</ele>
        <time>2020-09-12T08:36:46Z</time>
      </trkpt>
      <trkpt lat="41.0007100" lon="-2.3481900">
        <ele>1156.2</ele>
        <time>2020-09-12T08:36:47Z</time>
      </trkpt>
      <trkpt lat="41.0007790" lon="-2.3482600">
        <ele>1156.2</ele>
        <time>2020-09-12T08:36:48Z</time>
      </trkpt>
      <trkpt lat="41.0008470" lon="-2.3483310">
        <ele>1156.0</ele>
        <time>2020-09-12T08:36:49Z</time>
      </trkpt>
      <trkpt lat="41.0009140" lon="-2.3483990">
        <ele>1155.8</ele>
        <time>2020-09-12T08:36:50Z</time>
      </trkpt>
      <trkpt lat="41.0009810" lon="-2.3484660">
        <ele>1155.8</ele>
        <time>2020-09-12T08:36:51Z</time>
      </trkpt>
      <trkpt lat="41.0010470" lon="-2.3485320">
        <ele>1155.6</ele>
        <time>2020-09-12T08:36:52Z</time>
      </trkpt>
      <trkpt lat="41.0011120" lon="-2.3485990">
        <ele>1155.6</ele>
        <time>2020-09-12T08:36:53Z</time>
      </trkpt>
      <trkpt lat="41.0011770" lon="-2.3486670">
        <ele>1155.6</ele>
        <time>2020-09-12T08:36:54Z</time>
      </trkpt>
      <trkpt lat="41.0012430" lon="-2.3487340">
        <ele>1155.6</ele>
        <time>2020-09-12T08:36:55Z</time>
      </trkpt>
      <trkpt lat="41.0013080" lon="-2.3487980">
        <ele>1155.4</ele>
        <time>2020-09-12T08:36:56Z</time>
      </trkpt>
      <trkpt lat="41.0013760" lon="-2.3488590">
        <ele>1155.4</ele>
        <time>2020-09-12T08:36:57Z</time>
      </trkpt>
      <trkpt lat="41.0014450" lon="-2.3489190">
        <ele>1155.2</ele>
        <time>2020-09-12T08:36:58Z</time>
      </trkpt>
      <trkpt lat="41.0015170" lon="-2.3489780">
        <ele>1155.0</ele>
        <time>2020-09-12T08:36:59Z</time>
      </trkpt>
      <trkpt lat="41.0015910" lon="-2.3490370">
        <ele>1154.6</ele>
        <time>2020-09-12T08:37:00Z</time>
      </trkpt>
      <trkpt lat="41.0016660" lon="-2.3490950">
        <ele>1154.2</ele>
        <time>2020-09-12T08:37:01Z</time>
      </trkpt>
      <trkpt lat="41.0017430" lon="-2.3491530">
        <ele>1154.2</ele>
        <time>2020-09-12T08:37:02Z</time>
      </trkpt>
      <trkpt lat="41.0018200" lon="-2.3492120">
        <ele>1154.0</ele>
        <time>2020-09-12T08:37:03Z</time>
      </trkpt>
      <trkpt lat="41.0018970" lon="-2.3492750">
        <ele>1153.8</ele>
        <time>2020-09-12T08:37:04Z</time>
      </trkpt>
      <trkpt lat="41.0019750" lon="-2.3493430">
        <ele>1153.4</ele>
        <time>2020-09-12T08:37:05Z</time>
      </trkpt>
      <trkpt lat="41.0020530" lon="-2.3494140">
        <ele>1153.2</ele>
        <time>2020-09-12T08:37:06Z</time>
      </trkpt>
      <trkpt lat="41.0021300" lon="-2.3494900">
        <ele>1153.0</ele>
        <time>2020-09-12T08:37:07Z</time>
      </trkpt>
      <trkpt lat="41.0022070" lon="-2.3495660">
        <ele>1152.6</ele>
        <time>2020-09-12T08:37:08Z</time>
      </trkpt>
      <trkpt lat="41.0022820" lon="-2.3496400">
        <ele>1152.4</ele>
        <time>2020-09-12T08:37:09Z</time>
      </trkpt>
      <trkpt lat="41.0023590" lon="-2.3497120">
        <ele>1152.2</ele>
        <time>2020-09-12T08:37:10Z</time>
      </trkpt>
      <trkpt lat="41.0024370" lon="-2.3497810">
        <ele>1152.0</ele>
        <time>2020-09-12T08:37:11Z</time>
      </trkpt>
      <trkpt lat="41.0025160" lon="-2.3498440">
        <ele>1151.8</ele>
        <time>2020-09-12T08:37:12Z</time>
      </trkpt>
      <trkpt lat="41.0025980" lon="-2.3499010">
        <ele>1151.4</ele>
        <time>2020-09-12T08:37:13Z</time>
      </trkpt>
      <trkpt lat="41.0026850" lon="-2.3499500">
        <ele>1151.2</ele>
        <time>2020-09-12T08:37:14Z</time>
      </trkpt>
      <trkpt lat="41.0027740" lon="-2.3499960">
        <ele>1150.8</ele>
        <time>2020-09-12T08:37:15Z</time>
      </trkpt>
      <trkpt lat="41.0028650" lon="-2.3500330">
        <ele>1150.6</ele>
        <time>2020-09-12T08:37:16Z</time>
      </trkpt>
      <trkpt lat="41.0029570" lon="-2.3500630">
        <ele>1150.4</ele>
        <time>2020-09-12T08:37:17Z</time>
      </trkpt>
      <trkpt lat="41.0030470" lon="-2.3500940">
        <ele>1150.4</ele>
        <time>2020-09-12T08:37:18Z</time>
      </trkpt>
      <trkpt lat="41.0031340" lon="-2.3501320">
        <ele>1150.2</ele>
        <time>2020-09-12T08:37:19Z</time>
      </trkpt>
      <trkpt lat="41.0032170" lon="-2.3501790">
        <ele>1150.2</ele>
        <time>2020-09-12T08:37:20Z</time>
      </trkpt>
      <trkpt lat="41.0032950" lon="-2.3502340">
        <ele>1150.2</ele>
        <time>2020-09-12T08:37:21Z</time>
      </trkpt>
      <trkpt lat="41.0033700" lon="-2.3502970">
        <ele>1150.0</ele>
        <time>2020-09-12T08:37:22Z</time>
      </trkpt>
      <trkpt lat="41.0034410" lon="-2.3503690">
        <ele>1150.0</ele>
        <time>2020-09-12T08:37:23Z</time>
      </trkpt>
      <trkpt lat="41.0035110" lon="-2.3504470">
        <ele>1149.8</ele>
        <time>2020-09-12T08:37:24Z</time>
      </trkpt>
      <trkpt lat="41.0035820" lon="-2.3505290">
        <ele>1149.6</ele>
        <time>2020-09-12T08:37:25Z</time>
      </trkpt>
      <trkpt lat="41.0036550" lon="-2.3506170">
        <ele>1149.4</ele>
        <time>2020-09-12T08:37:26Z</time>
      </trkpt>
      <trkpt lat="41.0037280" lon="-2.3507090">
        <ele>1149.2</ele>
        <time>2020-09-12T08:37:27Z</time>
      </trkpt>
      <trkpt lat="41.0038020" lon="-2.3508030">
        <ele>1149.0</ele>
        <time>2020-09-12T08:37:28Z</time>
      </trkpt>
      <trkpt lat="41.0038760" lon="-2.3509000">
        <ele>1148.6</ele>
        <time>2020-09-12T08:37:29Z</time>
      </trkpt>
      <trkpt lat="41.0039510" lon="-2.3509960">
        <ele>1148.0</ele>
        <time>2020-09-12T08:37:30Z</time>
      </trkpt>
      <trkpt lat="41.0040280" lon="-2.3510890">
        <ele>1147.6</ele>
        <time>2020-09-12T08:37:31Z</time>
      </trkpt>
      <trkpt lat="41.0041080" lon="-2.3511760">
        <ele>1147.2</ele>
        <time>2020-09-12T08:37:32Z</time>
      </trkpt>
      <trkpt lat="41.0041930" lon="-2.3512560">
        <ele>1147.0</ele>
        <time>2020-09-12T08:37:33Z</time>
      </trkpt>
      <trkpt lat="41.0042810" lon="-2.3513280">
        <ele>1146.8</ele>
        <time>2020-09-12T08:37:34Z</time>
      </trkpt>
      <trkpt lat="41.0043710" lon="-2.3513960">
        <ele>1146.4</ele>
        <time>2020-09-12T08:37:35Z</time>
      </trkpt>
      <trkpt lat="41.0044600" lon="-2.3514640">
        <ele>1146.2</ele>
        <time>2020-09-12T08:37:36Z</time>
      </trkpt>
      <trkpt lat="41.0045460" lon="-2.3515360">
        <ele>1145.8</ele>
        <time>2020-09-12T08:37:37Z</time>
      </trkpt>
      <trkpt lat="41.0046280" lon="-2.3516150">
        <ele>1145.6</ele>
        <time>2020-09-12T08:37:38Z</time>
      </trkpt>
      <trkpt lat="41.0047050" lon="-2.3517010">
        <ele>1145.4</ele>
        <time>2020-09-12T08:37:39Z</time>
      </trkpt>
      <trkpt lat="41.0047800" lon="-2.3517910">
        <ele>1145.2</ele>
        <time>2020-09-12T08:37:40Z</time>
      </trkpt>
      <trkpt lat="41.0048530" lon="-2.3518830">
        <ele>1145.0</ele>
        <time>2020-09-12T08:37:41Z</time>
      </trkpt>
      <trkpt lat="41.0049260" lon="-2.3519750">
        <ele>1145.0</ele>
        <time>2020-09-12T08:37:42Z</time>
      </trkpt>
      <trkpt lat="41.0049990" lon="-2.3520640">
        <ele>1145.0</ele>
        <time>2020-09-12T08:37:43Z</time>
      </trkpt>
      <trkpt lat="41.0050740" lon="-2.3521480">
        <ele>1144.8</ele>
        <time>2020-09-12T08:37:44Z</time>
      </trkpt>
      <trkpt lat="41.0051510" lon="-2.3522260">
        <ele>1144.8</ele>
        <time>2020-09-12T08:37:45Z</time>
      </trkpt>
      <trkpt lat="41.0052280" lon="-2.3522990">
        <ele>1144.8</ele>
        <time>2020-09-12T08:37:46Z</time>
      </trkpt>
      <trkpt lat="41.0053030" lon="-2.3523690">
        <ele>1144.6</ele>
        <time>2020-09-12T08:37:47Z</time>
      </trkpt>
      <trkpt lat="41.0053780" lon="-2.3524370">
        <ele>1144.4</ele>
        <time>2020-09-12T08:37:48Z</time>
      </trkpt>
      <trkpt lat="41.0054520" lon="-2.3525050">
        <ele>1144.4</ele>
        <time>2020-09-12T08:37:49Z</time>
      </trkpt>
      <trkpt lat="41.0055250" lon="-2.3525720">
        <ele>1144.2</ele>
        <time>2020-09-12T08:37:50Z</time>
      </trkpt>
      <trkpt lat="41.0055970" lon="-2.3526390">
        <ele>1144.2</ele>
        <time>2020-09-12T08:37:51Z</time>
      </trkpt>
      <trkpt lat="41.0056660" lon="-2.3527050">
        <ele>1144.2</ele>
        <time>2020-09-12T08:37:52Z</time>
      </trkpt>
      <trkpt lat="41.0057350" lon="-2.3527690">
        <ele>1144.0</ele>
        <time>2020-09-12T08:37:53Z</time>
      </trkpt>
      <trkpt lat="41.0058020" lon="-2.3528330">
        <ele>1144.0</ele>
        <time>2020-09-12T08:37:54Z</time>
      </trkpt>
      <trkpt lat="41.0058660" lon="-2.3528980">
        <ele>1144.2</ele>
        <time>2020-09-12T08:37:55Z</time>
      </trkpt>
      <trkpt lat="41.0059290" lon="-2.3529670">
        <ele>1144.2</ele>
        <time>2020-09-12T08:37:56Z</time>
      </trkpt>
      <trkpt lat="41.0059910" lon="-2.3530380">
        <ele>1144.2</ele>
        <time>2020-09-12T08:37:57Z</time>
      </trkpt>
      <trkpt lat="41.0060550" lon="-2.3531110">
        <ele>1144.2</ele>
        <time>2020-09-12T08:37:58Z</time>
      </trkpt>
      <trkpt lat="41.0061200" lon="-2.3531850">
        <ele>1144.2</ele>
        <time>2020-09-12T08:37:59Z</time>
      </trkpt>
      <trkpt lat="41.0061850" lon="-2.3532610">
        <ele>1144.2</ele>
        <time>2020-09-12T08:38:00Z</time>
      </trkpt>
      <trkpt lat="41.0062500" lon="-2.3533380">
        <ele>1144.2</ele>
        <time>2020-09-12T08:38:01Z</time>
      </trkpt>
      <trkpt lat="41.0063150" lon="-2.3534170">
        <ele>1144.0</ele>
        <time>2020-09-12T08:38:02Z</time>
      </trkpt>
      <trkpt lat="41.0063800" lon="-2.3534960">
        <ele>1143.8</ele>
        <time>2020-09-12T08:38:03Z</time>
      </trkpt>
      <trkpt lat="41.0064470" lon="-2.3535730">
        <ele>1143.6</ele>
        <time>2020-09-12T08:38:04Z</time>
      </trkpt>
      <trkpt lat="41.0065130" lon="-2.3536480">
        <ele>1143.4</ele>
        <time>2020-09-12T08:38:05Z</time>
      </trkpt>
      <trkpt lat="41.0065780" lon="-2.3537240">
        <ele>1143.2</ele>
        <time>2020-09-12T08:38:06Z</time>
      </trkpt>
      <trkpt lat="41.0066450" lon="-2.3537990">
        <ele>1143.0</ele>
        <time>2020-09-12T08:38:07Z</time>
      </trkpt>
      <trkpt lat="41.0067110" lon="-2.3538740">
        <ele>1143.0</ele>
        <time>2020-09-12T08:38:08Z</time>
      </trkpt>
      <trkpt lat="41.0067770" lon="-2.3539530">
        <ele>1143.0</ele>
        <time>2020-09-12T08:38:09Z</time>
      </trkpt>
      <trkpt lat="41.0068420" lon="-2.3540320">
        <ele>1142.8</ele>
        <time>2020-09-12T08:38:10Z</time>
      </trkpt>
      <trkpt lat="41.0069080" lon="-2.3541110">
        <ele>1142.8</ele>
        <time>2020-09-12T08:38:11Z</time>
      </trkpt>
      <trkpt lat="41.0069750" lon="-2.3541890">
        <ele>1142.8</ele>
        <time>2020-09-12T08:38:12Z</time>
      </trkpt>
      <trkpt lat="41.0070410" lon="-2.3542670">
        <ele>1142.8</ele>
        <time>2020-09-12T08:38:13Z</time>
      </trkpt>
      <trkpt lat="41.0071100" lon="-2.3543420">
        <ele>1142.6</ele>
        <time>2020-09-12T08:38:14Z</time>
      </trkpt>
      <trkpt lat="41.0071810" lon="-2.3544110">
        <ele>1142.4</ele>
        <time>2020-09-12T08:38:15Z</time>
      </trkpt>
      <trkpt lat="41.0072520" lon="-2.3544730">
        <ele>1142.2</ele>
        <time>2020-09-12T08:38:16Z</time>
      </trkpt>
      <trkpt lat="41.0073250" lon="-2.3545270">
        <ele>1142.0</ele>
        <time>2020-09-12T08:38:17Z</time>
      </trkpt>
      <trkpt lat="41.0073980" lon="-2.3545770">
        <ele>1141.8</ele>
        <time>2020-09-12T08:38:18Z</time>
      </trkpt>
      <trkpt lat="41.0074720" lon="-2.3546200">
        <ele>1141.8</ele>
        <time>2020-09-12T08:38:19Z</time>
      </trkpt>
      <trkpt lat="41.0075460" lon="-2.3546610">
        <ele>1141.8</ele>
        <time>2020-09-12T08:38:20Z</time>
      </trkpt>
      <trkpt lat="41.0076180" lon="-2.3547010">
        <ele>1141.8</ele>
        <time>2020-09-12T08:38:21Z</time>
      </trkpt>
      <trkpt lat="41.0076900" lon="-2.3547390">
        <ele>1142.0</ele>
        <time>2020-09-12T08:38:22Z</time>
      </trkpt>
      <trkpt lat="41.0077610" lon="-2.3547780">
        <ele>1142.0</ele>
        <time>2020-09-12T08:38:23Z</time>
      </trkpt>
      <trkpt lat="41.0078330" lon="-2.3548150">
        <ele>1142.2</ele>
        <time>2020-09-12T08:38:24Z</time>
      </trkpt>
      <trkpt lat="41.0079040" lon="-2.3548520">
        <ele>1142.2</ele>
        <time>2020-09-12T08:38:25Z</time>
      </trkpt>
      <trkpt lat="41.0079750" lon="-2.3548880">
        <ele>1142.2</ele>
        <time>2020-09-12T08:38:26Z</time>
      </trkpt>
      <trkpt lat="41.0080440" lon="-2.3549240">
        <ele>1142.2</ele>
        <time>2020-09-12T08:38:27Z</time>
      </trkpt>
      <trkpt lat="41.0081110" lon="-2.3549630">
        <ele>1142.4</ele>
        <time>2020-09-12T08:38:28Z</time>
      </trkpt>
      <trkpt lat="41.0081770" lon="-2.3550050">
        <ele>1142.4</ele>
        <time>2020-09-12T08:38:29Z</time>
      </trkpt>
      <trkpt lat="41.0082420" lon="-2.3550520">
        <ele>1142.4</ele>
        <time>2020-09-12T08:38:30Z</time>
      </trkpt>
      <trkpt lat="41.0083080" lon="-2.3550990">
        <ele>1142.6</ele>
        <time>2020-09-12T08:38:31Z</time>
      </trkpt>
      <trkpt lat="41.0083760" lon="-2.3551470">
        <ele>1142.6</ele>
        <time>2020-09-12T08:38:32Z</time>
      </trkpt>
      <trkpt lat="41.0084460" lon="-2.3551970">
        <ele>1142.6</ele>
        <time>2020-09-12T08:38:33Z</time>
      </trkpt>
      <trkpt lat="41.0085160" lon="-2.3552480">
        <ele>1142.6</ele>
        <time>2020-09-12T08:38:34Z</time>
      </trkpt>
      <trkpt lat="41.0085870" lon="-2.3553030">
        <ele>1142.6</ele>
        <time>2020-09-12T08:38:35Z</time>
      </trkpt>
      <trkpt lat="41.0086600" lon="-2.3553610">
        <ele>1142.6</ele>
        <time>2020-09-12T08:38:36Z</time>
      </trkpt>
      <trkpt lat="41.0087360" lon="-2.3554200">
        <ele>1142.4</ele>
        <time>2020-09-12T08:38:37Z</time>
      </trkpt>
      <trkpt lat="41.0088150" lon="-2.3554820">
        <ele>1142.0</ele>
        <time>2020-09-12T08:38:38Z</time>
      </trkpt>
      <trkpt lat="41.0088990" lon="-2.3555460">
        <ele>1141.2</ele>
        <time>2020-09-12T08:38:39Z</time>
      </trkpt>
      <trkpt lat="41.0089850" lon="-2.3556120">
        <ele>1140.6</ele>
        <time>2020-09-12T08:38:40Z</time>
      </trkpt>
      <trkpt lat="41.0090750" lon="-2.3556780">
        <ele>1140.2</ele>
        <time>2020-09-12T08:38:41Z</time>
      </trkpt>
      <trkpt lat="41.0091670" lon="-2.3557450">
        <ele>1139.8</ele>
        <time>2020-09-12T08:38:42Z</time>
      </trkpt>
      <trkpt lat="41.0092600" lon="-2.3558120">
        <ele>1139.2</ele>
        <time>2020-09-12T08:38:43Z</time>
      </trkpt>
      <trkpt lat="41.0093550" lon="-2.3558760">
        <ele>1138.6</ele>
        <time>2020-09-12T08:38:44Z</time>
      </trkpt>
      <trkpt lat="41.0094500" lon="-2.3559410">
        <ele>1138.2</ele>
        <time>2020-09-12T08:38:45Z</time>
      </trkpt>
      <trkpt lat="41.0095400" lon="-2.3560050">
        <ele>1137.6</ele>
        <time>2020-09-12T08:38:46Z</time>
      </trkpt>
      <trkpt lat="41.0095970" lon="-2.3559800">
        <ele>1137.0</ele>
        <time>2020-09-12T08:38:47Z</time>
      </trkpt>
      <trkpt lat="41.0096890" lon="-2.3561010">
        <ele>1136.2</ele>
        <time>2020-09-12T08:38:48Z</time>
      </trkpt>
      <trkpt lat="41.0097940" lon="-2.3561580">
        <ele>1135.4</ele>
        <time>2020-09-12T08:38:49Z</time>
      </trkpt>
      <trkpt lat="41.0098980" lon="-2.3561980">
        <ele>1134.8</ele>
        <time>2020-09-12T08:38:50Z</time>
      </trkpt>
      <trkpt lat="41.0100080" lon="-2.3562290">
        <ele>1134.4</ele>
        <time>2020-09-12T08:38:51Z</time>
      </trkpt>
      <trkpt lat="41.0101360" lon="-2.3562460">
        <ele>1134.0</ele>
        <time>2020-09-12T08:38:52Z</time>
      </trkpt>
      <trkpt lat="41.0102580" lon="-2.3562520">
        <ele>1133.6</ele>
        <time>2020-09-12T08:38:53Z</time>
      </trkpt>
      <trkpt lat="41.0103700" lon="-2.3562560">
        <ele>1133.4</ele>
        <time>2020-09-12T08:38:54Z</time>
      </trkpt>
      <trkpt lat="41.0104780" lon="-2.3562610">
        <ele>1133.2</ele>
        <time>2020-09-12T08:38:55Z</time>
      </trkpt>
      <trkpt lat="41.0105800" lon="-2.3562690">
        <ele>1132.8</ele>
        <time>2020-09-12T08:38:56Z</time>
      </trkpt>
      <trkpt lat="41.0106820" lon="-2.3562770">
        <ele>1132.4</ele>
        <time>2020-09-12T08:38:57Z</time>
      </trkpt>
      <trkpt lat="41.0107860" lon="-2.3562840">
        <ele>1132.0</ele>
        <time>2020-09-12T08:38:58Z</time>
      </trkpt>
      <trkpt lat="41.0108900" lon="-2.3562920">
        <ele>1131.6</ele>
        <time>2020-09-12T08:38:59Z</time>
      </trkpt>
      <trkpt lat="41.0109970" lon="-2.3563010">
        <ele>1131.2</ele>
        <time>2020-09-12T08:39:00Z</time>
      </trkpt>
      <trkpt lat="41.0111060" lon="-2.3563120">
        <ele>1131.0</ele>
        <time>2020-09-12T08:39:01Z</time>
      </trkpt>
      <trkpt lat="41.0112130" lon="-2.3563250">
        <ele>1130.6</ele>
        <time>2020-09-12T08:39:02Z</time>
      </trkpt>
      <trkpt lat="41.0113210" lon="-2.3563390">
        <ele>1130.2</ele>
        <time>2020-09-12T08:39:03Z</time>
      </trkpt>
      <trkpt lat="41.0114270" lon="-2.3563600">
        <ele>1129.8</ele>
        <time>2020-09-12T08:39:04Z</time>
      </trkpt>
      <trkpt lat="41.0115310" lon="-2.3563880">
        <ele>1129.6</ele>
        <time>2020-09-12T08:39:05Z</time>
      </trkpt>
      <trkpt lat="41.0116360" lon="-2.3564260">
        <ele>1129.4</ele>
        <time>2020-09-12T08:39:06Z</time>
      </trkpt>
      <trkpt lat="41.0117400" lon="-2.3564740">
        <ele>1129.0</ele>
        <time>2020-09-12T08:39:07Z</time>
      </trkpt>
      <trkpt lat="41.0118450" lon="-2.3565300">
        <ele>1128.4</ele>
        <time>2020-09-12T08:39:08Z</time>
      </trkpt>
      <trkpt lat="41.0119510" lon="-2.3565890">
        <ele>1127.6</ele>
        <time>2020-09-12T08:39:09Z</time>
      </trkpt>
      <trkpt lat="41.0120590" lon="-2.3566440">
        <ele>1127.2</ele>
        <time>2020-09-12T08:39:10Z</time>
      </trkpt>
      <trkpt lat="41.0121680" lon="-2.3566880">
        <ele>1126.6</ele>
        <time>2020-09-12T08:39:11Z</time>
      </trkpt>
      <trkpt lat="41.0122800" lon="-2.3567200">
        <ele>1126.4</ele>
        <time>2020-09-12T08:39:12Z</time>
      </trkpt>
      <trkpt lat="41.0123920" lon="-2.3567400">
        <ele>1126.0</ele>
        <time>2020-09-12T08:39:13Z</time>
      </trkpt>
      <trkpt lat="41.0125030" lon="-2.3567510">
        <ele>1125.6</ele>
        <time>2020-09-12T08:39:14Z</time>
      </trkpt>
      <trkpt lat="41.0126120" lon="-2.3567550">
        <ele>1125.0</ele>
        <time>2020-09-12T08:39:15Z</time>
      </trkpt>
      <trkpt lat="41.0127170" lon="-2.3567580">
        <ele>1124.4</ele>
        <time>2020-09-12T08:39:16Z</time>
      </trkpt>
      <trkpt lat="41.0128200" lon="-2.3567630">
        <ele>1124.4</ele>
        <time>2020-09-12T08:39:17Z</time>
      </trkpt>
      <trkpt lat="41.0129220" lon="-2.3567710">
        <ele>1124.2</ele>
        <time>2020-09-12T08:39:18Z</time>
      </trkpt>
      <trkpt lat="41.0130220" lon="-2.3567820">
        <ele>1123.8</ele>
        <time>2020-09-12T08:39:19Z</time>
      </trkpt>
      <trkpt lat="41.0131220" lon="-2.3568040">
        <ele>1123.6</ele>
        <time>2020-09-12T08:39:20Z</time>
      </trkpt>
      <trkpt lat="41.0132200" lon="-2.3568400">
        <ele>1123.2</ele>
        <time>2020-09-12T08:39:21Z</time>
      </trkpt>
      <trkpt lat="41.0133170" lon="-2.3568860">
        <ele>1122.6</ele>
        <time>2020-09-12T08:39:22Z</time>
      </trkpt>
      <trkpt lat="41.0134140" lon="-2.3569390">
        <ele>1122.2</ele>
        <time>2020-09-12T08:39:23Z</time>
      </trkpt>
      <trkpt lat="41.0135090" lon="-2.3569980">
        <ele>1121.4</ele>
        <time>2020-09-12T08:39:24Z</time>
      </trkpt>
      <trkpt lat="41.0136050" lon="-2.3570610">
        <ele>1121.0</ele>
        <time>2020-09-12T08:39:25Z</time>
      </trkpt>
      <trkpt lat="41.0136980" lon="-2.3571280">
        <ele>1120.4</ele>
        <time>2020-09-12T08:39:26Z</time>
      </trkpt>
      <trkpt lat="41.0137920" lon="-2.3571950">
        <ele>1119.8</ele>
        <time>2020-09-12T08:39:27Z</time>
      </trkpt>
      <trkpt lat="41.0138880" lon="-2.3572600">
        <ele>1119.2</ele>
        <time>2020-09-12T08:39:28Z</time>
      </trkpt>
      <trkpt lat="41.0139830" lon="-2.3573250">
        <ele>1118.8</ele>
        <time>2020-09-12T08:39:29Z</time>
      </trkpt>
      <trkpt lat="41.0140760" lon="-2.3573910">
        <ele>1118.2</ele>
        <time>2020-09-12T08:39:30Z</time>
      </trkpt>
      <trkpt lat="41.0141690" lon="-2.3574600">
        <ele>1117.8</ele>
        <time>2020-09-12T08:39:31Z</time>
      </trkpt>
      <trkpt lat="41.0142590" lon="-2.3575330">
        <ele>1117.6</ele>
        <time>2020-09-12T08:39:32Z</time>
      </trkpt>
      <trkpt lat="41.0143470" lon="-2.3576120">
        <ele>1117.2</ele>
        <time>2020-09-12T08:39:33Z</time>
      </trkpt>
      <trkpt lat="41.0144310" lon="-2.3576990">
        <ele>1117.0</ele>
        <time>2020-09-12T08:39:34Z</time>
      </trkpt>
      <trkpt lat="41.0145120" lon="-2.3577910">
        <ele>1116.6</ele>
        <time>2020-09-12T08:39:35Z</time>
      </trkpt>
      <trkpt lat="41.0145920" lon="-2.3578840">
        <ele>1116.6</ele>
        <time>2020-09-12T08:39:36Z</time>
      </trkpt>
      <trkpt lat="41.0146730" lon="-2.3579750">
        <ele>1116.4</ele>
        <time>2020-09-12T08:39:37Z</time>
      </trkpt>
      <trkpt lat="41.0147540" lon="-2.3580670">
        <ele>1116.4</ele>
        <time>2020-09-12T08:39:38Z</time>
      </trkpt>
      <trkpt lat="41.0148330" lon="-2.3581600">
        <ele>1116.2</ele>
        <time>2020-09-12T08:39:39Z</time>
      </trkpt>
      <trkpt lat="41.0149100" lon="-2.3582520">
        <ele>1116.2</ele>
        <time>2020-09-12T08:39:40Z</time>
      </trkpt>
      <trkpt lat="41.0149860" lon="-2.3583440">
        <ele>1116.2</ele>
        <time>2020-09-12T08:39:41Z</time>
      </trkpt>
      <trkpt lat="41.0150620" lon="-2.3584360">
        <ele>1116.0</ele>
        <time>2020-09-12T08:39:42Z</time>
      </trkpt>
      <trkpt lat="41.0151360" lon="-2.3585270">
        <ele>1116.0</ele>
        <time>2020-09-12T08:39:43Z</time>
      </trkpt>
      <trkpt lat="41.0152110" lon="-2.3586130">
        <ele>1115.8</ele>
        <time>2020-09-12T08:39:44Z</time>
      </trkpt>
      <trkpt lat="41.0152870" lon="-2.3586970">
        <ele>1115.6</ele>
        <time>2020-09-12T08:39:45Z</time>
      </trkpt>
      <trkpt lat="41.0153630" lon="-2.3587790">
        <ele>1115.6</ele>
        <time>2020-09-12T08:39:46Z</time>
      </trkpt>
      <trkpt lat="41.0154380" lon="-2.3588590">
        <ele>1115.6</ele>
        <time>2020-09-12T08:39:47Z</time>
      </trkpt>
      <trkpt lat="41.0155130" lon="-2.3589380">
        <ele>1115.4</ele>
        <time>2020-09-12T08:39:48Z</time>
      </trkpt>
      <trkpt lat="41.0155890" lon="-2.3590150">
        <ele>1115.2</ele>
        <time>2020-09-12T08:39:49Z</time>
      </trkpt>
      <trkpt lat="41.0156650" lon="-2.3590900">
        <ele>1114.8</ele>
        <time>2020-09-12T08:39:50Z</time>
      </trkpt>
      <trkpt lat="41.0157420" lon="-2.3591650">
        <ele>1114.6</ele>
        <time>2020-09-12T08:39:51Z</time>
      </trkpt>
      <trkpt lat="41.0158200" lon="-2.3592360">
        <ele>1114.4</ele>
        <time>2020-09-12T08:39:52Z</time>
      </trkpt>
      <trkpt lat="41.0158980" lon="-2.3593060">
        <ele>1114.4</ele>
        <time>2020-09-12T08:39:53Z</time>
      </trkpt>
      <trkpt lat="41.0159760" lon="-2.3593760">
        <ele>1114.2</ele>
        <time>2020-09-12T08:39:54Z</time>
      </trkpt>
      <trkpt lat="41.0160550" lon="-2.3594450">
        <ele>1114.2</ele>
        <time>2020-09-12T08:39:55Z</time>
      </trkpt>
      <trkpt lat="41.0161330" lon="-2.3595150">
        <ele>1114.2</ele>
        <time>2020-09-12T08:39:56Z</time>
      </trkpt>
      <trkpt lat="41.0162120" lon="-2.3595830">
        <ele>1114.0</ele>
        <time>2020-09-12T08:39:57Z</time>
      </trkpt>
      <trkpt lat="41.0162910" lon="-2.3596500">
        <ele>1114.0</ele>
        <time>2020-09-12T08:39:58Z</time>
      </trkpt>
      <trkpt lat="41.0163700" lon="-2.3597160">
        <ele>1114.0</ele>
        <time>2020-09-12T08:39:59Z</time>
      </trkpt>
      <trkpt lat="41.0164490" lon="-2.3597790">
        <ele>1114.0</ele>
        <time>2020-09-12T08:40:00Z</time>
      </trkpt>
      <trkpt lat="41.0165290" lon="-2.3598420">
        <ele>1114.0</ele>
        <time>2020-09-12T08:40:01Z</time>
      </trkpt>
      <trkpt lat="41.0166090" lon="-2.3599030">
        <ele>1113.8</ele>
        <time>2020-09-12T08:40:02Z</time>
      </trkpt>
      <trkpt lat="41.0166900" lon="-2.3599640">
        <ele>1113.8</ele>
        <time>2020-09-12T08:40:03Z</time>
      </trkpt>
      <trkpt lat="41.0167700" lon="-2.3600230">
        <ele>1113.8</ele>
        <time>2020-09-12T08:40:04Z</time>
      </trkpt>
      <trkpt lat="41.0168510" lon="-2.3600820">
        <ele>1113.8</ele>
        <time>2020-09-12T08:40:05Z</time>
      </trkpt>
      <trkpt lat="41.0169320" lon="-2.3601400">
        <ele>1113.8</ele>
        <time>2020-09-12T08:40:06Z</time>
      </trkpt>
      <trkpt lat="41.0170130" lon="-2.3602000">
        <ele>1113.6</ele>
        <time>2020-09-12T08:40:07Z</time>
      </trkpt>
      <trkpt lat="41.0170930" lon="-2.3602610">
        <ele>1113.6</ele>
        <time>2020-09-12T08:40:08Z</time>
      </trkpt>
      <trkpt lat="41.0171730" lon="-2.3603220">
        <ele>1113.6</ele>
        <time>2020-09-12T08:40:09Z</time>
      </trkpt>
      <trkpt lat="41.0172520" lon="-2.3603830">
        <ele>1113.4</ele>
        <time>2020-09-12T08:40:10Z</time>
      </trkpt>
      <trkpt lat="41.0173310" lon="-2.3604420">
        <ele>1113.2</ele>
        <time>2020-09-12T08:40:11Z</time>
      </trkpt>
      <trkpt lat="41.0174100" lon="-2.3605010">
        <ele>1113.2</ele>
        <time>2020-09-12T08:40:12Z</time>
      </trkpt>
      <trkpt lat="41.0174880" lon="-2.3605590">
        <ele>1113.2</ele>
        <time>2020-09-12T08:40:13Z</time>
      </trkpt>
      <trkpt lat="41.0175670" lon="-2.3606160">
        <ele>1113.0</ele>
        <time>2020-09-12T08:40:14Z</time>
      </trkpt>
      <trkpt lat="41.0176460" lon="-2.3606730">
        <ele>1113.0</ele>
        <time>2020-09-12T08:40:15Z</time>
      </trkpt>
      <trkpt lat="41.0177220" lon="-2.3607300">
        <ele>1113.0</ele>
        <time>2020-09-12T08:40:16Z</time>
      </trkpt>
      <trkpt lat="41.0177980" lon="-2.3607860">
        <ele>1113.0</ele>
        <time>2020-09-12T08:40:17Z</time>
      </trkpt>
      <trkpt lat="41.0178740" lon="-2.3608420">
        <ele>1113.0</ele>
        <time>2020-09-12T08:40:18Z</time>
      </trkpt>
      <trkpt lat="41.0179470" lon="-2.3608990">
        <ele>1113.0</ele>
        <time>2020-09-12T08:40:19Z</time>
      </trkpt>
      <trkpt lat="41.0180190" lon="-2.3609550">
        <ele>1113.0</ele>
        <time>2020-09-12T08:40:20Z</time>
      </trkpt>
      <trkpt lat="41.0180900" lon="-2.3610130">
        <ele>1113.0</ele>
        <time>2020-09-12T08:40:21Z</time>
      </trkpt>
      <trkpt lat="41.0181600" lon="-2.3610740">
        <ele>1113.0</ele>
        <time>2020-09-12T08:40:22Z</time>
      </trkpt>
      <trkpt lat="41.0182310" lon="-2.3611360">
        <ele>1113.0</ele>
        <time>2020-09-12T08:40:23Z</time>
      </trkpt>
      <trkpt lat="41.0183030" lon="-2.3612010">
        <ele>1113.0</ele>
        <time>2020-09-12T08:40:24Z</time>
      </trkpt>
      <trkpt lat="41.0183750" lon="-2.3612670">
        <ele>1113.0</ele>
        <time>2020-09-12T08:40:25Z</time>
      </trkpt>
      <trkpt lat="41.0184500" lon="-2.3613330">
        <ele>1113.0</ele>
        <time>2020-09-12T08:40:26Z</time>
      </trkpt>
      <trkpt lat="41.0185260" lon="-2.3613990">
        <ele>1112.8</ele>
        <time>2020-09-12T08:40:27Z</time>
      </trkpt>
      <trkpt lat="41.0186030" lon="-2.3614670">
        <ele>1112.8</ele>
        <time>2020-09-12T08:40:28Z</time>
      </trkpt>
      <trkpt lat="41.0186790" lon="-2.3615350">
        <ele>1112.6</ele>
        <time>2020-09-12T08:40:29Z</time>
      </trkpt>
      <trkpt lat="41.0187550" lon="-2.3616030">
        <ele>1112.4</ele>
        <time>2020-09-12T08:40:30Z</time>
      </trkpt>
      <trkpt lat="41.0188320" lon="-2.3616710">
        <ele>1112.4</ele>
        <time>2020-09-12T08:40:31Z</time>
      </trkpt>
      <trkpt lat="41.0189090" lon="-2.3617400">
        <ele>1112.2</ele>
        <time>2020-09-12T08:40:32Z</time>
      </trkpt>
      <trkpt lat="41.0189870" lon="-2.3618090">
        <ele>1112.0</ele>
        <time>2020-09-12T08:40:33Z</time>
      </trkpt>
      <trkpt lat="41.0190630" lon="-2.3618780">
        <ele>1111.8</ele>
        <time>2020-09-12T08:40:34Z</time>
      </trkpt>
      <trkpt lat="41.0191400" lon="-2.3619490">
        <ele>1111.6</ele>
        <time>2020-09-12T08:40:35Z</time>
      </trkpt>
      <trkpt lat="41.0192170" lon="-2.3620190">
        <ele>1111.4</ele>
        <time>2020-09-12T08:40:36Z</time>
      </trkpt>
      <trkpt lat="41.0192940" lon="-2.3620880">
        <ele>1111.4</ele>
        <time>2020-09-12T08:40:37Z</time>
      </trkpt>
      <trkpt lat="41.0193710" lon="-2.3621550">
        <ele>1111.2</ele>
        <time>2020-09-12T08:40:38Z</time>
      </trkpt>
      <trkpt lat="41.0194480" lon="-2.3622200">
        <ele>1110.8</ele>
        <time>2020-09-12T08:40:39Z</time>
      </trkpt>
      <trkpt lat="41.0195270" lon="-2.3622790">
        <ele>1110.8</ele>
        <time>2020-09-12T08:40:40Z</time>
      </trkpt>
      <trkpt lat="41.0196100" lon="-2.3623300">
        <ele>1110.6</ele>
        <time>2020-09-12T08:40:41Z</time>
      </trkpt>
      <trkpt lat="41.0196950" lon="-2.3623700">
        <ele>1110.4</ele>
        <time>2020-09-12T08:40:42Z</time>
      </trkpt>
      <trkpt lat="41.0197850" lon="-2.3623940">
        <ele>1110.4</ele>
        <time>2020-09-12T08:40:43Z</time>
      </trkpt>
      <trkpt lat="41.0198760" lon="-2.3624050">
        <ele>1110.2</ele>
        <time>2020-09-12T08:40:44Z</time>
      </trkpt>
      <trkpt lat="41.0199660" lon="-2.3624060">
        <ele>1110.0</ele>
        <time>2020-09-12T08:40:45Z</time>
      </trkpt>
      <trkpt lat="41.0200570" lon="-2.3624010">
        <ele>1110.0</ele>
        <time>2020-09-12T08:40:46Z</time>
      </trkpt>
      <trkpt lat="41.0201470" lon="-2.3623940">
        <ele>1109.8</ele>
        <time>2020-09-12T08:40:47Z</time>
      </trkpt>
      <trkpt lat="41.0202380" lon="-2.3623840">
        <ele>1109.6</ele>
        <time>2020-09-12T08:40:48Z</time>
      </trkpt>
      <trkpt lat="41.0203270" lon="-2.3623730">
        <ele>1109.6</ele>
        <time>2020-09-12T08:40:49Z</time>
      </trkpt>
      <trkpt lat="41.0204140" lon="-2.3623620">
        <ele>1109.6</ele>
        <time>2020-09-12T08:40:50Z</time>
      </trkpt>
      <trkpt lat="41.0205020" lon="-2.3623520">
        <ele>1109.6</ele>
        <time>2020-09-12T08:40:51Z</time>
      </trkpt>
      <trkpt lat="41.0205880" lon="-2.3623410">
        <ele>1109.6</ele>
        <time>2020-09-12T08:40:52Z</time>
      </trkpt>
      <trkpt lat="41.0206730" lon="-2.3623300">
        <ele>1109.6</ele>
        <time>2020-09-12T08:40:53Z</time>
      </trkpt>
      <trkpt lat="41.0207590" lon="-2.3623260">
        <ele>1109.4</ele>
        <time>2020-09-12T08:40:54Z</time>
      </trkpt>
      <trkpt lat="41.0208430" lon="-2.3623310">
        <ele>1109.4</ele>
        <time>2020-09-12T08:40:55Z</time>
      </trkpt>
      <trkpt lat="41.0209260" lon="-2.3623510">
        <ele>1109.4</ele>
        <time>2020-09-12T08:40:56Z</time>
      </trkpt>
      <trkpt lat="41.0210030" lon="-2.3623890">
        <ele>1109.4</ele>
        <time>2020-09-12T08:40:57Z</time>
      </trkpt>
      <trkpt lat="41.0210730" lon="-2.3624450">
        <ele>1109.4</ele>
        <time>2020-09-12T08:40:58Z</time>
      </trkpt>
      <trkpt lat="41.0211360" lon="-2.3625150">
        <ele>1109.6</ele>
        <time>2020-09-12T08:40:59Z</time>
      </trkpt>
      <trkpt lat="41.0211920" lon="-2.3625910">
        <ele>1109.8</ele>
        <time>2020-09-12T08:41:00Z</time>
      </trkpt>
      <trkpt lat="41.0212460" lon="-2.3626690">
        <ele>1110.0</ele>
        <time>2020-09-12T08:41:01Z</time>
      </trkpt>
      <trkpt lat="41.0212970" lon="-2.3627480">
        <ele>1110.0</ele>
        <time>2020-09-12T08:41:02Z</time>
      </trkpt>
      <trkpt lat="41.0213480" lon="-2.3628310">
        <ele>1110.0</ele>
        <time>2020-09-12T08:41:03Z</time>
      </trkpt>
      <trkpt lat="41.0213960" lon="-2.3629140">
        <ele>1110.0</ele>
        <time>2020-09-12T08:41:04Z</time>
      </trkpt>
      <trkpt lat="41.0214450" lon="-2.3629980">
        <ele>1110.0</ele>
        <time>2020-09-12T08:41:05Z</time>
      </trkpt>
      <trkpt lat="41.0214930" lon="-2.3630830">
        <ele>1110.0</ele>
        <time>2020-09-12T08:41:06Z</time>
      </trkpt>
      <trkpt lat="41.0215410" lon="-2.3631680">
        <ele>1110.0</ele>
        <time>2020-09-12T08:41:07Z</time>
      </trkpt>
      <trkpt lat="41.0215900" lon="-2.3632530">
        <ele>1110.0</ele>
        <time>2020-09-12T08:41:08Z</time>
      </trkpt>
      <trkpt lat="41.0216400" lon="-2.3633400">
        <ele>1110.2</ele>
        <time>2020-09-12T08:41:09Z</time>
      </trkpt>
      <trkpt lat="41.0216890" lon="-2.3634250">
        <ele>1110.2</ele>
        <time>2020-09-12T08:41:10Z</time>
      </trkpt>
      <trkpt lat="41.0217390" lon="-2.3635100">
        <ele>1110.2</ele>
        <time>2020-09-12T08:41:11Z</time>
      </trkpt>
      <trkpt lat="41.0217910" lon="-2.3635920">
        <ele>1110.2</ele>
        <time>2020-09-12T08:41:12Z</time>
      </trkpt>
      <trkpt lat="41.0218480" lon="-2.3636680">
        <ele>1110.2</ele>
        <time>2020-09-12T08:41:13Z</time>
      </trkpt>
      <trkpt lat="41.0219100" lon="-2.3637360">
        <ele>1110.2</ele>
        <time>2020-09-12T08:41:14Z</time>
      </trkpt>
      <trkpt lat="41.0219740" lon="-2.3637990">
        <ele>1110.2</ele>
        <time>2020-09-12T08:41:15Z</time>
      </trkpt>
      <trkpt lat="41.0220430" lon="-2.3638530">
        <ele>1110.2</ele>
        <time>2020-09-12T08:41:16Z</time>
      </trkpt>
      <trkpt lat="41.0221140" lon="-2.3638980">
        <ele>1110.2</ele>
        <time>2020-09-12T08:41:17Z</time>
      </trkpt>
      <trkpt lat="41.0221860" lon="-2.3639400">
        <ele>1110.2</ele>
        <time>2020-09-12T08:41:18Z</time>
      </trkpt>
      <trkpt lat="41.0222560" lon="-2.3639800">
        <ele>1110.4</ele>
        <time>2020-09-12T08:41:19Z</time>
      </trkpt>
      <trkpt lat="41.0223250" lon="-2.3640190">
        <ele>1110.6</ele>
        <time>2020-09-12T08:41:20Z</time>
      </trkpt>
      <trkpt lat="41.0223930" lon="-2.3640580">
        <ele>1110.8</ele>
        <time>2020-09-12T08:41:21Z</time>
      </trkpt>
      <trkpt lat="41.0224600" lon="-2.3640970">
        <ele>1110.8</ele>
        <time>2020-09-12T08:41:22Z</time>
      </trkpt>
      <trkpt lat="41.0225270" lon="-2.3641370">
        <ele>1111.0</ele>
        <time>2020-09-12T08:41:23Z</time>
      </trkpt>
      <trkpt lat="41.0225920" lon="-2.3641770">
        <ele>1111.0</ele>
        <time>2020-09-12T08:41:24Z</time>
      </trkpt>
      <trkpt lat="41.0226570" lon="-2.3642160">
        <ele>1110.8</ele>
        <time>2020-09-12T08:41:25Z</time>
      </trkpt>
      <trkpt lat="41.0227230" lon="-2.3642540">
        <ele>1110.8</ele>
        <time>2020-09-12T08:41:26Z</time>
      </trkpt>
      <trkpt lat="41.0227870" lon="-2.3642930">
        <ele>1110.8</ele>
        <time>2020-09-12T08:41:27Z</time>
      </trkpt>
      <trkpt lat="41.0228540" lon="-2.3643290">
        <ele>1110.8</ele>
        <time>2020-09-12T08:41:28Z</time>
      </trkpt>
      <trkpt lat="41.0229200" lon="-2.3643650">
        <ele>1110.6</ele>
        <time>2020-09-12T08:41:29Z</time>
      </trkpt>
      <trkpt lat="41.0229870" lon="-2.3644020">
        <ele>1110.4</ele>
        <time>2020-09-12T08:41:30Z</time>
      </trkpt>
      <trkpt lat="41.0230540" lon="-2.3644400">
        <ele>1110.2</ele>
        <time>2020-09-12T08:41:31Z</time>
      </trkpt>
      <trkpt lat="41.0231210" lon="-2.3644820">
        <ele>1110.2</ele>
        <time>2020-09-12T08:41:32Z</time>
      </trkpt>
      <trkpt lat="41.0231850" lon="-2.3645320">
        <ele>1110.0</ele>
        <time>2020-09-12T08:41:33Z</time>
      </trkpt>
      <trkpt lat="41.0232460" lon="-2.3645910">
        <ele>1110.0</ele>
        <time>2020-09-12T08:41:34Z</time>
      </trkpt>
      <trkpt lat="41.0233030" lon="-2.3646560">
        <ele>1110.0</ele>
        <time>2020-09-12T08:41:35Z</time>
      </trkpt>
      <trkpt lat="41.0233560" lon="-2.3647290">
        <ele>1110.0</ele>
        <time>2020-09-12T08:41:36Z</time>
      </trkpt>
      <trkpt lat="41.0234050" lon="-2.3648070">
        <ele>1109.8</ele>
        <time>2020-09-12T08:41:37Z</time>
      </trkpt>
      <trkpt lat="41.0234500" lon="-2.3648900">
        <ele>1109.8</ele>
        <time>2020-09-12T08:41:38Z</time>
      </trkpt>
      <trkpt lat="41.0234930" lon="-2.3649760">
        <ele>1109.8</ele>
        <time>2020-09-12T08:41:39Z</time>
      </trkpt>
      <trkpt lat="41.0235360" lon="-2.3650670">
        <ele>1109.6</ele>
        <time>2020-09-12T08:41:40Z</time>
      </trkpt>
      <trkpt lat="41.0235760" lon="-2.3651600">
        <ele>1109.6</ele>
        <time>2020-09-12T08:41:41Z</time>
      </trkpt>
      <trkpt lat="41.0236170" lon="-2.3652540">
        <ele>1109.2</ele>
        <time>2020-09-12T08:41:42Z</time>
      </trkpt>
      <trkpt lat="41.0236590" lon="-2.3653470">
        <ele>1109.0</ele>
        <time>2020-09-12T08:41:43Z</time>
      </trkpt>
      <trkpt lat="41.0236980" lon="-2.3654410">
        <ele>1108.8</ele>
        <time>2020-09-12T08:41:44Z</time>
      </trkpt>
      <trkpt lat="41.0237350" lon="-2.3655340">
        <ele>1108.6</ele>
        <time>2020-09-12T08:41:45Z</time>
      </trkpt>
      <trkpt lat="41.0237750" lon="-2.3656250">
        <ele>1108.4</ele>
        <time>2020-09-12T08:41:46Z</time>
      </trkpt>
      <trkpt lat="41.0238160" lon="-2.3657150">
        <ele>1108.6</ele>
        <time>2020-09-12T08:41:47Z</time>
      </trkpt>
      <trkpt lat="41.0238580" lon="-2.3658020">
        <ele>1108.6</ele>
        <time>2020-09-12T08:41:48Z</time>
      </trkpt>
      <trkpt lat="41.0238970" lon="-2.3658880">
        <ele>1108.6</ele>
        <time>2020-09-12T08:41:49Z</time>
      </trkpt>
      <trkpt lat="41.0239360" lon="-2.3659760">
        <ele>1108.6</ele>
        <time>2020-09-12T08:41:50Z</time>
      </trkpt>
      <trkpt lat="41.0239740" lon="-2.3660640">
        <ele>1108.6</ele>
        <time>2020-09-12T08:41:51Z</time>
      </trkpt>
      <trkpt lat="41.0240180" lon="-2.3661520">
        <ele>1109.0</ele>
        <time>2020-09-12T08:41:52Z</time>
      </trkpt>
      <trkpt lat="41.0240650" lon="-2.3662390">
        <ele>1109.2</ele>
        <time>2020-09-12T08:41:53Z</time>
      </trkpt>
      <trkpt lat="41.0241110" lon="-2.3663260">
        <ele>1109.4</ele>
        <time>2020-09-12T08:41:54Z</time>
      </trkpt>
      <trkpt lat="41.0241580" lon="-2.3664160">
        <ele>1109.4</ele>
        <time>2020-09-12T08:41:55Z</time>
      </trkpt>
      <trkpt lat="41.0242050" lon="-2.3665050">
        <ele>1109.4</ele>
        <time>2020-09-12T08:41:56Z</time>
      </trkpt>
      <trkpt lat="41.0242500" lon="-2.3665940">
        <ele>1109.2</ele>
        <time>2020-09-12T08:41:57Z</time>
      </trkpt>
      <trkpt lat="41.0242940" lon="-2.3666830">
        <ele>1109.2</ele>
        <time>2020-09-12T08:41:58Z</time>
      </trkpt>
      <trkpt lat="41.0243380" lon="-2.3667710">
        <ele>1109.0</ele>
        <time>2020-09-12T08:41:59Z</time>
      </trkpt>
      <trkpt lat="41.0243820" lon="-2.3668570">
        <ele>1109.0</ele>
        <time>2020-09-12T08:42:00Z</time>
      </trkpt>
      <trkpt lat="41.0244250" lon="-2.3669440">
        <ele>1108.8</ele>
        <time>2020-09-12T08:42:01Z</time>
      </trkpt>
      <trkpt lat="41.0244670" lon="-2.3670290">
        <ele>1108.8</ele>
        <time>2020-09-12T08:42:02Z</time>
      </trkpt>
      <trkpt lat="41.0245100" lon="-2.3671130">
        <ele>1109.0</ele>
        <time>2020-09-12T08:42:03Z</time>
      </trkpt>
      <trkpt lat="41.0245520" lon="-2.3671970">
        <ele>1108.8</ele>
        <time>2020-09-12T08:42:04Z</time>
      </trkpt>
      <trkpt lat="41.0245940" lon="-2.3672800">
        <ele>1108.8</ele>
        <time>2020-09-12T08:42:05Z</time>
      </trkpt>
      <trkpt lat="41.0246350" lon="-2.3673610">
        <ele>1108.8</ele>
        <time>2020-09-12T08:42:06Z</time>
      </trkpt>
      <trkpt lat="41.0246770" lon="-2.3674400">
        <ele>1108.6</ele>
        <time>2020-09-12T08:42:07Z</time>
      </trkpt>
      <trkpt lat="41.0247160" lon="-2.3675190">
        <ele>1108.4</ele>
        <time>2020-09-12T08:42:08Z</time>
      </trkpt>
      <trkpt lat="41.0247540" lon="-2.3675940">
        <ele>1108.2</ele>
        <time>2020-09-12T08:42:09Z</time>
      </trkpt>
      <trkpt lat="41.0247910" lon="-2.3676680">
        <ele>1108.2</ele>
        <time>2020-09-12T08:42:10Z</time>
      </trkpt>
      <trkpt lat="41.0248290" lon="-2.3677390">
        <ele>1108.0</ele>
        <time>2020-09-12T08:42:11Z</time>
      </trkpt>
      <trkpt lat="41.0248670" lon="-2.3678080">
        <ele>1108.0</ele>
        <time>2020-09-12T08:42:12Z</time>
      </trkpt>
      <trkpt lat="41.0249030" lon="-2.3678720">
        <ele>1107.8</ele>
        <time>2020-09-12T08:42:13Z</time>
      </trkpt>
      <trkpt lat="41.0249330" lon="-2.3679310">
        <ele>1107.6</ele>
        <time>2020-09-12T08:42:14Z</time>
      </trkpt>
      <trkpt lat="41.0249550" lon="-2.3679890">
        <ele>1107.6</ele>
        <time>2020-09-12T08:42:15Z</time>
      </trkpt>
      <trkpt lat="41.0249600" lon="-2.3680480">
        <ele>1107.8</ele>
        <time>2020-09-12T08:42:16Z</time>
      </trkpt>
      <trkpt lat="41.0249470" lon="-2.3681060">
        <ele>1107.8</ele>
        <time>2020-09-12T08:42:17Z</time>
      </trkpt>
      <trkpt lat="41.0249150" lon="-2.3681590">
        <ele>1107.8</ele>
        <time>2020-09-12T08:42:18Z</time>
      </trkpt>
      <trkpt lat="41.0248680" lon="-2.3682030">
        <ele>1107.6</ele>
        <time>2020-09-12T08:42:19Z</time>
      </trkpt>
      <trkpt lat="41.0248090" lon="-2.3682400">
        <ele>1107.6</ele>
        <time>2020-09-12T08:42:20Z</time>
      </trkpt>
      <trkpt lat="41.0247460" lon="-2.3682730">
        <ele>1107.4</ele>
        <time>2020-09-12T08:42:21Z</time>
      </trkpt>
      <trkpt lat="41.0246810" lon="-2.3683050">
        <ele>1107.0</ele>
        <time>2020-09-12T08:42:22Z</time>
      </trkpt>
      <trkpt lat="41.0246140" lon="-2.3683400">
        <ele>1106.8</ele>
        <time>2020-09-12T08:42:23Z</time>
      </trkpt>
      <trkpt lat="41.0245470" lon="-2.3683760">
        <ele>1106.8</ele>
        <time>2020-09-12T08:42:24Z</time>
      </trkpt>
      <trkpt lat="41.0244820" lon="-2.3684110">
        <ele>1106.6</ele>
        <time>2020-09-12T08:42:25Z</time>
      </trkpt>
      <trkpt lat="41.0244130" lon="-2.3684530">
        <ele>1106.4</ele>
        <time>2020-09-12T08:42:26Z</time>
      </trkpt>
      <trkpt lat="41.0243440" lon="-2.3684990">
        <ele>1106.2</ele>
        <time>2020-09-12T08:42:27Z</time>
      </trkpt>
      <trkpt lat="41.0242770" lon="-2.3685470">
        <ele>1106.2</ele>
        <time>2020-09-12T08:42:28Z</time>
      </trkpt>
      <trkpt lat="41.0242120" lon="-2.3685970">
        <ele>1106.0</ele>
        <time>2020-09-12T08:42:29Z</time>
      </trkpt>
      <trkpt lat="41.0241490" lon="-2.3686500">
        <ele>1106.0</ele>
        <time>2020-09-12T08:42:30Z</time>
      </trkpt>
      <trkpt lat="41.0240890" lon="-2.3687060">
        <ele>1105.8</ele>
        <time>2020-09-12T08:42:31Z</time>
      </trkpt>
      <trkpt lat="41.0240310" lon="-2.3687640">
        <ele>1105.8</ele>
        <time>2020-09-12T08:42:32Z</time>
      </trkpt>
      <trkpt lat="41.0239740" lon="-2.3688250">
        <ele>1105.8</ele>
        <time>2020-09-12T08:42:33Z</time>
      </trkpt>
      <trkpt lat="41.0239190" lon="-2.3688890">
        <ele>1105.8</ele>
        <time>2020-09-12T08:42:34Z</time>
      </trkpt>
      <trkpt lat="41.0238670" lon="-2.3689550">
        <ele>1105.8</ele>
        <time>2020-09-12T08:42:35Z</time>
      </trkpt>
      <trkpt lat="41.0238160" lon="-2.3690250">
        <ele>1105.6</ele>
        <time>2020-09-12T08:42:36Z</time>
      </trkpt>
      <trkpt lat="41.0237680" lon="-2.3690960">
        <ele>1105.6</ele>
        <time>2020-09-12T08:42:37Z</time>
      </trkpt>
      <trkpt lat="41.0237270" lon="-2.3691720">
        <ele>1105.6</ele>
        <time>2020-09-12T08:42:38Z</time>
      </trkpt>
      <trkpt lat="41.0236980" lon="-2.3692520">
        <ele>1105.4</ele>
        <time>2020-09-12T08:42:39Z</time>
      </trkpt>
      <trkpt lat="41.0236870" lon="-2.3693390">
        <ele>1105.2</ele>
        <time>2020-09-12T08:42:40Z</time>
      </trkpt>
      <trkpt lat="41.0236930" lon="-2.3694240">
        <ele>1105.0</ele>
        <time>2020-09-12T08:42:41Z</time>
      </trkpt>
      <trkpt lat="41.0237230" lon="-2.3694970">
        <ele>1104.6</ele>
        <time>2020-09-12T08:42:42Z</time>
      </trkpt>
      <trkpt lat="41.0237710" lon="-2.3695530">
        <ele>1104.2</ele>
        <time>2020-09-12T08:42:43Z</time>
      </trkpt>
      <trkpt lat="41.0238260" lon="-2.3695960">
        <ele>1103.8</ele>
        <time>2020-09-12T08:42:44Z</time>
      </trkpt>
      <trkpt lat="41.0238840" lon="-2.3696350">
        <ele>1103.6</ele>
        <time>2020-09-12T08:42:45Z</time>
      </trkpt>
      <trkpt lat="41.0239420" lon="-2.3696730">
        <ele>1103.4</ele>
        <time>2020-09-12T08:42:46Z</time>
      </trkpt>
      <trkpt lat="41.0239990" lon="-2.3697110">
        <ele>1103.2</ele>
        <time>2020-09-12T08:42:47Z</time>
      </trkpt>
      <trkpt lat="41.0240570" lon="-2.3697460">
        <ele>1103.2</ele>
        <time>2020-09-12T08:42:48Z</time>
      </trkpt>
      <trkpt lat="41.0241140" lon="-2.3697800">
        <ele>1103.4</ele>
        <time>2020-09-12T08:42:49Z</time>
      </trkpt>
      <trkpt lat="41.0241710" lon="-2.3698110">
        <ele>1103.4</ele>
        <time>2020-09-12T08:42:50Z</time>
      </trkpt>
      <trkpt lat="41.0242290" lon="-2.3698370">
        <ele>1103.6</ele>
        <time>2020-09-12T08:42:51Z</time>
      </trkpt>
      <trkpt lat="41.0242870" lon="-2.3698610">
        <ele>1103.8</ele>
        <time>2020-09-12T08:42:52Z</time>
      </trkpt>
      <trkpt lat="41.0243460" lon="-2.3698810">
        <ele>1103.8</ele>
        <time>2020-09-12T08:42:53Z</time>
      </trkpt>
      <trkpt lat="41.0244030" lon="-2.3699010">
        <ele>1103.8</ele>
        <time>2020-09-12T08:42:54Z</time>
      </trkpt>
      <trkpt lat="41.0244610" lon="-2.3699220">
        <ele>1104.0</ele>
        <time>2020-09-12T08:42:55Z</time>
      </trkpt>
      <trkpt lat="41.0245180" lon="-2.3699420">
        <ele>1104.2</ele>
        <time>2020-09-12T08:42:56Z</time>
      </trkpt>
      <trkpt lat="41.0245740" lon="-2.3699630">
        <ele>1104.2</ele>
        <time>2020-09-12T08:42:57Z</time>
      </trkpt>
      <trkpt lat="41.0246290" lon="-2.3699850">
        <ele>1104.2</ele>
        <time>2020-09-12T08:42:58Z</time>
      </trkpt>
      <trkpt lat="41.0246830" lon="-2.3700120">
        <ele>1104.4</ele>
        <time>2020-09-12T08:42:59Z</time>
      </trkpt>
      <trkpt lat="41.0247360" lon="-2.3700440">
        <ele>1104.4</ele>
        <time>2020-09-12T08:43:00Z</time>
      </trkpt>
      <trkpt lat="41.0247860" lon="-2.3700830">
        <ele>1104.4</ele>
        <time>2020-09-12T08:43:01Z</time>
      </trkpt>
      <trkpt lat="41.0248320" lon="-2.3701270">
        <ele>1104.4</ele>
        <time>2020-09-12T08:43:02Z</time>
      </trkpt>
      <trkpt lat="41.0248710" lon="-2.3701770">
        <ele>1104.2</ele>
        <time>2020-09-12T08:43:03Z</time>
      </trkpt>
      <trkpt lat="41.0249080" lon="-2.3702320">
        <ele>1104.2</ele>
        <time>2020-09-12T08:43:04Z</time>
      </trkpt>
      <trkpt lat="41.0249400" lon="-2.3702890">
        <ele>1104.0</ele>
        <time>2020-09-12T08:43:05Z</time>
      </trkpt>
      <trkpt lat="41.0249730" lon="-2.3703470">
        <ele>1104.0</ele>
        <time>2020-09-12T08:43:06Z</time>
      </trkpt>
      <trkpt lat="41.0250070" lon="-2.3704040">
        <ele>1104.0</ele>
        <time>2020-09-12T08:43:07Z</time>
      </trkpt>
      <trkpt lat="41.0250400" lon="-2.3704580">
        <ele>1104.0</ele>
        <time>2020-09-12T08:43:08Z</time>
      </trkpt>
      <trkpt lat="41.0250730" lon="-2.3705120">
        <ele>1104.2</ele>
        <time>2020-09-12T08:43:09Z</time>
      </trkpt>
      <trkpt lat="41.0251040" lon="-2.3705660">
        <ele>1104.4</ele>
        <time>2020-09-12T08:43:10Z</time>
      </trkpt>
      <trkpt lat="41.0251360" lon="-2.3706210">
        <ele>1104.4</ele>
        <time>2020-09-12T08:43:11Z</time>
      </trkpt>
      <trkpt lat="41.0251690" lon="-2.3706760">
        <ele>1104.6</ele>
        <time>2020-09-12T08:43:12Z</time>
      </trkpt>
      <trkpt lat="41.0252020" lon="-2.3707300">
        <ele>1104.8</ele>
        <time>2020-09-12T08:43:13Z</time>
      </trkpt>
      <trkpt lat="41.0252350" lon="-2.3707830">
        <ele>1105.0</ele>
        <time>2020-09-12T08:43:14Z</time>
      </trkpt>
      <trkpt lat="41.0252710" lon="-2.3708360">
        <ele>1105.2</ele>
        <time>2020-09-12T08:43:15Z</time>
      </trkpt>
      <trkpt lat="41.0253060" lon="-2.3708890">
        <ele>1105.4</ele>
        <time>2020-09-12T08:43:16Z</time>
      </trkpt>
      <trkpt lat="41.0253430" lon="-2.3709430">
        <ele>1105.4</ele>
        <time>2020-09-12T08:43:17Z</time>
      </trkpt>
      <trkpt lat="41.0253800" lon="-2.3709950">
        <ele>1105.6</ele>
        <time>2020-09-12T08:43:18Z</time>
      </trkpt>
      <trkpt lat="41.0254180" lon="-2.3710480">
        <ele>1105.8</ele>
        <time>2020-09-12T08:43:19Z</time>
      </trkpt>
      <trkpt lat="41.0254560" lon="-2.3711010">
        <ele>1105.8</ele>
        <time>2020-09-12T08:43:20Z</time>
      </trkpt>
      <trkpt lat="41.0254930" lon="-2.3711530">
        <ele>1105.8</ele>
        <time>2020-09-12T08:43:21Z</time>
      </trkpt>
      <trkpt lat="41.0255310" lon="-2.3712050">
        <ele>1105.6</ele>
        <time>2020-09-12T08:43:22Z</time>
      </trkpt>
      <trkpt lat="41.0255660" lon="-2.3712580">
        <ele>1105.6</ele>
        <time>2020-09-12T08:43:23Z</time>
      </trkpt>
      <trkpt lat="41.0256020" lon="-2.3713090">
        <ele>1105.8</ele>
        <time>2020-09-12T08:43:24Z</time>
      </trkpt>
      <trkpt lat="41.0256380" lon="-2.3713600">
        <ele>1105.8</ele>
        <time>2020-09-12T08:43:25Z</time>
      </trkpt>
      <trkpt lat="41.0256730" lon="-2.3714110">
        <ele>1106.0</ele>
        <time>2020-09-12T08:43:26Z</time>
      </trkpt>
      <trkpt lat="41.0257060" lon="-2.3714650">
        <ele>1106.2</ele>
        <time>2020-09-12T08:43:27Z</time>
      </trkpt>
      <trkpt lat="41.0257390" lon="-2.3715170">
        <ele>1106.4</ele>
        <time>2020-09-12T08:43:28Z</time>
      </trkpt>
      <trkpt lat="41.0257710" lon="-2.3715700">
        <ele>1106.6</ele>
        <time>2020-09-12T08:43:29Z</time>
      </trkpt>
      <trkpt lat="41.0258020" lon="-2.3716260">
        <ele>1106.8</ele>
        <time>2020-09-12T08:43:30Z</time>
      </trkpt>
      <trkpt lat="41.0258310" lon="-2.3716870">
        <ele>1106.8</ele>
        <time>2020-09-12T08:43:31Z</time>
      </trkpt>
      <trkpt lat="41.0258560" lon="-2.3717510">
        <ele>1106.8</ele>
        <time>2020-09-12T08:43:32Z</time>
      </trkpt>
      <trkpt lat="41.0258820" lon="-2.3718130">
        <ele>1106.8</ele>
        <time>2020-09-12T08:43:33Z</time>
      </trkpt>
      <trkpt lat="41.0259090" lon="-2.3718740">
        <ele>1107.0</ele>
        <time>2020-09-12T08:43:34Z</time>
      </trkpt>
      <trkpt lat="41.0259370" lon="-2.3719350">
        <ele>1107.0</ele>
        <time>2020-09-12T08:43:35Z</time>
      </trkpt>
      <trkpt lat="41.0259650" lon="-2.3719960">
        <ele>1107.0</ele>
        <time>2020-09-12T08:43:36Z</time>
      </trkpt>
      <trkpt lat="41.0259960" lon="-2.3720560">
        <ele>1107.2</ele>
        <time>2020-09-12T08:43:37Z</time>
      </trkpt>
      <trkpt lat="41.0260290" lon="-2.3721160">
        <ele>1107.4</ele>
        <time>2020-09-12T08:43:38Z</time>
      </trkpt>
      <trkpt lat="41.0260610" lon="-2.3721750">
        <ele>1107.6</ele>
        <time>2020-09-12T08:43:39Z</time>
      </trkpt>
      <trkpt lat="41.0260940" lon="-2.3722330">
        <ele>1107.8</ele>
        <time>2020-09-12T08:43:40Z</time>
      </trkpt>
      <trkpt lat="41.0261260" lon="-2.3722920">
        <ele>1108.0</ele>
        <time>2020-09-12T08:43:41Z</time>
      </trkpt>
      <trkpt lat="41.0261590" lon="-2.3723520">
        <ele>1108.2</ele>
        <time>2020-09-12T08:43:42Z</time>
      </trkpt>
      <trkpt lat="41.0261910" lon="-2.3724110">
        <ele>1108.2</ele>
        <time>2020-09-12T08:43:43Z</time>
      </trkpt>
      <trkpt lat="41.0262240" lon="-2.3724700">
        <ele>1108.2</ele>
        <time>2020-09-12T08:43:44Z</time>
      </trkpt>
      <trkpt lat="41.0262590" lon="-2.3725290">
        <ele>1108.4</ele>
        <time>2020-09-12T08:43:45Z</time>
      </trkpt>
      <trkpt lat="41.0262930" lon="-2.3725910">
        <ele>1108.4</ele>
        <time>2020-09-12T08:43:46Z</time>
      </trkpt>
      <trkpt lat="41.0263290" lon="-2.3726530">
        <ele>1108.4</ele>
        <time>2020-09-12T08:43:47Z</time>
      </trkpt>
      <trkpt lat="41.0263650" lon="-2.3727160">
        <ele>1108.2</ele>
        <time>2020-09-12T08:43:48Z</time>
      </trkpt>
      <trkpt lat="41.0264010" lon="-2.3727790">
        <ele>1108.2</ele>
        <time>2020-09-12T08:43:49Z</time>
      </trkpt>
      <trkpt lat="41.0264350" lon="-2.3728430">
        <ele>1108.2</ele>
        <time>2020-09-12T08:43:50Z</time>
      </trkpt>
      <trkpt lat="41.0264690" lon="-2.3729080">
        <ele>1108.2</ele>
        <time>2020-09-12T08:43:51Z</time>
      </trkpt>
      <trkpt lat="41.0265000" lon="-2.3729740">
        <ele>1108.2</ele>
        <time>2020-09-12T08:43:52Z</time>
      </trkpt>
      <trkpt lat="41.0265330" lon="-2.3730390">
        <ele>1108.2</ele>
        <time>2020-09-12T08:43:53Z</time>
      </trkpt>
      <trkpt lat="41.0265690" lon="-2.3731040">
        <ele>1108.2</ele>
        <time>2020-09-12T08:43:54Z</time>
      </trkpt>
      <trkpt lat="41.0266060" lon="-2.3731680">
        <ele>1108.2</ele>
        <time>2020-09-12T08:43:55Z</time>
      </trkpt>
      <trkpt lat="41.0266440" lon="-2.3732330">
        <ele>1108.2</ele>
        <time>2020-09-12T08:43:56Z</time>
      </trkpt>
      <trkpt lat="41.0266820" lon="-2.3732980">
        <ele>1108.2</ele>
        <time>2020-09-12T08:43:57Z</time>
      </trkpt>
      <trkpt lat="41.0267190" lon="-2.3733640">
        <ele>1108.0</ele>
        <time>2020-09-12T08:43:58Z</time>
      </trkpt>
      <trkpt lat="41.0267540" lon="-2.3734310">
        <ele>1108.0</ele>
        <time>2020-09-12T08:43:59Z</time>
      </trkpt>
      <trkpt lat="41.0267910" lon="-2.3734950">
        <ele>1107.8</ele>
        <time>2020-09-12T08:44:00Z</time>
      </trkpt>
      <trkpt lat="41.0268260" lon="-2.3735600">
        <ele>1107.8</ele>
        <time>2020-09-12T08:44:01Z</time>
      </trkpt>
      <trkpt lat="41.0268630" lon="-2.3736240">
        <ele>1107.8</ele>
        <time>2020-09-12T08:44:02Z</time>
      </trkpt>
      <trkpt lat="41.0269010" lon="-2.3736870">
        <ele>1107.8</ele>
        <time>2020-09-12T08:44:03Z</time>
      </trkpt>
      <trkpt lat="41.0269370" lon="-2.3737490">
        <ele>1107.8</ele>
        <time>2020-09-12T08:44:04Z</time>
      </trkpt>
      <trkpt lat="41.0269740" lon="-2.3738130">
        <ele>1107.8</ele>
        <time>2020-09-12T08:44:05Z</time>
      </trkpt>
      <trkpt lat="41.0270110" lon="-2.3738760">
        <ele>1107.8</ele>
        <time>2020-09-12T08:44:06Z</time>
      </trkpt>
      <trkpt lat="41.0270500" lon="-2.3739380">
        <ele>1107.8</ele>
        <time>2020-09-12T08:44:07Z</time>
      </trkpt>
      <trkpt lat="41.0270870" lon="-2.3740010">
        <ele>1107.8</ele>
        <time>2020-09-12T08:44:08Z</time>
      </trkpt>
      <trkpt lat="41.0271250" lon="-2.3740670">
        <ele>1107.6</ele>
        <time>2020-09-12T08:44:09Z</time>
      </trkpt>
      <trkpt lat="41.0271630" lon="-2.3741360">
        <ele>1107.6</ele>
        <time>2020-09-12T08:44:10Z</time>
      </trkpt>
      <trkpt lat="41.0272040" lon="-2.3742080">
        <ele>1107.6</ele>
        <time>2020-09-12T08:44:11Z</time>
      </trkpt>
      <trkpt lat="41.0272460" lon="-2.3742820">
        <ele>1107.6</ele>
        <time>2020-09-12T08:44:12Z</time>
      </trkpt>
      <trkpt lat="41.0272880" lon="-2.3743590">
        <ele>1107.6</ele>
        <time>2020-09-12T08:44:13Z</time>
      </trkpt>
      <trkpt lat="41.0273330" lon="-2.3744380">
        <ele>1107.6</ele>
        <time>2020-09-12T08:44:14Z</time>
      </trkpt>
      <trkpt lat="41.0273800" lon="-2.3745180">
        <ele>1107.6</ele>
        <time>2020-09-12T08:44:15Z</time>
      </trkpt>
      <trkpt lat="41.0274260" lon="-2.3746010">
        <ele>1107.6</ele>
        <time>2020-09-12T08:44:16Z</time>
      </trkpt>
      <trkpt lat="41.0274720" lon="-2.3746860">
        <ele>1107.6</ele>
        <time>2020-09-12T08:44:17Z</time>
      </trkpt>
      <trkpt lat="41.0275140" lon="-2.3747710">
        <ele>1107.6</ele>
        <time>2020-09-12T08:44:18Z</time>
      </trkpt>
      <trkpt lat="41.0275540" lon="-2.3748560">
        <ele>1107.6</ele>
        <time>2020-09-12T08:44:19Z</time>
      </trkpt>
      <trkpt lat="41.0275950" lon="-2.3749380">
        <ele>1107.6</ele>
        <time>2020-09-12T08:44:20Z</time>
      </trkpt>
      <trkpt lat="41.0276360" lon="-2.3750140">
        <ele>1107.8</ele>
        <time>2020-09-12T08:44:21Z</time>
      </trkpt>
      <trkpt lat="41.0276750" lon="-2.3750870">
        <ele>1107.8</ele>
        <time>2020-09-12T08:44:22Z</time>
      </trkpt>
      <trkpt lat="41.0277130" lon="-2.3751590">
        <ele>1108.0</ele>
        <time>2020-09-12T08:44:23Z</time>
      </trkpt>
      <trkpt lat="41.0277530" lon="-2.3752280">
        <ele>1108.0</ele>
        <time>2020-09-12T08:44:24Z</time>
      </trkpt>
      <trkpt lat="41.0278330" lon="-2.3753620">
        <ele>1108.2</ele>
        <time>2020-09-12T08:44:26Z</time>
      </trkpt>
      <trkpt lat="41.0278710" lon="-2.3754300">
        <ele>1108.4</ele>
        <time>2020-09-12T08:44:27Z</time>
      </trkpt>
      <trkpt lat="41.0279100" lon="-2.3754970">
        <ele>1108.6</ele>
        <time>2020-09-12T08:44:28Z</time>
      </trkpt>
      <trkpt lat="41.0279500" lon="-2.3755650">
        <ele>1108.6</ele>
        <time>2020-09-12T08:44:29Z</time>
      </trkpt>
      <trkpt lat="41.0279890" lon="-2.3756340">
        <ele>1108.6</ele>
        <time>2020-09-12T08:44:30Z</time>
      </trkpt>
      <trkpt lat="41.0280280" lon="-2.3757050">
        <ele>1108.8</ele>
        <time>2020-09-12T08:44:31Z</time>
      </trkpt>
      <trkpt lat="41.0280660" lon="-2.3757760">
        <ele>1108.8</ele>
        <time>2020-09-12T08:44:32Z</time>
      </trkpt>
      <trkpt lat="41.0281050" lon="-2.3758470">
        <ele>1108.8</ele>
        <time>2020-09-12T08:44:33Z</time>
      </trkpt>
      <trkpt lat="41.0281420" lon="-2.3759180">
        <ele>1108.8</ele>
        <time>2020-09-12T08:44:34Z</time>
      </trkpt>
      <trkpt lat="41.0281780" lon="-2.3759890">
        <ele>1108.8</ele>
        <time>2020-09-12T08:44:35Z</time>
      </trkpt>
      <trkpt lat="41.0282130" lon="-2.3760610">
        <ele>1108.8</ele>
        <time>2020-09-12T08:44:36Z</time>
      </trkpt>
      <trkpt lat="41.0282440" lon="-2.3761340">
        <ele>1108.8</ele>
        <time>2020-09-12T08:44:37Z</time>
      </trkpt>
      <trkpt lat="41.0282710" lon="-2.3762090">
        <ele>1109.0</ele>
        <time>2020-09-12T08:44:38Z</time>
      </trkpt>
      <trkpt lat="41.0282950" lon="-2.3762850">
        <ele>1109.2</ele>
        <time>2020-09-12T08:44:39Z</time>
      </trkpt>
      <trkpt lat="41.0283170" lon="-2.3763630">
        <ele>1109.6</ele>
        <time>2020-09-12T08:44:40Z</time>
      </trkpt>
      <trkpt lat="41.0283370" lon="-2.3764420">
        <ele>1109.6</ele>
        <time>2020-09-12T08:44:41Z</time>
      </trkpt>
      <trkpt lat="41.0283560" lon="-2.3765210">
        <ele>1109.8</ele>
        <time>2020-09-12T08:44:42Z</time>
      </trkpt>
      <trkpt lat="41.0283750" lon="-2.3765990">
        <ele>1109.8</ele>
        <time>2020-09-12T08:44:43Z</time>
      </trkpt>
      <trkpt lat="41.0283920" lon="-2.3766790">
        <ele>1110.0</ele>
        <time>2020-09-12T08:44:44Z</time>
      </trkpt>
      <trkpt lat="41.0284100" lon="-2.3767580">
        <ele>1110.0</ele>
        <time>2020-09-12T08:44:45Z</time>
      </trkpt>
      <trkpt lat="41.0284280" lon="-2.3768370">
        <ele>1110.0</ele>
        <time>2020-09-12T08:44:46Z</time>
      </trkpt>
      <trkpt lat="41.0284460" lon="-2.3769160">
        <ele>1110.2</ele>
        <time>2020-09-12T08:44:47Z</time>
      </trkpt>
      <trkpt lat="41.0284640" lon="-2.3769960">
        <ele>1110.2</ele>
        <time>2020-09-12T08:44:48Z</time>
      </trkpt>
      <trkpt lat="41.0284820" lon="-2.3770760">
        <ele>1110.4</ele>
        <time>2020-09-12T08:44:49Z</time>
      </trkpt>
      <trkpt lat="41.0284990" lon="-2.3771560">
        <ele>1110.6</ele>
        <time>2020-09-12T08:44:50Z</time>
      </trkpt>
      <trkpt lat="41.0285160" lon="-2.3772380">
        <ele>1110.8</ele>
        <time>2020-09-12T08:44:51Z</time>
      </trkpt>
      <trkpt lat="41.0285330" lon="-2.3773200">
        <ele>1110.8</ele>
        <time>2020-09-12T08:44:52Z</time>
      </trkpt>
      <trkpt lat="41.0285500" lon="-2.3774030">
        <ele>1110.8</ele>
        <time>2020-09-12T08:44:53Z</time>
      </trkpt>
      <trkpt lat="41.0285660" lon="-2.3774870">
        <ele>1110.8</ele>
        <time>2020-09-12T08:44:54Z</time>
      </trkpt>
      <trkpt lat="41.0285830" lon="-2.3775710">
        <ele>1110.8</ele>
        <time>2020-09-12T08:44:55Z</time>
      </trkpt>
      <trkpt lat="41.0286020" lon="-2.3776530">
        <ele>1110.8</ele>
        <time>2020-09-12T08:44:56Z</time>
      </trkpt>
      <trkpt lat="41.0286200" lon="-2.3777360">
        <ele>1110.8</ele>
        <time>2020-09-12T08:44:57Z</time>
      </trkpt>
      <trkpt lat="41.0286390" lon="-2.3778170">
        <ele>1110.8</ele>
        <time>2020-09-12T08:44:58Z</time>
      </trkpt>
      <trkpt lat="41.0286570" lon="-2.3778980">
        <ele>1110.8</ele>
        <time>2020-09-12T08:44:59Z</time>
      </trkpt>
      <trkpt lat="41.0286750" lon="-2.3779790">
        <ele>1111.0</ele>
        <time>2020-09-12T08:45:00Z</time>
      </trkpt>
      <trkpt lat="41.0286940" lon="-2.3780590">
        <ele>1111.0</ele>
        <time>2020-09-12T08:45:01Z</time>
      </trkpt>
      <trkpt lat="41.0287160" lon="-2.3781370">
        <ele>1111.2</ele>
        <time>2020-09-12T08:45:02Z</time>
      </trkpt>
      <trkpt lat="41.0287390" lon="-2.3782150">
        <ele>1111.2</ele>
        <time>2020-09-12T08:45:03Z</time>
      </trkpt>
      <trkpt lat="41.0287640" lon="-2.3782920">
        <ele>1111.2</ele>
        <time>2020-09-12T08:45:04Z</time>
      </trkpt>
      <trkpt lat="41.0287920" lon="-2.3783710">
        <ele>1111.2</ele>
        <time>2020-09-12T08:45:05Z</time>
      </trkpt>
      <trkpt lat="41.0288220" lon="-2.3784510">
        <ele>1111.2</ele>
        <time>2020-09-12T08:45:06Z</time>
      </trkpt>
      <trkpt lat="41.0288530" lon="-2.3785330">
        <ele>1111.2</ele>
        <time>2020-09-12T08:45:07Z</time>
      </trkpt>
      <trkpt lat="41.0288870" lon="-2.3786160">
        <ele>1111.0</ele>
        <time>2020-09-12T08:45:08Z</time>
      </trkpt>
      <trkpt lat="41.0289230" lon="-2.3787010">
        <ele>1110.8</ele>
        <time>2020-09-12T08:45:09Z</time>
      </trkpt>
      <trkpt lat="41.0289590" lon="-2.3787870">
        <ele>1110.6</ele>
        <time>2020-09-12T08:45:10Z</time>
      </trkpt>
      <trkpt lat="41.0289940" lon="-2.3788750">
        <ele>1110.4</ele>
        <time>2020-09-12T08:45:11Z</time>
      </trkpt>
      <trkpt lat="41.0290320" lon="-2.3789620">
        <ele>1110.0</ele>
        <time>2020-09-12T08:45:12Z</time>
      </trkpt>
      <trkpt lat="41.0290710" lon="-2.3790500">
        <ele>1109.8</ele>
        <time>2020-09-12T08:45:13Z</time>
      </trkpt>
      <trkpt lat="41.0291100" lon="-2.3791390">
        <ele>1109.6</ele>
        <time>2020-09-12T08:45:14Z</time>
      </trkpt>
      <trkpt lat="41.0291500" lon="-2.3792280">
        <ele>1109.6</ele>
        <time>2020-09-12T08:45:15Z</time>
      </trkpt>
      <trkpt lat="41.0291900" lon="-2.3793160">
        <ele>1109.2</ele>
        <time>2020-09-12T08:45:16Z</time>
      </trkpt>
      <trkpt lat="41.0292280" lon="-2.3794030">
        <ele>1109.0</ele>
        <time>2020-09-12T08:45:17Z</time>
      </trkpt>
      <trkpt lat="41.0292660" lon="-2.3794910">
        <ele>1109.0</ele>
        <time>2020-09-12T08:45:18Z</time>
      </trkpt>
      <trkpt lat="41.0293040" lon="-2.3795770">
        <ele>1108.8</ele>
        <time>2020-09-12T08:45:19Z</time>
      </trkpt>
      <trkpt lat="41.0293410" lon="-2.3796620">
        <ele>1108.8</ele>
        <time>2020-09-12T08:45:20Z</time>
      </trkpt>
      <trkpt lat="41.0293780" lon="-2.3797480">
        <ele>1108.6</ele>
        <time>2020-09-12T08:45:21Z</time>
      </trkpt>
      <trkpt lat="41.0294160" lon="-2.3798330">
        <ele>1108.6</ele>
        <time>2020-09-12T08:45:22Z</time>
      </trkpt>
      <trkpt lat="41.0294520" lon="-2.3799180">
        <ele>1108.4</ele>
        <time>2020-09-12T08:45:23Z</time>
      </trkpt>
      <trkpt lat="41.0294890" lon="-2.3800020">
        <ele>1108.4</ele>
        <time>2020-09-12T08:45:24Z</time>
      </trkpt>
      <trkpt lat="41.0295240" lon="-2.3800870">
        <ele>1108.4</ele>
        <time>2020-09-12T08:45:25Z</time>
      </trkpt>
      <trkpt lat="41.0295580" lon="-2.3801740">
        <ele>1108.4</ele>
        <time>2020-09-12T08:45:26Z</time>
      </trkpt>
      <trkpt lat="41.0295880" lon="-2.3802630">
        <ele>1108.4</ele>
        <time>2020-09-12T08:45:27Z</time>
      </trkpt>
      <trkpt lat="41.0296150" lon="-2.3803540">
        <ele>1108.2</ele>
        <time>2020-09-12T08:45:28Z</time>
      </trkpt>
      <trkpt lat="41.0296390" lon="-2.3804470">
        <ele>1108.2</ele>
        <time>2020-09-12T08:45:29Z</time>
      </trkpt>
      <trkpt lat="41.0296610" lon="-2.3805400">
        <ele>1108.0</ele>
        <time>2020-09-12T08:45:30Z</time>
      </trkpt>
      <trkpt lat="41.0296800" lon="-2.3806370">
        <ele>1108.0</ele>
        <time>2020-09-12T08:45:31Z</time>
      </trkpt>
      <trkpt lat="41.0296970" lon="-2.3807360">
        <ele>1107.8</ele>
        <time>2020-09-12T08:45:32Z</time>
      </trkpt>
      <trkpt lat="41.0297120" lon="-2.3808360">
        <ele>1107.6</ele>
        <time>2020-09-12T08:45:33Z</time>
      </trkpt>
      <trkpt lat="41.0297250" lon="-2.3809400">
        <ele>1107.2</ele>
        <time>2020-09-12T08:45:34Z</time>
      </trkpt>
      <trkpt lat="41.0297380" lon="-2.3810460">
        <ele>1107.0</ele>
        <time>2020-09-12T08:45:35Z</time>
      </trkpt>
      <trkpt lat="41.0297490" lon="-2.3811550">
        <ele>1106.6</ele>
        <time>2020-09-12T08:45:36Z</time>
      </trkpt>
      <trkpt lat="41.0297620" lon="-2.3812660">
        <ele>1106.6</ele>
        <time>2020-09-12T08:45:37Z</time>
      </trkpt>
      <trkpt lat="41.0297730" lon="-2.3813800">
        <ele>1106.4</ele>
        <time>2020-09-12T08:45:38Z</time>
      </trkpt>
      <trkpt lat="41.0297840" lon="-2.3814960">
        <ele>1106.2</ele>
        <time>2020-09-12T08:45:39Z</time>
      </trkpt>
      <trkpt lat="41.0297970" lon="-2.3816150">
        <ele>1105.8</ele>
        <time>2020-09-12T08:45:40Z</time>
      </trkpt>
      <trkpt lat="41.0298110" lon="-2.3817350">
        <ele>1105.4</ele>
        <time>2020-09-12T08:45:41Z</time>
      </trkpt>
      <trkpt lat="41.0298260" lon="-2.3818580">
        <ele>1105.0</ele>
        <time>2020-09-12T08:45:42Z</time>
      </trkpt>
      <trkpt lat="41.0298380" lon="-2.3819810">
        <ele>1104.6</ele>
        <time>2020-09-12T08:45:43Z</time>
      </trkpt>
      <trkpt lat="41.0298490" lon="-2.3821050">
        <ele>1104.2</ele>
        <time>2020-09-12T08:45:44Z</time>
      </trkpt>
      <trkpt lat="41.0298600" lon="-2.3822290">
        <ele>1104.0</ele>
        <time>2020-09-12T08:45:45Z</time>
      </trkpt>
      <trkpt lat="41.0298730" lon="-2.3823540">
        <ele>1103.8</ele>
        <time>2020-09-12T08:45:46Z</time>
      </trkpt>
      <trkpt lat="41.0298860" lon="-2.3824790">
        <ele>1103.4</ele>
        <time>2020-09-12T08:45:47Z</time>
      </trkpt>
      <trkpt lat="41.0298970" lon="-2.3826050">
        <ele>1103.0</ele>
        <time>2020-09-12T08:45:48Z</time>
      </trkpt>
      <trkpt lat="41.0299080" lon="-2.3827320">
        <ele>1102.6</ele>
        <time>2020-09-12T08:45:49Z</time>
      </trkpt>
      <trkpt lat="41.0299190" lon="-2.3828600">
        <ele>1102.2</ele>
        <time>2020-09-12T08:45:50Z</time>
      </trkpt>
      <trkpt lat="41.0299310" lon="-2.3829890">
        <ele>1101.8</ele>
        <time>2020-09-12T08:45:51Z</time>
      </trkpt>
      <trkpt lat="41.0299440" lon="-2.3831170">
        <ele>1101.4</ele>
        <time>2020-09-12T08:45:52Z</time>
      </trkpt>
      <trkpt lat="41.0299570" lon="-2.3832460">
        <ele>1101.0</ele>
        <time>2020-09-12T08:45:53Z</time>
      </trkpt>
      <trkpt lat="41.0299710" lon="-2.3833720">
        <ele>1100.8</ele>
        <time>2020-09-12T08:45:54Z</time>
      </trkpt>
      <trkpt lat="41.0299860" lon="-2.3834970">
        <ele>1100.4</ele>
        <time>2020-09-12T08:45:55Z</time>
      </trkpt>
      <trkpt lat="41.0299990" lon="-2.3836200">
        <ele>1099.8</ele>
        <time>2020-09-12T08:45:56Z</time>
      </trkpt>
      <trkpt lat="41.0300110" lon="-2.3837420">
        <ele>1099.4</ele>
        <time>2020-09-12T08:45:57Z</time>
      </trkpt>
      <trkpt lat="41.0300230" lon="-2.3838630">
        <ele>1099.2</ele>
        <time>2020-09-12T08:45:58Z</time>
      </trkpt>
      <trkpt lat="41.0300370" lon="-2.3839830">
        <ele>1099.0</ele>
        <time>2020-09-12T08:45:59Z</time>
      </trkpt>
      <trkpt lat="41.0300510" lon="-2.3841010">
        <ele>1099.0</ele>
        <time>2020-09-12T08:46:00Z</time>
      </trkpt>
      <trkpt lat="41.0300650" lon="-2.3842200">
        <ele>1098.8</ele>
        <time>2020-09-12T08:46:01Z</time>
      </trkpt>
      <trkpt lat="41.0300780" lon="-2.3843360">
        <ele>1098.8</ele>
        <time>2020-09-12T08:46:02Z</time>
      </trkpt>
      <trkpt lat="41.0300890" lon="-2.3844530">
        <ele>1098.6</ele>
        <time>2020-09-12T08:46:03Z</time>
      </trkpt>
      <trkpt lat="41.0301010" lon="-2.3845680">
        <ele>1098.4</ele>
        <time>2020-09-12T08:46:04Z</time>
      </trkpt>
      <trkpt lat="41.0301130" lon="-2.3846840">
        <ele>1098.0</ele>
        <time>2020-09-12T08:46:05Z</time>
      </trkpt>
      <trkpt lat="41.0301260" lon="-2.3847990">
        <ele>1097.8</ele>
        <time>2020-09-12T08:46:06Z</time>
      </trkpt>
      <trkpt lat="41.0301390" lon="-2.3849140">
        <ele>1097.6</ele>
        <time>2020-09-12T08:46:07Z</time>
      </trkpt>
      <trkpt lat="41.0301510" lon="-2.3850300">
        <ele>1097.4</ele>
        <time>2020-09-12T08:46:08Z</time>
      </trkpt>
      <trkpt lat="41.0301640" lon="-2.3851460">
        <ele>1097.2</ele>
        <time>2020-09-12T08:46:09Z</time>
      </trkpt>
      <trkpt lat="41.0301770" lon="-2.3852640">
        <ele>1097.2</ele>
        <time>2020-09-12T08:46:10Z</time>
      </trkpt>
      <trkpt lat="41.0301890" lon="-2.3853800">
        <ele>1097.2</ele>
        <time>2020-09-12T08:46:11Z</time>
      </trkpt>
      <trkpt lat="41.0302020" lon="-2.3854950">
        <ele>1097.0</ele>
        <time>2020-09-12T08:46:12Z</time>
      </trkpt>
      <trkpt lat="41.0302150" lon="-2.3856100">
        <ele>1097.0</ele>
        <time>2020-09-12T08:46:13Z</time>
      </trkpt>
      <trkpt lat="41.0302280" lon="-2.3857250">
        <ele>1096.8</ele>
        <time>2020-09-12T08:46:14Z</time>
      </trkpt>
      <trkpt lat="41.0302400" lon="-2.3858410">
        <ele>1096.8</ele>
        <time>2020-09-12T08:46:15Z</time>
      </trkpt>
      <trkpt lat="41.0302540" lon="-2.3859560">
        <ele>1096.8</ele>
        <time>2020-09-12T08:46:16Z</time>
      </trkpt>
      <trkpt lat="41.0302690" lon="-2.3860690">
        <ele>1096.6</ele>
        <time>2020-09-12T08:46:17Z</time>
      </trkpt>
      <trkpt lat="41.0302850" lon="-2.3861820">
        <ele>1096.6</ele>
        <time>2020-09-12T08:46:18Z</time>
      </trkpt>
      <trkpt lat="41.0303030" lon="-2.3862950">
        <ele>1096.4</ele>
        <time>2020-09-12T08:46:19Z</time>
      </trkpt>
      <trkpt lat="41.0303230" lon="-2.3864070">
        <ele>1096.4</ele>
        <time>2020-09-12T08:46:20Z</time>
      </trkpt>
      <trkpt lat="41.0303460" lon="-2.3865170">
        <ele>1096.4</ele>
        <time>2020-09-12T08:46:21Z</time>
      </trkpt>
      <trkpt lat="41.0303720" lon="-2.3866230">
        <ele>1096.2</ele>
        <time>2020-09-12T08:46:22Z</time>
      </trkpt>
      <trkpt lat="41.0304030" lon="-2.3867250">
        <ele>1096.0</ele>
        <time>2020-09-12T08:46:23Z</time>
      </trkpt>
      <trkpt lat="41.0304370" lon="-2.3868250">
        <ele>1096.0</ele>
        <time>2020-09-12T08:46:24Z</time>
      </trkpt>
      <trkpt lat="41.0304710" lon="-2.3869250">
        <ele>1096.2</ele>
        <time>2020-09-12T08:46:25Z</time>
      </trkpt>
      <trkpt lat="41.0305050" lon="-2.3870240">
        <ele>1096.2</ele>
        <time>2020-09-12T08:46:26Z</time>
      </trkpt>
      <trkpt lat="41.0305400" lon="-2.3871240">
        <ele>1096.2</ele>
        <time>2020-09-12T08:46:27Z</time>
      </trkpt>
      <trkpt lat="41.0305740" lon="-2.3872230">
        <ele>1096.2</ele>
        <time>2020-09-12T08:46:28Z</time>
      </trkpt>
      <trkpt lat="41.0306090" lon="-2.3873210">
        <ele>1096.2</ele>
        <time>2020-09-12T08:46:29Z</time>
      </trkpt>
      <trkpt lat="41.0306400" lon="-2.3874180">
        <ele>1096.4</ele>
        <time>2020-09-12T08:46:30Z</time>
      </trkpt>
      <trkpt lat="41.0306690" lon="-2.3875150">
        <ele>1096.2</ele>
        <time>2020-09-12T08:46:31Z</time>
      </trkpt>
      <trkpt lat="41.0306970" lon="-2.3876130">
        <ele>1096.2</ele>
        <time>2020-09-12T08:46:32Z</time>
      </trkpt>
      <trkpt lat="41.0307240" lon="-2.3877090">
        <ele>1096.2</ele>
        <time>2020-09-12T08:46:33Z</time>
      </trkpt>
      <trkpt lat="41.0307510" lon="-2.3878030">
        <ele>1096.2</ele>
        <time>2020-09-12T08:46:34Z</time>
      </trkpt>
      <trkpt lat="41.0307770" lon="-2.3878960">
        <ele>1096.2</ele>
        <time>2020-09-12T08:46:35Z</time>
      </trkpt>
      <trkpt lat="41.0308020" lon="-2.3879880">
        <ele>1096.2</ele>
        <time>2020-09-12T08:46:36Z</time>
      </trkpt>
      <trkpt lat="41.0308250" lon="-2.3880780">
        <ele>1096.4</ele>
        <time>2020-09-12T08:46:37Z</time>
      </trkpt>
      <trkpt lat="41.0308460" lon="-2.3881670">
        <ele>1096.4</ele>
        <time>2020-09-12T08:46:38Z</time>
      </trkpt>
      <trkpt lat="41.0308660" lon="-2.3882530">
        <ele>1096.6</ele>
        <time>2020-09-12T08:46:39Z</time>
      </trkpt>
      <trkpt lat="41.0308870" lon="-2.3883360">
        <ele>1096.8</ele>
        <time>2020-09-12T08:46:40Z</time>
      </trkpt>
      <trkpt lat="41.0309090" lon="-2.3884140">
        <ele>1096.8</ele>
        <time>2020-09-12T08:46:41Z</time>
      </trkpt>
      <trkpt lat="41.0309330" lon="-2.3884900">
        <ele>1097.0</ele>
        <time>2020-09-12T08:46:42Z</time>
      </trkpt>
      <trkpt lat="41.0309550" lon="-2.3885630">
        <ele>1097.0</ele>
        <time>2020-09-12T08:46:43Z</time>
      </trkpt>
      <trkpt lat="41.0309760" lon="-2.3886350">
        <ele>1097.2</ele>
        <time>2020-09-12T08:46:44Z</time>
      </trkpt>
      <trkpt lat="41.0309950" lon="-2.3887070">
        <ele>1097.6</ele>
        <time>2020-09-12T08:46:45Z</time>
      </trkpt>
      <trkpt lat="41.0310150" lon="-2.3887760">
        <ele>1098.0</ele>
        <time>2020-09-12T08:46:46Z</time>
      </trkpt>
      <trkpt lat="41.0310330" lon="-2.3888420">
        <ele>1098.2</ele>
        <time>2020-09-12T08:46:47Z</time>
      </trkpt>
      <trkpt lat="41.0310500" lon="-2.3889080">
        <ele>1098.4</ele>
        <time>2020-09-12T08:46:48Z</time>
      </trkpt>
      <trkpt lat="41.0310660" lon="-2.3889720">
        <ele>1098.6</ele>
        <time>2020-09-12T08:46:49Z</time>
      </trkpt>
      <trkpt lat="41.0310790" lon="-2.3890340">
        <ele>1098.6</ele>
        <time>2020-09-12T08:46:50Z</time>
      </trkpt>
      <trkpt lat="41.0310920" lon="-2.3890940">
        <ele>1099.0</ele>
        <time>2020-09-12T08:46:51Z</time>
      </trkpt>
      <trkpt lat="41.0311080" lon="-2.3891530">
        <ele>1099.4</ele>
        <time>2020-09-12T08:46:52Z</time>
      </trkpt>
      <trkpt lat="41.0311260" lon="-2.3892130">
        <ele>1099.6</ele>
        <time>2020-09-12T08:46:53Z</time>
      </trkpt>
      <trkpt lat="41.0311440" lon="-2.3892730">
        <ele>1099.8</ele>
        <time>2020-09-12T08:46:54Z</time>
      </trkpt>
      <trkpt lat="41.0311600" lon="-2.3893320">
        <ele>1100.0</ele>
        <time>2020-09-12T08:46:55Z</time>
      </trkpt>
      <trkpt lat="41.0311740" lon="-2.3893910">
        <ele>1100.2</ele>
        <time>2020-09-12T08:46:56Z</time>
      </trkpt>
      <trkpt lat="41.0311920" lon="-2.3894510">
        <ele>1100.4</ele>
        <time>2020-09-12T08:46:57Z</time>
      </trkpt>
      <trkpt lat="41.0312100" lon="-2.3895070">
        <ele>1100.6</ele>
        <time>2020-09-12T08:46:58Z</time>
      </trkpt>
      <trkpt lat="41.0312280" lon="-2.3895650">
        <ele>1100.8</ele>
        <time>2020-09-12T08:46:59Z</time>
      </trkpt>
      <trkpt lat="41.0312450" lon="-2.3896240">
        <ele>1101.0</ele>
        <time>2020-09-12T08:47:00Z</time>
      </trkpt>
      <trkpt lat="41.0312630" lon="-2.3896810">
        <ele>1101.2</ele>
        <time>2020-09-12T08:47:01Z</time>
      </trkpt>
      <trkpt lat="41.0312840" lon="-2.3897360">
        <ele>1101.6</ele>
        <time>2020-09-12T08:47:02Z</time>
      </trkpt>
      <trkpt lat="41.0313090" lon="-2.3897900">
        <ele>1102.0</ele>
        <time>2020-09-12T08:47:03Z</time>
      </trkpt>
      <trkpt lat="41.0313350" lon="-2.3898440">
        <ele>1102.2</ele>
        <time>2020-09-12T08:47:04Z</time>
      </trkpt>
      <trkpt lat="41.0313620" lon="-2.3898970">
        <ele>1102.6</ele>
        <time>2020-09-12T08:47:05Z</time>
      </trkpt>
      <trkpt lat="41.0313890" lon="-2.3899530">
        <ele>1102.8</ele>
        <time>2020-09-12T08:47:06Z</time>
      </trkpt>
      <trkpt lat="41.0314160" lon="-2.3900100">
        <ele>1103.0</ele>
        <time>2020-09-12T08:47:07Z</time>
      </trkpt>
      <trkpt lat="41.0314420" lon="-2.3900660">
        <ele>1103.2</ele>
        <time>2020-09-12T08:47:08Z</time>
      </trkpt>
      <trkpt lat="41.0314680" lon="-2.3901200">
        <ele>1103.6</ele>
        <time>2020-09-12T08:47:09Z</time>
      </trkpt>
      <trkpt lat="41.0314940" lon="-2.3901720">
        <ele>1104.0</ele>
        <time>2020-09-12T08:47:10Z</time>
      </trkpt>
      <trkpt lat="41.0315200" lon="-2.3902250">
        <ele>1104.4</ele>
        <time>2020-09-12T08:47:11Z</time>
      </trkpt>
      <trkpt lat="41.0315450" lon="-2.3902770">
        <ele>1104.8</ele>
        <time>2020-09-12T08:47:12Z</time>
      </trkpt>
      <trkpt lat="41.0315700" lon="-2.3903310">
        <ele>1105.2</ele>
        <time>2020-09-12T08:47:13Z</time>
      </trkpt>
      <trkpt lat="41.0315950" lon="-2.3903860">
        <ele>1105.4</ele>
        <time>2020-09-12T08:47:14Z</time>
      </trkpt>
      <trkpt lat="41.0316220" lon="-2.3904380">
        <ele>1105.8</ele>
        <time>2020-09-12T08:47:15Z</time>
      </trkpt>
      <trkpt lat="41.0316490" lon="-2.3904910">
        <ele>1106.0</ele>
        <time>2020-09-12T08:47:16Z</time>
      </trkpt>
      <trkpt lat="41.0316750" lon="-2.3905440">
        <ele>1106.2</ele>
        <time>2020-09-12T08:47:17Z</time>
      </trkpt>
      <trkpt lat="41.0317010" lon="-2.3905970">
        <ele>1106.2</ele>
        <time>2020-09-12T08:47:18Z</time>
      </trkpt>
      <trkpt lat="41.0317260" lon="-2.3906510">
        <ele>1106.4</ele>
        <time>2020-09-12T08:47:19Z</time>
      </trkpt>
      <trkpt lat="41.0317520" lon="-2.3907060">
        <ele>1106.4</ele>
        <time>2020-09-12T08:47:20Z</time>
      </trkpt>
      <trkpt lat="41.0317790" lon="-2.3907610">
        <ele>1106.4</ele>
        <time>2020-09-12T08:47:21Z</time>
      </trkpt>
      <trkpt lat="41.0318060" lon="-2.3908180">
        <ele>1106.4</ele>
        <time>2020-09-12T08:47:22Z</time>
      </trkpt>
      <trkpt lat="41.0318340" lon="-2.3908760">
        <ele>1106.6</ele>
        <time>2020-09-12T08:47:23Z</time>
      </trkpt>
      <trkpt lat="41.0318640" lon="-2.3909330">
        <ele>1106.6</ele>
        <time>2020-09-12T08:47:24Z</time>
      </trkpt>
      <trkpt lat="41.0318940" lon="-2.3909920">
        <ele>1106.8</ele>
        <time>2020-09-12T08:47:25Z</time>
      </trkpt>
      <trkpt lat="41.0319240" lon="-2.3910530">
        <ele>1107.0</ele>
        <time>2020-09-12T08:47:26Z</time>
      </trkpt>
      <trkpt lat="41.0319540" lon="-2.3911140">
        <ele>1107.2</ele>
        <time>2020-09-12T08:47:27Z</time>
      </trkpt>
      <trkpt lat="41.0319850" lon="-2.3911760">
        <ele>1107.4</ele>
        <time>2020-09-12T08:47:28Z</time>
      </trkpt>
      <trkpt lat="41.0320170" lon="-2.3912380">
        <ele>1107.4</ele>
        <time>2020-09-12T08:47:29Z</time>
      </trkpt>
      <trkpt lat="41.0320500" lon="-2.3913000">
        <ele>1107.2</ele>
        <time>2020-09-12T08:47:30Z</time>
      </trkpt>
      <trkpt lat="41.0320860" lon="-2.3913610">
        <ele>1107.0</ele>
        <time>2020-09-12T08:47:31Z</time>
      </trkpt>
      <trkpt lat="41.0321240" lon="-2.3914240">
        <ele>1107.0</ele>
        <time>2020-09-12T08:47:32Z</time>
      </trkpt>
      <trkpt lat="41.0321640" lon="-2.3914870">
        <ele>1107.0</ele>
        <time>2020-09-12T08:47:33Z</time>
      </trkpt>
      <trkpt lat="41.0322040" lon="-2.3915530">
        <ele>1106.8</ele>
        <time>2020-09-12T08:47:34Z</time>
      </trkpt>
      <trkpt lat="41.0322460" lon="-2.3916200">
        <ele>1106.8</ele>
        <time>2020-09-12T08:47:35Z</time>
      </trkpt>
      <trkpt lat="41.0322880" lon="-2.3916900">
        <ele>1106.8</ele>
        <time>2020-09-12T08:47:36Z</time>
      </trkpt>
      <trkpt lat="41.0323320" lon="-2.3917610">
        <ele>1106.8</ele>
        <time>2020-09-12T08:47:37Z</time>
      </trkpt>
      <trkpt lat="41.0323770" lon="-2.3918340">
        <ele>1106.6</ele>
        <time>2020-09-12T08:47:38Z</time>
      </trkpt>
      <trkpt lat="41.0324210" lon="-2.3919070">
        <ele>1106.4</ele>
        <time>2020-09-12T08:47:39Z</time>
      </trkpt>
      <trkpt lat="41.0324630" lon="-2.3919850">
        <ele>1106.0</ele>
        <time>2020-09-12T08:47:40Z</time>
      </trkpt>
      <trkpt lat="41.0325030" lon="-2.3920670">
        <ele>1106.0</ele>
        <time>2020-09-12T08:47:41Z</time>
      </trkpt>
      <trkpt lat="41.0325410" lon="-2.3921520">
        <ele>1105.6</ele>
        <time>2020-09-12T08:47:42Z</time>
      </trkpt>
      <trkpt lat="41.0325770" lon="-2.3922380">
        <ele>1105.2</ele>
        <time>2020-09-12T08:47:43Z</time>
      </trkpt>
      <trkpt lat="41.0326100" lon="-2.3923280">
        <ele>1104.8</ele>
        <time>2020-09-12T08:47:44Z</time>
      </trkpt>
      <trkpt lat="41.0326390" lon="-2.3924190">
        <ele>1104.8</ele>
        <time>2020-09-12T08:47:45Z</time>
      </trkpt>
      <trkpt lat="41.0326690" lon="-2.3925090">
        <ele>1104.6</ele>
        <time>2020-09-12T08:47:46Z</time>
      </trkpt>
      <trkpt lat="41.0326990" lon="-2.3925980">
        <ele>1104.6</ele>
        <time>2020-09-12T08:47:47Z</time>
      </trkpt>
      <trkpt lat="41.0327270" lon="-2.3926870">
        <ele>1104.4</ele>
        <time>2020-09-12T08:47:48Z</time>
      </trkpt>
      <trkpt lat="41.0327530" lon="-2.3927740">
        <ele>1104.4</ele>
        <time>2020-09-12T08:47:49Z</time>
      </trkpt>
      <trkpt lat="41.0327790" lon="-2.3928590">
        <ele>1104.4</ele>
        <time>2020-09-12T08:47:50Z</time>
      </trkpt>
      <trkpt lat="41.0328050" lon="-2.3929430">
        <ele>1104.6</ele>
        <time>2020-09-12T08:47:51Z</time>
      </trkpt>
      <trkpt lat="41.0328300" lon="-2.3930250">
        <ele>1104.6</ele>
        <time>2020-09-12T08:47:52Z</time>
      </trkpt>
      <trkpt lat="41.0328540" lon="-2.3931050">
        <ele>1104.8</ele>
        <time>2020-09-12T08:47:53Z</time>
      </trkpt>
      <trkpt lat="41.0328790" lon="-2.3931840">
        <ele>1104.6</ele>
        <time>2020-09-12T08:47:54Z</time>
      </trkpt>
      <trkpt lat="41.0329040" lon="-2.3932620">
        <ele>1104.8</ele>
        <time>2020-09-12T08:47:55Z</time>
      </trkpt>
      <trkpt lat="41.0329290" lon="-2.3933400">
        <ele>1104.8</ele>
        <time>2020-09-12T08:47:56Z</time>
      </trkpt>
      <trkpt lat="41.0329550" lon="-2.3934170">
        <ele>1104.8</ele>
        <time>2020-09-12T08:47:57Z</time>
      </trkpt>
      <trkpt lat="41.0329820" lon="-2.3934940">
        <ele>1105.0</ele>
        <time>2020-09-12T08:47:58Z</time>
      </trkpt>
      <trkpt lat="41.0330110" lon="-2.3935680">
        <ele>1105.0</ele>
        <time>2020-09-12T08:47:59Z</time>
      </trkpt>
      <trkpt lat="41.0330410" lon="-2.3936440">
        <ele>1105.0</ele>
        <time>2020-09-12T08:48:00Z</time>
      </trkpt>
      <trkpt lat="41.0330720" lon="-2.3937190">
        <ele>1105.0</ele>
        <time>2020-09-12T08:48:01Z</time>
      </trkpt>
      <trkpt lat="41.0331060" lon="-2.3937950">
        <ele>1105.0</ele>
        <time>2020-09-12T08:48:02Z</time>
      </trkpt>
      <trkpt lat="41.0331410" lon="-2.3938700">
        <ele>1105.0</ele>
        <time>2020-09-12T08:48:03Z</time>
      </trkpt>
      <trkpt lat="41.0331800" lon="-2.3939450">
        <ele>1105.0</ele>
        <time>2020-09-12T08:48:04Z</time>
      </trkpt>
      <trkpt lat="41.0332210" lon="-2.3940200">
        <ele>1105.0</ele>
        <time>2020-09-12T08:48:05Z</time>
      </trkpt>
      <trkpt lat="41.0332630" lon="-2.3940970">
        <ele>1105.0</ele>
        <time>2020-09-12T08:48:06Z</time>
      </trkpt>
      <trkpt lat="41.0333060" lon="-2.3941730">
        <ele>1105.0</ele>
        <time>2020-09-12T08:48:07Z</time>
      </trkpt>
      <trkpt lat="41.0333490" lon="-2.3942490">
        <ele>1104.8</ele>
        <time>2020-09-12T08:48:08Z</time>
      </trkpt>
      <trkpt lat="41.0333930" lon="-2.3943260">
        <ele>1104.6</ele>
        <time>2020-09-12T08:48:09Z</time>
      </trkpt>
      <trkpt lat="41.0334380" lon="-2.3944020">
        <ele>1104.6</ele>
        <time>2020-09-12T08:48:10Z</time>
      </trkpt>
      <trkpt lat="41.0334820" lon="-2.3944790">
        <ele>1104.4</ele>
        <time>2020-09-12T08:48:11Z</time>
      </trkpt>
      <trkpt lat="41.0335270" lon="-2.3945560">
        <ele>1104.4</ele>
        <time>2020-09-12T08:48:12Z</time>
      </trkpt>
      <trkpt lat="41.0335710" lon="-2.3946330">
        <ele>1104.2</ele>
        <time>2020-09-12T08:48:13Z</time>
      </trkpt>
      <trkpt lat="41.0336150" lon="-2.3947110">
        <ele>1104.2</ele>
        <time>2020-09-12T08:48:14Z</time>
      </trkpt>
      <trkpt lat="41.0336580" lon="-2.3947900">
        <ele>1104.0</ele>
        <time>2020-09-12T08:48:15Z</time>
      </trkpt>
      <trkpt lat="41.0337030" lon="-2.3948680">
        <ele>1104.0</ele>
        <time>2020-09-12T08:48:16Z</time>
      </trkpt>
      <trkpt lat="41.0337480" lon="-2.3949470">
        <ele>1103.8</ele>
        <time>2020-09-12T08:48:17Z</time>
      </trkpt>
      <trkpt lat="41.0337930" lon="-2.3950250">
        <ele>1103.6</ele>
        <time>2020-09-12T08:48:18Z</time>
      </trkpt>
      <trkpt lat="41.0338390" lon="-2.3951020">
        <ele>1103.4</ele>
        <time>2020-09-12T08:48:19Z</time>
      </trkpt>
      <trkpt lat="41.0338850" lon="-2.3951780">
        <ele>1103.2</ele>
        <time>2020-09-12T08:48:20Z</time>
      </trkpt>
      <trkpt lat="41.0339310" lon="-2.3952540">
        <ele>1103.0</ele>
        <time>2020-09-12T08:48:21Z</time>
      </trkpt>
      <trkpt lat="41.0339740" lon="-2.3953310">
        <ele>1103.0</ele>
        <time>2020-09-12T08:48:22Z</time>
      </trkpt>
      <trkpt lat="41.0340170" lon="-2.3954060">
        <ele>1103.0</ele>
        <time>2020-09-12T08:48:23Z</time>
      </trkpt>
      <trkpt lat="41.0340590" lon="-2.3954810">
        <ele>1103.0</ele>
        <time>2020-09-12T08:48:24Z</time>
      </trkpt>
      <trkpt lat="41.0341000" lon="-2.3955560">
        <ele>1103.0</ele>
        <time>2020-09-12T08:48:25Z</time>
      </trkpt>
      <trkpt lat="41.0341410" lon="-2.3956300">
        <ele>1103.0</ele>
        <time>2020-09-12T08:48:26Z</time>
      </trkpt>
      <trkpt lat="41.0341820" lon="-2.3957050">
        <ele>1103.0</ele>
        <time>2020-09-12T08:48:27Z</time>
      </trkpt>
      <trkpt lat="41.0342220" lon="-2.3957790">
        <ele>1103.2</ele>
        <time>2020-09-12T08:48:28Z</time>
      </trkpt>
      <trkpt lat="41.0342630" lon="-2.3958520">
        <ele>1103.2</ele>
        <time>2020-09-12T08:48:29Z</time>
      </trkpt>
      <trkpt lat="41.0343040" lon="-2.3959250">
        <ele>1103.4</ele>
        <time>2020-09-12T08:48:30Z</time>
      </trkpt>
      <trkpt lat="41.0343440" lon="-2.3959990">
        <ele>1103.6</ele>
        <time>2020-09-12T08:48:31Z</time>
      </trkpt>
      <trkpt lat="41.0343840" lon="-2.3960740">
        <ele>1103.4</ele>
        <time>2020-09-12T08:48:32Z</time>
      </trkpt>
      <trkpt lat="41.0344250" lon="-2.3961490">
        <ele>1103.4</ele>
        <time>2020-09-12T08:48:33Z</time>
      </trkpt>
      <trkpt lat="41.0344660" lon="-2.3962260">
        <ele>1103.4</ele>
        <time>2020-09-12T08:48:34Z</time>
      </trkpt>
      <trkpt lat="41.0345070" lon="-2.3963020">
        <ele>1103.2</ele>
        <time>2020-09-12T08:48:35Z</time>
      </trkpt>
      <trkpt lat="41.0345460" lon="-2.3963800">
        <ele>1103.4</ele>
        <time>2020-09-12T08:48:36Z</time>
      </trkpt>
      <trkpt lat="41.0345870" lon="-2.3964570">
        <ele>1103.4</ele>
        <time>2020-09-12T08:48:37Z</time>
      </trkpt>
      <trkpt lat="41.0346280" lon="-2.3965350">
        <ele>1103.6</ele>
        <time>2020-09-12T08:48:38Z</time>
      </trkpt>
      <trkpt lat="41.0346690" lon="-2.3966130">
        <ele>1103.8</ele>
        <time>2020-09-12T08:48:39Z</time>
      </trkpt>
      <trkpt lat="41.0347120" lon="-2.3966890">
        <ele>1104.0</ele>
        <time>2020-09-12T08:48:40Z</time>
      </trkpt>
      <trkpt lat="41.0347560" lon="-2.3967640">
        <ele>1104.0</ele>
        <time>2020-09-12T08:48:41Z</time>
      </trkpt>
      <trkpt lat="41.0347980" lon="-2.3968400">
        <ele>1104.2</ele>
        <time>2020-09-12T08:48:42Z</time>
      </trkpt>
      <trkpt lat="41.0348400" lon="-2.3969130">
        <ele>1104.2</ele>
        <time>2020-09-12T08:48:43Z</time>
      </trkpt>
      <trkpt lat="41.0348820" lon="-2.3969880">
        <ele>1104.4</ele>
        <time>2020-09-12T08:48:44Z</time>
      </trkpt>
      <trkpt lat="41.0349230" lon="-2.3970620">
        <ele>1104.4</ele>
        <time>2020-09-12T08:48:45Z</time>
      </trkpt>
      <trkpt lat="41.0349600" lon="-2.3971380">
        <ele>1104.4</ele>
        <time>2020-09-12T08:48:46Z</time>
      </trkpt>
      <trkpt lat="41.0350010" lon="-2.3972150">
        <ele>1104.4</ele>
        <time>2020-09-12T08:48:47Z</time>
      </trkpt>
      <trkpt lat="41.0350420" lon="-2.3972910">
        <ele>1104.4</ele>
        <time>2020-09-12T08:48:48Z</time>
      </trkpt>
      <trkpt lat="41.0350830" lon="-2.3973670">
        <ele>1104.6</ele>
        <time>2020-09-12T08:48:49Z</time>
      </trkpt>
      <trkpt lat="41.0351230" lon="-2.3974420">
        <ele>1104.4</ele>
        <time>2020-09-12T08:48:50Z</time>
      </trkpt>
      <trkpt lat="41.0351630" lon="-2.3975170">
        <ele>1104.4</ele>
        <time>2020-09-12T08:48:51Z</time>
      </trkpt>
      <trkpt lat="41.0352030" lon="-2.3975920">
        <ele>1104.4</ele>
        <time>2020-09-12T08:48:52Z</time>
      </trkpt>
      <trkpt lat="41.0352420" lon="-2.3976660">
        <ele>1104.6</ele>
        <time>2020-09-12T08:48:53Z</time>
      </trkpt>
      <trkpt lat="41.0352800" lon="-2.3977400">
        <ele>1104.6</ele>
        <time>2020-09-12T08:48:54Z</time>
      </trkpt>
      <trkpt lat="41.0353190" lon="-2.3978130">
        <ele>1104.6</ele>
        <time>2020-09-12T08:48:55Z</time>
      </trkpt>
      <trkpt lat="41.0353580" lon="-2.3978860">
        <ele>1104.6</ele>
        <time>2020-09-12T08:48:56Z</time>
      </trkpt>
      <trkpt lat="41.0353970" lon="-2.3979590">
        <ele>1104.8</ele>
        <time>2020-09-12T08:48:57Z</time>
      </trkpt>
      <trkpt lat="41.0354360" lon="-2.3980330">
        <ele>1104.8</ele>
        <time>2020-09-12T08:48:58Z</time>
      </trkpt>
      <trkpt lat="41.0354730" lon="-2.3981070">
        <ele>1104.8</ele>
        <time>2020-09-12T08:48:59Z</time>
      </trkpt>
      <trkpt lat="41.0355080" lon="-2.3981810">
        <ele>1104.8</ele>
        <time>2020-09-12T08:49:00Z</time>
      </trkpt>
      <trkpt lat="41.0355440" lon="-2.3982520">
        <ele>1104.8</ele>
        <time>2020-09-12T08:49:01Z</time>
      </trkpt>
      <trkpt lat="41.0355820" lon="-2.3983200">
        <ele>1104.8</ele>
        <time>2020-09-12T08:49:02Z</time>
      </trkpt>
      <trkpt lat="41.0356190" lon="-2.3983860">
        <ele>1104.8</ele>
        <time>2020-09-12T08:49:03Z</time>
      </trkpt>
      <trkpt lat="41.0356540" lon="-2.3984520">
        <ele>1105.0</ele>
        <time>2020-09-12T08:49:04Z</time>
      </trkpt>
      <trkpt lat="41.0356900" lon="-2.3985170">
        <ele>1105.2</ele>
        <time>2020-09-12T08:49:05Z</time>
      </trkpt>
      <trkpt lat="41.0357260" lon="-2.3985790">
        <ele>1105.4</ele>
        <time>2020-09-12T08:49:06Z</time>
      </trkpt>
      <trkpt lat="41.0357600" lon="-2.3986410">
        <ele>1105.6</ele>
        <time>2020-09-12T08:49:07Z</time>
      </trkpt>
      <trkpt lat="41.0357930" lon="-2.3987020">
        <ele>1105.8</ele>
        <time>2020-09-12T08:49:08Z</time>
      </trkpt>
      <trkpt lat="41.0358260" lon="-2.3987630">
        <ele>1106.0</ele>
        <time>2020-09-12T08:49:09Z</time>
      </trkpt>
      <trkpt lat="41.0358600" lon="-2.3988240">
        <ele>1106.0</ele>
        <time>2020-09-12T08:49:10Z</time>
      </trkpt>
      <trkpt lat="41.0358910" lon="-2.3988840">
        <ele>1106.4</ele>
        <time>2020-09-12T08:49:11Z</time>
      </trkpt>
      <trkpt lat="41.0359210" lon="-2.3989430">
        <ele>1106.6</ele>
        <time>2020-09-12T08:49:12Z</time>
      </trkpt>
      <trkpt lat="41.0359520" lon="-2.3990020">
        <ele>1107.0</ele>
        <time>2020-09-12T08:49:13Z</time>
      </trkpt>
      <trkpt lat="41.0359810" lon="-2.3990590">
        <ele>1107.2</ele>
        <time>2020-09-12T08:49:14Z</time>
      </trkpt>
      <trkpt lat="41.0360110" lon="-2.3991160">
        <ele>1107.4</ele>
        <time>2020-09-12T08:49:15Z</time>
      </trkpt>
      <trkpt lat="41.0360420" lon="-2.3991730">
        <ele>1107.6</ele>
        <time>2020-09-12T08:49:16Z</time>
      </trkpt>
      <trkpt lat="41.0360720" lon="-2.3992290">
        <ele>1107.8</ele>
        <time>2020-09-12T08:49:17Z</time>
      </trkpt>
      <trkpt lat="41.0361020" lon="-2.3992860">
        <ele>1107.8</ele>
        <time>2020-09-12T08:49:18Z</time>
      </trkpt>
      <trkpt lat="41.0361320" lon="-2.3993430">
        <ele>1107.8</ele>
        <time>2020-09-12T08:49:19Z</time>
      </trkpt>
      <trkpt lat="41.0361630" lon="-2.3994000">
        <ele>1108.0</ele>
        <time>2020-09-12T08:49:20Z</time>
      </trkpt>
      <trkpt lat="41.0361950" lon="-2.3994560">
        <ele>1108.2</ele>
        <time>2020-09-12T08:49:21Z</time>
      </trkpt>
      <trkpt lat="41.0362260" lon="-2.3995120">
        <ele>1108.4</ele>
        <time>2020-09-12T08:49:22Z</time>
      </trkpt>
      <trkpt lat="41.0362570" lon="-2.3995680">
        <ele>1108.6</ele>
        <time>2020-09-12T08:49:23Z</time>
      </trkpt>
      <trkpt lat="41.0362860" lon="-2.3996240">
        <ele>1108.8</ele>
        <time>2020-09-12T08:49:24Z</time>
      </trkpt>
      <trkpt lat="41.0363140" lon="-2.3996810">
        <ele>1109.0</ele>
        <time>2020-09-12T08:49:25Z</time>
      </trkpt>
      <trkpt lat="41.0363410" lon="-2.3997380">
        <ele>1109.2</ele>
        <time>2020-09-12T08:49:26Z</time>
      </trkpt>
      <trkpt lat="41.0363700" lon="-2.3997940">
        <ele>1109.2</ele>
        <time>2020-09-12T08:49:27Z</time>
      </trkpt>
      <trkpt lat="41.0363990" lon="-2.3998490">
        <ele>1109.4</ele>
        <time>2020-09-12T08:49:28Z</time>
      </trkpt>
      <trkpt lat="41.0364290" lon="-2.3999020">
        <ele>1109.6</ele>
        <time>2020-09-12T08:49:29Z</time>
      </trkpt>
      <trkpt lat="41.0364590" lon="-2.3999580">
        <ele>1109.6</ele>
        <time>2020-09-12T08:49:30Z</time>
      </trkpt>
      <trkpt lat="41.0364870" lon="-2.4000150">
        <ele>1109.8</ele>
        <time>2020-09-12T08:49:31Z</time>
      </trkpt>
      <trkpt lat="41.0365150" lon="-2.4000720">
        <ele>1109.8</ele>
        <time>2020-09-12T08:49:32Z</time>
      </trkpt>
      <trkpt lat="41.0365430" lon="-2.4001300">
        <ele>1109.8</ele>
        <time>2020-09-12T08:49:33Z</time>
      </trkpt>
      <trkpt lat="41.0365730" lon="-2.4001870">
        <ele>1110.0</ele>
        <time>2020-09-12T08:49:34Z</time>
      </trkpt>
      <trkpt lat="41.0366030" lon="-2.4002450">
        <ele>1110.2</ele>
        <time>2020-09-12T08:49:35Z</time>
      </trkpt>
      <trkpt lat="41.0366330" lon="-2.4003020">
        <ele>1110.2</ele>
        <time>2020-09-12T08:49:36Z</time>
      </trkpt>
      <trkpt lat="41.0366640" lon="-2.4003570">
        <ele>1110.4</ele>
        <time>2020-09-12T08:49:37Z</time>
      </trkpt>
      <trkpt lat="41.0366930" lon="-2.4004130">
        <ele>1110.6</ele>
        <time>2020-09-12T08:49:38Z</time>
      </trkpt>
      <trkpt lat="41.0367210" lon="-2.4004690">
        <ele>1110.8</ele>
        <time>2020-09-12T08:49:39Z</time>
      </trkpt>
      <trkpt lat="41.0367510" lon="-2.4005260">
        <ele>1111.0</ele>
        <time>2020-09-12T08:49:40Z</time>
      </trkpt>
      <trkpt lat="41.0367810" lon="-2.4005840">
        <ele>1111.2</ele>
        <time>2020-09-12T08:49:41Z</time>
      </trkpt>
      <trkpt lat="41.0368120" lon="-2.4006410">
        <ele>1111.4</ele>
        <time>2020-09-12T08:49:42Z</time>
      </trkpt>
      <trkpt lat="41.0368450" lon="-2.4006970">
        <ele>1111.6</ele>
        <time>2020-09-12T08:49:43Z</time>
      </trkpt>
      <trkpt lat="41.0368820" lon="-2.4007530">
        <ele>1111.8</ele>
        <time>2020-09-12T08:49:44Z</time>
      </trkpt>
      <trkpt lat="41.0369210" lon="-2.4008080">
        <ele>1111.8</ele>
        <time>2020-09-12T08:49:45Z</time>
      </trkpt>
      <trkpt lat="41.0369610" lon="-2.4008640">
        <ele>1112.0</ele>
        <time>2020-09-12T08:49:46Z</time>
      </trkpt>
      <trkpt lat="41.0370030" lon="-2.4009200">
        <ele>1112.0</ele>
        <time>2020-09-12T08:49:47Z</time>
      </trkpt>
      <trkpt lat="41.0370470" lon="-2.4009760">
        <ele>1112.2</ele>
        <time>2020-09-12T08:49:48Z</time>
      </trkpt>
      <trkpt lat="41.0370930" lon="-2.4010320">
        <ele>1112.2</ele>
        <time>2020-09-12T08:49:49Z</time>
      </trkpt>
      <trkpt lat="41.0371400" lon="-2.4010890">
        <ele>1112.2</ele>
        <time>2020-09-12T08:49:50Z</time>
      </trkpt>
      <trkpt lat="41.0371870" lon="-2.4011440">
        <ele>1112.2</ele>
        <time>2020-09-12T08:49:51Z</time>
      </trkpt>
      <trkpt lat="41.0372340" lon="-2.4011990">
        <ele>1112.2</ele>
        <time>2020-09-12T08:49:52Z</time>
      </trkpt>
      <trkpt lat="41.0372810" lon="-2.4012530">
        <ele>1112.2</ele>
        <time>2020-09-12T08:49:53Z</time>
      </trkpt>
      <trkpt lat="41.0373270" lon="-2.4013070">
        <ele>1112.2</ele>
        <time>2020-09-12T08:49:54Z</time>
      </trkpt>
      <trkpt lat="41.0373740" lon="-2.4013600">
        <ele>1112.0</ele>
        <time>2020-09-12T08:49:55Z</time>
      </trkpt>
      <trkpt lat="41.0374210" lon="-2.4014130">
        <ele>1111.8</ele>
        <time>2020-09-12T08:49:56Z</time>
      </trkpt>
      <trkpt lat="41.0374680" lon="-2.4014660">
        <ele>1111.8</ele>
        <time>2020-09-12T08:49:57Z</time>
      </trkpt>
      <trkpt lat="41.0375150" lon="-2.4015190">
        <ele>1111.6</ele>
        <time>2020-09-12T08:49:58Z</time>
      </trkpt>
      <trkpt lat="41.0375630" lon="-2.4015750">
        <ele>1111.6</ele>
        <time>2020-09-12T08:49:59Z</time>
      </trkpt>
      <trkpt lat="41.0376130" lon="-2.4016310">
        <ele>1111.6</ele>
        <time>2020-09-12T08:50:00Z</time>
      </trkpt>
      <trkpt lat="41.0376620" lon="-2.4016900">
        <ele>1111.8</ele>
        <time>2020-09-12T08:50:01Z</time>
      </trkpt>
      <trkpt lat="41.0377110" lon="-2.4017520">
        <ele>1111.8</ele>
        <time>2020-09-12T08:50:02Z</time>
      </trkpt>
      <trkpt lat="41.0377610" lon="-2.4018150">
        <ele>1112.0</ele>
        <time>2020-09-12T08:50:03Z</time>
      </trkpt>
      <trkpt lat="41.0378100" lon="-2.4018820">
        <ele>1112.0</ele>
        <time>2020-09-12T08:50:04Z</time>
      </trkpt>
      <trkpt lat="41.0378600" lon="-2.4019500">
        <ele>1112.0</ele>
        <time>2020-09-12T08:50:05Z</time>
      </trkpt>
      <trkpt lat="41.0379080" lon="-2.4020190">
        <ele>1111.8</ele>
        <time>2020-09-12T08:50:06Z</time>
      </trkpt>
      <trkpt lat="41.0379560" lon="-2.4020900">
        <ele>1111.6</ele>
        <time>2020-09-12T08:50:07Z</time>
      </trkpt>
      <trkpt lat="41.0380040" lon="-2.4021630">
        <ele>1111.4</ele>
        <time>2020-09-12T08:50:08Z</time>
      </trkpt>
      <trkpt lat="41.0380520" lon="-2.4022360">
        <ele>1111.0</ele>
        <time>2020-09-12T08:50:09Z</time>
      </trkpt>
      <trkpt lat="41.0380960" lon="-2.4023100">
        <ele>1110.6</ele>
        <time>2020-09-12T08:50:10Z</time>
      </trkpt>
      <trkpt lat="41.0381370" lon="-2.4023830">
        <ele>1110.4</ele>
        <time>2020-09-12T08:50:11Z</time>
      </trkpt>
      <trkpt lat="41.0381770" lon="-2.4024580">
        <ele>1110.2</ele>
        <time>2020-09-12T08:50:12Z</time>
      </trkpt>
      <trkpt lat="41.0382160" lon="-2.4025310">
        <ele>1110.2</ele>
        <time>2020-09-12T08:50:13Z</time>
      </trkpt>
      <trkpt lat="41.0382530" lon="-2.4026050">
        <ele>1110.2</ele>
        <time>2020-09-12T08:50:14Z</time>
      </trkpt>
      <trkpt lat="41.0382900" lon="-2.4026790">
        <ele>1110.2</ele>
        <time>2020-09-12T08:50:15Z</time>
      </trkpt>
      <trkpt lat="41.0383240" lon="-2.4027540">
        <ele>1110.4</ele>
        <time>2020-09-12T08:50:16Z</time>
      </trkpt>
      <trkpt lat="41.0383560" lon="-2.4028310">
        <ele>1110.4</ele>
        <time>2020-09-12T08:50:17Z</time>
      </trkpt>
      <trkpt lat="41.0383860" lon="-2.4029070">
        <ele>1110.6</ele>
        <time>2020-09-12T08:50:18Z</time>
      </trkpt>
      <trkpt lat="41.0384170" lon="-2.4029820">
        <ele>1110.6</ele>
        <time>2020-09-12T08:50:19Z</time>
      </trkpt>
      <trkpt lat="41.0384480" lon="-2.4030550">
        <ele>1110.6</ele>
        <time>2020-09-12T08:50:20Z</time>
      </trkpt>
      <trkpt lat="41.0384770" lon="-2.4031270">
        <ele>1110.6</ele>
        <time>2020-09-12T08:50:21Z</time>
      </trkpt>
      <trkpt lat="41.0385040" lon="-2.4031980">
        <ele>1110.6</ele>
        <time>2020-09-12T08:50:22Z</time>
      </trkpt>
      <trkpt lat="41.0385300" lon="-2.4032670">
        <ele>1110.4</ele>
        <time>2020-09-12T08:50:23Z</time>
      </trkpt>
      <trkpt lat="41.0385560" lon="-2.4033370">
        <ele>1110.2</ele>
        <time>2020-09-12T08:50:24Z</time>
      </trkpt>
      <trkpt lat="41.0385820" lon="-2.4034070">
        <ele>1110.0</ele>
        <time>2020-09-12T08:50:25Z</time>
      </trkpt>
      <trkpt lat="41.0386080" lon="-2.4034780">
        <ele>1110.0</ele>
        <time>2020-09-12T08:50:26Z</time>
      </trkpt>
      <trkpt lat="41.0386330" lon="-2.4035510">
        <ele>1110.0</ele>
        <time>2020-09-12T08:50:27Z</time>
      </trkpt>
      <trkpt lat="41.0386570" lon="-2.4036250">
        <ele>1110.0</ele>
        <time>2020-09-12T08:50:28Z</time>
      </trkpt>
      <trkpt lat="41.0386820" lon="-2.4036980">
        <ele>1110.2</ele>
        <time>2020-09-12T08:50:29Z</time>
      </trkpt>
      <trkpt lat="41.0387060" lon="-2.4037730">
        <ele>1110.4</ele>
        <time>2020-09-12T08:50:30Z</time>
      </trkpt>
      <trkpt lat="41.0387280" lon="-2.4038480">
        <ele>1110.6</ele>
        <time>2020-09-12T08:50:31Z</time>
      </trkpt>
      <trkpt lat="41.0387510" lon="-2.4039230">
        <ele>1110.8</ele>
        <time>2020-09-12T08:50:32Z</time>
      </trkpt>
      <trkpt lat="41.0387740" lon="-2.4039970">
        <ele>1110.8</ele>
        <time>2020-09-12T08:50:33Z</time>
      </trkpt>
      <trkpt lat="41.0387980" lon="-2.4040700">
        <ele>1111.0</ele>
        <time>2020-09-12T08:50:34Z</time>
      </trkpt>
      <trkpt lat="41.0388230" lon="-2.4041430">
        <ele>1111.0</ele>
        <time>2020-09-12T08:50:35Z</time>
      </trkpt>
      <trkpt lat="41.0388490" lon="-2.4042150">
        <ele>1111.2</ele>
        <time>2020-09-12T08:50:36Z</time>
      </trkpt>
      <trkpt lat="41.0388750" lon="-2.4042870">
        <ele>1111.4</ele>
        <time>2020-09-12T08:50:37Z</time>
      </trkpt>
      <trkpt lat="41.0389000" lon="-2.4043600">
        <ele>1111.4</ele>
        <time>2020-09-12T08:50:38Z</time>
      </trkpt>
      <trkpt lat="41.0389260" lon="-2.4044310">
        <ele>1111.6</ele>
        <time>2020-09-12T08:50:39Z</time>
      </trkpt>
      <trkpt lat="41.0389530" lon="-2.4045010">
        <ele>1111.6</ele>
        <time>2020-09-12T08:50:40Z</time>
      </trkpt>
      <trkpt lat="41.0389800" lon="-2.4045710">
        <ele>1111.6</ele>
        <time>2020-09-12T08:50:41Z</time>
      </trkpt>
      <trkpt lat="41.0390080" lon="-2.4046400">
        <ele>1111.6</ele>
        <time>2020-09-12T08:50:42Z</time>
      </trkpt>
      <trkpt lat="41.0390350" lon="-2.4047090">
        <ele>1111.4</ele>
        <time>2020-09-12T08:50:43Z</time>
      </trkpt>
      <trkpt lat="41.0390620" lon="-2.4047780">
        <ele>1111.4</ele>
        <time>2020-09-12T08:50:44Z</time>
      </trkpt>
      <trkpt lat="41.0390880" lon="-2.4048480">
        <ele>1111.6</ele>
        <time>2020-09-12T08:50:45Z</time>
      </trkpt>
      <trkpt lat="41.0391150" lon="-2.4049170">
        <ele>1111.6</ele>
        <time>2020-09-12T08:50:46Z</time>
      </trkpt>
      <trkpt lat="41.0391400" lon="-2.4049870">
        <ele>1111.6</ele>
        <time>2020-09-12T08:50:47Z</time>
      </trkpt>
      <trkpt lat="41.0391650" lon="-2.4050560">
        <ele>1111.6</ele>
        <time>2020-09-12T08:50:48Z</time>
      </trkpt>
      <trkpt lat="41.0391910" lon="-2.4051260">
        <ele>1111.8</ele>
        <time>2020-09-12T08:50:49Z</time>
      </trkpt>
      <trkpt lat="41.0392170" lon="-2.4051940">
        <ele>1112.0</ele>
        <time>2020-09-12T08:50:50Z</time>
      </trkpt>
      <trkpt lat="41.0392410" lon="-2.4052650">
        <ele>1112.0</ele>
        <time>2020-09-12T08:50:51Z</time>
      </trkpt>
      <trkpt lat="41.0392660" lon="-2.4053360">
        <ele>1112.0</ele>
        <time>2020-09-12T08:50:52Z</time>
      </trkpt>
      <trkpt lat="41.0392910" lon="-2.4054070">
        <ele>1112.0</ele>
        <time>2020-09-12T08:50:53Z</time>
      </trkpt>
      <trkpt lat="41.0393160" lon="-2.4054780">
        <ele>1112.2</ele>
        <time>2020-09-12T08:50:54Z</time>
      </trkpt>
      <trkpt lat="41.0393400" lon="-2.4055500">
        <ele>1112.2</ele>
        <time>2020-09-12T08:50:55Z</time>
      </trkpt>
      <trkpt lat="41.0393630" lon="-2.4056220">
        <ele>1112.2</ele>
        <time>2020-09-12T08:50:56Z</time>
      </trkpt>
      <trkpt lat="41.0393840" lon="-2.4056940">
        <ele>1112.2</ele>
        <time>2020-09-12T08:50:57Z</time>
      </trkpt>
      <trkpt lat="41.0394050" lon="-2.4057650">
        <ele>1112.4</ele>
        <time>2020-09-12T08:50:58Z</time>
      </trkpt>
      <trkpt lat="41.0394250" lon="-2.4058360">
        <ele>1112.4</ele>
        <time>2020-09-12T08:50:59Z</time>
      </trkpt>
      <trkpt lat="41.0394450" lon="-2.4059090">
        <ele>1112.4</ele>
        <time>2020-09-12T08:51:00Z</time>
      </trkpt>
      <trkpt lat="41.0394630" lon="-2.4059820">
        <ele>1112.4</ele>
        <time>2020-09-12T08:51:01Z</time>
      </trkpt>
      <trkpt lat="41.0394820" lon="-2.4060550">
        <ele>1112.6</ele>
        <time>2020-09-12T08:51:02Z</time>
      </trkpt>
      <trkpt lat="41.0395010" lon="-2.4061280">
        <ele>1112.6</ele>
        <time>2020-09-12T08:51:03Z</time>
      </trkpt>
      <trkpt lat="41.0395210" lon="-2.4062000">
        <ele>1112.6</ele>
        <time>2020-09-12T08:51:04Z</time>
      </trkpt>
      <trkpt lat="41.0395400" lon="-2.4062730">
        <ele>1113.0</ele>
        <time>2020-09-12T08:51:05Z</time>
      </trkpt>
      <trkpt lat="41.0395590" lon="-2.4063440">
        <ele>1113.2</ele>
        <time>2020-09-12T08:51:06Z</time>
      </trkpt>
      <trkpt lat="41.0395770" lon="-2.4064150">
        <ele>1113.4</ele>
        <time>2020-09-12T08:51:07Z</time>
      </trkpt>
      <trkpt lat="41.0395950" lon="-2.4064850">
        <ele>1113.6</ele>
        <time>2020-09-12T08:51:08Z</time>
      </trkpt>
      <trkpt lat="41.0396140" lon="-2.4065540">
        <ele>1113.8</ele>
        <time>2020-09-12T08:51:09Z</time>
      </trkpt>
      <trkpt lat="41.0396330" lon="-2.4066220">
        <ele>1113.8</ele>
        <time>2020-09-12T08:51:10Z</time>
      </trkpt>
      <trkpt lat="41.0396520" lon="-2.4066910">
        <ele>1113.8</ele>
        <time>2020-09-12T08:51:11Z</time>
      </trkpt>
      <trkpt lat="41.0396710" lon="-2.4067590">
        <ele>1113.8</ele>
        <time>2020-09-12T08:51:12Z</time>
      </trkpt>
      <trkpt lat="41.0396920" lon="-2.4068270">
        <ele>1113.8</ele>
        <time>2020-09-12T08:51:13Z</time>
      </trkpt>
      <trkpt lat="41.0397150" lon="-2.4068930">
        <ele>1113.6</ele>
        <time>2020-09-12T08:51:14Z</time>
      </trkpt>
      <trkpt lat="41.0397410" lon="-2.4069580">
        <ele>1113.6</ele>
        <time>2020-09-12T08:51:15Z</time>
      </trkpt>
      <trkpt lat="41.0397690" lon="-2.4070200">
        <ele>1113.6</ele>
        <time>2020-09-12T08:51:16Z</time>
      </trkpt>
      <trkpt lat="41.0397990" lon="-2.4070810">
        <ele>1113.8</ele>
        <time>2020-09-12T08:51:17Z</time>
      </trkpt>
      <trkpt lat="41.0398320" lon="-2.4071390">
        <ele>1114.0</ele>
        <time>2020-09-12T08:51:18Z</time>
      </trkpt>
      <trkpt lat="41.0398670" lon="-2.4071940">
        <ele>1114.2</ele>
        <time>2020-09-12T08:51:19Z</time>
      </trkpt>
      <trkpt lat="41.0399050" lon="-2.4072430">
        <ele>1114.4</ele>
        <time>2020-09-12T08:51:20Z</time>
      </trkpt>
      <trkpt lat="41.0399450" lon="-2.4072870">
        <ele>1114.4</ele>
        <time>2020-09-12T08:51:21Z</time>
      </trkpt>
      <trkpt lat="41.0399840" lon="-2.4073290">
        <ele>1114.6</ele>
        <time>2020-09-12T08:51:22Z</time>
      </trkpt>
      <trkpt lat="41.0400230" lon="-2.4073700">
        <ele>1114.6</ele>
        <time>2020-09-12T08:51:23Z</time>
      </trkpt>
      <trkpt lat="41.0400610" lon="-2.4074100">
        <ele>1114.6</ele>
        <time>2020-09-12T08:51:24Z</time>
      </trkpt>
      <trkpt lat="41.0400980" lon="-2.4074470">
        <ele>1114.6</ele>
        <time>2020-09-12T08:51:25Z</time>
      </trkpt>
      <trkpt lat="41.0401360" lon="-2.4074810">
        <ele>1114.8</ele>
        <time>2020-09-12T08:51:26Z</time>
      </trkpt>
      <trkpt lat="41.0401730" lon="-2.4075160">
        <ele>1115.0</ele>
        <time>2020-09-12T08:51:27Z</time>
      </trkpt>
      <trkpt lat="41.0402080" lon="-2.4075500">
        <ele>1115.4</ele>
        <time>2020-09-12T08:51:28Z</time>
      </trkpt>
      <trkpt lat="41.0402420" lon="-2.4075810">
        <ele>1115.6</ele>
        <time>2020-09-12T08:51:29Z</time>
      </trkpt>
      <trkpt lat="41.0402760" lon="-2.4076100">
        <ele>1115.8</ele>
        <time>2020-09-12T08:51:30Z</time>
      </trkpt>
      <trkpt lat="41.0403080" lon="-2.4076380">
        <ele>1116.0</ele>
        <time>2020-09-12T08:51:31Z</time>
      </trkpt>
      <trkpt lat="41.0403360" lon="-2.4076630">
        <ele>1116.2</ele>
        <time>2020-09-12T08:51:32Z</time>
      </trkpt>
      <trkpt lat="41.0403620" lon="-2.4076880">
        <ele>1116.6</ele>
        <time>2020-09-12T08:51:33Z</time>
      </trkpt>
      <trkpt lat="41.0403870" lon="-2.4077160">
        <ele>1116.8</ele>
        <time>2020-09-12T08:51:34Z</time>
      </trkpt>
      <trkpt lat="41.0404130" lon="-2.4077430">
        <ele>1117.0</ele>
        <time>2020-09-12T08:51:35Z</time>
      </trkpt>
      <trkpt lat="41.0404380" lon="-2.4077690">
        <ele>1117.2</ele>
        <time>2020-09-12T08:51:36Z</time>
      </trkpt>
      <trkpt lat="41.0404600" lon="-2.4077950">
        <ele>1117.4</ele>
        <time>2020-09-12T08:51:37Z</time>
      </trkpt>
      <trkpt lat="41.0404760" lon="-2.4078170">
        <ele>1117.6</ele>
        <time>2020-09-12T08:51:38Z</time>
      </trkpt>
      <trkpt lat="41.0404900" lon="-2.4078380">
        <ele>1117.8</ele>
        <time>2020-09-12T08:51:39Z</time>
      </trkpt>
      <trkpt lat="41.0405040" lon="-2.4078600">
        <ele>1118.0</ele>
        <time>2020-09-12T08:51:40Z</time>
      </trkpt>
      <trkpt lat="41.0405190" lon="-2.4078840">
        <ele>1118.0</ele>
        <time>2020-09-12T08:51:41Z</time>
      </trkpt>
      <trkpt lat="41.0405370" lon="-2.4079100">
        <ele>1118.2</ele>
        <time>2020-09-12T08:51:42Z</time>
      </trkpt>
      <trkpt lat="41.0405560" lon="-2.4079350">
        <ele>1118.2</ele>
        <time>2020-09-12T08:51:43Z</time>
      </trkpt>
      <trkpt lat="41.0405760" lon="-2.4079640">
        <ele>1118.6</ele>
        <time>2020-09-12T08:51:44Z</time>
      </trkpt>
      <trkpt lat="41.0405890" lon="-2.4080060">
        <ele>1119.0</ele>
        <time>2020-09-12T08:51:45Z</time>
      </trkpt>
      <trkpt lat="41.0405920" lon="-2.4080540">
        <ele>1119.2</ele>
        <time>2020-09-12T08:51:46Z</time>
      </trkpt>
      <trkpt lat="41.0405870" lon="-2.4081020">
        <ele>1119.4</ele>
        <time>2020-09-12T08:51:47Z</time>
      </trkpt>
      <trkpt lat="41.0405760" lon="-2.4081510">
        <ele>1119.4</ele>
        <time>2020-09-12T08:51:48Z</time>
      </trkpt>
      <trkpt lat="41.0405620" lon="-2.4081980">
        <ele>1119.6</ele>
        <time>2020-09-12T08:51:49Z</time>
      </trkpt>
      <trkpt lat="41.0405460" lon="-2.4082440">
        <ele>1119.6</ele>
        <time>2020-09-12T08:51:50Z</time>
      </trkpt>
      <trkpt lat="41.0405290" lon="-2.4082900">
        <ele>1119.6</ele>
        <time>2020-09-12T08:51:51Z</time>
      </trkpt>
      <trkpt lat="41.0405140" lon="-2.4083380">
        <ele>1119.6</ele>
        <time>2020-09-12T08:51:52Z</time>
      </trkpt>
      <trkpt lat="41.0404990" lon="-2.4083860">
        <ele>1119.8</ele>
        <time>2020-09-12T08:51:53Z</time>
      </trkpt>
      <trkpt lat="41.0404840" lon="-2.4084360">
        <ele>1120.0</ele>
        <time>2020-09-12T08:51:54Z</time>
      </trkpt>
      <trkpt lat="41.0404680" lon="-2.4084850">
        <ele>1120.2</ele>
        <time>2020-09-12T08:51:55Z</time>
      </trkpt>
      <trkpt lat="41.0404530" lon="-2.4085350">
        <ele>1120.4</ele>
        <time>2020-09-12T08:51:56Z</time>
      </trkpt>
      <trkpt lat="41.0404380" lon="-2.4085860">
        <ele>1120.4</ele>
        <time>2020-09-12T08:51:57Z</time>
      </trkpt>
      <trkpt lat="41.0404230" lon="-2.4086370">
        <ele>1120.6</ele>
        <time>2020-09-12T08:51:58Z</time>
      </trkpt>
      <trkpt lat="41.0404060" lon="-2.4086870">
        <ele>1121.0</ele>
        <time>2020-09-12T08:51:59Z</time>
      </trkpt>
      <trkpt lat="41.0403880" lon="-2.4087380">
        <ele>1121.0</ele>
        <time>2020-09-12T08:52:00Z</time>
      </trkpt>
      <trkpt lat="41.0403690" lon="-2.4087880">
        <ele>1121.2</ele>
        <time>2020-09-12T08:52:01Z</time>
      </trkpt>
      <trkpt lat="41.0403500" lon="-2.4088370">
        <ele>1121.4</ele>
        <time>2020-09-12T08:52:02Z</time>
      </trkpt>
      <trkpt lat="41.0403350" lon="-2.4088880">
        <ele>1121.6</ele>
        <time>2020-09-12T08:52:03Z</time>
      </trkpt>
      <trkpt lat="41.0403210" lon="-2.4089400">
        <ele>1121.8</ele>
        <time>2020-09-12T08:52:04Z</time>
      </trkpt>
      <trkpt lat="41.0403060" lon="-2.4089900">
        <ele>1122.0</ele>
        <time>2020-09-12T08:52:05Z</time>
      </trkpt>
      <trkpt lat="41.0402890" lon="-2.4090410">
        <ele>1122.2</ele>
        <time>2020-09-12T08:52:06Z</time>
      </trkpt>
      <trkpt lat="41.0402710" lon="-2.4090910">
        <ele>1122.4</ele>
        <time>2020-09-12T08:52:07Z</time>
      </trkpt>
      <trkpt lat="41.0402560" lon="-2.4091420">
        <ele>1122.4</ele>
        <time>2020-09-12T08:52:08Z</time>
      </trkpt>
      <trkpt lat="41.0402410" lon="-2.4091940">
        <ele>1122.6</ele>
        <time>2020-09-12T08:52:09Z</time>
      </trkpt>
      <trkpt lat="41.0402240" lon="-2.4092460">
        <ele>1123.0</ele>
        <time>2020-09-12T08:52:10Z</time>
      </trkpt>
      <trkpt lat="41.0402090" lon="-2.4092990">
        <ele>1123.4</ele>
        <time>2020-09-12T08:52:11Z</time>
      </trkpt>
      <trkpt lat="41.0401930" lon="-2.4093530">
        <ele>1123.6</ele>
        <time>2020-09-12T08:52:12Z</time>
      </trkpt>
      <trkpt lat="41.0401770" lon="-2.4094080">
        <ele>1123.8</ele>
        <time>2020-09-12T08:52:13Z</time>
      </trkpt>
      <trkpt lat="41.0401630" lon="-2.4094630">
        <ele>1124.0</ele>
        <time>2020-09-12T08:52:14Z</time>
      </trkpt>
      <trkpt lat="41.0401500" lon="-2.4095190">
        <ele>1124.2</ele>
        <time>2020-09-12T08:52:15Z</time>
      </trkpt>
      <trkpt lat="41.0401400" lon="-2.4095760">
        <ele>1124.2</ele>
        <time>2020-09-12T08:52:16Z</time>
      </trkpt>
      <trkpt lat="41.0401320" lon="-2.4096360">
        <ele>1124.4</ele>
        <time>2020-09-12T08:52:17Z</time>
      </trkpt>
      <trkpt lat="41.0401240" lon="-2.4096950">
        <ele>1124.6</ele>
        <time>2020-09-12T08:52:18Z</time>
      </trkpt>
      <trkpt lat="41.0401180" lon="-2.4097540">
        <ele>1124.8</ele>
        <time>2020-09-12T08:52:19Z</time>
      </trkpt>
      <trkpt lat="41.0401150" lon="-2.4098150">
        <ele>1125.2</ele>
        <time>2020-09-12T08:52:20Z</time>
      </trkpt>
      <trkpt lat="41.0401170" lon="-2.4098770">
        <ele>1125.2</ele>
        <time>2020-09-12T08:52:21Z</time>
      </trkpt>
      <trkpt lat="41.0401210" lon="-2.4099390">
        <ele>1125.4</ele>
        <time>2020-09-12T08:52:22Z</time>
      </trkpt>
      <trkpt lat="41.0401260" lon="-2.4100000">
        <ele>1125.8</ele>
        <time>2020-09-12T08:52:23Z</time>
      </trkpt>
      <trkpt lat="41.0401320" lon="-2.4100600">
        <ele>1125.8</ele>
        <time>2020-09-12T08:52:24Z</time>
      </trkpt>
      <trkpt lat="41.0401390" lon="-2.4101200">
        <ele>1126.0</ele>
        <time>2020-09-12T08:52:25Z</time>
      </trkpt>
      <trkpt lat="41.0401450" lon="-2.4101800">
        <ele>1126.0</ele>
        <time>2020-09-12T08:52:26Z</time>
      </trkpt>
      <trkpt lat="41.0401520" lon="-2.4102390">
        <ele>1126.2</ele>
        <time>2020-09-12T08:52:27Z</time>
      </trkpt>
      <trkpt lat="41.0401600" lon="-2.4102980">
        <ele>1126.4</ele>
        <time>2020-09-12T08:52:28Z</time>
      </trkpt>
      <trkpt lat="41.0401670" lon="-2.4103570">
        <ele>1126.6</ele>
        <time>2020-09-12T08:52:29Z</time>
      </trkpt>
      <trkpt lat="41.0401750" lon="-2.4104140">
        <ele>1126.8</ele>
        <time>2020-09-12T08:52:30Z</time>
      </trkpt>
      <trkpt lat="41.0401830" lon="-2.4104700">
        <ele>1127.0</ele>
        <time>2020-09-12T08:52:31Z</time>
      </trkpt>
      <trkpt lat="41.0401900" lon="-2.4105240">
        <ele>1127.2</ele>
        <time>2020-09-12T08:52:32Z</time>
      </trkpt>
      <trkpt lat="41.0401950" lon="-2.4105730">
        <ele>1127.4</ele>
        <time>2020-09-12T08:52:33Z</time>
      </trkpt>
      <trkpt lat="41.0402000" lon="-2.4106230">
        <ele>1127.6</ele>
        <time>2020-09-12T08:52:34Z</time>
      </trkpt>
      <trkpt lat="41.0402040" lon="-2.4106730">
        <ele>1127.8</ele>
        <time>2020-09-12T08:52:35Z</time>
      </trkpt>
      <trkpt lat="41.0402090" lon="-2.4107260">
        <ele>1128.0</ele>
        <time>2020-09-12T08:52:36Z</time>
      </trkpt>
      <trkpt lat="41.0402120" lon="-2.4107830">
        <ele>1128.2</ele>
        <time>2020-09-12T08:52:37Z</time>
      </trkpt>
      <trkpt lat="41.0402140" lon="-2.4108410">
        <ele>1128.2</ele>
        <time>2020-09-12T08:52:38Z</time>
      </trkpt>
      <trkpt lat="41.0402130" lon="-2.4108990">
        <ele>1128.4</ele>
        <time>2020-09-12T08:52:39Z</time>
      </trkpt>
      <trkpt lat="41.0402120" lon="-2.4109590">
        <ele>1128.6</ele>
        <time>2020-09-12T08:52:40Z</time>
      </trkpt>
      <trkpt lat="41.0402090" lon="-2.4110180">
        <ele>1128.8</ele>
        <time>2020-09-12T08:52:41Z</time>
      </trkpt>
      <trkpt lat="41.0402050" lon="-2.4110770">
        <ele>1128.8</ele>
        <time>2020-09-12T08:52:42Z</time>
      </trkpt>
      <trkpt lat="41.0402010" lon="-2.4111360">
        <ele>1128.8</ele>
        <time>2020-09-12T08:52:43Z</time>
      </trkpt>
      <trkpt lat="41.0401960" lon="-2.4111960">
        <ele>1129.0</ele>
        <time>2020-09-12T08:52:44Z</time>
      </trkpt>
      <trkpt lat="41.0401940" lon="-2.4112550">
        <ele>1129.0</ele>
        <time>2020-09-12T08:52:45Z</time>
      </trkpt>
      <trkpt lat="41.0401930" lon="-2.4113120">
        <ele>1129.0</ele>
        <time>2020-09-12T08:52:46Z</time>
      </trkpt>
      <trkpt lat="41.0401930" lon="-2.4113690">
        <ele>1129.0</ele>
        <time>2020-09-12T08:52:47Z</time>
      </trkpt>
      <trkpt lat="41.0401920" lon="-2.4114280">
        <ele>1129.0</ele>
        <time>2020-09-12T08:52:48Z</time>
      </trkpt>
      <trkpt lat="41.0401890" lon="-2.4114880">
        <ele>1129.0</ele>
        <time>2020-09-12T08:52:49Z</time>
      </trkpt>
      <trkpt lat="41.0401880" lon="-2.4115530">
        <ele>1129.0</ele>
        <time>2020-09-12T08:52:50Z</time>
      </trkpt>
      <trkpt lat="41.0401880" lon="-2.4116170">
        <ele>1129.0</ele>
        <time>2020-09-12T08:52:51Z</time>
      </trkpt>
      <trkpt lat="41.0401850" lon="-2.4116830">
        <ele>1129.0</ele>
        <time>2020-09-12T08:52:52Z</time>
      </trkpt>
      <trkpt lat="41.0401780" lon="-2.4117510">
        <ele>1129.2</ele>
        <time>2020-09-12T08:52:53Z</time>
      </trkpt>
      <trkpt lat="41.0401740" lon="-2.4118170">
        <ele>1129.2</ele>
        <time>2020-09-12T08:52:54Z</time>
      </trkpt>
      <trkpt lat="41.0401690" lon="-2.4118820">
        <ele>1129.2</ele>
        <time>2020-09-12T08:52:55Z</time>
      </trkpt>
      <trkpt lat="41.0401650" lon="-2.4119450">
        <ele>1129.2</ele>
        <time>2020-09-12T08:52:56Z</time>
      </trkpt>
      <trkpt lat="41.0401590" lon="-2.4120100">
        <ele>1129.4</ele>
        <time>2020-09-12T08:52:57Z</time>
      </trkpt>
      <trkpt lat="41.0401540" lon="-2.4120700">
        <ele>1129.4</ele>
        <time>2020-09-12T08:52:58Z</time>
      </trkpt>
      <trkpt lat="41.0401530" lon="-2.4121360">
        <ele>1129.6</ele>
        <time>2020-09-12T08:52:59Z</time>
      </trkpt>
      <trkpt lat="41.0401510" lon="-2.4121980">
        <ele>1129.8</ele>
        <time>2020-09-12T08:53:00Z</time>
      </trkpt>
      <trkpt lat="41.0401480" lon="-2.4122610">
        <ele>1129.8</ele>
        <time>2020-09-12T08:53:01Z</time>
      </trkpt>
      <trkpt lat="41.0401440" lon="-2.4123230">
        <ele>1130.0</ele>
        <time>2020-09-12T08:53:02Z</time>
      </trkpt>
      <trkpt lat="41.0401440" lon="-2.4123850">
        <ele>1130.0</ele>
        <time>2020-09-12T08:53:03Z</time>
      </trkpt>
      <trkpt lat="41.0401420" lon="-2.4124460">
        <ele>1130.0</ele>
        <time>2020-09-12T08:53:04Z</time>
      </trkpt>
      <trkpt lat="41.0401370" lon="-2.4125120">
        <ele>1130.2</ele>
        <time>2020-09-12T08:53:05Z</time>
      </trkpt>
      <trkpt lat="41.0401310" lon="-2.4125770">
        <ele>1130.2</ele>
        <time>2020-09-12T08:53:06Z</time>
      </trkpt>
      <trkpt lat="41.0401270" lon="-2.4126410">
        <ele>1130.2</ele>
        <time>2020-09-12T08:53:07Z</time>
      </trkpt>
      <trkpt lat="41.0401240" lon="-2.4127050">
        <ele>1130.2</ele>
        <time>2020-09-12T08:53:08Z</time>
      </trkpt>
      <trkpt lat="41.0401210" lon="-2.4127680">
        <ele>1130.4</ele>
        <time>2020-09-12T08:53:09Z</time>
      </trkpt>
      <trkpt lat="41.0401180" lon="-2.4128300">
        <ele>1130.4</ele>
        <time>2020-09-12T08:53:10Z</time>
      </trkpt>
      <trkpt lat="41.0401140" lon="-2.4128900">
        <ele>1130.6</ele>
        <time>2020-09-12T08:53:11Z</time>
      </trkpt>
      <trkpt lat="41.0401090" lon="-2.4129520">
        <ele>1131.0</ele>
        <time>2020-09-12T08:53:12Z</time>
      </trkpt>
      <trkpt lat="41.0401050" lon="-2.4130120">
        <ele>1131.2</ele>
        <time>2020-09-12T08:53:13Z</time>
      </trkpt>
      <trkpt lat="41.0401020" lon="-2.4130740">
        <ele>1131.6</ele>
        <time>2020-09-12T08:53:14Z</time>
      </trkpt>
      <trkpt lat="41.0400970" lon="-2.4131340">
        <ele>1131.8</ele>
        <time>2020-09-12T08:53:15Z</time>
      </trkpt>
      <trkpt lat="41.0400920" lon="-2.4131950">
        <ele>1132.0</ele>
        <time>2020-09-12T08:53:16Z</time>
      </trkpt>
      <trkpt lat="41.0400880" lon="-2.4132550">
        <ele>1132.2</ele>
        <time>2020-09-12T08:53:17Z</time>
      </trkpt>
      <trkpt lat="41.0400860" lon="-2.4133140">
        <ele>1132.2</ele>
        <time>2020-09-12T08:53:18Z</time>
      </trkpt>
      <trkpt lat="41.0400840" lon="-2.4133750">
        <ele>1132.4</ele>
        <time>2020-09-12T08:53:19Z</time>
      </trkpt>
      <trkpt lat="41.0400820" lon="-2.4134350">
        <ele>1132.6</ele>
        <time>2020-09-12T08:53:20Z</time>
      </trkpt>
      <trkpt lat="41.0400780" lon="-2.4134930">
        <ele>1133.0</ele>
        <time>2020-09-12T08:53:21Z</time>
      </trkpt>
      <trkpt lat="41.0400740" lon="-2.4135500">
        <ele>1133.0</ele>
        <time>2020-09-12T08:53:22Z</time>
      </trkpt>
      <trkpt lat="41.0400710" lon="-2.4136080">
        <ele>1133.2</ele>
        <time>2020-09-12T08:53:23Z</time>
      </trkpt>
      <trkpt lat="41.0400680" lon="-2.4136660">
        <ele>1133.4</ele>
        <time>2020-09-12T08:53:24Z</time>
      </trkpt>
      <trkpt lat="41.0400640" lon="-2.4137230">
        <ele>1133.6</ele>
        <time>2020-09-12T08:53:25Z</time>
      </trkpt>
      <trkpt lat="41.0400610" lon="-2.4137810">
        <ele>1133.6</ele>
        <time>2020-09-12T08:53:26Z</time>
      </trkpt>
      <trkpt lat="41.0400590" lon="-2.4138370">
        <ele>1134.0</ele>
        <time>2020-09-12T08:53:27Z</time>
      </trkpt>
      <trkpt lat="41.0400560" lon="-2.4138910">
        <ele>1134.2</ele>
        <time>2020-09-12T08:53:28Z</time>
      </trkpt>
      <trkpt lat="41.0400530" lon="-2.4139440">
        <ele>1134.4</ele>
        <time>2020-09-12T08:53:29Z</time>
      </trkpt>
      <trkpt lat="41.0400510" lon="-2.4139940">
        <ele>1134.6</ele>
        <time>2020-09-12T08:53:30Z</time>
      </trkpt>
      <trkpt lat="41.0400520" lon="-2.4140420">
        <ele>1134.8</ele>
        <time>2020-09-12T08:53:31Z</time>
      </trkpt>
      <trkpt lat="41.0400530" lon="-2.4140880">
        <ele>1135.0</ele>
        <time>2020-09-12T08:53:32Z</time>
      </trkpt>
      <trkpt lat="41.0400520" lon="-2.4141360">
        <ele>1135.2</ele>
        <time>2020-09-12T08:53:33Z</time>
      </trkpt>
      <trkpt lat="41.0400490" lon="-2.4141870">
        <ele>1135.4</ele>
        <time>2020-09-12T08:53:34Z</time>
      </trkpt>
      <trkpt lat="41.0400450" lon="-2.4142400">
        <ele>1135.6</ele>
        <time>2020-09-12T08:53:35Z</time>
      </trkpt>
      <trkpt lat="41.0400430" lon="-2.4142940">
        <ele>1136.0</ele>
        <time>2020-09-12T08:53:36Z</time>
      </trkpt>
      <trkpt lat="41.0400430" lon="-2.4143500">
        <ele>1136.2</ele>
        <time>2020-09-12T08:53:37Z</time>
      </trkpt>
      <trkpt lat="41.0400430" lon="-2.4144060">
        <ele>1136.4</ele>
        <time>2020-09-12T08:53:38Z</time>
      </trkpt>
      <trkpt lat="41.0400430" lon="-2.4144630">
        <ele>1136.8</ele>
        <time>2020-09-12T08:53:39Z</time>
      </trkpt>
      <trkpt lat="41.0400430" lon="-2.4145190">
        <ele>1136.8</ele>
        <time>2020-09-12T08:53:40Z</time>
      </trkpt>
      <trkpt lat="41.0400430" lon="-2.4145770">
        <ele>1137.0</ele>
        <time>2020-09-12T08:53:41Z</time>
      </trkpt>
      <trkpt lat="41.0400430" lon="-2.4146380">
        <ele>1137.0</ele>
        <time>2020-09-12T08:53:42Z</time>
      </trkpt>
      <trkpt lat="41.0400430" lon="-2.4147030">
        <ele>1137.2</ele>
        <time>2020-09-12T08:53:43Z</time>
      </trkpt>
      <trkpt lat="41.0400420" lon="-2.4147690">
        <ele>1137.2</ele>
        <time>2020-09-12T08:53:44Z</time>
      </trkpt>
      <trkpt lat="41.0400410" lon="-2.4148350">
        <ele>1137.4</ele>
        <time>2020-09-12T08:53:45Z</time>
      </trkpt>
      <trkpt lat="41.0400390" lon="-2.4149000">
        <ele>1137.6</ele>
        <time>2020-09-12T08:53:46Z</time>
      </trkpt>
      <trkpt lat="41.0400380" lon="-2.4149650">
        <ele>1138.0</ele>
        <time>2020-09-12T08:53:47Z</time>
      </trkpt>
      <trkpt lat="41.0400370" lon="-2.4150290">
        <ele>1138.2</ele>
        <time>2020-09-12T08:53:48Z</time>
      </trkpt>
      <trkpt lat="41.0400340" lon="-2.4150930">
        <ele>1138.4</ele>
        <time>2020-09-12T08:53:49Z</time>
      </trkpt>
      <trkpt lat="41.0400300" lon="-2.4151560">
        <ele>1138.6</ele>
        <time>2020-09-12T08:53:50Z</time>
      </trkpt>
      <trkpt lat="41.0400250" lon="-2.4152190">
        <ele>1138.8</ele>
        <time>2020-09-12T08:53:51Z</time>
      </trkpt>
      <trkpt lat="41.0400200" lon="-2.4152820">
        <ele>1139.0</ele>
        <time>2020-09-12T08:53:52Z</time>
      </trkpt>
      <trkpt lat="41.0400140" lon="-2.4153440">
        <ele>1139.0</ele>
        <time>2020-09-12T08:53:53Z</time>
      </trkpt>
      <trkpt lat="41.0400090" lon="-2.4154060">
        <ele>1139.0</ele>
        <time>2020-09-12T08:53:54Z</time>
      </trkpt>
      <trkpt lat="41.0400040" lon="-2.4154680">
        <ele>1139.2</ele>
        <time>2020-09-12T08:53:55Z</time>
      </trkpt>
      <trkpt lat="41.0400000" lon="-2.4155310">
        <ele>1139.4</ele>
        <time>2020-09-12T08:53:56Z</time>
      </trkpt>
      <trkpt lat="41.0399960" lon="-2.4155940">
        <ele>1139.6</ele>
        <time>2020-09-12T08:53:57Z</time>
      </trkpt>
      <trkpt lat="41.0399890" lon="-2.4156580">
        <ele>1139.6</ele>
        <time>2020-09-12T08:53:58Z</time>
      </trkpt>
      <trkpt lat="41.0399830" lon="-2.4157220">
        <ele>1139.8</ele>
        <time>2020-09-12T08:53:59Z</time>
      </trkpt>
      <trkpt lat="41.0399770" lon="-2.4157860">
        <ele>1139.8</ele>
        <time>2020-09-12T08:54:00Z</time>
      </trkpt>
      <trkpt lat="41.0399700" lon="-2.4158510">
        <ele>1139.8</ele>
        <time>2020-09-12T08:54:01Z</time>
      </trkpt>
      <trkpt lat="41.0399640" lon="-2.4159140">
        <ele>1140.0</ele>
        <time>2020-09-12T08:54:02Z</time>
      </trkpt>
      <trkpt lat="41.0399580" lon="-2.4159780">
        <ele>1140.2</ele>
        <time>2020-09-12T08:54:03Z</time>
      </trkpt>
      <trkpt lat="41.0399520" lon="-2.4160410">
        <ele>1140.6</ele>
        <time>2020-09-12T08:54:04Z</time>
      </trkpt>
      <trkpt lat="41.0399470" lon="-2.4161030">
        <ele>1141.0</ele>
        <time>2020-09-12T08:54:05Z</time>
      </trkpt>
      <trkpt lat="41.0399420" lon="-2.4161650">
        <ele>1141.2</ele>
        <time>2020-09-12T08:54:06Z</time>
      </trkpt>
      <trkpt lat="41.0399370" lon="-2.4162260">
        <ele>1141.4</ele>
        <time>2020-09-12T08:54:07Z</time>
      </trkpt>
      <trkpt lat="41.0399310" lon="-2.4162860">
        <ele>1141.4</ele>
        <time>2020-09-12T08:54:08Z</time>
      </trkpt>
      <trkpt lat="41.0399260" lon="-2.4163460">
        <ele>1141.6</ele>
        <time>2020-09-12T08:54:09Z</time>
      </trkpt>
      <trkpt lat="41.0399200" lon="-2.4164040">
        <ele>1142.0</ele>
        <time>2020-09-12T08:54:10Z</time>
      </trkpt>
      <trkpt lat="41.0399150" lon="-2.4164610">
        <ele>1142.4</ele>
        <time>2020-09-12T08:54:11Z</time>
      </trkpt>
      <trkpt lat="41.0399100" lon="-2.4165170">
        <ele>1142.6</ele>
        <time>2020-09-12T08:54:12Z</time>
      </trkpt>
      <trkpt lat="41.0399050" lon="-2.4165750">
        <ele>1143.0</ele>
        <time>2020-09-12T08:54:13Z</time>
      </trkpt>
      <trkpt lat="41.0399000" lon="-2.4166330">
        <ele>1143.2</ele>
        <time>2020-09-12T08:54:14Z</time>
      </trkpt>
      <trkpt lat="41.0398970" lon="-2.4166930">
        <ele>1143.4</ele>
        <time>2020-09-12T08:54:15Z</time>
      </trkpt>
      <trkpt lat="41.0398930" lon="-2.4167530">
        <ele>1143.6</ele>
        <time>2020-09-12T08:54:16Z</time>
      </trkpt>
      <trkpt lat="41.0398880" lon="-2.4168130">
        <ele>1143.8</ele>
        <time>2020-09-12T08:54:17Z</time>
      </trkpt>
      <trkpt lat="41.0398820" lon="-2.4168730">
        <ele>1144.0</ele>
        <time>2020-09-12T08:54:18Z</time>
      </trkpt>
      <trkpt lat="41.0398770" lon="-2.4169320">
        <ele>1144.4</ele>
        <time>2020-09-12T08:54:19Z</time>
      </trkpt>
      <trkpt lat="41.0398720" lon="-2.4169900">
        <ele>1144.8</ele>
        <time>2020-09-12T08:54:20Z</time>
      </trkpt>
      <trkpt lat="41.0398680" lon="-2.4170490">
        <ele>1145.0</ele>
        <time>2020-09-12T08:54:21Z</time>
      </trkpt>
      <trkpt lat="41.0398630" lon="-2.4171080">
        <ele>1145.4</ele>
        <time>2020-09-12T08:54:22Z</time>
      </trkpt>
      <trkpt lat="41.0398600" lon="-2.4171650">
        <ele>1145.8</ele>
        <time>2020-09-12T08:54:23Z</time>
      </trkpt>
      <trkpt lat="41.0398550" lon="-2.4172230">
        <ele>1146.0</ele>
        <time>2020-09-12T08:54:24Z</time>
      </trkpt>
      <trkpt lat="41.0398510" lon="-2.4172810">
        <ele>1146.2</ele>
        <time>2020-09-12T08:54:25Z</time>
      </trkpt>
      <trkpt lat="41.0398470" lon="-2.4173390">
        <ele>1146.4</ele>
        <time>2020-09-12T08:54:26Z</time>
      </trkpt>
      <trkpt lat="41.0398440" lon="-2.4173960">
        <ele>1146.6</ele>
        <time>2020-09-12T08:54:27Z</time>
      </trkpt>
      <trkpt lat="41.0398420" lon="-2.4174540">
        <ele>1147.0</ele>
        <time>2020-09-12T08:54:28Z</time>
      </trkpt>
      <trkpt lat="41.0398400" lon="-2.4175110">
        <ele>1147.2</ele>
        <time>2020-09-12T08:54:29Z</time>
      </trkpt>
      <trkpt lat="41.0398390" lon="-2.4175670">
        <ele>1147.4</ele>
        <time>2020-09-12T08:54:30Z</time>
      </trkpt>
      <trkpt lat="41.0398380" lon="-2.4176240">
        <ele>1147.6</ele>
        <time>2020-09-12T08:54:31Z</time>
      </trkpt>
      <trkpt lat="41.0398370" lon="-2.4176800">
        <ele>1147.8</ele>
        <time>2020-09-12T08:54:32Z</time>
      </trkpt>
      <trkpt lat="41.0398360" lon="-2.4177360">
        <ele>1148.0</ele>
        <time>2020-09-12T08:54:33Z</time>
      </trkpt>
      <trkpt lat="41.0398350" lon="-2.4177920">
        <ele>1148.2</ele>
        <time>2020-09-12T08:54:34Z</time>
      </trkpt>
      <trkpt lat="41.0398360" lon="-2.4178480">
        <ele>1148.6</ele>
        <time>2020-09-12T08:54:35Z</time>
      </trkpt>
      <trkpt lat="41.0398380" lon="-2.4179030">
        <ele>1149.0</ele>
        <time>2020-09-12T08:54:36Z</time>
      </trkpt>
      <trkpt lat="41.0398410" lon="-2.4179580">
        <ele>1149.4</ele>
        <time>2020-09-12T08:54:37Z</time>
      </trkpt>
      <trkpt lat="41.0398430" lon="-2.4180140">
        <ele>1149.8</ele>
        <time>2020-09-12T08:54:38Z</time>
      </trkpt>
      <trkpt lat="41.0398470" lon="-2.4180700">
        <ele>1150.0</ele>
        <time>2020-09-12T08:54:39Z</time>
      </trkpt>
      <trkpt lat="41.0398510" lon="-2.4181260">
        <ele>1150.2</ele>
        <time>2020-09-12T08:54:40Z</time>
      </trkpt>
      <trkpt lat="41.0398550" lon="-2.4181830">
        <ele>1150.6</ele>
        <time>2020-09-12T08:54:41Z</time>
      </trkpt>
      <trkpt lat="41.0398610" lon="-2.4182400">
        <ele>1150.6</ele>
        <time>2020-09-12T08:54:42Z</time>
      </trkpt>
      <trkpt lat="41.0398680" lon="-2.4182970">
        <ele>1150.8</ele>
        <time>2020-09-12T08:54:43Z</time>
      </trkpt>
      <trkpt lat="41.0398760" lon="-2.4183540">
        <ele>1151.2</ele>
        <time>2020-09-12T08:54:44Z</time>
      </trkpt>
      <trkpt lat="41.0398840" lon="-2.4184100">
        <ele>1151.4</ele>
        <time>2020-09-12T08:54:45Z</time>
      </trkpt>
      <trkpt lat="41.0398920" lon="-2.4184670">
        <ele>1151.6</ele>
        <time>2020-09-12T08:54:46Z</time>
      </trkpt>
      <trkpt lat="41.0399000" lon="-2.4185210">
        <ele>1151.8</ele>
        <time>2020-09-12T08:54:47Z</time>
      </trkpt>
      <trkpt lat="41.0399080" lon="-2.4185750">
        <ele>1152.0</ele>
        <time>2020-09-12T08:54:48Z</time>
      </trkpt>
      <trkpt lat="41.0399180" lon="-2.4186270">
        <ele>1152.2</ele>
        <time>2020-09-12T08:54:49Z</time>
      </trkpt>
      <trkpt lat="41.0399280" lon="-2.4186780">
        <ele>1152.4</ele>
        <time>2020-09-12T08:54:50Z</time>
      </trkpt>
      <trkpt lat="41.0399390" lon="-2.4187260">
        <ele>1152.6</ele>
        <time>2020-09-12T08:54:51Z</time>
      </trkpt>
      <trkpt lat="41.0399490" lon="-2.4187750">
        <ele>1153.0</ele>
        <time>2020-09-12T08:54:52Z</time>
      </trkpt>
      <trkpt lat="41.0399600" lon="-2.4188250">
        <ele>1153.2</ele>
        <time>2020-09-12T08:54:53Z</time>
      </trkpt>
      <trkpt lat="41.0399720" lon="-2.4188750">
        <ele>1153.6</ele>
        <time>2020-09-12T08:54:54Z</time>
      </trkpt>
      <trkpt lat="41.0399860" lon="-2.4189270">
        <ele>1153.6</ele>
        <time>2020-09-12T08:54:55Z</time>
      </trkpt>
      <trkpt lat="41.0400000" lon="-2.4189790">
        <ele>1153.8</ele>
        <time>2020-09-12T08:54:56Z</time>
      </trkpt>
      <trkpt lat="41.0400150" lon="-2.4190300">
        <ele>1154.0</ele>
        <time>2020-09-12T08:54:57Z</time>
      </trkpt>
      <trkpt lat="41.0400300" lon="-2.4190810">
        <ele>1154.2</ele>
        <time>2020-09-12T08:54:58Z</time>
      </trkpt>
      <trkpt lat="41.0400460" lon="-2.4191320">
        <ele>1154.4</ele>
        <time>2020-09-12T08:54:59Z</time>
      </trkpt>
      <trkpt lat="41.0400630" lon="-2.4191820">
        <ele>1154.6</ele>
        <time>2020-09-12T08:55:00Z</time>
      </trkpt>
      <trkpt lat="41.0400800" lon="-2.4192320">
        <ele>1155.0</ele>
        <time>2020-09-12T08:55:01Z</time>
      </trkpt>
      <trkpt lat="41.0400990" lon="-2.4192820">
        <ele>1155.4</ele>
        <time>2020-09-12T08:55:02Z</time>
      </trkpt>
      <trkpt lat="41.0401180" lon="-2.4193300">
        <ele>1155.6</ele>
        <time>2020-09-12T08:55:03Z</time>
      </trkpt>
      <trkpt lat="41.0401380" lon="-2.4193770">
        <ele>1155.8</ele>
        <time>2020-09-12T08:55:04Z</time>
      </trkpt>
      <trkpt lat="41.0401600" lon="-2.4194230">
        <ele>1156.0</ele>
        <time>2020-09-12T08:55:05Z</time>
      </trkpt>
      <trkpt lat="41.0401810" lon="-2.4194690">
        <ele>1156.4</ele>
        <time>2020-09-12T08:55:06Z</time>
      </trkpt>
      <trkpt lat="41.0402040" lon="-2.4195140">
        <ele>1156.6</ele>
        <time>2020-09-12T08:55:07Z</time>
      </trkpt>
      <trkpt lat="41.0402260" lon="-2.4195590">
        <ele>1156.8</ele>
        <time>2020-09-12T08:55:08Z</time>
      </trkpt>
      <trkpt lat="41.0402470" lon="-2.4196030">
        <ele>1157.0</ele>
        <time>2020-09-12T08:55:09Z</time>
      </trkpt>
      <trkpt lat="41.0402690" lon="-2.4196480">
        <ele>1157.2</ele>
        <time>2020-09-12T08:55:10Z</time>
      </trkpt>
      <trkpt lat="41.0402910" lon="-2.4196920">
        <ele>1157.4</ele>
        <time>2020-09-12T08:55:11Z</time>
      </trkpt>
      <trkpt lat="41.0403130" lon="-2.4197340">
        <ele>1157.6</ele>
        <time>2020-09-12T08:55:12Z</time>
      </trkpt>
      <trkpt lat="41.0403360" lon="-2.4197770">
        <ele>1157.8</ele>
        <time>2020-09-12T08:55:13Z</time>
      </trkpt>
      <trkpt lat="41.0403590" lon="-2.4198200">
        <ele>1158.2</ele>
        <time>2020-09-12T08:55:14Z</time>
      </trkpt>
      <trkpt lat="41.0403830" lon="-2.4198620">
        <ele>1158.4</ele>
        <time>2020-09-12T08:55:15Z</time>
      </trkpt>
      <trkpt lat="41.0404070" lon="-2.4199060">
        <ele>1158.6</ele>
        <time>2020-09-12T08:55:16Z</time>
      </trkpt>
      <trkpt lat="41.0404320" lon="-2.4199510">
        <ele>1158.8</ele>
        <time>2020-09-12T08:55:17Z</time>
      </trkpt>
      <trkpt lat="41.0404570" lon="-2.4199970">
        <ele>1159.2</ele>
        <time>2020-09-12T08:55:18Z</time>
      </trkpt>
      <trkpt lat="41.0404820" lon="-2.4200410">
        <ele>1159.4</ele>
        <time>2020-09-12T08:55:19Z</time>
      </trkpt>
      <trkpt lat="41.0405060" lon="-2.4200860">
        <ele>1159.6</ele>
        <time>2020-09-12T08:55:20Z</time>
      </trkpt>
      <trkpt lat="41.0405290" lon="-2.4201310">
        <ele>1160.0</ele>
        <time>2020-09-12T08:55:21Z</time>
      </trkpt>
      <trkpt lat="41.0405530" lon="-2.4201760">
        <ele>1160.4</ele>
        <time>2020-09-12T08:55:22Z</time>
      </trkpt>
      <trkpt lat="41.0405780" lon="-2.4202220">
        <ele>1160.6</ele>
        <time>2020-09-12T08:55:23Z</time>
      </trkpt>
      <trkpt lat="41.0406030" lon="-2.4202670">
        <ele>1160.8</ele>
        <time>2020-09-12T08:55:24Z</time>
      </trkpt>
      <trkpt lat="41.0406280" lon="-2.4203130">
        <ele>1161.2</ele>
        <time>2020-09-12T08:55:25Z</time>
      </trkpt>
      <trkpt lat="41.0406520" lon="-2.4203590">
        <ele>1161.4</ele>
        <time>2020-09-12T08:55:26Z</time>
      </trkpt>
      <trkpt lat="41.0406760" lon="-2.4204040">
        <ele>1161.8</ele>
        <time>2020-09-12T08:55:27Z</time>
      </trkpt>
      <trkpt lat="41.0407000" lon="-2.4204490">
        <ele>1162.0</ele>
        <time>2020-09-12T08:55:28Z</time>
      </trkpt>
      <trkpt lat="41.0407250" lon="-2.4204950">
        <ele>1162.2</ele>
        <time>2020-09-12T08:55:29Z</time>
      </trkpt>
      <trkpt lat="41.0407490" lon="-2.4205420">
        <ele>1162.2</ele>
        <time>2020-09-12T08:55:30Z</time>
      </trkpt>
      <trkpt lat="41.0407730" lon="-2.4205880">
        <ele>1162.6</ele>
        <time>2020-09-12T08:55:31Z</time>
      </trkpt>
      <trkpt lat="41.0407970" lon="-2.4206340">
        <ele>1162.8</ele>
        <time>2020-09-12T08:55:32Z</time>
      </trkpt>
      <trkpt lat="41.0408200" lon="-2.4206810">
        <ele>1163.0</ele>
        <time>2020-09-12T08:55:33Z</time>
      </trkpt>
      <trkpt lat="41.0408430" lon="-2.4207280">
        <ele>1163.4</ele>
        <time>2020-09-12T08:55:34Z</time>
      </trkpt>
      <trkpt lat="41.0408650" lon="-2.4207740">
        <ele>1163.8</ele>
        <time>2020-09-12T08:55:35Z</time>
      </trkpt>
      <trkpt lat="41.0408880" lon="-2.4208200">
        <ele>1164.2</ele>
        <time>2020-09-12T08:55:36Z</time>
      </trkpt>
      <trkpt lat="41.0409080" lon="-2.4208670">
        <ele>1164.4</ele>
        <time>2020-09-12T08:55:37Z</time>
      </trkpt>
      <trkpt lat="41.0409280" lon="-2.4209130">
        <ele>1164.6</ele>
        <time>2020-09-12T08:55:38Z</time>
      </trkpt>
      <trkpt lat="41.0409490" lon="-2.4209590">
        <ele>1165.0</ele>
        <time>2020-09-12T08:55:39Z</time>
      </trkpt>
      <trkpt lat="41.0409690" lon="-2.4210060">
        <ele>1165.2</ele>
        <time>2020-09-12T08:55:40Z</time>
      </trkpt>
      <trkpt lat="41.0409870" lon="-2.4210530">
        <ele>1165.4</ele>
        <time>2020-09-12T08:55:41Z</time>
      </trkpt>
      <trkpt lat="41.0410070" lon="-2.4211000">
        <ele>1165.8</ele>
        <time>2020-09-12T08:55:42Z</time>
      </trkpt>
      <trkpt lat="41.0410260" lon="-2.4211480">
        <ele>1166.0</ele>
        <time>2020-09-12T08:55:43Z</time>
      </trkpt>
      <trkpt lat="41.0410450" lon="-2.4211970">
        <ele>1166.2</ele>
        <time>2020-09-12T08:55:44Z</time>
      </trkpt>
      <trkpt lat="41.0410620" lon="-2.4212460">
        <ele>1166.4</ele>
        <time>2020-09-12T08:55:45Z</time>
      </trkpt>
      <trkpt lat="41.0410800" lon="-2.4212960">
        <ele>1166.6</ele>
        <time>2020-09-12T08:55:46Z</time>
      </trkpt>
      <trkpt lat="41.0410960" lon="-2.4213470">
        <ele>1166.8</ele>
        <time>2020-09-12T08:55:47Z</time>
      </trkpt>
      <trkpt lat="41.0411120" lon="-2.4213980">
        <ele>1167.0</ele>
        <time>2020-09-12T08:55:48Z</time>
      </trkpt>
      <trkpt lat="41.0411270" lon="-2.4214490">
        <ele>1167.2</ele>
        <time>2020-09-12T08:55:49Z</time>
      </trkpt>
      <trkpt lat="41.0411420" lon="-2.4215000">
        <ele>1167.6</ele>
        <time>2020-09-12T08:55:50Z</time>
      </trkpt>
      <trkpt lat="41.0411560" lon="-2.4215510">
        <ele>1167.8</ele>
        <time>2020-09-12T08:55:51Z</time>
      </trkpt>
      <trkpt lat="41.0411710" lon="-2.4216010">
        <ele>1168.0</ele>
        <time>2020-09-12T08:55:52Z</time>
      </trkpt>
      <trkpt lat="41.0411850" lon="-2.4216510">
        <ele>1168.2</ele>
        <time>2020-09-12T08:55:53Z</time>
      </trkpt>
      <trkpt lat="41.0411980" lon="-2.4217010">
        <ele>1168.4</ele>
        <time>2020-09-12T08:55:54Z</time>
      </trkpt>
      <trkpt lat="41.0412110" lon="-2.4217510">
        <ele>1168.6</ele>
        <time>2020-09-12T08:55:55Z</time>
      </trkpt>
      <trkpt lat="41.0412220" lon="-2.4218010">
        <ele>1168.8</ele>
        <time>2020-09-12T08:55:56Z</time>
      </trkpt>
      <trkpt lat="41.0412330" lon="-2.4218510">
        <ele>1169.0</ele>
        <time>2020-09-12T08:55:57Z</time>
      </trkpt>
      <trkpt lat="41.0412440" lon="-2.4219010">
        <ele>1169.2</ele>
        <time>2020-09-12T08:55:58Z</time>
      </trkpt>
      <trkpt lat="41.0412550" lon="-2.4219500">
        <ele>1169.2</ele>
        <time>2020-09-12T08:55:59Z</time>
      </trkpt>
      <trkpt lat="41.0412660" lon="-2.4220010">
        <ele>1169.6</ele>
        <time>2020-09-12T08:56:00Z</time>
      </trkpt>
      <trkpt lat="41.0412780" lon="-2.4220550">
        <ele>1170.0</ele>
        <time>2020-09-12T08:56:01Z</time>
      </trkpt>
      <trkpt lat="41.0412910" lon="-2.4221090">
        <ele>1170.2</ele>
        <time>2020-09-12T08:56:02Z</time>
      </trkpt>
      <trkpt lat="41.0413040" lon="-2.4221630">
        <ele>1170.4</ele>
        <time>2020-09-12T08:56:03Z</time>
      </trkpt>
      <trkpt lat="41.0413160" lon="-2.4222170">
        <ele>1170.6</ele>
        <time>2020-09-12T08:56:04Z</time>
      </trkpt>
      <trkpt lat="41.0413270" lon="-2.4222700">
        <ele>1170.8</ele>
        <time>2020-09-12T08:56:05Z</time>
      </trkpt>
      <trkpt lat="41.0413390" lon="-2.4223220">
        <ele>1171.0</ele>
        <time>2020-09-12T08:56:06Z</time>
      </trkpt>
      <trkpt lat="41.0413520" lon="-2.4223730">
        <ele>1171.2</ele>
        <time>2020-09-12T08:56:07Z</time>
      </trkpt>
      <trkpt lat="41.0413630" lon="-2.4224240">
        <ele>1171.4</ele>
        <time>2020-09-12T08:56:08Z</time>
      </trkpt>
      <trkpt lat="41.0413740" lon="-2.4224750">
        <ele>1171.6</ele>
        <time>2020-09-12T08:56:09Z</time>
      </trkpt>
      <trkpt lat="41.0413850" lon="-2.4225260">
        <ele>1172.0</ele>
        <time>2020-09-12T08:56:10Z</time>
      </trkpt>
      <trkpt lat="41.0413970" lon="-2.4225750">
        <ele>1172.2</ele>
        <time>2020-09-12T08:56:11Z</time>
      </trkpt>
      <trkpt lat="41.0414090" lon="-2.4226250">
        <ele>1172.4</ele>
        <time>2020-09-12T08:56:12Z</time>
      </trkpt>
      <trkpt lat="41.0414210" lon="-2.4226750">
        <ele>1172.6</ele>
        <time>2020-09-12T08:56:13Z</time>
      </trkpt>
      <trkpt lat="41.0414330" lon="-2.4227250">
        <ele>1172.8</ele>
        <time>2020-09-12T08:56:14Z</time>
      </trkpt>
      <trkpt lat="41.0414450" lon="-2.4227750">
        <ele>1173.2</ele>
        <time>2020-09-12T08:56:15Z</time>
      </trkpt>
      <trkpt lat="41.0414570" lon="-2.4228250">
        <ele>1173.6</ele>
        <time>2020-09-12T08:56:16Z</time>
      </trkpt>
      <trkpt lat="41.0414680" lon="-2.4228750">
        <ele>1173.8</ele>
        <time>2020-09-12T08:56:17Z</time>
      </trkpt>
      <trkpt lat="41.0414800" lon="-2.4229260">
        <ele>1174.0</ele>
        <time>2020-09-12T08:56:18Z</time>
      </trkpt>
      <trkpt lat="41.0414930" lon="-2.4229750">
        <ele>1174.2</ele>
        <time>2020-09-12T08:56:19Z</time>
      </trkpt>
      <trkpt lat="41.0415070" lon="-2.4230230">
        <ele>1174.4</ele>
        <time>2020-09-12T08:56:20Z</time>
      </trkpt>
      <trkpt lat="41.0415190" lon="-2.4230720">
        <ele>1174.4</ele>
        <time>2020-09-12T08:56:21Z</time>
      </trkpt>
      <trkpt lat="41.0415310" lon="-2.4231220">
        <ele>1174.8</ele>
        <time>2020-09-12T08:56:22Z</time>
      </trkpt>
      <trkpt lat="41.0415420" lon="-2.4231710">
        <ele>1175.0</ele>
        <time>2020-09-12T08:56:23Z</time>
      </trkpt>
      <trkpt lat="41.0415550" lon="-2.4232190">
        <ele>1175.2</ele>
        <time>2020-09-12T08:56:24Z</time>
      </trkpt>
      <trkpt lat="41.0415680" lon="-2.4232670">
        <ele>1175.4</ele>
        <time>2020-09-12T08:56:25Z</time>
      </trkpt>
      <trkpt lat="41.0415820" lon="-2.4233150">
        <ele>1175.8</ele>
        <time>2020-09-12T08:56:26Z</time>
      </trkpt>
      <trkpt lat="41.0415950" lon="-2.4233620">
        <ele>1176.0</ele>
        <time>2020-09-12T08:56:27Z</time>
      </trkpt>
      <trkpt lat="41.0416060" lon="-2.4234100">
        <ele>1176.2</ele>
        <time>2020-09-12T08:56:28Z</time>
      </trkpt>
      <trkpt lat="41.0416190" lon="-2.4234580">
        <ele>1176.4</ele>
        <time>2020-09-12T08:56:29Z</time>
      </trkpt>
      <trkpt lat="41.0416320" lon="-2.4235060">
        <ele>1176.6</ele>
        <time>2020-09-12T08:56:30Z</time>
      </trkpt>
      <trkpt lat="41.0416450" lon="-2.4235540">
        <ele>1176.8</ele>
        <time>2020-09-12T08:56:31Z</time>
      </trkpt>
      <trkpt lat="41.0416580" lon="-2.4236020">
        <ele>1177.0</ele>
        <time>2020-09-12T08:56:32Z</time>
      </trkpt>
      <trkpt lat="41.0416710" lon="-2.4236510">
        <ele>1177.2</ele>
        <time>2020-09-12T08:56:33Z</time>
      </trkpt>
      <trkpt lat="41.0416850" lon="-2.4237010">
        <ele>1177.4</ele>
        <time>2020-09-12T08:56:34Z</time>
      </trkpt>
      <trkpt lat="41.0417000" lon="-2.4237510">
        <ele>1177.8</ele>
        <time>2020-09-12T08:56:35Z</time>
      </trkpt>
      <trkpt lat="41.0417150" lon="-2.4238020">
        <ele>1178.0</ele>
        <time>2020-09-12T08:56:36Z</time>
      </trkpt>
      <trkpt lat="41.0417290" lon="-2.4238530">
        <ele>1178.4</ele>
        <time>2020-09-12T08:56:37Z</time>
      </trkpt>
      <trkpt lat="41.0417450" lon="-2.4239040">
        <ele>1178.4</ele>
        <time>2020-09-12T08:56:38Z</time>
      </trkpt>
      <trkpt lat="41.0417610" lon="-2.4239570">
        <ele>1178.6</ele>
        <time>2020-09-12T08:56:39Z</time>
      </trkpt>
      <trkpt lat="41.0417790" lon="-2.4240100">
        <ele>1178.6</ele>
        <time>2020-09-12T08:56:40Z</time>
      </trkpt>
      <trkpt lat="41.0417970" lon="-2.4240660">
        <ele>1178.8</ele>
        <time>2020-09-12T08:56:41Z</time>
      </trkpt>
      <trkpt lat="41.0418140" lon="-2.4241210">
        <ele>1178.8</ele>
        <time>2020-09-12T08:56:42Z</time>
      </trkpt>
      <trkpt lat="41.0418310" lon="-2.4241780">
        <ele>1179.0</ele>
        <time>2020-09-12T08:56:43Z</time>
      </trkpt>
      <trkpt lat="41.0418480" lon="-2.4242350">
        <ele>1179.2</ele>
        <time>2020-09-12T08:56:44Z</time>
      </trkpt>
      <trkpt lat="41.0418670" lon="-2.4242940">
        <ele>1179.6</ele>
        <time>2020-09-12T08:56:45Z</time>
      </trkpt>
      <trkpt lat="41.0418860" lon="-2.4243520">
        <ele>1179.8</ele>
        <time>2020-09-12T08:56:46Z</time>
      </trkpt>
      <trkpt lat="41.0419050" lon="-2.4244110">
        <ele>1180.0</ele>
        <time>2020-09-12T08:56:47Z</time>
      </trkpt>
      <trkpt lat="41.0419250" lon="-2.4244710">
        <ele>1180.2</ele>
        <time>2020-09-12T08:56:48Z</time>
      </trkpt>
      <trkpt lat="41.0419440" lon="-2.4245330">
        <ele>1180.4</ele>
        <time>2020-09-12T08:56:49Z</time>
      </trkpt>
      <trkpt lat="41.0419630" lon="-2.4245960">
        <ele>1180.6</ele>
        <time>2020-09-12T08:56:50Z</time>
      </trkpt>
      <trkpt lat="41.0419850" lon="-2.4246580">
        <ele>1181.0</ele>
        <time>2020-09-12T08:56:51Z</time>
      </trkpt>
      <trkpt lat="41.0420060" lon="-2.4247190">
        <ele>1181.2</ele>
        <time>2020-09-12T08:56:52Z</time>
      </trkpt>
      <trkpt lat="41.0420260" lon="-2.4247820">
        <ele>1181.4</ele>
        <time>2020-09-12T08:56:53Z</time>
      </trkpt>
      <trkpt lat="41.0420460" lon="-2.4248440">
        <ele>1181.6</ele>
        <time>2020-09-12T08:56:54Z</time>
      </trkpt>
      <trkpt lat="41.0420670" lon="-2.4249060">
        <ele>1181.8</ele>
        <time>2020-09-12T08:56:55Z</time>
      </trkpt>
      <trkpt lat="41.0420890" lon="-2.4249680">
        <ele>1181.8</ele>
        <time>2020-09-12T08:56:56Z</time>
      </trkpt>
      <trkpt lat="41.0421110" lon="-2.4250300">
        <ele>1182.0</ele>
        <time>2020-09-12T08:56:57Z</time>
      </trkpt>
      <trkpt lat="41.0421330" lon="-2.4250920">
        <ele>1182.0</ele>
        <time>2020-09-12T08:56:58Z</time>
      </trkpt>
      <trkpt lat="41.0421560" lon="-2.4251540">
        <ele>1182.2</ele>
        <time>2020-09-12T08:56:59Z</time>
      </trkpt>
      <trkpt lat="41.0421790" lon="-2.4252180">
        <ele>1182.4</ele>
        <time>2020-09-12T08:57:00Z</time>
      </trkpt>
      <trkpt lat="41.0422040" lon="-2.4252830">
        <ele>1182.4</ele>
        <time>2020-09-12T08:57:01Z</time>
      </trkpt>
      <trkpt lat="41.0422290" lon="-2.4253500">
        <ele>1182.6</ele>
        <time>2020-09-12T08:57:02Z</time>
      </trkpt>
      <trkpt lat="41.0422550" lon="-2.4254180">
        <ele>1182.6</ele>
        <time>2020-09-12T08:57:03Z</time>
      </trkpt>
      <trkpt lat="41.0422820" lon="-2.4254880">
        <ele>1182.8</ele>
        <time>2020-09-12T08:57:04Z</time>
      </trkpt>
      <trkpt lat="41.0423090" lon="-2.4255580">
        <ele>1182.8</ele>
        <time>2020-09-12T08:57:05Z</time>
      </trkpt>
      <trkpt lat="41.0423370" lon="-2.4256280">
        <ele>1182.8</ele>
        <time>2020-09-12T08:57:06Z</time>
      </trkpt>
      <trkpt lat="41.0423660" lon="-2.4257000">
        <ele>1183.0</ele>
        <time>2020-09-12T08:57:07Z</time>
      </trkpt>
      <trkpt lat="41.0423930" lon="-2.4257710">
        <ele>1183.0</ele>
        <time>2020-09-12T08:57:08Z</time>
      </trkpt>
      <trkpt lat="41.0424210" lon="-2.4258440">
        <ele>1183.2</ele>
        <time>2020-09-12T08:57:09Z</time>
      </trkpt>
      <trkpt lat="41.0424500" lon="-2.4259160">
        <ele>1183.2</ele>
        <time>2020-09-12T08:57:10Z</time>
      </trkpt>
      <trkpt lat="41.0424780" lon="-2.4259890">
        <ele>1183.2</ele>
        <time>2020-09-12T08:57:11Z</time>
      </trkpt>
      <trkpt lat="41.0425070" lon="-2.4260630">
        <ele>1183.2</ele>
        <time>2020-09-12T08:57:12Z</time>
      </trkpt>
      <trkpt lat="41.0425350" lon="-2.4261370">
        <ele>1183.2</ele>
        <time>2020-09-12T08:57:13Z</time>
      </trkpt>
      <trkpt lat="41.0425630" lon="-2.4262100">
        <ele>1183.2</ele>
        <time>2020-09-12T08:57:14Z</time>
      </trkpt>
      <trkpt lat="41.0425920" lon="-2.4262840">
        <ele>1183.2</ele>
        <time>2020-09-12T08:57:15Z</time>
      </trkpt>
      <trkpt lat="41.0426200" lon="-2.4263570">
        <ele>1183.2</ele>
        <time>2020-09-12T08:57:16Z</time>
      </trkpt>
      <trkpt lat="41.0426480" lon="-2.4264320">
        <ele>1183.0</ele>
        <time>2020-09-12T08:57:17Z</time>
      </trkpt>
      <trkpt lat="41.0426740" lon="-2.4265070">
        <ele>1183.2</ele>
        <time>2020-09-12T08:57:18Z</time>
      </trkpt>
      <trkpt lat="41.0427000" lon="-2.4265820">
        <ele>1183.0</ele>
        <time>2020-09-12T08:57:19Z</time>
      </trkpt>
      <trkpt lat="41.0427250" lon="-2.4266550">
        <ele>1183.0</ele>
        <time>2020-09-12T08:57:20Z</time>
      </trkpt>
      <trkpt lat="41.0427480" lon="-2.4267280">
        <ele>1183.0</ele>
        <time>2020-09-12T08:57:21Z</time>
      </trkpt>
      <trkpt lat="41.0427720" lon="-2.4267990">
        <ele>1182.8</ele>
        <time>2020-09-12T08:57:22Z</time>
      </trkpt>
      <trkpt lat="41.0427960" lon="-2.4268710">
        <ele>1182.8</ele>
        <time>2020-09-12T08:57:23Z</time>
      </trkpt>
      <trkpt lat="41.0428200" lon="-2.4269430">
        <ele>1182.6</ele>
        <time>2020-09-12T08:57:24Z</time>
      </trkpt>
      <trkpt lat="41.0428430" lon="-2.4270180">
        <ele>1182.6</ele>
        <time>2020-09-12T08:57:25Z</time>
      </trkpt>
      <trkpt lat="41.0428640" lon="-2.4270920">
        <ele>1182.6</ele>
        <time>2020-09-12T08:57:26Z</time>
      </trkpt>
      <trkpt lat="41.0428840" lon="-2.4271650">
        <ele>1182.4</ele>
        <time>2020-09-12T08:57:27Z</time>
      </trkpt>
      <trkpt lat="41.0429040" lon="-2.4272390">
        <ele>1182.4</ele>
        <time>2020-09-12T08:57:28Z</time>
      </trkpt>
      <trkpt lat="41.0429220" lon="-2.4273110">
        <ele>1182.4</ele>
        <time>2020-09-12T08:57:29Z</time>
      </trkpt>
      <trkpt lat="41.0429380" lon="-2.4273830">
        <ele>1182.6</ele>
        <time>2020-09-12T08:57:30Z</time>
      </trkpt>
      <trkpt lat="41.0429540" lon="-2.4274550">
        <ele>1182.6</ele>
        <time>2020-09-12T08:57:31Z</time>
      </trkpt>
      <trkpt lat="41.0429700" lon="-2.4275250">
        <ele>1182.8</ele>
        <time>2020-09-12T08:57:32Z</time>
      </trkpt>
      <trkpt lat="41.0429850" lon="-2.4275960">
        <ele>1183.0</ele>
        <time>2020-09-12T08:57:33Z</time>
      </trkpt>
      <trkpt lat="41.0429960" lon="-2.4276670">
        <ele>1183.2</ele>
        <time>2020-09-12T08:57:34Z</time>
      </trkpt>
      <trkpt lat="41.0430070" lon="-2.4277360">
        <ele>1183.4</ele>
        <time>2020-09-12T08:57:35Z</time>
      </trkpt>
      <trkpt lat="41.0430170" lon="-2.4278050">
        <ele>1183.8</ele>
        <time>2020-09-12T08:57:36Z</time>
      </trkpt>
      <trkpt lat="41.0430240" lon="-2.4278730">
        <ele>1184.0</ele>
        <time>2020-09-12T08:57:37Z</time>
      </trkpt>
      <trkpt lat="41.0430300" lon="-2.4279410">
        <ele>1184.0</ele>
        <time>2020-09-12T08:57:38Z</time>
      </trkpt>
      <trkpt lat="41.0430350" lon="-2.4280080">
        <ele>1184.0</ele>
        <time>2020-09-12T08:57:39Z</time>
      </trkpt>
      <trkpt lat="41.0430400" lon="-2.4280750">
        <ele>1184.2</ele>
        <time>2020-09-12T08:57:40Z</time>
      </trkpt>
      <trkpt lat="41.0430440" lon="-2.4281400">
        <ele>1184.2</ele>
        <time>2020-09-12T08:57:41Z</time>
      </trkpt>
      <trkpt lat="41.0430480" lon="-2.4282040">
        <ele>1184.4</ele>
        <time>2020-09-12T08:57:42Z</time>
      </trkpt>
      <trkpt lat="41.0430520" lon="-2.4282680">
        <ele>1184.4</ele>
        <time>2020-09-12T08:57:43Z</time>
      </trkpt>
      <trkpt lat="41.0430550" lon="-2.4283310">
        <ele>1184.6</ele>
        <time>2020-09-12T08:57:44Z</time>
      </trkpt>
      <trkpt lat="41.0430580" lon="-2.4283930">
        <ele>1185.0</ele>
        <time>2020-09-12T08:57:45Z</time>
      </trkpt>
      <trkpt lat="41.0430570" lon="-2.4284550">
        <ele>1185.2</ele>
        <time>2020-09-12T08:57:46Z</time>
      </trkpt>
      <trkpt lat="41.0430550" lon="-2.4285170">
        <ele>1185.2</ele>
        <time>2020-09-12T08:57:47Z</time>
      </trkpt>
      <trkpt lat="41.0430530" lon="-2.4285780">
        <ele>1185.4</ele>
        <time>2020-09-12T08:57:48Z</time>
      </trkpt>
      <trkpt lat="41.0430500" lon="-2.4286410">
        <ele>1185.6</ele>
        <time>2020-09-12T08:57:49Z</time>
      </trkpt>
      <trkpt lat="41.0430470" lon="-2.4287070">
        <ele>1185.6</ele>
        <time>2020-09-12T08:57:50Z</time>
      </trkpt>
      <trkpt lat="41.0430410" lon="-2.4287760">
        <ele>1185.8</ele>
        <time>2020-09-12T08:57:51Z</time>
      </trkpt>
      <trkpt lat="41.0430350" lon="-2.4288470">
        <ele>1186.0</ele>
        <time>2020-09-12T08:57:52Z</time>
      </trkpt>
      <trkpt lat="41.0430270" lon="-2.4289200">
        <ele>1186.2</ele>
        <time>2020-09-12T08:57:53Z</time>
      </trkpt>
      <trkpt lat="41.0430190" lon="-2.4289930">
        <ele>1186.4</ele>
        <time>2020-09-12T08:57:54Z</time>
      </trkpt>
      <trkpt lat="41.0430090" lon="-2.4290640">
        <ele>1186.8</ele>
        <time>2020-09-12T08:57:55Z</time>
      </trkpt>
      <trkpt lat="41.0429990" lon="-2.4291340">
        <ele>1187.2</ele>
        <time>2020-09-12T08:57:56Z</time>
      </trkpt>
      <trkpt lat="41.0429900" lon="-2.4292020">
        <ele>1187.4</ele>
        <time>2020-09-12T08:57:57Z</time>
      </trkpt>
      <trkpt lat="41.0429780" lon="-2.4292680">
        <ele>1187.6</ele>
        <time>2020-09-12T08:57:58Z</time>
      </trkpt>
      <trkpt lat="41.0429650" lon="-2.4293340">
        <ele>1188.0</ele>
        <time>2020-09-12T08:57:59Z</time>
      </trkpt>
      <trkpt lat="41.0429540" lon="-2.4294000">
        <ele>1188.0</ele>
        <time>2020-09-12T08:58:00Z</time>
      </trkpt>
      <trkpt lat="41.0429430" lon="-2.4294660">
        <ele>1188.2</ele>
        <time>2020-09-12T08:58:01Z</time>
      </trkpt>
      <trkpt lat="41.0429330" lon="-2.4295310">
        <ele>1188.4</ele>
        <time>2020-09-12T08:58:02Z</time>
      </trkpt>
      <trkpt lat="41.0429230" lon="-2.4295980">
        <ele>1188.6</ele>
        <time>2020-09-12T08:58:03Z</time>
      </trkpt>
      <trkpt lat="41.0429130" lon="-2.4296640">
        <ele>1188.8</ele>
        <time>2020-09-12T08:58:04Z</time>
      </trkpt>
      <trkpt lat="41.0429000" lon="-2.4297310">
        <ele>1189.0</ele>
        <time>2020-09-12T08:58:05Z</time>
      </trkpt>
      <trkpt lat="41.0428880" lon="-2.4297980">
        <ele>1189.4</ele>
        <time>2020-09-12T08:58:06Z</time>
      </trkpt>
      <trkpt lat="41.0428790" lon="-2.4298650">
        <ele>1189.6</ele>
        <time>2020-09-12T08:58:07Z</time>
      </trkpt>
      <trkpt lat="41.0428740" lon="-2.4299330">
        <ele>1189.8</ele>
        <time>2020-09-12T08:58:08Z</time>
      </trkpt>
      <trkpt lat="41.0428690" lon="-2.4300020">
        <ele>1190.0</ele>
        <time>2020-09-12T08:58:09Z</time>
      </trkpt>
      <trkpt lat="41.0428600" lon="-2.4300710">
        <ele>1190.2</ele>
        <time>2020-09-12T08:58:10Z</time>
      </trkpt>
      <trkpt lat="41.0428490" lon="-2.4301400">
        <ele>1190.4</ele>
        <time>2020-09-12T08:58:11Z</time>
      </trkpt>
      <trkpt lat="41.0428380" lon="-2.4302090">
        <ele>1190.6</ele>
        <time>2020-09-12T08:58:12Z</time>
      </trkpt>
      <trkpt lat="41.0428260" lon="-2.4302790">
        <ele>1190.8</ele>
        <time>2020-09-12T08:58:13Z</time>
      </trkpt>
      <trkpt lat="41.0428130" lon="-2.4303490">
        <ele>1191.0</ele>
        <time>2020-09-12T08:58:14Z</time>
      </trkpt>
      <trkpt lat="41.0428000" lon="-2.4304190">
        <ele>1191.0</ele>
        <time>2020-09-12T08:58:15Z</time>
      </trkpt>
      <trkpt lat="41.0427870" lon="-2.4304900">
        <ele>1191.2</ele>
        <time>2020-09-12T08:58:16Z</time>
      </trkpt>
      <trkpt lat="41.0427730" lon="-2.4305600">
        <ele>1191.4</ele>
        <time>2020-09-12T08:58:17Z</time>
      </trkpt>
      <trkpt lat="41.0427590" lon="-2.4306310">
        <ele>1191.6</ele>
        <time>2020-09-12T08:58:18Z</time>
      </trkpt>
      <trkpt lat="41.0427450" lon="-2.4307000">
        <ele>1191.8</ele>
        <time>2020-09-12T08:58:19Z</time>
      </trkpt>
      <trkpt lat="41.0427320" lon="-2.4307690">
        <ele>1191.8</ele>
        <time>2020-09-12T08:58:20Z</time>
      </trkpt>
      <trkpt lat="41.0427180" lon="-2.4308380">
        <ele>1192.0</ele>
        <time>2020-09-12T08:58:21Z</time>
      </trkpt>
      <trkpt lat="41.0427030" lon="-2.4309080">
        <ele>1192.0</ele>
        <time>2020-09-12T08:58:22Z</time>
      </trkpt>
      <trkpt lat="41.0426870" lon="-2.4309760">
        <ele>1192.0</ele>
        <time>2020-09-12T08:58:23Z</time>
      </trkpt>
      <trkpt lat="41.0426720" lon="-2.4310440">
        <ele>1192.0</ele>
        <time>2020-09-12T08:58:24Z</time>
      </trkpt>
      <trkpt lat="41.0426560" lon="-2.4311100">
        <ele>1192.0</ele>
        <time>2020-09-12T08:58:25Z</time>
      </trkpt>
      <trkpt lat="41.0426390" lon="-2.4311760">
        <ele>1192.2</ele>
        <time>2020-09-12T08:58:26Z</time>
      </trkpt>
      <trkpt lat="41.0426220" lon="-2.4312430">
        <ele>1192.4</ele>
        <time>2020-09-12T08:58:27Z</time>
      </trkpt>
      <trkpt lat="41.0426060" lon="-2.4313100">
        <ele>1192.6</ele>
        <time>2020-09-12T08:58:28Z</time>
      </trkpt>
      <trkpt lat="41.0425930" lon="-2.4313780">
        <ele>1192.8</ele>
        <time>2020-09-12T08:58:29Z</time>
      </trkpt>
      <trkpt lat="41.0425810" lon="-2.4314490">
        <ele>1193.0</ele>
        <time>2020-09-12T08:58:30Z</time>
      </trkpt>
      <trkpt lat="41.0425680" lon="-2.4315220">
        <ele>1193.0</ele>
        <time>2020-09-12T08:58:31Z</time>
      </trkpt>
      <trkpt lat="41.0425560" lon="-2.4315960">
        <ele>1193.0</ele>
        <time>2020-09-12T08:58:32Z</time>
      </trkpt>
      <trkpt lat="41.0425440" lon="-2.4316710">
        <ele>1193.0</ele>
        <time>2020-09-12T08:58:33Z</time>
      </trkpt>
      <trkpt lat="41.0425300" lon="-2.4317490">
        <ele>1193.0</ele>
        <time>2020-09-12T08:58:34Z</time>
      </trkpt>
      <trkpt lat="41.0425150" lon="-2.4318280">
        <ele>1193.0</ele>
        <time>2020-09-12T08:58:35Z</time>
      </trkpt>
      <trkpt lat="41.0425010" lon="-2.4319100">
        <ele>1193.2</ele>
        <time>2020-09-12T08:58:36Z</time>
      </trkpt>
      <trkpt lat="41.0424860" lon="-2.4319950">
        <ele>1193.2</ele>
        <time>2020-09-12T08:58:37Z</time>
      </trkpt>
      <trkpt lat="41.0424710" lon="-2.4320830">
        <ele>1193.2</ele>
        <time>2020-09-12T08:58:38Z</time>
      </trkpt>
      <trkpt lat="41.0424560" lon="-2.4321740">
        <ele>1193.2</ele>
        <time>2020-09-12T08:58:39Z</time>
      </trkpt>
      <trkpt lat="41.0424400" lon="-2.4322650">
        <ele>1193.2</ele>
        <time>2020-09-12T08:58:40Z</time>
      </trkpt>
      <trkpt lat="41.0424240" lon="-2.4323570">
        <ele>1193.2</ele>
        <time>2020-09-12T08:58:41Z</time>
      </trkpt>
      <trkpt lat="41.0424080" lon="-2.4324500">
        <ele>1193.2</ele>
        <time>2020-09-12T08:58:42Z</time>
      </trkpt>
      <trkpt lat="41.0423920" lon="-2.4325460">
        <ele>1193.0</ele>
        <time>2020-09-12T08:58:43Z</time>
      </trkpt>
      <trkpt lat="41.0423750" lon="-2.4326420">
        <ele>1193.0</ele>
        <time>2020-09-12T08:58:44Z</time>
      </trkpt>
      <trkpt lat="41.0423560" lon="-2.4327370">
        <ele>1193.0</ele>
        <time>2020-09-12T08:58:45Z</time>
      </trkpt>
      <trkpt lat="41.0423380" lon="-2.4328330">
        <ele>1192.8</ele>
        <time>2020-09-12T08:58:46Z</time>
      </trkpt>
      <trkpt lat="41.0423210" lon="-2.4329310">
        <ele>1192.8</ele>
        <time>2020-09-12T08:58:47Z</time>
      </trkpt>
      <trkpt lat="41.0423040" lon="-2.4330280">
        <ele>1192.8</ele>
        <time>2020-09-12T08:58:48Z</time>
      </trkpt>
      <trkpt lat="41.0422870" lon="-2.4331250">
        <ele>1193.0</ele>
        <time>2020-09-12T08:58:49Z</time>
      </trkpt>
      <trkpt lat="41.0422710" lon="-2.4332230">
        <ele>1193.0</ele>
        <time>2020-09-12T08:58:50Z</time>
      </trkpt>
      <trkpt lat="41.0422540" lon="-2.4333220">
        <ele>1193.2</ele>
        <time>2020-09-12T08:58:51Z</time>
      </trkpt>
      <trkpt lat="41.0422360" lon="-2.4334190">
        <ele>1193.2</ele>
        <time>2020-09-12T08:58:52Z</time>
      </trkpt>
      <trkpt lat="41.0422180" lon="-2.4335170">
        <ele>1193.2</ele>
        <time>2020-09-12T08:58:53Z</time>
      </trkpt>
      <trkpt lat="41.0421990" lon="-2.4336150">
        <ele>1193.0</ele>
        <time>2020-09-12T08:58:54Z</time>
      </trkpt>
      <trkpt lat="41.0421810" lon="-2.4337120">
        <ele>1193.2</ele>
        <time>2020-09-12T08:58:55Z</time>
      </trkpt>
      <trkpt lat="41.0421640" lon="-2.4338080">
        <ele>1193.0</ele>
        <time>2020-09-12T08:58:56Z</time>
      </trkpt>
      <trkpt lat="41.0421470" lon="-2.4339030">
        <ele>1192.8</ele>
        <time>2020-09-12T08:58:57Z</time>
      </trkpt>
      <trkpt lat="41.0421310" lon="-2.4339960">
        <ele>1192.6</ele>
        <time>2020-09-12T08:58:58Z</time>
      </trkpt>
      <trkpt lat="41.0421150" lon="-2.4340900">
        <ele>1192.6</ele>
        <time>2020-09-12T08:58:59Z</time>
      </trkpt>
      <trkpt lat="41.0420980" lon="-2.4341850">
        <ele>1192.6</ele>
        <time>2020-09-12T08:59:00Z</time>
      </trkpt>
      <trkpt lat="41.0420800" lon="-2.4342790">
        <ele>1192.4</ele>
        <time>2020-09-12T08:59:01Z</time>
      </trkpt>
      <trkpt lat="41.0420630" lon="-2.4343700">
        <ele>1192.2</ele>
        <time>2020-09-12T08:59:02Z</time>
      </trkpt>
      <trkpt lat="41.0420470" lon="-2.4344610">
        <ele>1191.8</ele>
        <time>2020-09-12T08:59:03Z</time>
      </trkpt>
      <trkpt lat="41.0420320" lon="-2.4345520">
        <ele>1191.6</ele>
        <time>2020-09-12T08:59:04Z</time>
      </trkpt>
      <trkpt lat="41.0420160" lon="-2.4346430">
        <ele>1191.4</ele>
        <time>2020-09-12T08:59:05Z</time>
      </trkpt>
      <trkpt lat="41.0419980" lon="-2.4347370">
        <ele>1191.4</ele>
        <time>2020-09-12T08:59:06Z</time>
      </trkpt>
      <trkpt lat="41.0419810" lon="-2.4348320">
        <ele>1191.4</ele>
        <time>2020-09-12T08:59:07Z</time>
      </trkpt>
      <trkpt lat="41.0419630" lon="-2.4349280">
        <ele>1191.4</ele>
        <time>2020-09-12T08:59:08Z</time>
      </trkpt>
      <trkpt lat="41.0419460" lon="-2.4350240">
        <ele>1191.4</ele>
        <time>2020-09-12T08:59:09Z</time>
      </trkpt>
      <trkpt lat="41.0419280" lon="-2.4351220">
        <ele>1191.4</ele>
        <time>2020-09-12T08:59:10Z</time>
      </trkpt>
      <trkpt lat="41.0419110" lon="-2.4352200">
        <ele>1191.4</ele>
        <time>2020-09-12T08:59:11Z</time>
      </trkpt>
      <trkpt lat="41.0418930" lon="-2.4353180">
        <ele>1191.4</ele>
        <time>2020-09-12T08:59:12Z</time>
      </trkpt>
      <trkpt lat="41.0418760" lon="-2.4354140">
        <ele>1191.4</ele>
        <time>2020-09-12T08:59:13Z</time>
      </trkpt>
      <trkpt lat="41.0418590" lon="-2.4355080">
        <ele>1191.4</ele>
        <time>2020-09-12T08:59:14Z</time>
      </trkpt>
      <trkpt lat="41.0418420" lon="-2.4356000">
        <ele>1191.4</ele>
        <time>2020-09-12T08:59:15Z</time>
      </trkpt>
      <trkpt lat="41.0418260" lon="-2.4356910">
        <ele>1191.4</ele>
        <time>2020-09-12T08:59:16Z</time>
      </trkpt>
      <trkpt lat="41.0418110" lon="-2.4357840">
        <ele>1191.4</ele>
        <time>2020-09-12T08:59:17Z</time>
      </trkpt>
      <trkpt lat="41.0417940" lon="-2.4358780">
        <ele>1191.4</ele>
        <time>2020-09-12T08:59:18Z</time>
      </trkpt>
      <trkpt lat="41.0417780" lon="-2.4359750">
        <ele>1191.4</ele>
        <time>2020-09-12T08:59:19Z</time>
      </trkpt>
      <trkpt lat="41.0417620" lon="-2.4360720">
        <ele>1191.4</ele>
        <time>2020-09-12T08:59:20Z</time>
      </trkpt>
      <trkpt lat="41.0417450" lon="-2.4361720">
        <ele>1191.4</ele>
        <time>2020-09-12T08:59:21Z</time>
      </trkpt>
      <trkpt lat="41.0417290" lon="-2.4362730">
        <ele>1191.0</ele>
        <time>2020-09-12T08:59:22Z</time>
      </trkpt>
      <trkpt lat="41.0417120" lon="-2.4363740">
        <ele>1190.8</ele>
        <time>2020-09-12T08:59:23Z</time>
      </trkpt>
      <trkpt lat="41.0416960" lon="-2.4364760">
        <ele>1190.8</ele>
        <time>2020-09-12T08:59:24Z</time>
      </trkpt>
      <trkpt lat="41.0416780" lon="-2.4365740">
        <ele>1190.6</ele>
        <time>2020-09-12T08:59:25Z</time>
      </trkpt>
      <trkpt lat="41.0416610" lon="-2.4366720">
        <ele>1190.6</ele>
        <time>2020-09-12T08:59:26Z</time>
      </trkpt>
      <trkpt lat="41.0416430" lon="-2.4367670">
        <ele>1190.4</ele>
        <time>2020-09-12T08:59:27Z</time>
      </trkpt>
      <trkpt lat="41.0416270" lon="-2.4368590">
        <ele>1190.4</ele>
        <time>2020-09-12T08:59:28Z</time>
      </trkpt>
      <trkpt lat="41.0416110" lon="-2.4369500">
        <ele>1190.4</ele>
        <time>2020-09-12T08:59:29Z</time>
      </trkpt>
      <trkpt lat="41.0415950" lon="-2.4370390">
        <ele>1190.6</ele>
        <time>2020-09-12T08:59:30Z</time>
      </trkpt>
      <trkpt lat="41.0415790" lon="-2.4371280">
        <ele>1190.6</ele>
        <time>2020-09-12T08:59:31Z</time>
      </trkpt>
      <trkpt lat="41.0415640" lon="-2.4372150">
        <ele>1190.6</ele>
        <time>2020-09-12T08:59:32Z</time>
      </trkpt>
      <trkpt lat="41.0415490" lon="-2.4373020">
        <ele>1190.8</ele>
        <time>2020-09-12T08:59:33Z</time>
      </trkpt>
      <trkpt lat="41.0415330" lon="-2.4373880">
        <ele>1191.0</ele>
        <time>2020-09-12T08:59:34Z</time>
      </trkpt>
      <trkpt lat="41.0415190" lon="-2.4374720">
        <ele>1191.2</ele>
        <time>2020-09-12T08:59:35Z</time>
      </trkpt>
      <trkpt lat="41.0415050" lon="-2.4375560">
        <ele>1191.4</ele>
        <time>2020-09-12T08:59:36Z</time>
      </trkpt>
      <trkpt lat="41.0414920" lon="-2.4376390">
        <ele>1191.4</ele>
        <time>2020-09-12T08:59:37Z</time>
      </trkpt>
      <trkpt lat="41.0414760" lon="-2.4377220">
        <ele>1191.6</ele>
        <time>2020-09-12T08:59:38Z</time>
      </trkpt>
      <trkpt lat="41.0414620" lon="-2.4378050">
        <ele>1191.8</ele>
        <time>2020-09-12T08:59:39Z</time>
      </trkpt>
      <trkpt lat="41.0414470" lon="-2.4378900">
        <ele>1192.0</ele>
        <time>2020-09-12T08:59:40Z</time>
      </trkpt>
      <trkpt lat="41.0414320" lon="-2.4379740">
        <ele>1192.0</ele>
        <time>2020-09-12T08:59:41Z</time>
      </trkpt>
      <trkpt lat="41.0414160" lon="-2.4380580">
        <ele>1192.2</ele>
        <time>2020-09-12T08:59:42Z</time>
      </trkpt>
      <trkpt lat="41.0414010" lon="-2.4381420">
        <ele>1192.4</ele>
        <time>2020-09-12T08:59:43Z</time>
      </trkpt>
      <trkpt lat="41.0413850" lon="-2.4382260">
        <ele>1192.6</ele>
        <time>2020-09-12T08:59:44Z</time>
      </trkpt>
      <trkpt lat="41.0413700" lon="-2.4383100">
        <ele>1192.8</ele>
        <time>2020-09-12T08:59:45Z</time>
      </trkpt>
      <trkpt lat="41.0413550" lon="-2.4383950">
        <ele>1193.0</ele>
        <time>2020-09-12T08:59:46Z</time>
      </trkpt>
      <trkpt lat="41.0413400" lon="-2.4384800">
        <ele>1193.2</ele>
        <time>2020-09-12T08:59:47Z</time>
      </trkpt>
      <trkpt lat="41.0413250" lon="-2.4385650">
        <ele>1193.2</ele>
        <time>2020-09-12T08:59:48Z</time>
      </trkpt>
      <trkpt lat="41.0413080" lon="-2.4386500">
        <ele>1193.4</ele>
        <time>2020-09-12T08:59:49Z</time>
      </trkpt>
      <trkpt lat="41.0412920" lon="-2.4387350">
        <ele>1193.6</ele>
        <time>2020-09-12T08:59:50Z</time>
      </trkpt>
      <trkpt lat="41.0412780" lon="-2.4388210">
        <ele>1193.8</ele>
        <time>2020-09-12T08:59:51Z</time>
      </trkpt>
      <trkpt lat="41.0412630" lon="-2.4389050">
        <ele>1193.8</ele>
        <time>2020-09-12T08:59:52Z</time>
      </trkpt>
      <trkpt lat="41.0412480" lon="-2.4389900">
        <ele>1194.0</ele>
        <time>2020-09-12T08:59:53Z</time>
      </trkpt>
      <trkpt lat="41.0412340" lon="-2.4390750">
        <ele>1194.2</ele>
        <time>2020-09-12T08:59:54Z</time>
      </trkpt>
      <trkpt lat="41.0412180" lon="-2.4391610">
        <ele>1194.2</ele>
        <time>2020-09-12T08:59:55Z</time>
      </trkpt>
      <trkpt lat="41.0412030" lon="-2.4392470">
        <ele>1194.2</ele>
        <time>2020-09-12T08:59:56Z</time>
      </trkpt>
      <trkpt lat="41.0411860" lon="-2.4393340">
        <ele>1194.2</ele>
        <time>2020-09-12T08:59:57Z</time>
      </trkpt>
      <trkpt lat="41.0411690" lon="-2.4394220">
        <ele>1194.4</ele>
        <time>2020-09-12T08:59:58Z</time>
      </trkpt>
      <trkpt lat="41.0411530" lon="-2.4395100">
        <ele>1194.6</ele>
        <time>2020-09-12T08:59:59Z</time>
      </trkpt>
      <trkpt lat="41.0411370" lon="-2.4395980">
        <ele>1194.8</ele>
        <time>2020-09-12T09:00:00Z</time>
      </trkpt>
      <trkpt lat="41.0411210" lon="-2.4396860">
        <ele>1195.0</ele>
        <time>2020-09-12T09:00:01Z</time>
      </trkpt>
      <trkpt lat="41.0411050" lon="-2.4397740">
        <ele>1195.0</ele>
        <time>2020-09-12T09:00:02Z</time>
      </trkpt>
      <trkpt lat="41.0410900" lon="-2.4398620">
        <ele>1195.2</ele>
        <time>2020-09-12T09:00:03Z</time>
      </trkpt>
      <trkpt lat="41.0410750" lon="-2.4399500">
        <ele>1195.2</ele>
        <time>2020-09-12T09:00:04Z</time>
      </trkpt>
      <trkpt lat="41.0410590" lon="-2.4400400">
        <ele>1195.2</ele>
        <time>2020-09-12T09:00:05Z</time>
      </trkpt>
      <trkpt lat="41.0410420" lon="-2.4401280">
        <ele>1195.2</ele>
        <time>2020-09-12T09:00:06Z</time>
      </trkpt>
      <trkpt lat="41.0410250" lon="-2.4402180">
        <ele>1195.2</ele>
        <time>2020-09-12T09:00:07Z</time>
      </trkpt>
      <trkpt lat="41.0410090" lon="-2.4403090">
        <ele>1195.0</ele>
        <time>2020-09-12T09:00:08Z</time>
      </trkpt>
      <trkpt lat="41.0409930" lon="-2.4404000">
        <ele>1195.0</ele>
        <time>2020-09-12T09:00:09Z</time>
      </trkpt>
      <trkpt lat="41.0409780" lon="-2.4404930">
        <ele>1195.0</ele>
        <time>2020-09-12T09:00:10Z</time>
      </trkpt>
      <trkpt lat="41.0409620" lon="-2.4405860">
        <ele>1195.0</ele>
        <time>2020-09-12T09:00:11Z</time>
      </trkpt>
      <trkpt lat="41.0409460" lon="-2.4406810">
        <ele>1195.0</ele>
        <time>2020-09-12T09:00:12Z</time>
      </trkpt>
      <trkpt lat="41.0409290" lon="-2.4407770">
        <ele>1195.0</ele>
        <time>2020-09-12T09:00:13Z</time>
      </trkpt>
      <trkpt lat="41.0409110" lon="-2.4408740">
        <ele>1195.0</ele>
        <time>2020-09-12T09:00:14Z</time>
      </trkpt>
      <trkpt lat="41.0408940" lon="-2.4409720">
        <ele>1195.0</ele>
        <time>2020-09-12T09:00:15Z</time>
      </trkpt>
      <trkpt lat="41.0408760" lon="-2.4410710">
        <ele>1194.8</ele>
        <time>2020-09-12T09:00:16Z</time>
      </trkpt>
      <trkpt lat="41.0408600" lon="-2.4411700">
        <ele>1194.8</ele>
        <time>2020-09-12T09:00:17Z</time>
      </trkpt>
      <trkpt lat="41.0408430" lon="-2.4412670">
        <ele>1194.6</ele>
        <time>2020-09-12T09:00:18Z</time>
      </trkpt>
      <trkpt lat="41.0408260" lon="-2.4413620">
        <ele>1194.6</ele>
        <time>2020-09-12T09:00:19Z</time>
      </trkpt>
      <trkpt lat="41.0408090" lon="-2.4414560">
        <ele>1194.6</ele>
        <time>2020-09-12T09:00:20Z</time>
      </trkpt>
      <trkpt lat="41.0407910" lon="-2.4415500">
        <ele>1194.6</ele>
        <time>2020-09-12T09:00:21Z</time>
      </trkpt>
      <trkpt lat="41.0407740" lon="-2.4416430">
        <ele>1194.6</ele>
        <time>2020-09-12T09:00:22Z</time>
      </trkpt>
      <trkpt lat="41.0407570" lon="-2.4417360">
        <ele>1194.8</ele>
        <time>2020-09-12T09:00:23Z</time>
      </trkpt>
      <trkpt lat="41.0407410" lon="-2.4418280">
        <ele>1194.8</ele>
        <time>2020-09-12T09:00:24Z</time>
      </trkpt>
      <trkpt lat="41.0407250" lon="-2.4419200">
        <ele>1194.8</ele>
        <time>2020-09-12T09:00:25Z</time>
      </trkpt>
      <trkpt lat="41.0407080" lon="-2.4420110">
        <ele>1195.0</ele>
        <time>2020-09-12T09:00:26Z</time>
      </trkpt>
      <trkpt lat="41.0406920" lon="-2.4421020">
        <ele>1195.0</ele>
        <time>2020-09-12T09:00:27Z</time>
      </trkpt>
      <trkpt lat="41.0406740" lon="-2.4421920">
        <ele>1195.0</ele>
        <time>2020-09-12T09:00:28Z</time>
      </trkpt>
      <trkpt lat="41.0406570" lon="-2.4422820">
        <ele>1195.2</ele>
        <time>2020-09-12T09:00:29Z</time>
      </trkpt>
      <trkpt lat="41.0406420" lon="-2.4423740">
        <ele>1195.2</ele>
        <time>2020-09-12T09:00:30Z</time>
      </trkpt>
      <trkpt lat="41.0406260" lon="-2.4424650">
        <ele>1195.4</ele>
        <time>2020-09-12T09:00:31Z</time>
      </trkpt>
      <trkpt lat="41.0406090" lon="-2.4425570">
        <ele>1195.6</ele>
        <time>2020-09-12T09:00:32Z</time>
      </trkpt>
      <trkpt lat="41.0405930" lon="-2.4426500">
        <ele>1195.6</ele>
        <time>2020-09-12T09:00:33Z</time>
      </trkpt>
      <trkpt lat="41.0405770" lon="-2.4427420">
        <ele>1195.6</ele>
        <time>2020-09-12T09:00:34Z</time>
      </trkpt>
      <trkpt lat="41.0405620" lon="-2.4428330">
        <ele>1195.6</ele>
        <time>2020-09-12T09:00:35Z</time>
      </trkpt>
      <trkpt lat="41.0405460" lon="-2.4429240">
        <ele>1195.6</ele>
        <time>2020-09-12T09:00:36Z</time>
      </trkpt>
      <trkpt lat="41.0405300" lon="-2.4430150">
        <ele>1195.6</ele>
        <time>2020-09-12T09:00:37Z</time>
      </trkpt>
      <trkpt lat="41.0405140" lon="-2.4431050">
        <ele>1195.6</ele>
        <time>2020-09-12T09:00:38Z</time>
      </trkpt>
      <trkpt lat="41.0404980" lon="-2.4431950">
        <ele>1195.6</ele>
        <time>2020-09-12T09:00:39Z</time>
      </trkpt>
      <trkpt lat="41.0404820" lon="-2.4432850">
        <ele>1195.6</ele>
        <time>2020-09-12T09:00:40Z</time>
      </trkpt>
      <trkpt lat="41.0404650" lon="-2.4433750">
        <ele>1195.8</ele>
        <time>2020-09-12T09:00:41Z</time>
      </trkpt>
      <trkpt lat="41.0404500" lon="-2.4434640">
        <ele>1195.8</ele>
        <time>2020-09-12T09:00:42Z</time>
      </trkpt>
      <trkpt lat="41.0404340" lon="-2.4435550">
        <ele>1195.8</ele>
        <time>2020-09-12T09:00:43Z</time>
      </trkpt>
      <trkpt lat="41.0404200" lon="-2.4436460">
        <ele>1195.8</ele>
        <time>2020-09-12T09:00:44Z</time>
      </trkpt>
      <trkpt lat="41.0404050" lon="-2.4437360">
        <ele>1195.8</ele>
        <time>2020-09-12T09:00:45Z</time>
      </trkpt>
      <trkpt lat="41.0403880" lon="-2.4438250">
        <ele>1195.8</ele>
        <time>2020-09-12T09:00:46Z</time>
      </trkpt>
      <trkpt lat="41.0403740" lon="-2.4439150">
        <ele>1195.8</ele>
        <time>2020-09-12T09:00:47Z</time>
      </trkpt>
      <trkpt lat="41.0403600" lon="-2.4440050">
        <ele>1195.8</ele>
        <time>2020-09-12T09:00:48Z</time>
      </trkpt>
      <trkpt lat="41.0403440" lon="-2.4440960">
        <ele>1195.8</ele>
        <time>2020-09-12T09:00:49Z</time>
      </trkpt>
      <trkpt lat="41.0403280" lon="-2.4441870">
        <ele>1195.8</ele>
        <time>2020-09-12T09:00:50Z</time>
      </trkpt>
      <trkpt lat="41.0403120" lon="-2.4442780">
        <ele>1195.8</ele>
        <time>2020-09-12T09:00:51Z</time>
      </trkpt>
      <trkpt lat="41.0402970" lon="-2.4443680">
        <ele>1195.8</ele>
        <time>2020-09-12T09:00:52Z</time>
      </trkpt>
      <trkpt lat="41.0402810" lon="-2.4444560">
        <ele>1196.0</ele>
        <time>2020-09-12T09:00:53Z</time>
      </trkpt>
      <trkpt lat="41.0402650" lon="-2.4445440">
        <ele>1195.8</ele>
        <time>2020-09-12T09:00:54Z</time>
      </trkpt>
      <trkpt lat="41.0402490" lon="-2.4446340">
        <ele>1195.8</ele>
        <time>2020-09-12T09:00:55Z</time>
      </trkpt>
      <trkpt lat="41.0402330" lon="-2.4447240">
        <ele>1196.0</ele>
        <time>2020-09-12T09:00:56Z</time>
      </trkpt>
      <trkpt lat="41.0402170" lon="-2.4448140">
        <ele>1196.0</ele>
        <time>2020-09-12T09:00:57Z</time>
      </trkpt>
      <trkpt lat="41.0402000" lon="-2.4449030">
        <ele>1196.2</ele>
        <time>2020-09-12T09:00:58Z</time>
      </trkpt>
      <trkpt lat="41.0401840" lon="-2.4449920">
        <ele>1196.2</ele>
        <time>2020-09-12T09:00:59Z</time>
      </trkpt>
      <trkpt lat="41.0401700" lon="-2.4450790">
        <ele>1196.4</ele>
        <time>2020-09-12T09:01:00Z</time>
      </trkpt>
      <trkpt lat="41.0401540" lon="-2.4451670">
        <ele>1196.4</ele>
        <time>2020-09-12T09:01:01Z</time>
      </trkpt>
      <trkpt lat="41.0401370" lon="-2.4452530">
        <ele>1196.4</ele>
        <time>2020-09-12T09:01:02Z</time>
      </trkpt>
      <trkpt lat="41.0401210" lon="-2.4453400">
        <ele>1196.4</ele>
        <time>2020-09-12T09:01:03Z</time>
      </trkpt>
      <trkpt lat="41.0401060" lon="-2.4454270">
        <ele>1196.6</ele>
        <time>2020-09-12T09:01:04Z</time>
      </trkpt>
      <trkpt lat="41.0400890" lon="-2.4455150">
        <ele>1196.6</ele>
        <time>2020-09-12T09:01:05Z</time>
      </trkpt>
      <trkpt lat="41.0400740" lon="-2.4456030">
        <ele>1196.6</ele>
        <time>2020-09-12T09:01:06Z</time>
      </trkpt>
      <trkpt lat="41.0400590" lon="-2.4456910">
        <ele>1196.8</ele>
        <time>2020-09-12T09:01:07Z</time>
      </trkpt>
      <trkpt lat="41.0400430" lon="-2.4457770">
        <ele>1197.0</ele>
        <time>2020-09-12T09:01:08Z</time>
      </trkpt>
      <trkpt lat="41.0400230" lon="-2.4458620">
        <ele>1197.0</ele>
        <time>2020-09-12T09:01:09Z</time>
      </trkpt>
      <trkpt lat="41.0399970" lon="-2.4459460">
        <ele>1197.2</ele>
        <time>2020-09-12T09:01:10Z</time>
      </trkpt>
      <trkpt lat="41.0399720" lon="-2.4460870">
        <ele>1197.2</ele>
        <time>2020-09-12T09:01:11Z</time>
      </trkpt>
      <trkpt lat="41.0398950" lon="-2.4461680">
        <ele>1197.4</ele>
        <time>2020-09-12T09:01:12Z</time>
      </trkpt>
      <trkpt lat="41.0398780" lon="-2.4462350">
        <ele>1197.6</ele>
        <time>2020-09-12T09:01:13Z</time>
      </trkpt>
      <trkpt lat="41.0398670" lon="-2.4462990">
        <ele>1197.8</ele>
        <time>2020-09-12T09:01:14Z</time>
      </trkpt>
      <trkpt lat="41.0398550" lon="-2.4463800">
        <ele>1198.0</ele>
        <time>2020-09-12T09:01:15Z</time>
      </trkpt>
      <trkpt lat="41.0398520" lon="-2.4464610">
        <ele>1198.0</ele>
        <time>2020-09-12T09:01:16Z</time>
      </trkpt>
      <trkpt lat="41.0398590" lon="-2.4465460">
        <ele>1198.2</ele>
        <time>2020-09-12T09:01:17Z</time>
      </trkpt>
      <trkpt lat="41.0398460" lon="-2.4466320">
        <ele>1198.2</ele>
        <time>2020-09-12T09:01:18Z</time>
      </trkpt>
      <trkpt lat="41.0398340" lon="-2.4467150">
        <ele>1198.2</ele>
        <time>2020-09-12T09:01:19Z</time>
      </trkpt>
      <trkpt lat="41.0398360" lon="-2.4467960">
        <ele>1198.2</ele>
        <time>2020-09-12T09:01:20Z</time>
      </trkpt>
      <trkpt lat="41.0398370" lon="-2.4468770">
        <ele>1198.2</ele>
        <time>2020-09-12T09:01:21Z</time>
      </trkpt>
      <trkpt lat="41.0398420" lon="-2.4469560">
        <ele>1198.4</ele>
        <time>2020-09-12T09:01:22Z</time>
      </trkpt>
      <trkpt lat="41.0398490" lon="-2.4470310">
        <ele>1198.8</ele>
        <time>2020-09-12T09:01:23Z</time>
      </trkpt>
      <trkpt lat="41.0398630" lon="-2.4471050">
        <ele>1198.8</ele>
        <time>2020-09-12T09:01:24Z</time>
      </trkpt>
      <trkpt lat="41.0398830" lon="-2.4471750">
        <ele>1199.0</ele>
        <time>2020-09-12T09:01:25Z</time>
      </trkpt>
      <trkpt lat="41.0399040" lon="-2.4472430">
        <ele>1199.2</ele>
        <time>2020-09-12T09:01:26Z</time>
      </trkpt>
      <trkpt lat="41.0399230" lon="-2.4473120">
        <ele>1199.4</ele>
        <time>2020-09-12T09:01:27Z</time>
      </trkpt>
      <trkpt lat="41.0399360" lon="-2.4473840">
        <ele>1199.6</ele>
        <time>2020-09-12T09:01:28Z</time>
      </trkpt>
      <trkpt lat="41.0399350" lon="-2.4474590">
        <ele>1199.6</ele>
        <time>2020-09-12T09:01:29Z</time>
      </trkpt>
      <trkpt lat="41.0399210" lon="-2.4475330">
        <ele>1199.8</ele>
        <time>2020-09-12T09:01:30Z</time>
      </trkpt>
      <trkpt lat="41.0398920" lon="-2.4476040">
        <ele>1199.8</ele>
        <time>2020-09-12T09:01:31Z</time>
      </trkpt>
      <trkpt lat="41.0398520" lon="-2.4476640">
        <ele>1200.2</ele>
        <time>2020-09-12T09:01:32Z</time>
      </trkpt>
      <trkpt lat="41.0398030" lon="-2.4477110">
        <ele>1200.4</ele>
        <time>2020-09-12T09:01:33Z</time>
      </trkpt>
      <trkpt lat="41.0397500" lon="-2.4477440">
        <ele>1200.6</ele>
        <time>2020-09-12T09:01:34Z</time>
      </trkpt>
      <trkpt lat="41.0396920" lon="-2.4477630">
        <ele>1200.8</ele>
        <time>2020-09-12T09:01:35Z</time>
      </trkpt>
      <trkpt lat="41.0396320" lon="-2.4477690">
        <ele>1201.0</ele>
        <time>2020-09-12T09:01:36Z</time>
      </trkpt>
      <trkpt lat="41.0395700" lon="-2.4477680">
        <ele>1201.0</ele>
        <time>2020-09-12T09:01:37Z</time>
      </trkpt>
      <trkpt lat="41.0395060" lon="-2.4477740">
        <ele>1201.0</ele>
        <time>2020-09-12T09:01:38Z</time>
      </trkpt>
      <trkpt lat="41.0394410" lon="-2.4477940">
        <ele>1201.0</ele>
        <time>2020-09-12T09:01:39Z</time>
      </trkpt>
      <trkpt lat="41.0393770" lon="-2.4478280">
        <ele>1201.0</ele>
        <time>2020-09-12T09:01:40Z</time>
      </trkpt>
      <trkpt lat="41.0393140" lon="-2.4478700">
        <ele>1201.0</ele>
        <time>2020-09-12T09:01:41Z</time>
      </trkpt>
      <trkpt lat="41.0392510" lon="-2.4479160">
        <ele>1200.8</ele>
        <time>2020-09-12T09:01:42Z</time>
      </trkpt>
      <trkpt lat="41.0391880" lon="-2.4479670">
        <ele>1200.8</ele>
        <time>2020-09-12T09:01:43Z</time>
      </trkpt>
      <trkpt lat="41.0391240" lon="-2.4480220">
        <ele>1200.8</ele>
        <time>2020-09-12T09:01:44Z</time>
      </trkpt>
      <trkpt lat="41.0390610" lon="-2.4480800">
        <ele>1200.6</ele>
        <time>2020-09-12T09:01:45Z</time>
      </trkpt>
      <trkpt lat="41.0389980" lon="-2.4481430">
        <ele>1200.2</ele>
        <time>2020-09-12T09:01:46Z</time>
      </trkpt>
      <trkpt lat="41.0389340" lon="-2.4482090">
        <ele>1200.0</ele>
        <time>2020-09-12T09:01:47Z</time>
      </trkpt>
      <trkpt lat="41.0388700" lon="-2.4482790">
        <ele>1200.0</ele>
        <time>2020-09-12T09:01:48Z</time>
      </trkpt>
      <trkpt lat="41.0388080" lon="-2.4483530">
        <ele>1199.8</ele>
        <time>2020-09-12T09:01:49Z</time>
      </trkpt>
      <trkpt lat="41.0387460" lon="-2.4484300">
        <ele>1199.6</ele>
        <time>2020-09-12T09:01:50Z</time>
      </trkpt>
      <trkpt lat="41.0386860" lon="-2.4485100">
        <ele>1199.6</ele>
        <time>2020-09-12T09:01:51Z</time>
      </trkpt>
      <trkpt lat="41.0386280" lon="-2.4485950">
        <ele>1199.6</ele>
        <time>2020-09-12T09:01:52Z</time>
      </trkpt>
      <trkpt lat="41.0385700" lon="-2.4486830">
        <ele>1199.6</ele>
        <time>2020-09-12T09:01:53Z</time>
      </trkpt>
      <trkpt lat="41.0385110" lon="-2.4487770">
        <ele>1199.4</ele>
        <time>2020-09-12T09:01:54Z</time>
      </trkpt>
      <trkpt lat="41.0384520" lon="-2.4488760">
        <ele>1199.4</ele>
        <time>2020-09-12T09:01:55Z</time>
      </trkpt>
      <trkpt lat="41.0383930" lon="-2.4489780">
        <ele>1199.4</ele>
        <time>2020-09-12T09:01:56Z</time>
      </trkpt>
      <trkpt lat="41.0383320" lon="-2.4490810">
        <ele>1199.2</ele>
        <time>2020-09-12T09:01:57Z</time>
      </trkpt>
      <trkpt lat="41.0382710" lon="-2.4491840">
        <ele>1199.0</ele>
        <time>2020-09-12T09:01:58Z</time>
      </trkpt>
      <trkpt lat="41.0382110" lon="-2.4492870">
        <ele>1198.8</ele>
        <time>2020-09-12T09:01:59Z</time>
      </trkpt>
      <trkpt lat="41.0381520" lon="-2.4493880">
        <ele>1198.6</ele>
        <time>2020-09-12T09:02:00Z</time>
      </trkpt>
      <trkpt lat="41.0380920" lon="-2.4494900">
        <ele>1198.2</ele>
        <time>2020-09-12T09:02:01Z</time>
      </trkpt>
      <trkpt lat="41.0380340" lon="-2.4495890">
        <ele>1197.8</ele>
        <time>2020-09-12T09:02:02Z</time>
      </trkpt>
      <trkpt lat="41.0379770" lon="-2.4496870">
        <ele>1197.4</ele>
        <time>2020-09-12T09:02:03Z</time>
      </trkpt>
      <trkpt lat="41.0379220" lon="-2.4497840">
        <ele>1197.2</ele>
        <time>2020-09-12T09:02:04Z</time>
      </trkpt>
      <trkpt lat="41.0378670" lon="-2.4498770">
        <ele>1197.0</ele>
        <time>2020-09-12T09:02:05Z</time>
      </trkpt>
      <trkpt lat="41.0378140" lon="-2.4499700">
        <ele>1196.8</ele>
        <time>2020-09-12T09:02:06Z</time>
      </trkpt>
      <trkpt lat="41.0377620" lon="-2.4500590">
        <ele>1196.8</ele>
        <time>2020-09-12T09:02:07Z</time>
      </trkpt>
      <trkpt lat="41.0377130" lon="-2.4501440">
        <ele>1196.8</ele>
        <time>2020-09-12T09:02:08Z</time>
      </trkpt>
      <trkpt lat="41.0376650" lon="-2.4502260">
        <ele>1197.0</ele>
        <time>2020-09-12T09:02:09Z</time>
      </trkpt>
      <trkpt lat="41.0376190" lon="-2.4503040">
        <ele>1197.2</ele>
        <time>2020-09-12T09:02:10Z</time>
      </trkpt>
      <trkpt lat="41.0375760" lon="-2.4503790">
        <ele>1197.4</ele>
        <time>2020-09-12T09:02:11Z</time>
      </trkpt>
      <trkpt lat="41.0375330" lon="-2.4504520">
        <ele>1197.6</ele>
        <time>2020-09-12T09:02:12Z</time>
      </trkpt>
      <trkpt lat="41.0374930" lon="-2.4505210">
        <ele>1198.0</ele>
        <time>2020-09-12T09:02:13Z</time>
      </trkpt>
      <trkpt lat="41.0374540" lon="-2.4505880">
        <ele>1198.2</ele>
        <time>2020-09-12T09:02:14Z</time>
      </trkpt>
      <trkpt lat="41.0374170" lon="-2.4506530">
        <ele>1198.6</ele>
        <time>2020-09-12T09:02:15Z</time>
      </trkpt>
      <trkpt lat="41.0373800" lon="-2.4507210">
        <ele>1199.0</ele>
        <time>2020-09-12T09:02:16Z</time>
      </trkpt>
      <trkpt lat="41.0373470" lon="-2.4507860">
        <ele>1199.4</ele>
        <time>2020-09-12T09:02:17Z</time>
      </trkpt>
      <trkpt lat="41.0373160" lon="-2.4508550">
        <ele>1199.6</ele>
        <time>2020-09-12T09:02:18Z</time>
      </trkpt>
      <trkpt lat="41.0372870" lon="-2.4509250">
        <ele>1199.8</ele>
        <time>2020-09-12T09:02:19Z</time>
      </trkpt>
      <trkpt lat="41.0372590" lon="-2.4509940">
        <ele>1200.0</ele>
        <time>2020-09-12T09:02:20Z</time>
      </trkpt>
      <trkpt lat="41.0372320" lon="-2.4510610">
        <ele>1200.2</ele>
        <time>2020-09-12T09:02:21Z</time>
      </trkpt>
      <trkpt lat="41.0372130" lon="-2.4511290">
        <ele>1200.6</ele>
        <time>2020-09-12T09:02:22Z</time>
      </trkpt>
      <trkpt lat="41.0371980" lon="-2.4511970">
        <ele>1201.2</ele>
        <time>2020-09-12T09:02:23Z</time>
      </trkpt>
      <trkpt lat="41.0371850" lon="-2.4512640">
        <ele>1201.6</ele>
        <time>2020-09-12T09:02:24Z</time>
      </trkpt>
      <trkpt lat="41.0371730" lon="-2.4513310">
        <ele>1201.8</ele>
        <time>2020-09-12T09:02:25Z</time>
      </trkpt>
      <trkpt lat="41.0371640" lon="-2.4513970">
        <ele>1202.0</ele>
        <time>2020-09-12T09:02:26Z</time>
      </trkpt>
      <trkpt lat="41.0371580" lon="-2.4514620">
        <ele>1202.4</ele>
        <time>2020-09-12T09:02:27Z</time>
      </trkpt>
      <trkpt lat="41.0371550" lon="-2.4515260">
        <ele>1203.0</ele>
        <time>2020-09-12T09:02:28Z</time>
      </trkpt>
      <trkpt lat="41.0371550" lon="-2.4515920">
        <ele>1203.6</ele>
        <time>2020-09-12T09:02:29Z</time>
      </trkpt>
      <trkpt lat="41.0371570" lon="-2.4516580">
        <ele>1204.0</ele>
        <time>2020-09-12T09:02:30Z</time>
      </trkpt>
      <trkpt lat="41.0371590" lon="-2.4517250">
        <ele>1204.4</ele>
        <time>2020-09-12T09:02:31Z</time>
      </trkpt>
      <trkpt lat="41.0371640" lon="-2.4517930">
        <ele>1204.8</ele>
        <time>2020-09-12T09:02:32Z</time>
      </trkpt>
      <trkpt lat="41.0371730" lon="-2.4518630">
        <ele>1205.0</ele>
        <time>2020-09-12T09:02:33Z</time>
      </trkpt>
      <trkpt lat="41.0371840" lon="-2.4519330">
        <ele>1205.4</ele>
        <time>2020-09-12T09:02:34Z</time>
      </trkpt>
      <trkpt lat="41.0371970" lon="-2.4520030">
        <ele>1205.6</ele>
        <time>2020-09-12T09:02:35Z</time>
      </trkpt>
      <trkpt lat="41.0372140" lon="-2.4520700">
        <ele>1205.6</ele>
        <time>2020-09-12T09:02:36Z</time>
      </trkpt>
      <trkpt lat="41.0372330" lon="-2.4521370">
        <ele>1205.8</ele>
        <time>2020-09-12T09:02:37Z</time>
      </trkpt>
      <trkpt lat="41.0372540" lon="-2.4522040">
        <ele>1205.8</ele>
        <time>2020-09-12T09:02:38Z</time>
      </trkpt>
      <trkpt lat="41.0372770" lon="-2.4522720">
        <ele>1206.0</ele>
        <time>2020-09-12T09:02:39Z</time>
      </trkpt>
      <trkpt lat="41.0373030" lon="-2.4523370">
        <ele>1206.0</ele>
        <time>2020-09-12T09:02:40Z</time>
      </trkpt>
      <trkpt lat="41.0373320" lon="-2.4524020">
        <ele>1206.0</ele>
        <time>2020-09-12T09:02:41Z</time>
      </trkpt>
      <trkpt lat="41.0373650" lon="-2.4524640">
        <ele>1206.2</ele>
        <time>2020-09-12T09:02:42Z</time>
      </trkpt>
      <trkpt lat="41.0374030" lon="-2.4525250">
        <ele>1206.2</ele>
        <time>2020-09-12T09:02:43Z</time>
      </trkpt>
      <trkpt lat="41.0374440" lon="-2.4525850">
        <ele>1206.4</ele>
        <time>2020-09-12T09:02:44Z</time>
      </trkpt>
      <trkpt lat="41.0374890" lon="-2.4526430">
        <ele>1206.6</ele>
        <time>2020-09-12T09:02:45Z</time>
      </trkpt>
      <trkpt lat="41.0375380" lon="-2.4526990">
        <ele>1206.8</ele>
        <time>2020-09-12T09:02:46Z</time>
      </trkpt>
      <trkpt lat="41.0375890" lon="-2.4527530">
        <ele>1207.0</ele>
        <time>2020-09-12T09:02:47Z</time>
      </trkpt>
      <trkpt lat="41.0376430" lon="-2.4528060">
        <ele>1207.0</ele>
        <time>2020-09-12T09:02:48Z</time>
      </trkpt>
      <trkpt lat="41.0377000" lon="-2.4528550">
        <ele>1207.0</ele>
        <time>2020-09-12T09:02:49Z</time>
      </trkpt>
      <trkpt lat="41.0377620" lon="-2.4528990">
        <ele>1207.0</ele>
        <time>2020-09-12T09:02:50Z</time>
      </trkpt>
      <trkpt lat="41.0378290" lon="-2.4529390">
        <ele>1207.0</ele>
        <time>2020-09-12T09:02:51Z</time>
      </trkpt>
      <trkpt lat="41.0378980" lon="-2.4529780">
        <ele>1206.8</ele>
        <time>2020-09-12T09:02:52Z</time>
      </trkpt>
      <trkpt lat="41.0379670" lon="-2.4530150">
        <ele>1206.4</ele>
        <time>2020-09-12T09:02:53Z</time>
      </trkpt>
      <trkpt lat="41.0380380" lon="-2.4530470">
        <ele>1206.0</ele>
        <time>2020-09-12T09:02:54Z</time>
      </trkpt>
      <trkpt lat="41.0381100" lon="-2.4530730">
        <ele>1205.4</ele>
        <time>2020-09-12T09:02:55Z</time>
      </trkpt>
      <trkpt lat="41.0381830" lon="-2.4530940">
        <ele>1204.8</ele>
        <time>2020-09-12T09:02:56Z</time>
      </trkpt>
      <trkpt lat="41.0382550" lon="-2.4531110">
        <ele>1204.4</ele>
        <time>2020-09-12T09:02:57Z</time>
      </trkpt>
      <trkpt lat="41.0383250" lon="-2.4531220">
        <ele>1204.2</ele>
        <time>2020-09-12T09:02:58Z</time>
      </trkpt>
      <trkpt lat="41.0383880" lon="-2.4531310">
        <ele>1204.0</ele>
        <time>2020-09-12T09:02:59Z</time>
      </trkpt>
      <trkpt lat="41.0384450" lon="-2.4531380">
        <ele>1204.0</ele>
        <time>2020-09-12T09:03:00Z</time>
      </trkpt>
      <trkpt lat="41.0384970" lon="-2.4531420">
        <ele>1203.8</ele>
        <time>2020-09-12T09:03:01Z</time>
      </trkpt>
      <trkpt lat="41.0385450" lon="-2.4531500">
        <ele>1203.8</ele>
        <time>2020-09-12T09:03:02Z</time>
      </trkpt>
      <trkpt lat="41.0385880" lon="-2.4531650">
        <ele>1203.6</ele>
        <time>2020-09-12T09:03:03Z</time>
      </trkpt>
      <trkpt lat="41.0386260" lon="-2.4531900">
        <ele>1203.6</ele>
        <time>2020-09-12T09:03:04Z</time>
      </trkpt>
      <trkpt lat="41.0386580" lon="-2.4532270">
        <ele>1203.4</ele>
        <time>2020-09-12T09:03:05Z</time>
      </trkpt>
      <trkpt lat="41.0386810" lon="-2.4532760">
        <ele>1203.4</ele>
        <time>2020-09-12T09:03:06Z</time>
      </trkpt>
      <trkpt lat="41.0386930" lon="-2.4533340">
        <ele>1203.0</ele>
        <time>2020-09-12T09:03:07Z</time>
      </trkpt>
      <trkpt lat="41.0386930" lon="-2.4533980">
        <ele>1203.0</ele>
        <time>2020-09-12T09:03:08Z</time>
      </trkpt>
      <trkpt lat="41.0386850" lon="-2.4534640">
        <ele>1202.6</ele>
        <time>2020-09-12T09:03:09Z</time>
      </trkpt>
      <trkpt lat="41.0386730" lon="-2.4535330">
        <ele>1202.2</ele>
        <time>2020-09-12T09:03:10Z</time>
      </trkpt>
      <trkpt lat="41.0386630" lon="-2.4536060">
        <ele>1202.0</ele>
        <time>2020-09-12T09:03:11Z</time>
      </trkpt>
      <trkpt lat="41.0386580" lon="-2.4536820">
        <ele>1202.0</ele>
        <time>2020-09-12T09:03:12Z</time>
      </trkpt>
      <trkpt lat="41.0386520" lon="-2.4537590">
        <ele>1201.8</ele>
        <time>2020-09-12T09:03:13Z</time>
      </trkpt>
      <trkpt lat="41.0386420" lon="-2.4538390">
        <ele>1201.6</ele>
        <time>2020-09-12T09:03:14Z</time>
      </trkpt>
      <trkpt lat="41.0386280" lon="-2.4539190">
        <ele>1201.4</ele>
        <time>2020-09-12T09:03:15Z</time>
      </trkpt>
      <trkpt lat="41.0386130" lon="-2.4540010">
        <ele>1201.4</ele>
        <time>2020-09-12T09:03:16Z</time>
      </trkpt>
      <trkpt lat="41.0385980" lon="-2.4540860">
        <ele>1201.2</ele>
        <time>2020-09-12T09:03:17Z</time>
      </trkpt>
      <trkpt lat="41.0385840" lon="-2.4541740">
        <ele>1201.0</ele>
        <time>2020-09-12T09:03:18Z</time>
      </trkpt>
      <trkpt lat="41.0385690" lon="-2.4542670">
        <ele>1201.0</ele>
        <time>2020-09-12T09:03:19Z</time>
      </trkpt>
      <trkpt lat="41.0385520" lon="-2.4543630">
        <ele>1200.8</ele>
        <time>2020-09-12T09:03:20Z</time>
      </trkpt>
      <trkpt lat="41.0385350" lon="-2.4544600">
        <ele>1200.6</ele>
        <time>2020-09-12T09:03:21Z</time>
      </trkpt>
      <trkpt lat="41.0385160" lon="-2.4545580">
        <ele>1200.6</ele>
        <time>2020-09-12T09:03:22Z</time>
      </trkpt>
      <trkpt lat="41.0384980" lon="-2.4546580">
        <ele>1200.4</ele>
        <time>2020-09-12T09:03:23Z</time>
      </trkpt>
      <trkpt lat="41.0384790" lon="-2.4547610">
        <ele>1200.4</ele>
        <time>2020-09-12T09:03:24Z</time>
      </trkpt>
      <trkpt lat="41.0384590" lon="-2.4548640">
        <ele>1200.2</ele>
        <time>2020-09-12T09:03:25Z</time>
      </trkpt>
      <trkpt lat="41.0384410" lon="-2.4549690">
        <ele>1200.0</ele>
        <time>2020-09-12T09:03:26Z</time>
      </trkpt>
      <trkpt lat="41.0384230" lon="-2.4550760">
        <ele>1199.8</ele>
        <time>2020-09-12T09:03:27Z</time>
      </trkpt>
      <trkpt lat="41.0384030" lon="-2.4551840">
        <ele>1199.4</ele>
        <time>2020-09-12T09:03:28Z</time>
      </trkpt>
      <trkpt lat="41.0383800" lon="-2.4552930">
        <ele>1199.2</ele>
        <time>2020-09-12T09:03:29Z</time>
      </trkpt>
      <trkpt lat="41.0383590" lon="-2.4554020">
        <ele>1199.0</ele>
        <time>2020-09-12T09:03:30Z</time>
      </trkpt>
      <trkpt lat="41.0383400" lon="-2.4555140">
        <ele>1198.8</ele>
        <time>2020-09-12T09:03:31Z</time>
      </trkpt>
      <trkpt lat="41.0383220" lon="-2.4556270">
        <ele>1198.4</ele>
        <time>2020-09-12T09:03:32Z</time>
      </trkpt>
      <trkpt lat="41.0383030" lon="-2.4557400">
        <ele>1198.2</ele>
        <time>2020-09-12T09:03:33Z</time>
      </trkpt>
      <trkpt lat="41.0382830" lon="-2.4558550">
        <ele>1197.8</ele>
        <time>2020-09-12T09:03:34Z</time>
      </trkpt>
      <trkpt lat="41.0382630" lon="-2.4559700">
        <ele>1197.4</ele>
        <time>2020-09-12T09:03:35Z</time>
      </trkpt>
      <trkpt lat="41.0382430" lon="-2.4560860">
        <ele>1197.0</ele>
        <time>2020-09-12T09:03:36Z</time>
      </trkpt>
      <trkpt lat="41.0382230" lon="-2.4562040">
        <ele>1196.8</ele>
        <time>2020-09-12T09:03:37Z</time>
      </trkpt>
      <trkpt lat="41.0382030" lon="-2.4563230">
        <ele>1196.8</ele>
        <time>2020-09-12T09:03:38Z</time>
      </trkpt>
      <trkpt lat="41.0381830" lon="-2.4564440">
        <ele>1196.6</ele>
        <time>2020-09-12T09:03:39Z</time>
      </trkpt>
      <trkpt lat="41.0381620" lon="-2.4565640">
        <ele>1196.4</ele>
        <time>2020-09-12T09:03:40Z</time>
      </trkpt>
      <trkpt lat="41.0381420" lon="-2.4566850">
        <ele>1196.2</ele>
        <time>2020-09-12T09:03:41Z</time>
      </trkpt>
      <trkpt lat="41.0381220" lon="-2.4568070">
        <ele>1196.0</ele>
        <time>2020-09-12T09:03:42Z</time>
      </trkpt>
      <trkpt lat="41.0381020" lon="-2.4569300">
        <ele>1195.8</ele>
        <time>2020-09-12T09:03:43Z</time>
      </trkpt>
      <trkpt lat="41.0380810" lon="-2.4570530">
        <ele>1195.4</ele>
        <time>2020-09-12T09:03:44Z</time>
      </trkpt>
      <trkpt lat="41.0380600" lon="-2.4571770">
        <ele>1195.0</ele>
        <time>2020-09-12T09:03:45Z</time>
      </trkpt>
      <trkpt lat="41.0380420" lon="-2.4572990">
        <ele>1194.6</ele>
        <time>2020-09-12T09:03:46Z</time>
      </trkpt>
      <trkpt lat="41.0380230" lon="-2.4574210">
        <ele>1194.4</ele>
        <time>2020-09-12T09:03:47Z</time>
      </trkpt>
      <trkpt lat="41.0380030" lon="-2.4575410">
        <ele>1194.0</ele>
        <time>2020-09-12T09:03:48Z</time>
      </trkpt>
      <trkpt lat="41.0379820" lon="-2.4576630">
        <ele>1193.6</ele>
        <time>2020-09-12T09:03:49Z</time>
      </trkpt>
      <trkpt lat="41.0379620" lon="-2.4577850">
        <ele>1193.2</ele>
        <time>2020-09-12T09:03:50Z</time>
      </trkpt>
      <trkpt lat="41.0379410" lon="-2.4579090">
        <ele>1192.6</ele>
        <time>2020-09-12T09:03:51Z</time>
      </trkpt>
      <trkpt lat="41.0379200" lon="-2.4580350">
        <ele>1192.2</ele>
        <time>2020-09-12T09:03:52Z</time>
      </trkpt>
      <trkpt lat="41.0378980" lon="-2.4581640">
        <ele>1191.8</ele>
        <time>2020-09-12T09:03:53Z</time>
      </trkpt>
      <trkpt lat="41.0378770" lon="-2.4582980">
        <ele>1191.6</ele>
        <time>2020-09-12T09:03:54Z</time>
      </trkpt>
      <trkpt lat="41.0378550" lon="-2.4584350">
        <ele>1191.2</ele>
        <time>2020-09-12T09:03:55Z</time>
      </trkpt>
      <trkpt lat="41.0378320" lon="-2.4585730">
        <ele>1190.8</ele>
        <time>2020-09-12T09:03:56Z</time>
      </trkpt>
      <trkpt lat="41.0378090" lon="-2.4587120">
        <ele>1190.2</ele>
        <time>2020-09-12T09:03:57Z</time>
      </trkpt>
      <trkpt lat="41.0377850" lon="-2.4588530">
        <ele>1189.8</ele>
        <time>2020-09-12T09:03:58Z</time>
      </trkpt>
      <trkpt lat="41.0377600" lon="-2.4589950">
        <ele>1189.4</ele>
        <time>2020-09-12T09:03:59Z</time>
      </trkpt>
      <trkpt lat="41.0377340" lon="-2.4591390">
        <ele>1188.8</ele>
        <time>2020-09-12T09:04:00Z</time>
      </trkpt>
      <trkpt lat="41.0377090" lon="-2.4592840">
        <ele>1188.4</ele>
        <time>2020-09-12T09:04:01Z</time>
      </trkpt>
      <trkpt lat="41.0376850" lon="-2.4594300">
        <ele>1187.8</ele>
        <time>2020-09-12T09:04:02Z</time>
      </trkpt>
      <trkpt lat="41.0376610" lon="-2.4595740">
        <ele>1187.2</ele>
        <time>2020-09-12T09:04:03Z</time>
      </trkpt>
      <trkpt lat="41.0376380" lon="-2.4597160">
        <ele>1186.6</ele>
        <time>2020-09-12T09:04:04Z</time>
      </trkpt>
      <trkpt lat="41.0376150" lon="-2.4598560">
        <ele>1186.2</ele>
        <time>2020-09-12T09:04:05Z</time>
      </trkpt>
      <trkpt lat="41.0375930" lon="-2.4599950">
        <ele>1185.8</ele>
        <time>2020-09-12T09:04:06Z</time>
      </trkpt>
      <trkpt lat="41.0375710" lon="-2.4601300">
        <ele>1185.6</ele>
        <time>2020-09-12T09:04:07Z</time>
      </trkpt>
      <trkpt lat="41.0375490" lon="-2.4602620">
        <ele>1185.4</ele>
        <time>2020-09-12T09:04:08Z</time>
      </trkpt>
      <trkpt lat="41.0375250" lon="-2.4603900">
        <ele>1185.2</ele>
        <time>2020-09-12T09:04:09Z</time>
      </trkpt>
      <trkpt lat="41.0375010" lon="-2.4605120">
        <ele>1185.2</ele>
        <time>2020-09-12T09:04:10Z</time>
      </trkpt>
      <trkpt lat="41.0374820" lon="-2.4606310">
        <ele>1185.2</ele>
        <time>2020-09-12T09:04:11Z</time>
      </trkpt>
      <trkpt lat="41.0374680" lon="-2.4607470">
        <ele>1185.2</ele>
        <time>2020-09-12T09:04:12Z</time>
      </trkpt>
      <trkpt lat="41.0374540" lon="-2.4608590">
        <ele>1185.2</ele>
        <time>2020-09-12T09:04:13Z</time>
      </trkpt>
      <trkpt lat="41.0374390" lon="-2.4609680">
        <ele>1185.0</ele>
        <time>2020-09-12T09:04:14Z</time>
      </trkpt>
      <trkpt lat="41.0374230" lon="-2.4610720">
        <ele>1185.0</ele>
        <time>2020-09-12T09:04:15Z</time>
      </trkpt>
      <trkpt lat="41.0374060" lon="-2.4611740">
        <ele>1185.0</ele>
        <time>2020-09-12T09:04:16Z</time>
      </trkpt>
      <trkpt lat="41.0373890" lon="-2.4612740">
        <ele>1184.8</ele>
        <time>2020-09-12T09:04:17Z</time>
      </trkpt>
      <trkpt lat="41.0373740" lon="-2.4613730">
        <ele>1184.8</ele>
        <time>2020-09-12T09:04:18Z</time>
      </trkpt>
      <trkpt lat="41.0373600" lon="-2.4614720">
        <ele>1184.8</ele>
        <time>2020-09-12T09:04:19Z</time>
      </trkpt>
      <trkpt lat="41.0373450" lon="-2.4615690">
        <ele>1184.8</ele>
        <time>2020-09-12T09:04:20Z</time>
      </trkpt>
      <trkpt lat="41.0373310" lon="-2.4616660">
        <ele>1184.8</ele>
        <time>2020-09-12T09:04:21Z</time>
      </trkpt>
      <trkpt lat="41.0373160" lon="-2.4617610">
        <ele>1185.0</ele>
        <time>2020-09-12T09:04:22Z</time>
      </trkpt>
      <trkpt lat="41.0373010" lon="-2.4618550">
        <ele>1185.4</ele>
        <time>2020-09-12T09:04:23Z</time>
      </trkpt>
      <trkpt lat="41.0372850" lon="-2.4619470">
        <ele>1185.4</ele>
        <time>2020-09-12T09:04:24Z</time>
      </trkpt>
      <trkpt lat="41.0372710" lon="-2.4620370">
        <ele>1185.6</ele>
        <time>2020-09-12T09:04:25Z</time>
      </trkpt>
      <trkpt lat="41.0372570" lon="-2.4621240">
        <ele>1185.6</ele>
        <time>2020-09-12T09:04:26Z</time>
      </trkpt>
      <trkpt lat="41.0372410" lon="-2.4622090">
        <ele>1185.8</ele>
        <time>2020-09-12T09:04:27Z</time>
      </trkpt>
      <trkpt lat="41.0372250" lon="-2.4622910">
        <ele>1185.8</ele>
        <time>2020-09-12T09:04:28Z</time>
      </trkpt>
      <trkpt lat="41.0372110" lon="-2.4623730">
        <ele>1186.0</ele>
        <time>2020-09-12T09:04:29Z</time>
      </trkpt>
      <trkpt lat="41.0371990" lon="-2.4624530">
        <ele>1186.0</ele>
        <time>2020-09-12T09:04:30Z</time>
      </trkpt>
      <trkpt lat="41.0371860" lon="-2.4625300">
        <ele>1186.0</ele>
        <time>2020-09-12T09:04:31Z</time>
      </trkpt>
      <trkpt lat="41.0371730" lon="-2.4626050">
        <ele>1186.0</ele>
        <time>2020-09-12T09:04:32Z</time>
      </trkpt>
      <trkpt lat="41.0371620" lon="-2.4626790">
        <ele>1186.0</ele>
        <time>2020-09-12T09:04:33Z</time>
      </trkpt>
      <trkpt lat="41.0371510" lon="-2.4627510">
        <ele>1186.2</ele>
        <time>2020-09-12T09:04:34Z</time>
      </trkpt>
      <trkpt lat="41.0371400" lon="-2.4628230">
        <ele>1186.2</ele>
        <time>2020-09-12T09:04:35Z</time>
      </trkpt>
      <trkpt lat="41.0371280" lon="-2.4628950">
        <ele>1186.6</ele>
        <time>2020-09-12T09:04:36Z</time>
      </trkpt>
      <trkpt lat="41.0371180" lon="-2.4629650">
        <ele>1186.8</ele>
        <time>2020-09-12T09:04:37Z</time>
      </trkpt>
      <trkpt lat="41.0371060" lon="-2.4630330">
        <ele>1187.0</ele>
        <time>2020-09-12T09:04:38Z</time>
      </trkpt>
      <trkpt lat="41.0370930" lon="-2.4631020">
        <ele>1187.2</ele>
        <time>2020-09-12T09:04:39Z</time>
      </trkpt>
      <trkpt lat="41.0370820" lon="-2.4631690">
        <ele>1187.2</ele>
        <time>2020-09-12T09:04:40Z</time>
      </trkpt>
      <trkpt lat="41.0370710" lon="-2.4632340">
        <ele>1187.4</ele>
        <time>2020-09-12T09:04:41Z</time>
      </trkpt>
      <trkpt lat="41.0370620" lon="-2.4632980">
        <ele>1187.4</ele>
        <time>2020-09-12T09:04:42Z</time>
      </trkpt>
      <trkpt lat="41.0370520" lon="-2.4633620">
        <ele>1187.6</ele>
        <time>2020-09-12T09:04:43Z</time>
      </trkpt>
      <trkpt lat="41.0370420" lon="-2.4634240">
        <ele>1187.8</ele>
        <time>2020-09-12T09:04:44Z</time>
      </trkpt>
      <trkpt lat="41.0370310" lon="-2.4634860">
        <ele>1188.0</ele>
        <time>2020-09-12T09:04:45Z</time>
      </trkpt>
      <trkpt lat="41.0370200" lon="-2.4635480">
        <ele>1188.2</ele>
        <time>2020-09-12T09:04:46Z</time>
      </trkpt>
      <trkpt lat="41.0370090" lon="-2.4636080">
        <ele>1188.4</ele>
        <time>2020-09-12T09:04:47Z</time>
      </trkpt>
      <trkpt lat="41.0369980" lon="-2.4636670">
        <ele>1188.6</ele>
        <time>2020-09-12T09:04:48Z</time>
      </trkpt>
      <trkpt lat="41.0369870" lon="-2.4637260">
        <ele>1188.8</ele>
        <time>2020-09-12T09:04:49Z</time>
      </trkpt>
      <trkpt lat="41.0369780" lon="-2.4637860">
        <ele>1189.0</ele>
        <time>2020-09-12T09:04:50Z</time>
      </trkpt>
      <trkpt lat="41.0369670" lon="-2.4638440">
        <ele>1189.2</ele>
        <time>2020-09-12T09:04:51Z</time>
      </trkpt>
      <trkpt lat="41.0369550" lon="-2.4639010">
        <ele>1189.2</ele>
        <time>2020-09-12T09:04:52Z</time>
      </trkpt>
      <trkpt lat="41.0369440" lon="-2.4639570">
        <ele>1189.4</ele>
        <time>2020-09-12T09:04:53Z</time>
      </trkpt>
      <trkpt lat="41.0369360" lon="-2.4640130">
        <ele>1189.4</ele>
        <time>2020-09-12T09:04:54Z</time>
      </trkpt>
      <trkpt lat="41.0369300" lon="-2.4640700">
        <ele>1189.6</ele>
        <time>2020-09-12T09:04:55Z</time>
      </trkpt>
      <trkpt lat="41.0369230" lon="-2.4641260">
        <ele>1189.8</ele>
        <time>2020-09-12T09:04:56Z</time>
      </trkpt>
      <trkpt lat="41.0369160" lon="-2.4641800">
        <ele>1190.0</ele>
        <time>2020-09-12T09:04:57Z</time>
      </trkpt>
      <trkpt lat="41.0369090" lon="-2.4642330">
        <ele>1190.2</ele>
        <time>2020-09-12T09:04:58Z</time>
      </trkpt>
      <trkpt lat="41.0368990" lon="-2.4642870">
        <ele>1190.4</ele>
        <time>2020-09-12T09:04:59Z</time>
      </trkpt>
      <trkpt lat="41.0368890" lon="-2.4643390">
        <ele>1190.4</ele>
        <time>2020-09-12T09:05:00Z</time>
      </trkpt>
      <trkpt lat="41.0368800" lon="-2.4643920">
        <ele>1190.4</ele>
        <time>2020-09-12T09:05:01Z</time>
      </trkpt>
      <trkpt lat="41.0368700" lon="-2.4644440">
        <ele>1190.4</ele>
        <time>2020-09-12T09:05:02Z</time>
      </trkpt>
      <trkpt lat="41.0368620" lon="-2.4644980">
        <ele>1190.4</ele>
        <time>2020-09-12T09:05:03Z</time>
      </trkpt>
      <trkpt lat="41.0368530" lon="-2.4645520">
        <ele>1190.4</ele>
        <time>2020-09-12T09:05:04Z</time>
      </trkpt>
      <trkpt lat="41.0368440" lon="-2.4646040">
        <ele>1190.6</ele>
        <time>2020-09-12T09:05:05Z</time>
      </trkpt>
      <trkpt lat="41.0368350" lon="-2.4646560">
        <ele>1190.6</ele>
        <time>2020-09-12T09:05:06Z</time>
      </trkpt>
      <trkpt lat="41.0368270" lon="-2.4647080">
        <ele>1190.8</ele>
        <time>2020-09-12T09:05:07Z</time>
      </trkpt>
      <trkpt lat="41.0368220" lon="-2.4647570">
        <ele>1191.0</ele>
        <time>2020-09-12T09:05:08Z</time>
      </trkpt>
      <trkpt lat="41.0368140" lon="-2.4648080">
        <ele>1191.2</ele>
        <time>2020-09-12T09:05:09Z</time>
      </trkpt>
      <trkpt lat="41.0368050" lon="-2.4648550">
        <ele>1191.4</ele>
        <time>2020-09-12T09:05:10Z</time>
      </trkpt>
      <trkpt lat="41.0367990" lon="-2.4649030">
        <ele>1191.6</ele>
        <time>2020-09-12T09:05:11Z</time>
      </trkpt>
      <trkpt lat="41.0367980" lon="-2.4649500">
        <ele>1191.8</ele>
        <time>2020-09-12T09:05:12Z</time>
      </trkpt>
      <trkpt lat="41.0367940" lon="-2.4649960">
        <ele>1192.0</ele>
        <time>2020-09-12T09:05:13Z</time>
      </trkpt>
      <trkpt lat="41.0367860" lon="-2.4650400">
        <ele>1192.2</ele>
        <time>2020-09-12T09:05:14Z</time>
      </trkpt>
      <trkpt lat="41.0367760" lon="-2.4650880">
        <ele>1192.4</ele>
        <time>2020-09-12T09:05:15Z</time>
      </trkpt>
      <trkpt lat="41.0367670" lon="-2.4651360">
        <ele>1192.4</ele>
        <time>2020-09-12T09:05:16Z</time>
      </trkpt>
      <trkpt lat="41.0367570" lon="-2.4651830">
        <ele>1192.6</ele>
        <time>2020-09-12T09:05:17Z</time>
      </trkpt>
      <trkpt lat="41.0367480" lon="-2.4652300">
        <ele>1192.6</ele>
        <time>2020-09-12T09:05:18Z</time>
      </trkpt>
      <trkpt lat="41.0367380" lon="-2.4652770">
        <ele>1192.8</ele>
        <time>2020-09-12T09:05:19Z</time>
      </trkpt>
      <trkpt lat="41.0367270" lon="-2.4653230">
        <ele>1193.2</ele>
        <time>2020-09-12T09:05:20Z</time>
      </trkpt>
      <trkpt lat="41.0367160" lon="-2.4653670">
        <ele>1193.4</ele>
        <time>2020-09-12T09:05:21Z</time>
      </trkpt>
      <trkpt lat="41.0367070" lon="-2.4654120">
        <ele>1193.6</ele>
        <time>2020-09-12T09:05:22Z</time>
      </trkpt>
      <trkpt lat="41.0366970" lon="-2.4654570">
        <ele>1193.8</ele>
        <time>2020-09-12T09:05:23Z</time>
      </trkpt>
      <trkpt lat="41.0366860" lon="-2.4655020">
        <ele>1194.0</ele>
        <time>2020-09-12T09:05:24Z</time>
      </trkpt>
      <trkpt lat="41.0366760" lon="-2.4655480">
        <ele>1194.0</ele>
        <time>2020-09-12T09:05:25Z</time>
      </trkpt>
      <trkpt lat="41.0366650" lon="-2.4655930">
        <ele>1194.0</ele>
        <time>2020-09-12T09:05:26Z</time>
      </trkpt>
      <trkpt lat="41.0366530" lon="-2.4656360">
        <ele>1194.2</ele>
        <time>2020-09-12T09:05:27Z</time>
      </trkpt>
      <trkpt lat="41.0366400" lon="-2.4656790">
        <ele>1194.2</ele>
        <time>2020-09-12T09:05:28Z</time>
      </trkpt>
      <trkpt lat="41.0366240" lon="-2.4657200">
        <ele>1194.4</ele>
        <time>2020-09-12T09:05:29Z</time>
      </trkpt>
      <trkpt lat="41.0366020" lon="-2.4657560">
        <ele>1194.6</ele>
        <time>2020-09-12T09:05:30Z</time>
      </trkpt>
      <trkpt lat="41.0365740" lon="-2.4657790">
        <ele>1194.8</ele>
        <time>2020-09-12T09:05:31Z</time>
      </trkpt>
      <trkpt lat="41.0365410" lon="-2.4657850">
        <ele>1195.0</ele>
        <time>2020-09-12T09:05:32Z</time>
      </trkpt>
      <trkpt lat="41.0365080" lon="-2.4657800">
        <ele>1195.0</ele>
        <time>2020-09-12T09:05:33Z</time>
      </trkpt>
      <trkpt lat="41.0364770" lon="-2.4657680">
        <ele>1195.2</ele>
        <time>2020-09-12T09:05:34Z</time>
      </trkpt>
      <trkpt lat="41.0364440" lon="-2.4657560">
        <ele>1195.2</ele>
        <time>2020-09-12T09:05:35Z</time>
      </trkpt>
      <trkpt lat="41.0364120" lon="-2.4657440">
        <ele>1195.2</ele>
        <time>2020-09-12T09:05:36Z</time>
      </trkpt>
      <trkpt lat="41.0363810" lon="-2.4657290">
        <ele>1195.4</ele>
        <time>2020-09-12T09:05:37Z</time>
      </trkpt>
      <trkpt lat="41.0363480" lon="-2.4657160">
        <ele>1195.4</ele>
        <time>2020-09-12T09:05:38Z</time>
      </trkpt>
      <trkpt lat="41.0363160" lon="-2.4657020">
        <ele>1195.6</ele>
        <time>2020-09-12T09:05:39Z</time>
      </trkpt>
      <trkpt lat="41.0362820" lon="-2.4656910">
        <ele>1195.8</ele>
        <time>2020-09-12T09:05:40Z</time>
      </trkpt>
      <trkpt lat="41.0362490" lon="-2.4656810">
        <ele>1195.8</ele>
        <time>2020-09-12T09:05:41Z</time>
      </trkpt>
      <trkpt lat="41.0362140" lon="-2.4656760">
        <ele>1196.0</ele>
        <time>2020-09-12T09:05:42Z</time>
      </trkpt>
      <trkpt lat="41.0361790" lon="-2.4656770">
        <ele>1196.0</ele>
        <time>2020-09-12T09:05:43Z</time>
      </trkpt>
      <trkpt lat="41.0361460" lon="-2.4656850">
        <ele>1196.0</ele>
        <time>2020-09-12T09:05:44Z</time>
      </trkpt>
      <trkpt lat="41.0361150" lon="-2.4656970">
        <ele>1196.2</ele>
        <time>2020-09-12T09:05:45Z</time>
      </trkpt>
      <trkpt lat="41.0360840" lon="-2.4657140">
        <ele>1196.4</ele>
        <time>2020-09-12T09:05:46Z</time>
      </trkpt>
      <trkpt lat="41.0360570" lon="-2.4657300">
        <ele>1196.6</ele>
        <time>2020-09-12T09:05:47Z</time>
      </trkpt>
      <trkpt lat="41.0360290" lon="-2.4657500">
        <ele>1196.8</ele>
        <time>2020-09-12T09:05:48Z</time>
      </trkpt>
      <trkpt lat="41.0360010" lon="-2.4657740">
        <ele>1197.0</ele>
        <time>2020-09-12T09:05:49Z</time>
      </trkpt>
      <trkpt lat="41.0359720" lon="-2.4657980">
        <ele>1197.0</ele>
        <time>2020-09-12T09:05:50Z</time>
      </trkpt>
      <trkpt lat="41.0359400" lon="-2.4658250">
        <ele>1197.0</ele>
        <time>2020-09-12T09:05:51Z</time>
      </trkpt>
      <trkpt lat="41.0359050" lon="-2.4658540">
        <ele>1197.0</ele>
        <time>2020-09-12T09:05:52Z</time>
      </trkpt>
      <trkpt lat="41.0358690" lon="-2.4658820">
        <ele>1196.8</ele>
        <time>2020-09-12T09:05:53Z</time>
      </trkpt>
      <trkpt lat="41.0358320" lon="-2.4659080">
        <ele>1196.6</ele>
        <time>2020-09-12T09:05:54Z</time>
      </trkpt>
      <trkpt lat="41.0357950" lon="-2.4659390">
        <ele>1196.4</ele>
        <time>2020-09-12T09:05:55Z</time>
      </trkpt>
      <trkpt lat="41.0357590" lon="-2.4659730">
        <ele>1196.2</ele>
        <time>2020-09-12T09:05:56Z</time>
      </trkpt>
      <trkpt lat="41.0357190" lon="-2.4660090">
        <ele>1196.0</ele>
        <time>2020-09-12T09:05:57Z</time>
      </trkpt>
      <trkpt lat="41.0356750" lon="-2.4660500">
        <ele>1195.6</ele>
        <time>2020-09-12T09:05:58Z</time>
      </trkpt>
      <trkpt lat="41.0356260" lon="-2.4660960">
        <ele>1195.4</ele>
        <time>2020-09-12T09:05:59Z</time>
      </trkpt>
      <trkpt lat="41.0355730" lon="-2.4661460">
        <ele>1195.0</ele>
        <time>2020-09-12T09:06:00Z</time>
      </trkpt>
      <trkpt lat="41.0355180" lon="-2.4661990">
        <ele>1194.8</ele>
        <time>2020-09-12T09:06:01Z</time>
      </trkpt>
      <trkpt lat="41.0354630" lon="-2.4662570">
        <ele>1194.4</ele>
        <time>2020-09-12T09:06:02Z</time>
      </trkpt>
      <trkpt lat="41.0354090" lon="-2.4663200">
        <ele>1194.0</ele>
        <time>2020-09-12T09:06:03Z</time>
      </trkpt>
      <trkpt lat="41.0353510" lon="-2.4663820">
        <ele>1193.8</ele>
        <time>2020-09-12T09:06:04Z</time>
      </trkpt>
      <trkpt lat="41.0352920" lon="-2.4664380">
        <ele>1193.6</ele>
        <time>2020-09-12T09:06:05Z</time>
      </trkpt>
      <trkpt lat="41.0352330" lon="-2.4664870">
        <ele>1193.4</ele>
        <time>2020-09-12T09:06:06Z</time>
      </trkpt>
      <trkpt lat="41.0351770" lon="-2.4665310">
        <ele>1193.2</ele>
        <time>2020-09-12T09:06:07Z</time>
      </trkpt>
      <trkpt lat="41.0351270" lon="-2.4665740">
        <ele>1193.2</ele>
        <time>2020-09-12T09:06:08Z</time>
      </trkpt>
      <trkpt lat="41.0350810" lon="-2.4666130">
        <ele>1193.2</ele>
        <time>2020-09-12T09:06:09Z</time>
      </trkpt>
      <trkpt lat="41.0350390" lon="-2.4666490">
        <ele>1193.2</ele>
        <time>2020-09-12T09:06:10Z</time>
      </trkpt>
      <trkpt lat="41.0349980" lon="-2.4666830">
        <ele>1193.2</ele>
        <time>2020-09-12T09:06:11Z</time>
      </trkpt>
      <trkpt lat="41.0349590" lon="-2.4667120">
        <ele>1193.4</ele>
        <time>2020-09-12T09:06:12Z</time>
      </trkpt>
      <trkpt lat="41.0349190" lon="-2.4667380">
        <ele>1193.6</ele>
        <time>2020-09-12T09:06:13Z</time>
      </trkpt>
      <trkpt lat="41.0348800" lon="-2.4667630">
        <ele>1193.6</ele>
        <time>2020-09-12T09:06:14Z</time>
      </trkpt>
      <trkpt lat="41.0348380" lon="-2.4667830">
        <ele>1193.8</ele>
        <time>2020-09-12T09:06:15Z</time>
      </trkpt>
      <trkpt lat="41.0347950" lon="-2.4667960">
        <ele>1194.0</ele>
        <time>2020-09-12T09:06:16Z</time>
      </trkpt>
      <trkpt lat="41.0347500" lon="-2.4668070">
        <ele>1194.2</ele>
        <time>2020-09-12T09:06:17Z</time>
      </trkpt>
      <trkpt lat="41.0347050" lon="-2.4668150">
        <ele>1194.2</ele>
        <time>2020-09-12T09:06:18Z</time>
      </trkpt>
      <trkpt lat="41.0346590" lon="-2.4668190">
        <ele>1194.4</ele>
        <time>2020-09-12T09:06:19Z</time>
      </trkpt>
      <trkpt lat="41.0346140" lon="-2.4668210">
        <ele>1194.4</ele>
        <time>2020-09-12T09:06:20Z</time>
      </trkpt>
      <trkpt lat="41.0345690" lon="-2.4668230">
        <ele>1194.4</ele>
        <time>2020-09-12T09:06:21Z</time>
      </trkpt>
      <trkpt lat="41.0345240" lon="-2.4668230">
        <ele>1194.6</ele>
        <time>2020-09-12T09:06:22Z</time>
      </trkpt>
      <trkpt lat="41.0344780" lon="-2.4668200">
        <ele>1194.6</ele>
        <time>2020-09-12T09:06:23Z</time>
      </trkpt>
      <trkpt lat="41.0344340" lon="-2.4668180">
        <ele>1194.8</ele>
        <time>2020-09-12T09:06:24Z</time>
      </trkpt>
      <trkpt lat="41.0343910" lon="-2.4668150">
        <ele>1194.8</ele>
        <time>2020-09-12T09:06:25Z</time>
      </trkpt>
      <trkpt lat="41.0343490" lon="-2.4668100">
        <ele>1194.8</ele>
        <time>2020-09-12T09:06:26Z</time>
      </trkpt>
      <trkpt lat="41.0343110" lon="-2.4668040">
        <ele>1194.8</ele>
        <time>2020-09-12T09:06:27Z</time>
      </trkpt>
      <trkpt lat="41.0342740" lon="-2.4667990">
        <ele>1194.6</ele>
        <time>2020-09-12T09:06:28Z</time>
      </trkpt>
      <trkpt lat="41.0342380" lon="-2.4668040">
        <ele>1194.6</ele>
        <time>2020-09-12T09:06:29Z</time>
      </trkpt>
      <trkpt lat="41.0342070" lon="-2.4668160">
        <ele>1194.4</ele>
        <time>2020-09-12T09:06:30Z</time>
      </trkpt>
      <trkpt lat="41.0341830" lon="-2.4668350">
        <ele>1194.4</ele>
        <time>2020-09-12T09:06:31Z</time>
      </trkpt>
      <trkpt lat="41.0341670" lon="-2.4668660">
        <ele>1194.4</ele>
        <time>2020-09-12T09:06:32Z</time>
      </trkpt>
      <trkpt lat="41.0341590" lon="-2.4669080">
        <ele>1194.4</ele>
        <time>2020-09-12T09:06:33Z</time>
      </trkpt>
      <trkpt lat="41.0341540" lon="-2.4669540">
        <ele>1194.4</ele>
        <time>2020-09-12T09:06:34Z</time>
      </trkpt>
      <trkpt lat="41.0341510" lon="-2.4670030">
        <ele>1194.6</ele>
        <time>2020-09-12T09:06:35Z</time>
      </trkpt>
      <trkpt lat="41.0341530" lon="-2.4670560">
        <ele>1194.8</ele>
        <time>2020-09-12T09:06:36Z</time>
      </trkpt>
      <trkpt lat="41.0341560" lon="-2.4671120">
        <ele>1195.0</ele>
        <time>2020-09-12T09:06:37Z</time>
      </trkpt>
      <trkpt lat="41.0341590" lon="-2.4671720">
        <ele>1195.0</ele>
        <time>2020-09-12T09:06:38Z</time>
      </trkpt>
      <trkpt lat="41.0341640" lon="-2.4672360">
        <ele>1195.0</ele>
        <time>2020-09-12T09:06:39Z</time>
      </trkpt>
      <trkpt lat="41.0341690" lon="-2.4673030">
        <ele>1195.0</ele>
        <time>2020-09-12T09:06:40Z</time>
      </trkpt>
      <trkpt lat="41.0341740" lon="-2.4673740">
        <ele>1195.0</ele>
        <time>2020-09-12T09:06:41Z</time>
      </trkpt>
      <trkpt lat="41.0341760" lon="-2.4674490">
        <ele>1195.0</ele>
        <time>2020-09-12T09:06:42Z</time>
      </trkpt>
      <trkpt lat="41.0341800" lon="-2.4675270">
        <ele>1194.8</ele>
        <time>2020-09-12T09:06:43Z</time>
      </trkpt>
      <trkpt lat="41.0341860" lon="-2.4676090">
        <ele>1194.8</ele>
        <time>2020-09-12T09:06:44Z</time>
      </trkpt>
      <trkpt lat="41.0341900" lon="-2.4676930">
        <ele>1194.6</ele>
        <time>2020-09-12T09:06:45Z</time>
      </trkpt>
      <trkpt lat="41.0341920" lon="-2.4677800">
        <ele>1194.6</ele>
        <time>2020-09-12T09:06:46Z</time>
      </trkpt>
      <trkpt lat="41.0341960" lon="-2.4678680">
        <ele>1194.6</ele>
        <time>2020-09-12T09:06:47Z</time>
      </trkpt>
      <trkpt lat="41.0342010" lon="-2.4679590">
        <ele>1194.6</ele>
        <time>2020-09-12T09:06:48Z</time>
      </trkpt>
      <trkpt lat="41.0342060" lon="-2.4680500">
        <ele>1194.6</ele>
        <time>2020-09-12T09:06:49Z</time>
      </trkpt>
      <trkpt lat="41.0342120" lon="-2.4681440">
        <ele>1194.4</ele>
        <time>2020-09-12T09:06:50Z</time>
      </trkpt>
      <trkpt lat="41.0342170" lon="-2.4682390">
        <ele>1194.2</ele>
        <time>2020-09-12T09:06:51Z</time>
      </trkpt>
      <trkpt lat="41.0342220" lon="-2.4683350">
        <ele>1194.2</ele>
        <time>2020-09-12T09:06:52Z</time>
      </trkpt>
      <trkpt lat="41.0342280" lon="-2.4684350">
        <ele>1194.0</ele>
        <time>2020-09-12T09:06:53Z</time>
      </trkpt>
      <trkpt lat="41.0342330" lon="-2.4685350">
        <ele>1193.8</ele>
        <time>2020-09-12T09:06:54Z</time>
      </trkpt>
      <trkpt lat="41.0342380" lon="-2.4686370">
        <ele>1193.6</ele>
        <time>2020-09-12T09:06:55Z</time>
      </trkpt>
      <trkpt lat="41.0342440" lon="-2.4687410">
        <ele>1193.6</ele>
        <time>2020-09-12T09:06:56Z</time>
      </trkpt>
      <trkpt lat="41.0342510" lon="-2.4688450">
        <ele>1193.6</ele>
        <time>2020-09-12T09:06:57Z</time>
      </trkpt>
      <trkpt lat="41.0342570" lon="-2.4689510">
        <ele>1193.4</ele>
        <time>2020-09-12T09:06:58Z</time>
      </trkpt>
      <trkpt lat="41.0342620" lon="-2.4690580">
        <ele>1193.0</ele>
        <time>2020-09-12T09:06:59Z</time>
      </trkpt>
      <trkpt lat="41.0342660" lon="-2.4691670">
        <ele>1192.4</ele>
        <time>2020-09-12T09:07:00Z</time>
      </trkpt>
      <trkpt lat="41.0342710" lon="-2.4692750">
        <ele>1192.0</ele>
        <time>2020-09-12T09:07:01Z</time>
      </trkpt>
      <trkpt lat="41.0342760" lon="-2.4693850">
        <ele>1191.6</ele>
        <time>2020-09-12T09:07:02Z</time>
      </trkpt>
      <trkpt lat="41.0342820" lon="-2.4694970">
        <ele>1191.2</ele>
        <time>2020-09-12T09:07:03Z</time>
      </trkpt>
      <trkpt lat="41.0342890" lon="-2.4696090">
        <ele>1191.0</ele>
        <time>2020-09-12T09:07:04Z</time>
      </trkpt>
      <trkpt lat="41.0342940" lon="-2.4697230">
        <ele>1190.6</ele>
        <time>2020-09-12T09:07:05Z</time>
      </trkpt>
      <trkpt lat="41.0342980" lon="-2.4698360">
        <ele>1190.4</ele>
        <time>2020-09-12T09:07:06Z</time>
      </trkpt>
      <trkpt lat="41.0343040" lon="-2.4699510">
        <ele>1190.4</ele>
        <time>2020-09-12T09:07:07Z</time>
      </trkpt>
      <trkpt lat="41.0343100" lon="-2.4700660">
        <ele>1190.2</ele>
        <time>2020-09-12T09:07:08Z</time>
      </trkpt>
      <trkpt lat="41.0343160" lon="-2.4701820">
        <ele>1189.8</ele>
        <time>2020-09-12T09:07:09Z</time>
      </trkpt>
      <trkpt lat="41.0343220" lon="-2.4702980">
        <ele>1189.6</ele>
        <time>2020-09-12T09:07:10Z</time>
      </trkpt>
      <trkpt lat="41.0343280" lon="-2.4704150">
        <ele>1189.2</ele>
        <time>2020-09-12T09:07:11Z</time>
      </trkpt>
      <trkpt lat="41.0343330" lon="-2.4705320">
        <ele>1188.8</ele>
        <time>2020-09-12T09:07:12Z</time>
      </trkpt>
      <trkpt lat="41.0343370" lon="-2.4706490">
        <ele>1188.4</ele>
        <time>2020-09-12T09:07:13Z</time>
      </trkpt>
      <trkpt lat="41.0343370" lon="-2.4707680">
        <ele>1188.0</ele>
        <time>2020-09-12T09:07:14Z</time>
      </trkpt>
      <trkpt lat="41.0343330" lon="-2.4708870">
        <ele>1187.6</ele>
        <time>2020-09-12T09:07:15Z</time>
      </trkpt>
      <trkpt lat="41.0343270" lon="-2.4710070">
        <ele>1187.2</ele>
        <time>2020-09-12T09:07:16Z</time>
      </trkpt>
      <trkpt lat="41.0343140" lon="-2.4711270">
        <ele>1187.0</ele>
        <time>2020-09-12T09:07:17Z</time>
      </trkpt>
      <trkpt lat="41.0342900" lon="-2.4712450">
        <ele>1186.8</ele>
        <time>2020-09-12T09:07:18Z</time>
      </trkpt>
      <trkpt lat="41.0342590" lon="-2.4713600">
        <ele>1186.4</ele>
        <time>2020-09-12T09:07:19Z</time>
      </trkpt>
      <trkpt lat="41.0342220" lon="-2.4714730">
        <ele>1186.0</ele>
        <time>2020-09-12T09:07:20Z</time>
      </trkpt>
      <trkpt lat="41.0341780" lon="-2.4715850">
        <ele>1185.4</ele>
        <time>2020-09-12T09:07:21Z</time>
      </trkpt>
      <trkpt lat="41.0341270" lon="-2.4716930">
        <ele>1185.0</ele>
        <time>2020-09-12T09:07:22Z</time>
      </trkpt>
      <trkpt lat="41.0340670" lon="-2.4717990">
        <ele>1184.6</ele>
        <time>2020-09-12T09:07:23Z</time>
      </trkpt>
      <trkpt lat="41.0339990" lon="-2.4718970">
        <ele>1184.0</ele>
        <time>2020-09-12T09:07:24Z</time>
      </trkpt>
      <trkpt lat="41.0339200" lon="-2.4719850">
        <ele>1183.4</ele>
        <time>2020-09-12T09:07:25Z</time>
      </trkpt>
      <trkpt lat="41.0338340" lon="-2.4720650">
        <ele>1183.0</ele>
        <time>2020-09-12T09:07:26Z</time>
      </trkpt>
      <trkpt lat="41.0337440" lon="-2.4721410">
        <ele>1182.4</ele>
        <time>2020-09-12T09:07:27Z</time>
      </trkpt>
      <trkpt lat="41.0336530" lon="-2.4722200">
        <ele>1181.8</ele>
        <time>2020-09-12T09:07:28Z</time>
      </trkpt>
      <trkpt lat="41.0335620" lon="-2.4723030">
        <ele>1181.4</ele>
        <time>2020-09-12T09:07:29Z</time>
      </trkpt>
      <trkpt lat="41.0334690" lon="-2.4723880">
        <ele>1180.8</ele>
        <time>2020-09-12T09:07:30Z</time>
      </trkpt>
      <trkpt lat="41.0333760" lon="-2.4724730">
        <ele>1180.2</ele>
        <time>2020-09-12T09:07:31Z</time>
      </trkpt>
      <trkpt lat="41.0332800" lon="-2.4725590">
        <ele>1179.6</ele>
        <time>2020-09-12T09:07:32Z</time>
      </trkpt>
      <trkpt lat="41.0331850" lon="-2.4726440">
        <ele>1179.2</ele>
        <time>2020-09-12T09:07:33Z</time>
      </trkpt>
      <trkpt lat="41.0330900" lon="-2.4727300">
        <ele>1178.8</ele>
        <time>2020-09-12T09:07:34Z</time>
      </trkpt>
      <trkpt lat="41.0329970" lon="-2.4728170">
        <ele>1178.6</ele>
        <time>2020-09-12T09:07:35Z</time>
      </trkpt>
      <trkpt lat="41.0329010" lon="-2.4728960">
        <ele>1178.2</ele>
        <time>2020-09-12T09:07:36Z</time>
      </trkpt>
      <trkpt lat="41.0328020" lon="-2.4729580">
        <ele>1177.6</ele>
        <time>2020-09-12T09:07:37Z</time>
      </trkpt>
      <trkpt lat="41.0326960" lon="-2.4729940">
        <ele>1177.0</ele>
        <time>2020-09-12T09:07:38Z</time>
      </trkpt>
      <trkpt lat="41.0325860" lon="-2.4730040">
        <ele>1176.4</ele>
        <time>2020-09-12T09:07:39Z</time>
      </trkpt>
      <trkpt lat="41.0324760" lon="-2.4729990">
        <ele>1176.0</ele>
        <time>2020-09-12T09:07:40Z</time>
      </trkpt>
      <trkpt lat="41.0323650" lon="-2.4729930">
        <ele>1175.8</ele>
        <time>2020-09-12T09:07:41Z</time>
      </trkpt>
      <trkpt lat="41.0322550" lon="-2.4729940">
        <ele>1175.6</ele>
        <time>2020-09-12T09:07:42Z</time>
      </trkpt>
      <trkpt lat="41.0321500" lon="-2.4730080">
        <ele>1175.4</ele>
        <time>2020-09-12T09:07:43Z</time>
      </trkpt>
      <trkpt lat="41.0320490" lon="-2.4730520">
        <ele>1175.0</ele>
        <time>2020-09-12T09:07:44Z</time>
      </trkpt>
      <trkpt lat="41.0319610" lon="-2.4731260">
        <ele>1174.8</ele>
        <time>2020-09-12T09:07:45Z</time>
      </trkpt>
      <trkpt lat="41.0318820" lon="-2.4732170">
        <ele>1174.6</ele>
        <time>2020-09-12T09:07:46Z</time>
      </trkpt>
      <trkpt lat="41.0318070" lon="-2.4733130">
        <ele>1174.4</ele>
        <time>2020-09-12T09:07:47Z</time>
      </trkpt>
      <trkpt lat="41.0317340" lon="-2.4734080">
        <ele>1174.2</ele>
        <time>2020-09-12T09:07:48Z</time>
      </trkpt>
      <trkpt lat="41.0316610" lon="-2.4735010">
        <ele>1174.0</ele>
        <time>2020-09-12T09:07:49Z</time>
      </trkpt>
      <trkpt lat="41.0315880" lon="-2.4735930">
        <ele>1173.8</ele>
        <time>2020-09-12T09:07:50Z</time>
      </trkpt>
      <trkpt lat="41.0315160" lon="-2.4736840">
        <ele>1173.8</ele>
        <time>2020-09-12T09:07:51Z</time>
      </trkpt>
      <trkpt lat="41.0314450" lon="-2.4737730">
        <ele>1173.6</ele>
        <time>2020-09-12T09:07:52Z</time>
      </trkpt>
      <trkpt lat="41.0313740" lon="-2.4738620">
        <ele>1173.6</ele>
        <time>2020-09-12T09:07:53Z</time>
      </trkpt>
      <trkpt lat="41.0313040" lon="-2.4739490">
        <ele>1173.4</ele>
        <time>2020-09-12T09:07:54Z</time>
      </trkpt>
      <trkpt lat="41.0312350" lon="-2.4740350">
        <ele>1173.4</ele>
        <time>2020-09-12T09:07:55Z</time>
      </trkpt>
      <trkpt lat="41.0311650" lon="-2.4741190">
        <ele>1173.2</ele>
        <time>2020-09-12T09:07:56Z</time>
      </trkpt>
      <trkpt lat="41.0310950" lon="-2.4742040">
        <ele>1173.0</ele>
        <time>2020-09-12T09:07:57Z</time>
      </trkpt>
      <trkpt lat="41.0310260" lon="-2.4742870">
        <ele>1172.8</ele>
        <time>2020-09-12T09:07:58Z</time>
      </trkpt>
      <trkpt lat="41.0309580" lon="-2.4743660">
        <ele>1172.6</ele>
        <time>2020-09-12T09:07:59Z</time>
      </trkpt>
      <trkpt lat="41.0308880" lon="-2.4744470">
        <ele>1172.2</ele>
        <time>2020-09-12T09:08:00Z</time>
      </trkpt>
      <trkpt lat="41.0308180" lon="-2.4745270">
        <ele>1172.0</ele>
        <time>2020-09-12T09:08:01Z</time>
      </trkpt>
      <trkpt lat="41.0307460" lon="-2.4746060">
        <ele>1172.0</ele>
        <time>2020-09-12T09:08:02Z</time>
      </trkpt>
      <trkpt lat="41.0306740" lon="-2.4746840">
        <ele>1171.8</ele>
        <time>2020-09-12T09:08:03Z</time>
      </trkpt>
      <trkpt lat="41.0306030" lon="-2.4747610">
        <ele>1171.8</ele>
        <time>2020-09-12T09:08:04Z</time>
      </trkpt>
      <trkpt lat="41.0305330" lon="-2.4748390">
        <ele>1171.6</ele>
        <time>2020-09-12T09:08:05Z</time>
      </trkpt>
      <trkpt lat="41.0304630" lon="-2.4749180">
        <ele>1171.4</ele>
        <time>2020-09-12T09:08:06Z</time>
      </trkpt>
      <trkpt lat="41.0303950" lon="-2.4749990">
        <ele>1171.2</ele>
        <time>2020-09-12T09:08:07Z</time>
      </trkpt>
      <trkpt lat="41.0303280" lon="-2.4750800">
        <ele>1171.0</ele>
        <time>2020-09-12T09:08:08Z</time>
      </trkpt>
      <trkpt lat="41.0302590" lon="-2.4751600">
        <ele>1170.8</ele>
        <time>2020-09-12T09:08:09Z</time>
      </trkpt>
      <trkpt lat="41.0301880" lon="-2.4752380">
        <ele>1170.8</ele>
        <time>2020-09-12T09:08:10Z</time>
      </trkpt>
      <trkpt lat="41.0301160" lon="-2.4753160">
        <ele>1170.6</ele>
        <time>2020-09-12T09:08:11Z</time>
      </trkpt>
      <trkpt lat="41.0300440" lon="-2.4753960">
        <ele>1170.4</ele>
        <time>2020-09-12T09:08:12Z</time>
      </trkpt>
      <trkpt lat="41.0299730" lon="-2.4754780">
        <ele>1170.4</ele>
        <time>2020-09-12T09:08:13Z</time>
      </trkpt>
      <trkpt lat="41.0299040" lon="-2.4755620">
        <ele>1170.2</ele>
        <time>2020-09-12T09:08:14Z</time>
      </trkpt>
      <trkpt lat="41.0298390" lon="-2.4756520">
        <ele>1170.2</ele>
        <time>2020-09-12T09:08:15Z</time>
      </trkpt>
      <trkpt lat="41.0297790" lon="-2.4757460">
        <ele>1170.2</ele>
        <time>2020-09-12T09:08:16Z</time>
      </trkpt>
      <trkpt lat="41.0297210" lon="-2.4758410">
        <ele>1170.2</ele>
        <time>2020-09-12T09:08:17Z</time>
      </trkpt>
      <trkpt lat="41.0296630" lon="-2.4759340">
        <ele>1170.2</ele>
        <time>2020-09-12T09:08:18Z</time>
      </trkpt>
      <trkpt lat="41.0296060" lon="-2.4760270">
        <ele>1170.2</ele>
        <time>2020-09-12T09:08:19Z</time>
      </trkpt>
      <trkpt lat="41.0295510" lon="-2.4761200">
        <ele>1170.2</ele>
        <time>2020-09-12T09:08:20Z</time>
      </trkpt>
      <trkpt lat="41.0294960" lon="-2.4762140">
        <ele>1170.2</ele>
        <time>2020-09-12T09:08:21Z</time>
      </trkpt>
      <trkpt lat="41.0294420" lon="-2.4763040">
        <ele>1170.0</ele>
        <time>2020-09-12T09:08:22Z</time>
      </trkpt>
      <trkpt lat="41.0293870" lon="-2.4763940">
        <ele>1170.2</ele>
        <time>2020-09-12T09:08:23Z</time>
      </trkpt>
      <trkpt lat="41.0293310" lon="-2.4764820">
        <ele>1170.2</ele>
        <time>2020-09-12T09:08:24Z</time>
      </trkpt>
      <trkpt lat="41.0292720" lon="-2.4765640">
        <ele>1170.4</ele>
        <time>2020-09-12T09:08:25Z</time>
      </trkpt>
      <trkpt lat="41.0292110" lon="-2.4766440">
        <ele>1170.4</ele>
        <time>2020-09-12T09:08:26Z</time>
      </trkpt>
      <trkpt lat="41.0291470" lon="-2.4767190">
        <ele>1170.4</ele>
        <time>2020-09-12T09:08:27Z</time>
      </trkpt>
      <trkpt lat="41.0290820" lon="-2.4767890">
        <ele>1170.4</ele>
        <time>2020-09-12T09:08:28Z</time>
      </trkpt>
      <trkpt lat="41.0290130" lon="-2.4768550">
        <ele>1170.6</ele>
        <time>2020-09-12T09:08:29Z</time>
      </trkpt>
      <trkpt lat="41.0289440" lon="-2.4769180">
        <ele>1170.6</ele>
        <time>2020-09-12T09:08:30Z</time>
      </trkpt>
      <trkpt lat="41.0288750" lon="-2.4769780">
        <ele>1170.6</ele>
        <time>2020-09-12T09:08:31Z</time>
      </trkpt>
      <trkpt lat="41.0288050" lon="-2.4770330">
        <ele>1170.6</ele>
        <time>2020-09-12T09:08:32Z</time>
      </trkpt>
      <trkpt lat="41.0287340" lon="-2.4770860">
        <ele>1170.6</ele>
        <time>2020-09-12T09:08:33Z</time>
      </trkpt>
      <trkpt lat="41.0286640" lon="-2.4771410">
        <ele>1170.6</ele>
        <time>2020-09-12T09:08:34Z</time>
      </trkpt>
      <trkpt lat="41.0285940" lon="-2.4771950">
        <ele>1170.6</ele>
        <time>2020-09-12T09:08:35Z</time>
      </trkpt>
      <trkpt lat="41.0285250" lon="-2.4772490">
        <ele>1170.6</ele>
        <time>2020-09-12T09:08:36Z</time>
      </trkpt>
      <trkpt lat="41.0284560" lon="-2.4773020">
        <ele>1170.4</ele>
        <time>2020-09-12T09:08:37Z</time>
      </trkpt>
      <trkpt lat="41.0283890" lon="-2.4773540">
        <ele>1170.6</ele>
        <time>2020-09-12T09:08:38Z</time>
      </trkpt>
      <trkpt lat="41.0283240" lon="-2.4774050">
        <ele>1170.8</ele>
        <time>2020-09-12T09:08:39Z</time>
      </trkpt>
      <trkpt lat="41.0282600" lon="-2.4774540">
        <ele>1171.2</ele>
        <time>2020-09-12T09:08:40Z</time>
      </trkpt>
      <trkpt lat="41.0281970" lon="-2.4775020">
        <ele>1171.4</ele>
        <time>2020-09-12T09:08:41Z</time>
      </trkpt>
      <trkpt lat="41.0281340" lon="-2.4775490">
        <ele>1171.8</ele>
        <time>2020-09-12T09:08:42Z</time>
      </trkpt>
      <trkpt lat="41.0280720" lon="-2.4775930">
        <ele>1171.8</ele>
        <time>2020-09-12T09:08:43Z</time>
      </trkpt>
      <trkpt lat="41.0280120" lon="-2.4776380">
        <ele>1172.0</ele>
        <time>2020-09-12T09:08:44Z</time>
      </trkpt>
      <trkpt lat="41.0279540" lon="-2.4776850">
        <ele>1171.8</ele>
        <time>2020-09-12T09:08:45Z</time>
      </trkpt>
      <trkpt lat="41.0278960" lon="-2.4777300">
        <ele>1172.0</ele>
        <time>2020-09-12T09:08:46Z</time>
      </trkpt>
      <trkpt lat="41.0278390" lon="-2.4777740">
        <ele>1172.0</ele>
        <time>2020-09-12T09:08:47Z</time>
      </trkpt>
      <trkpt lat="41.0277830" lon="-2.4778180">
        <ele>1172.0</ele>
        <time>2020-09-12T09:08:48Z</time>
      </trkpt>
      <trkpt lat="41.0277270" lon="-2.4778640">
        <ele>1172.0</ele>
        <time>2020-09-12T09:08:49Z</time>
      </trkpt>
      <trkpt lat="41.0276720" lon="-2.4779100">
        <ele>1172.0</ele>
        <time>2020-09-12T09:08:50Z</time>
      </trkpt>
      <trkpt lat="41.0276170" lon="-2.4779570">
        <ele>1172.0</ele>
        <time>2020-09-12T09:08:51Z</time>
      </trkpt>
      <trkpt lat="41.0275640" lon="-2.4780050">
        <ele>1172.2</ele>
        <time>2020-09-12T09:08:52Z</time>
      </trkpt>
      <trkpt lat="41.0275110" lon="-2.4780550">
        <ele>1172.2</ele>
        <time>2020-09-12T09:08:53Z</time>
      </trkpt>
      <trkpt lat="41.0274580" lon="-2.4781050">
        <ele>1172.2</ele>
        <time>2020-09-12T09:08:54Z</time>
      </trkpt>
      <trkpt lat="41.0274050" lon="-2.4781560">
        <ele>1172.2</ele>
        <time>2020-09-12T09:08:55Z</time>
      </trkpt>
      <trkpt lat="41.0273540" lon="-2.4782080">
        <ele>1172.2</ele>
        <time>2020-09-12T09:08:56Z</time>
      </trkpt>
      <trkpt lat="41.0273050" lon="-2.4782580">
        <ele>1172.2</ele>
        <time>2020-09-12T09:08:57Z</time>
      </trkpt>
      <trkpt lat="41.0272560" lon="-2.4783110">
        <ele>1172.4</ele>
        <time>2020-09-12T09:08:58Z</time>
      </trkpt>
      <trkpt lat="41.0272080" lon="-2.4783660">
        <ele>1172.6</ele>
        <time>2020-09-12T09:08:59Z</time>
      </trkpt>
      <trkpt lat="41.0271610" lon="-2.4784230">
        <ele>1172.8</ele>
        <time>2020-09-12T09:09:00Z</time>
      </trkpt>
      <trkpt lat="41.0271180" lon="-2.4784820">
        <ele>1172.8</ele>
        <time>2020-09-12T09:09:01Z</time>
      </trkpt>
      <trkpt lat="41.0270760" lon="-2.4785420">
        <ele>1173.0</ele>
        <time>2020-09-12T09:09:02Z</time>
      </trkpt>
      <trkpt lat="41.0270320" lon="-2.4786010">
        <ele>1173.2</ele>
        <time>2020-09-12T09:09:03Z</time>
      </trkpt>
      <trkpt lat="41.0269890" lon="-2.4786580">
        <ele>1173.0</ele>
        <time>2020-09-12T09:09:04Z</time>
      </trkpt>
      <trkpt lat="41.0269480" lon="-2.4787160">
        <ele>1173.2</ele>
        <time>2020-09-12T09:09:05Z</time>
      </trkpt>
      <trkpt lat="41.0269080" lon="-2.4787750">
        <ele>1173.4</ele>
        <time>2020-09-12T09:09:06Z</time>
      </trkpt>
      <trkpt lat="41.0268690" lon="-2.4788350">
        <ele>1173.6</ele>
        <time>2020-09-12T09:09:07Z</time>
      </trkpt>
      <trkpt lat="41.0268330" lon="-2.4788950">
        <ele>1173.6</ele>
        <time>2020-09-12T09:09:08Z</time>
      </trkpt>
      <trkpt lat="41.0267960" lon="-2.4789520">
        <ele>1173.8</ele>
        <time>2020-09-12T09:09:09Z</time>
      </trkpt>
      <trkpt lat="41.0267600" lon="-2.4790080">
        <ele>1173.8</ele>
        <time>2020-09-12T09:09:10Z</time>
      </trkpt>
      <trkpt lat="41.0267240" lon="-2.4790630">
        <ele>1174.0</ele>
        <time>2020-09-12T09:09:11Z</time>
      </trkpt>
      <trkpt lat="41.0266890" lon="-2.4791170">
        <ele>1174.0</ele>
        <time>2020-09-12T09:09:12Z</time>
      </trkpt>
      <trkpt lat="41.0266540" lon="-2.4791690">
        <ele>1174.4</ele>
        <time>2020-09-12T09:09:13Z</time>
      </trkpt>
      <trkpt lat="41.0266200" lon="-2.4792220">
        <ele>1174.6</ele>
        <time>2020-09-12T09:09:14Z</time>
      </trkpt>
      <trkpt lat="41.0265860" lon="-2.4792750">
        <ele>1174.6</ele>
        <time>2020-09-12T09:09:15Z</time>
      </trkpt>
      <trkpt lat="41.0265530" lon="-2.4793290">
        <ele>1174.8</ele>
        <time>2020-09-12T09:09:16Z</time>
      </trkpt>
      <trkpt lat="41.0265190" lon="-2.4793810">
        <ele>1174.8</ele>
        <time>2020-09-12T09:09:17Z</time>
      </trkpt>
      <trkpt lat="41.0264840" lon="-2.4794310">
        <ele>1175.0</ele>
        <time>2020-09-12T09:09:18Z</time>
      </trkpt>
      <trkpt lat="41.0264530" lon="-2.4794820">
        <ele>1175.4</ele>
        <time>2020-09-12T09:09:19Z</time>
      </trkpt>
      <trkpt lat="41.0264230" lon="-2.4795340">
        <ele>1175.4</ele>
        <time>2020-09-12T09:09:20Z</time>
      </trkpt>
      <trkpt lat="41.0263920" lon="-2.4795870">
        <ele>1175.6</ele>
        <time>2020-09-12T09:09:21Z</time>
      </trkpt>
      <trkpt lat="41.0263590" lon="-2.4796420">
        <ele>1175.6</ele>
        <time>2020-09-12T09:09:22Z</time>
      </trkpt>
      <trkpt lat="41.0263210" lon="-2.4796980">
        <ele>1175.6</ele>
        <time>2020-09-12T09:09:23Z</time>
      </trkpt>
      <trkpt lat="41.0262790" lon="-2.4797520">
        <ele>1175.6</ele>
        <time>2020-09-12T09:09:24Z</time>
      </trkpt>
      <trkpt lat="41.0262360" lon="-2.4798070">
        <ele>1175.4</ele>
        <time>2020-09-12T09:09:25Z</time>
      </trkpt>
      <trkpt lat="41.0261940" lon="-2.4798640">
        <ele>1175.4</ele>
        <time>2020-09-12T09:09:26Z</time>
      </trkpt>
      <trkpt lat="41.0261530" lon="-2.4799260">
        <ele>1175.4</ele>
        <time>2020-09-12T09:09:27Z</time>
      </trkpt>
      <trkpt lat="41.0261110" lon="-2.4799940">
        <ele>1175.2</ele>
        <time>2020-09-12T09:09:28Z</time>
      </trkpt>
      <trkpt lat="41.0260670" lon="-2.4800670">
        <ele>1175.0</ele>
        <time>2020-09-12T09:09:29Z</time>
      </trkpt>
      <trkpt lat="41.0260230" lon="-2.4801460">
        <ele>1174.4</ele>
        <time>2020-09-12T09:09:30Z</time>
      </trkpt>
      <trkpt lat="41.0259790" lon="-2.4802320">
        <ele>1174.2</ele>
        <time>2020-09-12T09:09:31Z</time>
      </trkpt>
      <trkpt lat="41.0259370" lon="-2.4803220">
        <ele>1174.0</ele>
        <time>2020-09-12T09:09:32Z</time>
      </trkpt>
      <trkpt lat="41.0258940" lon="-2.4804130">
        <ele>1173.6</ele>
        <time>2020-09-12T09:09:33Z</time>
      </trkpt>
      <trkpt lat="41.0258520" lon="-2.4805030">
        <ele>1173.4</ele>
        <time>2020-09-12T09:09:34Z</time>
      </trkpt>
      <trkpt lat="41.0258130" lon="-2.4805920">
        <ele>1173.2</ele>
        <time>2020-09-12T09:09:35Z</time>
      </trkpt>
      <trkpt lat="41.0257750" lon="-2.4806790">
        <ele>1173.2</ele>
        <time>2020-09-12T09:09:36Z</time>
      </trkpt>
      <trkpt lat="41.0257400" lon="-2.4807660">
        <ele>1173.2</ele>
        <time>2020-09-12T09:09:37Z</time>
      </trkpt>
      <trkpt lat="41.0257050" lon="-2.4808520">
        <ele>1173.0</ele>
        <time>2020-09-12T09:09:38Z</time>
      </trkpt>
      <trkpt lat="41.0256690" lon="-2.4809340">
        <ele>1172.8</ele>
        <time>2020-09-12T09:09:39Z</time>
      </trkpt>
      <trkpt lat="41.0256300" lon="-2.4810110">
        <ele>1172.8</ele>
        <time>2020-09-12T09:09:40Z</time>
      </trkpt>
      <trkpt lat="41.0255860" lon="-2.4810780">
        <ele>1172.8</ele>
        <time>2020-09-12T09:09:41Z</time>
      </trkpt>
      <trkpt lat="41.0255400" lon="-2.4811320">
        <ele>1173.2</ele>
        <time>2020-09-12T09:09:42Z</time>
      </trkpt>
      <trkpt lat="41.0254920" lon="-2.4811750">
        <ele>1173.2</ele>
        <time>2020-09-12T09:09:43Z</time>
      </trkpt>
      <trkpt lat="41.0254440" lon="-2.4812130">
        <ele>1173.4</ele>
        <time>2020-09-12T09:09:44Z</time>
      </trkpt>
      <trkpt lat="41.0253980" lon="-2.4812470">
        <ele>1173.8</ele>
        <time>2020-09-12T09:09:45Z</time>
      </trkpt>
      <trkpt lat="41.0253510" lon="-2.4812760">
        <ele>1174.0</ele>
        <time>2020-09-12T09:09:46Z</time>
      </trkpt>
      <trkpt lat="41.0253040" lon="-2.4813030">
        <ele>1174.4</ele>
        <time>2020-09-12T09:09:47Z</time>
      </trkpt>
      <trkpt lat="41.0252570" lon="-2.4813270">
        <ele>1174.6</ele>
        <time>2020-09-12T09:09:48Z</time>
      </trkpt>
      <trkpt lat="41.0252120" lon="-2.4813480">
        <ele>1174.8</ele>
        <time>2020-09-12T09:09:49Z</time>
      </trkpt>
      <trkpt lat="41.0251680" lon="-2.4813710">
        <ele>1175.2</ele>
        <time>2020-09-12T09:09:50Z</time>
      </trkpt>
      <trkpt lat="41.0251270" lon="-2.4813950">
        <ele>1175.4</ele>
        <time>2020-09-12T09:09:51Z</time>
      </trkpt>
      <trkpt lat="41.0250870" lon="-2.4814190">
        <ele>1175.8</ele>
        <time>2020-09-12T09:09:52Z</time>
      </trkpt>
      <trkpt lat="41.0250470" lon="-2.4814420">
        <ele>1176.2</ele>
        <time>2020-09-12T09:09:53Z</time>
      </trkpt>
      <trkpt lat="41.0250080" lon="-2.4814650">
        <ele>1176.6</ele>
        <time>2020-09-12T09:09:54Z</time>
      </trkpt>
      <trkpt lat="41.0249700" lon="-2.4814920">
        <ele>1176.8</ele>
        <time>2020-09-12T09:09:55Z</time>
      </trkpt>
      <trkpt lat="41.0249330" lon="-2.4815190">
        <ele>1177.2</ele>
        <time>2020-09-12T09:09:56Z</time>
      </trkpt>
      <trkpt lat="41.0248970" lon="-2.4815480">
        <ele>1177.6</ele>
        <time>2020-09-12T09:09:57Z</time>
      </trkpt>
      <trkpt lat="41.0248610" lon="-2.4815760">
        <ele>1177.8</ele>
        <time>2020-09-12T09:09:58Z</time>
      </trkpt>
      <trkpt lat="41.0248280" lon="-2.4816080">
        <ele>1178.2</ele>
        <time>2020-09-12T09:09:59Z</time>
      </trkpt>
      <trkpt lat="41.0247980" lon="-2.4816440">
        <ele>1178.6</ele>
        <time>2020-09-12T09:10:00Z</time>
      </trkpt>
      <trkpt lat="41.0247670" lon="-2.4816820">
        <ele>1179.0</ele>
        <time>2020-09-12T09:10:01Z</time>
      </trkpt>
      <trkpt lat="41.0247380" lon="-2.4817200">
        <ele>1179.4</ele>
        <time>2020-09-12T09:10:02Z</time>
      </trkpt>
      <trkpt lat="41.0247120" lon="-2.4817600">
        <ele>1179.8</ele>
        <time>2020-09-12T09:10:03Z</time>
      </trkpt>
      <trkpt lat="41.0246880" lon="-2.4818020">
        <ele>1180.0</ele>
        <time>2020-09-12T09:10:04Z</time>
      </trkpt>
      <trkpt lat="41.0246660" lon="-2.4818450">
        <ele>1180.2</ele>
        <time>2020-09-12T09:10:05Z</time>
      </trkpt>
      <trkpt lat="41.0246450" lon="-2.4818880">
        <ele>1180.4</ele>
        <time>2020-09-12T09:10:06Z</time>
      </trkpt>
      <trkpt lat="41.0246270" lon="-2.4819310">
        <ele>1180.6</ele>
        <time>2020-09-12T09:10:07Z</time>
      </trkpt>
      <trkpt lat="41.0246120" lon="-2.4819750">
        <ele>1180.8</ele>
        <time>2020-09-12T09:10:08Z</time>
      </trkpt>
      <trkpt lat="41.0245960" lon="-2.4820200">
        <ele>1181.0</ele>
        <time>2020-09-12T09:10:09Z</time>
      </trkpt>
      <trkpt lat="41.0245810" lon="-2.4820670">
        <ele>1181.4</ele>
        <time>2020-09-12T09:10:10Z</time>
      </trkpt>
      <trkpt lat="41.0245690" lon="-2.4821150">
        <ele>1181.6</ele>
        <time>2020-09-12T09:10:11Z</time>
      </trkpt>
      <trkpt lat="41.0245590" lon="-2.4821640">
        <ele>1182.0</ele>
        <time>2020-09-12T09:10:12Z</time>
      </trkpt>
      <trkpt lat="41.0245480" lon="-2.4822130">
        <ele>1182.4</ele>
        <time>2020-09-12T09:10:13Z</time>
      </trkpt>
      <trkpt lat="41.0245330" lon="-2.4822620">
        <ele>1182.6</ele>
        <time>2020-09-12T09:10:14Z</time>
      </trkpt>
      <trkpt lat="41.0245150" lon="-2.4823100">
        <ele>1182.8</ele>
        <time>2020-09-12T09:10:15Z</time>
      </trkpt>
      <trkpt lat="41.0244960" lon="-2.4823590">
        <ele>1183.0</ele>
        <time>2020-09-12T09:10:16Z</time>
      </trkpt>
      <trkpt lat="41.0244740" lon="-2.4824070">
        <ele>1183.4</ele>
        <time>2020-09-12T09:10:17Z</time>
      </trkpt>
      <trkpt lat="41.0244500" lon="-2.4824540">
        <ele>1183.8</ele>
        <time>2020-09-12T09:10:18Z</time>
      </trkpt>
      <trkpt lat="41.0244200" lon="-2.4824970">
        <ele>1184.0</ele>
        <time>2020-09-12T09:10:19Z</time>
      </trkpt>
      <trkpt lat="41.0243890" lon="-2.4825350">
        <ele>1184.2</ele>
        <time>2020-09-12T09:10:20Z</time>
      </trkpt>
      <trkpt lat="41.0243560" lon="-2.4825700">
        <ele>1184.6</ele>
        <time>2020-09-12T09:10:21Z</time>
      </trkpt>
      <trkpt lat="41.0243260" lon="-2.4826030">
        <ele>1185.0</ele>
        <time>2020-09-12T09:10:22Z</time>
      </trkpt>
      <trkpt lat="41.0242970" lon="-2.4826360">
        <ele>1185.2</ele>
        <time>2020-09-12T09:10:23Z</time>
      </trkpt>
      <trkpt lat="41.0242710" lon="-2.4826710">
        <ele>1185.4</ele>
        <time>2020-09-12T09:10:24Z</time>
      </trkpt>
      <trkpt lat="41.0242470" lon="-2.4827090">
        <ele>1185.8</ele>
        <time>2020-09-12T09:10:25Z</time>
      </trkpt>
      <trkpt lat="41.0242240" lon="-2.4827490">
        <ele>1186.0</ele>
        <time>2020-09-12T09:10:26Z</time>
      </trkpt>
      <trkpt lat="41.0242000" lon="-2.4827880">
        <ele>1186.4</ele>
        <time>2020-09-12T09:10:27Z</time>
      </trkpt>
      <trkpt lat="41.0241800" lon="-2.4828300">
        <ele>1186.8</ele>
        <time>2020-09-12T09:10:28Z</time>
      </trkpt>
      <trkpt lat="41.0241640" lon="-2.4828730">
        <ele>1187.0</ele>
        <time>2020-09-12T09:10:29Z</time>
      </trkpt>
      <trkpt lat="41.0241540" lon="-2.4829170">
        <ele>1187.2</ele>
        <time>2020-09-12T09:10:30Z</time>
      </trkpt>
      <trkpt lat="41.0241450" lon="-2.4829600">
        <ele>1187.4</ele>
        <time>2020-09-12T09:10:31Z</time>
      </trkpt>
      <trkpt lat="41.0241340" lon="-2.4830000">
        <ele>1187.6</ele>
        <time>2020-09-12T09:10:32Z</time>
      </trkpt>
      <trkpt lat="41.0241240" lon="-2.4830400">
        <ele>1187.8</ele>
        <time>2020-09-12T09:10:33Z</time>
      </trkpt>
      <trkpt lat="41.0241150" lon="-2.4830820">
        <ele>1188.0</ele>
        <time>2020-09-12T09:10:34Z</time>
      </trkpt>
      <trkpt lat="41.0241060" lon="-2.4831300">
        <ele>1188.2</ele>
        <time>2020-09-12T09:10:35Z</time>
      </trkpt>
      <trkpt lat="41.0240950" lon="-2.4831820">
        <ele>1188.2</ele>
        <time>2020-09-12T09:10:36Z</time>
      </trkpt>
      <trkpt lat="41.0240830" lon="-2.4832360">
        <ele>1188.4</ele>
        <time>2020-09-12T09:10:37Z</time>
      </trkpt>
      <trkpt lat="41.0240700" lon="-2.4832950">
        <ele>1188.4</ele>
        <time>2020-09-12T09:10:38Z</time>
      </trkpt>
      <trkpt lat="41.0240540" lon="-2.4833560">
        <ele>1188.2</ele>
        <time>2020-09-12T09:10:39Z</time>
      </trkpt>
      <trkpt lat="41.0240360" lon="-2.4834200">
        <ele>1188.2</ele>
        <time>2020-09-12T09:10:40Z</time>
      </trkpt>
      <trkpt lat="41.0240170" lon="-2.4834840">
        <ele>1188.0</ele>
        <time>2020-09-12T09:10:41Z</time>
      </trkpt>
      <trkpt lat="41.0239930" lon="-2.4835500">
        <ele>1188.0</ele>
        <time>2020-09-12T09:10:42Z</time>
      </trkpt>
      <trkpt lat="41.0239660" lon="-2.4836140">
        <ele>1188.0</ele>
        <time>2020-09-12T09:10:43Z</time>
      </trkpt>
      <trkpt lat="41.0239350" lon="-2.4836800">
        <ele>1187.8</ele>
        <time>2020-09-12T09:10:44Z</time>
      </trkpt>
      <trkpt lat="41.0239000" lon="-2.4837470">
        <ele>1187.4</ele>
        <time>2020-09-12T09:10:45Z</time>
      </trkpt>
      <trkpt lat="41.0238640" lon="-2.4838150">
        <ele>1187.2</ele>
        <time>2020-09-12T09:10:46Z</time>
      </trkpt>
      <trkpt lat="41.0238280" lon="-2.4838860">
        <ele>1187.2</ele>
        <time>2020-09-12T09:10:47Z</time>
      </trkpt>
      <trkpt lat="41.0237910" lon="-2.4839600">
        <ele>1187.0</ele>
        <time>2020-09-12T09:10:48Z</time>
      </trkpt>
      <trkpt lat="41.0237510" lon="-2.4840350">
        <ele>1186.6</ele>
        <time>2020-09-12T09:10:49Z</time>
      </trkpt>
      <trkpt lat="41.0237110" lon="-2.4841100">
        <ele>1186.2</ele>
        <time>2020-09-12T09:10:50Z</time>
      </trkpt>
      <trkpt lat="41.0236710" lon="-2.4841860">
        <ele>1185.8</ele>
        <time>2020-09-12T09:10:51Z</time>
      </trkpt>
      <trkpt lat="41.0236300" lon="-2.4842630">
        <ele>1185.4</ele>
        <time>2020-09-12T09:10:52Z</time>
      </trkpt>
      <trkpt lat="41.0235900" lon="-2.4843380">
        <ele>1185.2</ele>
        <time>2020-09-12T09:10:53Z</time>
      </trkpt>
      <trkpt lat="41.0235510" lon="-2.4844130">
        <ele>1185.2</ele>
        <time>2020-09-12T09:10:54Z</time>
      </trkpt>
      <trkpt lat="41.0235110" lon="-2.4844870">
        <ele>1185.2</ele>
        <time>2020-09-12T09:10:55Z</time>
      </trkpt>
      <trkpt lat="41.0234710" lon="-2.4845600">
        <ele>1185.0</ele>
        <time>2020-09-12T09:10:56Z</time>
      </trkpt>
      <trkpt lat="41.0234310" lon="-2.4846340">
        <ele>1185.0</ele>
        <time>2020-09-12T09:10:57Z</time>
      </trkpt>
      <trkpt lat="41.0233920" lon="-2.4847050">
        <ele>1185.2</ele>
        <time>2020-09-12T09:10:58Z</time>
      </trkpt>
      <trkpt lat="41.0233540" lon="-2.4847740">
        <ele>1185.6</ele>
        <time>2020-09-12T09:10:59Z</time>
      </trkpt>
      <trkpt lat="41.0233150" lon="-2.4848410">
        <ele>1185.8</ele>
        <time>2020-09-12T09:11:00Z</time>
      </trkpt>
      <trkpt lat="41.0232730" lon="-2.4849020">
        <ele>1186.0</ele>
        <time>2020-09-12T09:11:01Z</time>
      </trkpt>
      <trkpt lat="41.0232280" lon="-2.4849540">
        <ele>1186.0</ele>
        <time>2020-09-12T09:11:02Z</time>
      </trkpt>
      <trkpt lat="41.0231780" lon="-2.4849960">
        <ele>1186.0</ele>
        <time>2020-09-12T09:11:03Z</time>
      </trkpt>
      <trkpt lat="41.0231230" lon="-2.4850260">
        <ele>1186.0</ele>
        <time>2020-09-12T09:11:04Z</time>
      </trkpt>
      <trkpt lat="41.0230660" lon="-2.4850450">
        <ele>1186.0</ele>
        <time>2020-09-12T09:11:05Z</time>
      </trkpt>
      <trkpt lat="41.0230070" lon="-2.4850530">
        <ele>1186.0</ele>
        <time>2020-09-12T09:11:06Z</time>
      </trkpt>
      <trkpt lat="41.0229470" lon="-2.4850550">
        <ele>1186.0</ele>
        <time>2020-09-12T09:11:07Z</time>
      </trkpt>
      <trkpt lat="41.0228860" lon="-2.4850520">
        <ele>1186.2</ele>
        <time>2020-09-12T09:11:08Z</time>
      </trkpt>
      <trkpt lat="41.0228250" lon="-2.4850460">
        <ele>1186.2</ele>
        <time>2020-09-12T09:11:09Z</time>
      </trkpt>
      <trkpt lat="41.0227640" lon="-2.4850370">
        <ele>1186.2</ele>
        <time>2020-09-12T09:11:10Z</time>
      </trkpt>
      <trkpt lat="41.0227030" lon="-2.4850270">
        <ele>1186.2</ele>
        <time>2020-09-12T09:11:11Z</time>
      </trkpt>
      <trkpt lat="41.0226430" lon="-2.4850170">
        <ele>1186.4</ele>
        <time>2020-09-12T09:11:12Z</time>
      </trkpt>
      <trkpt lat="41.0225830" lon="-2.4850080">
        <ele>1186.6</ele>
        <time>2020-09-12T09:11:13Z</time>
      </trkpt>
      <trkpt lat="41.0225220" lon="-2.4850010">
        <ele>1186.8</ele>
        <time>2020-09-12T09:11:14Z</time>
      </trkpt>
      <trkpt lat="41.0224630" lon="-2.4849930">
        <ele>1187.0</ele>
        <time>2020-09-12T09:11:15Z</time>
      </trkpt>
      <trkpt lat="41.0224040" lon="-2.4849850">
        <ele>1187.0</ele>
        <time>2020-09-12T09:11:16Z</time>
      </trkpt>
      <trkpt lat="41.0223450" lon="-2.4849760">
        <ele>1187.2</ele>
        <time>2020-09-12T09:11:17Z</time>
      </trkpt>
      <trkpt lat="41.0222870" lon="-2.4849670">
        <ele>1187.4</ele>
        <time>2020-09-12T09:11:18Z</time>
      </trkpt>
      <trkpt lat="41.0222290" lon="-2.4849590">
        <ele>1187.6</ele>
        <time>2020-09-12T09:11:19Z</time>
      </trkpt>
      <trkpt lat="41.0221700" lon="-2.4849490">
        <ele>1187.8</ele>
        <time>2020-09-12T09:11:20Z</time>
      </trkpt>
      <trkpt lat="41.0221110" lon="-2.4849390">
        <ele>1188.0</ele>
        <time>2020-09-12T09:11:21Z</time>
      </trkpt>
      <trkpt lat="41.0220530" lon="-2.4849300">
        <ele>1188.0</ele>
        <time>2020-09-12T09:11:22Z</time>
      </trkpt>
      <trkpt lat="41.0219940" lon="-2.4849200">
        <ele>1188.2</ele>
        <time>2020-09-12T09:11:23Z</time>
      </trkpt>
      <trkpt lat="41.0219350" lon="-2.4849100">
        <ele>1188.4</ele>
        <time>2020-09-12T09:11:24Z</time>
      </trkpt>
      <trkpt lat="41.0218770" lon="-2.4849020">
        <ele>1188.6</ele>
        <time>2020-09-12T09:11:25Z</time>
      </trkpt>
      <trkpt lat="41.0218180" lon="-2.4848950">
        <ele>1188.8</ele>
        <time>2020-09-12T09:11:26Z</time>
      </trkpt>
      <trkpt lat="41.0217600" lon="-2.4848880">
        <ele>1188.8</ele>
        <time>2020-09-12T09:11:27Z</time>
      </trkpt>
      <trkpt lat="41.0217020" lon="-2.4848810">
        <ele>1189.0</ele>
        <time>2020-09-12T09:11:28Z</time>
      </trkpt>
      <trkpt lat="41.0216440" lon="-2.4848750">
        <ele>1189.2</ele>
        <time>2020-09-12T09:11:29Z</time>
      </trkpt>
      <trkpt lat="41.0215860" lon="-2.4848690">
        <ele>1189.4</ele>
        <time>2020-09-12T09:11:30Z</time>
      </trkpt>
      <trkpt lat="41.0215280" lon="-2.4848630">
        <ele>1189.6</ele>
        <time>2020-09-12T09:11:31Z</time>
      </trkpt>
      <trkpt lat="41.0214710" lon="-2.4848560">
        <ele>1189.8</ele>
        <time>2020-09-12T09:11:32Z</time>
      </trkpt>
      <trkpt lat="41.0214130" lon="-2.4848490">
        <ele>1189.8</ele>
        <time>2020-09-12T09:11:33Z</time>
      </trkpt>
      <trkpt lat="41.0213560" lon="-2.4848430">
        <ele>1189.8</ele>
        <time>2020-09-12T09:11:34Z</time>
      </trkpt>
      <trkpt lat="41.0213000" lon="-2.4848350">
        <ele>1189.8</ele>
        <time>2020-09-12T09:11:35Z</time>
      </trkpt>
      <trkpt lat="41.0212440" lon="-2.4848260">
        <ele>1190.0</ele>
        <time>2020-09-12T09:11:36Z</time>
      </trkpt>
      <trkpt lat="41.0211890" lon="-2.4848170">
        <ele>1190.2</ele>
        <time>2020-09-12T09:11:37Z</time>
      </trkpt>
      <trkpt lat="41.0211330" lon="-2.4848080">
        <ele>1190.4</ele>
        <time>2020-09-12T09:11:38Z</time>
      </trkpt>
      <trkpt lat="41.0210770" lon="-2.4848020">
        <ele>1190.6</ele>
        <time>2020-09-12T09:11:39Z</time>
      </trkpt>
      <trkpt lat="41.0210200" lon="-2.4847970">
        <ele>1190.8</ele>
        <time>2020-09-12T09:11:40Z</time>
      </trkpt>
      <trkpt lat="41.0209640" lon="-2.4847910">
        <ele>1191.0</ele>
        <time>2020-09-12T09:11:41Z</time>
      </trkpt>
      <trkpt lat="41.0209070" lon="-2.4847840">
        <ele>1191.2</ele>
        <time>2020-09-12T09:11:42Z</time>
      </trkpt>
      <trkpt lat="41.0208500" lon="-2.4847770">
        <ele>1191.4</ele>
        <time>2020-09-12T09:11:43Z</time>
      </trkpt>
      <trkpt lat="41.0207940" lon="-2.4847720">
        <ele>1191.8</ele>
        <time>2020-09-12T09:11:44Z</time>
      </trkpt>
      <trkpt lat="41.0207380" lon="-2.4847640">
        <ele>1191.8</ele>
        <time>2020-09-12T09:11:45Z</time>
      </trkpt>
      <trkpt lat="41.0206830" lon="-2.4847570">
        <ele>1192.0</ele>
        <time>2020-09-12T09:11:46Z</time>
      </trkpt>
      <trkpt lat="41.0206300" lon="-2.4847490">
        <ele>1192.2</ele>
        <time>2020-09-12T09:11:47Z</time>
      </trkpt>
      <trkpt lat="41.0205780" lon="-2.4847400">
        <ele>1192.4</ele>
        <time>2020-09-12T09:11:48Z</time>
      </trkpt>
      <trkpt lat="41.0205270" lon="-2.4847340">
        <ele>1192.4</ele>
        <time>2020-09-12T09:11:49Z</time>
      </trkpt>
      <trkpt lat="41.0204770" lon="-2.4847290">
        <ele>1192.4</ele>
        <time>2020-09-12T09:11:50Z</time>
      </trkpt>
      <trkpt lat="41.0204270" lon="-2.4847220">
        <ele>1192.6</ele>
        <time>2020-09-12T09:11:51Z</time>
      </trkpt>
      <trkpt lat="41.0203780" lon="-2.4847130">
        <ele>1192.6</ele>
        <time>2020-09-12T09:11:52Z</time>
      </trkpt>
      <trkpt lat="41.0203290" lon="-2.4847060">
        <ele>1192.6</ele>
        <time>2020-09-12T09:11:53Z</time>
      </trkpt>
      <trkpt lat="41.0202800" lon="-2.4847000">
        <ele>1192.8</ele>
        <time>2020-09-12T09:11:54Z</time>
      </trkpt>
      <trkpt lat="41.0202310" lon="-2.4846940">
        <ele>1193.0</ele>
        <time>2020-09-12T09:11:55Z</time>
      </trkpt>
      <trkpt lat="41.0201830" lon="-2.4846880">
        <ele>1193.4</ele>
        <time>2020-09-12T09:11:56Z</time>
      </trkpt>
      <trkpt lat="41.0201340" lon="-2.4846830">
        <ele>1193.6</ele>
        <time>2020-09-12T09:11:57Z</time>
      </trkpt>
      <trkpt lat="41.0200850" lon="-2.4846790">
        <ele>1194.0</ele>
        <time>2020-09-12T09:11:58Z</time>
      </trkpt>
      <trkpt lat="41.0200360" lon="-2.4846750">
        <ele>1194.2</ele>
        <time>2020-09-12T09:11:59Z</time>
      </trkpt>
      <trkpt lat="41.0199870" lon="-2.4846720">
        <ele>1194.4</ele>
        <time>2020-09-12T09:12:00Z</time>
      </trkpt>
      <trkpt lat="41.0199370" lon="-2.4846650">
        <ele>1194.6</ele>
        <time>2020-09-12T09:12:01Z</time>
      </trkpt>
      <trkpt lat="41.0198880" lon="-2.4846570">
        <ele>1195.0</ele>
        <time>2020-09-12T09:12:02Z</time>
      </trkpt>
      <trkpt lat="41.0198380" lon="-2.4846520">
        <ele>1195.2</ele>
        <time>2020-09-12T09:12:03Z</time>
      </trkpt>
      <trkpt lat="41.0197880" lon="-2.4846500">
        <ele>1195.4</ele>
        <time>2020-09-12T09:12:04Z</time>
      </trkpt>
      <trkpt lat="41.0197360" lon="-2.4846510">
        <ele>1195.4</ele>
        <time>2020-09-12T09:12:05Z</time>
      </trkpt>
      <trkpt lat="41.0196850" lon="-2.4846510">
        <ele>1195.6</ele>
        <time>2020-09-12T09:12:06Z</time>
      </trkpt>
      <trkpt lat="41.0196320" lon="-2.4846570">
        <ele>1196.0</ele>
        <time>2020-09-12T09:12:07Z</time>
      </trkpt>
      <trkpt lat="41.0195780" lon="-2.4846720">
        <ele>1196.6</ele>
        <time>2020-09-12T09:12:08Z</time>
      </trkpt>
      <trkpt lat="41.0195260" lon="-2.4846930">
        <ele>1197.0</ele>
        <time>2020-09-12T09:12:09Z</time>
      </trkpt>
      <trkpt lat="41.0194750" lon="-2.4847170">
        <ele>1197.2</ele>
        <time>2020-09-12T09:12:10Z</time>
      </trkpt>
      <trkpt lat="41.0194260" lon="-2.4847430">
        <ele>1197.4</ele>
        <time>2020-09-12T09:12:11Z</time>
      </trkpt>
      <trkpt lat="41.0193790" lon="-2.4847740">
        <ele>1197.6</ele>
        <time>2020-09-12T09:12:12Z</time>
      </trkpt>
      <trkpt lat="41.0193310" lon="-2.4848060">
        <ele>1197.8</ele>
        <time>2020-09-12T09:12:13Z</time>
      </trkpt>
      <trkpt lat="41.0192830" lon="-2.4848400">
        <ele>1198.0</ele>
        <time>2020-09-12T09:12:14Z</time>
      </trkpt>
      <trkpt lat="41.0192350" lon="-2.4848740">
        <ele>1198.0</ele>
        <time>2020-09-12T09:12:15Z</time>
      </trkpt>
      <trkpt lat="41.0191850" lon="-2.4849100">
        <ele>1198.0</ele>
        <time>2020-09-12T09:12:16Z</time>
      </trkpt>
      <trkpt lat="41.0191340" lon="-2.4849450">
        <ele>1198.0</ele>
        <time>2020-09-12T09:12:17Z</time>
      </trkpt>
      <trkpt lat="41.0190820" lon="-2.4849800">
        <ele>1198.0</ele>
        <time>2020-09-12T09:12:18Z</time>
      </trkpt>
      <trkpt lat="41.0190280" lon="-2.4850170">
        <ele>1197.8</ele>
        <time>2020-09-12T09:12:19Z</time>
      </trkpt>
      <trkpt lat="41.0189750" lon="-2.4850550">
        <ele>1197.8</ele>
        <time>2020-09-12T09:12:20Z</time>
      </trkpt>
      <trkpt lat="41.0189190" lon="-2.4850940">
        <ele>1197.6</ele>
        <time>2020-09-12T09:12:21Z</time>
      </trkpt>
      <trkpt lat="41.0188640" lon="-2.4851340">
        <ele>1197.4</ele>
        <time>2020-09-12T09:12:22Z</time>
      </trkpt>
      <trkpt lat="41.0188080" lon="-2.4851740">
        <ele>1197.2</ele>
        <time>2020-09-12T09:12:23Z</time>
      </trkpt>
      <trkpt lat="41.0187520" lon="-2.4852140">
        <ele>1197.2</ele>
        <time>2020-09-12T09:12:24Z</time>
      </trkpt>
      <trkpt lat="41.0186940" lon="-2.4852540">
        <ele>1197.0</ele>
        <time>2020-09-12T09:12:25Z</time>
      </trkpt>
      <trkpt lat="41.0186360" lon="-2.4852960">
        <ele>1197.0</ele>
        <time>2020-09-12T09:12:26Z</time>
      </trkpt>
      <trkpt lat="41.0185760" lon="-2.4853380">
        <ele>1197.0</ele>
        <time>2020-09-12T09:12:27Z</time>
      </trkpt>
      <trkpt lat="41.0185150" lon="-2.4853800">
        <ele>1196.8</ele>
        <time>2020-09-12T09:12:28Z</time>
      </trkpt>
      <trkpt lat="41.0184520" lon="-2.4854240">
        <ele>1196.4</ele>
        <time>2020-09-12T09:12:29Z</time>
      </trkpt>
      <trkpt lat="41.0183870" lon="-2.4854690">
        <ele>1196.0</ele>
        <time>2020-09-12T09:12:30Z</time>
      </trkpt>
      <trkpt lat="41.0183200" lon="-2.4855150">
        <ele>1195.6</ele>
        <time>2020-09-12T09:12:31Z</time>
      </trkpt>
      <trkpt lat="41.0182500" lon="-2.4855590">
        <ele>1195.2</ele>
        <time>2020-09-12T09:12:32Z</time>
      </trkpt>
      <trkpt lat="41.0181810" lon="-2.4856030">
        <ele>1195.2</ele>
        <time>2020-09-12T09:12:33Z</time>
      </trkpt>
      <trkpt lat="41.0181100" lon="-2.4856500">
        <ele>1195.0</ele>
        <time>2020-09-12T09:12:34Z</time>
      </trkpt>
      <trkpt lat="41.0180380" lon="-2.4856950">
        <ele>1195.0</ele>
        <time>2020-09-12T09:12:35Z</time>
      </trkpt>
      <trkpt lat="41.0179630" lon="-2.4857410">
        <ele>1195.0</ele>
        <time>2020-09-12T09:12:36Z</time>
      </trkpt>
      <trkpt lat="41.0178880" lon="-2.4857860">
        <ele>1195.0</ele>
        <time>2020-09-12T09:12:37Z</time>
      </trkpt>
      <trkpt lat="41.0178090" lon="-2.4858290">
        <ele>1195.0</ele>
        <time>2020-09-12T09:12:38Z</time>
      </trkpt>
      <trkpt lat="41.0177290" lon="-2.4858740">
        <ele>1194.8</ele>
        <time>2020-09-12T09:12:39Z</time>
      </trkpt>
      <trkpt lat="41.0176490" lon="-2.4859280">
        <ele>1194.6</ele>
        <time>2020-09-12T09:12:40Z</time>
      </trkpt>
      <trkpt lat="41.0175660" lon="-2.4859800">
        <ele>1194.2</ele>
        <time>2020-09-12T09:12:41Z</time>
      </trkpt>
      <trkpt lat="41.0174800" lon="-2.4860320">
        <ele>1193.8</ele>
        <time>2020-09-12T09:12:42Z</time>
      </trkpt>
      <trkpt lat="41.0173910" lon="-2.4860830">
        <ele>1193.4</ele>
        <time>2020-09-12T09:12:43Z</time>
      </trkpt>
      <trkpt lat="41.0173010" lon="-2.4861320">
        <ele>1193.2</ele>
        <time>2020-09-12T09:12:44Z</time>
      </trkpt>
      <trkpt lat="41.0172100" lon="-2.4861830">
        <ele>1192.8</ele>
        <time>2020-09-12T09:12:45Z</time>
      </trkpt>
      <trkpt lat="41.0171180" lon="-2.4862340">
        <ele>1192.6</ele>
        <time>2020-09-12T09:12:46Z</time>
      </trkpt>
      <trkpt lat="41.0170260" lon="-2.4862840">
        <ele>1192.4</ele>
        <time>2020-09-12T09:12:47Z</time>
      </trkpt>
      <trkpt lat="41.0169360" lon="-2.4863340">
        <ele>1192.2</ele>
        <time>2020-09-12T09:12:48Z</time>
      </trkpt>
      <trkpt lat="41.0168450" lon="-2.4863860">
        <ele>1192.0</ele>
        <time>2020-09-12T09:12:49Z</time>
      </trkpt>
      <trkpt lat="41.0167540" lon="-2.4864390">
        <ele>1192.0</ele>
        <time>2020-09-12T09:12:50Z</time>
      </trkpt>
      <trkpt lat="41.0166610" lon="-2.4864900">
        <ele>1191.6</ele>
        <time>2020-09-12T09:12:51Z</time>
      </trkpt>
      <trkpt lat="41.0165680" lon="-2.4865410">
        <ele>1191.4</ele>
        <time>2020-09-12T09:12:52Z</time>
      </trkpt>
      <trkpt lat="41.0164760" lon="-2.4865920">
        <ele>1191.2</ele>
        <time>2020-09-12T09:12:53Z</time>
      </trkpt>
      <trkpt lat="41.0163840" lon="-2.4866440">
        <ele>1190.8</ele>
        <time>2020-09-12T09:12:54Z</time>
      </trkpt>
      <trkpt lat="41.0162910" lon="-2.4866970">
        <ele>1190.6</ele>
        <time>2020-09-12T09:12:55Z</time>
      </trkpt>
      <trkpt lat="41.0161990" lon="-2.4867490">
        <ele>1190.4</ele>
        <time>2020-09-12T09:12:56Z</time>
      </trkpt>
      <trkpt lat="41.0161070" lon="-2.4868010">
        <ele>1190.2</ele>
        <time>2020-09-12T09:12:57Z</time>
      </trkpt>
      <trkpt lat="41.0160140" lon="-2.4868520">
        <ele>1190.2</ele>
        <time>2020-09-12T09:12:58Z</time>
      </trkpt>
      <trkpt lat="41.0159200" lon="-2.4869030">
        <ele>1190.0</ele>
        <time>2020-09-12T09:12:59Z</time>
      </trkpt>
      <trkpt lat="41.0158260" lon="-2.4869560">
        <ele>1189.8</ele>
        <time>2020-09-12T09:13:00Z</time>
      </trkpt>
      <trkpt lat="41.0157320" lon="-2.4870100">
        <ele>1189.6</ele>
        <time>2020-09-12T09:13:01Z</time>
      </trkpt>
      <trkpt lat="41.0156380" lon="-2.4870660">
        <ele>1189.0</ele>
        <time>2020-09-12T09:13:02Z</time>
      </trkpt>
      <trkpt lat="41.0155440" lon="-2.4871230">
        <ele>1188.8</ele>
        <time>2020-09-12T09:13:03Z</time>
      </trkpt>
      <trkpt lat="41.0154520" lon="-2.4871810">
        <ele>1188.4</ele>
        <time>2020-09-12T09:13:04Z</time>
      </trkpt>
      <trkpt lat="41.0153570" lon="-2.4872390">
        <ele>1188.4</ele>
        <time>2020-09-12T09:13:05Z</time>
      </trkpt>
      <trkpt lat="41.0152620" lon="-2.4872970">
        <ele>1188.2</ele>
        <time>2020-09-12T09:13:06Z</time>
      </trkpt>
      <trkpt lat="41.0151660" lon="-2.4873540">
        <ele>1188.2</ele>
        <time>2020-09-12T09:13:07Z</time>
      </trkpt>
      <trkpt lat="41.0150700" lon="-2.4874100">
        <ele>1188.0</ele>
        <time>2020-09-12T09:13:08Z</time>
      </trkpt>
      <trkpt lat="41.0149750" lon="-2.4874630">
        <ele>1187.8</ele>
        <time>2020-09-12T09:13:09Z</time>
      </trkpt>
      <trkpt lat="41.0148780" lon="-2.4875140">
        <ele>1187.6</ele>
        <time>2020-09-12T09:13:10Z</time>
      </trkpt>
      <trkpt lat="41.0147830" lon="-2.4875630">
        <ele>1187.6</ele>
        <time>2020-09-12T09:13:11Z</time>
      </trkpt>
      <trkpt lat="41.0146880" lon="-2.4876130">
        <ele>1187.8</ele>
        <time>2020-09-12T09:13:12Z</time>
      </trkpt>
      <trkpt lat="41.0145970" lon="-2.4876630">
        <ele>1188.0</ele>
        <time>2020-09-12T09:13:13Z</time>
      </trkpt>
      <trkpt lat="41.0145070" lon="-2.4877130">
        <ele>1188.4</ele>
        <time>2020-09-12T09:13:14Z</time>
      </trkpt>
      <trkpt lat="41.0144180" lon="-2.4877620">
        <ele>1188.4</ele>
        <time>2020-09-12T09:13:15Z</time>
      </trkpt>
      <trkpt lat="41.0143300" lon="-2.4878090">
        <ele>1188.4</ele>
        <time>2020-09-12T09:13:16Z</time>
      </trkpt>
      <trkpt lat="41.0142410" lon="-2.4878550">
        <ele>1188.2</ele>
        <time>2020-09-12T09:13:17Z</time>
      </trkpt>
      <trkpt lat="41.0141530" lon="-2.4878990">
        <ele>1187.4</ele>
        <time>2020-09-12T09:13:18Z</time>
      </trkpt>
      <trkpt lat="41.0140640" lon="-2.4879350">
        <ele>1186.8</ele>
        <time>2020-09-12T09:13:19Z</time>
      </trkpt>
      <trkpt lat="41.0139740" lon="-2.4879670">
        <ele>1186.0</ele>
        <time>2020-09-12T09:13:20Z</time>
      </trkpt>
      <trkpt lat="41.0138830" lon="-2.4879960">
        <ele>1185.2</ele>
        <time>2020-09-12T09:13:21Z</time>
      </trkpt>
      <trkpt lat="41.0137900" lon="-2.4880210">
        <ele>1184.4</ele>
        <time>2020-09-12T09:13:22Z</time>
      </trkpt>
      <trkpt lat="41.0136960" lon="-2.4880410">
        <ele>1183.8</ele>
        <time>2020-09-12T09:13:23Z</time>
      </trkpt>
      <trkpt lat="41.0136020" lon="-2.4880600">
        <ele>1183.4</ele>
        <time>2020-09-12T09:13:24Z</time>
      </trkpt>
      <trkpt lat="41.0135070" lon="-2.4880780">
        <ele>1183.2</ele>
        <time>2020-09-12T09:13:25Z</time>
      </trkpt>
      <trkpt lat="41.0134120" lon="-2.4880940">
        <ele>1182.6</ele>
        <time>2020-09-12T09:13:26Z</time>
      </trkpt>
      <trkpt lat="41.0133160" lon="-2.4881100">
        <ele>1182.2</ele>
        <time>2020-09-12T09:13:27Z</time>
      </trkpt>
      <trkpt lat="41.0132190" lon="-2.4881220">
        <ele>1181.8</ele>
        <time>2020-09-12T09:13:28Z</time>
      </trkpt>
      <trkpt lat="41.0131230" lon="-2.4881350">
        <ele>1181.6</ele>
        <time>2020-09-12T09:13:29Z</time>
      </trkpt>
      <trkpt lat="41.0130260" lon="-2.4881480">
        <ele>1181.4</ele>
        <time>2020-09-12T09:13:30Z</time>
      </trkpt>
      <trkpt lat="41.0129300" lon="-2.4881620">
        <ele>1181.4</ele>
        <time>2020-09-12T09:13:31Z</time>
      </trkpt>
      <trkpt lat="41.0128340" lon="-2.4881780">
        <ele>1181.2</ele>
        <time>2020-09-12T09:13:32Z</time>
      </trkpt>
      <trkpt lat="41.0127380" lon="-2.4881920">
        <ele>1181.0</ele>
        <time>2020-09-12T09:13:33Z</time>
      </trkpt>
      <trkpt lat="41.0126430" lon="-2.4882030">
        <ele>1180.8</ele>
        <time>2020-09-12T09:13:34Z</time>
      </trkpt>
      <trkpt lat="41.0125480" lon="-2.4882150">
        <ele>1180.6</ele>
        <time>2020-09-12T09:13:35Z</time>
      </trkpt>
      <trkpt lat="41.0124520" lon="-2.4882290">
        <ele>1180.6</ele>
        <time>2020-09-12T09:13:36Z</time>
      </trkpt>
      <trkpt lat="41.0123570" lon="-2.4882440">
        <ele>1180.4</ele>
        <time>2020-09-12T09:13:37Z</time>
      </trkpt>
      <trkpt lat="41.0122620" lon="-2.4882580">
        <ele>1180.2</ele>
        <time>2020-09-12T09:13:38Z</time>
      </trkpt>
      <trkpt lat="41.0121680" lon="-2.4882710">
        <ele>1180.0</ele>
        <time>2020-09-12T09:13:39Z</time>
      </trkpt>
      <trkpt lat="41.0120740" lon="-2.4882850">
        <ele>1179.8</ele>
        <time>2020-09-12T09:13:40Z</time>
      </trkpt>
      <trkpt lat="41.0119790" lon="-2.4882970">
        <ele>1179.6</ele>
        <time>2020-09-12T09:13:41Z</time>
      </trkpt>
      <trkpt lat="41.0118850" lon="-2.4883110">
        <ele>1179.4</ele>
        <time>2020-09-12T09:13:42Z</time>
      </trkpt>
      <trkpt lat="41.0117900" lon="-2.4883270">
        <ele>1179.2</ele>
        <time>2020-09-12T09:13:43Z</time>
      </trkpt>
      <trkpt lat="41.0116970" lon="-2.4883440">
        <ele>1179.2</ele>
        <time>2020-09-12T09:13:44Z</time>
      </trkpt>
      <trkpt lat="41.0116030" lon="-2.4883610">
        <ele>1179.0</ele>
        <time>2020-09-12T09:13:45Z</time>
      </trkpt>
      <trkpt lat="41.0115090" lon="-2.4883760">
        <ele>1179.0</ele>
        <time>2020-09-12T09:13:46Z</time>
      </trkpt>
      <trkpt lat="41.0114160" lon="-2.4883910">
        <ele>1178.6</ele>
        <time>2020-09-12T09:13:47Z</time>
      </trkpt>
      <trkpt lat="41.0113230" lon="-2.4884090">
        <ele>1178.2</ele>
        <time>2020-09-12T09:13:48Z</time>
      </trkpt>
      <trkpt lat="41.0112300" lon="-2.4884340">
        <ele>1177.8</ele>
        <time>2020-09-12T09:13:49Z</time>
      </trkpt>
      <trkpt lat="41.0111390" lon="-2.4884680">
        <ele>1177.6</ele>
        <time>2020-09-12T09:13:50Z</time>
      </trkpt>
      <trkpt lat="41.0110500" lon="-2.4885120">
        <ele>1177.4</ele>
        <time>2020-09-12T09:13:51Z</time>
      </trkpt>
      <trkpt lat="41.0109620" lon="-2.4885590">
        <ele>1177.0</ele>
        <time>2020-09-12T09:13:52Z</time>
      </trkpt>
      <trkpt lat="41.0108730" lon="-2.4886060">
        <ele>1176.8</ele>
        <time>2020-09-12T09:13:53Z</time>
      </trkpt>
      <trkpt lat="41.0107840" lon="-2.4886530">
        <ele>1176.6</ele>
        <time>2020-09-12T09:13:54Z</time>
      </trkpt>
      <trkpt lat="41.0106960" lon="-2.4887000">
        <ele>1176.4</ele>
        <time>2020-09-12T09:13:55Z</time>
      </trkpt>
      <trkpt lat="41.0106080" lon="-2.4887490">
        <ele>1176.4</ele>
        <time>2020-09-12T09:13:56Z</time>
      </trkpt>
      <trkpt lat="41.0105190" lon="-2.4887970">
        <ele>1176.2</ele>
        <time>2020-09-12T09:13:57Z</time>
      </trkpt>
      <trkpt lat="41.0104300" lon="-2.4888450">
        <ele>1176.2</ele>
        <time>2020-09-12T09:13:58Z</time>
      </trkpt>
      <trkpt lat="41.0103420" lon="-2.4888910">
        <ele>1176.0</ele>
        <time>2020-09-12T09:13:59Z</time>
      </trkpt>
      <trkpt lat="41.0101640" lon="-2.4889770">
        <ele>1175.6</ele>
        <time>2020-09-12T09:14:00Z</time>
      </trkpt>
      <trkpt lat="41.0101180" lon="-2.4889960">
        <ele>1175.6</ele>
        <time>2020-09-12T09:14:01Z</time>
      </trkpt>
      <trkpt lat="41.0100720" lon="-2.4890150">
        <ele>1175.4</ele>
        <time>2020-09-12T09:14:02Z</time>
      </trkpt>
      <trkpt lat="41.0099780" lon="-2.4890470">
        <ele>1175.4</ele>
        <time>2020-09-12T09:14:03Z</time>
      </trkpt>
      <trkpt lat="41.0098830" lon="-2.4890730">
        <ele>1175.2</ele>
        <time>2020-09-12T09:14:04Z</time>
      </trkpt>
      <trkpt lat="41.0097870" lon="-2.4890940">
        <ele>1174.8</ele>
        <time>2020-09-12T09:14:05Z</time>
      </trkpt>
      <trkpt lat="41.0096910" lon="-2.4891170">
        <ele>1174.6</ele>
        <time>2020-09-12T09:14:06Z</time>
      </trkpt>
      <trkpt lat="41.0095960" lon="-2.4891410">
        <ele>1174.6</ele>
        <time>2020-09-12T09:14:07Z</time>
      </trkpt>
      <trkpt lat="41.0095010" lon="-2.4891640">
        <ele>1174.4</ele>
        <time>2020-09-12T09:14:08Z</time>
      </trkpt>
      <trkpt lat="41.0094050" lon="-2.4891850">
        <ele>1174.2</ele>
        <time>2020-09-12T09:14:09Z</time>
      </trkpt>
      <trkpt lat="41.0093090" lon="-2.4892040">
        <ele>1174.2</ele>
        <time>2020-09-12T09:14:10Z</time>
      </trkpt>
      <trkpt lat="41.0092140" lon="-2.4892210">
        <ele>1174.0</ele>
        <time>2020-09-12T09:14:11Z</time>
      </trkpt>
      <trkpt lat="41.0091200" lon="-2.4892420">
        <ele>1173.8</ele>
        <time>2020-09-12T09:14:12Z</time>
      </trkpt>
      <trkpt lat="41.0090270" lon="-2.4892660">
        <ele>1173.6</ele>
        <time>2020-09-12T09:14:13Z</time>
      </trkpt>
      <trkpt lat="41.0089340" lon="-2.4892890">
        <ele>1173.4</ele>
        <time>2020-09-12T09:14:14Z</time>
      </trkpt>
      <trkpt lat="41.0088400" lon="-2.4893100">
        <ele>1173.0</ele>
        <time>2020-09-12T09:14:15Z</time>
      </trkpt>
      <trkpt lat="41.0087460" lon="-2.4893300">
        <ele>1172.8</ele>
        <time>2020-09-12T09:14:16Z</time>
      </trkpt>
      <trkpt lat="41.0086520" lon="-2.4893490">
        <ele>1172.8</ele>
        <time>2020-09-12T09:14:17Z</time>
      </trkpt>
      <trkpt lat="41.0085590" lon="-2.4893700">
        <ele>1172.6</ele>
        <time>2020-09-12T09:14:18Z</time>
      </trkpt>
      <trkpt lat="41.0084660" lon="-2.4893880">
        <ele>1172.6</ele>
        <time>2020-09-12T09:14:19Z</time>
      </trkpt>
      <trkpt lat="41.0083720" lon="-2.4894050">
        <ele>1172.4</ele>
        <time>2020-09-12T09:14:20Z</time>
      </trkpt>
      <trkpt lat="41.0082790" lon="-2.4894250">
        <ele>1172.4</ele>
        <time>2020-09-12T09:14:21Z</time>
      </trkpt>
      <trkpt lat="41.0081840" lon="-2.4894480">
        <ele>1172.2</ele>
        <time>2020-09-12T09:14:22Z</time>
      </trkpt>
      <trkpt lat="41.0080890" lon="-2.4894680">
        <ele>1172.0</ele>
        <time>2020-09-12T09:14:23Z</time>
      </trkpt>
      <trkpt lat="41.0079940" lon="-2.4894900">
        <ele>1171.8</ele>
        <time>2020-09-12T09:14:24Z</time>
      </trkpt>
      <trkpt lat="41.0079010" lon="-2.4895140">
        <ele>1171.8</ele>
        <time>2020-09-12T09:14:25Z</time>
      </trkpt>
      <trkpt lat="41.0078060" lon="-2.4895390">
        <ele>1171.6</ele>
        <time>2020-09-12T09:14:26Z</time>
      </trkpt>
      <trkpt lat="41.0077120" lon="-2.4895680">
        <ele>1171.6</ele>
        <time>2020-09-12T09:14:27Z</time>
      </trkpt>
      <trkpt lat="41.0076190" lon="-2.4896020">
        <ele>1171.6</ele>
        <time>2020-09-12T09:14:28Z</time>
      </trkpt>
      <trkpt lat="41.0075270" lon="-2.4896370">
        <ele>1171.4</ele>
        <time>2020-09-12T09:14:29Z</time>
      </trkpt>
      <trkpt lat="41.0074370" lon="-2.4896710">
        <ele>1171.2</ele>
        <time>2020-09-12T09:14:30Z</time>
      </trkpt>
      <trkpt lat="41.0073460" lon="-2.4897050">
        <ele>1170.8</ele>
        <time>2020-09-12T09:14:31Z</time>
      </trkpt>
      <trkpt lat="41.0072560" lon="-2.4897360">
        <ele>1170.8</ele>
        <time>2020-09-12T09:14:32Z</time>
      </trkpt>
      <trkpt lat="41.0071670" lon="-2.4897670">
        <ele>1170.6</ele>
        <time>2020-09-12T09:14:33Z</time>
      </trkpt>
      <trkpt lat="41.0070780" lon="-2.4897980">
        <ele>1170.6</ele>
        <time>2020-09-12T09:14:34Z</time>
      </trkpt>
      <trkpt lat="41.0069890" lon="-2.4898290">
        <ele>1170.4</ele>
        <time>2020-09-12T09:14:35Z</time>
      </trkpt>
      <trkpt lat="41.0069020" lon="-2.4898590">
        <ele>1170.2</ele>
        <time>2020-09-12T09:14:36Z</time>
      </trkpt>
      <trkpt lat="41.0068140" lon="-2.4898910">
        <ele>1170.2</ele>
        <time>2020-09-12T09:14:37Z</time>
      </trkpt>
      <trkpt lat="41.0067270" lon="-2.4899240">
        <ele>1170.2</ele>
        <time>2020-09-12T09:14:38Z</time>
      </trkpt>
      <trkpt lat="41.0066410" lon="-2.4899550">
        <ele>1170.0</ele>
        <time>2020-09-12T09:14:39Z</time>
      </trkpt>
      <trkpt lat="41.0065550" lon="-2.4899850">
        <ele>1170.0</ele>
        <time>2020-09-12T09:14:40Z</time>
      </trkpt>
      <trkpt lat="41.0064690" lon="-2.4900150">
        <ele>1169.8</ele>
        <time>2020-09-12T09:14:41Z</time>
      </trkpt>
      <trkpt lat="41.0063840" lon="-2.4900440">
        <ele>1169.6</ele>
        <time>2020-09-12T09:14:42Z</time>
      </trkpt>
      <trkpt lat="41.0062980" lon="-2.4900740">
        <ele>1169.4</ele>
        <time>2020-09-12T09:14:43Z</time>
      </trkpt>
      <trkpt lat="41.0062120" lon="-2.4901020">
        <ele>1169.4</ele>
        <time>2020-09-12T09:14:44Z</time>
      </trkpt>
      <trkpt lat="41.0061270" lon="-2.4901300">
        <ele>1169.2</ele>
        <time>2020-09-12T09:14:45Z</time>
      </trkpt>
      <trkpt lat="41.0060410" lon="-2.4901580">
        <ele>1169.2</ele>
        <time>2020-09-12T09:14:46Z</time>
      </trkpt>
      <trkpt lat="41.0059560" lon="-2.4901850">
        <ele>1169.2</ele>
        <time>2020-09-12T09:14:47Z</time>
      </trkpt>
      <trkpt lat="41.0058710" lon="-2.4902130">
        <ele>1169.0</ele>
        <time>2020-09-12T09:14:48Z</time>
      </trkpt>
      <trkpt lat="41.0057860" lon="-2.4902410">
        <ele>1168.8</ele>
        <time>2020-09-12T09:14:49Z</time>
      </trkpt>
      <trkpt lat="41.0057010" lon="-2.4902680">
        <ele>1168.4</ele>
        <time>2020-09-12T09:14:50Z</time>
      </trkpt>
      <trkpt lat="41.0056160" lon="-2.4902940">
        <ele>1168.2</ele>
        <time>2020-09-12T09:14:51Z</time>
      </trkpt>
      <trkpt lat="41.0055310" lon="-2.4903230">
        <ele>1167.8</ele>
        <time>2020-09-12T09:14:52Z</time>
      </trkpt>
      <trkpt lat="41.0054460" lon="-2.4903530">
        <ele>1167.6</ele>
        <time>2020-09-12T09:14:53Z</time>
      </trkpt>
      <trkpt lat="41.0053620" lon="-2.4903840">
        <ele>1167.6</ele>
        <time>2020-09-12T09:14:54Z</time>
      </trkpt>
      <trkpt lat="41.0052770" lon="-2.4904120">
        <ele>1167.4</ele>
        <time>2020-09-12T09:14:55Z</time>
      </trkpt>
      <trkpt lat="41.0051930" lon="-2.4904390">
        <ele>1167.2</ele>
        <time>2020-09-12T09:14:56Z</time>
      </trkpt>
      <trkpt lat="41.0051090" lon="-2.4904670">
        <ele>1167.0</ele>
        <time>2020-09-12T09:14:57Z</time>
      </trkpt>
      <trkpt lat="41.0050230" lon="-2.4904920">
        <ele>1166.8</ele>
        <time>2020-09-12T09:14:58Z</time>
      </trkpt>
      <trkpt lat="41.0049380" lon="-2.4905190">
        <ele>1166.6</ele>
        <time>2020-09-12T09:14:59Z</time>
      </trkpt>
      <trkpt lat="41.0048540" lon="-2.4905490">
        <ele>1166.6</ele>
        <time>2020-09-12T09:15:00Z</time>
      </trkpt>
      <trkpt lat="41.0047690" lon="-2.4905780">
        <ele>1166.6</ele>
        <time>2020-09-12T09:15:01Z</time>
      </trkpt>
      <trkpt lat="41.0046840" lon="-2.4906080">
        <ele>1166.6</ele>
        <time>2020-09-12T09:15:02Z</time>
      </trkpt>
      <trkpt lat="41.0045980" lon="-2.4906360">
        <ele>1166.6</ele>
        <time>2020-09-12T09:15:03Z</time>
      </trkpt>
      <trkpt lat="41.0045120" lon="-2.4906640">
        <ele>1166.4</ele>
        <time>2020-09-12T09:15:04Z</time>
      </trkpt>
      <trkpt lat="41.0044250" lon="-2.4906920">
        <ele>1166.4</ele>
        <time>2020-09-12T09:15:05Z</time>
      </trkpt>
      <trkpt lat="41.0043400" lon="-2.4907220">
        <ele>1166.4</ele>
        <time>2020-09-12T09:15:06Z</time>
      </trkpt>
      <trkpt lat="41.0042560" lon="-2.4907520">
        <ele>1166.4</ele>
        <time>2020-09-12T09:15:07Z</time>
      </trkpt>
      <trkpt lat="41.0041740" lon="-2.4907800">
        <ele>1166.4</ele>
        <time>2020-09-12T09:15:08Z</time>
      </trkpt>
      <trkpt lat="41.0040950" lon="-2.4908080">
        <ele>1166.4</ele>
        <time>2020-09-12T09:15:09Z</time>
      </trkpt>
      <trkpt lat="41.0040160" lon="-2.4908340">
        <ele>1166.6</ele>
        <time>2020-09-12T09:15:10Z</time>
      </trkpt>
      <trkpt lat="41.0039400" lon="-2.4908600">
        <ele>1166.8</ele>
        <time>2020-09-12T09:15:11Z</time>
      </trkpt>
      <trkpt lat="41.0038660" lon="-2.4908870">
        <ele>1167.0</ele>
        <time>2020-09-12T09:15:12Z</time>
      </trkpt>
      <trkpt lat="41.0037930" lon="-2.4909110">
        <ele>1167.2</ele>
        <time>2020-09-12T09:15:13Z</time>
      </trkpt>
      <trkpt lat="41.0037220" lon="-2.4909320">
        <ele>1167.4</ele>
        <time>2020-09-12T09:15:14Z</time>
      </trkpt>
      <trkpt lat="41.0036530" lon="-2.4909520">
        <ele>1167.4</ele>
        <time>2020-09-12T09:15:15Z</time>
      </trkpt>
      <trkpt lat="41.0035860" lon="-2.4909710">
        <ele>1167.6</ele>
        <time>2020-09-12T09:15:16Z</time>
      </trkpt>
      <trkpt lat="41.0035200" lon="-2.4909890">
        <ele>1167.4</ele>
        <time>2020-09-12T09:15:17Z</time>
      </trkpt>
      <trkpt lat="41.0034550" lon="-2.4910060">
        <ele>1167.4</ele>
        <time>2020-09-12T09:15:18Z</time>
      </trkpt>
      <trkpt lat="41.0033920" lon="-2.4910250">
        <ele>1167.6</ele>
        <time>2020-09-12T09:15:19Z</time>
      </trkpt>
      <trkpt lat="41.0033320" lon="-2.4910460">
        <ele>1167.6</ele>
        <time>2020-09-12T09:15:20Z</time>
      </trkpt>
      <trkpt lat="41.0032740" lon="-2.4910700">
        <ele>1167.8</ele>
        <time>2020-09-12T09:15:21Z</time>
      </trkpt>
      <trkpt lat="41.0032160" lon="-2.4910990">
        <ele>1168.0</ele>
        <time>2020-09-12T09:15:22Z</time>
      </trkpt>
      <trkpt lat="41.0031590" lon="-2.4911370">
        <ele>1168.2</ele>
        <time>2020-09-12T09:15:23Z</time>
      </trkpt>
      <trkpt lat="41.0031040" lon="-2.4911830">
        <ele>1168.2</ele>
        <time>2020-09-12T09:15:24Z</time>
      </trkpt>
      <trkpt lat="41.0030500" lon="-2.4912350">
        <ele>1168.2</ele>
        <time>2020-09-12T09:15:25Z</time>
      </trkpt>
      <trkpt lat="41.0029980" lon="-2.4912900">
        <ele>1168.2</ele>
        <time>2020-09-12T09:15:26Z</time>
      </trkpt>
      <trkpt lat="41.0029450" lon="-2.4913450">
        <ele>1168.2</ele>
        <time>2020-09-12T09:15:27Z</time>
      </trkpt>
      <trkpt lat="41.0028920" lon="-2.4914000">
        <ele>1168.0</ele>
        <time>2020-09-12T09:15:28Z</time>
      </trkpt>
      <trkpt lat="41.0028390" lon="-2.4914570">
        <ele>1167.6</ele>
        <time>2020-09-12T09:15:29Z</time>
      </trkpt>
      <trkpt lat="41.0027870" lon="-2.4915130">
        <ele>1167.4</ele>
        <time>2020-09-12T09:15:30Z</time>
      </trkpt>
      <trkpt lat="41.0027350" lon="-2.4915710">
        <ele>1167.0</ele>
        <time>2020-09-12T09:15:31Z</time>
      </trkpt>
      <trkpt lat="41.0026820" lon="-2.4916280">
        <ele>1166.4</ele>
        <time>2020-09-12T09:15:32Z</time>
      </trkpt>
      <trkpt lat="41.0026270" lon="-2.4916810">
        <ele>1165.8</ele>
        <time>2020-09-12T09:15:33Z</time>
      </trkpt>
      <trkpt lat="41.0025720" lon="-2.4917350">
        <ele>1165.6</ele>
        <time>2020-09-12T09:15:34Z</time>
      </trkpt>
      <trkpt lat="41.0025170" lon="-2.4917940">
        <ele>1165.4</ele>
        <time>2020-09-12T09:15:35Z</time>
      </trkpt>
      <trkpt lat="41.0024610" lon="-2.4918580">
        <ele>1165.2</ele>
        <time>2020-09-12T09:15:36Z</time>
      </trkpt>
      <trkpt lat="41.0024050" lon="-2.4919270">
        <ele>1165.0</ele>
        <time>2020-09-12T09:15:37Z</time>
      </trkpt>
      <trkpt lat="41.0023480" lon="-2.4920000">
        <ele>1164.8</ele>
        <time>2020-09-12T09:15:38Z</time>
      </trkpt>
      <trkpt lat="41.0022900" lon="-2.4920790">
        <ele>1164.4</ele>
        <time>2020-09-12T09:15:39Z</time>
      </trkpt>
      <trkpt lat="41.0022300" lon="-2.4921590">
        <ele>1164.0</ele>
        <time>2020-09-12T09:15:40Z</time>
      </trkpt>
      <trkpt lat="41.0021670" lon="-2.4922400">
        <ele>1163.4</ele>
        <time>2020-09-12T09:15:41Z</time>
      </trkpt>
      <trkpt lat="41.0021010" lon="-2.4923160">
        <ele>1163.0</ele>
        <time>2020-09-12T09:15:42Z</time>
      </trkpt>
      <trkpt lat="41.0020310" lon="-2.4923850">
        <ele>1162.4</ele>
        <time>2020-09-12T09:15:43Z</time>
      </trkpt>
      <trkpt lat="41.0019580" lon="-2.4924430">
        <ele>1161.6</ele>
        <time>2020-09-12T09:15:44Z</time>
      </trkpt>
      <trkpt lat="41.0018850" lon="-2.4924970">
        <ele>1160.8</ele>
        <time>2020-09-12T09:15:45Z</time>
      </trkpt>
      <trkpt lat="41.0018110" lon="-2.4925480">
        <ele>1159.8</ele>
        <time>2020-09-12T09:15:46Z</time>
      </trkpt>
      <trkpt lat="41.0017380" lon="-2.4925980">
        <ele>1158.8</ele>
        <time>2020-09-12T09:15:47Z</time>
      </trkpt>
      <trkpt lat="41.0016640" lon="-2.4926500">
        <ele>1157.8</ele>
        <time>2020-09-12T09:15:48Z</time>
      </trkpt>
      <trkpt lat="41.0015890" lon="-2.4927050">
        <ele>1156.6</ele>
        <time>2020-09-12T09:15:49Z</time>
      </trkpt>
      <trkpt lat="41.0015150" lon="-2.4927630">
        <ele>1155.6</ele>
        <time>2020-09-12T09:15:50Z</time>
      </trkpt>
      <trkpt lat="41.0014380" lon="-2.4928230">
        <ele>1154.8</ele>
        <time>2020-09-12T09:15:51Z</time>
      </trkpt>
      <trkpt lat="41.0013600" lon="-2.4928830">
        <ele>1154.0</ele>
        <time>2020-09-12T09:15:52Z</time>
      </trkpt>
      <trkpt lat="41.0012800" lon="-2.4929410">
        <ele>1153.0</ele>
        <time>2020-09-12T09:15:53Z</time>
      </trkpt>
      <trkpt lat="41.0012010" lon="-2.4930020">
        <ele>1152.2</ele>
        <time>2020-09-12T09:15:54Z</time>
      </trkpt>
      <trkpt lat="41.0011220" lon="-2.4930650">
        <ele>1151.4</ele>
        <time>2020-09-12T09:15:55Z</time>
      </trkpt>
      <trkpt lat="41.0010410" lon="-2.4931290">
        <ele>1150.4</ele>
        <time>2020-09-12T09:15:56Z</time>
      </trkpt>
      <trkpt lat="41.0009600" lon="-2.4931950">
        <ele>1149.2</ele>
        <time>2020-09-12T09:15:57Z</time>
      </trkpt>
      <trkpt lat="41.0008750" lon="-2.4932620">
        <ele>1148.0</ele>
        <time>2020-09-12T09:15:58Z</time>
      </trkpt>
      <trkpt lat="41.0007880" lon="-2.4933300">
        <ele>1147.0</ele>
        <time>2020-09-12T09:15:59Z</time>
      </trkpt>
      <trkpt lat="41.0006990" lon="-2.4933980">
        <ele>1146.0</ele>
        <time>2020-09-12T09:16:00Z</time>
      </trkpt>
      <trkpt lat="41.0006060" lon="-2.4934660">
        <ele>1145.0</ele>
        <time>2020-09-12T09:16:01Z</time>
      </trkpt>
      <trkpt lat="41.0005120" lon="-2.4935380">
        <ele>1144.2</ele>
        <time>2020-09-12T09:16:02Z</time>
      </trkpt>
      <trkpt lat="41.0004160" lon="-2.4936110">
        <ele>1143.2</ele>
        <time>2020-09-12T09:16:03Z</time>
      </trkpt>
      <trkpt lat="41.0003170" lon="-2.4936860">
        <ele>1142.2</ele>
        <time>2020-09-12T09:16:04Z</time>
      </trkpt>
      <trkpt lat="41.0002170" lon="-2.4937640">
        <ele>1141.0</ele>
        <time>2020-09-12T09:16:05Z</time>
      </trkpt>
      <trkpt lat="41.0000150" lon="-2.4939230">
        <ele>1139.4</ele>
        <time>2020-09-12T09:16:07Z</time>
      </trkpt>
      <trkpt lat="40.9998240" lon="-2.4940720">
        <ele>1137.8</ele>
        <time>2020-09-12T09:16:09Z</time>
      </trkpt>
      <trkpt lat="40.9996500" lon="-2.4942310">
        <ele>1136.4</ele>
        <time>2020-09-12T09:16:11Z</time>
      </trkpt>
      <trkpt lat="40.9994860" lon="-2.4943950">
        <ele>1135.4</ele>
        <time>2020-09-12T09:16:13Z</time>
      </trkpt>
      <trkpt lat="40.9994040" lon="-2.4944600">
        <ele>1135.0</ele>
        <time>2020-09-12T09:16:14Z</time>
      </trkpt>
      <trkpt lat="40.9993180" lon="-2.4945050">
        <ele>1134.6</ele>
        <time>2020-09-12T09:16:15Z</time>
      </trkpt>
      <trkpt lat="40.9992280" lon="-2.4945210">
        <ele>1134.2</ele>
        <time>2020-09-12T09:16:16Z</time>
      </trkpt>
      <trkpt lat="40.9991400" lon="-2.4945170">
        <ele>1133.8</ele>
        <time>2020-09-12T09:16:17Z</time>
      </trkpt>
      <trkpt lat="40.9990520" lon="-2.4945080">
        <ele>1133.6</ele>
        <time>2020-09-12T09:16:18Z</time>
      </trkpt>
      <trkpt lat="40.9988780" lon="-2.4944920">
        <ele>1133.2</ele>
        <time>2020-09-12T09:16:20Z</time>
      </trkpt>
      <trkpt lat="40.9987910" lon="-2.4944840">
        <ele>1133.0</ele>
        <time>2020-09-12T09:16:21Z</time>
      </trkpt>
      <trkpt lat="40.9987050" lon="-2.4944810">
        <ele>1133.0</ele>
        <time>2020-09-12T09:16:22Z</time>
      </trkpt>
      <trkpt lat="40.9986200" lon="-2.4944830">
        <ele>1132.8</ele>
        <time>2020-09-12T09:16:23Z</time>
      </trkpt>
      <trkpt lat="40.9985350" lon="-2.4944910">
        <ele>1132.6</ele>
        <time>2020-09-12T09:16:24Z</time>
      </trkpt>
      <trkpt lat="40.9984500" lon="-2.4944980">
        <ele>1132.4</ele>
        <time>2020-09-12T09:16:25Z</time>
      </trkpt>
      <trkpt lat="40.9983640" lon="-2.4945010">
        <ele>1132.4</ele>
        <time>2020-09-12T09:16:26Z</time>
      </trkpt>
      <trkpt lat="40.9982800" lon="-2.4945000">
        <ele>1132.2</ele>
        <time>2020-09-12T09:16:27Z</time>
      </trkpt>
      <trkpt lat="40.9981960" lon="-2.4944970">
        <ele>1132.4</ele>
        <time>2020-09-12T09:16:28Z</time>
      </trkpt>
      <trkpt lat="40.9981130" lon="-2.4944910">
        <ele>1132.4</ele>
        <time>2020-09-12T09:16:29Z</time>
      </trkpt>
      <trkpt lat="40.9980310" lon="-2.4944890">
        <ele>1132.4</ele>
        <time>2020-09-12T09:16:30Z</time>
      </trkpt>
      <trkpt lat="40.9979500" lon="-2.4944960">
        <ele>1132.6</ele>
        <time>2020-09-12T09:16:31Z</time>
      </trkpt>
      <trkpt lat="40.9978710" lon="-2.4945110">
        <ele>1132.6</ele>
        <time>2020-09-12T09:16:32Z</time>
      </trkpt>
      <trkpt lat="40.9977940" lon="-2.4945370">
        <ele>1132.6</ele>
        <time>2020-09-12T09:16:33Z</time>
      </trkpt>
      <trkpt lat="40.9977220" lon="-2.4945810">
        <ele>1132.6</ele>
        <time>2020-09-12T09:16:34Z</time>
      </trkpt>
      <trkpt lat="40.9976580" lon="-2.4946440">
        <ele>1132.4</ele>
        <time>2020-09-12T09:16:35Z</time>
      </trkpt>
      <trkpt lat="40.9976010" lon="-2.4947180">
        <ele>1132.0</ele>
        <time>2020-09-12T09:16:36Z</time>
      </trkpt>
      <trkpt lat="40.9975490" lon="-2.4948010">
        <ele>1132.0</ele>
        <time>2020-09-12T09:16:37Z</time>
      </trkpt>
      <trkpt lat="40.9975000" lon="-2.4948890">
        <ele>1131.8</ele>
        <time>2020-09-12T09:16:38Z</time>
      </trkpt>
      <trkpt lat="40.9974500" lon="-2.4949790">
        <ele>1131.6</ele>
        <time>2020-09-12T09:16:39Z</time>
      </trkpt>
      <trkpt lat="40.9973980" lon="-2.4950680">
        <ele>1131.4</ele>
        <time>2020-09-12T09:16:40Z</time>
      </trkpt>
      <trkpt lat="40.9973440" lon="-2.4951560">
        <ele>1131.2</ele>
        <time>2020-09-12T09:16:41Z</time>
      </trkpt>
      <trkpt lat="40.9972880" lon="-2.4952420">
        <ele>1131.0</ele>
        <time>2020-09-12T09:16:42Z</time>
      </trkpt>
      <trkpt lat="40.9972300" lon="-2.4953270">
        <ele>1131.0</ele>
        <time>2020-09-12T09:16:43Z</time>
      </trkpt>
      <trkpt lat="40.9971700" lon="-2.4954080">
        <ele>1131.0</ele>
        <time>2020-09-12T09:16:44Z</time>
      </trkpt>
      <trkpt lat="40.9971070" lon="-2.4954860">
        <ele>1130.8</ele>
        <time>2020-09-12T09:16:45Z</time>
      </trkpt>
      <trkpt lat="40.9970440" lon="-2.4955620">
        <ele>1130.8</ele>
        <time>2020-09-12T09:16:46Z</time>
      </trkpt>
      <trkpt lat="40.9969800" lon="-2.4956370">
        <ele>1130.8</ele>
        <time>2020-09-12T09:16:47Z</time>
      </trkpt>
      <trkpt lat="40.9969150" lon="-2.4957110">
        <ele>1130.8</ele>
        <time>2020-09-12T09:16:48Z</time>
      </trkpt>
      <trkpt lat="40.9968510" lon="-2.4957830">
        <ele>1130.8</ele>
        <time>2020-09-12T09:16:49Z</time>
      </trkpt>
      <trkpt lat="40.9967860" lon="-2.4958510">
        <ele>1130.6</ele>
        <time>2020-09-12T09:16:50Z</time>
      </trkpt>
      <trkpt lat="40.9967180" lon="-2.4959110">
        <ele>1130.4</ele>
        <time>2020-09-12T09:16:51Z</time>
      </trkpt>
      <trkpt lat="40.9966450" lon="-2.4959570">
        <ele>1130.4</ele>
        <time>2020-09-12T09:16:52Z</time>
      </trkpt>
      <trkpt lat="40.9965700" lon="-2.4959930">
        <ele>1130.4</ele>
        <time>2020-09-12T09:16:53Z</time>
      </trkpt>
      <trkpt lat="40.9964910" lon="-2.4960180">
        <ele>1130.2</ele>
        <time>2020-09-12T09:16:54Z</time>
      </trkpt>
      <trkpt lat="40.9964100" lon="-2.4960370">
        <ele>1130.2</ele>
        <time>2020-09-12T09:16:55Z</time>
      </trkpt>
      <trkpt lat="40.9963280" lon="-2.4960550">
        <ele>1129.8</ele>
        <time>2020-09-12T09:16:56Z</time>
      </trkpt>
      <trkpt lat="40.9962460" lon="-2.4960730">
        <ele>1129.2</ele>
        <time>2020-09-12T09:16:57Z</time>
      </trkpt>
      <trkpt lat="40.9961650" lon="-2.4960930">
        <ele>1128.8</ele>
        <time>2020-09-12T09:16:58Z</time>
      </trkpt>
      <trkpt lat="40.9960830" lon="-2.4961140">
        <ele>1128.4</ele>
        <time>2020-09-12T09:16:59Z</time>
      </trkpt>
      <trkpt lat="40.9960000" lon="-2.4961360">
        <ele>1128.0</ele>
        <time>2020-09-12T09:17:00Z</time>
      </trkpt>
      <trkpt lat="40.9959140" lon="-2.4961570">
        <ele>1127.6</ele>
        <time>2020-09-12T09:17:01Z</time>
      </trkpt>
      <trkpt lat="40.9958280" lon="-2.4961790">
        <ele>1127.2</ele>
        <time>2020-09-12T09:17:02Z</time>
      </trkpt>
      <trkpt lat="40.9957420" lon="-2.4962070">
        <ele>1127.0</ele>
        <time>2020-09-12T09:17:03Z</time>
      </trkpt>
      <trkpt lat="40.9956570" lon="-2.4962410">
        <ele>1126.8</ele>
        <time>2020-09-12T09:17:04Z</time>
      </trkpt>
      <trkpt lat="40.9955750" lon="-2.4962860">
        <ele>1126.6</ele>
        <time>2020-09-12T09:17:05Z</time>
      </trkpt>
      <trkpt lat="40.9954960" lon="-2.4963430">
        <ele>1126.4</ele>
        <time>2020-09-12T09:17:06Z</time>
      </trkpt>
      <trkpt lat="40.9954240" lon="-2.4964130">
        <ele>1126.4</ele>
        <time>2020-09-12T09:17:07Z</time>
      </trkpt>
      <trkpt lat="40.9953570" lon="-2.4964970">
        <ele>1126.4</ele>
        <time>2020-09-12T09:17:08Z</time>
      </trkpt>
      <trkpt lat="40.9952980" lon="-2.4965920">
        <ele>1126.2</ele>
        <time>2020-09-12T09:17:09Z</time>
      </trkpt>
      <trkpt lat="40.9952450" lon="-2.4966930">
        <ele>1126.0</ele>
        <time>2020-09-12T09:17:10Z</time>
      </trkpt>
      <trkpt lat="40.9951970" lon="-2.4967950">
        <ele>1125.8</ele>
        <time>2020-09-12T09:17:11Z</time>
      </trkpt>
      <trkpt lat="40.9951490" lon="-2.4968990">
        <ele>1125.4</ele>
        <time>2020-09-12T09:17:12Z</time>
      </trkpt>
      <trkpt lat="40.9951030" lon="-2.4970030">
        <ele>1125.2</ele>
        <time>2020-09-12T09:17:13Z</time>
      </trkpt>
      <trkpt lat="40.9950560" lon="-2.4971070">
        <ele>1125.2</ele>
        <time>2020-09-12T09:17:14Z</time>
      </trkpt>
      <trkpt lat="40.9950080" lon="-2.4972100">
        <ele>1125.0</ele>
        <time>2020-09-12T09:17:15Z</time>
      </trkpt>
      <trkpt lat="40.9949580" lon="-2.4973110">
        <ele>1125.0</ele>
        <time>2020-09-12T09:17:16Z</time>
      </trkpt>
      <trkpt lat="40.9949070" lon="-2.4974100">
        <ele>1125.0</ele>
        <time>2020-09-12T09:17:17Z</time>
      </trkpt>
      <trkpt lat="40.9948530" lon="-2.4975040">
        <ele>1125.0</ele>
        <time>2020-09-12T09:17:18Z</time>
      </trkpt>
      <trkpt lat="40.9947950" lon="-2.4975930">
        <ele>1125.0</ele>
        <time>2020-09-12T09:17:19Z</time>
      </trkpt>
      <trkpt lat="40.9947300" lon="-2.4976730">
        <ele>1125.0</ele>
        <time>2020-09-12T09:17:20Z</time>
      </trkpt>
      <trkpt lat="40.9946560" lon="-2.4977420">
        <ele>1125.0</ele>
        <time>2020-09-12T09:17:21Z</time>
      </trkpt>
      <trkpt lat="40.9945740" lon="-2.4978020">
        <ele>1124.8</ele>
        <time>2020-09-12T09:17:22Z</time>
      </trkpt>
      <trkpt lat="40.9944850" lon="-2.4978550">
        <ele>1124.4</ele>
        <time>2020-09-12T09:17:23Z</time>
      </trkpt>
      <trkpt lat="40.9943920" lon="-2.4979000">
        <ele>1123.6</ele>
        <time>2020-09-12T09:17:24Z</time>
      </trkpt>
      <trkpt lat="40.9942970" lon="-2.4979380">
        <ele>1123.0</ele>
        <time>2020-09-12T09:17:25Z</time>
      </trkpt>
      <trkpt lat="40.9942030" lon="-2.4979720">
        <ele>1122.4</ele>
        <time>2020-09-12T09:17:26Z</time>
      </trkpt>
      <trkpt lat="40.9941100" lon="-2.4980010">
        <ele>1122.0</ele>
        <time>2020-09-12T09:17:27Z</time>
      </trkpt>
      <trkpt lat="40.9940180" lon="-2.4980270">
        <ele>1121.6</ele>
        <time>2020-09-12T09:17:28Z</time>
      </trkpt>
      <trkpt lat="40.9939290" lon="-2.4980540">
        <ele>1121.2</ele>
        <time>2020-09-12T09:17:29Z</time>
      </trkpt>
      <trkpt lat="40.9938450" lon="-2.4980860">
        <ele>1121.0</ele>
        <time>2020-09-12T09:17:30Z</time>
      </trkpt>
      <trkpt lat="40.9937670" lon="-2.4981320">
        <ele>1120.8</ele>
        <time>2020-09-12T09:17:31Z</time>
      </trkpt>
      <trkpt lat="40.9937020" lon="-2.4982000">
        <ele>1120.6</ele>
        <time>2020-09-12T09:17:32Z</time>
      </trkpt>
      <trkpt lat="40.9936480" lon="-2.4982830">
        <ele>1120.6</ele>
        <time>2020-09-12T09:17:33Z</time>
      </trkpt>
      <trkpt lat="40.9936010" lon="-2.4983730">
        <ele>1120.6</ele>
        <time>2020-09-12T09:17:34Z</time>
      </trkpt>
      <trkpt lat="40.9935540" lon="-2.4984640">
        <ele>1120.6</ele>
        <time>2020-09-12T09:17:35Z</time>
      </trkpt>
      <trkpt lat="40.9935070" lon="-2.4985550">
        <ele>1120.6</ele>
        <time>2020-09-12T09:17:36Z</time>
      </trkpt>
      <trkpt lat="40.9934570" lon="-2.4986460">
        <ele>1120.6</ele>
        <time>2020-09-12T09:17:37Z</time>
      </trkpt>
      <trkpt lat="40.9934040" lon="-2.4987400">
        <ele>1120.4</ele>
        <time>2020-09-12T09:17:38Z</time>
      </trkpt>
      <trkpt lat="40.9933480" lon="-2.4988390">
        <ele>1120.4</ele>
        <time>2020-09-12T09:17:39Z</time>
      </trkpt>
      <trkpt lat="40.9932890" lon="-2.4989410">
        <ele>1120.2</ele>
        <time>2020-09-12T09:17:40Z</time>
      </trkpt>
      <trkpt lat="40.9932220" lon="-2.4990430">
        <ele>1120.0</ele>
        <time>2020-09-12T09:17:41Z</time>
      </trkpt>
      <trkpt lat="40.9931480" lon="-2.4991410">
        <ele>1119.4</ele>
        <time>2020-09-12T09:17:42Z</time>
      </trkpt>
      <trkpt lat="40.9930680" lon="-2.4992310">
        <ele>1118.4</ele>
        <time>2020-09-12T09:17:43Z</time>
      </trkpt>
      <trkpt lat="40.9929840" lon="-2.4993170">
        <ele>1117.4</ele>
        <time>2020-09-12T09:17:44Z</time>
      </trkpt>
      <trkpt lat="40.9928980" lon="-2.4994000">
        <ele>1116.6</ele>
        <time>2020-09-12T09:17:45Z</time>
      </trkpt>
      <trkpt lat="40.9928120" lon="-2.4994810">
        <ele>1116.0</ele>
        <time>2020-09-12T09:17:46Z</time>
      </trkpt>
      <trkpt lat="40.9927260" lon="-2.4995600">
        <ele>1115.4</ele>
        <time>2020-09-12T09:17:47Z</time>
      </trkpt>
      <trkpt lat="40.9926400" lon="-2.4996350">
        <ele>1114.8</ele>
        <time>2020-09-12T09:17:48Z</time>
      </trkpt>
      <trkpt lat="40.9925550" lon="-2.4997080">
        <ele>1114.4</ele>
        <time>2020-09-12T09:17:49Z</time>
      </trkpt>
      <trkpt lat="40.9924740" lon="-2.4997790">
        <ele>1114.2</ele>
        <time>2020-09-12T09:17:50Z</time>
      </trkpt>
      <trkpt lat="40.9923930" lon="-2.4998480">
        <ele>1114.0</ele>
        <time>2020-09-12T09:17:51Z</time>
      </trkpt>
      <trkpt lat="40.9923130" lon="-2.4999150">
        <ele>1114.0</ele>
        <time>2020-09-12T09:17:52Z</time>
      </trkpt>
      <trkpt lat="40.9922350" lon="-2.4999800">
        <ele>1114.0</ele>
        <time>2020-09-12T09:17:53Z</time>
      </trkpt>
      <trkpt lat="40.9921590" lon="-2.5000450">
        <ele>1113.8</ele>
        <time>2020-09-12T09:17:54Z</time>
      </trkpt>
      <trkpt lat="40.9920840" lon="-2.5001080">
        <ele>1114.0</ele>
        <time>2020-09-12T09:17:55Z</time>
      </trkpt>
      <trkpt lat="40.9920080" lon="-2.5001650">
        <ele>1113.8</ele>
        <time>2020-09-12T09:17:56Z</time>
      </trkpt>
      <trkpt lat="40.9919310" lon="-2.5002150">
        <ele>1114.0</ele>
        <time>2020-09-12T09:17:57Z</time>
      </trkpt>
      <trkpt lat="40.9918550" lon="-2.5002550">
        <ele>1114.0</ele>
        <time>2020-09-12T09:17:58Z</time>
      </trkpt>
      <trkpt lat="40.9917800" lon="-2.5002920">
        <ele>1114.2</ele>
        <time>2020-09-12T09:17:59Z</time>
      </trkpt>
      <trkpt lat="40.9917060" lon="-2.5003280">
        <ele>1114.2</ele>
        <time>2020-09-12T09:18:00Z</time>
      </trkpt>
      <trkpt lat="40.9916320" lon="-2.5003610">
        <ele>1114.2</ele>
        <time>2020-09-12T09:18:01Z</time>
      </trkpt>
      <trkpt lat="40.9915590" lon="-2.5003920">
        <ele>1114.4</ele>
        <time>2020-09-12T09:18:02Z</time>
      </trkpt>
      <trkpt lat="40.9914860" lon="-2.5004210">
        <ele>1114.4</ele>
        <time>2020-09-12T09:18:03Z</time>
      </trkpt>
      <trkpt lat="40.9914120" lon="-2.5004510">
        <ele>1114.4</ele>
        <time>2020-09-12T09:18:04Z</time>
      </trkpt>
      <trkpt lat="40.9913380" lon="-2.5004850">
        <ele>1114.4</ele>
        <time>2020-09-12T09:18:05Z</time>
      </trkpt>
      <trkpt lat="40.9912650" lon="-2.5005270">
        <ele>1114.6</ele>
        <time>2020-09-12T09:18:06Z</time>
      </trkpt>
      <trkpt lat="40.9911950" lon="-2.5005790">
        <ele>1114.6</ele>
        <time>2020-09-12T09:18:07Z</time>
      </trkpt>
      <trkpt lat="40.9911270" lon="-2.5006370">
        <ele>1114.4</ele>
        <time>2020-09-12T09:18:08Z</time>
      </trkpt>
      <trkpt lat="40.9910630" lon="-2.5006990">
        <ele>1114.2</ele>
        <time>2020-09-12T09:18:09Z</time>
      </trkpt>
      <trkpt lat="40.9910010" lon="-2.5007640">
        <ele>1113.8</ele>
        <time>2020-09-12T09:18:10Z</time>
      </trkpt>
      <trkpt lat="40.9909380" lon="-2.5008290">
        <ele>1113.6</ele>
        <time>2020-09-12T09:18:11Z</time>
      </trkpt>
      <trkpt lat="40.9908720" lon="-2.5008940">
        <ele>1113.4</ele>
        <time>2020-09-12T09:18:12Z</time>
      </trkpt>
      <trkpt lat="40.9908040" lon="-2.5009590">
        <ele>1113.2</ele>
        <time>2020-09-12T09:18:13Z</time>
      </trkpt>
      <trkpt lat="40.9907350" lon="-2.5010230">
        <ele>1113.0</ele>
        <time>2020-09-12T09:18:14Z</time>
      </trkpt>
      <trkpt lat="40.9906590" lon="-2.5010800">
        <ele>1112.8</ele>
        <time>2020-09-12T09:18:15Z</time>
      </trkpt>
      <trkpt lat="40.9905780" lon="-2.5011340">
        <ele>1112.4</ele>
        <time>2020-09-12T09:18:16Z</time>
      </trkpt>
      <trkpt lat="40.9904920" lon="-2.5011840">
        <ele>1112.0</ele>
        <time>2020-09-12T09:18:17Z</time>
      </trkpt>
      <trkpt lat="40.9904000" lon="-2.5012320">
        <ele>1111.6</ele>
        <time>2020-09-12T09:18:18Z</time>
      </trkpt>
      <trkpt lat="40.9903050" lon="-2.5012780">
        <ele>1111.0</ele>
        <time>2020-09-12T09:18:19Z</time>
      </trkpt>
      <trkpt lat="40.9902080" lon="-2.5013220">
        <ele>1110.6</ele>
        <time>2020-09-12T09:18:20Z</time>
      </trkpt>
      <trkpt lat="40.9901100" lon="-2.5013650">
        <ele>1110.0</ele>
        <time>2020-09-12T09:18:21Z</time>
      </trkpt>
      <trkpt lat="40.9900120" lon="-2.5014060">
        <ele>1109.6</ele>
        <time>2020-09-12T09:18:22Z</time>
      </trkpt>
      <trkpt lat="40.9899120" lon="-2.5014450">
        <ele>1109.2</ele>
        <time>2020-09-12T09:18:23Z</time>
      </trkpt>
      <trkpt lat="40.9898120" lon="-2.5014850">
        <ele>1108.6</ele>
        <time>2020-09-12T09:18:24Z</time>
      </trkpt>
      <trkpt lat="40.9897150" lon="-2.5015300">
        <ele>1108.0</ele>
        <time>2020-09-12T09:18:25Z</time>
      </trkpt>
      <trkpt lat="40.9896180" lon="-2.5015740">
        <ele>1107.4</ele>
        <time>2020-09-12T09:18:26Z</time>
      </trkpt>
      <trkpt lat="40.9895210" lon="-2.5016180">
        <ele>1107.2</ele>
        <time>2020-09-12T09:18:27Z</time>
      </trkpt>
      <trkpt lat="40.9894260" lon="-2.5016670">
        <ele>1106.8</ele>
        <time>2020-09-12T09:18:28Z</time>
      </trkpt>
      <trkpt lat="40.9893330" lon="-2.5017210">
        <ele>1106.4</ele>
        <time>2020-09-12T09:18:29Z</time>
      </trkpt>
      <trkpt lat="40.9892420" lon="-2.5017790">
        <ele>1106.0</ele>
        <time>2020-09-12T09:18:30Z</time>
      </trkpt>
      <trkpt lat="40.9891540" lon="-2.5018420">
        <ele>1105.4</ele>
        <time>2020-09-12T09:18:31Z</time>
      </trkpt>
      <trkpt lat="40.9890650" lon="-2.5019050">
        <ele>1105.0</ele>
        <time>2020-09-12T09:18:32Z</time>
      </trkpt>
      <trkpt lat="40.9889790" lon="-2.5019710">
        <ele>1104.6</ele>
        <time>2020-09-12T09:18:33Z</time>
      </trkpt>
      <trkpt lat="40.9888930" lon="-2.5020380">
        <ele>1104.4</ele>
        <time>2020-09-12T09:18:34Z</time>
      </trkpt>
      <trkpt lat="40.9888070" lon="-2.5021050">
        <ele>1104.2</ele>
        <time>2020-09-12T09:18:35Z</time>
      </trkpt>
      <trkpt lat="40.9887200" lon="-2.5021710">
        <ele>1104.0</ele>
        <time>2020-09-12T09:18:36Z</time>
      </trkpt>
      <trkpt lat="40.9886340" lon="-2.5022370">
        <ele>1104.0</ele>
        <time>2020-09-12T09:18:37Z</time>
      </trkpt>
      <trkpt lat="40.9885490" lon="-2.5023020">
        <ele>1104.0</ele>
        <time>2020-09-12T09:18:38Z</time>
      </trkpt>
      <trkpt lat="40.9884650" lon="-2.5023640">
        <ele>1103.8</ele>
        <time>2020-09-12T09:18:39Z</time>
      </trkpt>
      <trkpt lat="40.9883830" lon="-2.5024250">
        <ele>1103.6</ele>
        <time>2020-09-12T09:18:40Z</time>
      </trkpt>
      <trkpt lat="40.9883020" lon="-2.5024870">
        <ele>1103.4</ele>
        <time>2020-09-12T09:18:41Z</time>
      </trkpt>
      <trkpt lat="40.9882220" lon="-2.5025500">
        <ele>1103.2</ele>
        <time>2020-09-12T09:18:42Z</time>
      </trkpt>
      <trkpt lat="40.9881410" lon="-2.5026130">
        <ele>1103.0</ele>
        <time>2020-09-12T09:18:43Z</time>
      </trkpt>
      <trkpt lat="40.9880610" lon="-2.5026740">
        <ele>1102.8</ele>
        <time>2020-09-12T09:18:44Z</time>
      </trkpt>
      <trkpt lat="40.9879810" lon="-2.5027330">
        <ele>1102.6</ele>
        <time>2020-09-12T09:18:45Z</time>
      </trkpt>
      <trkpt lat="40.9879020" lon="-2.5027920">
        <ele>1102.4</ele>
        <time>2020-09-12T09:18:46Z</time>
      </trkpt>
      <trkpt lat="40.9878240" lon="-2.5028510">
        <ele>1102.2</ele>
        <time>2020-09-12T09:18:47Z</time>
      </trkpt>
      <trkpt lat="40.9877470" lon="-2.5029080">
        <ele>1102.2</ele>
        <time>2020-09-12T09:18:48Z</time>
      </trkpt>
      <trkpt lat="40.9876670" lon="-2.5029650">
        <ele>1102.0</ele>
        <time>2020-09-12T09:18:49Z</time>
      </trkpt>
      <trkpt lat="40.9875890" lon="-2.5030240">
        <ele>1102.0</ele>
        <time>2020-09-12T09:18:50Z</time>
      </trkpt>
      <trkpt lat="40.9875120" lon="-2.5030870">
        <ele>1101.8</ele>
        <time>2020-09-12T09:18:51Z</time>
      </trkpt>
      <trkpt lat="40.9874370" lon="-2.5031530">
        <ele>1101.6</ele>
        <time>2020-09-12T09:18:52Z</time>
      </trkpt>
      <trkpt lat="40.9873640" lon="-2.5032240">
        <ele>1101.6</ele>
        <time>2020-09-12T09:18:53Z</time>
      </trkpt>
      <trkpt lat="40.9872920" lon="-2.5032990">
        <ele>1101.4</ele>
        <time>2020-09-12T09:18:54Z</time>
      </trkpt>
      <trkpt lat="40.9872230" lon="-2.5033740">
        <ele>1101.6</ele>
        <time>2020-09-12T09:18:55Z</time>
      </trkpt>
      <trkpt lat="40.9871560" lon="-2.5034510">
        <ele>1101.6</ele>
        <time>2020-09-12T09:18:56Z</time>
      </trkpt>
      <trkpt lat="40.9870900" lon="-2.5035280">
        <ele>1101.6</ele>
        <time>2020-09-12T09:18:57Z</time>
      </trkpt>
      <trkpt lat="40.9870250" lon="-2.5036050">
        <ele>1101.6</ele>
        <time>2020-09-12T09:18:58Z</time>
      </trkpt>
      <trkpt lat="40.9869620" lon="-2.5036820">
        <ele>1101.6</ele>
        <time>2020-09-12T09:18:59Z</time>
      </trkpt>
      <trkpt lat="40.9869010" lon="-2.5037600">
        <ele>1101.4</ele>
        <time>2020-09-12T09:19:00Z</time>
      </trkpt>
      <trkpt lat="40.9868430" lon="-2.5038390">
        <ele>1101.4</ele>
        <time>2020-09-12T09:19:01Z</time>
      </trkpt>
      <trkpt lat="40.9867880" lon="-2.5039190">
        <ele>1101.4</ele>
        <time>2020-09-12T09:19:02Z</time>
      </trkpt>
      <trkpt lat="40.9867350" lon="-2.5039990">
        <ele>1101.2</ele>
        <time>2020-09-12T09:19:03Z</time>
      </trkpt>
      <trkpt lat="40.9866860" lon="-2.5040810">
        <ele>1101.2</ele>
        <time>2020-09-12T09:19:04Z</time>
      </trkpt>
      <trkpt lat="40.9866380" lon="-2.5041670">
        <ele>1101.2</ele>
        <time>2020-09-12T09:19:05Z</time>
      </trkpt>
      <trkpt lat="40.9865930" lon="-2.5042530">
        <ele>1101.0</ele>
        <time>2020-09-12T09:19:06Z</time>
      </trkpt>
      <trkpt lat="40.9865480" lon="-2.5043360">
        <ele>1101.0</ele>
        <time>2020-09-12T09:19:07Z</time>
      </trkpt>
      <trkpt lat="40.9865000" lon="-2.5044160">
        <ele>1101.0</ele>
        <time>2020-09-12T09:19:08Z</time>
      </trkpt>
      <trkpt lat="40.9864480" lon="-2.5044910">
        <ele>1100.8</ele>
        <time>2020-09-12T09:19:09Z</time>
      </trkpt>
      <trkpt lat="40.9863920" lon="-2.5045610">
        <ele>1100.8</ele>
        <time>2020-09-12T09:19:10Z</time>
      </trkpt>
      <trkpt lat="40.9863350" lon="-2.5046280">
        <ele>1100.6</ele>
        <time>2020-09-12T09:19:11Z</time>
      </trkpt>
      <trkpt lat="40.9862740" lon="-2.5046950">
        <ele>1100.4</ele>
        <time>2020-09-12T09:19:12Z</time>
      </trkpt>
      <trkpt lat="40.9862120" lon="-2.5047630">
        <ele>1100.4</ele>
        <time>2020-09-12T09:19:13Z</time>
      </trkpt>
      <trkpt lat="40.9861500" lon="-2.5048310">
        <ele>1100.0</ele>
        <time>2020-09-12T09:19:14Z</time>
      </trkpt>
      <trkpt lat="40.9860880" lon="-2.5048990">
        <ele>1099.8</ele>
        <time>2020-09-12T09:19:15Z</time>
      </trkpt>
      <trkpt lat="40.9860250" lon="-2.5049660">
        <ele>1099.6</ele>
        <time>2020-09-12T09:19:16Z</time>
      </trkpt>
      <trkpt lat="40.9859630" lon="-2.5050350">
        <ele>1099.6</ele>
        <time>2020-09-12T09:19:17Z</time>
      </trkpt>
      <trkpt lat="40.9858990" lon="-2.5051000">
        <ele>1099.4</ele>
        <time>2020-09-12T09:19:18Z</time>
      </trkpt>
      <trkpt lat="40.9858300" lon="-2.5051550">
        <ele>1099.4</ele>
        <time>2020-09-12T09:19:19Z</time>
      </trkpt>
      <trkpt lat="40.9857560" lon="-2.5051930">
        <ele>1099.4</ele>
        <time>2020-09-12T09:19:20Z</time>
      </trkpt>
      <trkpt lat="40.9856800" lon="-2.5052110">
        <ele>1099.4</ele>
        <time>2020-09-12T09:19:21Z</time>
      </trkpt>
      <trkpt lat="40.9856040" lon="-2.5052160">
        <ele>1099.6</ele>
        <time>2020-09-12T09:19:22Z</time>
      </trkpt>
      <trkpt lat="40.9855300" lon="-2.5052120">
        <ele>1099.6</ele>
        <time>2020-09-12T09:19:23Z</time>
      </trkpt>
      <trkpt lat="40.9854570" lon="-2.5052050">
        <ele>1099.8</ele>
        <time>2020-09-12T09:19:24Z</time>
      </trkpt>
      <trkpt lat="40.9853840" lon="-2.5052000">
        <ele>1100.0</ele>
        <time>2020-09-12T09:19:25Z</time>
      </trkpt>
      <trkpt lat="40.9853130" lon="-2.5051980">
        <ele>1100.4</ele>
        <time>2020-09-12T09:19:26Z</time>
      </trkpt>
      <trkpt lat="40.9852430" lon="-2.5052020">
        <ele>1100.8</ele>
        <time>2020-09-12T09:19:27Z</time>
      </trkpt>
      <trkpt lat="40.9851750" lon="-2.5052140">
        <ele>1101.0</ele>
        <time>2020-09-12T09:19:28Z</time>
      </trkpt>
      <trkpt lat="40.9851090" lon="-2.5052330">
        <ele>1101.4</ele>
        <time>2020-09-12T09:19:29Z</time>
      </trkpt>
      <trkpt lat="40.9850450" lon="-2.5052570">
        <ele>1101.4</ele>
        <time>2020-09-12T09:19:30Z</time>
      </trkpt>
      <trkpt lat="40.9849820" lon="-2.5052830">
        <ele>1101.4</ele>
        <time>2020-09-12T09:19:31Z</time>
      </trkpt>
      <trkpt lat="40.9849200" lon="-2.5053130">
        <ele>1101.2</ele>
        <time>2020-09-12T09:19:32Z</time>
      </trkpt>
      <trkpt lat="40.9848570" lon="-2.5053440">
        <ele>1101.0</ele>
        <time>2020-09-12T09:19:33Z</time>
      </trkpt>
      <trkpt lat="40.9847930" lon="-2.5053810">
        <ele>1101.0</ele>
        <time>2020-09-12T09:19:34Z</time>
      </trkpt>
      <trkpt lat="40.9847290" lon="-2.5054220">
        <ele>1100.8</ele>
        <time>2020-09-12T09:19:35Z</time>
      </trkpt>
      <trkpt lat="40.9846630" lon="-2.5054660">
        <ele>1100.6</ele>
        <time>2020-09-12T09:19:36Z</time>
      </trkpt>
      <trkpt lat="40.9845950" lon="-2.5055120">
        <ele>1100.8</ele>
        <time>2020-09-12T09:19:37Z</time>
      </trkpt>
      <trkpt lat="40.9845270" lon="-2.5055580">
        <ele>1100.8</ele>
        <time>2020-09-12T09:19:38Z</time>
      </trkpt>
      <trkpt lat="40.9844570" lon="-2.5056060">
        <ele>1100.8</ele>
        <time>2020-09-12T09:19:39Z</time>
      </trkpt>
      <trkpt lat="40.9843880" lon="-2.5056550">
        <ele>1100.8</ele>
        <time>2020-09-12T09:19:40Z</time>
      </trkpt>
      <trkpt lat="40.9843200" lon="-2.5057050">
        <ele>1100.6</ele>
        <time>2020-09-12T09:19:41Z</time>
      </trkpt>
      <trkpt lat="40.9842520" lon="-2.5057550">
        <ele>1100.8</ele>
        <time>2020-09-12T09:19:42Z</time>
      </trkpt>
      <trkpt lat="40.9841840" lon="-2.5058040">
        <ele>1101.0</ele>
        <time>2020-09-12T09:19:43Z</time>
      </trkpt>
      <trkpt lat="40.9841150" lon="-2.5058520">
        <ele>1101.0</ele>
        <time>2020-09-12T09:19:44Z</time>
      </trkpt>
      <trkpt lat="40.9840460" lon="-2.5059020">
        <ele>1100.8</ele>
        <time>2020-09-12T09:19:45Z</time>
      </trkpt>
      <trkpt lat="40.9839760" lon="-2.5059520">
        <ele>1100.6</ele>
        <time>2020-09-12T09:19:46Z</time>
      </trkpt>
      <trkpt lat="40.9839080" lon="-2.5060020">
        <ele>1100.4</ele>
        <time>2020-09-12T09:19:47Z</time>
      </trkpt>
      <trkpt lat="40.9838380" lon="-2.5060510">
        <ele>1100.0</ele>
        <time>2020-09-12T09:19:48Z</time>
      </trkpt>
      <trkpt lat="40.9837690" lon="-2.5060990">
        <ele>1099.6</ele>
        <time>2020-09-12T09:19:49Z</time>
      </trkpt>
      <trkpt lat="40.9837010" lon="-2.5061490">
        <ele>1099.6</ele>
        <time>2020-09-12T09:19:50Z</time>
      </trkpt>
      <trkpt lat="40.9836320" lon="-2.5061980">
        <ele>1099.4</ele>
        <time>2020-09-12T09:19:51Z</time>
      </trkpt>
      <trkpt lat="40.9835650" lon="-2.5062470">
        <ele>1099.0</ele>
        <time>2020-09-12T09:19:52Z</time>
      </trkpt>
      <trkpt lat="40.9834980" lon="-2.5062950">
        <ele>1099.2</ele>
        <time>2020-09-12T09:19:53Z</time>
      </trkpt>
      <trkpt lat="40.9834310" lon="-2.5063440">
        <ele>1099.2</ele>
        <time>2020-09-12T09:19:54Z</time>
      </trkpt>
      <trkpt lat="40.9833640" lon="-2.5063920">
        <ele>1099.2</ele>
        <time>2020-09-12T09:19:55Z</time>
      </trkpt>
      <trkpt lat="40.9833000" lon="-2.5064450">
        <ele>1099.0</ele>
        <time>2020-09-12T09:19:56Z</time>
      </trkpt>
      <trkpt lat="40.9832440" lon="-2.5065080">
        <ele>1098.8</ele>
        <time>2020-09-12T09:19:57Z</time>
      </trkpt>
      <trkpt lat="40.9832010" lon="-2.5065850">
        <ele>1098.6</ele>
        <time>2020-09-12T09:19:58Z</time>
      </trkpt>
      <trkpt lat="40.9831740" lon="-2.5066750">
        <ele>1098.4</ele>
        <time>2020-09-12T09:19:59Z</time>
      </trkpt>
      <trkpt lat="40.9831600" lon="-2.5067720">
        <ele>1098.2</ele>
        <time>2020-09-12T09:20:00Z</time>
      </trkpt>
      <trkpt lat="40.9831560" lon="-2.5068710">
        <ele>1098.0</ele>
        <time>2020-09-12T09:20:01Z</time>
      </trkpt>
      <trkpt lat="40.9831540" lon="-2.5069680">
        <ele>1098.0</ele>
        <time>2020-09-12T09:20:02Z</time>
      </trkpt>
      <trkpt lat="40.9831530" lon="-2.5070670">
        <ele>1097.8</ele>
        <time>2020-09-12T09:20:03Z</time>
      </trkpt>
      <trkpt lat="40.9831490" lon="-2.5071660">
        <ele>1097.6</ele>
        <time>2020-09-12T09:20:04Z</time>
      </trkpt>
      <trkpt lat="40.9831410" lon="-2.5072660">
        <ele>1097.4</ele>
        <time>2020-09-12T09:20:05Z</time>
      </trkpt>
      <trkpt lat="40.9831290" lon="-2.5073650">
        <ele>1097.4</ele>
        <time>2020-09-12T09:20:06Z</time>
      </trkpt>
      <trkpt lat="40.9831130" lon="-2.5074640">
        <ele>1097.4</ele>
        <time>2020-09-12T09:20:07Z</time>
      </trkpt>
      <trkpt lat="40.9830970" lon="-2.5075620">
        <ele>1097.4</ele>
        <time>2020-09-12T09:20:08Z</time>
      </trkpt>
      <trkpt lat="40.9830790" lon="-2.5076600">
        <ele>1097.2</ele>
        <time>2020-09-12T09:20:09Z</time>
      </trkpt>
      <trkpt lat="40.9830580" lon="-2.5077590">
        <ele>1097.4</ele>
        <time>2020-09-12T09:20:10Z</time>
      </trkpt>
      <trkpt lat="40.9830320" lon="-2.5078580">
        <ele>1097.4</ele>
        <time>2020-09-12T09:20:11Z</time>
      </trkpt>
      <trkpt lat="40.9829960" lon="-2.5079510">
        <ele>1097.6</ele>
        <time>2020-09-12T09:20:12Z</time>
      </trkpt>
      <trkpt lat="40.9829490" lon="-2.5080340">
        <ele>1097.6</ele>
        <time>2020-09-12T09:20:13Z</time>
      </trkpt>
      <trkpt lat="40.9828920" lon="-2.5081040">
        <ele>1097.6</ele>
        <time>2020-09-12T09:20:14Z</time>
      </trkpt>
      <trkpt lat="40.9828300" lon="-2.5081640">
        <ele>1097.4</ele>
        <time>2020-09-12T09:20:15Z</time>
      </trkpt>
      <trkpt lat="40.9827680" lon="-2.5082190">
        <ele>1097.4</ele>
        <time>2020-09-12T09:20:16Z</time>
      </trkpt>
      <trkpt lat="40.9827040" lon="-2.5082720">
        <ele>1097.4</ele>
        <time>2020-09-12T09:20:17Z</time>
      </trkpt>
      <trkpt lat="40.9826400" lon="-2.5083200">
        <ele>1097.6</ele>
        <time>2020-09-12T09:20:18Z</time>
      </trkpt>
      <trkpt lat="40.9825740" lon="-2.5083640">
        <ele>1097.6</ele>
        <time>2020-09-12T09:20:19Z</time>
      </trkpt>
      <trkpt lat="40.9825060" lon="-2.5083990">
        <ele>1097.6</ele>
        <time>2020-09-12T09:20:20Z</time>
      </trkpt>
      <trkpt lat="40.9824370" lon="-2.5084240">
        <ele>1097.6</ele>
        <time>2020-09-12T09:20:21Z</time>
      </trkpt>
      <trkpt lat="40.9823690" lon="-2.5084380">
        <ele>1097.6</ele>
        <time>2020-09-12T09:20:22Z</time>
      </trkpt>
      <trkpt lat="40.9823050" lon="-2.5084450">
        <ele>1097.6</ele>
        <time>2020-09-12T09:20:23Z</time>
      </trkpt>
      <trkpt lat="40.9822460" lon="-2.5084490">
        <ele>1097.8</ele>
        <time>2020-09-12T09:20:24Z</time>
      </trkpt>
      <trkpt lat="40.9821890" lon="-2.5084500">
        <ele>1097.8</ele>
        <time>2020-09-12T09:20:25Z</time>
      </trkpt>
      <trkpt lat="40.9821360" lon="-2.5084520">
        <ele>1098.0</ele>
        <time>2020-09-12T09:20:26Z</time>
      </trkpt>
      <trkpt lat="40.9820850" lon="-2.5084540">
        <ele>1098.2</ele>
        <time>2020-09-12T09:20:27Z</time>
      </trkpt>
      <trkpt lat="40.9820350" lon="-2.5084530">
        <ele>1098.6</ele>
        <time>2020-09-12T09:20:28Z</time>
      </trkpt>
      <trkpt lat="40.9819820" lon="-2.5084540">
        <ele>1098.8</ele>
        <time>2020-09-12T09:20:29Z</time>
      </trkpt>
      <trkpt lat="40.9819280" lon="-2.5084540">
        <ele>1099.0</ele>
        <time>2020-09-12T09:20:30Z</time>
      </trkpt>
      <trkpt lat="40.9818710" lon="-2.5084520">
        <ele>1099.0</ele>
        <time>2020-09-12T09:20:31Z</time>
      </trkpt>
      <trkpt lat="40.9818120" lon="-2.5084490">
        <ele>1099.2</ele>
        <time>2020-09-12T09:20:32Z</time>
      </trkpt>
      <trkpt lat="40.9817510" lon="-2.5084450">
        <ele>1099.0</ele>
        <time>2020-09-12T09:20:33Z</time>
      </trkpt>
      <trkpt lat="40.9816890" lon="-2.5084430">
        <ele>1099.0</ele>
        <time>2020-09-12T09:20:34Z</time>
      </trkpt>
      <trkpt lat="40.9816250" lon="-2.5084440">
        <ele>1098.8</ele>
        <time>2020-09-12T09:20:35Z</time>
      </trkpt>
      <trkpt lat="40.9815590" lon="-2.5084520">
        <ele>1098.8</ele>
        <time>2020-09-12T09:20:36Z</time>
      </trkpt>
      <trkpt lat="40.9814920" lon="-2.5084630">
        <ele>1098.4</ele>
        <time>2020-09-12T09:20:37Z</time>
      </trkpt>
      <trkpt lat="40.9814240" lon="-2.5084830">
        <ele>1098.2</ele>
        <time>2020-09-12T09:20:38Z</time>
      </trkpt>
      <trkpt lat="40.9813590" lon="-2.5085190">
        <ele>1098.0</ele>
        <time>2020-09-12T09:20:39Z</time>
      </trkpt>
      <trkpt lat="40.9812970" lon="-2.5085710">
        <ele>1097.6</ele>
        <time>2020-09-12T09:20:40Z</time>
      </trkpt>
      <trkpt lat="40.9812360" lon="-2.5086360">
        <ele>1097.4</ele>
        <time>2020-09-12T09:20:41Z</time>
      </trkpt>
      <trkpt lat="40.9811740" lon="-2.5087090">
        <ele>1097.2</ele>
        <time>2020-09-12T09:20:42Z</time>
      </trkpt>
      <trkpt lat="40.9811110" lon="-2.5087870">
        <ele>1097.0</ele>
        <time>2020-09-12T09:20:43Z</time>
      </trkpt>
      <trkpt lat="40.9810490" lon="-2.5088690">
        <ele>1096.8</ele>
        <time>2020-09-12T09:20:44Z</time>
      </trkpt>
      <trkpt lat="40.9809840" lon="-2.5089500">
        <ele>1096.2</ele>
        <time>2020-09-12T09:20:45Z</time>
      </trkpt>
      <trkpt lat="40.9809210" lon="-2.5090290">
        <ele>1095.8</ele>
        <time>2020-09-12T09:20:46Z</time>
      </trkpt>
      <trkpt lat="40.9808580" lon="-2.5091070">
        <ele>1095.4</ele>
        <time>2020-09-12T09:20:47Z</time>
      </trkpt>
      <trkpt lat="40.9807970" lon="-2.5091840">
        <ele>1095.0</ele>
        <time>2020-09-12T09:20:48Z</time>
      </trkpt>
      <trkpt lat="40.9807350" lon="-2.5092590">
        <ele>1094.8</ele>
        <time>2020-09-12T09:20:49Z</time>
      </trkpt>
      <trkpt lat="40.9806760" lon="-2.5093330">
        <ele>1094.4</ele>
        <time>2020-09-12T09:20:50Z</time>
      </trkpt>
      <trkpt lat="40.9806180" lon="-2.5094080">
        <ele>1094.2</ele>
        <time>2020-09-12T09:20:51Z</time>
      </trkpt>
      <trkpt lat="40.9805580" lon="-2.5094800">
        <ele>1094.0</ele>
        <time>2020-09-12T09:20:52Z</time>
      </trkpt>
      <trkpt lat="40.9804980" lon="-2.5095510">
        <ele>1093.8</ele>
        <time>2020-09-12T09:20:53Z</time>
      </trkpt>
      <trkpt lat="40.9804370" lon="-2.5096190">
        <ele>1093.8</ele>
        <time>2020-09-12T09:20:54Z</time>
      </trkpt>
      <trkpt lat="40.9803750" lon="-2.5096840">
        <ele>1093.6</ele>
        <time>2020-09-12T09:20:55Z</time>
      </trkpt>
      <trkpt lat="40.9803110" lon="-2.5097480">
        <ele>1093.4</ele>
        <time>2020-09-12T09:20:56Z</time>
      </trkpt>
      <trkpt lat="40.9802450" lon="-2.5098080">
        <ele>1093.2</ele>
        <time>2020-09-12T09:20:57Z</time>
      </trkpt>
      <trkpt lat="40.9801800" lon="-2.5098660">
        <ele>1093.0</ele>
        <time>2020-09-12T09:20:58Z</time>
      </trkpt>
      <trkpt lat="40.9801140" lon="-2.5099230">
        <ele>1092.8</ele>
        <time>2020-09-12T09:20:59Z</time>
      </trkpt>
      <trkpt lat="40.9800480" lon="-2.5099780">
        <ele>1092.6</ele>
        <time>2020-09-12T09:21:00Z</time>
      </trkpt>
      <trkpt lat="40.9799810" lon="-2.5100330">
        <ele>1092.6</ele>
        <time>2020-09-12T09:21:01Z</time>
      </trkpt>
      <trkpt lat="40.9799130" lon="-2.5100870">
        <ele>1092.4</ele>
        <time>2020-09-12T09:21:02Z</time>
      </trkpt>
      <trkpt lat="40.9798450" lon="-2.5101400">
        <ele>1092.4</ele>
        <time>2020-09-12T09:21:03Z</time>
      </trkpt>
      <trkpt lat="40.9797770" lon="-2.5101930">
        <ele>1092.4</ele>
        <time>2020-09-12T09:21:04Z</time>
      </trkpt>
      <trkpt lat="40.9797110" lon="-2.5102490">
        <ele>1092.2</ele>
        <time>2020-09-12T09:21:05Z</time>
      </trkpt>
      <trkpt lat="40.9796470" lon="-2.5103080">
        <ele>1092.2</ele>
        <time>2020-09-12T09:21:06Z</time>
      </trkpt>
      <trkpt lat="40.9795850" lon="-2.5103670">
        <ele>1092.2</ele>
        <time>2020-09-12T09:21:07Z</time>
      </trkpt>
      <trkpt lat="40.9795250" lon="-2.5104300">
        <ele>1092.2</ele>
        <time>2020-09-12T09:21:08Z</time>
      </trkpt>
      <trkpt lat="40.9794660" lon="-2.5104960">
        <ele>1092.2</ele>
        <time>2020-09-12T09:21:09Z</time>
      </trkpt>
      <trkpt lat="40.9794110" lon="-2.5105640">
        <ele>1092.2</ele>
        <time>2020-09-12T09:21:10Z</time>
      </trkpt>
      <trkpt lat="40.9793570" lon="-2.5106360">
        <ele>1092.2</ele>
        <time>2020-09-12T09:21:11Z</time>
      </trkpt>
      <trkpt lat="40.9793050" lon="-2.5107110">
        <ele>1092.2</ele>
        <time>2020-09-12T09:21:12Z</time>
      </trkpt>
      <trkpt lat="40.9792540" lon="-2.5107860">
        <ele>1092.4</ele>
        <time>2020-09-12T09:21:13Z</time>
      </trkpt>
      <trkpt lat="40.9792020" lon="-2.5108600">
        <ele>1092.4</ele>
        <time>2020-09-12T09:21:14Z</time>
      </trkpt>
      <trkpt lat="40.9791520" lon="-2.5109320">
        <ele>1092.4</ele>
        <time>2020-09-12T09:21:15Z</time>
      </trkpt>
      <trkpt lat="40.9791030" lon="-2.5110060">
        <ele>1092.4</ele>
        <time>2020-09-12T09:21:16Z</time>
      </trkpt>
      <trkpt lat="40.9790550" lon="-2.5110790">
        <ele>1092.6</ele>
        <time>2020-09-12T09:21:17Z</time>
      </trkpt>
      <trkpt lat="40.9790070" lon="-2.5111530">
        <ele>1092.6</ele>
        <time>2020-09-12T09:21:18Z</time>
      </trkpt>
      <trkpt lat="40.9789600" lon="-2.5112240">
        <ele>1092.4</ele>
        <time>2020-09-12T09:21:19Z</time>
      </trkpt>
      <trkpt lat="40.9789130" lon="-2.5112950">
        <ele>1092.4</ele>
        <time>2020-09-12T09:21:20Z</time>
      </trkpt>
      <trkpt lat="40.9788660" lon="-2.5113650">
        <ele>1092.2</ele>
        <time>2020-09-12T09:21:21Z</time>
      </trkpt>
      <trkpt lat="40.9788180" lon="-2.5114340">
        <ele>1092.0</ele>
        <time>2020-09-12T09:21:22Z</time>
      </trkpt>
      <trkpt lat="40.9787710" lon="-2.5115030">
        <ele>1092.0</ele>
        <time>2020-09-12T09:21:23Z</time>
      </trkpt>
      <trkpt lat="40.9787250" lon="-2.5115720">
        <ele>1092.0</ele>
        <time>2020-09-12T09:21:24Z</time>
      </trkpt>
      <trkpt lat="40.9786790" lon="-2.5116410">
        <ele>1092.0</ele>
        <time>2020-09-12T09:21:25Z</time>
      </trkpt>
      <trkpt lat="40.9786330" lon="-2.5117100">
        <ele>1092.0</ele>
        <time>2020-09-12T09:21:26Z</time>
      </trkpt>
      <trkpt lat="40.9785880" lon="-2.5117770">
        <ele>1092.2</ele>
        <time>2020-09-12T09:21:27Z</time>
      </trkpt>
      <trkpt lat="40.9785450" lon="-2.5118440">
        <ele>1092.4</ele>
        <time>2020-09-12T09:21:28Z</time>
      </trkpt>
      <trkpt lat="40.9785030" lon="-2.5119100">
        <ele>1092.4</ele>
        <time>2020-09-12T09:21:29Z</time>
      </trkpt>
      <trkpt lat="40.9784600" lon="-2.5119740">
        <ele>1092.6</ele>
        <time>2020-09-12T09:21:30Z</time>
      </trkpt>
      <trkpt lat="40.9784170" lon="-2.5120380">
        <ele>1092.8</ele>
        <time>2020-09-12T09:21:31Z</time>
      </trkpt>
      <trkpt lat="40.9783740" lon="-2.5121030">
        <ele>1092.8</ele>
        <time>2020-09-12T09:21:32Z</time>
      </trkpt>
      <trkpt lat="40.9783310" lon="-2.5121670">
        <ele>1093.0</ele>
        <time>2020-09-12T09:21:33Z</time>
      </trkpt>
      <trkpt lat="40.9782870" lon="-2.5122300">
        <ele>1093.0</ele>
        <time>2020-09-12T09:21:34Z</time>
      </trkpt>
      <trkpt lat="40.9782430" lon="-2.5122920">
        <ele>1093.0</ele>
        <time>2020-09-12T09:21:35Z</time>
      </trkpt>
      <trkpt lat="40.9781990" lon="-2.5123540">
        <ele>1093.0</ele>
        <time>2020-09-12T09:21:36Z</time>
      </trkpt>
      <trkpt lat="40.9781570" lon="-2.5124170">
        <ele>1093.2</ele>
        <time>2020-09-12T09:21:37Z</time>
      </trkpt>
      <trkpt lat="40.9781160" lon="-2.5124790">
        <ele>1093.0</ele>
        <time>2020-09-12T09:21:38Z</time>
      </trkpt>
      <trkpt lat="40.9780750" lon="-2.5125410">
        <ele>1093.0</ele>
        <time>2020-09-12T09:21:39Z</time>
      </trkpt>
      <trkpt lat="40.9780340" lon="-2.5126030">
        <ele>1093.0</ele>
        <time>2020-09-12T09:21:40Z</time>
      </trkpt>
      <trkpt lat="40.9779940" lon="-2.5126640">
        <ele>1093.2</ele>
        <time>2020-09-12T09:21:41Z</time>
      </trkpt>
      <trkpt lat="40.9779550" lon="-2.5127250">
        <ele>1093.2</ele>
        <time>2020-09-12T09:21:42Z</time>
      </trkpt>
      <trkpt lat="40.9779150" lon="-2.5127850">
        <ele>1093.4</ele>
        <time>2020-09-12T09:21:43Z</time>
      </trkpt>
      <trkpt lat="40.9778740" lon="-2.5128440">
        <ele>1093.4</ele>
        <time>2020-09-12T09:21:44Z</time>
      </trkpt>
      <trkpt lat="40.9778340" lon="-2.5129030">
        <ele>1093.4</ele>
        <time>2020-09-12T09:21:45Z</time>
      </trkpt>
      <trkpt lat="40.9777950" lon="-2.5129620">
        <ele>1093.6</ele>
        <time>2020-09-12T09:21:46Z</time>
      </trkpt>
      <trkpt lat="40.9777580" lon="-2.5130190">
        <ele>1093.8</ele>
        <time>2020-09-12T09:21:47Z</time>
      </trkpt>
      <trkpt lat="40.9777210" lon="-2.5130730">
        <ele>1093.8</ele>
        <time>2020-09-12T09:21:48Z</time>
      </trkpt>
      <trkpt lat="40.9776860" lon="-2.5131250">
        <ele>1094.0</ele>
        <time>2020-09-12T09:21:49Z</time>
      </trkpt>
      <trkpt lat="40.9776510" lon="-2.5131760">
        <ele>1094.2</ele>
        <time>2020-09-12T09:21:50Z</time>
      </trkpt>
      <trkpt lat="40.9776180" lon="-2.5132270">
        <ele>1094.6</ele>
        <time>2020-09-12T09:21:51Z</time>
      </trkpt>
      <trkpt lat="40.9775860" lon="-2.5132780">
        <ele>1094.8</ele>
        <time>2020-09-12T09:21:52Z</time>
      </trkpt>
      <trkpt lat="40.9775530" lon="-2.5133270">
        <ele>1095.0</ele>
        <time>2020-09-12T09:21:53Z</time>
      </trkpt>
      <trkpt lat="40.9775200" lon="-2.5133770">
        <ele>1095.2</ele>
        <time>2020-09-12T09:21:54Z</time>
      </trkpt>
      <trkpt lat="40.9774880" lon="-2.5134250">
        <ele>1095.4</ele>
        <time>2020-09-12T09:21:55Z</time>
      </trkpt>
      <trkpt lat="40.9774570" lon="-2.5134720">
        <ele>1095.6</ele>
        <time>2020-09-12T09:21:56Z</time>
      </trkpt>
      <trkpt lat="40.9774250" lon="-2.5135170">
        <ele>1095.8</ele>
        <time>2020-09-12T09:21:57Z</time>
      </trkpt>
      <trkpt lat="40.9773940" lon="-2.5135610">
        <ele>1096.0</ele>
        <time>2020-09-12T09:21:58Z</time>
      </trkpt>
      <trkpt lat="40.9773620" lon="-2.5136060">
        <ele>1096.2</ele>
        <time>2020-09-12T09:21:59Z</time>
      </trkpt>
      <trkpt lat="40.9773310" lon="-2.5136500">
        <ele>1096.4</ele>
        <time>2020-09-12T09:22:00Z</time>
      </trkpt>
      <trkpt lat="40.9773000" lon="-2.5136940">
        <ele>1096.4</ele>
        <time>2020-09-12T09:22:01Z</time>
      </trkpt>
      <trkpt lat="40.9772700" lon="-2.5137380">
        <ele>1096.6</ele>
        <time>2020-09-12T09:22:02Z</time>
      </trkpt>
      <trkpt lat="40.9772400" lon="-2.5137850">
        <ele>1096.8</ele>
        <time>2020-09-12T09:22:03Z</time>
      </trkpt>
      <trkpt lat="40.9772060" lon="-2.5138330">
        <ele>1097.0</ele>
        <time>2020-09-12T09:22:04Z</time>
      </trkpt>
      <trkpt lat="40.9771700" lon="-2.5138820">
        <ele>1097.0</ele>
        <time>2020-09-12T09:22:05Z</time>
      </trkpt>
      <trkpt lat="40.9771310" lon="-2.5139370">
        <ele>1097.0</ele>
        <time>2020-09-12T09:22:06Z</time>
      </trkpt>
      <trkpt lat="40.9770880" lon="-2.5139990">
        <ele>1097.0</ele>
        <time>2020-09-12T09:22:07Z</time>
      </trkpt>
      <trkpt lat="40.9770410" lon="-2.5140660">
        <ele>1096.8</ele>
        <time>2020-09-12T09:22:08Z</time>
      </trkpt>
      <trkpt lat="40.9769910" lon="-2.5141330">
        <ele>1096.6</ele>
        <time>2020-09-12T09:22:09Z</time>
      </trkpt>
      <trkpt lat="40.9769400" lon="-2.5141980">
        <ele>1096.4</ele>
        <time>2020-09-12T09:22:10Z</time>
      </trkpt>
      <trkpt lat="40.9768870" lon="-2.5142600">
        <ele>1096.2</ele>
        <time>2020-09-12T09:22:11Z</time>
      </trkpt>
      <trkpt lat="40.9768310" lon="-2.5143170">
        <ele>1096.0</ele>
        <time>2020-09-12T09:22:12Z</time>
      </trkpt>
      <trkpt lat="40.9767750" lon="-2.5143670">
        <ele>1095.6</ele>
        <time>2020-09-12T09:22:13Z</time>
      </trkpt>
      <trkpt lat="40.9767180" lon="-2.5144100">
        <ele>1095.6</ele>
        <time>2020-09-12T09:22:14Z</time>
      </trkpt>
      <trkpt lat="40.9766600" lon="-2.5144470">
        <ele>1095.4</ele>
        <time>2020-09-12T09:22:15Z</time>
      </trkpt>
      <trkpt lat="40.9766030" lon="-2.5144840">
        <ele>1095.4</ele>
        <time>2020-09-12T09:22:16Z</time>
      </trkpt>
      <trkpt lat="40.9765470" lon="-2.5145190">
        <ele>1095.4</ele>
        <time>2020-09-12T09:22:17Z</time>
      </trkpt>
      <trkpt lat="40.9764900" lon="-2.5145530">
        <ele>1095.6</ele>
        <time>2020-09-12T09:22:18Z</time>
      </trkpt>
      <trkpt lat="40.9764340" lon="-2.5145830">
        <ele>1095.8</ele>
        <time>2020-09-12T09:22:19Z</time>
      </trkpt>
      <trkpt lat="40.9763810" lon="-2.5146100">
        <ele>1096.0</ele>
        <time>2020-09-12T09:22:20Z</time>
      </trkpt>
      <trkpt lat="40.9763280" lon="-2.5146380">
        <ele>1096.2</ele>
        <time>2020-09-12T09:22:21Z</time>
      </trkpt>
      <trkpt lat="40.9762770" lon="-2.5146640">
        <ele>1096.4</ele>
        <time>2020-09-12T09:22:22Z</time>
      </trkpt>
      <trkpt lat="40.9762260" lon="-2.5146920">
        <ele>1096.4</ele>
        <time>2020-09-12T09:22:23Z</time>
      </trkpt>
      <trkpt lat="40.9761760" lon="-2.5147180">
        <ele>1096.6</ele>
        <time>2020-09-12T09:22:24Z</time>
      </trkpt>
      <trkpt lat="40.9761280" lon="-2.5147440">
        <ele>1096.8</ele>
        <time>2020-09-12T09:22:25Z</time>
      </trkpt>
      <trkpt lat="40.9760820" lon="-2.5147720">
        <ele>1097.0</ele>
        <time>2020-09-12T09:22:26Z</time>
      </trkpt>
      <trkpt lat="40.9760360" lon="-2.5148040">
        <ele>1097.2</ele>
        <time>2020-09-12T09:22:27Z</time>
      </trkpt>
      <trkpt lat="40.9759890" lon="-2.5148360">
        <ele>1097.4</ele>
        <time>2020-09-12T09:22:28Z</time>
      </trkpt>
      <trkpt lat="40.9759440" lon="-2.5148680">
        <ele>1097.6</ele>
        <time>2020-09-12T09:22:29Z</time>
      </trkpt>
      <trkpt lat="40.9758990" lon="-2.5149020">
        <ele>1097.8</ele>
        <time>2020-09-12T09:22:30Z</time>
      </trkpt>
      <trkpt lat="40.9758540" lon="-2.5149370">
        <ele>1098.2</ele>
        <time>2020-09-12T09:22:31Z</time>
      </trkpt>
      <trkpt lat="40.9758110" lon="-2.5149720">
        <ele>1098.2</ele>
        <time>2020-09-12T09:22:32Z</time>
      </trkpt>
      <trkpt lat="40.9757670" lon="-2.5150070">
        <ele>1098.4</ele>
        <time>2020-09-12T09:22:33Z</time>
      </trkpt>
      <trkpt lat="40.9757230" lon="-2.5150420">
        <ele>1098.6</ele>
        <time>2020-09-12T09:22:34Z</time>
      </trkpt>
      <trkpt lat="40.9756800" lon="-2.5150770">
        <ele>1098.8</ele>
        <time>2020-09-12T09:22:35Z</time>
      </trkpt>
      <trkpt lat="40.9756380" lon="-2.5151120">
        <ele>1099.2</ele>
        <time>2020-09-12T09:22:36Z</time>
      </trkpt>
      <trkpt lat="40.9755970" lon="-2.5151470">
        <ele>1099.4</ele>
        <time>2020-09-12T09:22:37Z</time>
      </trkpt>
      <trkpt lat="40.9755560" lon="-2.5151820">
        <ele>1099.6</ele>
        <time>2020-09-12T09:22:38Z</time>
      </trkpt>
      <trkpt lat="40.9755160" lon="-2.5152170">
        <ele>1099.8</ele>
        <time>2020-09-12T09:22:39Z</time>
      </trkpt>
      <trkpt lat="40.9754750" lon="-2.5152500">
        <ele>1100.0</ele>
        <time>2020-09-12T09:22:40Z</time>
      </trkpt>
      <trkpt lat="40.9754350" lon="-2.5152840">
        <ele>1100.0</ele>
        <time>2020-09-12T09:22:41Z</time>
      </trkpt>
      <trkpt lat="40.9753930" lon="-2.5153180">
        <ele>1100.2</ele>
        <time>2020-09-12T09:22:42Z</time>
      </trkpt>
      <trkpt lat="40.9753520" lon="-2.5153520">
        <ele>1100.4</ele>
        <time>2020-09-12T09:22:43Z</time>
      </trkpt>
      <trkpt lat="40.9753120" lon="-2.5153870">
        <ele>1100.6</ele>
        <time>2020-09-12T09:22:44Z</time>
      </trkpt>
      <trkpt lat="40.9752750" lon="-2.5154210">
        <ele>1100.8</ele>
        <time>2020-09-12T09:22:45Z</time>
      </trkpt>
      <trkpt lat="40.9752390" lon="-2.5154540">
        <ele>1101.0</ele>
        <time>2020-09-12T09:22:46Z</time>
      </trkpt>
      <trkpt lat="40.9752030" lon="-2.5154870">
        <ele>1101.0</ele>
        <time>2020-09-12T09:22:47Z</time>
      </trkpt>
      <trkpt lat="40.9751670" lon="-2.5155200">
        <ele>1101.0</ele>
        <time>2020-09-12T09:22:48Z</time>
      </trkpt>
      <trkpt lat="40.9751290" lon="-2.5155540">
        <ele>1101.2</ele>
        <time>2020-09-12T09:22:49Z</time>
      </trkpt>
      <trkpt lat="40.9750930" lon="-2.5155880">
        <ele>1101.4</ele>
        <time>2020-09-12T09:22:50Z</time>
      </trkpt>
      <trkpt lat="40.9750580" lon="-2.5156220">
        <ele>1101.4</ele>
        <time>2020-09-12T09:22:51Z</time>
      </trkpt>
      <trkpt lat="40.9750220" lon="-2.5156540">
        <ele>1101.6</ele>
        <time>2020-09-12T09:22:52Z</time>
      </trkpt>
      <trkpt lat="40.9749860" lon="-2.5156840">
        <ele>1101.8</ele>
        <time>2020-09-12T09:22:53Z</time>
      </trkpt>
      <trkpt lat="40.9749500" lon="-2.5157120">
        <ele>1101.8</ele>
        <time>2020-09-12T09:22:54Z</time>
      </trkpt>
      <trkpt lat="40.9749140" lon="-2.5157400">
        <ele>1101.8</ele>
        <time>2020-09-12T09:22:55Z</time>
      </trkpt>
      <trkpt lat="40.9748800" lon="-2.5157700">
        <ele>1102.0</ele>
        <time>2020-09-12T09:22:56Z</time>
      </trkpt>
      <trkpt lat="40.9748460" lon="-2.5158010">
        <ele>1102.2</ele>
        <time>2020-09-12T09:22:57Z</time>
      </trkpt>
      <trkpt lat="40.9748130" lon="-2.5158340">
        <ele>1102.8</ele>
        <time>2020-09-12T09:22:58Z</time>
      </trkpt>
      <trkpt lat="40.9747810" lon="-2.5158630">
        <ele>1103.2</ele>
        <time>2020-09-12T09:22:59Z</time>
      </trkpt>
      <trkpt lat="40.9747480" lon="-2.5158910">
        <ele>1103.4</ele>
        <time>2020-09-12T09:23:00Z</time>
      </trkpt>
      <trkpt lat="40.9747160" lon="-2.5159190">
        <ele>1103.6</ele>
        <time>2020-09-12T09:23:01Z</time>
      </trkpt>
      <trkpt lat="40.9746850" lon="-2.5159460">
        <ele>1103.8</ele>
        <time>2020-09-12T09:23:02Z</time>
      </trkpt>
      <trkpt lat="40.9746520" lon="-2.5159710">
        <ele>1104.0</ele>
        <time>2020-09-12T09:23:03Z</time>
      </trkpt>
      <trkpt lat="40.9746210" lon="-2.5159950">
        <ele>1104.4</ele>
        <time>2020-09-12T09:23:04Z</time>
      </trkpt>
      <trkpt lat="40.9745880" lon="-2.5160170">
        <ele>1104.6</ele>
        <time>2020-09-12T09:23:05Z</time>
      </trkpt>
      <trkpt lat="40.9745550" lon="-2.5160390">
        <ele>1104.8</ele>
        <time>2020-09-12T09:23:06Z</time>
      </trkpt>
      <trkpt lat="40.9745210" lon="-2.5160610">
        <ele>1105.0</ele>
        <time>2020-09-12T09:23:07Z</time>
      </trkpt>
      <trkpt lat="40.9744880" lon="-2.5160810">
        <ele>1105.0</ele>
        <time>2020-09-12T09:23:08Z</time>
      </trkpt>
      <trkpt lat="40.9744530" lon="-2.5160970">
        <ele>1105.2</ele>
        <time>2020-09-12T09:23:09Z</time>
      </trkpt>
      <trkpt lat="40.9744190" lon="-2.5161090">
        <ele>1105.6</ele>
        <time>2020-09-12T09:23:10Z</time>
      </trkpt>
      <trkpt lat="40.9743830" lon="-2.5161210">
        <ele>1105.8</ele>
        <time>2020-09-12T09:23:11Z</time>
      </trkpt>
      <trkpt lat="40.9743480" lon="-2.5161320">
        <ele>1106.0</ele>
        <time>2020-09-12T09:23:12Z</time>
      </trkpt>
      <trkpt lat="40.9743110" lon="-2.5161410">
        <ele>1106.2</ele>
        <time>2020-09-12T09:23:13Z</time>
      </trkpt>
      <trkpt lat="40.9742760" lon="-2.5161480">
        <ele>1106.6</ele>
        <time>2020-09-12T09:23:14Z</time>
      </trkpt>
      <trkpt lat="40.9742390" lon="-2.5161540">
        <ele>1106.8</ele>
        <time>2020-09-12T09:23:15Z</time>
      </trkpt>
      <trkpt lat="40.9742010" lon="-2.5161600">
        <ele>1107.2</ele>
        <time>2020-09-12T09:23:16Z</time>
      </trkpt>
      <trkpt lat="40.9741650" lon="-2.5161680">
        <ele>1107.4</ele>
        <time>2020-09-12T09:23:17Z</time>
      </trkpt>
      <trkpt lat="40.9741290" lon="-2.5161760">
        <ele>1107.6</ele>
        <time>2020-09-12T09:23:18Z</time>
      </trkpt>
      <trkpt lat="40.9740930" lon="-2.5161820">
        <ele>1107.8</ele>
        <time>2020-09-12T09:23:19Z</time>
      </trkpt>
      <trkpt lat="40.9740560" lon="-2.5161860">
        <ele>1108.0</ele>
        <time>2020-09-12T09:23:20Z</time>
      </trkpt>
      <trkpt lat="40.9740200" lon="-2.5161930">
        <ele>1108.2</ele>
        <time>2020-09-12T09:23:21Z</time>
      </trkpt>
      <trkpt lat="40.9739840" lon="-2.5162010">
        <ele>1108.4</ele>
        <time>2020-09-12T09:23:22Z</time>
      </trkpt>
      <trkpt lat="40.9739480" lon="-2.5162080">
        <ele>1108.6</ele>
        <time>2020-09-12T09:23:23Z</time>
      </trkpt>
      <trkpt lat="40.9739110" lon="-2.5162140">
        <ele>1108.8</ele>
        <time>2020-09-12T09:23:24Z</time>
      </trkpt>
      <trkpt lat="40.9738750" lon="-2.5162200">
        <ele>1109.0</ele>
        <time>2020-09-12T09:23:25Z</time>
      </trkpt>
      <trkpt lat="40.9738380" lon="-2.5162270">
        <ele>1109.2</ele>
        <time>2020-09-12T09:23:26Z</time>
      </trkpt>
      <trkpt lat="40.9738020" lon="-2.5162360">
        <ele>1109.6</ele>
        <time>2020-09-12T09:23:27Z</time>
      </trkpt>
      <trkpt lat="40.9737640" lon="-2.5162450">
        <ele>1110.2</ele>
        <time>2020-09-12T09:23:28Z</time>
      </trkpt>
      <trkpt lat="40.9737280" lon="-2.5162540">
        <ele>1110.4</ele>
        <time>2020-09-12T09:23:29Z</time>
      </trkpt>
      <trkpt lat="40.9736910" lon="-2.5162630">
        <ele>1110.8</ele>
        <time>2020-09-12T09:23:30Z</time>
      </trkpt>
      <trkpt lat="40.9736530" lon="-2.5162700">
        <ele>1111.0</ele>
        <time>2020-09-12T09:23:31Z</time>
      </trkpt>
      <trkpt lat="40.9736140" lon="-2.5162770">
        <ele>1111.2</ele>
        <time>2020-09-12T09:23:32Z</time>
      </trkpt>
      <trkpt lat="40.9735740" lon="-2.5162840">
        <ele>1111.4</ele>
        <time>2020-09-12T09:23:33Z</time>
      </trkpt>
      <trkpt lat="40.9735350" lon="-2.5162910">
        <ele>1111.6</ele>
        <time>2020-09-12T09:23:34Z</time>
      </trkpt>
      <trkpt lat="40.9734970" lon="-2.5162970">
        <ele>1111.8</ele>
        <time>2020-09-12T09:23:35Z</time>
      </trkpt>
      <trkpt lat="40.9734590" lon="-2.5163020">
        <ele>1111.8</ele>
        <time>2020-09-12T09:23:36Z</time>
      </trkpt>
      <trkpt lat="40.9734210" lon="-2.5163080">
        <ele>1112.0</ele>
        <time>2020-09-12T09:23:37Z</time>
      </trkpt>
      <trkpt lat="40.9733830" lon="-2.5163120">
        <ele>1112.0</ele>
        <time>2020-09-12T09:23:38Z</time>
      </trkpt>
      <trkpt lat="40.9733460" lon="-2.5163150">
        <ele>1112.0</ele>
        <time>2020-09-12T09:23:39Z</time>
      </trkpt>
      <trkpt lat="40.9733090" lon="-2.5163150">
        <ele>1112.2</ele>
        <time>2020-09-12T09:23:40Z</time>
      </trkpt>
      <trkpt lat="40.9732730" lon="-2.5163150">
        <ele>1112.4</ele>
        <time>2020-09-12T09:23:41Z</time>
      </trkpt>
      <trkpt lat="40.9732360" lon="-2.5163150">
        <ele>1112.6</ele>
        <time>2020-09-12T09:23:42Z</time>
      </trkpt>
      <trkpt lat="40.9731990" lon="-2.5163130">
        <ele>1112.8</ele>
        <time>2020-09-12T09:23:43Z</time>
      </trkpt>
      <trkpt lat="40.9731620" lon="-2.5163120">
        <ele>1113.0</ele>
        <time>2020-09-12T09:23:44Z</time>
      </trkpt>
      <trkpt lat="40.9731260" lon="-2.5163130">
        <ele>1113.2</ele>
        <time>2020-09-12T09:23:45Z</time>
      </trkpt>
      <trkpt lat="40.9730910" lon="-2.5163130">
        <ele>1113.6</ele>
        <time>2020-09-12T09:23:46Z</time>
      </trkpt>
      <trkpt lat="40.9730570" lon="-2.5163140">
        <ele>1113.8</ele>
        <time>2020-09-12T09:23:47Z</time>
      </trkpt>
      <trkpt lat="40.9730240" lon="-2.5163160">
        <ele>1114.0</ele>
        <time>2020-09-12T09:23:48Z</time>
      </trkpt>
      <trkpt lat="40.9729900" lon="-2.5163160">
        <ele>1114.2</ele>
        <time>2020-09-12T09:23:49Z</time>
      </trkpt>
      <trkpt lat="40.9729550" lon="-2.5163150">
        <ele>1114.4</ele>
        <time>2020-09-12T09:23:50Z</time>
      </trkpt>
      <trkpt lat="40.9729190" lon="-2.5163160">
        <ele>1114.4</ele>
        <time>2020-09-12T09:23:51Z</time>
      </trkpt>
      <trkpt lat="40.9728830" lon="-2.5163150">
        <ele>1114.6</ele>
        <time>2020-09-12T09:23:52Z</time>
      </trkpt>
      <trkpt lat="40.9728460" lon="-2.5163160">
        <ele>1114.8</ele>
        <time>2020-09-12T09:23:53Z</time>
      </trkpt>
      <trkpt lat="40.9728100" lon="-2.5163190">
        <ele>1114.8</ele>
        <time>2020-09-12T09:23:54Z</time>
      </trkpt>
      <trkpt lat="40.9727740" lon="-2.5163200">
        <ele>1115.2</ele>
        <time>2020-09-12T09:23:55Z</time>
      </trkpt>
      <trkpt lat="40.9727390" lon="-2.5163250">
        <ele>1115.4</ele>
        <time>2020-09-12T09:23:56Z</time>
      </trkpt>
      <trkpt lat="40.9727050" lon="-2.5163340">
        <ele>1115.6</ele>
        <time>2020-09-12T09:23:57Z</time>
      </trkpt>
      <trkpt lat="40.9726730" lon="-2.5163500">
        <ele>1116.0</ele>
        <time>2020-09-12T09:23:58Z</time>
      </trkpt>
      <trkpt lat="40.9726440" lon="-2.5163740">
        <ele>1116.2</ele>
        <time>2020-09-12T09:23:59Z</time>
      </trkpt>
      <trkpt lat="40.9726210" lon="-2.5164030">
        <ele>1116.4</ele>
        <time>2020-09-12T09:24:00Z</time>
      </trkpt>
      <trkpt lat="40.9726030" lon="-2.5164330">
        <ele>1116.8</ele>
        <time>2020-09-12T09:24:01Z</time>
      </trkpt>
      <trkpt lat="40.9725890" lon="-2.5164660">
        <ele>1117.0</ele>
        <time>2020-09-12T09:24:02Z</time>
      </trkpt>
      <trkpt lat="40.9725820" lon="-2.5165040">
        <ele>1117.0</ele>
        <time>2020-09-12T09:24:03Z</time>
      </trkpt>
      <trkpt lat="40.9725820" lon="-2.5165440">
        <ele>1117.4</ele>
        <time>2020-09-12T09:24:04Z</time>
      </trkpt>
      <trkpt lat="40.9725890" lon="-2.5165830">
        <ele>1117.6</ele>
        <time>2020-09-12T09:24:05Z</time>
      </trkpt>
      <trkpt lat="40.9726030" lon="-2.5166190">
        <ele>1118.0</ele>
        <time>2020-09-12T09:24:06Z</time>
      </trkpt>
      <trkpt lat="40.9726230" lon="-2.5166540">
        <ele>1118.2</ele>
        <time>2020-09-12T09:24:07Z</time>
      </trkpt>
      <trkpt lat="40.9726500" lon="-2.5166870">
        <ele>1118.6</ele>
        <time>2020-09-12T09:24:08Z</time>
      </trkpt>
      <trkpt lat="40.9726830" lon="-2.5167170">
        <ele>1119.0</ele>
        <time>2020-09-12T09:24:09Z</time>
      </trkpt>
      <trkpt lat="40.9727200" lon="-2.5167470">
        <ele>1119.2</ele>
        <time>2020-09-12T09:24:10Z</time>
      </trkpt>
      <trkpt lat="40.9727560" lon="-2.5167760">
        <ele>1119.4</ele>
        <time>2020-09-12T09:24:11Z</time>
      </trkpt>
      <trkpt lat="40.9727920" lon="-2.5168020">
        <ele>1119.6</ele>
        <time>2020-09-12T09:24:12Z</time>
      </trkpt>
      <trkpt lat="40.9728280" lon="-2.5168270">
        <ele>1119.8</ele>
        <time>2020-09-12T09:24:13Z</time>
      </trkpt>
      <trkpt lat="40.9728630" lon="-2.5168540">
        <ele>1120.2</ele>
        <time>2020-09-12T09:24:14Z</time>
      </trkpt>
      <trkpt lat="40.9728970" lon="-2.5168810">
        <ele>1120.4</ele>
        <time>2020-09-12T09:24:15Z</time>
      </trkpt>
      <trkpt lat="40.9729300" lon="-2.5169080">
        <ele>1120.6</ele>
        <time>2020-09-12T09:24:16Z</time>
      </trkpt>
      <trkpt lat="40.9729630" lon="-2.5169340">
        <ele>1120.8</ele>
        <time>2020-09-12T09:24:17Z</time>
      </trkpt>
      <trkpt lat="40.9729970" lon="-2.5169600">
        <ele>1121.2</ele>
        <time>2020-09-12T09:24:18Z</time>
      </trkpt>
      <trkpt lat="40.9730290" lon="-2.5169860">
        <ele>1121.6</ele>
        <time>2020-09-12T09:24:19Z</time>
      </trkpt>
      <trkpt lat="40.9730610" lon="-2.5170100">
        <ele>1122.0</ele>
        <time>2020-09-12T09:24:20Z</time>
      </trkpt>
      <trkpt lat="40.9730940" lon="-2.5170340">
        <ele>1122.2</ele>
        <time>2020-09-12T09:24:21Z</time>
      </trkpt>
      <trkpt lat="40.9731250" lon="-2.5170570">
        <ele>1122.4</ele>
        <time>2020-09-12T09:24:22Z</time>
      </trkpt>
      <trkpt lat="40.9731580" lon="-2.5170800">
        <ele>1122.6</ele>
        <time>2020-09-12T09:24:23Z</time>
      </trkpt>
      <trkpt lat="40.9731910" lon="-2.5171060">
        <ele>1122.8</ele>
        <time>2020-09-12T09:24:24Z</time>
      </trkpt>
      <trkpt lat="40.9732250" lon="-2.5171330">
        <ele>1123.0</ele>
        <time>2020-09-12T09:24:25Z</time>
      </trkpt>
      <trkpt lat="40.9732590" lon="-2.5171610">
        <ele>1123.0</ele>
        <time>2020-09-12T09:24:26Z</time>
      </trkpt>
      <trkpt lat="40.9732930" lon="-2.5171890">
        <ele>1123.2</ele>
        <time>2020-09-12T09:24:27Z</time>
      </trkpt>
      <trkpt lat="40.9733270" lon="-2.5172160">
        <ele>1123.4</ele>
        <time>2020-09-12T09:24:28Z</time>
      </trkpt>
      <trkpt lat="40.9733630" lon="-2.5172420">
        <ele>1123.6</ele>
        <time>2020-09-12T09:24:29Z</time>
      </trkpt>
      <trkpt lat="40.9733990" lon="-2.5172670">
        <ele>1124.0</ele>
        <time>2020-09-12T09:24:30Z</time>
      </trkpt>
      <trkpt lat="40.9734330" lon="-2.5172930">
        <ele>1124.2</ele>
        <time>2020-09-12T09:24:31Z</time>
      </trkpt>
      <trkpt lat="40.9734660" lon="-2.5173200">
        <ele>1124.6</ele>
        <time>2020-09-12T09:24:32Z</time>
      </trkpt>
      <trkpt lat="40.9734970" lon="-2.5173490">
        <ele>1124.8</ele>
        <time>2020-09-12T09:24:33Z</time>
      </trkpt>
      <trkpt lat="40.9735260" lon="-2.5173800">
        <ele>1125.2</ele>
        <time>2020-09-12T09:24:34Z</time>
      </trkpt>
      <trkpt lat="40.9736010" lon="-2.5174970">
        <ele>1125.4</ele>
        <time>2020-09-12T09:24:37Z</time>
      </trkpt>
      <trkpt lat="40.9736190" lon="-2.5175440">
        <ele>1125.6</ele>
        <time>2020-09-12T09:24:38Z</time>
      </trkpt>
      <trkpt lat="40.9736460" lon="-2.5176490">
        <ele>1126.4</ele>
        <time>2020-09-12T09:24:40Z</time>
      </trkpt>
      <trkpt lat="40.9736550" lon="-2.5177570">
        <ele>1126.8</ele>
        <time>2020-09-12T09:24:42Z</time>
      </trkpt>
      <trkpt lat="40.9736570" lon="-2.5180820">
        <ele>1127.8</ele>
        <time>2020-09-12T09:24:48Z</time>
      </trkpt>
      <trkpt lat="40.9736550" lon="-2.5182540">
        <ele>1128.0</ele>
        <time>2020-09-12T09:24:51Z</time>
      </trkpt>
      <trkpt lat="40.9736460" lon="-2.5183720">
        <ele>1128.2</ele>
        <time>2020-09-12T09:24:53Z</time>
      </trkpt>
      <trkpt lat="40.9736090" lon="-2.5185600">
        <ele>1128.4</ele>
        <time>2020-09-12T09:24:56Z</time>
      </trkpt>
      <trkpt lat="40.9735590" lon="-2.5186890">
        <ele>1128.2</ele>
        <time>2020-09-12T09:24:58Z</time>
      </trkpt>
      <trkpt lat="40.9734840" lon="-2.5187950">
        <ele>1127.6</ele>
        <time>2020-09-12T09:25:00Z</time>
      </trkpt>
      <trkpt lat="40.9734370" lon="-2.5188430">
        <ele>1127.2</ele>
        <time>2020-09-12T09:25:01Z</time>
      </trkpt>
      <trkpt lat="40.9733860" lon="-2.5188920">
        <ele>1127.0</ele>
        <time>2020-09-12T09:25:02Z</time>
      </trkpt>
      <trkpt lat="40.9733300" lon="-2.5189430">
        <ele>1126.8</ele>
        <time>2020-09-12T09:25:03Z</time>
      </trkpt>
      <trkpt lat="40.9732710" lon="-2.5189930">
        <ele>1126.6</ele>
        <time>2020-09-12T09:25:04Z</time>
      </trkpt>
      <trkpt lat="40.9732070" lon="-2.5190420">
        <ele>1126.2</ele>
        <time>2020-09-12T09:25:05Z</time>
      </trkpt>
      <trkpt lat="40.9731430" lon="-2.5190930">
        <ele>1126.0</ele>
        <time>2020-09-12T09:25:06Z</time>
      </trkpt>
      <trkpt lat="40.9730780" lon="-2.5191440">
        <ele>1125.8</ele>
        <time>2020-09-12T09:25:07Z</time>
      </trkpt>
      <trkpt lat="40.9730110" lon="-2.5191960">
        <ele>1125.6</ele>
        <time>2020-09-12T09:25:08Z</time>
      </trkpt>
      <trkpt lat="40.9729420" lon="-2.5192500">
        <ele>1125.2</ele>
        <time>2020-09-12T09:25:09Z</time>
      </trkpt>
      <trkpt lat="40.9728720" lon="-2.5193080">
        <ele>1124.8</ele>
        <time>2020-09-12T09:25:10Z</time>
      </trkpt>
      <trkpt lat="40.9728010" lon="-2.5193710">
        <ele>1124.4</ele>
        <time>2020-09-12T09:25:11Z</time>
      </trkpt>
      <trkpt lat="40.9727310" lon="-2.5194420">
        <ele>1123.8</ele>
        <time>2020-09-12T09:25:12Z</time>
      </trkpt>
      <trkpt lat="40.9726650" lon="-2.5195250">
        <ele>1123.0</ele>
        <time>2020-09-12T09:25:13Z</time>
      </trkpt>
      <trkpt lat="40.9726070" lon="-2.5196220">
        <ele>1122.4</ele>
        <time>2020-09-12T09:25:14Z</time>
      </trkpt>
      <trkpt lat="40.9725570" lon="-2.5197300">
        <ele>1121.6</ele>
        <time>2020-09-12T09:25:15Z</time>
      </trkpt>
      <trkpt lat="40.9725140" lon="-2.5198450">
        <ele>1120.8</ele>
        <time>2020-09-12T09:25:16Z</time>
      </trkpt>
      <trkpt lat="40.9724770" lon="-2.5199660">
        <ele>1120.2</ele>
        <time>2020-09-12T09:25:17Z</time>
      </trkpt>
      <trkpt lat="40.9724480" lon="-2.5200920">
        <ele>1119.6</ele>
        <time>2020-09-12T09:25:18Z</time>
      </trkpt>
      <trkpt lat="40.9724210" lon="-2.5202190">
        <ele>1119.2</ele>
        <time>2020-09-12T09:25:19Z</time>
      </trkpt>
      <trkpt lat="40.9723950" lon="-2.5203460">
        <ele>1119.0</ele>
        <time>2020-09-12T09:25:20Z</time>
      </trkpt>
      <trkpt lat="40.9723680" lon="-2.5204730">
        <ele>1118.8</ele>
        <time>2020-09-12T09:25:21Z</time>
      </trkpt>
      <trkpt lat="40.9723400" lon="-2.5206000">
        <ele>1118.2</ele>
        <time>2020-09-12T09:25:22Z</time>
      </trkpt>
      <trkpt lat="40.9723140" lon="-2.5207260">
        <ele>1117.4</ele>
        <time>2020-09-12T09:25:23Z</time>
      </trkpt>
      <trkpt lat="40.9722880" lon="-2.5208530">
        <ele>1116.8</ele>
        <time>2020-09-12T09:25:24Z</time>
      </trkpt>
      <trkpt lat="40.9722630" lon="-2.5209780">
        <ele>1116.4</ele>
        <time>2020-09-12T09:25:25Z</time>
      </trkpt>
      <trkpt lat="40.9722380" lon="-2.5211040">
        <ele>1115.8</ele>
        <time>2020-09-12T09:25:26Z</time>
      </trkpt>
      <trkpt lat="40.9722160" lon="-2.5212340">
        <ele>1115.2</ele>
        <time>2020-09-12T09:25:27Z</time>
      </trkpt>
      <trkpt lat="40.9721990" lon="-2.5213680">
        <ele>1114.6</ele>
        <time>2020-09-12T09:25:28Z</time>
      </trkpt>
      <trkpt lat="40.9721840" lon="-2.5215070">
        <ele>1114.0</ele>
        <time>2020-09-12T09:25:29Z</time>
      </trkpt>
      <trkpt lat="40.9721660" lon="-2.5216490">
        <ele>1113.2</ele>
        <time>2020-09-12T09:25:30Z</time>
      </trkpt>
      <trkpt lat="40.9721460" lon="-2.5217950">
        <ele>1112.6</ele>
        <time>2020-09-12T09:25:31Z</time>
      </trkpt>
      <trkpt lat="40.9721210" lon="-2.5219420">
        <ele>1111.6</ele>
        <time>2020-09-12T09:25:32Z</time>
      </trkpt>
      <trkpt lat="40.9720910" lon="-2.5220890">
        <ele>1111.0</ele>
        <time>2020-09-12T09:25:33Z</time>
      </trkpt>
      <trkpt lat="40.9720560" lon="-2.5222350">
        <ele>1110.4</ele>
        <time>2020-09-12T09:25:34Z</time>
      </trkpt>
      <trkpt lat="40.9720160" lon="-2.5223810">
        <ele>1109.8</ele>
        <time>2020-09-12T09:25:35Z</time>
      </trkpt>
      <trkpt lat="40.9719730" lon="-2.5225240">
        <ele>1108.8</ele>
        <time>2020-09-12T09:25:36Z</time>
      </trkpt>
      <trkpt lat="40.9719270" lon="-2.5226660">
        <ele>1107.8</ele>
        <time>2020-09-12T09:25:37Z</time>
      </trkpt>
      <trkpt lat="40.9718820" lon="-2.5228070">
        <ele>1107.0</ele>
        <time>2020-09-12T09:25:38Z</time>
      </trkpt>
      <trkpt lat="40.9718400" lon="-2.5229480">
        <ele>1106.4</ele>
        <time>2020-09-12T09:25:39Z</time>
      </trkpt>
      <trkpt lat="40.9717980" lon="-2.5230890">
        <ele>1106.0</ele>
        <time>2020-09-12T09:25:40Z</time>
      </trkpt>
      <trkpt lat="40.9717600" lon="-2.5232290">
        <ele>1105.8</ele>
        <time>2020-09-12T09:25:41Z</time>
      </trkpt>
      <trkpt lat="40.9717240" lon="-2.5233700">
        <ele>1105.4</ele>
        <time>2020-09-12T09:25:42Z</time>
      </trkpt>
      <trkpt lat="40.9716930" lon="-2.5235100">
        <ele>1105.2</ele>
        <time>2020-09-12T09:25:43Z</time>
      </trkpt>
      <trkpt lat="40.9716700" lon="-2.5236510">
        <ele>1104.8</ele>
        <time>2020-09-12T09:25:44Z</time>
      </trkpt>
      <trkpt lat="40.9716560" lon="-2.5237920">
        <ele>1104.6</ele>
        <time>2020-09-12T09:25:45Z</time>
      </trkpt>
      <trkpt lat="40.9716510" lon="-2.5239290">
        <ele>1104.4</ele>
        <time>2020-09-12T09:25:46Z</time>
      </trkpt>
      <trkpt lat="40.9716540" lon="-2.5240650">
        <ele>1104.2</ele>
        <time>2020-09-12T09:25:47Z</time>
      </trkpt>
      <trkpt lat="40.9716620" lon="-2.5241990">
        <ele>1104.0</ele>
        <time>2020-09-12T09:25:48Z</time>
      </trkpt>
      <trkpt lat="40.9716760" lon="-2.5243300">
        <ele>1103.6</ele>
        <time>2020-09-12T09:25:49Z</time>
      </trkpt>
      <trkpt lat="40.9716880" lon="-2.5244560">
        <ele>1103.2</ele>
        <time>2020-09-12T09:25:50Z</time>
      </trkpt>
      <trkpt lat="40.9716990" lon="-2.5245810">
        <ele>1103.0</ele>
        <time>2020-09-12T09:25:51Z</time>
      </trkpt>
      <trkpt lat="40.9717070" lon="-2.5247040">
        <ele>1102.8</ele>
        <time>2020-09-12T09:25:52Z</time>
      </trkpt>
      <trkpt lat="40.9717110" lon="-2.5248250">
        <ele>1102.8</ele>
        <time>2020-09-12T09:25:53Z</time>
      </trkpt>
      <trkpt lat="40.9717090" lon="-2.5249430">
        <ele>1102.8</ele>
        <time>2020-09-12T09:25:54Z</time>
      </trkpt>
      <trkpt lat="40.9716980" lon="-2.5250570">
        <ele>1102.8</ele>
        <time>2020-09-12T09:25:55Z</time>
      </trkpt>
      <trkpt lat="40.9716780" lon="-2.5251660">
        <ele>1102.8</ele>
        <time>2020-09-12T09:25:56Z</time>
      </trkpt>
      <trkpt lat="40.9716460" lon="-2.5252690">
        <ele>1102.6</ele>
        <time>2020-09-12T09:25:57Z</time>
      </trkpt>
      <trkpt lat="40.9716060" lon="-2.5253650">
        <ele>1102.6</ele>
        <time>2020-09-12T09:25:58Z</time>
      </trkpt>
      <trkpt lat="40.9715630" lon="-2.5254560">
        <ele>1102.6</ele>
        <time>2020-09-12T09:25:59Z</time>
      </trkpt>
      <trkpt lat="40.9715190" lon="-2.5255440">
        <ele>1102.6</ele>
        <time>2020-09-12T09:26:00Z</time>
      </trkpt>
      <trkpt lat="40.9714740" lon="-2.5256270">
        <ele>1102.6</ele>
        <time>2020-09-12T09:26:01Z</time>
      </trkpt>
      <trkpt lat="40.9714290" lon="-2.5257060">
        <ele>1102.6</ele>
        <time>2020-09-12T09:26:02Z</time>
      </trkpt>
      <trkpt lat="40.9713850" lon="-2.5257820">
        <ele>1102.8</ele>
        <time>2020-09-12T09:26:03Z</time>
      </trkpt>
      <trkpt lat="40.9713420" lon="-2.5258580">
        <ele>1102.8</ele>
        <time>2020-09-12T09:26:04Z</time>
      </trkpt>
      <trkpt lat="40.9712990" lon="-2.5259330">
        <ele>1103.0</ele>
        <time>2020-09-12T09:26:05Z</time>
      </trkpt>
      <trkpt lat="40.9712550" lon="-2.5260050">
        <ele>1103.2</ele>
        <time>2020-09-12T09:26:06Z</time>
      </trkpt>
      <trkpt lat="40.9712150" lon="-2.5260770">
        <ele>1103.4</ele>
        <time>2020-09-12T09:26:07Z</time>
      </trkpt>
      <trkpt lat="40.9711770" lon="-2.5261490">
        <ele>1103.4</ele>
        <time>2020-09-12T09:26:08Z</time>
      </trkpt>
      <trkpt lat="40.9711410" lon="-2.5262190">
        <ele>1103.6</ele>
        <time>2020-09-12T09:26:09Z</time>
      </trkpt>
      <trkpt lat="40.9711070" lon="-2.5262900">
        <ele>1103.6</ele>
        <time>2020-09-12T09:26:10Z</time>
      </trkpt>
      <trkpt lat="40.9710790" lon="-2.5263610">
        <ele>1103.8</ele>
        <time>2020-09-12T09:26:11Z</time>
      </trkpt>
      <trkpt lat="40.9710560" lon="-2.5264340">
        <ele>1103.8</ele>
        <time>2020-09-12T09:26:12Z</time>
      </trkpt>
      <trkpt lat="40.9710340" lon="-2.5265020">
        <ele>1103.8</ele>
        <time>2020-09-12T09:26:13Z</time>
      </trkpt>
      <trkpt lat="40.9710150" lon="-2.5265720">
        <ele>1104.0</ele>
        <time>2020-09-12T09:26:14Z</time>
      </trkpt>
      <trkpt lat="40.9710020" lon="-2.5266420">
        <ele>1104.2</ele>
        <time>2020-09-12T09:26:15Z</time>
      </trkpt>
      <trkpt lat="40.9709900" lon="-2.5267110">
        <ele>1104.2</ele>
        <time>2020-09-12T09:26:16Z</time>
      </trkpt>
      <trkpt lat="40.9709770" lon="-2.5267780">
        <ele>1104.2</ele>
        <time>2020-09-12T09:26:17Z</time>
      </trkpt>
      <trkpt lat="40.9709600" lon="-2.5268440">
        <ele>1104.2</ele>
        <time>2020-09-12T09:26:18Z</time>
      </trkpt>
      <trkpt lat="40.9709360" lon="-2.5269050">
        <ele>1104.2</ele>
        <time>2020-09-12T09:26:19Z</time>
      </trkpt>
      <trkpt lat="40.9709060" lon="-2.5269590">
        <ele>1104.4</ele>
        <time>2020-09-12T09:26:20Z</time>
      </trkpt>
      <trkpt lat="40.9708740" lon="-2.5270120">
        <ele>1104.4</ele>
        <time>2020-09-12T09:26:21Z</time>
      </trkpt>
      <trkpt lat="40.9708430" lon="-2.5270620">
        <ele>1104.6</ele>
        <time>2020-09-12T09:26:22Z</time>
      </trkpt>
      <trkpt lat="40.9708180" lon="-2.5271160">
        <ele>1104.6</ele>
        <time>2020-09-12T09:26:23Z</time>
      </trkpt>
      <trkpt lat="40.9708040" lon="-2.5271760">
        <ele>1105.0</ele>
        <time>2020-09-12T09:26:24Z</time>
      </trkpt>
      <trkpt lat="40.9707990" lon="-2.5272360">
        <ele>1105.2</ele>
        <time>2020-09-12T09:26:25Z</time>
      </trkpt>
      <trkpt lat="40.9707970" lon="-2.5272940">
        <ele>1105.4</ele>
        <time>2020-09-12T09:26:26Z</time>
      </trkpt>
      <trkpt lat="40.9707990" lon="-2.5273510">
        <ele>1105.4</ele>
        <time>2020-09-12T09:26:27Z</time>
      </trkpt>
      <trkpt lat="40.9708070" lon="-2.5274050">
        <ele>1105.6</ele>
        <time>2020-09-12T09:26:28Z</time>
      </trkpt>
      <trkpt lat="40.9708180" lon="-2.5274570">
        <ele>1105.8</ele>
        <time>2020-09-12T09:26:29Z</time>
      </trkpt>
      <trkpt lat="40.9708300" lon="-2.5275100">
        <ele>1106.0</ele>
        <time>2020-09-12T09:26:30Z</time>
      </trkpt>
      <trkpt lat="40.9708420" lon="-2.5275650">
        <ele>1106.0</ele>
        <time>2020-09-12T09:26:31Z</time>
      </trkpt>
      <trkpt lat="40.9708640" lon="-2.5276140">
        <ele>1106.2</ele>
        <time>2020-09-12T09:26:32Z</time>
      </trkpt>
      <trkpt lat="40.9708780" lon="-2.5276670">
        <ele>1106.4</ele>
        <time>2020-09-12T09:26:33Z</time>
      </trkpt>
      <trkpt lat="40.9708910" lon="-2.5277220">
        <ele>1106.6</ele>
        <time>2020-09-12T09:26:34Z</time>
      </trkpt>
      <trkpt lat="40.9709010" lon="-2.5277770">
        <ele>1107.0</ele>
        <time>2020-09-12T09:26:35Z</time>
      </trkpt>
      <trkpt lat="40.9709130" lon="-2.5278330">
        <ele>1107.2</ele>
        <time>2020-09-12T09:26:36Z</time>
      </trkpt>
      <trkpt lat="40.9709270" lon="-2.5278880">
        <ele>1107.4</ele>
        <time>2020-09-12T09:26:37Z</time>
      </trkpt>
      <trkpt lat="40.9709400" lon="-2.5279420">
        <ele>1107.6</ele>
        <time>2020-09-12T09:26:38Z</time>
      </trkpt>
      <trkpt lat="40.9709510" lon="-2.5279980">
        <ele>1107.8</ele>
        <time>2020-09-12T09:26:39Z</time>
      </trkpt>
      <trkpt lat="40.9709630" lon="-2.5280550">
        <ele>1108.0</ele>
        <time>2020-09-12T09:26:40Z</time>
      </trkpt>
      <trkpt lat="40.9709720" lon="-2.5281160">
        <ele>1108.4</ele>
        <time>2020-09-12T09:26:41Z</time>
      </trkpt>
      <trkpt lat="40.9709750" lon="-2.5281770">
        <ele>1108.8</ele>
        <time>2020-09-12T09:26:42Z</time>
      </trkpt>
      <trkpt lat="40.9709770" lon="-2.5282340">
        <ele>1109.2</ele>
        <time>2020-09-12T09:26:43Z</time>
      </trkpt>
      <trkpt lat="40.9709860" lon="-2.5282900">
        <ele>1109.6</ele>
        <time>2020-09-12T09:26:44Z</time>
      </trkpt>
      <trkpt lat="40.9710010" lon="-2.5283420">
        <ele>1109.8</ele>
        <time>2020-09-12T09:26:45Z</time>
      </trkpt>
      <trkpt lat="40.9710170" lon="-2.5283940">
        <ele>1109.8</ele>
        <time>2020-09-12T09:26:46Z</time>
      </trkpt>
      <trkpt lat="40.9710330" lon="-2.5284460">
        <ele>1110.0</ele>
        <time>2020-09-12T09:26:47Z</time>
      </trkpt>
      <trkpt lat="40.9710510" lon="-2.5284980">
        <ele>1110.2</ele>
        <time>2020-09-12T09:26:48Z</time>
      </trkpt>
      <trkpt lat="40.9710650" lon="-2.5285500">
        <ele>1110.4</ele>
        <time>2020-09-12T09:26:49Z</time>
      </trkpt>
      <trkpt lat="40.9710730" lon="-2.5286000">
        <ele>1110.6</ele>
        <time>2020-09-12T09:26:50Z</time>
      </trkpt>
      <trkpt lat="40.9710760" lon="-2.5286500">
        <ele>1110.8</ele>
        <time>2020-09-12T09:26:51Z</time>
      </trkpt>
      <trkpt lat="40.9710750" lon="-2.5286980">
        <ele>1110.8</ele>
        <time>2020-09-12T09:26:52Z</time>
      </trkpt>
      <trkpt lat="40.9710760" lon="-2.5287440">
        <ele>1111.0</ele>
        <time>2020-09-12T09:26:53Z</time>
      </trkpt>
      <trkpt lat="40.9710770" lon="-2.5287880">
        <ele>1111.2</ele>
        <time>2020-09-12T09:26:54Z</time>
      </trkpt>
      <trkpt lat="40.9710760" lon="-2.5288310">
        <ele>1111.6</ele>
        <time>2020-09-12T09:26:55Z</time>
      </trkpt>
      <trkpt lat="40.9710740" lon="-2.5288730">
        <ele>1112.0</ele>
        <time>2020-09-12T09:26:56Z</time>
      </trkpt>
      <trkpt lat="40.9710720" lon="-2.5289160">
        <ele>1112.2</ele>
        <time>2020-09-12T09:26:57Z</time>
      </trkpt>
      <trkpt lat="40.9710750" lon="-2.5289590">
        <ele>1112.4</ele>
        <time>2020-09-12T09:26:58Z</time>
      </trkpt>
      <trkpt lat="40.9710810" lon="-2.5289990">
        <ele>1112.8</ele>
        <time>2020-09-12T09:26:59Z</time>
      </trkpt>
      <trkpt lat="40.9710880" lon="-2.5290360">
        <ele>1113.0</ele>
        <time>2020-09-12T09:27:00Z</time>
      </trkpt>
      <trkpt lat="40.9710950" lon="-2.5290720">
        <ele>1113.2</ele>
        <time>2020-09-12T09:27:01Z</time>
      </trkpt>
      <trkpt lat="40.9711000" lon="-2.5291080">
        <ele>1113.4</ele>
        <time>2020-09-12T09:27:02Z</time>
      </trkpt>
      <trkpt lat="40.9711020" lon="-2.5291460">
        <ele>1113.6</ele>
        <time>2020-09-12T09:27:03Z</time>
      </trkpt>
      <trkpt lat="40.9711050" lon="-2.5291820">
        <ele>1114.0</ele>
        <time>2020-09-12T09:27:04Z</time>
      </trkpt>
      <trkpt lat="40.9711110" lon="-2.5292200">
        <ele>1114.2</ele>
        <time>2020-09-12T09:27:05Z</time>
      </trkpt>
      <trkpt lat="40.9711180" lon="-2.5292580">
        <ele>1114.4</ele>
        <time>2020-09-12T09:27:06Z</time>
      </trkpt>
      <trkpt lat="40.9711210" lon="-2.5292980">
        <ele>1114.6</ele>
        <time>2020-09-12T09:27:07Z</time>
      </trkpt>
      <trkpt lat="40.9711240" lon="-2.5293360">
        <ele>1115.0</ele>
        <time>2020-09-12T09:27:08Z</time>
      </trkpt>
      <trkpt lat="40.9711300" lon="-2.5293740">
        <ele>1115.2</ele>
        <time>2020-09-12T09:27:09Z</time>
      </trkpt>
      <trkpt lat="40.9711470" lon="-2.5294150">
        <ele>1115.6</ele>
        <time>2020-09-12T09:27:10Z</time>
      </trkpt>
      <trkpt lat="40.9711690" lon="-2.5294530">
        <ele>1116.0</ele>
        <time>2020-09-12T09:27:11Z</time>
      </trkpt>
      <trkpt lat="40.9711940" lon="-2.5294870">
        <ele>1116.4</ele>
        <time>2020-09-12T09:27:12Z</time>
      </trkpt>
      <trkpt lat="40.9712210" lon="-2.5295150">
        <ele>1116.6</ele>
        <time>2020-09-12T09:27:13Z</time>
      </trkpt>
      <trkpt lat="40.9712510" lon="-2.5295410">
        <ele>1116.8</ele>
        <time>2020-09-12T09:27:14Z</time>
      </trkpt>
      <trkpt lat="40.9712790" lon="-2.5295650">
        <ele>1116.8</ele>
        <time>2020-09-12T09:27:15Z</time>
      </trkpt>
      <trkpt lat="40.9713080" lon="-2.5295890">
        <ele>1116.8</ele>
        <time>2020-09-12T09:27:16Z</time>
      </trkpt>
      <trkpt lat="40.9713380" lon="-2.5296120">
        <ele>1116.8</ele>
        <time>2020-09-12T09:27:17Z</time>
      </trkpt>
      <trkpt lat="40.9713710" lon="-2.5296390">
        <ele>1116.8</ele>
        <time>2020-09-12T09:27:18Z</time>
      </trkpt>
      <trkpt lat="40.9714050" lon="-2.5296710">
        <ele>1116.8</ele>
        <time>2020-09-12T09:27:19Z</time>
      </trkpt>
      <trkpt lat="40.9714370" lon="-2.5297100">
        <ele>1116.6</ele>
        <time>2020-09-12T09:27:20Z</time>
      </trkpt>
      <trkpt lat="40.9714620" lon="-2.5297580">
        <ele>1116.4</ele>
        <time>2020-09-12T09:27:21Z</time>
      </trkpt>
      <trkpt lat="40.9714820" lon="-2.5298160">
        <ele>1116.2</ele>
        <time>2020-09-12T09:27:22Z</time>
      </trkpt>
      <trkpt lat="40.9714950" lon="-2.5298850">
        <ele>1116.0</ele>
        <time>2020-09-12T09:27:23Z</time>
      </trkpt>
      <trkpt lat="40.9715040" lon="-2.5299610">
        <ele>1115.6</ele>
        <time>2020-09-12T09:27:24Z</time>
      </trkpt>
      <trkpt lat="40.9715150" lon="-2.5300430">
        <ele>1115.4</ele>
        <time>2020-09-12T09:27:25Z</time>
      </trkpt>
      <trkpt lat="40.9715270" lon="-2.5301300">
        <ele>1115.2</ele>
        <time>2020-09-12T09:27:26Z</time>
      </trkpt>
      <trkpt lat="40.9715400" lon="-2.5302230">
        <ele>1115.0</ele>
        <time>2020-09-12T09:27:27Z</time>
      </trkpt>
      <trkpt lat="40.9715530" lon="-2.5303210">
        <ele>1114.8</ele>
        <time>2020-09-12T09:27:28Z</time>
      </trkpt>
      <trkpt lat="40.9715680" lon="-2.5304220">
        <ele>1114.4</ele>
        <time>2020-09-12T09:27:29Z</time>
      </trkpt>
      <trkpt lat="40.9715840" lon="-2.5305270">
        <ele>1114.2</ele>
        <time>2020-09-12T09:27:30Z</time>
      </trkpt>
      <trkpt lat="40.9716010" lon="-2.5306360">
        <ele>1113.8</ele>
        <time>2020-09-12T09:27:31Z</time>
      </trkpt>
      <trkpt lat="40.9716170" lon="-2.5307470">
        <ele>1113.6</ele>
        <time>2020-09-12T09:27:32Z</time>
      </trkpt>
      <trkpt lat="40.9716350" lon="-2.5308610">
        <ele>1113.4</ele>
        <time>2020-09-12T09:27:33Z</time>
      </trkpt>
      <trkpt lat="40.9716540" lon="-2.5309760">
        <ele>1113.0</ele>
        <time>2020-09-12T09:27:34Z</time>
      </trkpt>
      <trkpt lat="40.9716730" lon="-2.5310940">
        <ele>1112.4</ele>
        <time>2020-09-12T09:27:35Z</time>
      </trkpt>
      <trkpt lat="40.9716920" lon="-2.5312150">
        <ele>1112.0</ele>
        <time>2020-09-12T09:27:36Z</time>
      </trkpt>
      <trkpt lat="40.9717110" lon="-2.5313380">
        <ele>1111.6</ele>
        <time>2020-09-12T09:27:37Z</time>
      </trkpt>
      <trkpt lat="40.9717320" lon="-2.5314620">
        <ele>1111.2</ele>
        <time>2020-09-12T09:27:38Z</time>
      </trkpt>
      <trkpt lat="40.9717530" lon="-2.5315880">
        <ele>1110.8</ele>
        <time>2020-09-12T09:27:39Z</time>
      </trkpt>
      <trkpt lat="40.9717740" lon="-2.5317150">
        <ele>1110.2</ele>
        <time>2020-09-12T09:27:40Z</time>
      </trkpt>
      <trkpt lat="40.9717950" lon="-2.5318420">
        <ele>1109.8</ele>
        <time>2020-09-12T09:27:41Z</time>
      </trkpt>
      <trkpt lat="40.9718160" lon="-2.5319720">
        <ele>1109.2</ele>
        <time>2020-09-12T09:27:42Z</time>
      </trkpt>
      <trkpt lat="40.9718370" lon="-2.5321020">
        <ele>1108.6</ele>
        <time>2020-09-12T09:27:43Z</time>
      </trkpt>
      <trkpt lat="40.9718560" lon="-2.5322330">
        <ele>1108.2</ele>
        <time>2020-09-12T09:27:44Z</time>
      </trkpt>
      <trkpt lat="40.9718730" lon="-2.5323650">
        <ele>1107.8</ele>
        <time>2020-09-12T09:27:45Z</time>
      </trkpt>
      <trkpt lat="40.9718860" lon="-2.5324970">
        <ele>1107.4</ele>
        <time>2020-09-12T09:27:46Z</time>
      </trkpt>
      <trkpt lat="40.9718960" lon="-2.5326290">
        <ele>1107.2</ele>
        <time>2020-09-12T09:27:47Z</time>
      </trkpt>
      <trkpt lat="40.9719030" lon="-2.5327610">
        <ele>1106.8</ele>
        <time>2020-09-12T09:27:48Z</time>
      </trkpt>
      <trkpt lat="40.9719090" lon="-2.5328910">
        <ele>1106.6</ele>
        <time>2020-09-12T09:27:49Z</time>
      </trkpt>
      <trkpt lat="40.9719150" lon="-2.5330210">
        <ele>1106.2</ele>
        <time>2020-09-12T09:27:50Z</time>
      </trkpt>
      <trkpt lat="40.9719200" lon="-2.5331490">
        <ele>1106.0</ele>
        <time>2020-09-12T09:27:51Z</time>
      </trkpt>
      <trkpt lat="40.9719260" lon="-2.5332760">
        <ele>1105.6</ele>
        <time>2020-09-12T09:27:52Z</time>
      </trkpt>
      <trkpt lat="40.9719310" lon="-2.5334020">
        <ele>1105.4</ele>
        <time>2020-09-12T09:27:53Z</time>
      </trkpt>
      <trkpt lat="40.9719340" lon="-2.5335270">
        <ele>1105.2</ele>
        <time>2020-09-12T09:27:54Z</time>
      </trkpt>
      <trkpt lat="40.9719370" lon="-2.5336520">
        <ele>1105.0</ele>
        <time>2020-09-12T09:27:55Z</time>
      </trkpt>
      <trkpt lat="40.9719390" lon="-2.5337750">
        <ele>1104.8</ele>
        <time>2020-09-12T09:27:56Z</time>
      </trkpt>
      <trkpt lat="40.9719430" lon="-2.5338960">
        <ele>1104.8</ele>
        <time>2020-09-12T09:27:57Z</time>
      </trkpt>
      <trkpt lat="40.9719500" lon="-2.5340150">
        <ele>1104.6</ele>
        <time>2020-09-12T09:27:58Z</time>
      </trkpt>
      <trkpt lat="40.9719560" lon="-2.5341330">
        <ele>1104.4</ele>
        <time>2020-09-12T09:27:59Z</time>
      </trkpt>
      <trkpt lat="40.9719620" lon="-2.5342500">
        <ele>1104.4</ele>
        <time>2020-09-12T09:28:00Z</time>
      </trkpt>
      <trkpt lat="40.9719660" lon="-2.5343650">
        <ele>1104.2</ele>
        <time>2020-09-12T09:28:01Z</time>
      </trkpt>
      <trkpt lat="40.9719690" lon="-2.5344770">
        <ele>1104.2</ele>
        <time>2020-09-12T09:28:02Z</time>
      </trkpt>
      <trkpt lat="40.9719730" lon="-2.5345870">
        <ele>1104.2</ele>
        <time>2020-09-12T09:28:03Z</time>
      </trkpt>
      <trkpt lat="40.9719760" lon="-2.5346950">
        <ele>1104.2</ele>
        <time>2020-09-12T09:28:04Z</time>
      </trkpt>
      <trkpt lat="40.9719800" lon="-2.5348010">
        <ele>1104.2</ele>
        <time>2020-09-12T09:28:05Z</time>
      </trkpt>
      <trkpt lat="40.9719830" lon="-2.5349050">
        <ele>1104.2</ele>
        <time>2020-09-12T09:28:06Z</time>
      </trkpt>
      <trkpt lat="40.9719870" lon="-2.5350080">
        <ele>1104.2</ele>
        <time>2020-09-12T09:28:07Z</time>
      </trkpt>
      <trkpt lat="40.9719910" lon="-2.5351110">
        <ele>1104.4</ele>
        <time>2020-09-12T09:28:08Z</time>
      </trkpt>
      <trkpt lat="40.9719940" lon="-2.5352120">
        <ele>1104.6</ele>
        <time>2020-09-12T09:28:09Z</time>
      </trkpt>
      <trkpt lat="40.9719960" lon="-2.5353100">
        <ele>1104.8</ele>
        <time>2020-09-12T09:28:10Z</time>
      </trkpt>
      <trkpt lat="40.9719980" lon="-2.5354090">
        <ele>1105.0</ele>
        <time>2020-09-12T09:28:11Z</time>
      </trkpt>
      <trkpt lat="40.9720000" lon="-2.5355050">
        <ele>1105.0</ele>
        <time>2020-09-12T09:28:12Z</time>
      </trkpt>
      <trkpt lat="40.9720010" lon="-2.5356000">
        <ele>1105.0</ele>
        <time>2020-09-12T09:28:13Z</time>
      </trkpt>
      <trkpt lat="40.9720010" lon="-2.5356920">
        <ele>1105.2</ele>
        <time>2020-09-12T09:28:14Z</time>
      </trkpt>
      <trkpt lat="40.9720020" lon="-2.5357810">
        <ele>1105.2</ele>
        <time>2020-09-12T09:28:15Z</time>
      </trkpt>
      <trkpt lat="40.9720040" lon="-2.5358700">
        <ele>1105.2</ele>
        <time>2020-09-12T09:28:16Z</time>
      </trkpt>
      <trkpt lat="40.9720060" lon="-2.5359560">
        <ele>1105.2</ele>
        <time>2020-09-12T09:28:17Z</time>
      </trkpt>
      <trkpt lat="40.9720050" lon="-2.5360400">
        <ele>1105.2</ele>
        <time>2020-09-12T09:28:18Z</time>
      </trkpt>
      <trkpt lat="40.9720030" lon="-2.5361230">
        <ele>1105.0</ele>
        <time>2020-09-12T09:28:19Z</time>
      </trkpt>
      <trkpt lat="40.9720020" lon="-2.5362050">
        <ele>1105.0</ele>
        <time>2020-09-12T09:28:20Z</time>
      </trkpt>
      <trkpt lat="40.9720020" lon="-2.5362860">
        <ele>1105.0</ele>
        <time>2020-09-12T09:28:21Z</time>
      </trkpt>
      <trkpt lat="40.9720010" lon="-2.5363670">
        <ele>1105.0</ele>
        <time>2020-09-12T09:28:22Z</time>
      </trkpt>
      <trkpt lat="40.9719980" lon="-2.5364500">
        <ele>1105.0</ele>
        <time>2020-09-12T09:28:23Z</time>
      </trkpt>
      <trkpt lat="40.9719950" lon="-2.5365320">
        <ele>1105.0</ele>
        <time>2020-09-12T09:28:24Z</time>
      </trkpt>
      <trkpt lat="40.9719930" lon="-2.5366150">
        <ele>1105.2</ele>
        <time>2020-09-12T09:28:25Z</time>
      </trkpt>
      <trkpt lat="40.9719920" lon="-2.5366980">
        <ele>1105.4</ele>
        <time>2020-09-12T09:28:26Z</time>
      </trkpt>
      <trkpt lat="40.9719900" lon="-2.5367810">
        <ele>1105.6</ele>
        <time>2020-09-12T09:28:27Z</time>
      </trkpt>
      <trkpt lat="40.9719890" lon="-2.5368630">
        <ele>1105.8</ele>
        <time>2020-09-12T09:28:28Z</time>
      </trkpt>
      <trkpt lat="40.9719860" lon="-2.5369460">
        <ele>1106.0</ele>
        <time>2020-09-12T09:28:29Z</time>
      </trkpt>
      <trkpt lat="40.9719840" lon="-2.5370280">
        <ele>1106.0</ele>
        <time>2020-09-12T09:28:30Z</time>
      </trkpt>
      <trkpt lat="40.9719810" lon="-2.5371130">
        <ele>1106.2</ele>
        <time>2020-09-12T09:28:31Z</time>
      </trkpt>
      <trkpt lat="40.9719780" lon="-2.5371990">
        <ele>1106.2</ele>
        <time>2020-09-12T09:28:32Z</time>
      </trkpt>
      <trkpt lat="40.9719760" lon="-2.5372860">
        <ele>1106.2</ele>
        <time>2020-09-12T09:28:33Z</time>
      </trkpt>
      <trkpt lat="40.9719730" lon="-2.5373730">
        <ele>1106.4</ele>
        <time>2020-09-12T09:28:34Z</time>
      </trkpt>
      <trkpt lat="40.9719710" lon="-2.5374600">
        <ele>1106.4</ele>
        <time>2020-09-12T09:28:35Z</time>
      </trkpt>
      <trkpt lat="40.9719680" lon="-2.5375480">
        <ele>1106.4</ele>
        <time>2020-09-12T09:28:36Z</time>
      </trkpt>
      <trkpt lat="40.9719650" lon="-2.5376370">
        <ele>1106.4</ele>
        <time>2020-09-12T09:28:37Z</time>
      </trkpt>
      <trkpt lat="40.9719630" lon="-2.5377260">
        <ele>1106.6</ele>
        <time>2020-09-12T09:28:38Z</time>
      </trkpt>
      <trkpt lat="40.9719630" lon="-2.5378150">
        <ele>1106.6</ele>
        <time>2020-09-12T09:28:39Z</time>
      </trkpt>
      <trkpt lat="40.9719630" lon="-2.5379040">
        <ele>1106.6</ele>
        <time>2020-09-12T09:28:40Z</time>
      </trkpt>
      <trkpt lat="40.9719600" lon="-2.5379920">
        <ele>1106.8</ele>
        <time>2020-09-12T09:28:41Z</time>
      </trkpt>
      <trkpt lat="40.9719570" lon="-2.5380790">
        <ele>1106.8</ele>
        <time>2020-09-12T09:28:42Z</time>
      </trkpt>
      <trkpt lat="40.9719550" lon="-2.5381650">
        <ele>1107.0</ele>
        <time>2020-09-12T09:28:43Z</time>
      </trkpt>
      <trkpt lat="40.9719520" lon="-2.5382500">
        <ele>1107.0</ele>
        <time>2020-09-12T09:28:44Z</time>
      </trkpt>
      <trkpt lat="40.9719500" lon="-2.5383340">
        <ele>1107.2</ele>
        <time>2020-09-12T09:28:45Z</time>
      </trkpt>
      <trkpt lat="40.9719490" lon="-2.5384160">
        <ele>1107.6</ele>
        <time>2020-09-12T09:28:46Z</time>
      </trkpt>
      <trkpt lat="40.9719480" lon="-2.5384970">
        <ele>1107.8</ele>
        <time>2020-09-12T09:28:47Z</time>
      </trkpt>
      <trkpt lat="40.9719470" lon="-2.5385770">
        <ele>1108.0</ele>
        <time>2020-09-12T09:28:48Z</time>
      </trkpt>
      <trkpt lat="40.9719470" lon="-2.5386550">
        <ele>1108.2</ele>
        <time>2020-09-12T09:28:49Z</time>
      </trkpt>
      <trkpt lat="40.9719460" lon="-2.5387310">
        <ele>1108.2</ele>
        <time>2020-09-12T09:28:50Z</time>
      </trkpt>
      <trkpt lat="40.9719440" lon="-2.5388060">
        <ele>1108.2</ele>
        <time>2020-09-12T09:28:51Z</time>
      </trkpt>
      <trkpt lat="40.9719420" lon="-2.5388810">
        <ele>1108.4</ele>
        <time>2020-09-12T09:28:52Z</time>
      </trkpt>
      <trkpt lat="40.9719400" lon="-2.5389550">
        <ele>1108.6</ele>
        <time>2020-09-12T09:28:53Z</time>
      </trkpt>
      <trkpt lat="40.9719370" lon="-2.5390280">
        <ele>1109.0</ele>
        <time>2020-09-12T09:28:54Z</time>
      </trkpt>
      <trkpt lat="40.9719360" lon="-2.5391010">
        <ele>1109.4</ele>
        <time>2020-09-12T09:28:55Z</time>
      </trkpt>
      <trkpt lat="40.9719350" lon="-2.5391740">
        <ele>1109.8</ele>
        <time>2020-09-12T09:28:56Z</time>
      </trkpt>
      <trkpt lat="40.9719340" lon="-2.5392450">
        <ele>1110.0</ele>
        <time>2020-09-12T09:28:57Z</time>
      </trkpt>
      <trkpt lat="40.9719310" lon="-2.5393160">
        <ele>1110.4</ele>
        <time>2020-09-12T09:28:58Z</time>
      </trkpt>
      <trkpt lat="40.9719280" lon="-2.5393850">
        <ele>1110.6</ele>
        <time>2020-09-12T09:28:59Z</time>
      </trkpt>
      <trkpt lat="40.9719270" lon="-2.5394530">
        <ele>1110.8</ele>
        <time>2020-09-12T09:29:00Z</time>
      </trkpt>
      <trkpt lat="40.9719230" lon="-2.5395210">
        <ele>1111.0</ele>
        <time>2020-09-12T09:29:01Z</time>
      </trkpt>
      <trkpt lat="40.9719200" lon="-2.5395880">
        <ele>1111.4</ele>
        <time>2020-09-12T09:29:02Z</time>
      </trkpt>
      <trkpt lat="40.9719170" lon="-2.5396560">
        <ele>1111.8</ele>
        <time>2020-09-12T09:29:03Z</time>
      </trkpt>
      <trkpt lat="40.9719140" lon="-2.5397230">
        <ele>1112.0</ele>
        <time>2020-09-12T09:29:04Z</time>
      </trkpt>
      <trkpt lat="40.9719100" lon="-2.5397900">
        <ele>1112.4</ele>
        <time>2020-09-12T09:29:05Z</time>
      </trkpt>
      <trkpt lat="40.9719080" lon="-2.5398570">
        <ele>1112.6</ele>
        <time>2020-09-12T09:29:06Z</time>
      </trkpt>
      <trkpt lat="40.9719070" lon="-2.5399220">
        <ele>1112.8</ele>
        <time>2020-09-12T09:29:07Z</time>
      </trkpt>
      <trkpt lat="40.9719060" lon="-2.5399860">
        <ele>1113.0</ele>
        <time>2020-09-12T09:29:08Z</time>
      </trkpt>
      <trkpt lat="40.9719030" lon="-2.5400480">
        <ele>1113.4</ele>
        <time>2020-09-12T09:29:09Z</time>
      </trkpt>
      <trkpt lat="40.9719030" lon="-2.5401090">
        <ele>1114.0</ele>
        <time>2020-09-12T09:29:10Z</time>
      </trkpt>
      <trkpt lat="40.9719010" lon="-2.5401680">
        <ele>1114.2</ele>
        <time>2020-09-12T09:29:11Z</time>
      </trkpt>
      <trkpt lat="40.9719010" lon="-2.5402250">
        <ele>1114.6</ele>
        <time>2020-09-12T09:29:12Z</time>
      </trkpt>
      <trkpt lat="40.9719010" lon="-2.5402800">
        <ele>1114.8</ele>
        <time>2020-09-12T09:29:13Z</time>
      </trkpt>
      <trkpt lat="40.9719000" lon="-2.5403340">
        <ele>1115.0</ele>
        <time>2020-09-12T09:29:14Z</time>
      </trkpt>
      <trkpt lat="40.9718980" lon="-2.5403870">
        <ele>1115.2</ele>
        <time>2020-09-12T09:29:15Z</time>
      </trkpt>
      <trkpt lat="40.9718970" lon="-2.5404440">
        <ele>1115.4</ele>
        <time>2020-09-12T09:29:16Z</time>
      </trkpt>
      <trkpt lat="40.9718950" lon="-2.5405030">
        <ele>1115.6</ele>
        <time>2020-09-12T09:29:17Z</time>
      </trkpt>
      <trkpt lat="40.9718920" lon="-2.5405630">
        <ele>1115.8</ele>
        <time>2020-09-12T09:29:18Z</time>
      </trkpt>
      <trkpt lat="40.9718890" lon="-2.5406220">
        <ele>1116.2</ele>
        <time>2020-09-12T09:29:19Z</time>
      </trkpt>
      <trkpt lat="40.9718860" lon="-2.5406810">
        <ele>1116.6</ele>
        <time>2020-09-12T09:29:20Z</time>
      </trkpt>
      <trkpt lat="40.9718840" lon="-2.5407370">
        <ele>1117.0</ele>
        <time>2020-09-12T09:29:21Z</time>
      </trkpt>
      <trkpt lat="40.9718820" lon="-2.5407900">
        <ele>1117.2</ele>
        <time>2020-09-12T09:29:22Z</time>
      </trkpt>
      <trkpt lat="40.9718820" lon="-2.5408430">
        <ele>1117.4</ele>
        <time>2020-09-12T09:29:23Z</time>
      </trkpt>
      <trkpt lat="40.9718810" lon="-2.5408970">
        <ele>1117.6</ele>
        <time>2020-09-12T09:29:24Z</time>
      </trkpt>
      <trkpt lat="40.9718810" lon="-2.5409510">
        <ele>1117.8</ele>
        <time>2020-09-12T09:29:25Z</time>
      </trkpt>
      <trkpt lat="40.9718790" lon="-2.5410060">
        <ele>1118.0</ele>
        <time>2020-09-12T09:29:26Z</time>
      </trkpt>
      <trkpt lat="40.9718770" lon="-2.5410610">
        <ele>1118.0</ele>
        <time>2020-09-12T09:29:27Z</time>
      </trkpt>
      <trkpt lat="40.9718750" lon="-2.5411150">
        <ele>1118.2</ele>
        <time>2020-09-12T09:29:28Z</time>
      </trkpt>
      <trkpt lat="40.9718750" lon="-2.5411670">
        <ele>1118.4</ele>
        <time>2020-09-12T09:29:29Z</time>
      </trkpt>
      <trkpt lat="40.9718750" lon="-2.5412190">
        <ele>1118.8</ele>
        <time>2020-09-12T09:29:30Z</time>
      </trkpt>
      <trkpt lat="40.9718740" lon="-2.5412720">
        <ele>1119.0</ele>
        <time>2020-09-12T09:29:31Z</time>
      </trkpt>
      <trkpt lat="40.9718740" lon="-2.5413250">
        <ele>1119.2</ele>
        <time>2020-09-12T09:29:32Z</time>
      </trkpt>
      <trkpt lat="40.9718720" lon="-2.5413770">
        <ele>1119.4</ele>
        <time>2020-09-12T09:29:33Z</time>
      </trkpt>
      <trkpt lat="40.9718710" lon="-2.5414290">
        <ele>1119.6</ele>
        <time>2020-09-12T09:29:34Z</time>
      </trkpt>
      <trkpt lat="40.9718700" lon="-2.5414810">
        <ele>1120.0</ele>
        <time>2020-09-12T09:29:35Z</time>
      </trkpt>
      <trkpt lat="40.9718690" lon="-2.5415330">
        <ele>1120.4</ele>
        <time>2020-09-12T09:29:36Z</time>
      </trkpt>
      <trkpt lat="40.9718670" lon="-2.5415840">
        <ele>1120.6</ele>
        <time>2020-09-12T09:29:37Z</time>
      </trkpt>
      <trkpt lat="40.9718660" lon="-2.5416350">
        <ele>1120.8</ele>
        <time>2020-09-12T09:29:38Z</time>
      </trkpt>
      <trkpt lat="40.9718650" lon="-2.5416860">
        <ele>1121.0</ele>
        <time>2020-09-12T09:29:39Z</time>
      </trkpt>
      <trkpt lat="40.9718640" lon="-2.5417390">
        <ele>1121.2</ele>
        <time>2020-09-12T09:29:40Z</time>
      </trkpt>
      <trkpt lat="40.9718640" lon="-2.5417900">
        <ele>1121.4</ele>
        <time>2020-09-12T09:29:41Z</time>
      </trkpt>
      <trkpt lat="40.9718630" lon="-2.5418420">
        <ele>1121.4</ele>
        <time>2020-09-12T09:29:42Z</time>
      </trkpt>
      <trkpt lat="40.9718610" lon="-2.5418930">
        <ele>1121.6</ele>
        <time>2020-09-12T09:29:43Z</time>
      </trkpt>
      <trkpt lat="40.9718590" lon="-2.5419440">
        <ele>1121.8</ele>
        <time>2020-09-12T09:29:44Z</time>
      </trkpt>
      <trkpt lat="40.9718580" lon="-2.5419980">
        <ele>1122.2</ele>
        <time>2020-09-12T09:29:45Z</time>
      </trkpt>
      <trkpt lat="40.9718570" lon="-2.5420510">
        <ele>1122.6</ele>
        <time>2020-09-12T09:29:46Z</time>
      </trkpt>
      <trkpt lat="40.9718550" lon="-2.5421040">
        <ele>1122.8</ele>
        <time>2020-09-12T09:29:47Z</time>
      </trkpt>
      <trkpt lat="40.9718550" lon="-2.5421570">
        <ele>1123.2</ele>
        <time>2020-09-12T09:29:48Z</time>
      </trkpt>
      <trkpt lat="40.9718550" lon="-2.5422100">
        <ele>1123.4</ele>
        <time>2020-09-12T09:29:49Z</time>
      </trkpt>
      <trkpt lat="40.9718530" lon="-2.5422620">
        <ele>1123.6</ele>
        <time>2020-09-12T09:29:50Z</time>
      </trkpt>
      <trkpt lat="40.9718510" lon="-2.5423150">
        <ele>1123.6</ele>
        <time>2020-09-12T09:29:51Z</time>
      </trkpt>
      <trkpt lat="40.9718480" lon="-2.5423680">
        <ele>1123.8</ele>
        <time>2020-09-12T09:29:52Z</time>
      </trkpt>
      <trkpt lat="40.9718460" lon="-2.5424200">
        <ele>1124.0</ele>
        <time>2020-09-12T09:29:53Z</time>
      </trkpt>
      <trkpt lat="40.9718450" lon="-2.5424720">
        <ele>1124.4</ele>
        <time>2020-09-12T09:29:54Z</time>
      </trkpt>
      <trkpt lat="40.9718430" lon="-2.5425260">
        <ele>1124.6</ele>
        <time>2020-09-12T09:29:55Z</time>
      </trkpt>
      <trkpt lat="40.9718410" lon="-2.5425790">
        <ele>1124.8</ele>
        <time>2020-09-12T09:29:56Z</time>
      </trkpt>
      <trkpt lat="40.9718400" lon="-2.5426330">
        <ele>1125.0</ele>
        <time>2020-09-12T09:29:57Z</time>
      </trkpt>
      <trkpt lat="40.9718390" lon="-2.5426880">
        <ele>1125.2</ele>
        <time>2020-09-12T09:29:58Z</time>
      </trkpt>
      <trkpt lat="40.9718370" lon="-2.5427460">
        <ele>1125.2</ele>
        <time>2020-09-12T09:29:59Z</time>
      </trkpt>
      <trkpt lat="40.9718360" lon="-2.5428040">
        <ele>1125.4</ele>
        <time>2020-09-12T09:30:00Z</time>
      </trkpt>
      <trkpt lat="40.9718340" lon="-2.5428630">
        <ele>1125.6</ele>
        <time>2020-09-12T09:30:01Z</time>
      </trkpt>
      <trkpt lat="40.9718340" lon="-2.5429210">
        <ele>1125.8</ele>
        <time>2020-09-12T09:30:02Z</time>
      </trkpt>
      <trkpt lat="40.9718330" lon="-2.5429790">
        <ele>1125.8</ele>
        <time>2020-09-12T09:30:03Z</time>
      </trkpt>
      <trkpt lat="40.9718310" lon="-2.5430370">
        <ele>1126.0</ele>
        <time>2020-09-12T09:30:04Z</time>
      </trkpt>
      <trkpt lat="40.9718290" lon="-2.5430960">
        <ele>1126.0</ele>
        <time>2020-09-12T09:30:05Z</time>
      </trkpt>
      <trkpt lat="40.9718270" lon="-2.5431540">
        <ele>1126.2</ele>
        <time>2020-09-12T09:30:06Z</time>
      </trkpt>
      <trkpt lat="40.9718250" lon="-2.5432130">
        <ele>1126.4</ele>
        <time>2020-09-12T09:30:07Z</time>
      </trkpt>
      <trkpt lat="40.9718250" lon="-2.5432710">
        <ele>1126.6</ele>
        <time>2020-09-12T09:30:08Z</time>
      </trkpt>
      <trkpt lat="40.9718240" lon="-2.5433290">
        <ele>1126.8</ele>
        <time>2020-09-12T09:30:09Z</time>
      </trkpt>
      <trkpt lat="40.9718230" lon="-2.5433870">
        <ele>1127.0</ele>
        <time>2020-09-12T09:30:10Z</time>
      </trkpt>
      <trkpt lat="40.9718220" lon="-2.5434460">
        <ele>1127.2</ele>
        <time>2020-09-12T09:30:11Z</time>
      </trkpt>
      <trkpt lat="40.9718210" lon="-2.5435040">
        <ele>1127.2</ele>
        <time>2020-09-12T09:30:12Z</time>
      </trkpt>
      <trkpt lat="40.9718180" lon="-2.5435620">
        <ele>1127.4</ele>
        <time>2020-09-12T09:30:13Z</time>
      </trkpt>
      <trkpt lat="40.9718170" lon="-2.5436210">
        <ele>1127.8</ele>
        <time>2020-09-12T09:30:14Z</time>
      </trkpt>
      <trkpt lat="40.9718160" lon="-2.5436790">
        <ele>1128.0</ele>
        <time>2020-09-12T09:30:15Z</time>
      </trkpt>
      <trkpt lat="40.9718140" lon="-2.5437400">
        <ele>1128.2</ele>
        <time>2020-09-12T09:30:16Z</time>
      </trkpt>
      <trkpt lat="40.9718120" lon="-2.5438010">
        <ele>1128.2</ele>
        <time>2020-09-12T09:30:17Z</time>
      </trkpt>
      <trkpt lat="40.9718100" lon="-2.5438630">
        <ele>1128.4</ele>
        <time>2020-09-12T09:30:18Z</time>
      </trkpt>
      <trkpt lat="40.9718090" lon="-2.5439250">
        <ele>1128.4</ele>
        <time>2020-09-12T09:30:19Z</time>
      </trkpt>
      <trkpt lat="40.9718090" lon="-2.5439870">
        <ele>1128.4</ele>
        <time>2020-09-12T09:30:20Z</time>
      </trkpt>
      <trkpt lat="40.9718080" lon="-2.5440490">
        <ele>1128.4</ele>
        <time>2020-09-12T09:30:21Z</time>
      </trkpt>
      <trkpt lat="40.9718060" lon="-2.5441120">
        <ele>1128.6</ele>
        <time>2020-09-12T09:30:22Z</time>
      </trkpt>
      <trkpt lat="40.9718040" lon="-2.5441770">
        <ele>1128.6</ele>
        <time>2020-09-12T09:30:23Z</time>
      </trkpt>
      <trkpt lat="40.9718020" lon="-2.5442420">
        <ele>1128.6</ele>
        <time>2020-09-12T09:30:24Z</time>
      </trkpt>
      <trkpt lat="40.9717990" lon="-2.5443090">
        <ele>1128.8</ele>
        <time>2020-09-12T09:30:25Z</time>
      </trkpt>
      <trkpt lat="40.9717990" lon="-2.5443760">
        <ele>1128.8</ele>
        <time>2020-09-12T09:30:26Z</time>
      </trkpt>
      <trkpt lat="40.9717970" lon="-2.5444450">
        <ele>1129.0</ele>
        <time>2020-09-12T09:30:27Z</time>
      </trkpt>
      <trkpt lat="40.9717940" lon="-2.5445140">
        <ele>1129.0</ele>
        <time>2020-09-12T09:30:28Z</time>
      </trkpt>
      <trkpt lat="40.9717910" lon="-2.5445830">
        <ele>1129.2</ele>
        <time>2020-09-12T09:30:29Z</time>
      </trkpt>
      <trkpt lat="40.9717880" lon="-2.5446520">
        <ele>1129.2</ele>
        <time>2020-09-12T09:30:30Z</time>
      </trkpt>
      <trkpt lat="40.9717870" lon="-2.5447230">
        <ele>1129.2</ele>
        <time>2020-09-12T09:30:31Z</time>
      </trkpt>
      <trkpt lat="40.9717890" lon="-2.5447940">
        <ele>1129.2</ele>
        <time>2020-09-12T09:30:32Z</time>
      </trkpt>
      <trkpt lat="40.9717900" lon="-2.5448670">
        <ele>1129.2</ele>
        <time>2020-09-12T09:30:33Z</time>
      </trkpt>
      <trkpt lat="40.9717910" lon="-2.5449430">
        <ele>1129.2</ele>
        <time>2020-09-12T09:30:34Z</time>
      </trkpt>
      <trkpt lat="40.9717890" lon="-2.5450220">
        <ele>1129.2</ele>
        <time>2020-09-12T09:30:35Z</time>
      </trkpt>
      <trkpt lat="40.9717880" lon="-2.5451010">
        <ele>1129.2</ele>
        <time>2020-09-12T09:30:36Z</time>
      </trkpt>
      <trkpt lat="40.9717870" lon="-2.5451790">
        <ele>1129.4</ele>
        <time>2020-09-12T09:30:37Z</time>
      </trkpt>
      <trkpt lat="40.9717870" lon="-2.5452590">
        <ele>1129.4</ele>
        <time>2020-09-12T09:30:38Z</time>
      </trkpt>
      <trkpt lat="40.9717890" lon="-2.5453410">
        <ele>1129.4</ele>
        <time>2020-09-12T09:30:39Z</time>
      </trkpt>
      <trkpt lat="40.9717900" lon="-2.5454270">
        <ele>1129.4</ele>
        <time>2020-09-12T09:30:40Z</time>
      </trkpt>
      <trkpt lat="40.9717920" lon="-2.5455160">
        <ele>1129.4</ele>
        <time>2020-09-12T09:30:41Z</time>
      </trkpt>
      <trkpt lat="40.9717960" lon="-2.5456100">
        <ele>1129.2</ele>
        <time>2020-09-12T09:30:42Z</time>
      </trkpt>
      <trkpt lat="40.9717990" lon="-2.5457070">
        <ele>1129.2</ele>
        <time>2020-09-12T09:30:43Z</time>
      </trkpt>
      <trkpt lat="40.9718000" lon="-2.5458080">
        <ele>1129.0</ele>
        <time>2020-09-12T09:30:44Z</time>
      </trkpt>
      <trkpt lat="40.9718000" lon="-2.5459140">
        <ele>1128.8</ele>
        <time>2020-09-12T09:30:45Z</time>
      </trkpt>
      <trkpt lat="40.9718010" lon="-2.5460220">
        <ele>1128.6</ele>
        <time>2020-09-12T09:30:46Z</time>
      </trkpt>
      <trkpt lat="40.9718020" lon="-2.5461310">
        <ele>1128.4</ele>
        <time>2020-09-12T09:30:47Z</time>
      </trkpt>
      <trkpt lat="40.9718040" lon="-2.5462410">
        <ele>1128.0</ele>
        <time>2020-09-12T09:30:48Z</time>
      </trkpt>
      <trkpt lat="40.9718050" lon="-2.5463530">
        <ele>1127.6</ele>
        <time>2020-09-12T09:30:49Z</time>
      </trkpt>
      <trkpt lat="40.9718070" lon="-2.5464660">
        <ele>1127.2</ele>
        <time>2020-09-12T09:30:50Z</time>
      </trkpt>
      <trkpt lat="40.9718090" lon="-2.5465780">
        <ele>1127.0</ele>
        <time>2020-09-12T09:30:51Z</time>
      </trkpt>
      <trkpt lat="40.9718110" lon="-2.5466890">
        <ele>1126.8</ele>
        <time>2020-09-12T09:30:52Z</time>
      </trkpt>
      <trkpt lat="40.9718120" lon="-2.5468000">
        <ele>1126.6</ele>
        <time>2020-09-12T09:30:53Z</time>
      </trkpt>
      <trkpt lat="40.9718130" lon="-2.5469080">
        <ele>1126.2</ele>
        <time>2020-09-12T09:30:54Z</time>
      </trkpt>
      <trkpt lat="40.9718150" lon="-2.5470160">
        <ele>1126.0</ele>
        <time>2020-09-12T09:30:55Z</time>
      </trkpt>
      <trkpt lat="40.9718160" lon="-2.5471230">
        <ele>1125.8</ele>
        <time>2020-09-12T09:30:56Z</time>
      </trkpt>
      <trkpt lat="40.9718190" lon="-2.5472290">
        <ele>1125.8</ele>
        <time>2020-09-12T09:30:57Z</time>
      </trkpt>
      <trkpt lat="40.9718220" lon="-2.5473350">
        <ele>1125.8</ele>
        <time>2020-09-12T09:30:58Z</time>
      </trkpt>
      <trkpt lat="40.9718250" lon="-2.5474380">
        <ele>1125.8</ele>
        <time>2020-09-12T09:30:59Z</time>
      </trkpt>
      <trkpt lat="40.9718270" lon="-2.5475390">
        <ele>1125.8</ele>
        <time>2020-09-12T09:31:00Z</time>
      </trkpt>
      <trkpt lat="40.9718300" lon="-2.5476380">
        <ele>1125.8</ele>
        <time>2020-09-12T09:31:01Z</time>
      </trkpt>
      <trkpt lat="40.9718320" lon="-2.5477350">
        <ele>1125.8</ele>
        <time>2020-09-12T09:31:02Z</time>
      </trkpt>
      <trkpt lat="40.9718340" lon="-2.5478310">
        <ele>1126.0</ele>
        <time>2020-09-12T09:31:03Z</time>
      </trkpt>
      <trkpt lat="40.9718360" lon="-2.5479250">
        <ele>1126.0</ele>
        <time>2020-09-12T09:31:04Z</time>
      </trkpt>
      <trkpt lat="40.9718370" lon="-2.5480180">
        <ele>1126.0</ele>
        <time>2020-09-12T09:31:05Z</time>
      </trkpt>
      <trkpt lat="40.9718380" lon="-2.5481120">
        <ele>1126.0</ele>
        <time>2020-09-12T09:31:06Z</time>
      </trkpt>
      <trkpt lat="40.9718370" lon="-2.5482050">
        <ele>1126.0</ele>
        <time>2020-09-12T09:31:07Z</time>
      </trkpt>
      <trkpt lat="40.9718340" lon="-2.5483010">
        <ele>1126.0</ele>
        <time>2020-09-12T09:31:08Z</time>
      </trkpt>
      <trkpt lat="40.9718280" lon="-2.5483980">
        <ele>1125.8</ele>
        <time>2020-09-12T09:31:09Z</time>
      </trkpt>
      <trkpt lat="40.9718210" lon="-2.5484970">
        <ele>1125.8</ele>
        <time>2020-09-12T09:31:10Z</time>
      </trkpt>
      <trkpt lat="40.9718140" lon="-2.5486010">
        <ele>1125.8</ele>
        <time>2020-09-12T09:31:11Z</time>
      </trkpt>
      <trkpt lat="40.9718050" lon="-2.5487100">
        <ele>1125.6</ele>
        <time>2020-09-12T09:31:12Z</time>
      </trkpt>
      <trkpt lat="40.9717970" lon="-2.5488230">
        <ele>1125.4</ele>
        <time>2020-09-12T09:31:13Z</time>
      </trkpt>
      <trkpt lat="40.9717880" lon="-2.5489380">
        <ele>1125.0</ele>
        <time>2020-09-12T09:31:14Z</time>
      </trkpt>
      <trkpt lat="40.9717790" lon="-2.5490540">
        <ele>1124.8</ele>
        <time>2020-09-12T09:31:15Z</time>
      </trkpt>
      <trkpt lat="40.9717700" lon="-2.5491710">
        <ele>1124.8</ele>
        <time>2020-09-12T09:31:16Z</time>
      </trkpt>
      <trkpt lat="40.9717590" lon="-2.5492910">
        <ele>1124.6</ele>
        <time>2020-09-12T09:31:17Z</time>
      </trkpt>
      <trkpt lat="40.9717530" lon="-2.5494120">
        <ele>1124.4</ele>
        <time>2020-09-12T09:31:18Z</time>
      </trkpt>
      <trkpt lat="40.9717540" lon="-2.5495350">
        <ele>1124.0</ele>
        <time>2020-09-12T09:31:19Z</time>
      </trkpt>
      <trkpt lat="40.9717670" lon="-2.5496580">
        <ele>1123.6</ele>
        <time>2020-09-12T09:31:20Z</time>
      </trkpt>
      <trkpt lat="40.9717840" lon="-2.5497810">
        <ele>1123.2</ele>
        <time>2020-09-12T09:31:21Z</time>
      </trkpt>
      <trkpt lat="40.9718040" lon="-2.5499060">
        <ele>1123.0</ele>
        <time>2020-09-12T09:31:22Z</time>
      </trkpt>
      <trkpt lat="40.9718260" lon="-2.5500340">
        <ele>1122.6</ele>
        <time>2020-09-12T09:31:23Z</time>
      </trkpt>
      <trkpt lat="40.9718490" lon="-2.5501660">
        <ele>1122.2</ele>
        <time>2020-09-12T09:31:24Z</time>
      </trkpt>
      <trkpt lat="40.9718700" lon="-2.5503000">
        <ele>1121.8</ele>
        <time>2020-09-12T09:31:25Z</time>
      </trkpt>
      <trkpt lat="40.9718900" lon="-2.5504350">
        <ele>1121.6</ele>
        <time>2020-09-12T09:31:26Z</time>
      </trkpt>
      <trkpt lat="40.9719110" lon="-2.5505670">
        <ele>1121.4</ele>
        <time>2020-09-12T09:31:27Z</time>
      </trkpt>
      <trkpt lat="40.9719320" lon="-2.5506980">
        <ele>1121.2</ele>
        <time>2020-09-12T09:31:28Z</time>
      </trkpt>
      <trkpt lat="40.9719500" lon="-2.5508260">
        <ele>1121.0</ele>
        <time>2020-09-12T09:31:29Z</time>
      </trkpt>
      <trkpt lat="40.9719690" lon="-2.5509530">
        <ele>1121.0</ele>
        <time>2020-09-12T09:31:30Z</time>
      </trkpt>
      <trkpt lat="40.9719870" lon="-2.5510770">
        <ele>1120.8</ele>
        <time>2020-09-12T09:31:31Z</time>
      </trkpt>
      <trkpt lat="40.9720060" lon="-2.5512000">
        <ele>1120.8</ele>
        <time>2020-09-12T09:31:32Z</time>
      </trkpt>
      <trkpt lat="40.9720240" lon="-2.5513220">
        <ele>1120.8</ele>
        <time>2020-09-12T09:31:33Z</time>
      </trkpt>
      <trkpt lat="40.9720430" lon="-2.5514420">
        <ele>1120.8</ele>
        <time>2020-09-12T09:31:34Z</time>
      </trkpt>
      <trkpt lat="40.9720600" lon="-2.5515610">
        <ele>1120.8</ele>
        <time>2020-09-12T09:31:35Z</time>
      </trkpt>
      <trkpt lat="40.9720790" lon="-2.5516800">
        <ele>1120.8</ele>
        <time>2020-09-12T09:31:36Z</time>
      </trkpt>
      <trkpt lat="40.9720990" lon="-2.5517970">
        <ele>1120.6</ele>
        <time>2020-09-12T09:31:37Z</time>
      </trkpt>
      <trkpt lat="40.9721170" lon="-2.5519130">
        <ele>1120.6</ele>
        <time>2020-09-12T09:31:38Z</time>
      </trkpt>
      <trkpt lat="40.9721340" lon="-2.5520290">
        <ele>1120.4</ele>
        <time>2020-09-12T09:31:39Z</time>
      </trkpt>
      <trkpt lat="40.9721510" lon="-2.5521440">
        <ele>1120.2</ele>
        <time>2020-09-12T09:31:40Z</time>
      </trkpt>
      <trkpt lat="40.9721680" lon="-2.5522590">
        <ele>1120.2</ele>
        <time>2020-09-12T09:31:41Z</time>
      </trkpt>
      <trkpt lat="40.9721870" lon="-2.5523730">
        <ele>1120.2</ele>
        <time>2020-09-12T09:31:42Z</time>
      </trkpt>
      <trkpt lat="40.9722060" lon="-2.5524880">
        <ele>1120.0</ele>
        <time>2020-09-12T09:31:43Z</time>
      </trkpt>
      <trkpt lat="40.9722220" lon="-2.5526050">
        <ele>1120.0</ele>
        <time>2020-09-12T09:31:44Z</time>
      </trkpt>
      <trkpt lat="40.9722380" lon="-2.5527220">
        <ele>1120.0</ele>
        <time>2020-09-12T09:31:45Z</time>
      </trkpt>
      <trkpt lat="40.9722550" lon="-2.5528400">
        <ele>1120.0</ele>
        <time>2020-09-12T09:31:46Z</time>
      </trkpt>
      <trkpt lat="40.9722720" lon="-2.5529590">
        <ele>1120.0</ele>
        <time>2020-09-12T09:31:47Z</time>
      </trkpt>
      <trkpt lat="40.9722890" lon="-2.5530780">
        <ele>1120.0</ele>
        <time>2020-09-12T09:31:48Z</time>
      </trkpt>
      <trkpt lat="40.9723070" lon="-2.5531960">
        <ele>1119.8</ele>
        <time>2020-09-12T09:31:49Z</time>
      </trkpt>
      <trkpt lat="40.9723250" lon="-2.5533150">
        <ele>1119.6</ele>
        <time>2020-09-12T09:31:50Z</time>
      </trkpt>
      <trkpt lat="40.9723450" lon="-2.5534320">
        <ele>1119.6</ele>
        <time>2020-09-12T09:31:51Z</time>
      </trkpt>
      <trkpt lat="40.9723640" lon="-2.5535490">
        <ele>1119.4</ele>
        <time>2020-09-12T09:31:52Z</time>
      </trkpt>
      <trkpt lat="40.9723840" lon="-2.5536650">
        <ele>1119.2</ele>
        <time>2020-09-12T09:31:53Z</time>
      </trkpt>
      <trkpt lat="40.9724020" lon="-2.5537810">
        <ele>1119.0</ele>
        <time>2020-09-12T09:31:54Z</time>
      </trkpt>
      <trkpt lat="40.9724200" lon="-2.5538970">
        <ele>1118.8</ele>
        <time>2020-09-12T09:31:55Z</time>
      </trkpt>
      <trkpt lat="40.9724390" lon="-2.5540120">
        <ele>1118.8</ele>
        <time>2020-09-12T09:31:56Z</time>
      </trkpt>
      <trkpt lat="40.9724590" lon="-2.5541250">
        <ele>1118.8</ele>
        <time>2020-09-12T09:31:57Z</time>
      </trkpt>
      <trkpt lat="40.9724790" lon="-2.5542370">
        <ele>1118.8</ele>
        <time>2020-09-12T09:31:58Z</time>
      </trkpt>
      <trkpt lat="40.9725030" lon="-2.5543490">
        <ele>1118.8</ele>
        <time>2020-09-12T09:31:59Z</time>
      </trkpt>
      <trkpt lat="40.9725260" lon="-2.5544600">
        <ele>1118.8</ele>
        <time>2020-09-12T09:32:00Z</time>
      </trkpt>
      <trkpt lat="40.9725490" lon="-2.5545710">
        <ele>1118.6</ele>
        <time>2020-09-12T09:32:01Z</time>
      </trkpt>
      <trkpt lat="40.9725740" lon="-2.5546820">
        <ele>1118.6</ele>
        <time>2020-09-12T09:32:02Z</time>
      </trkpt>
      <trkpt lat="40.9726020" lon="-2.5547940">
        <ele>1118.6</ele>
        <time>2020-09-12T09:32:03Z</time>
      </trkpt>
      <trkpt lat="40.9726300" lon="-2.5549060">
        <ele>1118.4</ele>
        <time>2020-09-12T09:32:04Z</time>
      </trkpt>
      <trkpt lat="40.9726580" lon="-2.5550180">
        <ele>1118.2</ele>
        <time>2020-09-12T09:32:05Z</time>
      </trkpt>
      <trkpt lat="40.9726880" lon="-2.5551300">
        <ele>1118.2</ele>
        <time>2020-09-12T09:32:06Z</time>
      </trkpt>
      <trkpt lat="40.9727170" lon="-2.5552410">
        <ele>1118.2</ele>
        <time>2020-09-12T09:32:07Z</time>
      </trkpt>
      <trkpt lat="40.9727450" lon="-2.5553510">
        <ele>1118.2</ele>
        <time>2020-09-12T09:32:08Z</time>
      </trkpt>
      <trkpt lat="40.9727720" lon="-2.5554600">
        <ele>1118.2</ele>
        <time>2020-09-12T09:32:09Z</time>
      </trkpt>
      <trkpt lat="40.9727980" lon="-2.5555680">
        <ele>1118.2</ele>
        <time>2020-09-12T09:32:10Z</time>
      </trkpt>
      <trkpt lat="40.9728230" lon="-2.5556770">
        <ele>1118.2</ele>
        <time>2020-09-12T09:32:11Z</time>
      </trkpt>
      <trkpt lat="40.9728500" lon="-2.5557840">
        <ele>1118.0</ele>
        <time>2020-09-12T09:32:12Z</time>
      </trkpt>
      <trkpt lat="40.9728780" lon="-2.5558920">
        <ele>1118.0</ele>
        <time>2020-09-12T09:32:13Z</time>
      </trkpt>
      <trkpt lat="40.9729060" lon="-2.5559990">
        <ele>1118.0</ele>
        <time>2020-09-12T09:32:14Z</time>
      </trkpt>
      <trkpt lat="40.9729330" lon="-2.5561060">
        <ele>1118.0</ele>
        <time>2020-09-12T09:32:15Z</time>
      </trkpt>
      <trkpt lat="40.9729600" lon="-2.5562130">
        <ele>1118.0</ele>
        <time>2020-09-12T09:32:16Z</time>
      </trkpt>
      <trkpt lat="40.9729870" lon="-2.5563190">
        <ele>1118.0</ele>
        <time>2020-09-12T09:32:17Z</time>
      </trkpt>
      <trkpt lat="40.9730110" lon="-2.5564240">
        <ele>1118.0</ele>
        <time>2020-09-12T09:32:18Z</time>
      </trkpt>
      <trkpt lat="40.9730340" lon="-2.5565290">
        <ele>1118.0</ele>
        <time>2020-09-12T09:32:19Z</time>
      </trkpt>
      <trkpt lat="40.9730570" lon="-2.5566320">
        <ele>1118.0</ele>
        <time>2020-09-12T09:32:20Z</time>
      </trkpt>
      <trkpt lat="40.9730820" lon="-2.5567340">
        <ele>1118.2</ele>
        <time>2020-09-12T09:32:21Z</time>
      </trkpt>
      <trkpt lat="40.9731040" lon="-2.5568350">
        <ele>1118.2</ele>
        <time>2020-09-12T09:32:22Z</time>
      </trkpt>
      <trkpt lat="40.9731270" lon="-2.5569360">
        <ele>1118.2</ele>
        <time>2020-09-12T09:32:23Z</time>
      </trkpt>
      <trkpt lat="40.9731500" lon="-2.5570370">
        <ele>1118.6</ele>
        <time>2020-09-12T09:32:24Z</time>
      </trkpt>
      <trkpt lat="40.9731740" lon="-2.5571370">
        <ele>1118.8</ele>
        <time>2020-09-12T09:32:25Z</time>
      </trkpt>
      <trkpt lat="40.9731990" lon="-2.5572360">
        <ele>1119.0</ele>
        <time>2020-09-12T09:32:26Z</time>
      </trkpt>
      <trkpt lat="40.9732240" lon="-2.5573350">
        <ele>1118.8</ele>
        <time>2020-09-12T09:32:27Z</time>
      </trkpt>
      <trkpt lat="40.9732480" lon="-2.5574340">
        <ele>1118.8</ele>
        <time>2020-09-12T09:32:28Z</time>
      </trkpt>
      <trkpt lat="40.9732730" lon="-2.5575340">
        <ele>1119.0</ele>
        <time>2020-09-12T09:32:29Z</time>
      </trkpt>
      <trkpt lat="40.9732970" lon="-2.5576340">
        <ele>1119.0</ele>
        <time>2020-09-12T09:32:30Z</time>
      </trkpt>
      <trkpt lat="40.9733200" lon="-2.5577350">
        <ele>1118.8</ele>
        <time>2020-09-12T09:32:31Z</time>
      </trkpt>
      <trkpt lat="40.9733410" lon="-2.5578370">
        <ele>1118.6</ele>
        <time>2020-09-12T09:32:32Z</time>
      </trkpt>
      <trkpt lat="40.9733630" lon="-2.5579390">
        <ele>1118.6</ele>
        <time>2020-09-12T09:32:33Z</time>
      </trkpt>
      <trkpt lat="40.9733880" lon="-2.5580390">
        <ele>1118.6</ele>
        <time>2020-09-12T09:32:34Z</time>
      </trkpt>
      <trkpt lat="40.9734140" lon="-2.5581400">
        <ele>1118.6</ele>
        <time>2020-09-12T09:32:35Z</time>
      </trkpt>
      <trkpt lat="40.9734390" lon="-2.5582420">
        <ele>1118.6</ele>
        <time>2020-09-12T09:32:36Z</time>
      </trkpt>
      <trkpt lat="40.9734640" lon="-2.5583440">
        <ele>1118.4</ele>
        <time>2020-09-12T09:32:37Z</time>
      </trkpt>
      <trkpt lat="40.9734880" lon="-2.5584460">
        <ele>1118.4</ele>
        <time>2020-09-12T09:32:38Z</time>
      </trkpt>
      <trkpt lat="40.9735110" lon="-2.5585470">
        <ele>1118.6</ele>
        <time>2020-09-12T09:32:39Z</time>
      </trkpt>
      <trkpt lat="40.9735350" lon="-2.5586470">
        <ele>1118.6</ele>
        <time>2020-09-12T09:32:40Z</time>
      </trkpt>
      <trkpt lat="40.9735580" lon="-2.5587460">
        <ele>1118.6</ele>
        <time>2020-09-12T09:32:41Z</time>
      </trkpt>
      <trkpt lat="40.9735800" lon="-2.5588450">
        <ele>1118.8</ele>
        <time>2020-09-12T09:32:42Z</time>
      </trkpt>
      <trkpt lat="40.9736020" lon="-2.5589450">
        <ele>1118.8</ele>
        <time>2020-09-12T09:32:43Z</time>
      </trkpt>
      <trkpt lat="40.9736260" lon="-2.5590420">
        <ele>1118.8</ele>
        <time>2020-09-12T09:32:44Z</time>
      </trkpt>
      <trkpt lat="40.9736470" lon="-2.5591370">
        <ele>1119.0</ele>
        <time>2020-09-12T09:32:45Z</time>
      </trkpt>
      <trkpt lat="40.9736620" lon="-2.5592320">
        <ele>1119.2</ele>
        <time>2020-09-12T09:32:46Z</time>
      </trkpt>
      <trkpt lat="40.9736800" lon="-2.5592850">
        <ele>1119.4</ele>
        <time>2020-09-12T09:32:47Z</time>
      </trkpt>
      <trkpt lat="40.9736990" lon="-2.5593380">
        <ele>1119.4</ele>
        <time>2020-09-12T09:32:48Z</time>
      </trkpt>
      <trkpt lat="40.9737170" lon="-2.5593920">
        <ele>1119.6</ele>
        <time>2020-09-12T09:32:49Z</time>
      </trkpt>
      <trkpt lat="40.9737350" lon="-2.5594450">
        <ele>1119.8</ele>
        <time>2020-09-12T09:32:50Z</time>
      </trkpt>
      <trkpt lat="40.9737530" lon="-2.5594980">
        <ele>1119.8</ele>
        <time>2020-09-12T09:32:51Z</time>
      </trkpt>
      <trkpt lat="40.9737720" lon="-2.5595510">
        <ele>1120.0</ele>
        <time>2020-09-12T09:32:52Z</time>
      </trkpt>
      <trkpt lat="40.9737900" lon="-2.5596050">
        <ele>1120.0</ele>
        <time>2020-09-12T09:32:53Z</time>
      </trkpt>
      <trkpt lat="40.9738080" lon="-2.5596580">
        <ele>1120.0</ele>
        <time>2020-09-12T09:32:54Z</time>
      </trkpt>
      <trkpt lat="40.9739540" lon="-2.5600850">
        <ele>1120.2</ele>
        <time>2020-09-12T09:32:55Z</time>
      </trkpt>
      <trkpt lat="40.9739910" lon="-2.5601910">
        <ele>1120.2</ele>
        <time>2020-09-12T09:32:56Z</time>
      </trkpt>
      <trkpt lat="40.9739930" lon="-2.5603000">
        <ele>1120.4</ele>
        <time>2020-09-12T09:32:57Z</time>
      </trkpt>
      <trkpt lat="40.9740160" lon="-2.5603970">
        <ele>1120.8</ele>
        <time>2020-09-12T09:32:58Z</time>
      </trkpt>
      <trkpt lat="40.9740370" lon="-2.5604950">
        <ele>1121.0</ele>
        <time>2020-09-12T09:32:59Z</time>
      </trkpt>
      <trkpt lat="40.9740530" lon="-2.5605940">
        <ele>1121.4</ele>
        <time>2020-09-12T09:33:00Z</time>
      </trkpt>
      <trkpt lat="40.9740690" lon="-2.5606940">
        <ele>1121.4</ele>
        <time>2020-09-12T09:33:01Z</time>
      </trkpt>
      <trkpt lat="40.9740860" lon="-2.5607910">
        <ele>1121.6</ele>
        <time>2020-09-12T09:33:02Z</time>
      </trkpt>
      <trkpt lat="40.9741060" lon="-2.5608880">
        <ele>1121.6</ele>
        <time>2020-09-12T09:33:03Z</time>
      </trkpt>
      <trkpt lat="40.9741270" lon="-2.5609840">
        <ele>1121.8</ele>
        <time>2020-09-12T09:33:04Z</time>
      </trkpt>
      <trkpt lat="40.9741450" lon="-2.5610810">
        <ele>1121.8</ele>
        <time>2020-09-12T09:33:05Z</time>
      </trkpt>
      <trkpt lat="40.9741640" lon="-2.5611770">
        <ele>1122.0</ele>
        <time>2020-09-12T09:33:06Z</time>
      </trkpt>
      <trkpt lat="40.9741810" lon="-2.5612740">
        <ele>1122.2</ele>
        <time>2020-09-12T09:33:07Z</time>
      </trkpt>
      <trkpt lat="40.9741980" lon="-2.5613690">
        <ele>1122.2</ele>
        <time>2020-09-12T09:33:08Z</time>
      </trkpt>
      <trkpt lat="40.9742130" lon="-2.5614660">
        <ele>1122.4</ele>
        <time>2020-09-12T09:33:09Z</time>
      </trkpt>
      <trkpt lat="40.9742270" lon="-2.5615630">
        <ele>1122.6</ele>
        <time>2020-09-12T09:33:10Z</time>
      </trkpt>
      <trkpt lat="40.9742420" lon="-2.5616580">
        <ele>1122.8</ele>
        <time>2020-09-12T09:33:11Z</time>
      </trkpt>
      <trkpt lat="40.9742550" lon="-2.5617520">
        <ele>1122.8</ele>
        <time>2020-09-12T09:33:12Z</time>
      </trkpt>
      <trkpt lat="40.9742690" lon="-2.5618460">
        <ele>1123.0</ele>
        <time>2020-09-12T09:33:13Z</time>
      </trkpt>
      <trkpt lat="40.9742840" lon="-2.5619390">
        <ele>1123.0</ele>
        <time>2020-09-12T09:33:14Z</time>
      </trkpt>
      <trkpt lat="40.9742990" lon="-2.5620270">
        <ele>1123.2</ele>
        <time>2020-09-12T09:33:15Z</time>
      </trkpt>
      <trkpt lat="40.9743150" lon="-2.5621180">
        <ele>1123.4</ele>
        <time>2020-09-12T09:33:16Z</time>
      </trkpt>
      <trkpt lat="40.9743260" lon="-2.5622060">
        <ele>1123.8</ele>
        <time>2020-09-12T09:33:17Z</time>
      </trkpt>
      <trkpt lat="40.9743370" lon="-2.5622940">
        <ele>1124.0</ele>
        <time>2020-09-12T09:33:18Z</time>
      </trkpt>
      <trkpt lat="40.9743520" lon="-2.5623860">
        <ele>1124.2</ele>
        <time>2020-09-12T09:33:19Z</time>
      </trkpt>
      <trkpt lat="40.9743700" lon="-2.5624750">
        <ele>1124.4</ele>
        <time>2020-09-12T09:33:20Z</time>
      </trkpt>
      <trkpt lat="40.9743910" lon="-2.5625660">
        <ele>1124.6</ele>
        <time>2020-09-12T09:33:21Z</time>
      </trkpt>
      <trkpt lat="40.9744150" lon="-2.5626600">
        <ele>1124.6</ele>
        <time>2020-09-12T09:33:22Z</time>
      </trkpt>
      <trkpt lat="40.9744400" lon="-2.5627530">
        <ele>1124.4</ele>
        <time>2020-09-12T09:33:23Z</time>
      </trkpt>
      <trkpt lat="40.9744660" lon="-2.5628500">
        <ele>1124.2</ele>
        <time>2020-09-12T09:33:24Z</time>
      </trkpt>
      <trkpt lat="40.9744920" lon="-2.5629480">
        <ele>1123.8</ele>
        <time>2020-09-12T09:33:25Z</time>
      </trkpt>
      <trkpt lat="40.9745170" lon="-2.5630480">
        <ele>1123.6</ele>
        <time>2020-09-12T09:33:26Z</time>
      </trkpt>
      <trkpt lat="40.9745440" lon="-2.5631480">
        <ele>1123.4</ele>
        <time>2020-09-12T09:33:27Z</time>
      </trkpt>
      <trkpt lat="40.9745720" lon="-2.5632500">
        <ele>1123.2</ele>
        <time>2020-09-12T09:33:28Z</time>
      </trkpt>
      <trkpt lat="40.9745990" lon="-2.5633510">
        <ele>1123.0</ele>
        <time>2020-09-12T09:33:29Z</time>
      </trkpt>
      <trkpt lat="40.9746260" lon="-2.5634510">
        <ele>1122.8</ele>
        <time>2020-09-12T09:33:30Z</time>
      </trkpt>
      <trkpt lat="40.9746530" lon="-2.5635520">
        <ele>1122.8</ele>
        <time>2020-09-12T09:33:31Z</time>
      </trkpt>
      <trkpt lat="40.9746800" lon="-2.5636530">
        <ele>1122.6</ele>
        <time>2020-09-12T09:33:32Z</time>
      </trkpt>
      <trkpt lat="40.9747070" lon="-2.5637540">
        <ele>1122.4</ele>
        <time>2020-09-12T09:33:33Z</time>
      </trkpt>
      <trkpt lat="40.9747330" lon="-2.5638560">
        <ele>1122.4</ele>
        <time>2020-09-12T09:33:34Z</time>
      </trkpt>
      <trkpt lat="40.9747610" lon="-2.5639590">
        <ele>1122.2</ele>
        <time>2020-09-12T09:33:35Z</time>
      </trkpt>
      <trkpt lat="40.9747870" lon="-2.5640640">
        <ele>1122.2</ele>
        <time>2020-09-12T09:33:36Z</time>
      </trkpt>
      <trkpt lat="40.9748140" lon="-2.5641690">
        <ele>1122.2</ele>
        <time>2020-09-12T09:33:37Z</time>
      </trkpt>
      <trkpt lat="40.9748410" lon="-2.5642770">
        <ele>1122.2</ele>
        <time>2020-09-12T09:33:38Z</time>
      </trkpt>
      <trkpt lat="40.9748680" lon="-2.5643860">
        <ele>1122.0</ele>
        <time>2020-09-12T09:33:39Z</time>
      </trkpt>
      <trkpt lat="40.9748970" lon="-2.5644950">
        <ele>1122.0</ele>
        <time>2020-09-12T09:33:40Z</time>
      </trkpt>
      <trkpt lat="40.9749260" lon="-2.5646060">
        <ele>1121.6</ele>
        <time>2020-09-12T09:33:41Z</time>
      </trkpt>
      <trkpt lat="40.9749550" lon="-2.5647180">
        <ele>1121.4</ele>
        <time>2020-09-12T09:33:42Z</time>
      </trkpt>
      <trkpt lat="40.9749840" lon="-2.5648290">
        <ele>1121.2</ele>
        <time>2020-09-12T09:33:43Z</time>
      </trkpt>
      <trkpt lat="40.9750130" lon="-2.5649390">
        <ele>1121.2</ele>
        <time>2020-09-12T09:33:44Z</time>
      </trkpt>
      <trkpt lat="40.9750420" lon="-2.5650490">
        <ele>1121.0</ele>
        <time>2020-09-12T09:33:45Z</time>
      </trkpt>
      <trkpt lat="40.9750720" lon="-2.5651580">
        <ele>1121.0</ele>
        <time>2020-09-12T09:33:46Z</time>
      </trkpt>
      <trkpt lat="40.9750990" lon="-2.5652650">
        <ele>1121.0</ele>
        <time>2020-09-12T09:33:47Z</time>
      </trkpt>
      <trkpt lat="40.9751270" lon="-2.5653720">
        <ele>1120.8</ele>
        <time>2020-09-12T09:33:48Z</time>
      </trkpt>
      <trkpt lat="40.9751530" lon="-2.5654780">
        <ele>1120.8</ele>
        <time>2020-09-12T09:33:49Z</time>
      </trkpt>
      <trkpt lat="40.9751800" lon="-2.5655840">
        <ele>1120.8</ele>
        <time>2020-09-12T09:33:50Z</time>
      </trkpt>
      <trkpt lat="40.9752090" lon="-2.5656880">
        <ele>1120.8</ele>
        <time>2020-09-12T09:33:51Z</time>
      </trkpt>
      <trkpt lat="40.9752370" lon="-2.5657910">
        <ele>1120.8</ele>
        <time>2020-09-12T09:33:52Z</time>
      </trkpt>
      <trkpt lat="40.9752650" lon="-2.5658960">
        <ele>1120.8</ele>
        <time>2020-09-12T09:33:53Z</time>
      </trkpt>
      <trkpt lat="40.9752920" lon="-2.5660010">
        <ele>1120.8</ele>
        <time>2020-09-12T09:33:54Z</time>
      </trkpt>
      <trkpt lat="40.9753160" lon="-2.5661080">
        <ele>1120.8</ele>
        <time>2020-09-12T09:33:55Z</time>
      </trkpt>
      <trkpt lat="40.9753410" lon="-2.5662160">
        <ele>1120.6</ele>
        <time>2020-09-12T09:33:56Z</time>
      </trkpt>
      <trkpt lat="40.9753660" lon="-2.5663240">
        <ele>1120.4</ele>
        <time>2020-09-12T09:33:57Z</time>
      </trkpt>
      <trkpt lat="40.9753930" lon="-2.5664290">
        <ele>1120.2</ele>
        <time>2020-09-12T09:33:58Z</time>
      </trkpt>
      <trkpt lat="40.9754200" lon="-2.5665330">
        <ele>1120.0</ele>
        <time>2020-09-12T09:33:59Z</time>
      </trkpt>
      <trkpt lat="40.9754530" lon="-2.5666360">
        <ele>1119.8</ele>
        <time>2020-09-12T09:34:00Z</time>
      </trkpt>
      <trkpt lat="40.9754960" lon="-2.5667360">
        <ele>1119.6</ele>
        <time>2020-09-12T09:34:01Z</time>
      </trkpt>
      <trkpt lat="40.9755470" lon="-2.5668320">
        <ele>1119.2</ele>
        <time>2020-09-12T09:34:02Z</time>
      </trkpt>
      <trkpt lat="40.9755990" lon="-2.5669300">
        <ele>1119.2</ele>
        <time>2020-09-12T09:34:03Z</time>
      </trkpt>
      <trkpt lat="40.9756450" lon="-2.5670350">
        <ele>1119.0</ele>
        <time>2020-09-12T09:34:04Z</time>
      </trkpt>
      <trkpt lat="40.9756790" lon="-2.5671470">
        <ele>1119.0</ele>
        <time>2020-09-12T09:34:05Z</time>
      </trkpt>
      <trkpt lat="40.9756980" lon="-2.5672650">
        <ele>1118.8</ele>
        <time>2020-09-12T09:34:06Z</time>
      </trkpt>
      <trkpt lat="40.9757090" lon="-2.5673850">
        <ele>1118.6</ele>
        <time>2020-09-12T09:34:07Z</time>
      </trkpt>
      <trkpt lat="40.9757180" lon="-2.5675050">
        <ele>1118.4</ele>
        <time>2020-09-12T09:34:08Z</time>
      </trkpt>
      <trkpt lat="40.9757250" lon="-2.5676240">
        <ele>1118.4</ele>
        <time>2020-09-12T09:34:09Z</time>
      </trkpt>
      <trkpt lat="40.9757320" lon="-2.5677420">
        <ele>1118.2</ele>
        <time>2020-09-12T09:34:10Z</time>
      </trkpt>
      <trkpt lat="40.9757390" lon="-2.5678610">
        <ele>1118.0</ele>
        <time>2020-09-12T09:34:11Z</time>
      </trkpt>
      <trkpt lat="40.9757480" lon="-2.5679790">
        <ele>1118.0</ele>
        <time>2020-09-12T09:34:12Z</time>
      </trkpt>
      <trkpt lat="40.9757570" lon="-2.5680970">
        <ele>1117.8</ele>
        <time>2020-09-12T09:34:13Z</time>
      </trkpt>
      <trkpt lat="40.9757650" lon="-2.5682140">
        <ele>1117.8</ele>
        <time>2020-09-12T09:34:14Z</time>
      </trkpt>
      <trkpt lat="40.9757730" lon="-2.5683310">
        <ele>1117.6</ele>
        <time>2020-09-12T09:34:15Z</time>
      </trkpt>
      <trkpt lat="40.9757820" lon="-2.5684490">
        <ele>1117.6</ele>
        <time>2020-09-12T09:34:16Z</time>
      </trkpt>
      <trkpt lat="40.9757910" lon="-2.5685660">
        <ele>1117.6</ele>
        <time>2020-09-12T09:34:17Z</time>
      </trkpt>
      <trkpt lat="40.9758000" lon="-2.5686840">
        <ele>1117.4</ele>
        <time>2020-09-12T09:34:18Z</time>
      </trkpt>
      <trkpt lat="40.9758090" lon="-2.5688010">
        <ele>1117.4</ele>
        <time>2020-09-12T09:34:19Z</time>
      </trkpt>
      <trkpt lat="40.9758170" lon="-2.5689200">
        <ele>1117.0</ele>
        <time>2020-09-12T09:34:20Z</time>
      </trkpt>
      <trkpt lat="40.9758270" lon="-2.5690410">
        <ele>1116.8</ele>
        <time>2020-09-12T09:34:21Z</time>
      </trkpt>
      <trkpt lat="40.9758370" lon="-2.5691620">
        <ele>1116.6</ele>
        <time>2020-09-12T09:34:22Z</time>
      </trkpt>
      <trkpt lat="40.9758450" lon="-2.5692870">
        <ele>1116.6</ele>
        <time>2020-09-12T09:34:23Z</time>
      </trkpt>
      <trkpt lat="40.9758520" lon="-2.5694110">
        <ele>1116.4</ele>
        <time>2020-09-12T09:34:24Z</time>
      </trkpt>
      <trkpt lat="40.9758610" lon="-2.5695320">
        <ele>1116.4</ele>
        <time>2020-09-12T09:34:25Z</time>
      </trkpt>
      <trkpt lat="40.9758700" lon="-2.5696550">
        <ele>1116.4</ele>
        <time>2020-09-12T09:34:26Z</time>
      </trkpt>
      <trkpt lat="40.9758800" lon="-2.5697760">
        <ele>1116.2</ele>
        <time>2020-09-12T09:34:27Z</time>
      </trkpt>
      <trkpt lat="40.9758900" lon="-2.5698970">
        <ele>1116.2</ele>
        <time>2020-09-12T09:34:28Z</time>
      </trkpt>
      <trkpt lat="40.9758980" lon="-2.5700190">
        <ele>1116.2</ele>
        <time>2020-09-12T09:34:29Z</time>
      </trkpt>
      <trkpt lat="40.9759060" lon="-2.5701380">
        <ele>1116.0</ele>
        <time>2020-09-12T09:34:30Z</time>
      </trkpt>
      <trkpt lat="40.9759130" lon="-2.5702560">
        <ele>1116.0</ele>
        <time>2020-09-12T09:34:31Z</time>
      </trkpt>
      <trkpt lat="40.9759190" lon="-2.5703760">
        <ele>1115.8</ele>
        <time>2020-09-12T09:34:32Z</time>
      </trkpt>
      <trkpt lat="40.9759240" lon="-2.5704960">
        <ele>1115.8</ele>
        <time>2020-09-12T09:34:33Z</time>
      </trkpt>
      <trkpt lat="40.9759290" lon="-2.5706160">
        <ele>1115.6</ele>
        <time>2020-09-12T09:34:34Z</time>
      </trkpt>
      <trkpt lat="40.9759340" lon="-2.5707380">
        <ele>1115.4</ele>
        <time>2020-09-12T09:34:35Z</time>
      </trkpt>
      <trkpt lat="40.9759380" lon="-2.5708610">
        <ele>1115.2</ele>
        <time>2020-09-12T09:34:36Z</time>
      </trkpt>
      <trkpt lat="40.9759410" lon="-2.5709850">
        <ele>1115.2</ele>
        <time>2020-09-12T09:34:37Z</time>
      </trkpt>
      <trkpt lat="40.9759440" lon="-2.5711090">
        <ele>1115.0</ele>
        <time>2020-09-12T09:34:38Z</time>
      </trkpt>
      <trkpt lat="40.9759470" lon="-2.5712340">
        <ele>1114.6</ele>
        <time>2020-09-12T09:34:39Z</time>
      </trkpt>
      <trkpt lat="40.9759510" lon="-2.5713590">
        <ele>1114.6</ele>
        <time>2020-09-12T09:34:40Z</time>
      </trkpt>
      <trkpt lat="40.9759530" lon="-2.5714840">
        <ele>1114.4</ele>
        <time>2020-09-12T09:34:41Z</time>
      </trkpt>
      <trkpt lat="40.9759540" lon="-2.5716120">
        <ele>1114.2</ele>
        <time>2020-09-12T09:34:42Z</time>
      </trkpt>
      <trkpt lat="40.9759550" lon="-2.5717390">
        <ele>1113.8</ele>
        <time>2020-09-12T09:34:43Z</time>
      </trkpt>
      <trkpt lat="40.9759580" lon="-2.5718660">
        <ele>1113.6</ele>
        <time>2020-09-12T09:34:44Z</time>
      </trkpt>
      <trkpt lat="40.9759610" lon="-2.5719920">
        <ele>1113.2</ele>
        <time>2020-09-12T09:34:45Z</time>
      </trkpt>
      <trkpt lat="40.9759640" lon="-2.5721160">
        <ele>1113.0</ele>
        <time>2020-09-12T09:34:46Z</time>
      </trkpt>
      <trkpt lat="40.9759680" lon="-2.5722400">
        <ele>1113.0</ele>
        <time>2020-09-12T09:34:47Z</time>
      </trkpt>
      <trkpt lat="40.9759730" lon="-2.5723620">
        <ele>1113.0</ele>
        <time>2020-09-12T09:34:48Z</time>
      </trkpt>
      <trkpt lat="40.9759770" lon="-2.5724840">
        <ele>1112.8</ele>
        <time>2020-09-12T09:34:49Z</time>
      </trkpt>
      <trkpt lat="40.9759790" lon="-2.5726060">
        <ele>1112.8</ele>
        <time>2020-09-12T09:34:50Z</time>
      </trkpt>
      <trkpt lat="40.9759800" lon="-2.5727290">
        <ele>1112.8</ele>
        <time>2020-09-12T09:34:51Z</time>
      </trkpt>
      <trkpt lat="40.9759810" lon="-2.5728520">
        <ele>1112.6</ele>
        <time>2020-09-12T09:34:52Z</time>
      </trkpt>
      <trkpt lat="40.9759820" lon="-2.5729760">
        <ele>1112.6</ele>
        <time>2020-09-12T09:34:53Z</time>
      </trkpt>
      <trkpt lat="40.9759830" lon="-2.5731000">
        <ele>1112.4</ele>
        <time>2020-09-12T09:34:54Z</time>
      </trkpt>
      <trkpt lat="40.9759850" lon="-2.5732200">
        <ele>1112.4</ele>
        <time>2020-09-12T09:34:55Z</time>
      </trkpt>
      <trkpt lat="40.9759860" lon="-2.5733410">
        <ele>1112.2</ele>
        <time>2020-09-12T09:34:56Z</time>
      </trkpt>
      <trkpt lat="40.9759890" lon="-2.5734630">
        <ele>1112.2</ele>
        <time>2020-09-12T09:34:57Z</time>
      </trkpt>
      <trkpt lat="40.9759930" lon="-2.5735830">
        <ele>1112.2</ele>
        <time>2020-09-12T09:34:58Z</time>
      </trkpt>
      <trkpt lat="40.9759980" lon="-2.5737030">
        <ele>1112.0</ele>
        <time>2020-09-12T09:34:59Z</time>
      </trkpt>
      <trkpt lat="40.9760020" lon="-2.5738210">
        <ele>1111.8</ele>
        <time>2020-09-12T09:35:00Z</time>
      </trkpt>
      <trkpt lat="40.9760050" lon="-2.5739380">
        <ele>1111.6</ele>
        <time>2020-09-12T09:35:01Z</time>
      </trkpt>
      <trkpt lat="40.9760060" lon="-2.5740550">
        <ele>1111.6</ele>
        <time>2020-09-12T09:35:02Z</time>
      </trkpt>
      <trkpt lat="40.9760080" lon="-2.5741690">
        <ele>1111.6</ele>
        <time>2020-09-12T09:35:03Z</time>
      </trkpt>
      <trkpt lat="40.9760100" lon="-2.5742830">
        <ele>1111.8</ele>
        <time>2020-09-12T09:35:04Z</time>
      </trkpt>
      <trkpt lat="40.9760120" lon="-2.5743950">
        <ele>1111.8</ele>
        <time>2020-09-12T09:35:05Z</time>
      </trkpt>
      <trkpt lat="40.9760150" lon="-2.5745070">
        <ele>1112.2</ele>
        <time>2020-09-12T09:35:06Z</time>
      </trkpt>
      <trkpt lat="40.9760180" lon="-2.5746170">
        <ele>1112.4</ele>
        <time>2020-09-12T09:35:07Z</time>
      </trkpt>
      <trkpt lat="40.9760200" lon="-2.5747260">
        <ele>1112.4</ele>
        <time>2020-09-12T09:35:08Z</time>
      </trkpt>
      <trkpt lat="40.9760250" lon="-2.5748330">
        <ele>1112.6</ele>
        <time>2020-09-12T09:35:09Z</time>
      </trkpt>
      <trkpt lat="40.9760400" lon="-2.5749370">
        <ele>1112.6</ele>
        <time>2020-09-12T09:35:10Z</time>
      </trkpt>
      <trkpt lat="40.9760700" lon="-2.5750360">
        <ele>1112.4</ele>
        <time>2020-09-12T09:35:11Z</time>
      </trkpt>
      <trkpt lat="40.9761120" lon="-2.5751310">
        <ele>1112.0</ele>
        <time>2020-09-12T09:35:12Z</time>
      </trkpt>
      <trkpt lat="40.9761520" lon="-2.5752270">
        <ele>1111.6</ele>
        <time>2020-09-12T09:35:13Z</time>
      </trkpt>
      <trkpt lat="40.9761830" lon="-2.5753280">
        <ele>1111.2</ele>
        <time>2020-09-12T09:35:14Z</time>
      </trkpt>
      <trkpt lat="40.9762070" lon="-2.5754330">
        <ele>1111.0</ele>
        <time>2020-09-12T09:35:15Z</time>
      </trkpt>
      <trkpt lat="40.9762270" lon="-2.5755400">
        <ele>1110.8</ele>
        <time>2020-09-12T09:35:16Z</time>
      </trkpt>
      <trkpt lat="40.9762440" lon="-2.5756500">
        <ele>1110.6</ele>
        <time>2020-09-12T09:35:17Z</time>
      </trkpt>
      <trkpt lat="40.9762600" lon="-2.5757600">
        <ele>1110.2</ele>
        <time>2020-09-12T09:35:18Z</time>
      </trkpt>
      <trkpt lat="40.9762760" lon="-2.5758690">
        <ele>1110.0</ele>
        <time>2020-09-12T09:35:19Z</time>
      </trkpt>
      <trkpt lat="40.9762920" lon="-2.5759780">
        <ele>1110.0</ele>
        <time>2020-09-12T09:35:20Z</time>
      </trkpt>
      <trkpt lat="40.9763110" lon="-2.5760860">
        <ele>1110.0</ele>
        <time>2020-09-12T09:35:21Z</time>
      </trkpt>
      <trkpt lat="40.9763340" lon="-2.5761900">
        <ele>1110.0</ele>
        <time>2020-09-12T09:35:22Z</time>
      </trkpt>
      <trkpt lat="40.9763620" lon="-2.5762930">
        <ele>1110.0</ele>
        <time>2020-09-12T09:35:23Z</time>
      </trkpt>
      <trkpt lat="40.9763910" lon="-2.5763960">
        <ele>1110.0</ele>
        <time>2020-09-12T09:35:24Z</time>
      </trkpt>
      <trkpt lat="40.9764180" lon="-2.5765000">
        <ele>1110.2</ele>
        <time>2020-09-12T09:35:25Z</time>
      </trkpt>
      <trkpt lat="40.9764410" lon="-2.5766050">
        <ele>1110.4</ele>
        <time>2020-09-12T09:35:26Z</time>
      </trkpt>
      <trkpt lat="40.9764620" lon="-2.5767110">
        <ele>1110.4</ele>
        <time>2020-09-12T09:35:27Z</time>
      </trkpt>
      <trkpt lat="40.9764780" lon="-2.5768180">
        <ele>1110.6</ele>
        <time>2020-09-12T09:35:28Z</time>
      </trkpt>
      <trkpt lat="40.9764890" lon="-2.5769270">
        <ele>1110.6</ele>
        <time>2020-09-12T09:35:29Z</time>
      </trkpt>
      <trkpt lat="40.9764980" lon="-2.5770350">
        <ele>1110.6</ele>
        <time>2020-09-12T09:35:30Z</time>
      </trkpt>
      <trkpt lat="40.9765040" lon="-2.5771440">
        <ele>1110.6</ele>
        <time>2020-09-12T09:35:31Z</time>
      </trkpt>
      <trkpt lat="40.9765080" lon="-2.5772540">
        <ele>1110.8</ele>
        <time>2020-09-12T09:35:32Z</time>
      </trkpt>
      <trkpt lat="40.9765120" lon="-2.5773640">
        <ele>1110.8</ele>
        <time>2020-09-12T09:35:33Z</time>
      </trkpt>
      <trkpt lat="40.9765120" lon="-2.5774750">
        <ele>1110.8</ele>
        <time>2020-09-12T09:35:34Z</time>
      </trkpt>
      <trkpt lat="40.9765130" lon="-2.5775870">
        <ele>1110.8</ele>
        <time>2020-09-12T09:35:35Z</time>
      </trkpt>
      <trkpt lat="40.9765110" lon="-2.5777000">
        <ele>1110.8</ele>
        <time>2020-09-12T09:35:36Z</time>
      </trkpt>
      <trkpt lat="40.9765070" lon="-2.5778140">
        <ele>1110.8</ele>
        <time>2020-09-12T09:35:37Z</time>
      </trkpt>
      <trkpt lat="40.9765040" lon="-2.5779260">
        <ele>1110.8</ele>
        <time>2020-09-12T09:35:38Z</time>
      </trkpt>
      <trkpt lat="40.9765010" lon="-2.5780390">
        <ele>1110.6</ele>
        <time>2020-09-12T09:35:39Z</time>
      </trkpt>
      <trkpt lat="40.9764960" lon="-2.5781510">
        <ele>1110.6</ele>
        <time>2020-09-12T09:35:40Z</time>
      </trkpt>
      <trkpt lat="40.9764890" lon="-2.5782650">
        <ele>1110.6</ele>
        <time>2020-09-12T09:35:41Z</time>
      </trkpt>
      <trkpt lat="40.9764800" lon="-2.5783780">
        <ele>1110.6</ele>
        <time>2020-09-12T09:35:42Z</time>
      </trkpt>
      <trkpt lat="40.9764720" lon="-2.5784930">
        <ele>1110.2</ele>
        <time>2020-09-12T09:35:43Z</time>
      </trkpt>
      <trkpt lat="40.9764640" lon="-2.5786110">
        <ele>1110.2</ele>
        <time>2020-09-12T09:35:44Z</time>
      </trkpt>
      <trkpt lat="40.9764610" lon="-2.5787320">
        <ele>1110.2</ele>
        <time>2020-09-12T09:35:45Z</time>
      </trkpt>
      <trkpt lat="40.9764670" lon="-2.5788550">
        <ele>1110.0</ele>
        <time>2020-09-12T09:35:46Z</time>
      </trkpt>
      <trkpt lat="40.9764820" lon="-2.5789770">
        <ele>1109.8</ele>
        <time>2020-09-12T09:35:47Z</time>
      </trkpt>
      <trkpt lat="40.9765030" lon="-2.5790970">
        <ele>1109.8</ele>
        <time>2020-09-12T09:35:48Z</time>
      </trkpt>
      <trkpt lat="40.9765270" lon="-2.5792140">
        <ele>1109.8</ele>
        <time>2020-09-12T09:35:49Z</time>
      </trkpt>
      <trkpt lat="40.9765510" lon="-2.5793300">
        <ele>1109.4</ele>
        <time>2020-09-12T09:35:50Z</time>
      </trkpt>
      <trkpt lat="40.9765760" lon="-2.5794460">
        <ele>1109.0</ele>
        <time>2020-09-12T09:35:51Z</time>
      </trkpt>
      <trkpt lat="40.9766020" lon="-2.5795600">
        <ele>1108.8</ele>
        <time>2020-09-12T09:35:52Z</time>
      </trkpt>
      <trkpt lat="40.9766280" lon="-2.5796740">
        <ele>1108.6</ele>
        <time>2020-09-12T09:35:53Z</time>
      </trkpt>
      <trkpt lat="40.9766530" lon="-2.5797890">
        <ele>1108.6</ele>
        <time>2020-09-12T09:35:54Z</time>
      </trkpt>
      <trkpt lat="40.9766780" lon="-2.5799030">
        <ele>1108.4</ele>
        <time>2020-09-12T09:35:55Z</time>
      </trkpt>
      <trkpt lat="40.9767050" lon="-2.5800160">
        <ele>1108.2</ele>
        <time>2020-09-12T09:35:56Z</time>
      </trkpt>
      <trkpt lat="40.9767310" lon="-2.5801290">
        <ele>1108.0</ele>
        <time>2020-09-12T09:35:57Z</time>
      </trkpt>
      <trkpt lat="40.9767570" lon="-2.5802420">
        <ele>1107.4</ele>
        <time>2020-09-12T09:35:58Z</time>
      </trkpt>
      <trkpt lat="40.9767840" lon="-2.5803570">
        <ele>1107.2</ele>
        <time>2020-09-12T09:35:59Z</time>
      </trkpt>
      <trkpt lat="40.9768100" lon="-2.5804720">
        <ele>1107.0</ele>
        <time>2020-09-12T09:36:00Z</time>
      </trkpt>
      <trkpt lat="40.9768360" lon="-2.5805870">
        <ele>1107.0</ele>
        <time>2020-09-12T09:36:01Z</time>
      </trkpt>
      <trkpt lat="40.9768620" lon="-2.5807000">
        <ele>1107.0</ele>
        <time>2020-09-12T09:36:02Z</time>
      </trkpt>
      <trkpt lat="40.9768910" lon="-2.5808130">
        <ele>1107.2</ele>
        <time>2020-09-12T09:36:03Z</time>
      </trkpt>
      <trkpt lat="40.9769250" lon="-2.5809220">
        <ele>1107.4</ele>
        <time>2020-09-12T09:36:04Z</time>
      </trkpt>
      <trkpt lat="40.9769670" lon="-2.5810260">
        <ele>1107.4</ele>
        <time>2020-09-12T09:36:05Z</time>
      </trkpt>
      <trkpt lat="40.9770160" lon="-2.5811240">
        <ele>1107.4</ele>
        <time>2020-09-12T09:36:06Z</time>
      </trkpt>
      <trkpt lat="40.9770690" lon="-2.5812160">
        <ele>1107.4</ele>
        <time>2020-09-12T09:36:07Z</time>
      </trkpt>
      <trkpt lat="40.9771230" lon="-2.5813060">
        <ele>1107.0</ele>
        <time>2020-09-12T09:36:08Z</time>
      </trkpt>
      <trkpt lat="40.9771750" lon="-2.5813940">
        <ele>1106.8</ele>
        <time>2020-09-12T09:36:09Z</time>
      </trkpt>
      <trkpt lat="40.9772290" lon="-2.5814800">
        <ele>1106.4</ele>
        <time>2020-09-12T09:36:10Z</time>
      </trkpt>
      <trkpt lat="40.9772830" lon="-2.5815670">
        <ele>1106.0</ele>
        <time>2020-09-12T09:36:11Z</time>
      </trkpt>
      <trkpt lat="40.9773390" lon="-2.5816570">
        <ele>1106.0</ele>
        <time>2020-09-12T09:36:12Z</time>
      </trkpt>
      <trkpt lat="40.9773940" lon="-2.5817500">
        <ele>1105.8</ele>
        <time>2020-09-12T09:36:13Z</time>
      </trkpt>
      <trkpt lat="40.9774520" lon="-2.5818480">
        <ele>1105.8</ele>
        <time>2020-09-12T09:36:14Z</time>
      </trkpt>
      <trkpt lat="40.9775110" lon="-2.5819460">
        <ele>1105.8</ele>
        <time>2020-09-12T09:36:15Z</time>
      </trkpt>
      <trkpt lat="40.9775680" lon="-2.5820450">
        <ele>1105.6</ele>
        <time>2020-09-12T09:36:16Z</time>
      </trkpt>
      <trkpt lat="40.9776260" lon="-2.5821400">
        <ele>1105.6</ele>
        <time>2020-09-12T09:36:17Z</time>
      </trkpt>
      <trkpt lat="40.9776830" lon="-2.5822350">
        <ele>1105.4</ele>
        <time>2020-09-12T09:36:18Z</time>
      </trkpt>
      <trkpt lat="40.9777400" lon="-2.5823310">
        <ele>1105.2</ele>
        <time>2020-09-12T09:36:19Z</time>
      </trkpt>
      <trkpt lat="40.9777980" lon="-2.5824250">
        <ele>1105.0</ele>
        <time>2020-09-12T09:36:20Z</time>
      </trkpt>
      <trkpt lat="40.9778550" lon="-2.5825200">
        <ele>1104.8</ele>
        <time>2020-09-12T09:36:21Z</time>
      </trkpt>
      <trkpt lat="40.9779130" lon="-2.5826170">
        <ele>1104.4</ele>
        <time>2020-09-12T09:36:22Z</time>
      </trkpt>
      <trkpt lat="40.9779710" lon="-2.5827160">
        <ele>1104.2</ele>
        <time>2020-09-12T09:36:23Z</time>
      </trkpt>
      <trkpt lat="40.9780290" lon="-2.5828160">
        <ele>1104.0</ele>
        <time>2020-09-12T09:36:24Z</time>
      </trkpt>
      <trkpt lat="40.9780880" lon="-2.5829160">
        <ele>1104.0</ele>
        <time>2020-09-12T09:36:25Z</time>
      </trkpt>
      <trkpt lat="40.9781460" lon="-2.5830160">
        <ele>1104.0</ele>
        <time>2020-09-12T09:36:26Z</time>
      </trkpt>
      <trkpt lat="40.9782030" lon="-2.5831140">
        <ele>1104.0</ele>
        <time>2020-09-12T09:36:27Z</time>
      </trkpt>
      <trkpt lat="40.9782590" lon="-2.5832110">
        <ele>1104.0</ele>
        <time>2020-09-12T09:36:28Z</time>
      </trkpt>
      <trkpt lat="40.9783150" lon="-2.5833080">
        <ele>1104.0</ele>
        <time>2020-09-12T09:36:29Z</time>
      </trkpt>
      <trkpt lat="40.9783710" lon="-2.5834040">
        <ele>1104.0</ele>
        <time>2020-09-12T09:36:30Z</time>
      </trkpt>
      <trkpt lat="40.9784270" lon="-2.5834990">
        <ele>1104.0</ele>
        <time>2020-09-12T09:36:31Z</time>
      </trkpt>
      <trkpt lat="40.9784840" lon="-2.5835940">
        <ele>1104.0</ele>
        <time>2020-09-12T09:36:32Z</time>
      </trkpt>
      <trkpt lat="40.9785430" lon="-2.5836880">
        <ele>1104.0</ele>
        <time>2020-09-12T09:36:33Z</time>
      </trkpt>
      <trkpt lat="40.9786010" lon="-2.5837830">
        <ele>1104.0</ele>
        <time>2020-09-12T09:36:34Z</time>
      </trkpt>
      <trkpt lat="40.9786580" lon="-2.5838800">
        <ele>1104.0</ele>
        <time>2020-09-12T09:36:35Z</time>
      </trkpt>
      <trkpt lat="40.9787140" lon="-2.5839780">
        <ele>1103.8</ele>
        <time>2020-09-12T09:36:36Z</time>
      </trkpt>
      <trkpt lat="40.9787690" lon="-2.5840770">
        <ele>1103.8</ele>
        <time>2020-09-12T09:36:37Z</time>
      </trkpt>
      <trkpt lat="40.9788260" lon="-2.5841740">
        <ele>1103.8</ele>
        <time>2020-09-12T09:36:38Z</time>
      </trkpt>
      <trkpt lat="40.9788810" lon="-2.5842680">
        <ele>1103.6</ele>
        <time>2020-09-12T09:36:39Z</time>
      </trkpt>
      <trkpt lat="40.9789350" lon="-2.5843610">
        <ele>1103.6</ele>
        <time>2020-09-12T09:36:40Z</time>
      </trkpt>
      <trkpt lat="40.9789890" lon="-2.5844530">
        <ele>1103.6</ele>
        <time>2020-09-12T09:36:41Z</time>
      </trkpt>
      <trkpt lat="40.9790440" lon="-2.5845440">
        <ele>1103.4</ele>
        <time>2020-09-12T09:36:42Z</time>
      </trkpt>
      <trkpt lat="40.9790980" lon="-2.5846350">
        <ele>1103.4</ele>
        <time>2020-09-12T09:36:43Z</time>
      </trkpt>
      <trkpt lat="40.9791540" lon="-2.5847270">
        <ele>1103.2</ele>
        <time>2020-09-12T09:36:44Z</time>
      </trkpt>
      <trkpt lat="40.9792110" lon="-2.5848160">
        <ele>1103.2</ele>
        <time>2020-09-12T09:36:45Z</time>
      </trkpt>
      <trkpt lat="40.9792710" lon="-2.5849010">
        <ele>1103.4</ele>
        <time>2020-09-12T09:36:46Z</time>
      </trkpt>
      <trkpt lat="40.9793340" lon="-2.5849860">
        <ele>1103.4</ele>
        <time>2020-09-12T09:36:47Z</time>
      </trkpt>
      <trkpt lat="40.9793980" lon="-2.5850690">
        <ele>1103.4</ele>
        <time>2020-09-12T09:36:48Z</time>
      </trkpt>
      <trkpt lat="40.9794630" lon="-2.5851520">
        <ele>1103.2</ele>
        <time>2020-09-12T09:36:49Z</time>
      </trkpt>
      <trkpt lat="40.9795290" lon="-2.5852340">
        <ele>1103.0</ele>
        <time>2020-09-12T09:36:50Z</time>
      </trkpt>
      <trkpt lat="40.9795930" lon="-2.5853150">
        <ele>1103.0</ele>
        <time>2020-09-12T09:36:51Z</time>
      </trkpt>
      <trkpt lat="40.9796560" lon="-2.5853950">
        <ele>1103.0</ele>
        <time>2020-09-12T09:36:52Z</time>
      </trkpt>
      <trkpt lat="40.9797180" lon="-2.5854740">
        <ele>1103.0</ele>
        <time>2020-09-12T09:36:53Z</time>
      </trkpt>
      <trkpt lat="40.9797750" lon="-2.5855550">
        <ele>1103.0</ele>
        <time>2020-09-12T09:36:54Z</time>
      </trkpt>
      <trkpt lat="40.9798230" lon="-2.5856410">
        <ele>1103.0</ele>
        <time>2020-09-12T09:36:55Z</time>
      </trkpt>
      <trkpt lat="40.9798610" lon="-2.5857310">
        <ele>1103.0</ele>
        <time>2020-09-12T09:36:56Z</time>
      </trkpt>
      <trkpt lat="40.9798880" lon="-2.5858270">
        <ele>1103.2</ele>
        <time>2020-09-12T09:36:57Z</time>
      </trkpt>
      <trkpt lat="40.9799090" lon="-2.5859240">
        <ele>1103.2</ele>
        <time>2020-09-12T09:36:58Z</time>
      </trkpt>
      <trkpt lat="40.9799270" lon="-2.5860220">
        <ele>1103.2</ele>
        <time>2020-09-12T09:36:59Z</time>
      </trkpt>
      <trkpt lat="40.9799430" lon="-2.5861240">
        <ele>1103.4</ele>
        <time>2020-09-12T09:37:00Z</time>
      </trkpt>
      <trkpt lat="40.9799560" lon="-2.5862270">
        <ele>1103.4</ele>
        <time>2020-09-12T09:37:01Z</time>
      </trkpt>
      <trkpt lat="40.9799680" lon="-2.5863300">
        <ele>1103.4</ele>
        <time>2020-09-12T09:37:02Z</time>
      </trkpt>
      <trkpt lat="40.9799780" lon="-2.5864340">
        <ele>1103.6</ele>
        <time>2020-09-12T09:37:03Z</time>
      </trkpt>
      <trkpt lat="40.9799890" lon="-2.5865400">
        <ele>1103.4</ele>
        <time>2020-09-12T09:37:04Z</time>
      </trkpt>
      <trkpt lat="40.9800000" lon="-2.5866490">
        <ele>1103.4</ele>
        <time>2020-09-12T09:37:05Z</time>
      </trkpt>
      <trkpt lat="40.9800110" lon="-2.5867580">
        <ele>1103.4</ele>
        <time>2020-09-12T09:37:06Z</time>
      </trkpt>
      <trkpt lat="40.9800240" lon="-2.5868680">
        <ele>1103.4</ele>
        <time>2020-09-12T09:37:07Z</time>
      </trkpt>
      <trkpt lat="40.9800460" lon="-2.5869760">
        <ele>1103.4</ele>
        <time>2020-09-12T09:37:08Z</time>
      </trkpt>
      <trkpt lat="40.9800850" lon="-2.5870770">
        <ele>1103.2</ele>
        <time>2020-09-12T09:37:09Z</time>
      </trkpt>
      <trkpt lat="40.9801390" lon="-2.5871660">
        <ele>1103.0</ele>
        <time>2020-09-12T09:37:10Z</time>
      </trkpt>
      <trkpt lat="40.9802040" lon="-2.5872390">
        <ele>1102.8</ele>
        <time>2020-09-12T09:37:11Z</time>
      </trkpt>
      <trkpt lat="40.9802760" lon="-2.5872980">
        <ele>1102.8</ele>
        <time>2020-09-12T09:37:12Z</time>
      </trkpt>
      <trkpt lat="40.9803490" lon="-2.5873520">
        <ele>1102.6</ele>
        <time>2020-09-12T09:37:13Z</time>
      </trkpt>
      <trkpt lat="40.9804200" lon="-2.5874040">
        <ele>1102.6</ele>
        <time>2020-09-12T09:37:14Z</time>
      </trkpt>
      <trkpt lat="40.9804900" lon="-2.5874570">
        <ele>1102.6</ele>
        <time>2020-09-12T09:37:15Z</time>
      </trkpt>
      <trkpt lat="40.9805560" lon="-2.5875120">
        <ele>1102.6</ele>
        <time>2020-09-12T09:37:16Z</time>
      </trkpt>
      <trkpt lat="40.9806150" lon="-2.5875730">
        <ele>1102.6</ele>
        <time>2020-09-12T09:37:17Z</time>
      </trkpt>
      <trkpt lat="40.9806680" lon="-2.5876400">
        <ele>1102.4</ele>
        <time>2020-09-12T09:37:18Z</time>
      </trkpt>
      <trkpt lat="40.9807170" lon="-2.5877110">
        <ele>1102.4</ele>
        <time>2020-09-12T09:37:19Z</time>
      </trkpt>
      <trkpt lat="40.9807620" lon="-2.5877850">
        <ele>1102.6</ele>
        <time>2020-09-12T09:37:20Z</time>
      </trkpt>
      <trkpt lat="40.9808070" lon="-2.5878610">
        <ele>1102.6</ele>
        <time>2020-09-12T09:37:21Z</time>
      </trkpt>
      <trkpt lat="40.9808510" lon="-2.5879380">
        <ele>1102.8</ele>
        <time>2020-09-12T09:37:22Z</time>
      </trkpt>
      <trkpt lat="40.9808940" lon="-2.5880170">
        <ele>1102.8</ele>
        <time>2020-09-12T09:37:23Z</time>
      </trkpt>
      <trkpt lat="40.9809380" lon="-2.5880980">
        <ele>1103.2</ele>
        <time>2020-09-12T09:37:24Z</time>
      </trkpt>
      <trkpt lat="40.9809790" lon="-2.5881810">
        <ele>1103.4</ele>
        <time>2020-09-12T09:37:25Z</time>
      </trkpt>
      <trkpt lat="40.9810150" lon="-2.5882670">
        <ele>1103.6</ele>
        <time>2020-09-12T09:37:26Z</time>
      </trkpt>
      <trkpt lat="40.9810490" lon="-2.5883560">
        <ele>1103.8</ele>
        <time>2020-09-12T09:37:27Z</time>
      </trkpt>
      <trkpt lat="40.9810810" lon="-2.5884500">
        <ele>1104.0</ele>
        <time>2020-09-12T09:37:28Z</time>
      </trkpt>
      <trkpt lat="40.9811110" lon="-2.5885470">
        <ele>1104.4</ele>
        <time>2020-09-12T09:37:29Z</time>
      </trkpt>
      <trkpt lat="40.9811390" lon="-2.5886450">
        <ele>1104.6</ele>
        <time>2020-09-12T09:37:30Z</time>
      </trkpt>
      <trkpt lat="40.9811670" lon="-2.5887440">
        <ele>1104.6</ele>
        <time>2020-09-12T09:37:31Z</time>
      </trkpt>
      <trkpt lat="40.9811940" lon="-2.5888450">
        <ele>1104.6</ele>
        <time>2020-09-12T09:37:32Z</time>
      </trkpt>
      <trkpt lat="40.9812190" lon="-2.5889470">
        <ele>1104.6</ele>
        <time>2020-09-12T09:37:33Z</time>
      </trkpt>
      <trkpt lat="40.9812440" lon="-2.5890520">
        <ele>1104.2</ele>
        <time>2020-09-12T09:37:34Z</time>
      </trkpt>
      <trkpt lat="40.9812690" lon="-2.5891580">
        <ele>1103.8</ele>
        <time>2020-09-12T09:37:35Z</time>
      </trkpt>
      <trkpt lat="40.9812910" lon="-2.5892650">
        <ele>1103.4</ele>
        <time>2020-09-12T09:37:36Z</time>
      </trkpt>
      <trkpt lat="40.9813090" lon="-2.5893740">
        <ele>1102.8</ele>
        <time>2020-09-12T09:37:37Z</time>
      </trkpt>
      <trkpt lat="40.9813210" lon="-2.5894840">
        <ele>1102.2</ele>
        <time>2020-09-12T09:37:38Z</time>
      </trkpt>
      <trkpt lat="40.9813280" lon="-2.5895930">
        <ele>1101.6</ele>
        <time>2020-09-12T09:37:39Z</time>
      </trkpt>
      <trkpt lat="40.9813330" lon="-2.5897020">
        <ele>1101.0</ele>
        <time>2020-09-12T09:37:40Z</time>
      </trkpt>
      <trkpt lat="40.9813360" lon="-2.5898110">
        <ele>1100.6</ele>
        <time>2020-09-12T09:37:41Z</time>
      </trkpt>
      <trkpt lat="40.9813340" lon="-2.5899190">
        <ele>1100.4</ele>
        <time>2020-09-12T09:37:42Z</time>
      </trkpt>
      <trkpt lat="40.9813300" lon="-2.5900270">
        <ele>1100.2</ele>
        <time>2020-09-12T09:37:43Z</time>
      </trkpt>
      <trkpt lat="40.9813260" lon="-2.5901350">
        <ele>1100.0</ele>
        <time>2020-09-12T09:37:44Z</time>
      </trkpt>
      <trkpt lat="40.9813200" lon="-2.5902440">
        <ele>1100.0</ele>
        <time>2020-09-12T09:37:45Z</time>
      </trkpt>
      <trkpt lat="40.9813140" lon="-2.5903530">
        <ele>1099.8</ele>
        <time>2020-09-12T09:37:46Z</time>
      </trkpt>
      <trkpt lat="40.9813090" lon="-2.5904610">
        <ele>1099.6</ele>
        <time>2020-09-12T09:37:47Z</time>
      </trkpt>
      <trkpt lat="40.9813060" lon="-2.5905700">
        <ele>1099.4</ele>
        <time>2020-09-12T09:37:48Z</time>
      </trkpt>
      <trkpt lat="40.9813050" lon="-2.5906780">
        <ele>1099.4</ele>
        <time>2020-09-12T09:37:49Z</time>
      </trkpt>
      <trkpt lat="40.9813040" lon="-2.5907850">
        <ele>1099.2</ele>
        <time>2020-09-12T09:37:50Z</time>
      </trkpt>
      <trkpt lat="40.9813010" lon="-2.5908920">
        <ele>1099.0</ele>
        <time>2020-09-12T09:37:51Z</time>
      </trkpt>
      <trkpt lat="40.9812960" lon="-2.5909950">
        <ele>1098.8</ele>
        <time>2020-09-12T09:37:52Z</time>
      </trkpt>
      <trkpt lat="40.9812880" lon="-2.5910960">
        <ele>1098.6</ele>
        <time>2020-09-12T09:37:53Z</time>
      </trkpt>
      <trkpt lat="40.9812770" lon="-2.5911940">
        <ele>1098.4</ele>
        <time>2020-09-12T09:37:54Z</time>
      </trkpt>
      <trkpt lat="40.9812650" lon="-2.5912920">
        <ele>1098.2</ele>
        <time>2020-09-12T09:37:55Z</time>
      </trkpt>
      <trkpt lat="40.9812560" lon="-2.5913900">
        <ele>1098.2</ele>
        <time>2020-09-12T09:37:56Z</time>
      </trkpt>
      <trkpt lat="40.9812510" lon="-2.5914870">
        <ele>1098.2</ele>
        <time>2020-09-12T09:37:57Z</time>
      </trkpt>
      <trkpt lat="40.9812500" lon="-2.5915860">
        <ele>1098.2</ele>
        <time>2020-09-12T09:37:58Z</time>
      </trkpt>
      <trkpt lat="40.9812490" lon="-2.5916880">
        <ele>1098.2</ele>
        <time>2020-09-12T09:37:59Z</time>
      </trkpt>
      <trkpt lat="40.9812510" lon="-2.5917900">
        <ele>1098.2</ele>
        <time>2020-09-12T09:38:00Z</time>
      </trkpt>
      <trkpt lat="40.9812560" lon="-2.5918900">
        <ele>1098.2</ele>
        <time>2020-09-12T09:38:01Z</time>
      </trkpt>
      <trkpt lat="40.9812620" lon="-2.5919890">
        <ele>1098.2</ele>
        <time>2020-09-12T09:38:02Z</time>
      </trkpt>
      <trkpt lat="40.9812680" lon="-2.5920850">
        <ele>1098.0</ele>
        <time>2020-09-12T09:38:03Z</time>
      </trkpt>
      <trkpt lat="40.9812720" lon="-2.5921740">
        <ele>1097.6</ele>
        <time>2020-09-12T09:38:04Z</time>
      </trkpt>
      <trkpt lat="40.9812750" lon="-2.5922580">
        <ele>1097.2</ele>
        <time>2020-09-12T09:38:05Z</time>
      </trkpt>
      <trkpt lat="40.9812810" lon="-2.5923400">
        <ele>1096.8</ele>
        <time>2020-09-12T09:38:06Z</time>
      </trkpt>
      <trkpt lat="40.9812950" lon="-2.5924240">
        <ele>1096.6</ele>
        <time>2020-09-12T09:38:07Z</time>
      </trkpt>
      <trkpt lat="40.9813210" lon="-2.5925060">
        <ele>1096.2</ele>
        <time>2020-09-12T09:38:08Z</time>
      </trkpt>
      <trkpt lat="40.9813580" lon="-2.5925830">
        <ele>1096.0</ele>
        <time>2020-09-12T09:38:09Z</time>
      </trkpt>
      <trkpt lat="40.9813960" lon="-2.5926590">
        <ele>1095.8</ele>
        <time>2020-09-12T09:38:10Z</time>
      </trkpt>
      <trkpt lat="40.9814330" lon="-2.5927370">
        <ele>1095.8</ele>
        <time>2020-09-12T09:38:11Z</time>
      </trkpt>
      <trkpt lat="40.9814670" lon="-2.5928160">
        <ele>1095.8</ele>
        <time>2020-09-12T09:38:12Z</time>
      </trkpt>
      <trkpt lat="40.9814990" lon="-2.5928940">
        <ele>1095.8</ele>
        <time>2020-09-12T09:38:13Z</time>
      </trkpt>
      <trkpt lat="40.9815360" lon="-2.5929700">
        <ele>1095.8</ele>
        <time>2020-09-12T09:38:14Z</time>
      </trkpt>
      <trkpt lat="40.9815780" lon="-2.5930420">
        <ele>1096.0</ele>
        <time>2020-09-12T09:38:15Z</time>
      </trkpt>
      <trkpt lat="40.9816240" lon="-2.5931100">
        <ele>1096.0</ele>
        <time>2020-09-12T09:38:16Z</time>
      </trkpt>
      <trkpt lat="40.9816740" lon="-2.5931760">
        <ele>1096.2</ele>
        <time>2020-09-12T09:38:17Z</time>
      </trkpt>
      <trkpt lat="40.9817230" lon="-2.5932420">
        <ele>1096.6</ele>
        <time>2020-09-12T09:38:18Z</time>
      </trkpt>
      <trkpt lat="40.9817720" lon="-2.5933080">
        <ele>1097.0</ele>
        <time>2020-09-12T09:38:19Z</time>
      </trkpt>
      <trkpt lat="40.9818210" lon="-2.5933730">
        <ele>1097.2</ele>
        <time>2020-09-12T09:38:20Z</time>
      </trkpt>
      <trkpt lat="40.9818720" lon="-2.5934360">
        <ele>1097.4</ele>
        <time>2020-09-12T09:38:21Z</time>
      </trkpt>
      <trkpt lat="40.9819230" lon="-2.5934980">
        <ele>1097.6</ele>
        <time>2020-09-12T09:38:22Z</time>
      </trkpt>
      <trkpt lat="40.9819730" lon="-2.5935620">
        <ele>1097.6</ele>
        <time>2020-09-12T09:38:23Z</time>
      </trkpt>
      <trkpt lat="40.9820210" lon="-2.5936290">
        <ele>1097.6</ele>
        <time>2020-09-12T09:38:24Z</time>
      </trkpt>
      <trkpt lat="40.9820690" lon="-2.5936970">
        <ele>1097.4</ele>
        <time>2020-09-12T09:38:25Z</time>
      </trkpt>
      <trkpt lat="40.9821160" lon="-2.5937670">
        <ele>1097.6</ele>
        <time>2020-09-12T09:38:26Z</time>
      </trkpt>
      <trkpt lat="40.9821630" lon="-2.5938410">
        <ele>1097.6</ele>
        <time>2020-09-12T09:38:27Z</time>
      </trkpt>
      <trkpt lat="40.9822090" lon="-2.5939170">
        <ele>1097.6</ele>
        <time>2020-09-12T09:38:28Z</time>
      </trkpt>
      <trkpt lat="40.9822540" lon="-2.5939920">
        <ele>1097.8</ele>
        <time>2020-09-12T09:38:29Z</time>
      </trkpt>
      <trkpt lat="40.9822980" lon="-2.5940670">
        <ele>1097.8</ele>
        <time>2020-09-12T09:38:30Z</time>
      </trkpt>
      <trkpt lat="40.9823410" lon="-2.5941400">
        <ele>1098.0</ele>
        <time>2020-09-12T09:38:31Z</time>
      </trkpt>
      <trkpt lat="40.9823830" lon="-2.5942110">
        <ele>1098.2</ele>
        <time>2020-09-12T09:38:32Z</time>
      </trkpt>
      <trkpt lat="40.9824250" lon="-2.5942810">
        <ele>1098.4</ele>
        <time>2020-09-12T09:38:33Z</time>
      </trkpt>
      <trkpt lat="40.9824670" lon="-2.5943490">
        <ele>1098.6</ele>
        <time>2020-09-12T09:38:34Z</time>
      </trkpt>
      <trkpt lat="40.9825070" lon="-2.5944190">
        <ele>1098.6</ele>
        <time>2020-09-12T09:38:35Z</time>
      </trkpt>
      <trkpt lat="40.9825460" lon="-2.5944890">
        <ele>1098.6</ele>
        <time>2020-09-12T09:38:36Z</time>
      </trkpt>
      <trkpt lat="40.9825830" lon="-2.5945600">
        <ele>1098.6</ele>
        <time>2020-09-12T09:38:37Z</time>
      </trkpt>
      <trkpt lat="40.9826180" lon="-2.5946310">
        <ele>1098.8</ele>
        <time>2020-09-12T09:38:38Z</time>
      </trkpt>
      <trkpt lat="40.9826480" lon="-2.5947040">
        <ele>1099.0</ele>
        <time>2020-09-12T09:38:39Z</time>
      </trkpt>
      <trkpt lat="40.9826740" lon="-2.5947790">
        <ele>1099.2</ele>
        <time>2020-09-12T09:38:40Z</time>
      </trkpt>
      <trkpt lat="40.9826970" lon="-2.5948550">
        <ele>1099.2</ele>
        <time>2020-09-12T09:38:41Z</time>
      </trkpt>
      <trkpt lat="40.9827180" lon="-2.5949330">
        <ele>1099.4</ele>
        <time>2020-09-12T09:38:42Z</time>
      </trkpt>
      <trkpt lat="40.9827380" lon="-2.5950100">
        <ele>1099.4</ele>
        <time>2020-09-12T09:38:43Z</time>
      </trkpt>
      <trkpt lat="40.9827570" lon="-2.5950890">
        <ele>1099.4</ele>
        <time>2020-09-12T09:38:44Z</time>
      </trkpt>
      <trkpt lat="40.9827790" lon="-2.5951670">
        <ele>1099.4</ele>
        <time>2020-09-12T09:38:45Z</time>
      </trkpt>
      <trkpt lat="40.9828060" lon="-2.5952430">
        <ele>1099.6</ele>
        <time>2020-09-12T09:38:46Z</time>
      </trkpt>
      <trkpt lat="40.9828370" lon="-2.5953160">
        <ele>1099.8</ele>
        <time>2020-09-12T09:38:47Z</time>
      </trkpt>
      <trkpt lat="40.9828710" lon="-2.5953880">
        <ele>1100.2</ele>
        <time>2020-09-12T09:38:48Z</time>
      </trkpt>
      <trkpt lat="40.9829080" lon="-2.5954560">
        <ele>1100.4</ele>
        <time>2020-09-12T09:38:49Z</time>
      </trkpt>
      <trkpt lat="40.9829480" lon="-2.5955230">
        <ele>1100.6</ele>
        <time>2020-09-12T09:38:50Z</time>
      </trkpt>
      <trkpt lat="40.9829880" lon="-2.5955910">
        <ele>1100.8</ele>
        <time>2020-09-12T09:38:51Z</time>
      </trkpt>
      <trkpt lat="40.9830290" lon="-2.5956620">
        <ele>1101.0</ele>
        <time>2020-09-12T09:38:52Z</time>
      </trkpt>
      <trkpt lat="40.9830700" lon="-2.5957340">
        <ele>1101.2</ele>
        <time>2020-09-12T09:38:53Z</time>
      </trkpt>
      <trkpt lat="40.9831110" lon="-2.5958070">
        <ele>1101.2</ele>
        <time>2020-09-12T09:38:54Z</time>
      </trkpt>
      <trkpt lat="40.9831530" lon="-2.5958830">
        <ele>1101.2</ele>
        <time>2020-09-12T09:38:55Z</time>
      </trkpt>
      <trkpt lat="40.9831950" lon="-2.5959580">
        <ele>1101.2</ele>
        <time>2020-09-12T09:38:56Z</time>
      </trkpt>
      <trkpt lat="40.9832400" lon="-2.5960340">
        <ele>1101.2</ele>
        <time>2020-09-12T09:38:57Z</time>
      </trkpt>
      <trkpt lat="40.9832850" lon="-2.5961130">
        <ele>1101.2</ele>
        <time>2020-09-12T09:38:58Z</time>
      </trkpt>
      <trkpt lat="40.9833260" lon="-2.5961960">
        <ele>1101.0</ele>
        <time>2020-09-12T09:38:59Z</time>
      </trkpt>
      <trkpt lat="40.9833630" lon="-2.5962870">
        <ele>1100.8</ele>
        <time>2020-09-12T09:39:00Z</time>
      </trkpt>
      <trkpt lat="40.9833930" lon="-2.5963830">
        <ele>1100.6</ele>
        <time>2020-09-12T09:39:01Z</time>
      </trkpt>
      <trkpt lat="40.9834130" lon="-2.5964860">
        <ele>1100.6</ele>
        <time>2020-09-12T09:39:02Z</time>
      </trkpt>
      <trkpt lat="40.9834240" lon="-2.5965950">
        <ele>1100.4</ele>
        <time>2020-09-12T09:39:03Z</time>
      </trkpt>
      <trkpt lat="40.9834300" lon="-2.5967080">
        <ele>1100.2</ele>
        <time>2020-09-12T09:39:04Z</time>
      </trkpt>
      <trkpt lat="40.9834330" lon="-2.5968250">
        <ele>1100.2</ele>
        <time>2020-09-12T09:39:05Z</time>
      </trkpt>
      <trkpt lat="40.9834340" lon="-2.5969450">
        <ele>1099.8</ele>
        <time>2020-09-12T09:39:06Z</time>
      </trkpt>
      <trkpt lat="40.9834380" lon="-2.5970670">
        <ele>1099.6</ele>
        <time>2020-09-12T09:39:07Z</time>
      </trkpt>
      <trkpt lat="40.9834410" lon="-2.5971940">
        <ele>1099.2</ele>
        <time>2020-09-12T09:39:08Z</time>
      </trkpt>
      <trkpt lat="40.9834470" lon="-2.5973240">
        <ele>1098.6</ele>
        <time>2020-09-12T09:39:09Z</time>
      </trkpt>
      <trkpt lat="40.9834530" lon="-2.5974560">
        <ele>1098.0</ele>
        <time>2020-09-12T09:39:10Z</time>
      </trkpt>
      <trkpt lat="40.9834590" lon="-2.5975870">
        <ele>1097.4</ele>
        <time>2020-09-12T09:39:11Z</time>
      </trkpt>
      <trkpt lat="40.9834670" lon="-2.5977170">
        <ele>1096.8</ele>
        <time>2020-09-12T09:39:12Z</time>
      </trkpt>
      <trkpt lat="40.9834780" lon="-2.5978470">
        <ele>1096.2</ele>
        <time>2020-09-12T09:39:13Z</time>
      </trkpt>
      <trkpt lat="40.9834940" lon="-2.5979730">
        <ele>1095.8</ele>
        <time>2020-09-12T09:39:14Z</time>
      </trkpt>
      <trkpt lat="40.9835190" lon="-2.5980960">
        <ele>1095.2</ele>
        <time>2020-09-12T09:39:15Z</time>
      </trkpt>
      <trkpt lat="40.9835540" lon="-2.5982120">
        <ele>1094.8</ele>
        <time>2020-09-12T09:39:16Z</time>
      </trkpt>
      <trkpt lat="40.9836000" lon="-2.5983230">
        <ele>1094.6</ele>
        <time>2020-09-12T09:39:17Z</time>
      </trkpt>
      <trkpt lat="40.9836510" lon="-2.5984310">
        <ele>1094.4</ele>
        <time>2020-09-12T09:39:18Z</time>
      </trkpt>
      <trkpt lat="40.9837030" lon="-2.5985360">
        <ele>1094.4</ele>
        <time>2020-09-12T09:39:19Z</time>
      </trkpt>
      <trkpt lat="40.9837560" lon="-2.5986390">
        <ele>1094.0</ele>
        <time>2020-09-12T09:39:20Z</time>
      </trkpt>
      <trkpt lat="40.9838080" lon="-2.5987380">
        <ele>1094.0</ele>
        <time>2020-09-12T09:39:21Z</time>
      </trkpt>
      <trkpt lat="40.9838600" lon="-2.5988360">
        <ele>1094.0</ele>
        <time>2020-09-12T09:39:22Z</time>
      </trkpt>
      <trkpt lat="40.9839120" lon="-2.5989340">
        <ele>1094.0</ele>
        <time>2020-09-12T09:39:23Z</time>
      </trkpt>
      <trkpt lat="40.9839630" lon="-2.5990330">
        <ele>1094.0</ele>
        <time>2020-09-12T09:39:24Z</time>
      </trkpt>
      <trkpt lat="40.9840120" lon="-2.5991320">
        <ele>1094.0</ele>
        <time>2020-09-12T09:39:25Z</time>
      </trkpt>
      <trkpt lat="40.9840590" lon="-2.5992310">
        <ele>1093.8</ele>
        <time>2020-09-12T09:39:26Z</time>
      </trkpt>
      <trkpt lat="40.9841060" lon="-2.5993290">
        <ele>1093.8</ele>
        <time>2020-09-12T09:39:27Z</time>
      </trkpt>
      <trkpt lat="40.9841540" lon="-2.5994230">
        <ele>1093.6</ele>
        <time>2020-09-12T09:39:28Z</time>
      </trkpt>
      <trkpt lat="40.9842020" lon="-2.5995180">
        <ele>1093.6</ele>
        <time>2020-09-12T09:39:29Z</time>
      </trkpt>
      <trkpt lat="40.9842480" lon="-2.5996140">
        <ele>1093.4</ele>
        <time>2020-09-12T09:39:30Z</time>
      </trkpt>
      <trkpt lat="40.9842880" lon="-2.5997120">
        <ele>1093.4</ele>
        <time>2020-09-12T09:39:31Z</time>
      </trkpt>
      <trkpt lat="40.9843230" lon="-2.5998120">
        <ele>1093.4</ele>
        <time>2020-09-12T09:39:32Z</time>
      </trkpt>
      <trkpt lat="40.9843560" lon="-2.5999130">
        <ele>1093.4</ele>
        <time>2020-09-12T09:39:33Z</time>
      </trkpt>
      <trkpt lat="40.9843870" lon="-2.6000140">
        <ele>1093.4</ele>
        <time>2020-09-12T09:39:34Z</time>
      </trkpt>
      <trkpt lat="40.9844170" lon="-2.6001140">
        <ele>1093.4</ele>
        <time>2020-09-12T09:39:35Z</time>
      </trkpt>
      <trkpt lat="40.9844450" lon="-2.6002150">
        <ele>1093.6</ele>
        <time>2020-09-12T09:39:36Z</time>
      </trkpt>
      <trkpt lat="40.9844730" lon="-2.6003180">
        <ele>1093.6</ele>
        <time>2020-09-12T09:39:37Z</time>
      </trkpt>
      <trkpt lat="40.9844990" lon="-2.6004210">
        <ele>1093.4</ele>
        <time>2020-09-12T09:39:38Z</time>
      </trkpt>
      <trkpt lat="40.9845250" lon="-2.6005260">
        <ele>1093.4</ele>
        <time>2020-09-12T09:39:39Z</time>
      </trkpt>
      <trkpt lat="40.9845510" lon="-2.6006310">
        <ele>1093.6</ele>
        <time>2020-09-12T09:39:40Z</time>
      </trkpt>
      <trkpt lat="40.9845790" lon="-2.6007340">
        <ele>1093.6</ele>
        <time>2020-09-12T09:39:41Z</time>
      </trkpt>
      <trkpt lat="40.9846050" lon="-2.6008370">
        <ele>1093.6</ele>
        <time>2020-09-12T09:39:42Z</time>
      </trkpt>
      <trkpt lat="40.9846310" lon="-2.6009370">
        <ele>1093.6</ele>
        <time>2020-09-12T09:39:43Z</time>
      </trkpt>
      <trkpt lat="40.9846560" lon="-2.6010380">
        <ele>1093.6</ele>
        <time>2020-09-12T09:39:44Z</time>
      </trkpt>
      <trkpt lat="40.9846810" lon="-2.6011390">
        <ele>1093.6</ele>
        <time>2020-09-12T09:39:45Z</time>
      </trkpt>
      <trkpt lat="40.9847060" lon="-2.6012430">
        <ele>1093.4</ele>
        <time>2020-09-12T09:39:46Z</time>
      </trkpt>
      <trkpt lat="40.9847310" lon="-2.6013490">
        <ele>1093.0</ele>
        <time>2020-09-12T09:39:47Z</time>
      </trkpt>
      <trkpt lat="40.9847570" lon="-2.6014570">
        <ele>1092.6</ele>
        <time>2020-09-12T09:39:48Z</time>
      </trkpt>
      <trkpt lat="40.9847840" lon="-2.6015670">
        <ele>1092.2</ele>
        <time>2020-09-12T09:39:49Z</time>
      </trkpt>
      <trkpt lat="40.9848110" lon="-2.6016780">
        <ele>1091.8</ele>
        <time>2020-09-12T09:39:50Z</time>
      </trkpt>
      <trkpt lat="40.9848360" lon="-2.6017880">
        <ele>1091.8</ele>
        <time>2020-09-12T09:39:51Z</time>
      </trkpt>
      <trkpt lat="40.9848630" lon="-2.6018990">
        <ele>1091.8</ele>
        <time>2020-09-12T09:39:52Z</time>
      </trkpt>
      <trkpt lat="40.9848890" lon="-2.6020100">
        <ele>1091.8</ele>
        <time>2020-09-12T09:39:53Z</time>
      </trkpt>
      <trkpt lat="40.9849150" lon="-2.6021220">
        <ele>1091.8</ele>
        <time>2020-09-12T09:39:54Z</time>
      </trkpt>
      <trkpt lat="40.9849410" lon="-2.6022380">
        <ele>1091.6</ele>
        <time>2020-09-12T09:39:55Z</time>
      </trkpt>
      <trkpt lat="40.9849640" lon="-2.6023560">
        <ele>1091.6</ele>
        <time>2020-09-12T09:39:56Z</time>
      </trkpt>
      <trkpt lat="40.9849870" lon="-2.6024750">
        <ele>1091.6</ele>
        <time>2020-09-12T09:39:57Z</time>
      </trkpt>
      <trkpt lat="40.9850110" lon="-2.6025930">
        <ele>1091.4</ele>
        <time>2020-09-12T09:39:58Z</time>
      </trkpt>
      <trkpt lat="40.9850350" lon="-2.6027100">
        <ele>1091.2</ele>
        <time>2020-09-12T09:39:59Z</time>
      </trkpt>
      <trkpt lat="40.9850590" lon="-2.6028260">
        <ele>1091.2</ele>
        <time>2020-09-12T09:40:00Z</time>
      </trkpt>
      <trkpt lat="40.9850830" lon="-2.6029410">
        <ele>1091.0</ele>
        <time>2020-09-12T09:40:01Z</time>
      </trkpt>
      <trkpt lat="40.9851060" lon="-2.6030570">
        <ele>1091.0</ele>
        <time>2020-09-12T09:40:02Z</time>
      </trkpt>
      <trkpt lat="40.9851290" lon="-2.6031750">
        <ele>1090.6</ele>
        <time>2020-09-12T09:40:03Z</time>
      </trkpt>
      <trkpt lat="40.9851530" lon="-2.6032930">
        <ele>1090.2</ele>
        <time>2020-09-12T09:40:04Z</time>
      </trkpt>
      <trkpt lat="40.9851760" lon="-2.6034130">
        <ele>1090.0</ele>
        <time>2020-09-12T09:40:05Z</time>
      </trkpt>
      <trkpt lat="40.9852010" lon="-2.6035320">
        <ele>1089.8</ele>
        <time>2020-09-12T09:40:06Z</time>
      </trkpt>
      <trkpt lat="40.9852270" lon="-2.6036500">
        <ele>1089.4</ele>
        <time>2020-09-12T09:40:07Z</time>
      </trkpt>
      <trkpt lat="40.9852550" lon="-2.6037680">
        <ele>1089.2</ele>
        <time>2020-09-12T09:40:08Z</time>
      </trkpt>
      <trkpt lat="40.9852860" lon="-2.6038830">
        <ele>1089.0</ele>
        <time>2020-09-12T09:40:09Z</time>
      </trkpt>
      <trkpt lat="40.9853210" lon="-2.6039960">
        <ele>1088.8</ele>
        <time>2020-09-12T09:40:10Z</time>
      </trkpt>
      <trkpt lat="40.9853580" lon="-2.6041060">
        <ele>1088.6</ele>
        <time>2020-09-12T09:40:11Z</time>
      </trkpt>
      <trkpt lat="40.9853980" lon="-2.6042160">
        <ele>1088.4</ele>
        <time>2020-09-12T09:40:12Z</time>
      </trkpt>
      <trkpt lat="40.9854400" lon="-2.6043240">
        <ele>1088.2</ele>
        <time>2020-09-12T09:40:13Z</time>
      </trkpt>
      <trkpt lat="40.9854830" lon="-2.6044310">
        <ele>1088.0</ele>
        <time>2020-09-12T09:40:14Z</time>
      </trkpt>
      <trkpt lat="40.9855280" lon="-2.6045360">
        <ele>1087.8</ele>
        <time>2020-09-12T09:40:15Z</time>
      </trkpt>
      <trkpt lat="40.9855720" lon="-2.6046400">
        <ele>1087.8</ele>
        <time>2020-09-12T09:40:16Z</time>
      </trkpt>
      <trkpt lat="40.9856150" lon="-2.6047440">
        <ele>1087.6</ele>
        <time>2020-09-12T09:40:17Z</time>
      </trkpt>
      <trkpt lat="40.9856580" lon="-2.6048480">
        <ele>1087.6</ele>
        <time>2020-09-12T09:40:18Z</time>
      </trkpt>
      <trkpt lat="40.9857000" lon="-2.6049500">
        <ele>1087.4</ele>
        <time>2020-09-12T09:40:19Z</time>
      </trkpt>
      <trkpt lat="40.9857420" lon="-2.6050510">
        <ele>1087.4</ele>
        <time>2020-09-12T09:40:20Z</time>
      </trkpt>
      <trkpt lat="40.9857840" lon="-2.6051500">
        <ele>1087.2</ele>
        <time>2020-09-12T09:40:21Z</time>
      </trkpt>
      <trkpt lat="40.9858270" lon="-2.6052480">
        <ele>1087.0</ele>
        <time>2020-09-12T09:40:22Z</time>
      </trkpt>
      <trkpt lat="40.9858720" lon="-2.6053440">
        <ele>1086.8</ele>
        <time>2020-09-12T09:40:23Z</time>
      </trkpt>
      <trkpt lat="40.9859210" lon="-2.6054360">
        <ele>1086.6</ele>
        <time>2020-09-12T09:40:24Z</time>
      </trkpt>
      <trkpt lat="40.9859770" lon="-2.6055210">
        <ele>1086.4</ele>
        <time>2020-09-12T09:40:25Z</time>
      </trkpt>
      <trkpt lat="40.9860360" lon="-2.6055990">
        <ele>1086.2</ele>
        <time>2020-09-12T09:40:26Z</time>
      </trkpt>
      <trkpt lat="40.9860930" lon="-2.6056790">
        <ele>1086.0</ele>
        <time>2020-09-12T09:40:27Z</time>
      </trkpt>
      <trkpt lat="40.9861400" lon="-2.6057700">
        <ele>1085.8</ele>
        <time>2020-09-12T09:40:28Z</time>
      </trkpt>
      <trkpt lat="40.9861710" lon="-2.6058740">
        <ele>1085.6</ele>
        <time>2020-09-12T09:40:29Z</time>
      </trkpt>
      <trkpt lat="40.9861910" lon="-2.6059880">
        <ele>1085.4</ele>
        <time>2020-09-12T09:40:30Z</time>
      </trkpt>
      <trkpt lat="40.9862090" lon="-2.6061040">
        <ele>1085.0</ele>
        <time>2020-09-12T09:40:31Z</time>
      </trkpt>
      <trkpt lat="40.9862330" lon="-2.6062200">
        <ele>1085.0</ele>
        <time>2020-09-12T09:40:32Z</time>
      </trkpt>
      <trkpt lat="40.9862650" lon="-2.6063330">
        <ele>1084.8</ele>
        <time>2020-09-12T09:40:33Z</time>
      </trkpt>
      <trkpt lat="40.9863050" lon="-2.6064430">
        <ele>1084.6</ele>
        <time>2020-09-12T09:40:34Z</time>
      </trkpt>
      <trkpt lat="40.9863490" lon="-2.6065520">
        <ele>1084.4</ele>
        <time>2020-09-12T09:40:35Z</time>
      </trkpt>
      <trkpt lat="40.9863940" lon="-2.6066620">
        <ele>1084.2</ele>
        <time>2020-09-12T09:40:36Z</time>
      </trkpt>
      <trkpt lat="40.9864410" lon="-2.6067710">
        <ele>1084.2</ele>
        <time>2020-09-12T09:40:37Z</time>
      </trkpt>
      <trkpt lat="40.9864900" lon="-2.6068800">
        <ele>1084.0</ele>
        <time>2020-09-12T09:40:38Z</time>
      </trkpt>
      <trkpt lat="40.9865400" lon="-2.6069880">
        <ele>1084.0</ele>
        <time>2020-09-12T09:40:39Z</time>
      </trkpt>
      <trkpt lat="40.9865920" lon="-2.6070950">
        <ele>1084.0</ele>
        <time>2020-09-12T09:40:40Z</time>
      </trkpt>
      <trkpt lat="40.9866490" lon="-2.6072040">
        <ele>1084.0</ele>
        <time>2020-09-12T09:40:41Z</time>
      </trkpt>
      <trkpt lat="40.9867060" lon="-2.6073050">
        <ele>1083.8</ele>
        <time>2020-09-12T09:40:42Z</time>
      </trkpt>
      <trkpt lat="40.9867720" lon="-2.6073930">
        <ele>1083.6</ele>
        <time>2020-09-12T09:40:43Z</time>
      </trkpt>
      <trkpt lat="40.9868400" lon="-2.6074880">
        <ele>1083.2</ele>
        <time>2020-09-12T09:40:44Z</time>
      </trkpt>
      <trkpt lat="40.9868970" lon="-2.6075740">
        <ele>1083.0</ele>
        <time>2020-09-12T09:40:45Z</time>
      </trkpt>
      <trkpt lat="40.9869550" lon="-2.6076810">
        <ele>1082.8</ele>
        <time>2020-09-12T09:40:46Z</time>
      </trkpt>
      <trkpt lat="40.9870190" lon="-2.6077730">
        <ele>1082.6</ele>
        <time>2020-09-12T09:40:47Z</time>
      </trkpt>
      <trkpt lat="40.9870860" lon="-2.6078600">
        <ele>1082.6</ele>
        <time>2020-09-12T09:40:48Z</time>
      </trkpt>
      <trkpt lat="40.9871560" lon="-2.6079390">
        <ele>1082.6</ele>
        <time>2020-09-12T09:40:49Z</time>
      </trkpt>
      <trkpt lat="40.9872280" lon="-2.6080120">
        <ele>1082.6</ele>
        <time>2020-09-12T09:40:50Z</time>
      </trkpt>
      <trkpt lat="40.9873000" lon="-2.6080820">
        <ele>1082.6</ele>
        <time>2020-09-12T09:40:51Z</time>
      </trkpt>
      <trkpt lat="40.9873710" lon="-2.6081500">
        <ele>1082.6</ele>
        <time>2020-09-12T09:40:52Z</time>
      </trkpt>
      <trkpt lat="40.9874410" lon="-2.6082170">
        <ele>1082.6</ele>
        <time>2020-09-12T09:40:53Z</time>
      </trkpt>
      <trkpt lat="40.9875110" lon="-2.6082810">
        <ele>1082.6</ele>
        <time>2020-09-12T09:40:54Z</time>
      </trkpt>
      <trkpt lat="40.9875790" lon="-2.6083440">
        <ele>1082.8</ele>
        <time>2020-09-12T09:40:55Z</time>
      </trkpt>
      <trkpt lat="40.9876470" lon="-2.6084040">
        <ele>1082.8</ele>
        <time>2020-09-12T09:40:56Z</time>
      </trkpt>
      <trkpt lat="40.9877150" lon="-2.6084610">
        <ele>1083.2</ele>
        <time>2020-09-12T09:40:57Z</time>
      </trkpt>
      <trkpt lat="40.9877810" lon="-2.6085180">
        <ele>1083.2</ele>
        <time>2020-09-12T09:40:58Z</time>
      </trkpt>
      <trkpt lat="40.9878460" lon="-2.6085740">
        <ele>1083.6</ele>
        <time>2020-09-12T09:40:59Z</time>
      </trkpt>
      <trkpt lat="40.9879120" lon="-2.6086260">
        <ele>1084.0</ele>
        <time>2020-09-12T09:41:00Z</time>
      </trkpt>
      <trkpt lat="40.9879770" lon="-2.6086780">
        <ele>1084.4</ele>
        <time>2020-09-12T09:41:01Z</time>
      </trkpt>
      <trkpt lat="40.9880400" lon="-2.6087310">
        <ele>1084.6</ele>
        <time>2020-09-12T09:41:02Z</time>
      </trkpt>
      <trkpt lat="40.9881010" lon="-2.6087850">
        <ele>1084.8</ele>
        <time>2020-09-12T09:41:03Z</time>
      </trkpt>
      <trkpt lat="40.9881630" lon="-2.6088370">
        <ele>1085.0</ele>
        <time>2020-09-12T09:41:04Z</time>
      </trkpt>
      <trkpt lat="40.9882240" lon="-2.6088870">
        <ele>1085.2</ele>
        <time>2020-09-12T09:41:05Z</time>
      </trkpt>
      <trkpt lat="40.9882850" lon="-2.6089360">
        <ele>1085.4</ele>
        <time>2020-09-12T09:41:06Z</time>
      </trkpt>
      <trkpt lat="40.9883460" lon="-2.6089850">
        <ele>1085.6</ele>
        <time>2020-09-12T09:41:07Z</time>
      </trkpt>
      <trkpt lat="40.9884050" lon="-2.6090320">
        <ele>1085.6</ele>
        <time>2020-09-12T09:41:08Z</time>
      </trkpt>
      <trkpt lat="40.9884640" lon="-2.6090780">
        <ele>1085.8</ele>
        <time>2020-09-12T09:41:09Z</time>
      </trkpt>
      <trkpt lat="40.9885230" lon="-2.6091230">
        <ele>1085.8</ele>
        <time>2020-09-12T09:41:10Z</time>
      </trkpt>
      <trkpt lat="40.9885800" lon="-2.6091680">
        <ele>1086.0</ele>
        <time>2020-09-12T09:41:11Z</time>
      </trkpt>
      <trkpt lat="40.9886360" lon="-2.6092120">
        <ele>1086.2</ele>
        <time>2020-09-12T09:41:12Z</time>
      </trkpt>
      <trkpt lat="40.9886920" lon="-2.6092530">
        <ele>1086.6</ele>
        <time>2020-09-12T09:41:13Z</time>
      </trkpt>
      <trkpt lat="40.9887480" lon="-2.6092910">
        <ele>1086.8</ele>
        <time>2020-09-12T09:41:14Z</time>
      </trkpt>
      <trkpt lat="40.9888030" lon="-2.6093250">
        <ele>1087.0</ele>
        <time>2020-09-12T09:41:15Z</time>
      </trkpt>
      <trkpt lat="40.9888590" lon="-2.6093560">
        <ele>1087.4</ele>
        <time>2020-09-12T09:41:16Z</time>
      </trkpt>
      <trkpt lat="40.9889150" lon="-2.6093860">
        <ele>1087.6</ele>
        <time>2020-09-12T09:41:17Z</time>
      </trkpt>
      <trkpt lat="40.9889710" lon="-2.6094130">
        <ele>1087.8</ele>
        <time>2020-09-12T09:41:18Z</time>
      </trkpt>
      <trkpt lat="40.9890290" lon="-2.6094360">
        <ele>1088.0</ele>
        <time>2020-09-12T09:41:19Z</time>
      </trkpt>
      <trkpt lat="40.9890890" lon="-2.6094550">
        <ele>1088.0</ele>
        <time>2020-09-12T09:41:20Z</time>
      </trkpt>
      <trkpt lat="40.9891490" lon="-2.6094730">
        <ele>1088.0</ele>
        <time>2020-09-12T09:41:21Z</time>
      </trkpt>
      <trkpt lat="40.9892110" lon="-2.6094910">
        <ele>1088.2</ele>
        <time>2020-09-12T09:41:22Z</time>
      </trkpt>
      <trkpt lat="40.9892730" lon="-2.6095100">
        <ele>1088.4</ele>
        <time>2020-09-12T09:41:23Z</time>
      </trkpt>
      <trkpt lat="40.9893380" lon="-2.6095310">
        <ele>1088.4</ele>
        <time>2020-09-12T09:41:24Z</time>
      </trkpt>
      <trkpt lat="40.9894040" lon="-2.6095540">
        <ele>1088.6</ele>
        <time>2020-09-12T09:41:25Z</time>
      </trkpt>
      <trkpt lat="40.9894710" lon="-2.6095760">
        <ele>1088.8</ele>
        <time>2020-09-12T09:41:26Z</time>
      </trkpt>
      <trkpt lat="40.9895400" lon="-2.6095990">
        <ele>1088.8</ele>
        <time>2020-09-12T09:41:27Z</time>
      </trkpt>
      <trkpt lat="40.9896090" lon="-2.6096250">
        <ele>1088.8</ele>
        <time>2020-09-12T09:41:28Z</time>
      </trkpt>
      <trkpt lat="40.9896770" lon="-2.6096560">
        <ele>1088.8</ele>
        <time>2020-09-12T09:41:29Z</time>
      </trkpt>
      <trkpt lat="40.9897420" lon="-2.6096960">
        <ele>1089.0</ele>
        <time>2020-09-12T09:41:30Z</time>
      </trkpt>
      <trkpt lat="40.9898010" lon="-2.6097450">
        <ele>1088.8</ele>
        <time>2020-09-12T09:41:31Z</time>
      </trkpt>
      <trkpt lat="40.9898530" lon="-2.6098010">
        <ele>1088.8</ele>
        <time>2020-09-12T09:41:32Z</time>
      </trkpt>
      <trkpt lat="40.9899000" lon="-2.6098630">
        <ele>1089.0</ele>
        <time>2020-09-12T09:41:33Z</time>
      </trkpt>
      <trkpt lat="40.9899410" lon="-2.6099280">
        <ele>1089.0</ele>
        <time>2020-09-12T09:41:34Z</time>
      </trkpt>
      <trkpt lat="40.9899800" lon="-2.6099960">
        <ele>1089.2</ele>
        <time>2020-09-12T09:41:35Z</time>
      </trkpt>
      <trkpt lat="40.9900190" lon="-2.6100650">
        <ele>1089.2</ele>
        <time>2020-09-12T09:41:36Z</time>
      </trkpt>
      <trkpt lat="40.9900610" lon="-2.6101330">
        <ele>1089.2</ele>
        <time>2020-09-12T09:41:37Z</time>
      </trkpt>
      <trkpt lat="40.9901090" lon="-2.6101960">
        <ele>1089.4</ele>
        <time>2020-09-12T09:41:38Z</time>
      </trkpt>
      <trkpt lat="40.9901610" lon="-2.6102560">
        <ele>1089.4</ele>
        <time>2020-09-12T09:41:39Z</time>
      </trkpt>
      <trkpt lat="40.9902180" lon="-2.6103120">
        <ele>1089.4</ele>
        <time>2020-09-12T09:41:40Z</time>
      </trkpt>
      <trkpt lat="40.9902810" lon="-2.6103630">
        <ele>1089.2</ele>
        <time>2020-09-12T09:41:41Z</time>
      </trkpt>
      <trkpt lat="40.9903480" lon="-2.6104090">
        <ele>1089.0</ele>
        <time>2020-09-12T09:41:42Z</time>
      </trkpt>
      <trkpt lat="40.9904200" lon="-2.6104500">
        <ele>1088.8</ele>
        <time>2020-09-12T09:41:43Z</time>
      </trkpt>
      <trkpt lat="40.9904940" lon="-2.6104860">
        <ele>1088.6</ele>
        <time>2020-09-12T09:41:44Z</time>
      </trkpt>
      <trkpt lat="40.9905700" lon="-2.6105150">
        <ele>1088.6</ele>
        <time>2020-09-12T09:41:45Z</time>
      </trkpt>
      <trkpt lat="40.9906480" lon="-2.6105420">
        <ele>1088.4</ele>
        <time>2020-09-12T09:41:46Z</time>
      </trkpt>
      <trkpt lat="40.9907250" lon="-2.6105680">
        <ele>1088.4</ele>
        <time>2020-09-12T09:41:47Z</time>
      </trkpt>
      <trkpt lat="40.9908030" lon="-2.6105960">
        <ele>1088.4</ele>
        <time>2020-09-12T09:41:48Z</time>
      </trkpt>
      <trkpt lat="40.9908810" lon="-2.6106250">
        <ele>1088.4</ele>
        <time>2020-09-12T09:41:49Z</time>
      </trkpt>
      <trkpt lat="40.9909570" lon="-2.6106540">
        <ele>1088.6</ele>
        <time>2020-09-12T09:41:50Z</time>
      </trkpt>
      <trkpt lat="40.9910340" lon="-2.6106790">
        <ele>1088.6</ele>
        <time>2020-09-12T09:41:51Z</time>
      </trkpt>
      <trkpt lat="40.9911100" lon="-2.6107030">
        <ele>1088.6</ele>
        <time>2020-09-12T09:41:52Z</time>
      </trkpt>
      <trkpt lat="40.9911870" lon="-2.6107270">
        <ele>1088.8</ele>
        <time>2020-09-12T09:41:53Z</time>
      </trkpt>
      <trkpt lat="40.9912630" lon="-2.6107510">
        <ele>1089.0</ele>
        <time>2020-09-12T09:41:54Z</time>
      </trkpt>
      <trkpt lat="40.9913390" lon="-2.6107750">
        <ele>1088.8</ele>
        <time>2020-09-12T09:41:55Z</time>
      </trkpt>
      <trkpt lat="40.9914170" lon="-2.6107970">
        <ele>1088.6</ele>
        <time>2020-09-12T09:41:56Z</time>
      </trkpt>
      <trkpt lat="40.9914960" lon="-2.6108190">
        <ele>1088.2</ele>
        <time>2020-09-12T09:41:57Z</time>
      </trkpt>
      <trkpt lat="40.9915740" lon="-2.6108410">
        <ele>1088.0</ele>
        <time>2020-09-12T09:41:58Z</time>
      </trkpt>
      <trkpt lat="40.9916530" lon="-2.6108630">
        <ele>1088.0</ele>
        <time>2020-09-12T09:41:59Z</time>
      </trkpt>
      <trkpt lat="40.9917320" lon="-2.6108860">
        <ele>1087.8</ele>
        <time>2020-09-12T09:42:00Z</time>
      </trkpt>
      <trkpt lat="40.9918100" lon="-2.6109110">
        <ele>1087.6</ele>
        <time>2020-09-12T09:42:01Z</time>
      </trkpt>
      <trkpt lat="40.9918890" lon="-2.6109350">
        <ele>1087.4</ele>
        <time>2020-09-12T09:42:02Z</time>
      </trkpt>
      <trkpt lat="40.9919680" lon="-2.6109590">
        <ele>1087.4</ele>
        <time>2020-09-12T09:42:03Z</time>
      </trkpt>
      <trkpt lat="40.9920480" lon="-2.6109840">
        <ele>1087.2</ele>
        <time>2020-09-12T09:42:04Z</time>
      </trkpt>
      <trkpt lat="40.9921270" lon="-2.6110100">
        <ele>1087.0</ele>
        <time>2020-09-12T09:42:05Z</time>
      </trkpt>
      <trkpt lat="40.9922070" lon="-2.6110360">
        <ele>1087.0</ele>
        <time>2020-09-12T09:42:06Z</time>
      </trkpt>
      <trkpt lat="40.9922850" lon="-2.6110620">
        <ele>1087.0</ele>
        <time>2020-09-12T09:42:07Z</time>
      </trkpt>
      <trkpt lat="40.9923630" lon="-2.6110870">
        <ele>1087.2</ele>
        <time>2020-09-12T09:42:08Z</time>
      </trkpt>
      <trkpt lat="40.9924410" lon="-2.6111120">
        <ele>1087.2</ele>
        <time>2020-09-12T09:42:09Z</time>
      </trkpt>
      <trkpt lat="40.9925200" lon="-2.6111380">
        <ele>1087.2</ele>
        <time>2020-09-12T09:42:10Z</time>
      </trkpt>
      <trkpt lat="40.9926000" lon="-2.6111650">
        <ele>1087.0</ele>
        <time>2020-09-12T09:42:11Z</time>
      </trkpt>
      <trkpt lat="40.9926810" lon="-2.6111910">
        <ele>1087.0</ele>
        <time>2020-09-12T09:42:12Z</time>
      </trkpt>
      <trkpt lat="40.9927640" lon="-2.6112150">
        <ele>1087.0</ele>
        <time>2020-09-12T09:42:13Z</time>
      </trkpt>
      <trkpt lat="40.9928480" lon="-2.6112400">
        <ele>1086.6</ele>
        <time>2020-09-12T09:42:14Z</time>
      </trkpt>
      <trkpt lat="40.9929320" lon="-2.6112660">
        <ele>1086.4</ele>
        <time>2020-09-12T09:42:15Z</time>
      </trkpt>
      <trkpt lat="40.9930180" lon="-2.6112920">
        <ele>1086.0</ele>
        <time>2020-09-12T09:42:16Z</time>
      </trkpt>
      <trkpt lat="40.9931040" lon="-2.6113160">
        <ele>1086.0</ele>
        <time>2020-09-12T09:42:17Z</time>
      </trkpt>
      <trkpt lat="40.9931920" lon="-2.6113400">
        <ele>1086.0</ele>
        <time>2020-09-12T09:42:18Z</time>
      </trkpt>
      <trkpt lat="40.9932810" lon="-2.6113660">
        <ele>1086.0</ele>
        <time>2020-09-12T09:42:19Z</time>
      </trkpt>
      <trkpt lat="40.9933720" lon="-2.6113920">
        <ele>1085.8</ele>
        <time>2020-09-12T09:42:20Z</time>
      </trkpt>
      <trkpt lat="40.9934630" lon="-2.6114180">
        <ele>1085.6</ele>
        <time>2020-09-12T09:42:21Z</time>
      </trkpt>
      <trkpt lat="40.9935530" lon="-2.6114440">
        <ele>1085.4</ele>
        <time>2020-09-12T09:42:22Z</time>
      </trkpt>
      <trkpt lat="40.9936440" lon="-2.6114690">
        <ele>1085.2</ele>
        <time>2020-09-12T09:42:23Z</time>
      </trkpt>
      <trkpt lat="40.9937350" lon="-2.6114910">
        <ele>1084.8</ele>
        <time>2020-09-12T09:42:24Z</time>
      </trkpt>
      <trkpt lat="40.9938270" lon="-2.6115100">
        <ele>1084.6</ele>
        <time>2020-09-12T09:42:25Z</time>
      </trkpt>
      <trkpt lat="40.9939180" lon="-2.6115290">
        <ele>1084.4</ele>
        <time>2020-09-12T09:42:26Z</time>
      </trkpt>
      <trkpt lat="40.9940090" lon="-2.6115480">
        <ele>1084.0</ele>
        <time>2020-09-12T09:42:27Z</time>
      </trkpt>
      <trkpt lat="40.9941000" lon="-2.6115660">
        <ele>1083.6</ele>
        <time>2020-09-12T09:42:28Z</time>
      </trkpt>
      <trkpt lat="40.9941900" lon="-2.6115830">
        <ele>1083.2</ele>
        <time>2020-09-12T09:42:29Z</time>
      </trkpt>
      <trkpt lat="40.9942810" lon="-2.6115990">
        <ele>1083.0</ele>
        <time>2020-09-12T09:42:30Z</time>
      </trkpt>
      <trkpt lat="40.9943710" lon="-2.6116150">
        <ele>1083.0</ele>
        <time>2020-09-12T09:42:31Z</time>
      </trkpt>
      <trkpt lat="40.9944600" lon="-2.6116300">
        <ele>1082.8</ele>
        <time>2020-09-12T09:42:32Z</time>
      </trkpt>
      <trkpt lat="40.9945470" lon="-2.6116460">
        <ele>1082.6</ele>
        <time>2020-09-12T09:42:33Z</time>
      </trkpt>
      <trkpt lat="40.9946340" lon="-2.6116610">
        <ele>1082.6</ele>
        <time>2020-09-12T09:42:34Z</time>
      </trkpt>
      <trkpt lat="40.9947200" lon="-2.6116770">
        <ele>1082.4</ele>
        <time>2020-09-12T09:42:35Z</time>
      </trkpt>
      <trkpt lat="40.9948050" lon="-2.6116930">
        <ele>1082.2</ele>
        <time>2020-09-12T09:42:36Z</time>
      </trkpt>
      <trkpt lat="40.9948900" lon="-2.6117080">
        <ele>1082.0</ele>
        <time>2020-09-12T09:42:37Z</time>
      </trkpt>
      <trkpt lat="40.9949730" lon="-2.6117230">
        <ele>1081.8</ele>
        <time>2020-09-12T09:42:38Z</time>
      </trkpt>
      <trkpt lat="40.9950570" lon="-2.6117370">
        <ele>1081.6</ele>
        <time>2020-09-12T09:42:39Z</time>
      </trkpt>
      <trkpt lat="40.9951400" lon="-2.6117510">
        <ele>1081.4</ele>
        <time>2020-09-12T09:42:40Z</time>
      </trkpt>
      <trkpt lat="40.9952220" lon="-2.6117660">
        <ele>1081.2</ele>
        <time>2020-09-12T09:42:41Z</time>
      </trkpt>
      <trkpt lat="40.9953050" lon="-2.6117810">
        <ele>1081.0</ele>
        <time>2020-09-12T09:42:42Z</time>
      </trkpt>
      <trkpt lat="40.9953870" lon="-2.6117970">
        <ele>1081.0</ele>
        <time>2020-09-12T09:42:43Z</time>
      </trkpt>
      <trkpt lat="40.9954690" lon="-2.6118120">
        <ele>1081.0</ele>
        <time>2020-09-12T09:42:44Z</time>
      </trkpt>
      <trkpt lat="40.9955500" lon="-2.6118280">
        <ele>1081.0</ele>
        <time>2020-09-12T09:42:45Z</time>
      </trkpt>
      <trkpt lat="40.9956320" lon="-2.6118440">
        <ele>1081.0</ele>
        <time>2020-09-12T09:42:46Z</time>
      </trkpt>
      <trkpt lat="40.9957150" lon="-2.6118580">
        <ele>1081.0</ele>
        <time>2020-09-12T09:42:47Z</time>
      </trkpt>
      <trkpt lat="40.9957980" lon="-2.6118730">
        <ele>1080.8</ele>
        <time>2020-09-12T09:42:48Z</time>
      </trkpt>
      <trkpt lat="40.9958810" lon="-2.6118880">
        <ele>1080.6</ele>
        <time>2020-09-12T09:42:49Z</time>
      </trkpt>
      <trkpt lat="40.9959650" lon="-2.6119030">
        <ele>1080.4</ele>
        <time>2020-09-12T09:42:50Z</time>
      </trkpt>
      <trkpt lat="40.9960480" lon="-2.6119190">
        <ele>1080.4</ele>
        <time>2020-09-12T09:42:51Z</time>
      </trkpt>
      <trkpt lat="40.9961300" lon="-2.6119340">
        <ele>1080.4</ele>
        <time>2020-09-12T09:42:52Z</time>
      </trkpt>
      <trkpt lat="40.9962120" lon="-2.6119490">
        <ele>1080.4</ele>
        <time>2020-09-12T09:42:53Z</time>
      </trkpt>
      <trkpt lat="40.9962930" lon="-2.6119640">
        <ele>1080.4</ele>
        <time>2020-09-12T09:42:54Z</time>
      </trkpt>
      <trkpt lat="40.9963730" lon="-2.6119800">
        <ele>1080.4</ele>
        <time>2020-09-12T09:42:55Z</time>
      </trkpt>
      <trkpt lat="40.9964540" lon="-2.6119950">
        <ele>1080.4</ele>
        <time>2020-09-12T09:42:56Z</time>
      </trkpt>
      <trkpt lat="40.9965340" lon="-2.6120110">
        <ele>1080.6</ele>
        <time>2020-09-12T09:42:57Z</time>
      </trkpt>
      <trkpt lat="40.9966130" lon="-2.6120260">
        <ele>1080.6</ele>
        <time>2020-09-12T09:42:58Z</time>
      </trkpt>
      <trkpt lat="40.9966920" lon="-2.6120420">
        <ele>1080.6</ele>
        <time>2020-09-12T09:42:59Z</time>
      </trkpt>
      <trkpt lat="40.9967700" lon="-2.6120570">
        <ele>1080.6</ele>
        <time>2020-09-12T09:43:00Z</time>
      </trkpt>
      <trkpt lat="40.9968490" lon="-2.6120730">
        <ele>1080.8</ele>
        <time>2020-09-12T09:43:01Z</time>
      </trkpt>
      <trkpt lat="40.9969260" lon="-2.6120870">
        <ele>1080.8</ele>
        <time>2020-09-12T09:43:02Z</time>
      </trkpt>
      <trkpt lat="40.9970030" lon="-2.6121010">
        <ele>1081.0</ele>
        <time>2020-09-12T09:43:03Z</time>
      </trkpt>
      <trkpt lat="40.9970790" lon="-2.6121160">
        <ele>1081.2</ele>
        <time>2020-09-12T09:43:04Z</time>
      </trkpt>
      <trkpt lat="40.9971540" lon="-2.6121320">
        <ele>1081.2</ele>
        <time>2020-09-12T09:43:05Z</time>
      </trkpt>
      <trkpt lat="40.9972290" lon="-2.6121500">
        <ele>1081.0</ele>
        <time>2020-09-12T09:43:06Z</time>
      </trkpt>
      <trkpt lat="40.9973040" lon="-2.6121690">
        <ele>1081.0</ele>
        <time>2020-09-12T09:43:07Z</time>
      </trkpt>
      <trkpt lat="40.9973770" lon="-2.6121890">
        <ele>1080.8</ele>
        <time>2020-09-12T09:43:08Z</time>
      </trkpt>
      <trkpt lat="40.9974520" lon="-2.6122100">
        <ele>1080.4</ele>
        <time>2020-09-12T09:43:09Z</time>
      </trkpt>
      <trkpt lat="40.9975290" lon="-2.6122320">
        <ele>1080.2</ele>
        <time>2020-09-12T09:43:10Z</time>
      </trkpt>
      <trkpt lat="40.9976080" lon="-2.6122550">
        <ele>1080.0</ele>
        <time>2020-09-12T09:43:11Z</time>
      </trkpt>
      <trkpt lat="40.9976850" lon="-2.6122810">
        <ele>1080.0</ele>
        <time>2020-09-12T09:43:12Z</time>
      </trkpt>
      <trkpt lat="40.9977620" lon="-2.6123080">
        <ele>1080.0</ele>
        <time>2020-09-12T09:43:13Z</time>
      </trkpt>
      <trkpt lat="40.9978360" lon="-2.6123360">
        <ele>1079.8</ele>
        <time>2020-09-12T09:43:14Z</time>
      </trkpt>
      <trkpt lat="40.9979110" lon="-2.6123640">
        <ele>1079.8</ele>
        <time>2020-09-12T09:43:15Z</time>
      </trkpt>
      <trkpt lat="40.9979860" lon="-2.6123890">
        <ele>1079.6</ele>
        <time>2020-09-12T09:43:16Z</time>
      </trkpt>
      <trkpt lat="40.9980610" lon="-2.6124160">
        <ele>1079.6</ele>
        <time>2020-09-12T09:43:17Z</time>
      </trkpt>
      <trkpt lat="40.9981370" lon="-2.6124430">
        <ele>1079.4</ele>
        <time>2020-09-12T09:43:18Z</time>
      </trkpt>
      <trkpt lat="40.9982140" lon="-2.6124680">
        <ele>1079.4</ele>
        <time>2020-09-12T09:43:19Z</time>
      </trkpt>
      <trkpt lat="40.9982920" lon="-2.6124930">
        <ele>1079.2</ele>
        <time>2020-09-12T09:43:20Z</time>
      </trkpt>
      <trkpt lat="40.9983690" lon="-2.6125190">
        <ele>1079.2</ele>
        <time>2020-09-12T09:43:21Z</time>
      </trkpt>
      <trkpt lat="40.9984470" lon="-2.6125450">
        <ele>1079.4</ele>
        <time>2020-09-12T09:43:22Z</time>
      </trkpt>
      <trkpt lat="40.9985270" lon="-2.6125710">
        <ele>1079.4</ele>
        <time>2020-09-12T09:43:23Z</time>
      </trkpt>
      <trkpt lat="40.9986060" lon="-2.6125970">
        <ele>1079.4</ele>
        <time>2020-09-12T09:43:24Z</time>
      </trkpt>
      <trkpt lat="40.9986860" lon="-2.6126230">
        <ele>1079.2</ele>
        <time>2020-09-12T09:43:25Z</time>
      </trkpt>
      <trkpt lat="40.9987680" lon="-2.6126470">
        <ele>1079.0</ele>
        <time>2020-09-12T09:43:26Z</time>
      </trkpt>
      <trkpt lat="40.9988510" lon="-2.6126680">
        <ele>1078.8</ele>
        <time>2020-09-12T09:43:27Z</time>
      </trkpt>
      <trkpt lat="40.9989350" lon="-2.6126850">
        <ele>1078.6</ele>
        <time>2020-09-12T09:43:28Z</time>
      </trkpt>
      <trkpt lat="40.9990210" lon="-2.6126990">
        <ele>1078.6</ele>
        <time>2020-09-12T09:43:29Z</time>
      </trkpt>
      <trkpt lat="40.9991070" lon="-2.6127070">
        <ele>1078.4</ele>
        <time>2020-09-12T09:43:30Z</time>
      </trkpt>
      <trkpt lat="40.9991940" lon="-2.6127130">
        <ele>1078.4</ele>
        <time>2020-09-12T09:43:31Z</time>
      </trkpt>
      <trkpt lat="40.9992820" lon="-2.6127190">
        <ele>1078.4</ele>
        <time>2020-09-12T09:43:32Z</time>
      </trkpt>
      <trkpt lat="40.9993710" lon="-2.6127240">
        <ele>1078.2</ele>
        <time>2020-09-12T09:43:33Z</time>
      </trkpt>
      <trkpt lat="40.9994590" lon="-2.6127260">
        <ele>1078.2</ele>
        <time>2020-09-12T09:43:34Z</time>
      </trkpt>
      <trkpt lat="40.9995470" lon="-2.6127290">
        <ele>1078.0</ele>
        <time>2020-09-12T09:43:35Z</time>
      </trkpt>
      <trkpt lat="40.9996350" lon="-2.6127330">
        <ele>1078.0</ele>
        <time>2020-09-12T09:43:36Z</time>
      </trkpt>
      <trkpt lat="40.9997240" lon="-2.6127360">
        <ele>1078.0</ele>
        <time>2020-09-12T09:43:37Z</time>
      </trkpt>
      <trkpt lat="40.9998140" lon="-2.6127380">
        <ele>1077.8</ele>
        <time>2020-09-12T09:43:38Z</time>
      </trkpt>
      <trkpt lat="40.9999030" lon="-2.6127390">
        <ele>1077.8</ele>
        <time>2020-09-12T09:43:39Z</time>
      </trkpt>
      <trkpt lat="40.9999920" lon="-2.6127420">
        <ele>1077.6</ele>
        <time>2020-09-12T09:43:40Z</time>
      </trkpt>
      <trkpt lat="41.0000830" lon="-2.6127440">
        <ele>1077.4</ele>
        <time>2020-09-12T09:43:41Z</time>
      </trkpt>
      <trkpt lat="41.0001720" lon="-2.6127470">
        <ele>1077.4</ele>
        <time>2020-09-12T09:43:42Z</time>
      </trkpt>
      <trkpt lat="41.0002620" lon="-2.6127500">
        <ele>1077.4</ele>
        <time>2020-09-12T09:43:43Z</time>
      </trkpt>
      <trkpt lat="41.0003520" lon="-2.6127550">
        <ele>1077.2</ele>
        <time>2020-09-12T09:43:44Z</time>
      </trkpt>
      <trkpt lat="41.0004410" lon="-2.6127590">
        <ele>1077.2</ele>
        <time>2020-09-12T09:43:45Z</time>
      </trkpt>
      <trkpt lat="41.0005310" lon="-2.6127610">
        <ele>1077.0</ele>
        <time>2020-09-12T09:43:46Z</time>
      </trkpt>
      <trkpt lat="41.0006220" lon="-2.6127620">
        <ele>1076.6</ele>
        <time>2020-09-12T09:43:47Z</time>
      </trkpt>
      <trkpt lat="41.0007130" lon="-2.6127610">
        <ele>1076.4</ele>
        <time>2020-09-12T09:43:48Z</time>
      </trkpt>
      <trkpt lat="41.0008050" lon="-2.6127590">
        <ele>1076.2</ele>
        <time>2020-09-12T09:43:49Z</time>
      </trkpt>
      <trkpt lat="41.0008970" lon="-2.6127570">
        <ele>1076.0</ele>
        <time>2020-09-12T09:43:50Z</time>
      </trkpt>
      <trkpt lat="41.0009890" lon="-2.6127530">
        <ele>1075.8</ele>
        <time>2020-09-12T09:43:51Z</time>
      </trkpt>
      <trkpt lat="41.0010800" lon="-2.6127460">
        <ele>1075.8</ele>
        <time>2020-09-12T09:43:52Z</time>
      </trkpt>
      <trkpt lat="41.0011690" lon="-2.6127380">
        <ele>1075.8</ele>
        <time>2020-09-12T09:43:53Z</time>
      </trkpt>
      <trkpt lat="41.0012570" lon="-2.6127300">
        <ele>1075.6</ele>
        <time>2020-09-12T09:43:54Z</time>
      </trkpt>
      <trkpt lat="41.0013430" lon="-2.6127220">
        <ele>1075.4</ele>
        <time>2020-09-12T09:43:55Z</time>
      </trkpt>
      <trkpt lat="41.0014270" lon="-2.6127130">
        <ele>1075.4</ele>
        <time>2020-09-12T09:43:56Z</time>
      </trkpt>
      <trkpt lat="41.0015100" lon="-2.6127040">
        <ele>1075.4</ele>
        <time>2020-09-12T09:43:57Z</time>
      </trkpt>
      <trkpt lat="41.0015900" lon="-2.6126960">
        <ele>1075.4</ele>
        <time>2020-09-12T09:43:58Z</time>
      </trkpt>
      <trkpt lat="41.0016700" lon="-2.6126880">
        <ele>1075.6</ele>
        <time>2020-09-12T09:43:59Z</time>
      </trkpt>
      <trkpt lat="41.0017480" lon="-2.6126780">
        <ele>1075.6</ele>
        <time>2020-09-12T09:44:00Z</time>
      </trkpt>
      <trkpt lat="41.0018250" lon="-2.6126680">
        <ele>1075.8</ele>
        <time>2020-09-12T09:44:01Z</time>
      </trkpt>
      <trkpt lat="41.0019010" lon="-2.6126600">
        <ele>1075.8</ele>
        <time>2020-09-12T09:44:02Z</time>
      </trkpt>
      <trkpt lat="41.0019770" lon="-2.6126540">
        <ele>1076.0</ele>
        <time>2020-09-12T09:44:03Z</time>
      </trkpt>
      <trkpt lat="41.0020520" lon="-2.6126480">
        <ele>1076.2</ele>
        <time>2020-09-12T09:44:04Z</time>
      </trkpt>
      <trkpt lat="41.0021270" lon="-2.6126400">
        <ele>1076.2</ele>
        <time>2020-09-12T09:44:05Z</time>
      </trkpt>
      <trkpt lat="41.0022010" lon="-2.6126320">
        <ele>1076.2</ele>
        <time>2020-09-12T09:44:06Z</time>
      </trkpt>
      <trkpt lat="41.0022750" lon="-2.6126240">
        <ele>1076.0</ele>
        <time>2020-09-12T09:44:07Z</time>
      </trkpt>
      <trkpt lat="41.0023480" lon="-2.6126160">
        <ele>1076.0</ele>
        <time>2020-09-12T09:44:08Z</time>
      </trkpt>
      <trkpt lat="41.0024210" lon="-2.6126080">
        <ele>1076.0</ele>
        <time>2020-09-12T09:44:09Z</time>
      </trkpt>
      <trkpt lat="41.0024920" lon="-2.6126000">
        <ele>1076.0</ele>
        <time>2020-09-12T09:44:10Z</time>
      </trkpt>
      <trkpt lat="41.0025630" lon="-2.6125920">
        <ele>1076.0</ele>
        <time>2020-09-12T09:44:11Z</time>
      </trkpt>
      <trkpt lat="41.0026330" lon="-2.6125840">
        <ele>1076.0</ele>
        <time>2020-09-12T09:44:12Z</time>
      </trkpt>
      <trkpt lat="41.0027030" lon="-2.6125760">
        <ele>1076.0</ele>
        <time>2020-09-12T09:44:13Z</time>
      </trkpt>
      <trkpt lat="41.0027720" lon="-2.6125690">
        <ele>1076.0</ele>
        <time>2020-09-12T09:44:14Z</time>
      </trkpt>
      <trkpt lat="41.0028410" lon="-2.6125620">
        <ele>1076.0</ele>
        <time>2020-09-12T09:44:15Z</time>
      </trkpt>
      <trkpt lat="41.0029090" lon="-2.6125550">
        <ele>1076.0</ele>
        <time>2020-09-12T09:44:16Z</time>
      </trkpt>
      <trkpt lat="41.0029760" lon="-2.6125480">
        <ele>1076.0</ele>
        <time>2020-09-12T09:44:17Z</time>
      </trkpt>
      <trkpt lat="41.0030430" lon="-2.6125400">
        <ele>1075.8</ele>
        <time>2020-09-12T09:44:18Z</time>
      </trkpt>
      <trkpt lat="41.0031100" lon="-2.6125310">
        <ele>1075.6</ele>
        <time>2020-09-12T09:44:19Z</time>
      </trkpt>
      <trkpt lat="41.0031770" lon="-2.6125240">
        <ele>1075.6</ele>
        <time>2020-09-12T09:44:20Z</time>
      </trkpt>
      <trkpt lat="41.0032440" lon="-2.6125160">
        <ele>1075.6</ele>
        <time>2020-09-12T09:44:21Z</time>
      </trkpt>
      <trkpt lat="41.0033120" lon="-2.6125070">
        <ele>1075.6</ele>
        <time>2020-09-12T09:44:22Z</time>
      </trkpt>
      <trkpt lat="41.0033790" lon="-2.6124980">
        <ele>1076.0</ele>
        <time>2020-09-12T09:44:23Z</time>
      </trkpt>
      <trkpt lat="41.0034470" lon="-2.6124880">
        <ele>1076.4</ele>
        <time>2020-09-12T09:44:24Z</time>
      </trkpt>
      <trkpt lat="41.0035140" lon="-2.6124780">
        <ele>1076.4</ele>
        <time>2020-09-12T09:44:25Z</time>
      </trkpt>
      <trkpt lat="41.0035820" lon="-2.6124670">
        <ele>1076.6</ele>
        <time>2020-09-12T09:44:26Z</time>
      </trkpt>
      <trkpt lat="41.0036510" lon="-2.6124570">
        <ele>1076.6</ele>
        <time>2020-09-12T09:44:27Z</time>
      </trkpt>
      <trkpt lat="41.0037210" lon="-2.6124460">
        <ele>1076.8</ele>
        <time>2020-09-12T09:44:28Z</time>
      </trkpt>
      <trkpt lat="41.0037910" lon="-2.6124360">
        <ele>1076.8</ele>
        <time>2020-09-12T09:44:29Z</time>
      </trkpt>
      <trkpt lat="41.0038600" lon="-2.6124260">
        <ele>1076.8</ele>
        <time>2020-09-12T09:44:30Z</time>
      </trkpt>
      <trkpt lat="41.0039300" lon="-2.6124160">
        <ele>1076.8</ele>
        <time>2020-09-12T09:44:31Z</time>
      </trkpt>
      <trkpt lat="41.0039990" lon="-2.6124070">
        <ele>1076.8</ele>
        <time>2020-09-12T09:44:32Z</time>
      </trkpt>
      <trkpt lat="41.0040700" lon="-2.6123980">
        <ele>1076.8</ele>
        <time>2020-09-12T09:44:33Z</time>
      </trkpt>
      <trkpt lat="41.0041420" lon="-2.6123880">
        <ele>1076.8</ele>
        <time>2020-09-12T09:44:34Z</time>
      </trkpt>
      <trkpt lat="41.0042130" lon="-2.6123780">
        <ele>1076.8</ele>
        <time>2020-09-12T09:44:35Z</time>
      </trkpt>
      <trkpt lat="41.0042840" lon="-2.6123690">
        <ele>1076.8</ele>
        <time>2020-09-12T09:44:36Z</time>
      </trkpt>
      <trkpt lat="41.0043560" lon="-2.6123600">
        <ele>1076.6</ele>
        <time>2020-09-12T09:44:37Z</time>
      </trkpt>
      <trkpt lat="41.0044270" lon="-2.6123520">
        <ele>1076.6</ele>
        <time>2020-09-12T09:44:38Z</time>
      </trkpt>
      <trkpt lat="41.0044990" lon="-2.6123450">
        <ele>1076.6</ele>
        <time>2020-09-12T09:44:39Z</time>
      </trkpt>
      <trkpt lat="41.0045690" lon="-2.6123360">
        <ele>1076.6</ele>
        <time>2020-09-12T09:44:40Z</time>
      </trkpt>
      <trkpt lat="41.0046400" lon="-2.6123270">
        <ele>1076.6</ele>
        <time>2020-09-12T09:44:41Z</time>
      </trkpt>
      <trkpt lat="41.0047110" lon="-2.6123180">
        <ele>1076.6</ele>
        <time>2020-09-12T09:44:42Z</time>
      </trkpt>
      <trkpt lat="41.0047820" lon="-2.6123110">
        <ele>1076.6</ele>
        <time>2020-09-12T09:44:43Z</time>
      </trkpt>
      <trkpt lat="41.0048530" lon="-2.6123070">
        <ele>1076.4</ele>
        <time>2020-09-12T09:44:44Z</time>
      </trkpt>
      <trkpt lat="41.0049230" lon="-2.6123000">
        <ele>1076.4</ele>
        <time>2020-09-12T09:44:45Z</time>
      </trkpt>
      <trkpt lat="41.0049920" lon="-2.6122920">
        <ele>1076.4</ele>
        <time>2020-09-12T09:44:46Z</time>
      </trkpt>
      <trkpt lat="41.0050620" lon="-2.6122840">
        <ele>1076.2</ele>
        <time>2020-09-12T09:44:47Z</time>
      </trkpt>
      <trkpt lat="41.0051310" lon="-2.6122780">
        <ele>1076.2</ele>
        <time>2020-09-12T09:44:48Z</time>
      </trkpt>
      <trkpt lat="41.0052000" lon="-2.6122740">
        <ele>1076.4</ele>
        <time>2020-09-12T09:44:49Z</time>
      </trkpt>
      <trkpt lat="41.0052690" lon="-2.6122670">
        <ele>1076.6</ele>
        <time>2020-09-12T09:44:50Z</time>
      </trkpt>
      <trkpt lat="41.0053370" lon="-2.6122600">
        <ele>1076.6</ele>
        <time>2020-09-12T09:44:51Z</time>
      </trkpt>
      <trkpt lat="41.0054040" lon="-2.6122550">
        <ele>1076.6</ele>
        <time>2020-09-12T09:44:52Z</time>
      </trkpt>
      <trkpt lat="41.0054710" lon="-2.6122510">
        <ele>1076.6</ele>
        <time>2020-09-12T09:44:53Z</time>
      </trkpt>
      <trkpt lat="41.0055370" lon="-2.6122470">
        <ele>1076.6</ele>
        <time>2020-09-12T09:44:54Z</time>
      </trkpt>
      <trkpt lat="41.0056030" lon="-2.6122420">
        <ele>1076.6</ele>
        <time>2020-09-12T09:44:55Z</time>
      </trkpt>
      <trkpt lat="41.0056700" lon="-2.6122360">
        <ele>1076.6</ele>
        <time>2020-09-12T09:44:56Z</time>
      </trkpt>
      <trkpt lat="41.0057370" lon="-2.6122290">
        <ele>1076.6</ele>
        <time>2020-09-12T09:44:57Z</time>
      </trkpt>
      <trkpt lat="41.0058040" lon="-2.6122220">
        <ele>1076.8</ele>
        <time>2020-09-12T09:44:58Z</time>
      </trkpt>
      <trkpt lat="41.0058710" lon="-2.6122160">
        <ele>1077.0</ele>
        <time>2020-09-12T09:44:59Z</time>
      </trkpt>
      <trkpt lat="41.0059380" lon="-2.6122110">
        <ele>1077.0</ele>
        <time>2020-09-12T09:45:00Z</time>
      </trkpt>
      <trkpt lat="41.0060050" lon="-2.6122070">
        <ele>1077.2</ele>
        <time>2020-09-12T09:45:01Z</time>
      </trkpt>
      <trkpt lat="41.0060710" lon="-2.6122040">
        <ele>1077.2</ele>
        <time>2020-09-12T09:45:02Z</time>
      </trkpt>
      <trkpt lat="41.0061380" lon="-2.6122000">
        <ele>1077.2</ele>
        <time>2020-09-12T09:45:03Z</time>
      </trkpt>
      <trkpt lat="41.0062030" lon="-2.6121960">
        <ele>1077.4</ele>
        <time>2020-09-12T09:45:04Z</time>
      </trkpt>
      <trkpt lat="41.0062680" lon="-2.6121910">
        <ele>1077.4</ele>
        <time>2020-09-12T09:45:05Z</time>
      </trkpt>
      <trkpt lat="41.0063340" lon="-2.6121860">
        <ele>1077.4</ele>
        <time>2020-09-12T09:45:06Z</time>
      </trkpt>
      <trkpt lat="41.0064000" lon="-2.6121800">
        <ele>1077.4</ele>
        <time>2020-09-12T09:45:07Z</time>
      </trkpt>
      <trkpt lat="41.0064650" lon="-2.6121780">
        <ele>1077.4</ele>
        <time>2020-09-12T09:45:08Z</time>
      </trkpt>
      <trkpt lat="41.0065290" lon="-2.6121760">
        <ele>1077.4</ele>
        <time>2020-09-12T09:45:09Z</time>
      </trkpt>
      <trkpt lat="41.0065940" lon="-2.6121740">
        <ele>1077.6</ele>
        <time>2020-09-12T09:45:10Z</time>
      </trkpt>
      <trkpt lat="41.0066570" lon="-2.6121720">
        <ele>1077.8</ele>
        <time>2020-09-12T09:45:11Z</time>
      </trkpt>
      <trkpt lat="41.0067210" lon="-2.6121690">
        <ele>1077.8</ele>
        <time>2020-09-12T09:45:12Z</time>
      </trkpt>
      <trkpt lat="41.0067850" lon="-2.6121660">
        <ele>1077.8</ele>
        <time>2020-09-12T09:45:13Z</time>
      </trkpt>
      <trkpt lat="41.0068510" lon="-2.6121640">
        <ele>1078.0</ele>
        <time>2020-09-12T09:45:14Z</time>
      </trkpt>
      <trkpt lat="41.0069170" lon="-2.6121630">
        <ele>1078.0</ele>
        <time>2020-09-12T09:45:15Z</time>
      </trkpt>
      <trkpt lat="41.0069830" lon="-2.6121630">
        <ele>1077.8</ele>
        <time>2020-09-12T09:45:16Z</time>
      </trkpt>
      <trkpt lat="41.0070500" lon="-2.6121660">
        <ele>1077.8</ele>
        <time>2020-09-12T09:45:17Z</time>
      </trkpt>
      <trkpt lat="41.0071170" lon="-2.6121680">
        <ele>1077.8</ele>
        <time>2020-09-12T09:45:18Z</time>
      </trkpt>
      <trkpt lat="41.0071850" lon="-2.6121710">
        <ele>1077.8</ele>
        <time>2020-09-12T09:45:19Z</time>
      </trkpt>
      <trkpt lat="41.0072510" lon="-2.6121790">
        <ele>1078.0</ele>
        <time>2020-09-12T09:45:20Z</time>
      </trkpt>
      <trkpt lat="41.0073150" lon="-2.6121920">
        <ele>1078.2</ele>
        <time>2020-09-12T09:45:21Z</time>
      </trkpt>
      <trkpt lat="41.0073790" lon="-2.6122080">
        <ele>1078.4</ele>
        <time>2020-09-12T09:45:22Z</time>
      </trkpt>
      <trkpt lat="41.0074420" lon="-2.6122290">
        <ele>1078.6</ele>
        <time>2020-09-12T09:45:23Z</time>
      </trkpt>
      <trkpt lat="41.0075040" lon="-2.6122540">
        <ele>1078.8</ele>
        <time>2020-09-12T09:45:24Z</time>
      </trkpt>
      <trkpt lat="41.0075650" lon="-2.6122840">
        <ele>1079.0</ele>
        <time>2020-09-12T09:45:25Z</time>
      </trkpt>
      <trkpt lat="41.0076260" lon="-2.6123160">
        <ele>1079.0</ele>
        <time>2020-09-12T09:45:26Z</time>
      </trkpt>
      <trkpt lat="41.0076870" lon="-2.6123500">
        <ele>1079.0</ele>
        <time>2020-09-12T09:45:27Z</time>
      </trkpt>
      <trkpt lat="41.0077460" lon="-2.6123870">
        <ele>1079.0</ele>
        <time>2020-09-12T09:45:28Z</time>
      </trkpt>
      <trkpt lat="41.0078050" lon="-2.6124250">
        <ele>1079.2</ele>
        <time>2020-09-12T09:45:29Z</time>
      </trkpt>
      <trkpt lat="41.0078610" lon="-2.6124640">
        <ele>1079.2</ele>
        <time>2020-09-12T09:45:30Z</time>
      </trkpt>
      <trkpt lat="41.0079170" lon="-2.6125050">
        <ele>1079.4</ele>
        <time>2020-09-12T09:45:31Z</time>
      </trkpt>
      <trkpt lat="41.0079710" lon="-2.6125460">
        <ele>1079.4</ele>
        <time>2020-09-12T09:45:32Z</time>
      </trkpt>
      <trkpt lat="41.0080240" lon="-2.6125890">
        <ele>1079.4</ele>
        <time>2020-09-12T09:45:33Z</time>
      </trkpt>
      <trkpt lat="41.0080750" lon="-2.6126320">
        <ele>1079.6</ele>
        <time>2020-09-12T09:45:34Z</time>
      </trkpt>
      <trkpt lat="41.0081270" lon="-2.6126750">
        <ele>1079.8</ele>
        <time>2020-09-12T09:45:35Z</time>
      </trkpt>
      <trkpt lat="41.0081790" lon="-2.6127170">
        <ele>1080.0</ele>
        <time>2020-09-12T09:45:36Z</time>
      </trkpt>
      <trkpt lat="41.0082300" lon="-2.6127600">
        <ele>1080.2</ele>
        <time>2020-09-12T09:45:37Z</time>
      </trkpt>
      <trkpt lat="41.0082810" lon="-2.6128030">
        <ele>1080.6</ele>
        <time>2020-09-12T09:45:38Z</time>
      </trkpt>
      <trkpt lat="41.0083320" lon="-2.6128470">
        <ele>1080.8</ele>
        <time>2020-09-12T09:45:39Z</time>
      </trkpt>
      <trkpt lat="41.0083820" lon="-2.6128910">
        <ele>1081.0</ele>
        <time>2020-09-12T09:45:40Z</time>
      </trkpt>
      <trkpt lat="41.0084320" lon="-2.6129330">
        <ele>1081.2</ele>
        <time>2020-09-12T09:45:41Z</time>
      </trkpt>
      <trkpt lat="41.0084820" lon="-2.6129750">
        <ele>1081.4</ele>
        <time>2020-09-12T09:45:42Z</time>
      </trkpt>
      <trkpt lat="41.0085300" lon="-2.6130180">
        <ele>1081.4</ele>
        <time>2020-09-12T09:45:43Z</time>
      </trkpt>
      <trkpt lat="41.0085770" lon="-2.6130620">
        <ele>1081.6</ele>
        <time>2020-09-12T09:45:44Z</time>
      </trkpt>
      <trkpt lat="41.0086250" lon="-2.6131050">
        <ele>1081.8</ele>
        <time>2020-09-12T09:45:45Z</time>
      </trkpt>
      <trkpt lat="41.0086720" lon="-2.6131490">
        <ele>1082.0</ele>
        <time>2020-09-12T09:45:46Z</time>
      </trkpt>
      <trkpt lat="41.0087190" lon="-2.6131910">
        <ele>1082.2</ele>
        <time>2020-09-12T09:45:47Z</time>
      </trkpt>
      <trkpt lat="41.0087650" lon="-2.6132340">
        <ele>1082.4</ele>
        <time>2020-09-12T09:45:48Z</time>
      </trkpt>
      <trkpt lat="41.0088090" lon="-2.6132770">
        <ele>1082.6</ele>
        <time>2020-09-12T09:45:49Z</time>
      </trkpt>
      <trkpt lat="41.0088520" lon="-2.6133240">
        <ele>1082.8</ele>
        <time>2020-09-12T09:45:50Z</time>
      </trkpt>
      <trkpt lat="41.0088930" lon="-2.6133710">
        <ele>1082.8</ele>
        <time>2020-09-12T09:45:51Z</time>
      </trkpt>
      <trkpt lat="41.0089340" lon="-2.6134200">
        <ele>1082.8</ele>
        <time>2020-09-12T09:45:52Z</time>
      </trkpt>
      <trkpt lat="41.0089730" lon="-2.6134700">
        <ele>1082.8</ele>
        <time>2020-09-12T09:45:53Z</time>
      </trkpt>
      <trkpt lat="41.0090130" lon="-2.6135240">
        <ele>1083.0</ele>
        <time>2020-09-12T09:45:54Z</time>
      </trkpt>
      <trkpt lat="41.0090520" lon="-2.6135800">
        <ele>1083.0</ele>
        <time>2020-09-12T09:45:55Z</time>
      </trkpt>
      <trkpt lat="41.0090910" lon="-2.6136380">
        <ele>1083.0</ele>
        <time>2020-09-12T09:45:56Z</time>
      </trkpt>
      <trkpt lat="41.0091290" lon="-2.6136980">
        <ele>1083.0</ele>
        <time>2020-09-12T09:45:57Z</time>
      </trkpt>
      <trkpt lat="41.0091680" lon="-2.6137580">
        <ele>1083.0</ele>
        <time>2020-09-12T09:45:58Z</time>
      </trkpt>
      <trkpt lat="41.0092070" lon="-2.6138210">
        <ele>1083.0</ele>
        <time>2020-09-12T09:45:59Z</time>
      </trkpt>
      <trkpt lat="41.0092440" lon="-2.6138840">
        <ele>1083.0</ele>
        <time>2020-09-12T09:46:00Z</time>
      </trkpt>
      <trkpt lat="41.0092820" lon="-2.6139460">
        <ele>1082.8</ele>
        <time>2020-09-12T09:46:01Z</time>
      </trkpt>
      <trkpt lat="41.0093200" lon="-2.6140080">
        <ele>1082.8</ele>
        <time>2020-09-12T09:46:02Z</time>
      </trkpt>
      <trkpt lat="41.0093580" lon="-2.6140720">
        <ele>1082.8</ele>
        <time>2020-09-12T09:46:03Z</time>
      </trkpt>
      <trkpt lat="41.0093970" lon="-2.6141370">
        <ele>1082.6</ele>
        <time>2020-09-12T09:46:04Z</time>
      </trkpt>
      <trkpt lat="41.0094360" lon="-2.6142000">
        <ele>1082.8</ele>
        <time>2020-09-12T09:46:05Z</time>
      </trkpt>
      <trkpt lat="41.0094740" lon="-2.6142650">
        <ele>1083.0</ele>
        <time>2020-09-12T09:46:06Z</time>
      </trkpt>
      <trkpt lat="41.0095130" lon="-2.6143280">
        <ele>1083.0</ele>
        <time>2020-09-12T09:46:07Z</time>
      </trkpt>
      <trkpt lat="41.0095510" lon="-2.6143910">
        <ele>1083.2</ele>
        <time>2020-09-12T09:46:08Z</time>
      </trkpt>
      <trkpt lat="41.0095890" lon="-2.6144520">
        <ele>1083.6</ele>
        <time>2020-09-12T09:46:09Z</time>
      </trkpt>
      <trkpt lat="41.0096250" lon="-2.6145120">
        <ele>1084.2</ele>
        <time>2020-09-12T09:46:10Z</time>
      </trkpt>
      <trkpt lat="41.0096610" lon="-2.6145710">
        <ele>1084.4</ele>
        <time>2020-09-12T09:46:11Z</time>
      </trkpt>
      <trkpt lat="41.0096960" lon="-2.6146280">
        <ele>1084.6</ele>
        <time>2020-09-12T09:46:12Z</time>
      </trkpt>
      <trkpt lat="41.0097310" lon="-2.6146840">
        <ele>1084.6</ele>
        <time>2020-09-12T09:46:13Z</time>
      </trkpt>
      <trkpt lat="41.0097660" lon="-2.6147390">
        <ele>1084.6</ele>
        <time>2020-09-12T09:46:14Z</time>
      </trkpt>
      <trkpt lat="41.0098000" lon="-2.6147940">
        <ele>1084.4</ele>
        <time>2020-09-12T09:46:15Z</time>
      </trkpt>
      <trkpt lat="41.0098320" lon="-2.6148500">
        <ele>1084.4</ele>
        <time>2020-09-12T09:46:16Z</time>
      </trkpt>
      <trkpt lat="41.0098620" lon="-2.6149040">
        <ele>1084.4</ele>
        <time>2020-09-12T09:46:17Z</time>
      </trkpt>
      <trkpt lat="41.0098920" lon="-2.6149570">
        <ele>1084.4</ele>
        <time>2020-09-12T09:46:18Z</time>
      </trkpt>
      <trkpt lat="41.0099230" lon="-2.6150090">
        <ele>1084.6</ele>
        <time>2020-09-12T09:46:19Z</time>
      </trkpt>
      <trkpt lat="41.0099540" lon="-2.6150600">
        <ele>1084.6</ele>
        <time>2020-09-12T09:46:20Z</time>
      </trkpt>
      <trkpt lat="41.0099870" lon="-2.6151080">
        <ele>1084.8</ele>
        <time>2020-09-12T09:46:21Z</time>
      </trkpt>
      <trkpt lat="41.0100200" lon="-2.6151530">
        <ele>1085.0</ele>
        <time>2020-09-12T09:46:22Z</time>
      </trkpt>
      <trkpt lat="41.0100520" lon="-2.6152010">
        <ele>1085.2</ele>
        <time>2020-09-12T09:46:23Z</time>
      </trkpt>
      <trkpt lat="41.0100850" lon="-2.6152460">
        <ele>1085.6</ele>
        <time>2020-09-12T09:46:24Z</time>
      </trkpt>
      <trkpt lat="41.0101210" lon="-2.6152860">
        <ele>1085.6</ele>
        <time>2020-09-12T09:46:25Z</time>
      </trkpt>
      <trkpt lat="41.0101620" lon="-2.6153180">
        <ele>1085.8</ele>
        <time>2020-09-12T09:46:26Z</time>
      </trkpt>
      <trkpt lat="41.0102040" lon="-2.6153430">
        <ele>1086.2</ele>
        <time>2020-09-12T09:46:27Z</time>
      </trkpt>
      <trkpt lat="41.0102480" lon="-2.6153600">
        <ele>1086.6</ele>
        <time>2020-09-12T09:46:28Z</time>
      </trkpt>
      <trkpt lat="41.0102910" lon="-2.6153690">
        <ele>1087.0</ele>
        <time>2020-09-12T09:46:29Z</time>
      </trkpt>
      <trkpt lat="41.0103350" lon="-2.6153730">
        <ele>1087.4</ele>
        <time>2020-09-12T09:46:30Z</time>
      </trkpt>
      <trkpt lat="41.0103780" lon="-2.6153750">
        <ele>1087.6</ele>
        <time>2020-09-12T09:46:31Z</time>
      </trkpt>
      <trkpt lat="41.0104220" lon="-2.6153750">
        <ele>1088.0</ele>
        <time>2020-09-12T09:46:32Z</time>
      </trkpt>
      <trkpt lat="41.0104670" lon="-2.6153740">
        <ele>1088.2</ele>
        <time>2020-09-12T09:46:33Z</time>
      </trkpt>
      <trkpt lat="41.0105100" lon="-2.6153750">
        <ele>1088.8</ele>
        <time>2020-09-12T09:46:34Z</time>
      </trkpt>
      <trkpt lat="41.0105540" lon="-2.6153760">
        <ele>1089.2</ele>
        <time>2020-09-12T09:46:35Z</time>
      </trkpt>
      <trkpt lat="41.0106000" lon="-2.6153770">
        <ele>1089.4</ele>
        <time>2020-09-12T09:46:36Z</time>
      </trkpt>
      <trkpt lat="41.0106450" lon="-2.6153780">
        <ele>1089.6</ele>
        <time>2020-09-12T09:46:37Z</time>
      </trkpt>
      <trkpt lat="41.0106880" lon="-2.6153790">
        <ele>1089.6</ele>
        <time>2020-09-12T09:46:38Z</time>
      </trkpt>
      <trkpt lat="41.0107300" lon="-2.6153790">
        <ele>1089.8</ele>
        <time>2020-09-12T09:46:39Z</time>
      </trkpt>
      <trkpt lat="41.0107710" lon="-2.6153770">
        <ele>1090.2</ele>
        <time>2020-09-12T09:46:40Z</time>
      </trkpt>
      <trkpt lat="41.0108100" lon="-2.6153730">
        <ele>1090.4</ele>
        <time>2020-09-12T09:46:41Z</time>
      </trkpt>
      <trkpt lat="41.0108480" lon="-2.6153680">
        <ele>1090.6</ele>
        <time>2020-09-12T09:46:42Z</time>
      </trkpt>
      <trkpt lat="41.0108840" lon="-2.6153620">
        <ele>1090.6</ele>
        <time>2020-09-12T09:46:43Z</time>
      </trkpt>
      <trkpt lat="41.0109170" lon="-2.6153540">
        <ele>1090.8</ele>
        <time>2020-09-12T09:46:44Z</time>
      </trkpt>
      <trkpt lat="41.0109470" lon="-2.6153430">
        <ele>1090.8</ele>
        <time>2020-09-12T09:46:45Z</time>
      </trkpt>
      <trkpt lat="41.0109730" lon="-2.6153320">
        <ele>1090.4</ele>
        <time>2020-09-12T09:46:46Z</time>
      </trkpt>
      <trkpt lat="41.0109950" lon="-2.6153230">
        <ele>1090.0</ele>
        <time>2020-09-12T09:46:47Z</time>
      </trkpt>
      <trkpt lat="41.0110140" lon="-2.6153230">
        <ele>1089.8</ele>
        <time>2020-09-12T09:46:48Z</time>
      </trkpt>
      <trkpt lat="41.0110470" lon="-2.6153130">
        <ele>1089.6</ele>
        <time>2020-09-12T09:46:49Z</time>
      </trkpt>
      <trkpt lat="41.0110660" lon="-2.6152910">
        <ele>1089.4</ele>
        <time>2020-09-12T09:46:50Z</time>
      </trkpt>
      <trkpt lat="41.0110840" lon="-2.6152690">
        <ele>1089.4</ele>
        <time>2020-09-12T09:46:51Z</time>
      </trkpt>
      <trkpt lat="41.0111030" lon="-2.6152470">
        <ele>1089.6</ele>
        <time>2020-09-12T09:46:52Z</time>
      </trkpt>
      <trkpt lat="41.0111210" lon="-2.6152240">
        <ele>1089.6</ele>
        <time>2020-09-12T09:46:53Z</time>
      </trkpt>
      <trkpt lat="41.0111400" lon="-2.6152020">
        <ele>1089.6</ele>
        <time>2020-09-12T09:46:54Z</time>
      </trkpt>
      <trkpt lat="41.0111580" lon="-2.6151800">
        <ele>1089.6</ele>
        <time>2020-09-12T09:46:55Z</time>
      </trkpt>
      <trkpt lat="41.0111770" lon="-2.6151580">
        <ele>1087.2</ele>
        <time>2020-09-12T09:51:00Z</time>
      </trkpt>
      <trkpt lat="41.0111950" lon="-2.6151360">
        <ele>1087.2</ele>
        <time>2020-09-12T09:51:01Z</time>
      </trkpt>
      <trkpt lat="41.0112250" lon="-2.6150990">
        <ele>1087.2</ele>
        <time>2020-09-12T09:51:02Z</time>
      </trkpt>
      <trkpt lat="41.0112620" lon="-2.6150550">
        <ele>1086.6</ele>
        <time>2020-09-12T09:51:03Z</time>
      </trkpt>
      <trkpt lat="41.0112990" lon="-2.6150040">
        <ele>1086.2</ele>
        <time>2020-09-12T09:51:04Z</time>
      </trkpt>
      <trkpt lat="41.0113350" lon="-2.6149420">
        <ele>1085.8</ele>
        <time>2020-09-12T09:51:05Z</time>
      </trkpt>
      <trkpt lat="41.0113680" lon="-2.6148700">
        <ele>1085.6</ele>
        <time>2020-09-12T09:51:06Z</time>
      </trkpt>
      <trkpt lat="41.0113980" lon="-2.6147880">
        <ele>1085.4</ele>
        <time>2020-09-12T09:51:07Z</time>
      </trkpt>
      <trkpt lat="41.0114220" lon="-2.6146960">
        <ele>1085.0</ele>
        <time>2020-09-12T09:51:08Z</time>
      </trkpt>
      <trkpt lat="41.0114410" lon="-2.6145960">
        <ele>1084.8</ele>
        <time>2020-09-12T09:51:09Z</time>
      </trkpt>
      <trkpt lat="41.0114530" lon="-2.6144900">
        <ele>1084.4</ele>
        <time>2020-09-12T09:51:10Z</time>
      </trkpt>
      <trkpt lat="41.0114540" lon="-2.6143770">
        <ele>1084.0</ele>
        <time>2020-09-12T09:51:11Z</time>
      </trkpt>
      <trkpt lat="41.0114450" lon="-2.6142590">
        <ele>1083.6</ele>
        <time>2020-09-12T09:51:12Z</time>
      </trkpt>
      <trkpt lat="41.0114300" lon="-2.6141400">
        <ele>1083.0</ele>
        <time>2020-09-12T09:51:13Z</time>
      </trkpt>
      <trkpt lat="41.0114140" lon="-2.6140220">
        <ele>1082.6</ele>
        <time>2020-09-12T09:51:14Z</time>
      </trkpt>
      <trkpt lat="41.0114000" lon="-2.6139090">
        <ele>1081.8</ele>
        <time>2020-09-12T09:51:15Z</time>
      </trkpt>
      <trkpt lat="41.0113850" lon="-2.6137990">
        <ele>1081.0</ele>
        <time>2020-09-12T09:51:16Z</time>
      </trkpt>
      <trkpt lat="41.0113570" lon="-2.6136940">
        <ele>1080.2</ele>
        <time>2020-09-12T09:51:17Z</time>
      </trkpt>
      <trkpt lat="41.0113110" lon="-2.6135980">
        <ele>1079.6</ele>
        <time>2020-09-12T09:51:18Z</time>
      </trkpt>
      <trkpt lat="41.0112480" lon="-2.6135100">
        <ele>1079.0</ele>
        <time>2020-09-12T09:51:19Z</time>
      </trkpt>
      <trkpt lat="41.0111770" lon="-2.6134280">
        <ele>1078.8</ele>
        <time>2020-09-12T09:51:20Z</time>
      </trkpt>
      <trkpt lat="41.0111040" lon="-2.6133430">
        <ele>1078.4</ele>
        <time>2020-09-12T09:51:21Z</time>
      </trkpt>
      <trkpt lat="41.0110310" lon="-2.6132510">
        <ele>1077.8</ele>
        <time>2020-09-12T09:51:22Z</time>
      </trkpt>
      <trkpt lat="41.0109630" lon="-2.6131520">
        <ele>1077.4</ele>
        <time>2020-09-12T09:51:23Z</time>
      </trkpt>
      <trkpt lat="41.0108970" lon="-2.6130440">
        <ele>1076.8</ele>
        <time>2020-09-12T09:51:24Z</time>
      </trkpt>
      <trkpt lat="41.0108310" lon="-2.6129330">
        <ele>1076.4</ele>
        <time>2020-09-12T09:51:25Z</time>
      </trkpt>
      <trkpt lat="41.0107630" lon="-2.6128230">
        <ele>1076.0</ele>
        <time>2020-09-12T09:51:26Z</time>
      </trkpt>
      <trkpt lat="41.0106900" lon="-2.6127130">
        <ele>1075.6</ele>
        <time>2020-09-12T09:51:27Z</time>
      </trkpt>
      <trkpt lat="41.0106130" lon="-2.6126030">
        <ele>1075.2</ele>
        <time>2020-09-12T09:51:28Z</time>
      </trkpt>
      <trkpt lat="41.0105330" lon="-2.6124950">
        <ele>1074.4</ele>
        <time>2020-09-12T09:51:29Z</time>
      </trkpt>
      <trkpt lat="41.0104520" lon="-2.6123850">
        <ele>1073.4</ele>
        <time>2020-09-12T09:51:30Z</time>
      </trkpt>
      <trkpt lat="41.0103750" lon="-2.6122710">
        <ele>1072.6</ele>
        <time>2020-09-12T09:51:31Z</time>
      </trkpt>
      <trkpt lat="41.0103030" lon="-2.6121480">
        <ele>1072.2</ele>
        <time>2020-09-12T09:51:32Z</time>
      </trkpt>
      <trkpt lat="41.0102390" lon="-2.6120190">
        <ele>1071.6</ele>
        <time>2020-09-12T09:51:33Z</time>
      </trkpt>
      <trkpt lat="41.0101800" lon="-2.6118850">
        <ele>1071.0</ele>
        <time>2020-09-12T09:51:34Z</time>
      </trkpt>
      <trkpt lat="41.0101240" lon="-2.6117510">
        <ele>1070.2</ele>
        <time>2020-09-12T09:51:35Z</time>
      </trkpt>
      <trkpt lat="41.0100700" lon="-2.6116200">
        <ele>1069.4</ele>
        <time>2020-09-12T09:51:36Z</time>
      </trkpt>
      <trkpt lat="41.0100190" lon="-2.6114920">
        <ele>1068.4</ele>
        <time>2020-09-12T09:51:37Z</time>
      </trkpt>
      <trkpt lat="41.0099740" lon="-2.6113630">
        <ele>1067.6</ele>
        <time>2020-09-12T09:51:38Z</time>
      </trkpt>
      <trkpt lat="41.0099440" lon="-2.6112230">
        <ele>1067.0</ele>
        <time>2020-09-12T09:51:39Z</time>
      </trkpt>
      <trkpt lat="41.0099320" lon="-2.6110750">
        <ele>1066.4</ele>
        <time>2020-09-12T09:51:40Z</time>
      </trkpt>
      <trkpt lat="41.0099370" lon="-2.6109230">
        <ele>1065.8</ele>
        <time>2020-09-12T09:51:41Z</time>
      </trkpt>
      <trkpt lat="41.0099520" lon="-2.6107700">
        <ele>1065.2</ele>
        <time>2020-09-12T09:51:42Z</time>
      </trkpt>
      <trkpt lat="41.0099700" lon="-2.6106150">
        <ele>1064.6</ele>
        <time>2020-09-12T09:51:43Z</time>
      </trkpt>
      <trkpt lat="41.0099900" lon="-2.6104620">
        <ele>1064.2</ele>
        <time>2020-09-12T09:51:44Z</time>
      </trkpt>
      <trkpt lat="41.0100160" lon="-2.6103160">
        <ele>1063.8</ele>
        <time>2020-09-12T09:51:45Z</time>
      </trkpt>
      <trkpt lat="41.0100450" lon="-2.6101820">
        <ele>1063.4</ele>
        <time>2020-09-12T09:51:46Z</time>
      </trkpt>
      <trkpt lat="41.0100750" lon="-2.6100610">
        <ele>1062.8</ele>
        <time>2020-09-12T09:51:47Z</time>
      </trkpt>
      <trkpt lat="41.0101050" lon="-2.6099540">
        <ele>1062.0</ele>
        <time>2020-09-12T09:51:48Z</time>
      </trkpt>
      <trkpt lat="41.0101350" lon="-2.6098590">
        <ele>1061.0</ele>
        <time>2020-09-12T09:51:49Z</time>
      </trkpt>
      <trkpt lat="41.0101670" lon="-2.6097730">
        <ele>1060.0</ele>
        <time>2020-09-12T09:51:50Z</time>
      </trkpt>
      <trkpt lat="41.0102060" lon="-2.6097000">
        <ele>1059.2</ele>
        <time>2020-09-12T09:51:51Z</time>
      </trkpt>
      <trkpt lat="41.0102590" lon="-2.6096490">
        <ele>1058.4</ele>
        <time>2020-09-12T09:51:52Z</time>
      </trkpt>
      <trkpt lat="41.0103230" lon="-2.6096310">
        <ele>1057.8</ele>
        <time>2020-09-12T09:51:53Z</time>
      </trkpt>
      <trkpt lat="41.0103810" lon="-2.6096390">
        <ele>1057.2</ele>
        <time>2020-09-12T09:51:54Z</time>
      </trkpt>
      <trkpt lat="41.0104290" lon="-2.6096690">
        <ele>1056.6</ele>
        <time>2020-09-12T09:51:55Z</time>
      </trkpt>
      <trkpt lat="41.0104650" lon="-2.6097140">
        <ele>1056.2</ele>
        <time>2020-09-12T09:51:56Z</time>
      </trkpt>
      <trkpt lat="41.0104990" lon="-2.6097670">
        <ele>1056.0</ele>
        <time>2020-09-12T09:51:57Z</time>
      </trkpt>
      <trkpt lat="41.0105330" lon="-2.6098220">
        <ele>1055.6</ele>
        <time>2020-09-12T09:51:58Z</time>
      </trkpt>
      <trkpt lat="41.0105660" lon="-2.6098830">
        <ele>1055.6</ele>
        <time>2020-09-12T09:51:59Z</time>
      </trkpt>
      <trkpt lat="41.0105920" lon="-2.6099520">
        <ele>1055.4</ele>
        <time>2020-09-12T09:52:00Z</time>
      </trkpt>
      <trkpt lat="41.0106110" lon="-2.6100320">
        <ele>1055.4</ele>
        <time>2020-09-12T09:52:01Z</time>
      </trkpt>
      <trkpt lat="41.0106280" lon="-2.6101190">
        <ele>1055.4</ele>
        <time>2020-09-12T09:52:02Z</time>
      </trkpt>
      <trkpt lat="41.0106470" lon="-2.6102100">
        <ele>1055.4</ele>
        <time>2020-09-12T09:52:03Z</time>
      </trkpt>
      <trkpt lat="41.0106680" lon="-2.6103060">
        <ele>1055.4</ele>
        <time>2020-09-12T09:52:04Z</time>
      </trkpt>
      <trkpt lat="41.0106890" lon="-2.6104060">
        <ele>1055.4</ele>
        <time>2020-09-12T09:52:05Z</time>
      </trkpt>
      <trkpt lat="41.0107150" lon="-2.6105090">
        <ele>1055.2</ele>
        <time>2020-09-12T09:52:06Z</time>
      </trkpt>
      <trkpt lat="41.0107460" lon="-2.6106130">
        <ele>1055.0</ele>
        <time>2020-09-12T09:52:07Z</time>
      </trkpt>
      <trkpt lat="41.0107830" lon="-2.6107190">
        <ele>1054.6</ele>
        <time>2020-09-12T09:52:08Z</time>
      </trkpt>
      <trkpt lat="41.0108230" lon="-2.6108260">
        <ele>1054.0</ele>
        <time>2020-09-12T09:52:09Z</time>
      </trkpt>
      <trkpt lat="41.0108610" lon="-2.6109370">
        <ele>1053.8</ele>
        <time>2020-09-12T09:52:10Z</time>
      </trkpt>
      <trkpt lat="41.0108970" lon="-2.6110520">
        <ele>1053.4</ele>
        <time>2020-09-12T09:52:11Z</time>
      </trkpt>
      <trkpt lat="41.0109350" lon="-2.6111650">
        <ele>1053.0</ele>
        <time>2020-09-12T09:52:12Z</time>
      </trkpt>
      <trkpt lat="41.0109800" lon="-2.6112710">
        <ele>1052.2</ele>
        <time>2020-09-12T09:52:13Z</time>
      </trkpt>
      <trkpt lat="41.0110390" lon="-2.6113650">
        <ele>1051.0</ele>
        <time>2020-09-12T09:52:14Z</time>
      </trkpt>
      <trkpt lat="41.0111140" lon="-2.6114420">
        <ele>1050.0</ele>
        <time>2020-09-12T09:52:15Z</time>
      </trkpt>
      <trkpt lat="41.0112020" lon="-2.6114930">
        <ele>1049.4</ele>
        <time>2020-09-12T09:52:16Z</time>
      </trkpt>
      <trkpt lat="41.0112990" lon="-2.6115210">
        <ele>1049.0</ele>
        <time>2020-09-12T09:52:17Z</time>
      </trkpt>
      <trkpt lat="41.0114000" lon="-2.6115240">
        <ele>1048.6</ele>
        <time>2020-09-12T09:52:18Z</time>
      </trkpt>
      <trkpt lat="41.0115020" lon="-2.6115020">
        <ele>1048.0</ele>
        <time>2020-09-12T09:52:19Z</time>
      </trkpt>
      <trkpt lat="41.0116030" lon="-2.6114640">
        <ele>1047.4</ele>
        <time>2020-09-12T09:52:20Z</time>
      </trkpt>
      <trkpt lat="41.0117040" lon="-2.6114230">
        <ele>1047.0</ele>
        <time>2020-09-12T09:52:21Z</time>
      </trkpt>
      <trkpt lat="41.0118070" lon="-2.6113860">
        <ele>1046.6</ele>
        <time>2020-09-12T09:52:22Z</time>
      </trkpt>
      <trkpt lat="41.0119130" lon="-2.6113590">
        <ele>1046.2</ele>
        <time>2020-09-12T09:52:23Z</time>
      </trkpt>
      <trkpt lat="41.0120230" lon="-2.6113390">
        <ele>1045.8</ele>
        <time>2020-09-12T09:52:24Z</time>
      </trkpt>
      <trkpt lat="41.0121350" lon="-2.6113260">
        <ele>1045.2</ele>
        <time>2020-09-12T09:52:25Z</time>
      </trkpt>
      <trkpt lat="41.0122480" lon="-2.6113230">
        <ele>1044.8</ele>
        <time>2020-09-12T09:52:26Z</time>
      </trkpt>
      <trkpt lat="41.0123620" lon="-2.6113400">
        <ele>1044.4</ele>
        <time>2020-09-12T09:52:27Z</time>
      </trkpt>
      <trkpt lat="41.0124710" lon="-2.6113850">
        <ele>1043.8</ele>
        <time>2020-09-12T09:52:28Z</time>
      </trkpt>
      <trkpt lat="41.0125680" lon="-2.6114610">
        <ele>1043.2</ele>
        <time>2020-09-12T09:52:29Z</time>
      </trkpt>
      <trkpt lat="41.0126510" lon="-2.6115600">
        <ele>1042.8</ele>
        <time>2020-09-12T09:52:30Z</time>
      </trkpt>
      <trkpt lat="41.0127210" lon="-2.6116660">
        <ele>1042.4</ele>
        <time>2020-09-12T09:52:31Z</time>
      </trkpt>
      <trkpt lat="41.0127800" lon="-2.6117670">
        <ele>1042.0</ele>
        <time>2020-09-12T09:52:32Z</time>
      </trkpt>
      <trkpt lat="41.0128420" lon="-2.6118570">
        <ele>1041.2</ele>
        <time>2020-09-12T09:52:33Z</time>
      </trkpt>
      <trkpt lat="41.0129130" lon="-2.6119220">
        <ele>1040.2</ele>
        <time>2020-09-12T09:52:34Z</time>
      </trkpt>
      <trkpt lat="41.0129970" lon="-2.6119580">
        <ele>1039.4</ele>
        <time>2020-09-12T09:52:35Z</time>
      </trkpt>
      <trkpt lat="41.0130880" lon="-2.6119550">
        <ele>1038.8</ele>
        <time>2020-09-12T09:52:36Z</time>
      </trkpt>
      <trkpt lat="41.0131780" lon="-2.6119170">
        <ele>1038.2</ele>
        <time>2020-09-12T09:52:37Z</time>
      </trkpt>
      <trkpt lat="41.0132630" lon="-2.6118580">
        <ele>1037.8</ele>
        <time>2020-09-12T09:52:38Z</time>
      </trkpt>
      <trkpt lat="41.0133400" lon="-2.6117830">
        <ele>1037.6</ele>
        <time>2020-09-12T09:52:39Z</time>
      </trkpt>
      <trkpt lat="41.0134100" lon="-2.6116940">
        <ele>1037.4</ele>
        <time>2020-09-12T09:52:40Z</time>
      </trkpt>
      <trkpt lat="41.0134730" lon="-2.6115960">
        <ele>1037.2</ele>
        <time>2020-09-12T09:52:41Z</time>
      </trkpt>
      <trkpt lat="41.0135340" lon="-2.6114950">
        <ele>1037.0</ele>
        <time>2020-09-12T09:52:42Z</time>
      </trkpt>
      <trkpt lat="41.0135930" lon="-2.6113950">
        <ele>1037.0</ele>
        <time>2020-09-12T09:52:43Z</time>
      </trkpt>
      <trkpt lat="41.0136540" lon="-2.6112980">
        <ele>1036.8</ele>
        <time>2020-09-12T09:52:44Z</time>
      </trkpt>
      <trkpt lat="41.0137180" lon="-2.6112070">
        <ele>1036.6</ele>
        <time>2020-09-12T09:52:45Z</time>
      </trkpt>
      <trkpt lat="41.0137850" lon="-2.6111250">
        <ele>1036.4</ele>
        <time>2020-09-12T09:52:46Z</time>
      </trkpt>
      <trkpt lat="41.0138550" lon="-2.6110600">
        <ele>1036.2</ele>
        <time>2020-09-12T09:52:47Z</time>
      </trkpt>
      <trkpt lat="41.0139310" lon="-2.6110260">
        <ele>1036.0</ele>
        <time>2020-09-12T09:52:48Z</time>
      </trkpt>
      <trkpt lat="41.0140090" lon="-2.6110320">
        <ele>1035.8</ele>
        <time>2020-09-12T09:52:49Z</time>
      </trkpt>
      <trkpt lat="41.0140840" lon="-2.6110730">
        <ele>1035.8</ele>
        <time>2020-09-12T09:52:50Z</time>
      </trkpt>
      <trkpt lat="41.0141530" lon="-2.6111340">
        <ele>1035.6</ele>
        <time>2020-09-12T09:52:51Z</time>
      </trkpt>
      <trkpt lat="41.0142170" lon="-2.6112020">
        <ele>1035.6</ele>
        <time>2020-09-12T09:52:52Z</time>
      </trkpt>
      <trkpt lat="41.0142680" lon="-2.6112860">
        <ele>1035.4</ele>
        <time>2020-09-12T09:52:53Z</time>
      </trkpt>
      <trkpt lat="41.0142930" lon="-2.6113870">
        <ele>1035.2</ele>
        <time>2020-09-12T09:52:54Z</time>
      </trkpt>
      <trkpt lat="41.0142880" lon="-2.6114910">
        <ele>1035.2</ele>
        <time>2020-09-12T09:52:55Z</time>
      </trkpt>
      <trkpt lat="41.0142600" lon="-2.6115880">
        <ele>1035.2</ele>
        <time>2020-09-12T09:52:56Z</time>
      </trkpt>
      <trkpt lat="41.0142250" lon="-2.6116760">
        <ele>1035.4</ele>
        <time>2020-09-12T09:52:57Z</time>
      </trkpt>
      <trkpt lat="41.0141870" lon="-2.6117590">
        <ele>1035.6</ele>
        <time>2020-09-12T09:52:58Z</time>
      </trkpt>
      <trkpt lat="41.0141490" lon="-2.6118370">
        <ele>1035.6</ele>
        <time>2020-09-12T09:52:59Z</time>
      </trkpt>
      <trkpt lat="41.0141100" lon="-2.6119110">
        <ele>1035.6</ele>
        <time>2020-09-12T09:53:00Z</time>
      </trkpt>
      <trkpt lat="41.0140700" lon="-2.6119810">
        <ele>1035.8</ele>
        <time>2020-09-12T09:53:01Z</time>
      </trkpt>
      <trkpt lat="41.0140260" lon="-2.6120470">
        <ele>1036.2</ele>
        <time>2020-09-12T09:53:02Z</time>
      </trkpt>
      <trkpt lat="41.0139830" lon="-2.6121130">
        <ele>1036.2</ele>
        <time>2020-09-12T09:53:03Z</time>
      </trkpt>
      <trkpt lat="41.0139440" lon="-2.6121810">
        <ele>1036.2</ele>
        <time>2020-09-12T09:53:04Z</time>
      </trkpt>
      <trkpt lat="41.0139110" lon="-2.6122500">
        <ele>1036.4</ele>
        <time>2020-09-12T09:53:05Z</time>
      </trkpt>
      <trkpt lat="41.0138850" lon="-2.6123220">
        <ele>1036.4</ele>
        <time>2020-09-12T09:53:06Z</time>
      </trkpt>
      <trkpt lat="41.0138640" lon="-2.6123930">
        <ele>1036.8</ele>
        <time>2020-09-12T09:53:07Z</time>
      </trkpt>
      <trkpt lat="41.0138420" lon="-2.6124610">
        <ele>1037.0</ele>
        <time>2020-09-12T09:53:08Z</time>
      </trkpt>
      <trkpt lat="41.0138140" lon="-2.6125250">
        <ele>1037.2</ele>
        <time>2020-09-12T09:53:09Z</time>
      </trkpt>
      <trkpt lat="41.0137780" lon="-2.6125790">
        <ele>1037.6</ele>
        <time>2020-09-12T09:53:10Z</time>
      </trkpt>
      <trkpt lat="41.0137370" lon="-2.6126260">
        <ele>1038.2</ele>
        <time>2020-09-12T09:53:11Z</time>
      </trkpt>
      <trkpt lat="41.0136930" lon="-2.6126660">
        <ele>1038.4</ele>
        <time>2020-09-12T09:53:12Z</time>
      </trkpt>
      <trkpt lat="41.0136490" lon="-2.6127050">
        <ele>1038.6</ele>
        <time>2020-09-12T09:53:13Z</time>
      </trkpt>
      <trkpt lat="41.0136070" lon="-2.6127440">
        <ele>1038.8</ele>
        <time>2020-09-12T09:53:14Z</time>
      </trkpt>
      <trkpt lat="41.0135660" lon="-2.6127870">
        <ele>1039.0</ele>
        <time>2020-09-12T09:53:15Z</time>
      </trkpt>
      <trkpt lat="41.0135280" lon="-2.6128350">
        <ele>1039.2</ele>
        <time>2020-09-12T09:53:16Z</time>
      </trkpt>
      <trkpt lat="41.0134970" lon="-2.6128860">
        <ele>1039.2</ele>
        <time>2020-09-12T09:53:17Z</time>
      </trkpt>
      <trkpt lat="41.0134710" lon="-2.6129410">
        <ele>1039.4</ele>
        <time>2020-09-12T09:53:18Z</time>
      </trkpt>
      <trkpt lat="41.0134500" lon="-2.6129980">
        <ele>1039.4</ele>
        <time>2020-09-12T09:53:19Z</time>
      </trkpt>
      <trkpt lat="41.0134330" lon="-2.6130560">
        <ele>1039.6</ele>
        <time>2020-09-12T09:53:20Z</time>
      </trkpt>
      <trkpt lat="41.0134210" lon="-2.6131140">
        <ele>1039.6</ele>
        <time>2020-09-12T09:53:21Z</time>
      </trkpt>
      <trkpt lat="41.0134130" lon="-2.6131740">
        <ele>1039.8</ele>
        <time>2020-09-12T09:53:22Z</time>
      </trkpt>
      <trkpt lat="41.0134080" lon="-2.6132370">
        <ele>1040.0</ele>
        <time>2020-09-12T09:53:23Z</time>
      </trkpt>
      <trkpt lat="41.0134020" lon="-2.6133000">
        <ele>1040.2</ele>
        <time>2020-09-12T09:53:24Z</time>
      </trkpt>
      <trkpt lat="41.0133960" lon="-2.6133630">
        <ele>1040.6</ele>
        <time>2020-09-12T09:53:25Z</time>
      </trkpt>
      <trkpt lat="41.0133930" lon="-2.6134260">
        <ele>1040.8</ele>
        <time>2020-09-12T09:53:26Z</time>
      </trkpt>
      <trkpt lat="41.0133910" lon="-2.6134890">
        <ele>1041.2</ele>
        <time>2020-09-12T09:53:27Z</time>
      </trkpt>
      <trkpt lat="41.0133900" lon="-2.6135510">
        <ele>1041.4</ele>
        <time>2020-09-12T09:53:28Z</time>
      </trkpt>
      <trkpt lat="41.0133890" lon="-2.6136130">
        <ele>1041.8</ele>
        <time>2020-09-12T09:53:29Z</time>
      </trkpt>
      <trkpt lat="41.0133910" lon="-2.6136760">
        <ele>1042.2</ele>
        <time>2020-09-12T09:53:30Z</time>
      </trkpt>
      <trkpt lat="41.0133960" lon="-2.6137390">
        <ele>1042.4</ele>
        <time>2020-09-12T09:53:31Z</time>
      </trkpt>
      <trkpt lat="41.0134020" lon="-2.6138010">
        <ele>1042.6</ele>
        <time>2020-09-12T09:53:32Z</time>
      </trkpt>
      <trkpt lat="41.0134100" lon="-2.6138610">
        <ele>1042.8</ele>
        <time>2020-09-12T09:53:33Z</time>
      </trkpt>
      <trkpt lat="41.0134210" lon="-2.6139200">
        <ele>1043.2</ele>
        <time>2020-09-12T09:53:34Z</time>
      </trkpt>
      <trkpt lat="41.0134340" lon="-2.6139790">
        <ele>1043.6</ele>
        <time>2020-09-12T09:53:35Z</time>
      </trkpt>
      <trkpt lat="41.0134490" lon="-2.6140340">
        <ele>1044.0</ele>
        <time>2020-09-12T09:53:36Z</time>
      </trkpt>
      <trkpt lat="41.0134680" lon="-2.6140850">
        <ele>1044.2</ele>
        <time>2020-09-12T09:53:37Z</time>
      </trkpt>
      <trkpt lat="41.0134900" lon="-2.6141340">
        <ele>1044.8</ele>
        <time>2020-09-12T09:53:38Z</time>
      </trkpt>
      <trkpt lat="41.0135150" lon="-2.6141800">
        <ele>1045.0</ele>
        <time>2020-09-12T09:53:39Z</time>
      </trkpt>
      <trkpt lat="41.0135400" lon="-2.6142240">
        <ele>1045.4</ele>
        <time>2020-09-12T09:53:40Z</time>
      </trkpt>
      <trkpt lat="41.0135640" lon="-2.6142670">
        <ele>1045.6</ele>
        <time>2020-09-12T09:53:41Z</time>
      </trkpt>
      <trkpt lat="41.0135880" lon="-2.6143100">
        <ele>1046.0</ele>
        <time>2020-09-12T09:53:42Z</time>
      </trkpt>
      <trkpt lat="41.0136110" lon="-2.6143500">
        <ele>1046.2</ele>
        <time>2020-09-12T09:53:43Z</time>
      </trkpt>
      <trkpt lat="41.0136340" lon="-2.6143900">
        <ele>1046.6</ele>
        <time>2020-09-12T09:53:44Z</time>
      </trkpt>
      <trkpt lat="41.0136570" lon="-2.6144280">
        <ele>1046.6</ele>
        <time>2020-09-12T09:53:45Z</time>
      </trkpt>
      <trkpt lat="41.0136790" lon="-2.6144640">
        <ele>1046.8</ele>
        <time>2020-09-12T09:53:46Z</time>
      </trkpt>
      <trkpt lat="41.0137010" lon="-2.6145010">
        <ele>1047.0</ele>
        <time>2020-09-12T09:53:47Z</time>
      </trkpt>
      <trkpt lat="41.0137220" lon="-2.6145400">
        <ele>1047.2</ele>
        <time>2020-09-12T09:53:48Z</time>
      </trkpt>
      <trkpt lat="41.0137450" lon="-2.6145770">
        <ele>1047.4</ele>
        <time>2020-09-12T09:53:49Z</time>
      </trkpt>
      <trkpt lat="41.0137690" lon="-2.6146160">
        <ele>1047.8</ele>
        <time>2020-09-12T09:53:50Z</time>
      </trkpt>
      <trkpt lat="41.0137910" lon="-2.6146560">
        <ele>1048.2</ele>
        <time>2020-09-12T09:53:51Z</time>
      </trkpt>
      <trkpt lat="41.0138120" lon="-2.6146960">
        <ele>1048.4</ele>
        <time>2020-09-12T09:53:52Z</time>
      </trkpt>
      <trkpt lat="41.0138340" lon="-2.6147370">
        <ele>1048.6</ele>
        <time>2020-09-12T09:53:53Z</time>
      </trkpt>
      <trkpt lat="41.0138570" lon="-2.6147780">
        <ele>1049.0</ele>
        <time>2020-09-12T09:53:54Z</time>
      </trkpt>
      <trkpt lat="41.0138790" lon="-2.6148200">
        <ele>1049.4</ele>
        <time>2020-09-12T09:53:55Z</time>
      </trkpt>
      <trkpt lat="41.0139000" lon="-2.6148620">
        <ele>1049.6</ele>
        <time>2020-09-12T09:53:56Z</time>
      </trkpt>
      <trkpt lat="41.0139240" lon="-2.6149050">
        <ele>1050.0</ele>
        <time>2020-09-12T09:53:57Z</time>
      </trkpt>
      <trkpt lat="41.0139480" lon="-2.6149450">
        <ele>1050.0</ele>
        <time>2020-09-12T09:53:58Z</time>
      </trkpt>
      <trkpt lat="41.0139730" lon="-2.6149820">
        <ele>1050.2</ele>
        <time>2020-09-12T09:53:59Z</time>
      </trkpt>
      <trkpt lat="41.0139960" lon="-2.6150190">
        <ele>1050.6</ele>
        <time>2020-09-12T09:54:00Z</time>
      </trkpt>
      <trkpt lat="41.0140180" lon="-2.6150580">
        <ele>1050.8</ele>
        <time>2020-09-12T09:54:01Z</time>
      </trkpt>
      <trkpt lat="41.0140400" lon="-2.6150940">
        <ele>1051.2</ele>
        <time>2020-09-12T09:54:02Z</time>
      </trkpt>
      <trkpt lat="41.0140630" lon="-2.6151290">
        <ele>1051.4</ele>
        <time>2020-09-12T09:54:03Z</time>
      </trkpt>
      <trkpt lat="41.0140870" lon="-2.6151600">
        <ele>1051.8</ele>
        <time>2020-09-12T09:54:04Z</time>
      </trkpt>
      <trkpt lat="41.0141120" lon="-2.6151910">
        <ele>1052.0</ele>
        <time>2020-09-12T09:54:05Z</time>
      </trkpt>
      <trkpt lat="41.0141360" lon="-2.6152210">
        <ele>1052.4</ele>
        <time>2020-09-12T09:54:06Z</time>
      </trkpt>
      <trkpt lat="41.0141610" lon="-2.6152500">
        <ele>1052.6</ele>
        <time>2020-09-12T09:54:07Z</time>
      </trkpt>
      <trkpt lat="41.0141870" lon="-2.6152750">
        <ele>1052.8</ele>
        <time>2020-09-12T09:54:08Z</time>
      </trkpt>
      <trkpt lat="41.0142160" lon="-2.6152980">
        <ele>1052.8</ele>
        <time>2020-09-12T09:54:09Z</time>
      </trkpt>
      <trkpt lat="41.0142450" lon="-2.6153200">
        <ele>1053.0</ele>
        <time>2020-09-12T09:54:10Z</time>
      </trkpt>
      <trkpt lat="41.0142720" lon="-2.6153430">
        <ele>1053.2</ele>
        <time>2020-09-12T09:54:11Z</time>
      </trkpt>
      <trkpt lat="41.0142990" lon="-2.6153640">
        <ele>1053.6</ele>
        <time>2020-09-12T09:54:12Z</time>
      </trkpt>
      <trkpt lat="41.0143270" lon="-2.6153840">
        <ele>1054.0</ele>
        <time>2020-09-12T09:54:13Z</time>
      </trkpt>
      <trkpt lat="41.0143570" lon="-2.6154010">
        <ele>1054.4</ele>
        <time>2020-09-12T09:54:14Z</time>
      </trkpt>
      <trkpt lat="41.0143880" lon="-2.6154170">
        <ele>1054.6</ele>
        <time>2020-09-12T09:54:15Z</time>
      </trkpt>
      <trkpt lat="41.0144190" lon="-2.6154330">
        <ele>1055.0</ele>
        <time>2020-09-12T09:54:16Z</time>
      </trkpt>
      <trkpt lat="41.0144510" lon="-2.6154480">
        <ele>1055.2</ele>
        <time>2020-09-12T09:54:17Z</time>
      </trkpt>
      <trkpt lat="41.0144830" lon="-2.6154610">
        <ele>1055.4</ele>
        <time>2020-09-12T09:54:18Z</time>
      </trkpt>
      <trkpt lat="41.0145160" lon="-2.6154720">
        <ele>1055.4</ele>
        <time>2020-09-12T09:54:19Z</time>
      </trkpt>
      <trkpt lat="41.0145490" lon="-2.6154810">
        <ele>1055.6</ele>
        <time>2020-09-12T09:54:20Z</time>
      </trkpt>
      <trkpt lat="41.0145810" lon="-2.6154890">
        <ele>1055.8</ele>
        <time>2020-09-12T09:54:21Z</time>
      </trkpt>
      <trkpt lat="41.0146110" lon="-2.6155000">
        <ele>1056.2</ele>
        <time>2020-09-12T09:54:22Z</time>
      </trkpt>
      <trkpt lat="41.0146410" lon="-2.6155110">
        <ele>1056.4</ele>
        <time>2020-09-12T09:54:23Z</time>
      </trkpt>
      <trkpt lat="41.0146720" lon="-2.6155200">
        <ele>1056.6</ele>
        <time>2020-09-12T09:54:24Z</time>
      </trkpt>
      <trkpt lat="41.0147040" lon="-2.6155290">
        <ele>1057.0</ele>
        <time>2020-09-12T09:54:25Z</time>
      </trkpt>
      <trkpt lat="41.0147360" lon="-2.6155360">
        <ele>1057.2</ele>
        <time>2020-09-12T09:54:26Z</time>
      </trkpt>
      <trkpt lat="41.0147690" lon="-2.6155420">
        <ele>1057.6</ele>
        <time>2020-09-12T09:54:27Z</time>
      </trkpt>
      <trkpt lat="41.0148010" lon="-2.6155460">
        <ele>1058.0</ele>
        <time>2020-09-12T09:54:28Z</time>
      </trkpt>
      <trkpt lat="41.0148330" lon="-2.6155530">
        <ele>1058.2</ele>
        <time>2020-09-12T09:54:29Z</time>
      </trkpt>
      <trkpt lat="41.0148650" lon="-2.6155640">
        <ele>1058.2</ele>
        <time>2020-09-12T09:54:30Z</time>
      </trkpt>
      <trkpt lat="41.0148960" lon="-2.6155780">
        <ele>1058.4</ele>
        <time>2020-09-12T09:54:31Z</time>
      </trkpt>
      <trkpt lat="41.0149270" lon="-2.6155950">
        <ele>1058.6</ele>
        <time>2020-09-12T09:54:32Z</time>
      </trkpt>
      <trkpt lat="41.0149580" lon="-2.6156140">
        <ele>1058.6</ele>
        <time>2020-09-12T09:54:33Z</time>
      </trkpt>
      <trkpt lat="41.0149850" lon="-2.6156410">
        <ele>1058.8</ele>
        <time>2020-09-12T09:54:34Z</time>
      </trkpt>
      <trkpt lat="41.0150090" lon="-2.6156760">
        <ele>1058.8</ele>
        <time>2020-09-12T09:54:35Z</time>
      </trkpt>
      <trkpt lat="41.0150280" lon="-2.6157170">
        <ele>1059.0</ele>
        <time>2020-09-12T09:54:36Z</time>
      </trkpt>
      <trkpt lat="41.0150430" lon="-2.6157620">
        <ele>1059.0</ele>
        <time>2020-09-12T09:54:37Z</time>
      </trkpt>
      <trkpt lat="41.0150560" lon="-2.6158090">
        <ele>1059.2</ele>
        <time>2020-09-12T09:54:38Z</time>
      </trkpt>
      <trkpt lat="41.0150670" lon="-2.6158560">
        <ele>1059.2</ele>
        <time>2020-09-12T09:54:39Z</time>
      </trkpt>
      <trkpt lat="41.0150720" lon="-2.6159050">
        <ele>1059.4</ele>
        <time>2020-09-12T09:54:40Z</time>
      </trkpt>
      <trkpt lat="41.0150680" lon="-2.6159540">
        <ele>1059.4</ele>
        <time>2020-09-12T09:54:41Z</time>
      </trkpt>
      <trkpt lat="41.0150540" lon="-2.6160000">
        <ele>1059.6</ele>
        <time>2020-09-12T09:54:42Z</time>
      </trkpt>
      <trkpt lat="41.0150330" lon="-2.6160420">
        <ele>1059.6</ele>
        <time>2020-09-12T09:54:43Z</time>
      </trkpt>
      <trkpt lat="41.0150050" lon="-2.6160790">
        <ele>1059.8</ele>
        <time>2020-09-12T09:54:44Z</time>
      </trkpt>
      <trkpt lat="41.0149750" lon="-2.6161110">
        <ele>1060.0</ele>
        <time>2020-09-12T09:54:45Z</time>
      </trkpt>
      <trkpt lat="41.0149420" lon="-2.6161410">
        <ele>1060.4</ele>
        <time>2020-09-12T09:54:46Z</time>
      </trkpt>
      <trkpt lat="41.0149090" lon="-2.6161710">
        <ele>1060.6</ele>
        <time>2020-09-12T09:54:47Z</time>
      </trkpt>
      <trkpt lat="41.0148770" lon="-2.6162010">
        <ele>1060.8</ele>
        <time>2020-09-12T09:54:48Z</time>
      </trkpt>
      <trkpt lat="41.0148470" lon="-2.6162330">
        <ele>1061.0</ele>
        <time>2020-09-12T09:54:49Z</time>
      </trkpt>
      <trkpt lat="41.0148190" lon="-2.6162670">
        <ele>1061.2</ele>
        <time>2020-09-12T09:54:50Z</time>
      </trkpt>
      <trkpt lat="41.0147930" lon="-2.6163010">
        <ele>1061.4</ele>
        <time>2020-09-12T09:54:51Z</time>
      </trkpt>
      <trkpt lat="41.0147680" lon="-2.6163350">
        <ele>1061.8</ele>
        <time>2020-09-12T09:54:52Z</time>
      </trkpt>
      <trkpt lat="41.0147430" lon="-2.6163690">
        <ele>1062.0</ele>
        <time>2020-09-12T09:54:53Z</time>
      </trkpt>
      <trkpt lat="41.0147200" lon="-2.6164030">
        <ele>1062.4</ele>
        <time>2020-09-12T09:54:54Z</time>
      </trkpt>
      <trkpt lat="41.0146950" lon="-2.6164360">
        <ele>1062.8</ele>
        <time>2020-09-12T09:54:55Z</time>
      </trkpt>
      <trkpt lat="41.0146720" lon="-2.6164720">
        <ele>1063.0</ele>
        <time>2020-09-12T09:54:56Z</time>
      </trkpt>
      <trkpt lat="41.0146480" lon="-2.6165070">
        <ele>1063.2</ele>
        <time>2020-09-12T09:54:57Z</time>
      </trkpt>
      <trkpt lat="41.0146230" lon="-2.6165410">
        <ele>1063.2</ele>
        <time>2020-09-12T09:54:58Z</time>
      </trkpt>
      <trkpt lat="41.0145960" lon="-2.6165750">
        <ele>1063.4</ele>
        <time>2020-09-12T09:54:59Z</time>
      </trkpt>
      <trkpt lat="41.0145700" lon="-2.6166110">
        <ele>1063.6</ele>
        <time>2020-09-12T09:55:00Z</time>
      </trkpt>
      <trkpt lat="41.0145460" lon="-2.6166490">
        <ele>1063.8</ele>
        <time>2020-09-12T09:55:01Z</time>
      </trkpt>
      <trkpt lat="41.0145220" lon="-2.6166860">
        <ele>1063.8</ele>
        <time>2020-09-12T09:55:02Z</time>
      </trkpt>
      <trkpt lat="41.0144970" lon="-2.6167220">
        <ele>1064.0</ele>
        <time>2020-09-12T09:55:03Z</time>
      </trkpt>
      <trkpt lat="41.0144720" lon="-2.6167600">
        <ele>1064.2</ele>
        <time>2020-09-12T09:55:04Z</time>
      </trkpt>
      <trkpt lat="41.0144470" lon="-2.6167980">
        <ele>1064.6</ele>
        <time>2020-09-12T09:55:05Z</time>
      </trkpt>
      <trkpt lat="41.0144210" lon="-2.6168360">
        <ele>1065.0</ele>
        <time>2020-09-12T09:55:06Z</time>
      </trkpt>
      <trkpt lat="41.0143940" lon="-2.6168740">
        <ele>1065.4</ele>
        <time>2020-09-12T09:55:07Z</time>
      </trkpt>
      <trkpt lat="41.0143650" lon="-2.6169100">
        <ele>1065.6</ele>
        <time>2020-09-12T09:55:08Z</time>
      </trkpt>
      <trkpt lat="41.0143360" lon="-2.6169430">
        <ele>1065.8</ele>
        <time>2020-09-12T09:55:09Z</time>
      </trkpt>
      <trkpt lat="41.0143050" lon="-2.6169730">
        <ele>1066.2</ele>
        <time>2020-09-12T09:55:10Z</time>
      </trkpt>
      <trkpt lat="41.0142720" lon="-2.6170020">
        <ele>1066.4</ele>
        <time>2020-09-12T09:55:11Z</time>
      </trkpt>
      <trkpt lat="41.0142360" lon="-2.6170280">
        <ele>1066.6</ele>
        <time>2020-09-12T09:55:12Z</time>
      </trkpt>
      <trkpt lat="41.0141990" lon="-2.6170530">
        <ele>1067.0</ele>
        <time>2020-09-12T09:55:13Z</time>
      </trkpt>
      <trkpt lat="41.0141610" lon="-2.6170780">
        <ele>1067.2</ele>
        <time>2020-09-12T09:55:14Z</time>
      </trkpt>
      <trkpt lat="41.0141230" lon="-2.6171050">
        <ele>1067.4</ele>
        <time>2020-09-12T09:55:15Z</time>
      </trkpt>
      <trkpt lat="41.0140860" lon="-2.6171340">
        <ele>1067.6</ele>
        <time>2020-09-12T09:55:16Z</time>
      </trkpt>
      <trkpt lat="41.0140520" lon="-2.6171650">
        <ele>1068.0</ele>
        <time>2020-09-12T09:55:17Z</time>
      </trkpt>
      <trkpt lat="41.0140210" lon="-2.6171970">
        <ele>1068.4</ele>
        <time>2020-09-12T09:55:18Z</time>
      </trkpt>
      <trkpt lat="41.0139930" lon="-2.6172330">
        <ele>1068.6</ele>
        <time>2020-09-12T09:55:19Z</time>
      </trkpt>
      <trkpt lat="41.0139680" lon="-2.6172710">
        <ele>1068.8</ele>
        <time>2020-09-12T09:55:20Z</time>
      </trkpt>
      <trkpt lat="41.0139440" lon="-2.6173100">
        <ele>1069.2</ele>
        <time>2020-09-12T09:55:21Z</time>
      </trkpt>
      <trkpt lat="41.0139210" lon="-2.6173500">
        <ele>1069.6</ele>
        <time>2020-09-12T09:55:22Z</time>
      </trkpt>
      <trkpt lat="41.0139000" lon="-2.6173920">
        <ele>1070.0</ele>
        <time>2020-09-12T09:55:23Z</time>
      </trkpt>
      <trkpt lat="41.0138810" lon="-2.6174360">
        <ele>1070.2</ele>
        <time>2020-09-12T09:55:24Z</time>
      </trkpt>
      <trkpt lat="41.0138620" lon="-2.6174800">
        <ele>1070.4</ele>
        <time>2020-09-12T09:55:25Z</time>
      </trkpt>
      <trkpt lat="41.0138430" lon="-2.6175230">
        <ele>1070.6</ele>
        <time>2020-09-12T09:55:26Z</time>
      </trkpt>
      <trkpt lat="41.0138240" lon="-2.6175640">
        <ele>1070.8</ele>
        <time>2020-09-12T09:55:27Z</time>
      </trkpt>
      <trkpt lat="41.0138050" lon="-2.6176050">
        <ele>1071.0</ele>
        <time>2020-09-12T09:55:28Z</time>
      </trkpt>
      <trkpt lat="41.0137850" lon="-2.6176460">
        <ele>1071.2</ele>
        <time>2020-09-12T09:55:29Z</time>
      </trkpt>
      <trkpt lat="41.0137670" lon="-2.6176880">
        <ele>1071.6</ele>
        <time>2020-09-12T09:55:30Z</time>
      </trkpt>
      <trkpt lat="41.0137490" lon="-2.6177290">
        <ele>1071.8</ele>
        <time>2020-09-12T09:55:31Z</time>
      </trkpt>
      <trkpt lat="41.0137340" lon="-2.6177720">
        <ele>1072.0</ele>
        <time>2020-09-12T09:55:32Z</time>
      </trkpt>
      <trkpt lat="41.0137200" lon="-2.6178140">
        <ele>1072.4</ele>
        <time>2020-09-12T09:55:33Z</time>
      </trkpt>
      <trkpt lat="41.0137050" lon="-2.6178530">
        <ele>1072.6</ele>
        <time>2020-09-12T09:55:34Z</time>
      </trkpt>
      <trkpt lat="41.0136870" lon="-2.6178900">
        <ele>1072.8</ele>
        <time>2020-09-12T09:55:35Z</time>
      </trkpt>
      <trkpt lat="41.0136680" lon="-2.6179250">
        <ele>1073.2</ele>
        <time>2020-09-12T09:55:36Z</time>
      </trkpt>
      <trkpt lat="41.0136510" lon="-2.6179610">
        <ele>1073.6</ele>
        <time>2020-09-12T09:55:37Z</time>
      </trkpt>
      <trkpt lat="41.0136350" lon="-2.6179990">
        <ele>1073.8</ele>
        <time>2020-09-12T09:55:38Z</time>
      </trkpt>
      <trkpt lat="41.0136190" lon="-2.6180380">
        <ele>1074.0</ele>
        <time>2020-09-12T09:55:39Z</time>
      </trkpt>
      <trkpt lat="41.0136010" lon="-2.6180790">
        <ele>1074.2</ele>
        <time>2020-09-12T09:55:40Z</time>
      </trkpt>
      <trkpt lat="41.0135830" lon="-2.6181190">
        <ele>1074.6</ele>
        <time>2020-09-12T09:55:41Z</time>
      </trkpt>
      <trkpt lat="41.0135630" lon="-2.6181580">
        <ele>1075.0</ele>
        <time>2020-09-12T09:55:42Z</time>
      </trkpt>
      <trkpt lat="41.0135410" lon="-2.6181960">
        <ele>1075.2</ele>
        <time>2020-09-12T09:55:43Z</time>
      </trkpt>
      <trkpt lat="41.0135180" lon="-2.6182320">
        <ele>1075.6</ele>
        <time>2020-09-12T09:55:44Z</time>
      </trkpt>
      <trkpt lat="41.0134950" lon="-2.6182700">
        <ele>1076.0</ele>
        <time>2020-09-12T09:55:45Z</time>
      </trkpt>
      <trkpt lat="41.0134730" lon="-2.6183090">
        <ele>1076.2</ele>
        <time>2020-09-12T09:55:46Z</time>
      </trkpt>
      <trkpt lat="41.0134510" lon="-2.6183460">
        <ele>1076.4</ele>
        <time>2020-09-12T09:55:47Z</time>
      </trkpt>
      <trkpt lat="41.0134300" lon="-2.6183820">
        <ele>1076.6</ele>
        <time>2020-09-12T09:55:48Z</time>
      </trkpt>
      <trkpt lat="41.0134100" lon="-2.6184170">
        <ele>1077.0</ele>
        <time>2020-09-12T09:55:49Z</time>
      </trkpt>
      <trkpt lat="41.0133910" lon="-2.6184510">
        <ele>1077.2</ele>
        <time>2020-09-12T09:55:50Z</time>
      </trkpt>
      <trkpt lat="41.0133730" lon="-2.6184860">
        <ele>1077.4</ele>
        <time>2020-09-12T09:55:51Z</time>
      </trkpt>
      <trkpt lat="41.0133530" lon="-2.6185200">
        <ele>1077.8</ele>
        <time>2020-09-12T09:55:52Z</time>
      </trkpt>
      <trkpt lat="41.0133330" lon="-2.6185560">
        <ele>1078.0</ele>
        <time>2020-09-12T09:55:53Z</time>
      </trkpt>
      <trkpt lat="41.0133130" lon="-2.6185920">
        <ele>1078.4</ele>
        <time>2020-09-12T09:55:54Z</time>
      </trkpt>
      <trkpt lat="41.0132910" lon="-2.6186260">
        <ele>1078.6</ele>
        <time>2020-09-12T09:55:55Z</time>
      </trkpt>
      <trkpt lat="41.0132690" lon="-2.6186580">
        <ele>1078.8</ele>
        <time>2020-09-12T09:55:56Z</time>
      </trkpt>
      <trkpt lat="41.0132480" lon="-2.6186890">
        <ele>1079.2</ele>
        <time>2020-09-12T09:55:57Z</time>
      </trkpt>
      <trkpt lat="41.0132270" lon="-2.6187190">
        <ele>1079.6</ele>
        <time>2020-09-12T09:55:58Z</time>
      </trkpt>
      <trkpt lat="41.0132060" lon="-2.6187500">
        <ele>1080.0</ele>
        <time>2020-09-12T09:55:59Z</time>
      </trkpt>
      <trkpt lat="41.0131840" lon="-2.6187800">
        <ele>1080.4</ele>
        <time>2020-09-12T09:56:00Z</time>
      </trkpt>
      <trkpt lat="41.0131610" lon="-2.6188100">
        <ele>1080.8</ele>
        <time>2020-09-12T09:56:01Z</time>
      </trkpt>
      <trkpt lat="41.0131380" lon="-2.6188390">
        <ele>1081.0</ele>
        <time>2020-09-12T09:56:02Z</time>
      </trkpt>
      <trkpt lat="41.0131160" lon="-2.6188680">
        <ele>1081.2</ele>
        <time>2020-09-12T09:56:03Z</time>
      </trkpt>
      <trkpt lat="41.0130940" lon="-2.6188990">
        <ele>1081.4</ele>
        <time>2020-09-12T09:56:04Z</time>
      </trkpt>
      <trkpt lat="41.0130710" lon="-2.6189300">
        <ele>1081.6</ele>
        <time>2020-09-12T09:56:05Z</time>
      </trkpt>
      <trkpt lat="41.0130470" lon="-2.6189610">
        <ele>1081.8</ele>
        <time>2020-09-12T09:56:06Z</time>
      </trkpt>
      <trkpt lat="41.0130230" lon="-2.6189910">
        <ele>1082.0</ele>
        <time>2020-09-12T09:56:07Z</time>
      </trkpt>
      <trkpt lat="41.0129980" lon="-2.6190200">
        <ele>1082.4</ele>
        <time>2020-09-12T09:56:08Z</time>
      </trkpt>
      <trkpt lat="41.0129720" lon="-2.6190470">
        <ele>1082.6</ele>
        <time>2020-09-12T09:56:09Z</time>
      </trkpt>
      <trkpt lat="41.0129460" lon="-2.6190740">
        <ele>1082.8</ele>
        <time>2020-09-12T09:56:10Z</time>
      </trkpt>
      <trkpt lat="41.0129220" lon="-2.6191040">
        <ele>1083.2</ele>
        <time>2020-09-12T09:56:11Z</time>
      </trkpt>
      <trkpt lat="41.0128980" lon="-2.6191340">
        <ele>1083.6</ele>
        <time>2020-09-12T09:56:12Z</time>
      </trkpt>
      <trkpt lat="41.0128740" lon="-2.6191630">
        <ele>1084.0</ele>
        <time>2020-09-12T09:56:13Z</time>
      </trkpt>
      <trkpt lat="41.0128490" lon="-2.6191910">
        <ele>1084.2</ele>
        <time>2020-09-12T09:56:14Z</time>
      </trkpt>
      <trkpt lat="41.0128250" lon="-2.6192170">
        <ele>1084.6</ele>
        <time>2020-09-12T09:56:15Z</time>
      </trkpt>
      <trkpt lat="41.0128010" lon="-2.6192440">
        <ele>1084.8</ele>
        <time>2020-09-12T09:56:16Z</time>
      </trkpt>
      <trkpt lat="41.0127760" lon="-2.6192700">
        <ele>1084.8</ele>
        <time>2020-09-12T09:56:17Z</time>
      </trkpt>
      <trkpt lat="41.0127510" lon="-2.6192960">
        <ele>1085.0</ele>
        <time>2020-09-12T09:56:18Z</time>
      </trkpt>
      <trkpt lat="41.0127260" lon="-2.6193240">
        <ele>1085.2</ele>
        <time>2020-09-12T09:56:19Z</time>
      </trkpt>
      <trkpt lat="41.0127010" lon="-2.6193510">
        <ele>1085.4</ele>
        <time>2020-09-12T09:56:20Z</time>
      </trkpt>
      <trkpt lat="41.0126750" lon="-2.6193790">
        <ele>1085.8</ele>
        <time>2020-09-12T09:56:21Z</time>
      </trkpt>
      <trkpt lat="41.0126500" lon="-2.6194060">
        <ele>1086.2</ele>
        <time>2020-09-12T09:56:22Z</time>
      </trkpt>
      <trkpt lat="41.0126240" lon="-2.6194340">
        <ele>1086.6</ele>
        <time>2020-09-12T09:56:23Z</time>
      </trkpt>
      <trkpt lat="41.0125970" lon="-2.6194600">
        <ele>1086.8</ele>
        <time>2020-09-12T09:56:24Z</time>
      </trkpt>
      <trkpt lat="41.0125710" lon="-2.6194870">
        <ele>1087.2</ele>
        <time>2020-09-12T09:56:25Z</time>
      </trkpt>
      <trkpt lat="41.0125450" lon="-2.6195140">
        <ele>1087.4</ele>
        <time>2020-09-12T09:56:26Z</time>
      </trkpt>
      <trkpt lat="41.0125200" lon="-2.6195420">
        <ele>1087.8</ele>
        <time>2020-09-12T09:56:27Z</time>
      </trkpt>
      <trkpt lat="41.0124940" lon="-2.6195670">
        <ele>1088.0</ele>
        <time>2020-09-12T09:56:28Z</time>
      </trkpt>
      <trkpt lat="41.0124690" lon="-2.6195930">
        <ele>1088.2</ele>
        <time>2020-09-12T09:56:29Z</time>
      </trkpt>
      <trkpt lat="41.0124440" lon="-2.6196180">
        <ele>1088.4</ele>
        <time>2020-09-12T09:56:30Z</time>
      </trkpt>
      <trkpt lat="41.0124180" lon="-2.6196400">
        <ele>1088.6</ele>
        <time>2020-09-12T09:56:31Z</time>
      </trkpt>
      <trkpt lat="41.0123910" lon="-2.6196590">
        <ele>1088.6</ele>
        <time>2020-09-12T09:56:32Z</time>
      </trkpt>
      <trkpt lat="41.0123650" lon="-2.6196780">
        <ele>1088.8</ele>
        <time>2020-09-12T09:56:33Z</time>
      </trkpt>
      <trkpt lat="41.0123390" lon="-2.6197000">
        <ele>1089.0</ele>
        <time>2020-09-12T09:56:34Z</time>
      </trkpt>
      <trkpt lat="41.0123150" lon="-2.6197210">
        <ele>1089.4</ele>
        <time>2020-09-12T09:56:35Z</time>
      </trkpt>
      <trkpt lat="41.0122900" lon="-2.6197410">
        <ele>1089.6</ele>
        <time>2020-09-12T09:56:36Z</time>
      </trkpt>
      <trkpt lat="41.0122670" lon="-2.6197600">
        <ele>1089.8</ele>
        <time>2020-09-12T09:56:37Z</time>
      </trkpt>
      <trkpt lat="41.0122460" lon="-2.6197830">
        <ele>1090.0</ele>
        <time>2020-09-12T09:56:38Z</time>
      </trkpt>
      <trkpt lat="41.0122230" lon="-2.6198090">
        <ele>1090.2</ele>
        <time>2020-09-12T09:56:39Z</time>
      </trkpt>
      <trkpt lat="41.0122000" lon="-2.6198360">
        <ele>1090.6</ele>
        <time>2020-09-12T09:56:40Z</time>
      </trkpt>
      <trkpt lat="41.0121800" lon="-2.6198670">
        <ele>1091.0</ele>
        <time>2020-09-12T09:56:41Z</time>
      </trkpt>
      <trkpt lat="41.0121620" lon="-2.6199010">
        <ele>1091.4</ele>
        <time>2020-09-12T09:56:42Z</time>
      </trkpt>
      <trkpt lat="41.0121470" lon="-2.6199400">
        <ele>1091.6</ele>
        <time>2020-09-12T09:56:43Z</time>
      </trkpt>
      <trkpt lat="41.0121410" lon="-2.6199810">
        <ele>1091.8</ele>
        <time>2020-09-12T09:56:44Z</time>
      </trkpt>
      <trkpt lat="41.0121400" lon="-2.6200210">
        <ele>1092.2</ele>
        <time>2020-09-12T09:56:45Z</time>
      </trkpt>
      <trkpt lat="41.0121430" lon="-2.6200540">
        <ele>1092.4</ele>
        <time>2020-09-12T09:56:46Z</time>
      </trkpt>
      <trkpt lat="41.0121500" lon="-2.6200850">
        <ele>1092.8</ele>
        <time>2020-09-12T09:56:47Z</time>
      </trkpt>
      <trkpt lat="41.0121600" lon="-2.6201130">
        <ele>1093.0</ele>
        <time>2020-09-12T09:56:48Z</time>
      </trkpt>
      <trkpt lat="41.0121720" lon="-2.6201400">
        <ele>1093.4</ele>
        <time>2020-09-12T09:56:49Z</time>
      </trkpt>
      <trkpt lat="41.0121840" lon="-2.6201690">
        <ele>1093.8</ele>
        <time>2020-09-12T09:56:50Z</time>
      </trkpt>
      <trkpt lat="41.0121940" lon="-2.6202000">
        <ele>1094.0</ele>
        <time>2020-09-12T09:56:51Z</time>
      </trkpt>
      <trkpt lat="41.0122030" lon="-2.6202350">
        <ele>1094.4</ele>
        <time>2020-09-12T09:56:52Z</time>
      </trkpt>
      <trkpt lat="41.0122140" lon="-2.6202690">
        <ele>1094.6</ele>
        <time>2020-09-12T09:56:53Z</time>
      </trkpt>
      <trkpt lat="41.0122280" lon="-2.6202990">
        <ele>1094.8</ele>
        <time>2020-09-12T09:56:54Z</time>
      </trkpt>
      <trkpt lat="41.0122430" lon="-2.6203270">
        <ele>1095.0</ele>
        <time>2020-09-12T09:56:55Z</time>
      </trkpt>
      <trkpt lat="41.0122590" lon="-2.6203570">
        <ele>1095.2</ele>
        <time>2020-09-12T09:56:56Z</time>
      </trkpt>
      <trkpt lat="41.0122750" lon="-2.6203880">
        <ele>1095.4</ele>
        <time>2020-09-12T09:56:57Z</time>
      </trkpt>
      <trkpt lat="41.0122910" lon="-2.6204200">
        <ele>1095.6</ele>
        <time>2020-09-12T09:56:58Z</time>
      </trkpt>
      <trkpt lat="41.0123090" lon="-2.6204510">
        <ele>1095.8</ele>
        <time>2020-09-12T09:56:59Z</time>
      </trkpt>
      <trkpt lat="41.0123280" lon="-2.6204790">
        <ele>1095.8</ele>
        <time>2020-09-12T09:57:00Z</time>
      </trkpt>
      <trkpt lat="41.0123470" lon="-2.6205070">
        <ele>1096.0</ele>
        <time>2020-09-12T09:57:01Z</time>
      </trkpt>
      <trkpt lat="41.0123680" lon="-2.6205330">
        <ele>1096.4</ele>
        <time>2020-09-12T09:57:02Z</time>
      </trkpt>
      <trkpt lat="41.0123900" lon="-2.6205580">
        <ele>1096.8</ele>
        <time>2020-09-12T09:57:03Z</time>
      </trkpt>
      <trkpt lat="41.0124130" lon="-2.6205820">
        <ele>1097.0</ele>
        <time>2020-09-12T09:57:04Z</time>
      </trkpt>
      <trkpt lat="41.0124370" lon="-2.6206050">
        <ele>1097.2</ele>
        <time>2020-09-12T09:57:05Z</time>
      </trkpt>
      <trkpt lat="41.0124620" lon="-2.6206260">
        <ele>1097.4</ele>
        <time>2020-09-12T09:57:06Z</time>
      </trkpt>
      <trkpt lat="41.0124880" lon="-2.6206440">
        <ele>1097.8</ele>
        <time>2020-09-12T09:57:07Z</time>
      </trkpt>
      <trkpt lat="41.0125160" lon="-2.6206590">
        <ele>1098.2</ele>
        <time>2020-09-12T09:57:08Z</time>
      </trkpt>
      <trkpt lat="41.0125430" lon="-2.6206740">
        <ele>1098.6</ele>
        <time>2020-09-12T09:57:09Z</time>
      </trkpt>
      <trkpt lat="41.0125720" lon="-2.6206890">
        <ele>1098.8</ele>
        <time>2020-09-12T09:57:10Z</time>
      </trkpt>
      <trkpt lat="41.0126020" lon="-2.6207010">
        <ele>1099.0</ele>
        <time>2020-09-12T09:57:11Z</time>
      </trkpt>
      <trkpt lat="41.0126330" lon="-2.6207090">
        <ele>1099.2</ele>
        <time>2020-09-12T09:57:12Z</time>
      </trkpt>
      <trkpt lat="41.0126640" lon="-2.6207160">
        <ele>1099.6</ele>
        <time>2020-09-12T09:57:13Z</time>
      </trkpt>
      <trkpt lat="41.0126940" lon="-2.6207250">
        <ele>1099.8</ele>
        <time>2020-09-12T09:57:14Z</time>
      </trkpt>
      <trkpt lat="41.0127240" lon="-2.6207350">
        <ele>1100.0</ele>
        <time>2020-09-12T09:57:15Z</time>
      </trkpt>
      <trkpt lat="41.0127530" lon="-2.6207450">
        <ele>1100.2</ele>
        <time>2020-09-12T09:57:16Z</time>
      </trkpt>
      <trkpt lat="41.0127810" lon="-2.6207540">
        <ele>1100.2</ele>
        <time>2020-09-12T09:57:17Z</time>
      </trkpt>
      <trkpt lat="41.0128080" lon="-2.6207670">
        <ele>1100.4</ele>
        <time>2020-09-12T09:57:18Z</time>
      </trkpt>
      <trkpt lat="41.0128350" lon="-2.6207830">
        <ele>1100.6</ele>
        <time>2020-09-12T09:57:19Z</time>
      </trkpt>
      <trkpt lat="41.0128620" lon="-2.6207990">
        <ele>1100.6</ele>
        <time>2020-09-12T09:57:20Z</time>
      </trkpt>
      <trkpt lat="41.0128890" lon="-2.6208160">
        <ele>1100.8</ele>
        <time>2020-09-12T09:57:21Z</time>
      </trkpt>
      <trkpt lat="41.0129150" lon="-2.6208350">
        <ele>1101.0</ele>
        <time>2020-09-12T09:57:22Z</time>
      </trkpt>
      <trkpt lat="41.0129420" lon="-2.6208560">
        <ele>1101.4</ele>
        <time>2020-09-12T09:57:23Z</time>
      </trkpt>
      <trkpt lat="41.0129690" lon="-2.6208780">
        <ele>1101.8</ele>
        <time>2020-09-12T09:57:24Z</time>
      </trkpt>
      <trkpt lat="41.0129960" lon="-2.6208990">
        <ele>1102.0</ele>
        <time>2020-09-12T09:57:25Z</time>
      </trkpt>
      <trkpt lat="41.0130230" lon="-2.6209190">
        <ele>1102.2</ele>
        <time>2020-09-12T09:57:26Z</time>
      </trkpt>
      <trkpt lat="41.0130500" lon="-2.6209400">
        <ele>1102.4</ele>
        <time>2020-09-12T09:57:27Z</time>
      </trkpt>
      <trkpt lat="41.0130770" lon="-2.6209580">
        <ele>1102.6</ele>
        <time>2020-09-12T09:57:28Z</time>
      </trkpt>
      <trkpt lat="41.0131060" lon="-2.6209750">
        <ele>1102.6</ele>
        <time>2020-09-12T09:57:29Z</time>
      </trkpt>
      <trkpt lat="41.0131350" lon="-2.6209910">
        <ele>1102.8</ele>
        <time>2020-09-12T09:57:30Z</time>
      </trkpt>
      <trkpt lat="41.0131650" lon="-2.6210080">
        <ele>1102.8</ele>
        <time>2020-09-12T09:57:31Z</time>
      </trkpt>
      <trkpt lat="41.0131950" lon="-2.6210240">
        <ele>1103.0</ele>
        <time>2020-09-12T09:57:32Z</time>
      </trkpt>
      <trkpt lat="41.0132240" lon="-2.6210400">
        <ele>1103.2</ele>
        <time>2020-09-12T09:57:33Z</time>
      </trkpt>
      <trkpt lat="41.0132530" lon="-2.6210560">
        <ele>1103.4</ele>
        <time>2020-09-12T09:57:34Z</time>
      </trkpt>
      <trkpt lat="41.0132810" lon="-2.6210720">
        <ele>1103.6</ele>
        <time>2020-09-12T09:57:35Z</time>
      </trkpt>
      <trkpt lat="41.0133090" lon="-2.6210890">
        <ele>1103.6</ele>
        <time>2020-09-12T09:57:36Z</time>
      </trkpt>
      <trkpt lat="41.0133380" lon="-2.6211030">
        <ele>1103.8</ele>
        <time>2020-09-12T09:57:37Z</time>
      </trkpt>
      <trkpt lat="41.0133680" lon="-2.6211150">
        <ele>1104.2</ele>
        <time>2020-09-12T09:57:38Z</time>
      </trkpt>
      <trkpt lat="41.0133990" lon="-2.6211240">
        <ele>1104.6</ele>
        <time>2020-09-12T09:57:39Z</time>
      </trkpt>
      <trkpt lat="41.0134290" lon="-2.6211320">
        <ele>1105.0</ele>
        <time>2020-09-12T09:57:40Z</time>
      </trkpt>
      <trkpt lat="41.0134600" lon="-2.6211380">
        <ele>1105.4</ele>
        <time>2020-09-12T09:57:41Z</time>
      </trkpt>
      <trkpt lat="41.0134920" lon="-2.6211400">
        <ele>1105.6</ele>
        <time>2020-09-12T09:57:42Z</time>
      </trkpt>
      <trkpt lat="41.0135250" lon="-2.6211420">
        <ele>1106.0</ele>
        <time>2020-09-12T09:57:43Z</time>
      </trkpt>
      <trkpt lat="41.0135580" lon="-2.6211430">
        <ele>1106.0</ele>
        <time>2020-09-12T09:57:44Z</time>
      </trkpt>
      <trkpt lat="41.0135910" lon="-2.6211390">
        <ele>1106.2</ele>
        <time>2020-09-12T09:57:45Z</time>
      </trkpt>
      <trkpt lat="41.0136250" lon="-2.6211290">
        <ele>1106.4</ele>
        <time>2020-09-12T09:57:46Z</time>
      </trkpt>
      <trkpt lat="41.0136590" lon="-2.6211140">
        <ele>1106.8</ele>
        <time>2020-09-12T09:57:47Z</time>
      </trkpt>
      <trkpt lat="41.0136940" lon="-2.6210960">
        <ele>1107.0</ele>
        <time>2020-09-12T09:57:48Z</time>
      </trkpt>
      <trkpt lat="41.0137290" lon="-2.6210760">
        <ele>1107.2</ele>
        <time>2020-09-12T09:57:49Z</time>
      </trkpt>
      <trkpt lat="41.0137660" lon="-2.6210570">
        <ele>1107.2</ele>
        <time>2020-09-12T09:57:50Z</time>
      </trkpt>
      <trkpt lat="41.0138040" lon="-2.6210350">
        <ele>1107.2</ele>
        <time>2020-09-12T09:57:51Z</time>
      </trkpt>
      <trkpt lat="41.0138420" lon="-2.6210130">
        <ele>1107.4</ele>
        <time>2020-09-12T09:57:52Z</time>
      </trkpt>
      <trkpt lat="41.0138820" lon="-2.6209920">
        <ele>1107.4</ele>
        <time>2020-09-12T09:57:53Z</time>
      </trkpt>
      <trkpt lat="41.0139220" lon="-2.6209720">
        <ele>1107.4</ele>
        <time>2020-09-12T09:57:54Z</time>
      </trkpt>
      <trkpt lat="41.0139630" lon="-2.6209470">
        <ele>1107.2</ele>
        <time>2020-09-12T09:57:55Z</time>
      </trkpt>
      <trkpt lat="41.0140040" lon="-2.6209200">
        <ele>1107.2</ele>
        <time>2020-09-12T09:57:56Z</time>
      </trkpt>
      <trkpt lat="41.0140480" lon="-2.6208930">
        <ele>1107.0</ele>
        <time>2020-09-12T09:57:57Z</time>
      </trkpt>
      <trkpt lat="41.0140920" lon="-2.6208640">
        <ele>1106.8</ele>
        <time>2020-09-12T09:57:58Z</time>
      </trkpt>
      <trkpt lat="41.0141360" lon="-2.6208340">
        <ele>1106.8</ele>
        <time>2020-09-12T09:57:59Z</time>
      </trkpt>
      <trkpt lat="41.0141800" lon="-2.6208000">
        <ele>1106.6</ele>
        <time>2020-09-12T09:58:00Z</time>
      </trkpt>
      <trkpt lat="41.0142230" lon="-2.6207630">
        <ele>1106.6</ele>
        <time>2020-09-12T09:58:01Z</time>
      </trkpt>
      <trkpt lat="41.0142660" lon="-2.6207220">
        <ele>1106.6</ele>
        <time>2020-09-12T09:58:02Z</time>
      </trkpt>
      <trkpt lat="41.0143090" lon="-2.6206820">
        <ele>1106.4</ele>
        <time>2020-09-12T09:58:03Z</time>
      </trkpt>
      <trkpt lat="41.0143530" lon="-2.6206410">
        <ele>1106.4</ele>
        <time>2020-09-12T09:58:04Z</time>
      </trkpt>
      <trkpt lat="41.0143980" lon="-2.6206010">
        <ele>1106.6</ele>
        <time>2020-09-12T09:58:05Z</time>
      </trkpt>
      <trkpt lat="41.0144430" lon="-2.6205590">
        <ele>1106.6</ele>
        <time>2020-09-12T09:58:06Z</time>
      </trkpt>
      <trkpt lat="41.0144880" lon="-2.6205160">
        <ele>1106.6</ele>
        <time>2020-09-12T09:58:07Z</time>
      </trkpt>
      <trkpt lat="41.0145330" lon="-2.6204730">
        <ele>1106.6</ele>
        <time>2020-09-12T09:58:08Z</time>
      </trkpt>
      <trkpt lat="41.0145790" lon="-2.6204290">
        <ele>1106.6</ele>
        <time>2020-09-12T09:58:09Z</time>
      </trkpt>
      <trkpt lat="41.0146260" lon="-2.6203880">
        <ele>1106.6</ele>
        <time>2020-09-12T09:58:10Z</time>
      </trkpt>
      <trkpt lat="41.0146720" lon="-2.6203450">
        <ele>1106.6</ele>
        <time>2020-09-12T09:58:11Z</time>
      </trkpt>
      <trkpt lat="41.0147180" lon="-2.6203020">
        <ele>1106.6</ele>
        <time>2020-09-12T09:58:12Z</time>
      </trkpt>
      <trkpt lat="41.0147640" lon="-2.6202570">
        <ele>1106.6</ele>
        <time>2020-09-12T09:58:13Z</time>
      </trkpt>
      <trkpt lat="41.0148100" lon="-2.6202120">
        <ele>1106.6</ele>
        <time>2020-09-12T09:58:14Z</time>
      </trkpt>
      <trkpt lat="41.0148580" lon="-2.6201690">
        <ele>1106.8</ele>
        <time>2020-09-12T09:58:15Z</time>
      </trkpt>
      <trkpt lat="41.0149060" lon="-2.6201270">
        <ele>1107.0</ele>
        <time>2020-09-12T09:58:16Z</time>
      </trkpt>
      <trkpt lat="41.0149540" lon="-2.6200870">
        <ele>1107.0</ele>
        <time>2020-09-12T09:58:17Z</time>
      </trkpt>
      <trkpt lat="41.0150060" lon="-2.6200520">
        <ele>1106.8</ele>
        <time>2020-09-12T09:58:18Z</time>
      </trkpt>
      <trkpt lat="41.0150600" lon="-2.6200230">
        <ele>1106.8</ele>
        <time>2020-09-12T09:58:19Z</time>
      </trkpt>
      <trkpt lat="41.0151170" lon="-2.6200010">
        <ele>1106.8</ele>
        <time>2020-09-12T09:58:20Z</time>
      </trkpt>
      <trkpt lat="41.0151770" lon="-2.6199890">
        <ele>1107.0</ele>
        <time>2020-09-12T09:58:21Z</time>
      </trkpt>
      <trkpt lat="41.0152370" lon="-2.6199880">
        <ele>1107.0</ele>
        <time>2020-09-12T09:58:22Z</time>
      </trkpt>
      <trkpt lat="41.0152970" lon="-2.6199980">
        <ele>1107.0</ele>
        <time>2020-09-12T09:58:23Z</time>
      </trkpt>
      <trkpt lat="41.0153560" lon="-2.6200130">
        <ele>1107.0</ele>
        <time>2020-09-12T09:58:24Z</time>
      </trkpt>
      <trkpt lat="41.0154170" lon="-2.6200290">
        <ele>1107.2</ele>
        <time>2020-09-12T09:58:25Z</time>
      </trkpt>
      <trkpt lat="41.0154780" lon="-2.6200420">
        <ele>1107.4</ele>
        <time>2020-09-12T09:58:26Z</time>
      </trkpt>
      <trkpt lat="41.0155390" lon="-2.6200560">
        <ele>1107.4</ele>
        <time>2020-09-12T09:58:27Z</time>
      </trkpt>
      <trkpt lat="41.0156000" lon="-2.6200720">
        <ele>1107.4</ele>
        <time>2020-09-12T09:58:28Z</time>
      </trkpt>
      <trkpt lat="41.0156600" lon="-2.6200920">
        <ele>1107.6</ele>
        <time>2020-09-12T09:58:29Z</time>
      </trkpt>
      <trkpt lat="41.0157190" lon="-2.6201120">
        <ele>1107.8</ele>
        <time>2020-09-12T09:58:30Z</time>
      </trkpt>
      <trkpt lat="41.0157770" lon="-2.6201320">
        <ele>1107.8</ele>
        <time>2020-09-12T09:58:31Z</time>
      </trkpt>
      <trkpt lat="41.0158330" lon="-2.6201550">
        <ele>1107.8</ele>
        <time>2020-09-12T09:58:32Z</time>
      </trkpt>
      <trkpt lat="41.0158890" lon="-2.6201770">
        <ele>1107.8</ele>
        <time>2020-09-12T09:58:33Z</time>
      </trkpt>
      <trkpt lat="41.0159450" lon="-2.6201960">
        <ele>1107.8</ele>
        <time>2020-09-12T09:58:34Z</time>
      </trkpt>
      <trkpt lat="41.0160010" lon="-2.6202150">
        <ele>1108.0</ele>
        <time>2020-09-12T09:58:35Z</time>
      </trkpt>
      <trkpt lat="41.0160560" lon="-2.6202340">
        <ele>1108.0</ele>
        <time>2020-09-12T09:58:36Z</time>
      </trkpt>
      <trkpt lat="41.0161120" lon="-2.6202530">
        <ele>1108.0</ele>
        <time>2020-09-12T09:58:37Z</time>
      </trkpt>
      <trkpt lat="41.0161670" lon="-2.6202710">
        <ele>1108.0</ele>
        <time>2020-09-12T09:58:38Z</time>
      </trkpt>
      <trkpt lat="41.0162220" lon="-2.6202910">
        <ele>1108.2</ele>
        <time>2020-09-12T09:58:39Z</time>
      </trkpt>
      <trkpt lat="41.0162780" lon="-2.6203110">
        <ele>1108.2</ele>
        <time>2020-09-12T09:58:40Z</time>
      </trkpt>
      <trkpt lat="41.0163340" lon="-2.6203310">
        <ele>1108.2</ele>
        <time>2020-09-12T09:58:41Z</time>
      </trkpt>
      <trkpt lat="41.0163900" lon="-2.6203500">
        <ele>1108.2</ele>
        <time>2020-09-12T09:58:42Z</time>
      </trkpt>
      <trkpt lat="41.0164470" lon="-2.6203670">
        <ele>1108.2</ele>
        <time>2020-09-12T09:58:43Z</time>
      </trkpt>
      <trkpt lat="41.0165030" lon="-2.6203850">
        <ele>1108.4</ele>
        <time>2020-09-12T09:58:44Z</time>
      </trkpt>
      <trkpt lat="41.0165590" lon="-2.6204030">
        <ele>1108.6</ele>
        <time>2020-09-12T09:58:45Z</time>
      </trkpt>
      <trkpt lat="41.0166120" lon="-2.6204230">
        <ele>1108.6</ele>
        <time>2020-09-12T09:58:46Z</time>
      </trkpt>
      <trkpt lat="41.0166650" lon="-2.6204430">
        <ele>1108.8</ele>
        <time>2020-09-12T09:58:47Z</time>
      </trkpt>
      <trkpt lat="41.0167170" lon="-2.6204600">
        <ele>1108.8</ele>
        <time>2020-09-12T09:58:48Z</time>
      </trkpt>
      <trkpt lat="41.0167670" lon="-2.6204770">
        <ele>1109.0</ele>
        <time>2020-09-12T09:58:49Z</time>
      </trkpt>
      <trkpt lat="41.0168160" lon="-2.6204960">
        <ele>1109.2</ele>
        <time>2020-09-12T09:58:50Z</time>
      </trkpt>
      <trkpt lat="41.0168650" lon="-2.6205160">
        <ele>1109.4</ele>
        <time>2020-09-12T09:58:51Z</time>
      </trkpt>
      <trkpt lat="41.0169140" lon="-2.6205360">
        <ele>1109.4</ele>
        <time>2020-09-12T09:58:52Z</time>
      </trkpt>
      <trkpt lat="41.0169630" lon="-2.6205530">
        <ele>1109.6</ele>
        <time>2020-09-12T09:58:53Z</time>
      </trkpt>
      <trkpt lat="41.0170120" lon="-2.6205680">
        <ele>1110.0</ele>
        <time>2020-09-12T09:58:54Z</time>
      </trkpt>
      <trkpt lat="41.0170600" lon="-2.6205810">
        <ele>1110.2</ele>
        <time>2020-09-12T09:58:55Z</time>
      </trkpt>
      <trkpt lat="41.0171070" lon="-2.6205940">
        <ele>1110.6</ele>
        <time>2020-09-12T09:58:56Z</time>
      </trkpt>
      <trkpt lat="41.0171540" lon="-2.6206080">
        <ele>1111.0</ele>
        <time>2020-09-12T09:58:57Z</time>
      </trkpt>
      <trkpt lat="41.0172000" lon="-2.6206220">
        <ele>1111.2</ele>
        <time>2020-09-12T09:58:58Z</time>
      </trkpt>
      <trkpt lat="41.0172430" lon="-2.6206380">
        <ele>1111.4</ele>
        <time>2020-09-12T09:58:59Z</time>
      </trkpt>
      <trkpt lat="41.0172860" lon="-2.6206540">
        <ele>1111.8</ele>
        <time>2020-09-12T09:59:00Z</time>
      </trkpt>
      <trkpt lat="41.0173290" lon="-2.6206680">
        <ele>1112.0</ele>
        <time>2020-09-12T09:59:01Z</time>
      </trkpt>
      <trkpt lat="41.0173720" lon="-2.6206810">
        <ele>1112.4</ele>
        <time>2020-09-12T09:59:02Z</time>
      </trkpt>
      <trkpt lat="41.0174150" lon="-2.6206960">
        <ele>1112.6</ele>
        <time>2020-09-12T09:59:03Z</time>
      </trkpt>
      <trkpt lat="41.0174570" lon="-2.6207090">
        <ele>1112.8</ele>
        <time>2020-09-12T09:59:04Z</time>
      </trkpt>
      <trkpt lat="41.0175000" lon="-2.6207240">
        <ele>1113.0</ele>
        <time>2020-09-12T09:59:05Z</time>
      </trkpt>
      <trkpt lat="41.0175440" lon="-2.6207370">
        <ele>1113.2</ele>
        <time>2020-09-12T09:59:06Z</time>
      </trkpt>
      <trkpt lat="41.0175870" lon="-2.6207500">
        <ele>1113.6</ele>
        <time>2020-09-12T09:59:07Z</time>
      </trkpt>
      <trkpt lat="41.0176300" lon="-2.6207630">
        <ele>1113.8</ele>
        <time>2020-09-12T09:59:08Z</time>
      </trkpt>
      <trkpt lat="41.0176730" lon="-2.6207760">
        <ele>1114.0</ele>
        <time>2020-09-12T09:59:09Z</time>
      </trkpt>
      <trkpt lat="41.0177160" lon="-2.6207910">
        <ele>1114.2</ele>
        <time>2020-09-12T09:59:10Z</time>
      </trkpt>
      <trkpt lat="41.0177590" lon="-2.6208070">
        <ele>1114.2</ele>
        <time>2020-09-12T09:59:11Z</time>
      </trkpt>
      <trkpt lat="41.0178020" lon="-2.6208220">
        <ele>1114.4</ele>
        <time>2020-09-12T09:59:12Z</time>
      </trkpt>
      <trkpt lat="41.0178450" lon="-2.6208370">
        <ele>1114.4</ele>
        <time>2020-09-12T09:59:13Z</time>
      </trkpt>
      <trkpt lat="41.0178860" lon="-2.6208500">
        <ele>1114.6</ele>
        <time>2020-09-12T09:59:14Z</time>
      </trkpt>
      <trkpt lat="41.0179270" lon="-2.6208640">
        <ele>1114.8</ele>
        <time>2020-09-12T09:59:15Z</time>
      </trkpt>
      <trkpt lat="41.0179690" lon="-2.6208790">
        <ele>1114.8</ele>
        <time>2020-09-12T09:59:16Z</time>
      </trkpt>
      <trkpt lat="41.0180120" lon="-2.6208940">
        <ele>1115.0</ele>
        <time>2020-09-12T09:59:17Z</time>
      </trkpt>
      <trkpt lat="41.0180560" lon="-2.6209080">
        <ele>1115.2</ele>
        <time>2020-09-12T09:59:18Z</time>
      </trkpt>
      <trkpt lat="41.0181000" lon="-2.6209230">
        <ele>1115.6</ele>
        <time>2020-09-12T09:59:19Z</time>
      </trkpt>
      <trkpt lat="41.0181450" lon="-2.6209370">
        <ele>1116.0</ele>
        <time>2020-09-12T09:59:20Z</time>
      </trkpt>
      <trkpt lat="41.0181890" lon="-2.6209520">
        <ele>1116.4</ele>
        <time>2020-09-12T09:59:21Z</time>
      </trkpt>
      <trkpt lat="41.0182330" lon="-2.6209660">
        <ele>1116.6</ele>
        <time>2020-09-12T09:59:22Z</time>
      </trkpt>
      <trkpt lat="41.0182780" lon="-2.6209820">
        <ele>1116.8</ele>
        <time>2020-09-12T09:59:23Z</time>
      </trkpt>
      <trkpt lat="41.0183220" lon="-2.6209980">
        <ele>1117.0</ele>
        <time>2020-09-12T09:59:24Z</time>
      </trkpt>
      <trkpt lat="41.0183660" lon="-2.6210140">
        <ele>1117.4</ele>
        <time>2020-09-12T09:59:25Z</time>
      </trkpt>
      <trkpt lat="41.0184100" lon="-2.6210310">
        <ele>1117.6</ele>
        <time>2020-09-12T09:59:26Z</time>
      </trkpt>
      <trkpt lat="41.0184530" lon="-2.6210470">
        <ele>1117.8</ele>
        <time>2020-09-12T09:59:27Z</time>
      </trkpt>
      <trkpt lat="41.0184970" lon="-2.6210610">
        <ele>1118.0</ele>
        <time>2020-09-12T09:59:28Z</time>
      </trkpt>
      <trkpt lat="41.0185420" lon="-2.6210720">
        <ele>1118.2</ele>
        <time>2020-09-12T09:59:29Z</time>
      </trkpt>
      <trkpt lat="41.0185870" lon="-2.6210830">
        <ele>1118.4</ele>
        <time>2020-09-12T09:59:30Z</time>
      </trkpt>
      <trkpt lat="41.0186330" lon="-2.6210940">
        <ele>1118.6</ele>
        <time>2020-09-12T09:59:31Z</time>
      </trkpt>
      <trkpt lat="41.0186790" lon="-2.6211050">
        <ele>1118.6</ele>
        <time>2020-09-12T09:59:32Z</time>
      </trkpt>
      <trkpt lat="41.0187240" lon="-2.6211190">
        <ele>1118.6</ele>
        <time>2020-09-12T09:59:33Z</time>
      </trkpt>
      <trkpt lat="41.0187680" lon="-2.6211350">
        <ele>1118.6</ele>
        <time>2020-09-12T09:59:34Z</time>
      </trkpt>
      <trkpt lat="41.0188100" lon="-2.6211500">
        <ele>1118.8</ele>
        <time>2020-09-12T09:59:35Z</time>
      </trkpt>
      <trkpt lat="41.0188530" lon="-2.6211650">
        <ele>1119.0</ele>
        <time>2020-09-12T09:59:36Z</time>
      </trkpt>
      <trkpt lat="41.0188950" lon="-2.6211780">
        <ele>1119.4</ele>
        <time>2020-09-12T09:59:37Z</time>
      </trkpt>
      <trkpt lat="41.0189380" lon="-2.6211920">
        <ele>1119.6</ele>
        <time>2020-09-12T09:59:38Z</time>
      </trkpt>
      <trkpt lat="41.0189800" lon="-2.6212040">
        <ele>1120.0</ele>
        <time>2020-09-12T09:59:39Z</time>
      </trkpt>
      <trkpt lat="41.0190220" lon="-2.6212160">
        <ele>1120.0</ele>
        <time>2020-09-12T09:59:40Z</time>
      </trkpt>
      <trkpt lat="41.0190630" lon="-2.6212280">
        <ele>1120.2</ele>
        <time>2020-09-12T09:59:41Z</time>
      </trkpt>
      <trkpt lat="41.0191050" lon="-2.6212410">
        <ele>1120.4</ele>
        <time>2020-09-12T09:59:42Z</time>
      </trkpt>
      <trkpt lat="41.0191470" lon="-2.6212550">
        <ele>1120.6</ele>
        <time>2020-09-12T09:59:43Z</time>
      </trkpt>
      <trkpt lat="41.0191890" lon="-2.6212710">
        <ele>1120.6</ele>
        <time>2020-09-12T09:59:44Z</time>
      </trkpt>
      <trkpt lat="41.0192320" lon="-2.6212870">
        <ele>1120.8</ele>
        <time>2020-09-12T09:59:45Z</time>
      </trkpt>
      <trkpt lat="41.0192750" lon="-2.6213020">
        <ele>1120.8</ele>
        <time>2020-09-12T09:59:46Z</time>
      </trkpt>
      <trkpt lat="41.0193190" lon="-2.6213200">
        <ele>1120.8</ele>
        <time>2020-09-12T09:59:47Z</time>
      </trkpt>
      <trkpt lat="41.0193620" lon="-2.6213400">
        <ele>1121.0</ele>
        <time>2020-09-12T09:59:48Z</time>
      </trkpt>
      <trkpt lat="41.0194060" lon="-2.6213640">
        <ele>1121.2</ele>
        <time>2020-09-12T09:59:49Z</time>
      </trkpt>
      <trkpt lat="41.0194500" lon="-2.6213910">
        <ele>1121.2</ele>
        <time>2020-09-12T09:59:50Z</time>
      </trkpt>
      <trkpt lat="41.0194970" lon="-2.6214180">
        <ele>1121.4</ele>
        <time>2020-09-12T09:59:51Z</time>
      </trkpt>
      <trkpt lat="41.0195450" lon="-2.6214470">
        <ele>1121.4</ele>
        <time>2020-09-12T09:59:52Z</time>
      </trkpt>
      <trkpt lat="41.0195930" lon="-2.6214780">
        <ele>1121.4</ele>
        <time>2020-09-12T09:59:53Z</time>
      </trkpt>
      <trkpt lat="41.0196420" lon="-2.6215120">
        <ele>1121.4</ele>
        <time>2020-09-12T09:59:54Z</time>
      </trkpt>
      <trkpt lat="41.0196940" lon="-2.6215450">
        <ele>1121.4</ele>
        <time>2020-09-12T09:59:55Z</time>
      </trkpt>
      <trkpt lat="41.0197450" lon="-2.6215810">
        <ele>1121.4</ele>
        <time>2020-09-12T09:59:56Z</time>
      </trkpt>
      <trkpt lat="41.0197980" lon="-2.6216160">
        <ele>1121.4</ele>
        <time>2020-09-12T09:59:57Z</time>
      </trkpt>
      <trkpt lat="41.0198540" lon="-2.6216510">
        <ele>1121.4</ele>
        <time>2020-09-12T09:59:58Z</time>
      </trkpt>
      <trkpt lat="41.0199110" lon="-2.6216850">
        <ele>1121.4</ele>
        <time>2020-09-12T09:59:59Z</time>
      </trkpt>
      <trkpt lat="41.0199700" lon="-2.6217220">
        <ele>1121.2</ele>
        <time>2020-09-12T10:00:00Z</time>
      </trkpt>
      <trkpt lat="41.0200300" lon="-2.6217600">
        <ele>1121.0</ele>
        <time>2020-09-12T10:00:01Z</time>
      </trkpt>
      <trkpt lat="41.0200920" lon="-2.6217980">
        <ele>1120.8</ele>
        <time>2020-09-12T10:00:02Z</time>
      </trkpt>
      <trkpt lat="41.0201550" lon="-2.6218340">
        <ele>1120.8</ele>
        <time>2020-09-12T10:00:03Z</time>
      </trkpt>
      <trkpt lat="41.0202200" lon="-2.6218710">
        <ele>1120.6</ele>
        <time>2020-09-12T10:00:04Z</time>
      </trkpt>
      <trkpt lat="41.0202870" lon="-2.6219100">
        <ele>1120.6</ele>
        <time>2020-09-12T10:00:05Z</time>
      </trkpt>
      <trkpt lat="41.0203540" lon="-2.6219510">
        <ele>1120.6</ele>
        <time>2020-09-12T10:00:06Z</time>
      </trkpt>
      <trkpt lat="41.0204220" lon="-2.6219920">
        <ele>1120.6</ele>
        <time>2020-09-12T10:00:07Z</time>
      </trkpt>
      <trkpt lat="41.0204920" lon="-2.6220330">
        <ele>1120.4</ele>
        <time>2020-09-12T10:00:08Z</time>
      </trkpt>
      <trkpt lat="41.0205630" lon="-2.6220770">
        <ele>1120.2</ele>
        <time>2020-09-12T10:00:09Z</time>
      </trkpt>
      <trkpt lat="41.0206330" lon="-2.6221230">
        <ele>1120.2</ele>
        <time>2020-09-12T10:00:10Z</time>
      </trkpt>
      <trkpt lat="41.0207030" lon="-2.6221700">
        <ele>1120.2</ele>
        <time>2020-09-12T10:00:11Z</time>
      </trkpt>
      <trkpt lat="41.0207710" lon="-2.6222190">
        <ele>1120.2</ele>
        <time>2020-09-12T10:00:12Z</time>
      </trkpt>
      <trkpt lat="41.0208370" lon="-2.6222660">
        <ele>1120.2</ele>
        <time>2020-09-12T10:00:13Z</time>
      </trkpt>
      <trkpt lat="41.0208990" lon="-2.6223120">
        <ele>1120.2</ele>
        <time>2020-09-12T10:00:14Z</time>
      </trkpt>
      <trkpt lat="41.0209590" lon="-2.6223570">
        <ele>1120.2</ele>
        <time>2020-09-12T10:00:15Z</time>
      </trkpt>
      <trkpt lat="41.0210150" lon="-2.6224020">
        <ele>1120.2</ele>
        <time>2020-09-12T10:00:16Z</time>
      </trkpt>
      <trkpt lat="41.0210690" lon="-2.6224460">
        <ele>1120.4</ele>
        <time>2020-09-12T10:00:17Z</time>
      </trkpt>
      <trkpt lat="41.0211190" lon="-2.6224880">
        <ele>1120.6</ele>
        <time>2020-09-12T10:00:18Z</time>
      </trkpt>
      <trkpt lat="41.0211690" lon="-2.6225310">
        <ele>1120.8</ele>
        <time>2020-09-12T10:00:19Z</time>
      </trkpt>
      <trkpt lat="41.0212160" lon="-2.6225760">
        <ele>1121.0</ele>
        <time>2020-09-12T10:00:20Z</time>
      </trkpt>
      <trkpt lat="41.0212610" lon="-2.6226200">
        <ele>1121.2</ele>
        <time>2020-09-12T10:00:21Z</time>
      </trkpt>
      <trkpt lat="41.0213060" lon="-2.6226640">
        <ele>1121.4</ele>
        <time>2020-09-12T10:00:22Z</time>
      </trkpt>
      <trkpt lat="41.0213480" lon="-2.6227090">
        <ele>1121.4</ele>
        <time>2020-09-12T10:00:23Z</time>
      </trkpt>
      <trkpt lat="41.0213910" lon="-2.6227520">
        <ele>1121.6</ele>
        <time>2020-09-12T10:00:24Z</time>
      </trkpt>
      <trkpt lat="41.0214320" lon="-2.6227930">
        <ele>1122.0</ele>
        <time>2020-09-12T10:00:25Z</time>
      </trkpt>
      <trkpt lat="41.0214750" lon="-2.6228320">
        <ele>1122.2</ele>
        <time>2020-09-12T10:00:26Z</time>
      </trkpt>
      <trkpt lat="41.0215190" lon="-2.6228690">
        <ele>1122.6</ele>
        <time>2020-09-12T10:00:27Z</time>
      </trkpt>
      <trkpt lat="41.0215610" lon="-2.6229080">
        <ele>1122.8</ele>
        <time>2020-09-12T10:00:28Z</time>
      </trkpt>
      <trkpt lat="41.0216020" lon="-2.6229480">
        <ele>1123.0</ele>
        <time>2020-09-12T10:00:29Z</time>
      </trkpt>
      <trkpt lat="41.0216420" lon="-2.6229900">
        <ele>1123.4</ele>
        <time>2020-09-12T10:00:30Z</time>
      </trkpt>
      <trkpt lat="41.0216830" lon="-2.6230310">
        <ele>1123.8</ele>
        <time>2020-09-12T10:00:31Z</time>
      </trkpt>
      <trkpt lat="41.0217240" lon="-2.6230720">
        <ele>1124.2</ele>
        <time>2020-09-12T10:00:32Z</time>
      </trkpt>
      <trkpt lat="41.0217620" lon="-2.6231080">
        <ele>1124.6</ele>
        <time>2020-09-12T10:00:33Z</time>
      </trkpt>
      <trkpt lat="41.0218000" lon="-2.6231420">
        <ele>1125.0</ele>
        <time>2020-09-12T10:00:34Z</time>
      </trkpt>
      <trkpt lat="41.0218380" lon="-2.6231750">
        <ele>1125.2</ele>
        <time>2020-09-12T10:00:35Z</time>
      </trkpt>
      <trkpt lat="41.0218750" lon="-2.6232080">
        <ele>1125.4</ele>
        <time>2020-09-12T10:00:36Z</time>
      </trkpt>
      <trkpt lat="41.0219110" lon="-2.6232430">
        <ele>1125.6</ele>
        <time>2020-09-12T10:00:37Z</time>
      </trkpt>
      <trkpt lat="41.0219460" lon="-2.6232770">
        <ele>1126.0</ele>
        <time>2020-09-12T10:00:38Z</time>
      </trkpt>
      <trkpt lat="41.0219820" lon="-2.6233090">
        <ele>1126.2</ele>
        <time>2020-09-12T10:00:39Z</time>
      </trkpt>
      <trkpt lat="41.0220180" lon="-2.6233420">
        <ele>1126.2</ele>
        <time>2020-09-12T10:00:40Z</time>
      </trkpt>
      <trkpt lat="41.0220530" lon="-2.6233750">
        <ele>1126.4</ele>
        <time>2020-09-12T10:00:41Z</time>
      </trkpt>
      <trkpt lat="41.0220880" lon="-2.6234080">
        <ele>1126.6</ele>
        <time>2020-09-12T10:00:42Z</time>
      </trkpt>
      <trkpt lat="41.0221230" lon="-2.6234410">
        <ele>1126.8</ele>
        <time>2020-09-12T10:00:43Z</time>
      </trkpt>
      <trkpt lat="41.0221570" lon="-2.6234730">
        <ele>1127.0</ele>
        <time>2020-09-12T10:00:44Z</time>
      </trkpt>
      <trkpt lat="41.0221920" lon="-2.6235050">
        <ele>1127.4</ele>
        <time>2020-09-12T10:00:45Z</time>
      </trkpt>
      <trkpt lat="41.0222260" lon="-2.6235390">
        <ele>1127.6</ele>
        <time>2020-09-12T10:00:46Z</time>
      </trkpt>
      <trkpt lat="41.0222600" lon="-2.6235700">
        <ele>1128.0</ele>
        <time>2020-09-12T10:00:47Z</time>
      </trkpt>
      <trkpt lat="41.0222950" lon="-2.6235990">
        <ele>1128.2</ele>
        <time>2020-09-12T10:00:48Z</time>
      </trkpt>
      <trkpt lat="41.0223290" lon="-2.6236280">
        <ele>1128.4</ele>
        <time>2020-09-12T10:00:49Z</time>
      </trkpt>
      <trkpt lat="41.0223620" lon="-2.6236570">
        <ele>1128.6</ele>
        <time>2020-09-12T10:00:50Z</time>
      </trkpt>
      <trkpt lat="41.0223960" lon="-2.6236850">
        <ele>1128.8</ele>
        <time>2020-09-12T10:00:51Z</time>
      </trkpt>
      <trkpt lat="41.0224320" lon="-2.6237130">
        <ele>1129.0</ele>
        <time>2020-09-12T10:00:52Z</time>
      </trkpt>
      <trkpt lat="41.0224680" lon="-2.6237390">
        <ele>1129.2</ele>
        <time>2020-09-12T10:00:53Z</time>
      </trkpt>
      <trkpt lat="41.0225050" lon="-2.6237650">
        <ele>1129.4</ele>
        <time>2020-09-12T10:00:54Z</time>
      </trkpt>
      <trkpt lat="41.0225430" lon="-2.6237920">
        <ele>1129.6</ele>
        <time>2020-09-12T10:00:55Z</time>
      </trkpt>
      <trkpt lat="41.0225810" lon="-2.6238190">
        <ele>1129.8</ele>
        <time>2020-09-12T10:00:56Z</time>
      </trkpt>
      <trkpt lat="41.0226190" lon="-2.6238460">
        <ele>1130.0</ele>
        <time>2020-09-12T10:00:57Z</time>
      </trkpt>
      <trkpt lat="41.0226570" lon="-2.6238720">
        <ele>1130.4</ele>
        <time>2020-09-12T10:00:58Z</time>
      </trkpt>
      <trkpt lat="41.0226960" lon="-2.6238980">
        <ele>1130.4</ele>
        <time>2020-09-12T10:00:59Z</time>
      </trkpt>
      <trkpt lat="41.0227350" lon="-2.6239240">
        <ele>1130.6</ele>
        <time>2020-09-12T10:01:00Z</time>
      </trkpt>
      <trkpt lat="41.0227740" lon="-2.6239520">
        <ele>1130.6</ele>
        <time>2020-09-12T10:01:01Z</time>
      </trkpt>
      <trkpt lat="41.0228140" lon="-2.6239790">
        <ele>1130.8</ele>
        <time>2020-09-12T10:01:02Z</time>
      </trkpt>
      <trkpt lat="41.0228530" lon="-2.6240060">
        <ele>1130.8</ele>
        <time>2020-09-12T10:01:03Z</time>
      </trkpt>
      <trkpt lat="41.0228930" lon="-2.6240320">
        <ele>1131.0</ele>
        <time>2020-09-12T10:01:04Z</time>
      </trkpt>
      <trkpt lat="41.0229330" lon="-2.6240570">
        <ele>1131.0</ele>
        <time>2020-09-12T10:01:05Z</time>
      </trkpt>
      <trkpt lat="41.0229710" lon="-2.6240830">
        <ele>1131.2</ele>
        <time>2020-09-12T10:01:06Z</time>
      </trkpt>
      <trkpt lat="41.0230120" lon="-2.6241080">
        <ele>1131.2</ele>
        <time>2020-09-12T10:01:07Z</time>
      </trkpt>
      <trkpt lat="41.0230550" lon="-2.6241330">
        <ele>1131.4</ele>
        <time>2020-09-12T10:01:08Z</time>
      </trkpt>
      <trkpt lat="41.0230990" lon="-2.6241600">
        <ele>1131.4</ele>
        <time>2020-09-12T10:01:09Z</time>
      </trkpt>
      <trkpt lat="41.0231450" lon="-2.6241850">
        <ele>1131.4</ele>
        <time>2020-09-12T10:01:10Z</time>
      </trkpt>
      <trkpt lat="41.0231900" lon="-2.6242120">
        <ele>1131.4</ele>
        <time>2020-09-12T10:01:11Z</time>
      </trkpt>
      <trkpt lat="41.0232350" lon="-2.6242390">
        <ele>1131.4</ele>
        <time>2020-09-12T10:01:12Z</time>
      </trkpt>
      <trkpt lat="41.0232820" lon="-2.6242660">
        <ele>1131.4</ele>
        <time>2020-09-12T10:01:13Z</time>
      </trkpt>
      <trkpt lat="41.0233310" lon="-2.6242940">
        <ele>1131.4</ele>
        <time>2020-09-12T10:01:14Z</time>
      </trkpt>
      <trkpt lat="41.0233790" lon="-2.6243210">
        <ele>1131.4</ele>
        <time>2020-09-12T10:01:15Z</time>
      </trkpt>
      <trkpt lat="41.0234310" lon="-2.6243460">
        <ele>1131.6</ele>
        <time>2020-09-12T10:01:16Z</time>
      </trkpt>
      <trkpt lat="41.0234840" lon="-2.6243730">
        <ele>1131.6</ele>
        <time>2020-09-12T10:01:17Z</time>
      </trkpt>
      <trkpt lat="41.0235370" lon="-2.6244030">
        <ele>1131.8</ele>
        <time>2020-09-12T10:01:18Z</time>
      </trkpt>
      <trkpt lat="41.0235910" lon="-2.6244340">
        <ele>1131.8</ele>
        <time>2020-09-12T10:01:19Z</time>
      </trkpt>
      <trkpt lat="41.0236450" lon="-2.6244660">
        <ele>1131.8</ele>
        <time>2020-09-12T10:01:20Z</time>
      </trkpt>
      <trkpt lat="41.0237030" lon="-2.6244970">
        <ele>1131.8</ele>
        <time>2020-09-12T10:01:21Z</time>
      </trkpt>
      <trkpt lat="41.0237620" lon="-2.6245260">
        <ele>1131.8</ele>
        <time>2020-09-12T10:01:22Z</time>
      </trkpt>
      <trkpt lat="41.0238220" lon="-2.6245560">
        <ele>1131.6</ele>
        <time>2020-09-12T10:01:23Z</time>
      </trkpt>
      <trkpt lat="41.0238840" lon="-2.6245870">
        <ele>1131.6</ele>
        <time>2020-09-12T10:01:24Z</time>
      </trkpt>
      <trkpt lat="41.0239470" lon="-2.6246210">
        <ele>1131.6</ele>
        <time>2020-09-12T10:01:25Z</time>
      </trkpt>
      <trkpt lat="41.0240130" lon="-2.6246540">
        <ele>1131.4</ele>
        <time>2020-09-12T10:01:26Z</time>
      </trkpt>
      <trkpt lat="41.0240810" lon="-2.6246880">
        <ele>1131.4</ele>
        <time>2020-09-12T10:01:27Z</time>
      </trkpt>
      <trkpt lat="41.0241500" lon="-2.6247230">
        <ele>1131.0</ele>
        <time>2020-09-12T10:01:28Z</time>
      </trkpt>
      <trkpt lat="41.0242220" lon="-2.6247590">
        <ele>1130.6</ele>
        <time>2020-09-12T10:01:29Z</time>
      </trkpt>
      <trkpt lat="41.0242960" lon="-2.6247970">
        <ele>1130.4</ele>
        <time>2020-09-12T10:01:30Z</time>
      </trkpt>
      <trkpt lat="41.0243720" lon="-2.6248310">
        <ele>1130.2</ele>
        <time>2020-09-12T10:01:31Z</time>
      </trkpt>
      <trkpt lat="41.0244490" lon="-2.6248670">
        <ele>1130.2</ele>
        <time>2020-09-12T10:01:32Z</time>
      </trkpt>
      <trkpt lat="41.0245300" lon="-2.6249050">
        <ele>1129.8</ele>
        <time>2020-09-12T10:01:33Z</time>
      </trkpt>
      <trkpt lat="41.0246110" lon="-2.6249470">
        <ele>1129.4</ele>
        <time>2020-09-12T10:01:34Z</time>
      </trkpt>
      <trkpt lat="41.0246960" lon="-2.6249870">
        <ele>1129.0</ele>
        <time>2020-09-12T10:01:35Z</time>
      </trkpt>
      <trkpt lat="41.0247850" lon="-2.6250260">
        <ele>1128.6</ele>
        <time>2020-09-12T10:01:36Z</time>
      </trkpt>
      <trkpt lat="41.0248770" lon="-2.6250670">
        <ele>1128.2</ele>
        <time>2020-09-12T10:01:37Z</time>
      </trkpt>
      <trkpt lat="41.0249730" lon="-2.6251050">
        <ele>1127.8</ele>
        <time>2020-09-12T10:01:38Z</time>
      </trkpt>
      <trkpt lat="41.0250720" lon="-2.6251420">
        <ele>1127.6</ele>
        <time>2020-09-12T10:01:39Z</time>
      </trkpt>
      <trkpt lat="41.0251760" lon="-2.6251770">
        <ele>1127.4</ele>
        <time>2020-09-12T10:01:40Z</time>
      </trkpt>
      <trkpt lat="41.0252830" lon="-2.6252080">
        <ele>1127.2</ele>
        <time>2020-09-12T10:01:41Z</time>
      </trkpt>
      <trkpt lat="41.0253950" lon="-2.6252370">
        <ele>1127.0</ele>
        <time>2020-09-12T10:01:42Z</time>
      </trkpt>
      <trkpt lat="41.0255080" lon="-2.6252660">
        <ele>1126.4</ele>
        <time>2020-09-12T10:01:43Z</time>
      </trkpt>
      <trkpt lat="41.0256230" lon="-2.6253000">
        <ele>1125.4</ele>
        <time>2020-09-12T10:01:44Z</time>
      </trkpt>
      <trkpt lat="41.0257410" lon="-2.6253340">
        <ele>1124.4</ele>
        <time>2020-09-12T10:01:45Z</time>
      </trkpt>
      <trkpt lat="41.0258610" lon="-2.6253680">
        <ele>1123.6</ele>
        <time>2020-09-12T10:01:46Z</time>
      </trkpt>
      <trkpt lat="41.0259810" lon="-2.6254030">
        <ele>1122.6</ele>
        <time>2020-09-12T10:01:47Z</time>
      </trkpt>
      <trkpt lat="41.0261000" lon="-2.6254380">
        <ele>1121.8</ele>
        <time>2020-09-12T10:01:48Z</time>
      </trkpt>
      <trkpt lat="41.0262160" lon="-2.6254760">
        <ele>1120.8</ele>
        <time>2020-09-12T10:01:49Z</time>
      </trkpt>
      <trkpt lat="41.0263330" lon="-2.6255110">
        <ele>1119.6</ele>
        <time>2020-09-12T10:01:50Z</time>
      </trkpt>
      <trkpt lat="41.0264510" lon="-2.6255380">
        <ele>1118.6</ele>
        <time>2020-09-12T10:01:51Z</time>
      </trkpt>
      <trkpt lat="41.0265720" lon="-2.6255510">
        <ele>1118.0</ele>
        <time>2020-09-12T10:01:52Z</time>
      </trkpt>
      <trkpt lat="41.0266930" lon="-2.6255400">
        <ele>1117.4</ele>
        <time>2020-09-12T10:01:53Z</time>
      </trkpt>
      <trkpt lat="41.0268140" lon="-2.6255020">
        <ele>1116.6</ele>
        <time>2020-09-12T10:01:54Z</time>
      </trkpt>
      <trkpt lat="41.0269310" lon="-2.6254390">
        <ele>1115.8</ele>
        <time>2020-09-12T10:01:55Z</time>
      </trkpt>
      <trkpt lat="41.0270440" lon="-2.6253580">
        <ele>1115.0</ele>
        <time>2020-09-12T10:01:56Z</time>
      </trkpt>
      <trkpt lat="41.0271520" lon="-2.6252620">
        <ele>1113.8</ele>
        <time>2020-09-12T10:01:57Z</time>
      </trkpt>
      <trkpt lat="41.0272570" lon="-2.6251590">
        <ele>1112.4</ele>
        <time>2020-09-12T10:01:58Z</time>
      </trkpt>
      <trkpt lat="41.0273630" lon="-2.6250510">
        <ele>1111.2</ele>
        <time>2020-09-12T10:01:59Z</time>
      </trkpt>
      <trkpt lat="41.0274710" lon="-2.6249430">
        <ele>1110.2</ele>
        <time>2020-09-12T10:02:00Z</time>
      </trkpt>
      <trkpt lat="41.0275810" lon="-2.6248360">
        <ele>1109.4</ele>
        <time>2020-09-12T10:02:01Z</time>
      </trkpt>
      <trkpt lat="41.0276940" lon="-2.6247340">
        <ele>1108.8</ele>
        <time>2020-09-12T10:02:02Z</time>
      </trkpt>
      <trkpt lat="41.0278130" lon="-2.6246460">
        <ele>1108.2</ele>
        <time>2020-09-12T10:02:03Z</time>
      </trkpt>
      <trkpt lat="41.0279360" lon="-2.6245790">
        <ele>1107.8</ele>
        <time>2020-09-12T10:02:04Z</time>
      </trkpt>
      <trkpt lat="41.0280630" lon="-2.6245400">
        <ele>1107.2</ele>
        <time>2020-09-12T10:02:05Z</time>
      </trkpt>
      <trkpt lat="41.0281950" lon="-2.6245360">
        <ele>1106.6</ele>
        <time>2020-09-12T10:02:06Z</time>
      </trkpt>
      <trkpt lat="41.0283260" lon="-2.6245660">
        <ele>1106.0</ele>
        <time>2020-09-12T10:02:07Z</time>
      </trkpt>
      <trkpt lat="41.0284480" lon="-2.6246280">
        <ele>1105.2</ele>
        <time>2020-09-12T10:02:08Z</time>
      </trkpt>
      <trkpt lat="41.0285640" lon="-2.6247120">
        <ele>1104.6</ele>
        <time>2020-09-12T10:02:09Z</time>
      </trkpt>
      <trkpt lat="41.0286730" lon="-2.6248060">
        <ele>1103.8</ele>
        <time>2020-09-12T10:02:10Z</time>
      </trkpt>
      <trkpt lat="41.0287770" lon="-2.6249050">
        <ele>1103.0</ele>
        <time>2020-09-12T10:02:11Z</time>
      </trkpt>
      <trkpt lat="41.0288770" lon="-2.6250050">
        <ele>1102.0</ele>
        <time>2020-09-12T10:02:12Z</time>
      </trkpt>
      <trkpt lat="41.0289750" lon="-2.6251050">
        <ele>1101.2</ele>
        <time>2020-09-12T10:02:13Z</time>
      </trkpt>
      <trkpt lat="41.0290700" lon="-2.6252050">
        <ele>1100.8</ele>
        <time>2020-09-12T10:02:14Z</time>
      </trkpt>
      <trkpt lat="41.0291630" lon="-2.6253030">
        <ele>1100.4</ele>
        <time>2020-09-12T10:02:15Z</time>
      </trkpt>
      <trkpt lat="41.0292550" lon="-2.6253960">
        <ele>1100.4</ele>
        <time>2020-09-12T10:02:16Z</time>
      </trkpt>
      <trkpt lat="41.0293460" lon="-2.6254850">
        <ele>1100.4</ele>
        <time>2020-09-12T10:02:17Z</time>
      </trkpt>
      <trkpt lat="41.0294370" lon="-2.6255680">
        <ele>1100.4</ele>
        <time>2020-09-12T10:02:18Z</time>
      </trkpt>
      <trkpt lat="41.0295250" lon="-2.6256440">
        <ele>1100.4</ele>
        <time>2020-09-12T10:02:19Z</time>
      </trkpt>
      <trkpt lat="41.0296130" lon="-2.6257100">
        <ele>1100.6</ele>
        <time>2020-09-12T10:02:20Z</time>
      </trkpt>
      <trkpt lat="41.0297030" lon="-2.6257610">
        <ele>1100.6</ele>
        <time>2020-09-12T10:02:21Z</time>
      </trkpt>
      <trkpt lat="41.0297930" lon="-2.6257950">
        <ele>1100.6</ele>
        <time>2020-09-12T10:02:22Z</time>
      </trkpt>
      <trkpt lat="41.0298820" lon="-2.6258090">
        <ele>1100.6</ele>
        <time>2020-09-12T10:02:23Z</time>
      </trkpt>
      <trkpt lat="41.0299660" lon="-2.6258040">
        <ele>1100.8</ele>
        <time>2020-09-12T10:02:24Z</time>
      </trkpt>
      <trkpt lat="41.0300440" lon="-2.6257860">
        <ele>1101.0</ele>
        <time>2020-09-12T10:02:25Z</time>
      </trkpt>
      <trkpt lat="41.0301180" lon="-2.6257600">
        <ele>1101.4</ele>
        <time>2020-09-12T10:02:26Z</time>
      </trkpt>
      <trkpt lat="41.0301860" lon="-2.6257310">
        <ele>1101.6</ele>
        <time>2020-09-12T10:02:27Z</time>
      </trkpt>
      <trkpt lat="41.0302510" lon="-2.6257020">
        <ele>1101.8</ele>
        <time>2020-09-12T10:02:28Z</time>
      </trkpt>
      <trkpt lat="41.0303120" lon="-2.6256740">
        <ele>1102.0</ele>
        <time>2020-09-12T10:02:29Z</time>
      </trkpt>
      <trkpt lat="41.0303710" lon="-2.6256450">
        <ele>1102.4</ele>
        <time>2020-09-12T10:02:30Z</time>
      </trkpt>
      <trkpt lat="41.0304280" lon="-2.6256150">
        <ele>1102.8</ele>
        <time>2020-09-12T10:02:31Z</time>
      </trkpt>
      <trkpt lat="41.0304830" lon="-2.6255870">
        <ele>1103.2</ele>
        <time>2020-09-12T10:02:32Z</time>
      </trkpt>
      <trkpt lat="41.0305360" lon="-2.6255610">
        <ele>1103.4</ele>
        <time>2020-09-12T10:02:33Z</time>
      </trkpt>
      <trkpt lat="41.0305890" lon="-2.6255360">
        <ele>1103.6</ele>
        <time>2020-09-12T10:02:34Z</time>
      </trkpt>
      <trkpt lat="41.0306400" lon="-2.6255110">
        <ele>1104.0</ele>
        <time>2020-09-12T10:02:35Z</time>
      </trkpt>
      <trkpt lat="41.0306900" lon="-2.6254850">
        <ele>1104.2</ele>
        <time>2020-09-12T10:02:36Z</time>
      </trkpt>
      <trkpt lat="41.0307390" lon="-2.6254610">
        <ele>1104.4</ele>
        <time>2020-09-12T10:02:37Z</time>
      </trkpt>
      <trkpt lat="41.0307850" lon="-2.6254360">
        <ele>1104.6</ele>
        <time>2020-09-12T10:02:38Z</time>
      </trkpt>
      <trkpt lat="41.0308310" lon="-2.6254110">
        <ele>1105.0</ele>
        <time>2020-09-12T10:02:39Z</time>
      </trkpt>
      <trkpt lat="41.0308770" lon="-2.6253880">
        <ele>1105.4</ele>
        <time>2020-09-12T10:02:40Z</time>
      </trkpt>
      <trkpt lat="41.0309240" lon="-2.6253680">
        <ele>1105.6</ele>
        <time>2020-09-12T10:02:41Z</time>
      </trkpt>
      <trkpt lat="41.0309670" lon="-2.6253470">
        <ele>1105.8</ele>
        <time>2020-09-12T10:02:42Z</time>
      </trkpt>
      <trkpt lat="41.0310110" lon="-2.6253220">
        <ele>1106.0</ele>
        <time>2020-09-12T10:02:43Z</time>
      </trkpt>
      <trkpt lat="41.0310540" lon="-2.6252970">
        <ele>1106.2</ele>
        <time>2020-09-12T10:02:44Z</time>
      </trkpt>
      <trkpt lat="41.0310960" lon="-2.6252720">
        <ele>1106.6</ele>
        <time>2020-09-12T10:02:45Z</time>
      </trkpt>
      <trkpt lat="41.0311380" lon="-2.6252470">
        <ele>1106.6</ele>
        <time>2020-09-12T10:02:46Z</time>
      </trkpt>
      <trkpt lat="41.0311800" lon="-2.6252250">
        <ele>1106.8</ele>
        <time>2020-09-12T10:02:47Z</time>
      </trkpt>
      <trkpt lat="41.0312220" lon="-2.6252020">
        <ele>1107.2</ele>
        <time>2020-09-12T10:02:48Z</time>
      </trkpt>
      <trkpt lat="41.0312660" lon="-2.6251770">
        <ele>1107.2</ele>
        <time>2020-09-12T10:02:49Z</time>
      </trkpt>
      <trkpt lat="41.0313080" lon="-2.6251530">
        <ele>1107.4</ele>
        <time>2020-09-12T10:02:50Z</time>
      </trkpt>
      <trkpt lat="41.0313510" lon="-2.6251290">
        <ele>1107.8</ele>
        <time>2020-09-12T10:02:51Z</time>
      </trkpt>
      <trkpt lat="41.0313960" lon="-2.6251070">
        <ele>1108.4</ele>
        <time>2020-09-12T10:02:52Z</time>
      </trkpt>
      <trkpt lat="41.0314400" lon="-2.6250840">
        <ele>1108.6</ele>
        <time>2020-09-12T10:02:53Z</time>
      </trkpt>
      <trkpt lat="41.0314840" lon="-2.6250610">
        <ele>1109.0</ele>
        <time>2020-09-12T10:02:54Z</time>
      </trkpt>
      <trkpt lat="41.0315280" lon="-2.6250410">
        <ele>1109.4</ele>
        <time>2020-09-12T10:02:55Z</time>
      </trkpt>
      <trkpt lat="41.0315720" lon="-2.6250190">
        <ele>1109.6</ele>
        <time>2020-09-12T10:02:56Z</time>
      </trkpt>
      <trkpt lat="41.0316150" lon="-2.6249910">
        <ele>1110.0</ele>
        <time>2020-09-12T10:02:57Z</time>
      </trkpt>
      <trkpt lat="41.0316580" lon="-2.6249660">
        <ele>1110.2</ele>
        <time>2020-09-12T10:02:58Z</time>
      </trkpt>
      <trkpt lat="41.0317010" lon="-2.6249420">
        <ele>1110.4</ele>
        <time>2020-09-12T10:02:59Z</time>
      </trkpt>
      <trkpt lat="41.0317450" lon="-2.6249170">
        <ele>1110.6</ele>
        <time>2020-09-12T10:03:00Z</time>
      </trkpt>
      <trkpt lat="41.0317880" lon="-2.6248890">
        <ele>1111.0</ele>
        <time>2020-09-12T10:03:01Z</time>
      </trkpt>
      <trkpt lat="41.0318280" lon="-2.6248580">
        <ele>1111.2</ele>
        <time>2020-09-12T10:03:02Z</time>
      </trkpt>
      <trkpt lat="41.0318690" lon="-2.6248240">
        <ele>1111.4</ele>
        <time>2020-09-12T10:03:03Z</time>
      </trkpt>
      <trkpt lat="41.0319110" lon="-2.6247910">
        <ele>1111.6</ele>
        <time>2020-09-12T10:03:04Z</time>
      </trkpt>
      <trkpt lat="41.0319530" lon="-2.6247600">
        <ele>1112.0</ele>
        <time>2020-09-12T10:03:05Z</time>
      </trkpt>
      <trkpt lat="41.0319920" lon="-2.6247270">
        <ele>1112.4</ele>
        <time>2020-09-12T10:03:06Z</time>
      </trkpt>
      <trkpt lat="41.0320330" lon="-2.6246910">
        <ele>1112.8</ele>
        <time>2020-09-12T10:03:07Z</time>
      </trkpt>
      <trkpt lat="41.0320720" lon="-2.6246560">
        <ele>1113.2</ele>
        <time>2020-09-12T10:03:08Z</time>
      </trkpt>
      <trkpt lat="41.0321100" lon="-2.6246210">
        <ele>1113.6</ele>
        <time>2020-09-12T10:03:09Z</time>
      </trkpt>
      <trkpt lat="41.0321470" lon="-2.6245860">
        <ele>1113.8</ele>
        <time>2020-09-12T10:03:10Z</time>
      </trkpt>
      <trkpt lat="41.0321840" lon="-2.6245500">
        <ele>1114.2</ele>
        <time>2020-09-12T10:03:11Z</time>
      </trkpt>
      <trkpt lat="41.0322180" lon="-2.6245170">
        <ele>1114.4</ele>
        <time>2020-09-12T10:03:12Z</time>
      </trkpt>
      <trkpt lat="41.0322510" lon="-2.6244840">
        <ele>1114.8</ele>
        <time>2020-09-12T10:03:13Z</time>
      </trkpt>
      <trkpt lat="41.0322840" lon="-2.6244510">
        <ele>1115.2</ele>
        <time>2020-09-12T10:03:14Z</time>
      </trkpt>
      <trkpt lat="41.0323160" lon="-2.6244190">
        <ele>1115.4</ele>
        <time>2020-09-12T10:03:15Z</time>
      </trkpt>
      <trkpt lat="41.0323500" lon="-2.6243890">
        <ele>1115.6</ele>
        <time>2020-09-12T10:03:16Z</time>
      </trkpt>
      <trkpt lat="41.0323850" lon="-2.6243600">
        <ele>1115.8</ele>
        <time>2020-09-12T10:03:17Z</time>
      </trkpt>
      <trkpt lat="41.0324200" lon="-2.6243320">
        <ele>1116.0</ele>
        <time>2020-09-12T10:03:18Z</time>
      </trkpt>
      <trkpt lat="41.0324540" lon="-2.6243030">
        <ele>1116.0</ele>
        <time>2020-09-12T10:03:19Z</time>
      </trkpt>
      <trkpt lat="41.0324890" lon="-2.6242730">
        <ele>1116.2</ele>
        <time>2020-09-12T10:03:20Z</time>
      </trkpt>
      <trkpt lat="41.0325240" lon="-2.6242450">
        <ele>1116.4</ele>
        <time>2020-09-12T10:03:21Z</time>
      </trkpt>
      <trkpt lat="41.0325600" lon="-2.6242170">
        <ele>1116.6</ele>
        <time>2020-09-12T10:03:22Z</time>
      </trkpt>
      <trkpt lat="41.0325940" lon="-2.6241870">
        <ele>1116.8</ele>
        <time>2020-09-12T10:03:23Z</time>
      </trkpt>
      <trkpt lat="41.0326290" lon="-2.6241590">
        <ele>1117.0</ele>
        <time>2020-09-12T10:03:24Z</time>
      </trkpt>
      <trkpt lat="41.0326650" lon="-2.6241330">
        <ele>1117.0</ele>
        <time>2020-09-12T10:03:25Z</time>
      </trkpt>
      <trkpt lat="41.0327020" lon="-2.6241100">
        <ele>1117.2</ele>
        <time>2020-09-12T10:03:26Z</time>
      </trkpt>
      <trkpt lat="41.0327410" lon="-2.6240880">
        <ele>1117.4</ele>
        <time>2020-09-12T10:03:27Z</time>
      </trkpt>
      <trkpt lat="41.0327800" lon="-2.6240680">
        <ele>1117.6</ele>
        <time>2020-09-12T10:03:28Z</time>
      </trkpt>
      <trkpt lat="41.0328200" lon="-2.6240500">
        <ele>1117.8</ele>
        <time>2020-09-12T10:03:29Z</time>
      </trkpt>
      <trkpt lat="41.0328630" lon="-2.6240350">
        <ele>1117.8</ele>
        <time>2020-09-12T10:03:30Z</time>
      </trkpt>
      <trkpt lat="41.0329070" lon="-2.6240200">
        <ele>1117.8</ele>
        <time>2020-09-12T10:03:31Z</time>
      </trkpt>
      <trkpt lat="41.0329520" lon="-2.6240050">
        <ele>1118.0</ele>
        <time>2020-09-12T10:03:32Z</time>
      </trkpt>
      <trkpt lat="41.0330000" lon="-2.6239930">
        <ele>1118.0</ele>
        <time>2020-09-12T10:03:33Z</time>
      </trkpt>
      <trkpt lat="41.0330510" lon="-2.6239800">
        <ele>1118.0</ele>
        <time>2020-09-12T10:03:34Z</time>
      </trkpt>
      <trkpt lat="41.0331040" lon="-2.6239710">
        <ele>1118.0</ele>
        <time>2020-09-12T10:03:35Z</time>
      </trkpt>
      <trkpt lat="41.0331590" lon="-2.6239650">
        <ele>1118.0</ele>
        <time>2020-09-12T10:03:36Z</time>
      </trkpt>
      <trkpt lat="41.0332160" lon="-2.6239610">
        <ele>1117.8</ele>
        <time>2020-09-12T10:03:37Z</time>
      </trkpt>
      <trkpt lat="41.0332750" lon="-2.6239580">
        <ele>1117.6</ele>
        <time>2020-09-12T10:03:38Z</time>
      </trkpt>
      <trkpt lat="41.0333360" lon="-2.6239570">
        <ele>1117.4</ele>
        <time>2020-09-12T10:03:39Z</time>
      </trkpt>
      <trkpt lat="41.0333990" lon="-2.6239570">
        <ele>1117.2</ele>
        <time>2020-09-12T10:03:40Z</time>
      </trkpt>
      <trkpt lat="41.0334630" lon="-2.6239580">
        <ele>1117.0</ele>
        <time>2020-09-12T10:03:41Z</time>
      </trkpt>
      <trkpt lat="41.0335300" lon="-2.6239640">
        <ele>1117.0</ele>
        <time>2020-09-12T10:03:42Z</time>
      </trkpt>
      <trkpt lat="41.0335970" lon="-2.6239710">
        <ele>1116.8</ele>
        <time>2020-09-12T10:03:43Z</time>
      </trkpt>
      <trkpt lat="41.0336660" lon="-2.6239780">
        <ele>1116.8</ele>
        <time>2020-09-12T10:03:44Z</time>
      </trkpt>
      <trkpt lat="41.0337360" lon="-2.6239860">
        <ele>1116.8</ele>
        <time>2020-09-12T10:03:45Z</time>
      </trkpt>
      <trkpt lat="41.0338070" lon="-2.6239920">
        <ele>1116.8</ele>
        <time>2020-09-12T10:03:46Z</time>
      </trkpt>
      <trkpt lat="41.0338780" lon="-2.6239980">
        <ele>1116.8</ele>
        <time>2020-09-12T10:03:47Z</time>
      </trkpt>
      <trkpt lat="41.0339490" lon="-2.6240060">
        <ele>1116.6</ele>
        <time>2020-09-12T10:03:48Z</time>
      </trkpt>
      <trkpt lat="41.0340200" lon="-2.6240150">
        <ele>1116.6</ele>
        <time>2020-09-12T10:03:49Z</time>
      </trkpt>
      <trkpt lat="41.0340920" lon="-2.6240230">
        <ele>1116.6</ele>
        <time>2020-09-12T10:03:50Z</time>
      </trkpt>
      <trkpt lat="41.0341630" lon="-2.6240300">
        <ele>1116.4</ele>
        <time>2020-09-12T10:03:51Z</time>
      </trkpt>
      <trkpt lat="41.0342330" lon="-2.6240340">
        <ele>1116.2</ele>
        <time>2020-09-12T10:03:52Z</time>
      </trkpt>
      <trkpt lat="41.0343040" lon="-2.6240380">
        <ele>1116.2</ele>
        <time>2020-09-12T10:03:53Z</time>
      </trkpt>
      <trkpt lat="41.0343740" lon="-2.6240460">
        <ele>1116.2</ele>
        <time>2020-09-12T10:03:54Z</time>
      </trkpt>
      <trkpt lat="41.0344430" lon="-2.6240520">
        <ele>1116.2</ele>
        <time>2020-09-12T10:03:55Z</time>
      </trkpt>
      <trkpt lat="41.0345110" lon="-2.6240580">
        <ele>1116.2</ele>
        <time>2020-09-12T10:03:56Z</time>
      </trkpt>
      <trkpt lat="41.0345770" lon="-2.6240630">
        <ele>1116.6</ele>
        <time>2020-09-12T10:03:57Z</time>
      </trkpt>
      <trkpt lat="41.0346420" lon="-2.6240670">
        <ele>1116.8</ele>
        <time>2020-09-12T10:03:58Z</time>
      </trkpt>
      <trkpt lat="41.0347040" lon="-2.6240720">
        <ele>1117.0</ele>
        <time>2020-09-12T10:03:59Z</time>
      </trkpt>
      <trkpt lat="41.0347650" lon="-2.6240790">
        <ele>1117.0</ele>
        <time>2020-09-12T10:04:00Z</time>
      </trkpt>
      <trkpt lat="41.0348270" lon="-2.6240870">
        <ele>1117.0</ele>
        <time>2020-09-12T10:04:01Z</time>
      </trkpt>
      <trkpt lat="41.0348880" lon="-2.6240960">
        <ele>1117.2</ele>
        <time>2020-09-12T10:04:02Z</time>
      </trkpt>
      <trkpt lat="41.0349490" lon="-2.6241060">
        <ele>1117.2</ele>
        <time>2020-09-12T10:04:03Z</time>
      </trkpt>
      <trkpt lat="41.0350080" lon="-2.6241200">
        <ele>1117.6</ele>
        <time>2020-09-12T10:04:04Z</time>
      </trkpt>
      <trkpt lat="41.0350650" lon="-2.6241380">
        <ele>1118.0</ele>
        <time>2020-09-12T10:04:05Z</time>
      </trkpt>
      <trkpt lat="41.0351210" lon="-2.6241580">
        <ele>1118.4</ele>
        <time>2020-09-12T10:04:06Z</time>
      </trkpt>
      <trkpt lat="41.0351780" lon="-2.6241800">
        <ele>1118.6</ele>
        <time>2020-09-12T10:04:07Z</time>
      </trkpt>
      <trkpt lat="41.0352340" lon="-2.6242030">
        <ele>1119.0</ele>
        <time>2020-09-12T10:04:08Z</time>
      </trkpt>
      <trkpt lat="41.0352880" lon="-2.6242290">
        <ele>1119.4</ele>
        <time>2020-09-12T10:04:09Z</time>
      </trkpt>
      <trkpt lat="41.0353410" lon="-2.6242560">
        <ele>1119.4</ele>
        <time>2020-09-12T10:04:10Z</time>
      </trkpt>
      <trkpt lat="41.0353900" lon="-2.6242870">
        <ele>1119.6</ele>
        <time>2020-09-12T10:04:11Z</time>
      </trkpt>
      <trkpt lat="41.0354360" lon="-2.6243160">
        <ele>1120.0</ele>
        <time>2020-09-12T10:04:12Z</time>
      </trkpt>
      <trkpt lat="41.0354830" lon="-2.6243460">
        <ele>1120.6</ele>
        <time>2020-09-12T10:04:13Z</time>
      </trkpt>
      <trkpt lat="41.0355320" lon="-2.6243750">
        <ele>1121.0</ele>
        <time>2020-09-12T10:04:14Z</time>
      </trkpt>
      <trkpt lat="41.0355820" lon="-2.6244020">
        <ele>1121.2</ele>
        <time>2020-09-12T10:04:15Z</time>
      </trkpt>
      <trkpt lat="41.0356340" lon="-2.6244300">
        <ele>1121.4</ele>
        <time>2020-09-12T10:04:16Z</time>
      </trkpt>
      <trkpt lat="41.0356860" lon="-2.6244600">
        <ele>1121.6</ele>
        <time>2020-09-12T10:04:17Z</time>
      </trkpt>
      <trkpt lat="41.0357390" lon="-2.6244900">
        <ele>1121.6</ele>
        <time>2020-09-12T10:04:18Z</time>
      </trkpt>
      <trkpt lat="41.0357940" lon="-2.6245200">
        <ele>1121.8</ele>
        <time>2020-09-12T10:04:19Z</time>
      </trkpt>
      <trkpt lat="41.0358480" lon="-2.6245520">
        <ele>1122.2</ele>
        <time>2020-09-12T10:04:20Z</time>
      </trkpt>
      <trkpt lat="41.0359000" lon="-2.6245860">
        <ele>1122.2</ele>
        <time>2020-09-12T10:04:21Z</time>
      </trkpt>
      <trkpt lat="41.0359530" lon="-2.6246200">
        <ele>1122.4</ele>
        <time>2020-09-12T10:04:22Z</time>
      </trkpt>
      <trkpt lat="41.0360050" lon="-2.6246540">
        <ele>1122.6</ele>
        <time>2020-09-12T10:04:23Z</time>
      </trkpt>
      <trkpt lat="41.0360590" lon="-2.6246930">
        <ele>1122.6</ele>
        <time>2020-09-12T10:04:24Z</time>
      </trkpt>
      <trkpt lat="41.0361120" lon="-2.6247360">
        <ele>1122.8</ele>
        <time>2020-09-12T10:04:25Z</time>
      </trkpt>
      <trkpt lat="41.0361650" lon="-2.6247840">
        <ele>1122.8</ele>
        <time>2020-09-12T10:04:26Z</time>
      </trkpt>
      <trkpt lat="41.0362210" lon="-2.6248330">
        <ele>1122.8</ele>
        <time>2020-09-12T10:04:27Z</time>
      </trkpt>
      <trkpt lat="41.0362790" lon="-2.6248810">
        <ele>1122.8</ele>
        <time>2020-09-12T10:04:28Z</time>
      </trkpt>
      <trkpt lat="41.0363400" lon="-2.6249300">
        <ele>1122.8</ele>
        <time>2020-09-12T10:04:29Z</time>
      </trkpt>
      <trkpt lat="41.0364020" lon="-2.6249820">
        <ele>1122.8</ele>
        <time>2020-09-12T10:04:30Z</time>
      </trkpt>
      <trkpt lat="41.0364650" lon="-2.6250370">
        <ele>1122.8</ele>
        <time>2020-09-12T10:04:31Z</time>
      </trkpt>
      <trkpt lat="41.0365300" lon="-2.6250930">
        <ele>1122.6</ele>
        <time>2020-09-12T10:04:32Z</time>
      </trkpt>
      <trkpt lat="41.0365970" lon="-2.6251530">
        <ele>1122.4</ele>
        <time>2020-09-12T10:04:33Z</time>
      </trkpt>
      <trkpt lat="41.0366640" lon="-2.6252160">
        <ele>1122.2</ele>
        <time>2020-09-12T10:04:34Z</time>
      </trkpt>
      <trkpt lat="41.0367340" lon="-2.6252790">
        <ele>1121.8</ele>
        <time>2020-09-12T10:04:35Z</time>
      </trkpt>
      <trkpt lat="41.0368060" lon="-2.6253420">
        <ele>1121.4</ele>
        <time>2020-09-12T10:04:36Z</time>
      </trkpt>
      <trkpt lat="41.0368790" lon="-2.6254060">
        <ele>1121.2</ele>
        <time>2020-09-12T10:04:37Z</time>
      </trkpt>
      <trkpt lat="41.0369530" lon="-2.6254720">
        <ele>1121.0</ele>
        <time>2020-09-12T10:04:38Z</time>
      </trkpt>
      <trkpt lat="41.0370280" lon="-2.6255400">
        <ele>1120.8</ele>
        <time>2020-09-12T10:04:39Z</time>
      </trkpt>
      <trkpt lat="41.0371030" lon="-2.6256080">
        <ele>1120.6</ele>
        <time>2020-09-12T10:04:40Z</time>
      </trkpt>
      <trkpt lat="41.0371790" lon="-2.6256780">
        <ele>1120.4</ele>
        <time>2020-09-12T10:04:41Z</time>
      </trkpt>
      <trkpt lat="41.0372570" lon="-2.6257480">
        <ele>1120.2</ele>
        <time>2020-09-12T10:04:42Z</time>
      </trkpt>
      <trkpt lat="41.0373350" lon="-2.6258200">
        <ele>1119.8</ele>
        <time>2020-09-12T10:04:43Z</time>
      </trkpt>
      <trkpt lat="41.0374150" lon="-2.6258920">
        <ele>1119.6</ele>
        <time>2020-09-12T10:04:44Z</time>
      </trkpt>
      <trkpt lat="41.0374970" lon="-2.6259630">
        <ele>1119.2</ele>
        <time>2020-09-12T10:04:45Z</time>
      </trkpt>
      <trkpt lat="41.0375810" lon="-2.6260350">
        <ele>1119.0</ele>
        <time>2020-09-12T10:04:46Z</time>
      </trkpt>
      <trkpt lat="41.0376690" lon="-2.6261060">
        <ele>1118.6</ele>
        <time>2020-09-12T10:04:47Z</time>
      </trkpt>
      <trkpt lat="41.0377580" lon="-2.6261790">
        <ele>1118.2</ele>
        <time>2020-09-12T10:04:48Z</time>
      </trkpt>
      <trkpt lat="41.0378500" lon="-2.6262550">
        <ele>1117.6</ele>
        <time>2020-09-12T10:04:49Z</time>
      </trkpt>
      <trkpt lat="41.0379470" lon="-2.6263320">
        <ele>1117.0</ele>
        <time>2020-09-12T10:04:50Z</time>
      </trkpt>
      <trkpt lat="41.0380470" lon="-2.6264120">
        <ele>1116.4</ele>
        <time>2020-09-12T10:04:51Z</time>
      </trkpt>
      <trkpt lat="41.0381510" lon="-2.6264950">
        <ele>1116.0</ele>
        <time>2020-09-12T10:04:52Z</time>
      </trkpt>
      <trkpt lat="41.0382580" lon="-2.6265800">
        <ele>1115.4</ele>
        <time>2020-09-12T10:04:53Z</time>
      </trkpt>
      <trkpt lat="41.0383680" lon="-2.6266680">
        <ele>1114.4</ele>
        <time>2020-09-12T10:04:54Z</time>
      </trkpt>
      <trkpt lat="41.0384790" lon="-2.6267590">
        <ele>1113.4</ele>
        <time>2020-09-12T10:04:55Z</time>
      </trkpt>
      <trkpt lat="41.0385920" lon="-2.6268500">
        <ele>1112.6</ele>
        <time>2020-09-12T10:04:56Z</time>
      </trkpt>
      <trkpt lat="41.0387050" lon="-2.6269410">
        <ele>1112.0</ele>
        <time>2020-09-12T10:04:57Z</time>
      </trkpt>
      <trkpt lat="41.0388200" lon="-2.6270300">
        <ele>1111.4</ele>
        <time>2020-09-12T10:04:58Z</time>
      </trkpt>
      <trkpt lat="41.0389350" lon="-2.6271180">
        <ele>1111.0</ele>
        <time>2020-09-12T10:04:59Z</time>
      </trkpt>
      <trkpt lat="41.0390480" lon="-2.6272040">
        <ele>1110.8</ele>
        <time>2020-09-12T10:05:00Z</time>
      </trkpt>
      <trkpt lat="41.0391590" lon="-2.6272850">
        <ele>1110.6</ele>
        <time>2020-09-12T10:05:01Z</time>
      </trkpt>
      <trkpt lat="41.0392680" lon="-2.6273620">
        <ele>1110.6</ele>
        <time>2020-09-12T10:05:02Z</time>
      </trkpt>
      <trkpt lat="41.0393750" lon="-2.6274320">
        <ele>1110.4</ele>
        <time>2020-09-12T10:05:03Z</time>
      </trkpt>
      <trkpt lat="41.0394800" lon="-2.6274950">
        <ele>1110.4</ele>
        <time>2020-09-12T10:05:04Z</time>
      </trkpt>
      <trkpt lat="41.0395830" lon="-2.6275530">
        <ele>1110.4</ele>
        <time>2020-09-12T10:05:05Z</time>
      </trkpt>
      <trkpt lat="41.0396820" lon="-2.6276060">
        <ele>1110.4</ele>
        <time>2020-09-12T10:05:06Z</time>
      </trkpt>
      <trkpt lat="41.0397760" lon="-2.6276570">
        <ele>1110.6</ele>
        <time>2020-09-12T10:05:07Z</time>
      </trkpt>
      <trkpt lat="41.0398680" lon="-2.6277050">
        <ele>1110.8</ele>
        <time>2020-09-12T10:05:08Z</time>
      </trkpt>
      <trkpt lat="41.0399550" lon="-2.6277500">
        <ele>1111.0</ele>
        <time>2020-09-12T10:05:09Z</time>
      </trkpt>
      <trkpt lat="41.0400380" lon="-2.6277900">
        <ele>1111.4</ele>
        <time>2020-09-12T10:05:10Z</time>
      </trkpt>
      <trkpt lat="41.0401180" lon="-2.6278260">
        <ele>1111.8</ele>
        <time>2020-09-12T10:05:11Z</time>
      </trkpt>
      <trkpt lat="41.0401940" lon="-2.6278600">
        <ele>1112.2</ele>
        <time>2020-09-12T10:05:12Z</time>
      </trkpt>
      <trkpt lat="41.0402650" lon="-2.6278930">
        <ele>1112.8</ele>
        <time>2020-09-12T10:05:13Z</time>
      </trkpt>
      <trkpt lat="41.0403310" lon="-2.6279240">
        <ele>1113.4</ele>
        <time>2020-09-12T10:05:14Z</time>
      </trkpt>
      <trkpt lat="41.0403950" lon="-2.6279550">
        <ele>1113.6</ele>
        <time>2020-09-12T10:05:15Z</time>
      </trkpt>
      <trkpt lat="41.0404570" lon="-2.6279820">
        <ele>1114.0</ele>
        <time>2020-09-12T10:05:16Z</time>
      </trkpt>
      <trkpt lat="41.0405190" lon="-2.6280080">
        <ele>1114.2</ele>
        <time>2020-09-12T10:05:17Z</time>
      </trkpt>
      <trkpt lat="41.0405780" lon="-2.6280350">
        <ele>1114.4</ele>
        <time>2020-09-12T10:05:18Z</time>
      </trkpt>
      <trkpt lat="41.0406370" lon="-2.6280620">
        <ele>1114.8</ele>
        <time>2020-09-12T10:05:19Z</time>
      </trkpt>
      <trkpt lat="41.0406940" lon="-2.6280890">
        <ele>1115.2</ele>
        <time>2020-09-12T10:05:20Z</time>
      </trkpt>
      <trkpt lat="41.0407490" lon="-2.6281150">
        <ele>1115.8</ele>
        <time>2020-09-12T10:05:21Z</time>
      </trkpt>
      <trkpt lat="41.0408030" lon="-2.6281430">
        <ele>1116.2</ele>
        <time>2020-09-12T10:05:22Z</time>
      </trkpt>
      <trkpt lat="41.0408570" lon="-2.6281730">
        <ele>1116.4</ele>
        <time>2020-09-12T10:05:23Z</time>
      </trkpt>
      <trkpt lat="41.0409070" lon="-2.6282070">
        <ele>1116.8</ele>
        <time>2020-09-12T10:05:24Z</time>
      </trkpt>
      <trkpt lat="41.0409560" lon="-2.6282390">
        <ele>1117.2</ele>
        <time>2020-09-12T10:05:25Z</time>
      </trkpt>
      <trkpt lat="41.0410040" lon="-2.6282720">
        <ele>1117.8</ele>
        <time>2020-09-12T10:05:26Z</time>
      </trkpt>
      <trkpt lat="41.0410510" lon="-2.6283100">
        <ele>1118.2</ele>
        <time>2020-09-12T10:05:27Z</time>
      </trkpt>
      <trkpt lat="41.0410980" lon="-2.6283490">
        <ele>1118.6</ele>
        <time>2020-09-12T10:05:28Z</time>
      </trkpt>
      <trkpt lat="41.0411440" lon="-2.6283930">
        <ele>1118.8</ele>
        <time>2020-09-12T10:05:29Z</time>
      </trkpt>
      <trkpt lat="41.0411880" lon="-2.6284410">
        <ele>1119.0</ele>
        <time>2020-09-12T10:05:30Z</time>
      </trkpt>
      <trkpt lat="41.0412310" lon="-2.6284900">
        <ele>1119.4</ele>
        <time>2020-09-12T10:05:31Z</time>
      </trkpt>
      <trkpt lat="41.0412740" lon="-2.6285380">
        <ele>1119.8</ele>
        <time>2020-09-12T10:05:32Z</time>
      </trkpt>
      <trkpt lat="41.0413180" lon="-2.6285840">
        <ele>1119.8</ele>
        <time>2020-09-12T10:05:33Z</time>
      </trkpt>
      <trkpt lat="41.0413620" lon="-2.6286280">
        <ele>1120.0</ele>
        <time>2020-09-12T10:05:34Z</time>
      </trkpt>
      <trkpt lat="41.0414050" lon="-2.6286710">
        <ele>1120.2</ele>
        <time>2020-09-12T10:05:35Z</time>
      </trkpt>
      <trkpt lat="41.0414450" lon="-2.6287160">
        <ele>1120.6</ele>
        <time>2020-09-12T10:05:36Z</time>
      </trkpt>
      <trkpt lat="41.0414830" lon="-2.6287650">
        <ele>1121.0</ele>
        <time>2020-09-12T10:05:37Z</time>
      </trkpt>
      <trkpt lat="41.0415200" lon="-2.6288110">
        <ele>1121.2</ele>
        <time>2020-09-12T10:05:38Z</time>
      </trkpt>
      <trkpt lat="41.0415580" lon="-2.6288540">
        <ele>1121.4</ele>
        <time>2020-09-12T10:05:39Z</time>
      </trkpt>
      <trkpt lat="41.0415940" lon="-2.6288970">
        <ele>1121.6</ele>
        <time>2020-09-12T10:05:40Z</time>
      </trkpt>
      <trkpt lat="41.0416320" lon="-2.6289380">
        <ele>1121.8</ele>
        <time>2020-09-12T10:05:41Z</time>
      </trkpt>
      <trkpt lat="41.0416690" lon="-2.6289780">
        <ele>1122.0</ele>
        <time>2020-09-12T10:05:42Z</time>
      </trkpt>
      <trkpt lat="41.0417070" lon="-2.6290170">
        <ele>1122.2</ele>
        <time>2020-09-12T10:05:43Z</time>
      </trkpt>
      <trkpt lat="41.0417420" lon="-2.6290570">
        <ele>1122.4</ele>
        <time>2020-09-12T10:05:44Z</time>
      </trkpt>
      <trkpt lat="41.0417770" lon="-2.6290980">
        <ele>1122.6</ele>
        <time>2020-09-12T10:05:45Z</time>
      </trkpt>
      <trkpt lat="41.0418100" lon="-2.6291410">
        <ele>1122.6</ele>
        <time>2020-09-12T10:05:46Z</time>
      </trkpt>
      <trkpt lat="41.0418450" lon="-2.6291830">
        <ele>1122.6</ele>
        <time>2020-09-12T10:05:47Z</time>
      </trkpt>
      <trkpt lat="41.0418810" lon="-2.6292260">
        <ele>1122.6</ele>
        <time>2020-09-12T10:05:48Z</time>
      </trkpt>
      <trkpt lat="41.0419160" lon="-2.6292710">
        <ele>1122.8</ele>
        <time>2020-09-12T10:05:49Z</time>
      </trkpt>
      <trkpt lat="41.0419500" lon="-2.6293190">
        <ele>1122.8</ele>
        <time>2020-09-12T10:05:50Z</time>
      </trkpt>
      <trkpt lat="41.0419850" lon="-2.6293670">
        <ele>1122.8</ele>
        <time>2020-09-12T10:05:51Z</time>
      </trkpt>
      <trkpt lat="41.0420190" lon="-2.6294180">
        <ele>1122.8</ele>
        <time>2020-09-12T10:05:52Z</time>
      </trkpt>
      <trkpt lat="41.0420530" lon="-2.6294710">
        <ele>1122.8</ele>
        <time>2020-09-12T10:05:53Z</time>
      </trkpt>
      <trkpt lat="41.0420850" lon="-2.6295270">
        <ele>1122.8</ele>
        <time>2020-09-12T10:05:54Z</time>
      </trkpt>
      <trkpt lat="41.0421190" lon="-2.6295850">
        <ele>1122.8</ele>
        <time>2020-09-12T10:05:55Z</time>
      </trkpt>
      <trkpt lat="41.0421520" lon="-2.6296460">
        <ele>1122.8</ele>
        <time>2020-09-12T10:05:56Z</time>
      </trkpt>
      <trkpt lat="41.0421880" lon="-2.6297110">
        <ele>1122.8</ele>
        <time>2020-09-12T10:05:57Z</time>
      </trkpt>
      <trkpt lat="41.0422240" lon="-2.6297810">
        <ele>1122.8</ele>
        <time>2020-09-12T10:05:58Z</time>
      </trkpt>
      <trkpt lat="41.0422610" lon="-2.6298540">
        <ele>1122.6</ele>
        <time>2020-09-12T10:05:59Z</time>
      </trkpt>
      <trkpt lat="41.0422950" lon="-2.6299330">
        <ele>1122.6</ele>
        <time>2020-09-12T10:06:00Z</time>
      </trkpt>
      <trkpt lat="41.0423280" lon="-2.6300170">
        <ele>1122.6</ele>
        <time>2020-09-12T10:06:01Z</time>
      </trkpt>
      <trkpt lat="41.0423600" lon="-2.6301010">
        <ele>1122.4</ele>
        <time>2020-09-12T10:06:02Z</time>
      </trkpt>
      <trkpt lat="41.0423910" lon="-2.6301890">
        <ele>1122.2</ele>
        <time>2020-09-12T10:06:03Z</time>
      </trkpt>
      <trkpt lat="41.0424240" lon="-2.6302770">
        <ele>1122.2</ele>
        <time>2020-09-12T10:06:04Z</time>
      </trkpt>
      <trkpt lat="41.0424600" lon="-2.6303660">
        <ele>1122.0</ele>
        <time>2020-09-12T10:06:05Z</time>
      </trkpt>
      <trkpt lat="41.0424960" lon="-2.6304550">
        <ele>1122.0</ele>
        <time>2020-09-12T10:06:06Z</time>
      </trkpt>
      <trkpt lat="41.0425340" lon="-2.6305480">
        <ele>1121.8</ele>
        <time>2020-09-12T10:06:07Z</time>
      </trkpt>
      <trkpt lat="41.0425730" lon="-2.6306410">
        <ele>1121.8</ele>
        <time>2020-09-12T10:06:08Z</time>
      </trkpt>
      <trkpt lat="41.0426130" lon="-2.6307350">
        <ele>1121.4</ele>
        <time>2020-09-12T10:06:09Z</time>
      </trkpt>
      <trkpt lat="41.0426520" lon="-2.6308310">
        <ele>1121.2</ele>
        <time>2020-09-12T10:06:10Z</time>
      </trkpt>
      <trkpt lat="41.0426920" lon="-2.6309280">
        <ele>1120.8</ele>
        <time>2020-09-12T10:06:11Z</time>
      </trkpt>
      <trkpt lat="41.0427330" lon="-2.6310270">
        <ele>1120.8</ele>
        <time>2020-09-12T10:06:12Z</time>
      </trkpt>
      <trkpt lat="41.0427750" lon="-2.6311270">
        <ele>1120.6</ele>
        <time>2020-09-12T10:06:13Z</time>
      </trkpt>
      <trkpt lat="41.0428180" lon="-2.6312290">
        <ele>1120.4</ele>
        <time>2020-09-12T10:06:14Z</time>
      </trkpt>
      <trkpt lat="41.0428620" lon="-2.6313320">
        <ele>1120.2</ele>
        <time>2020-09-12T10:06:15Z</time>
      </trkpt>
      <trkpt lat="41.0429060" lon="-2.6314390">
        <ele>1120.2</ele>
        <time>2020-09-12T10:06:16Z</time>
      </trkpt>
      <trkpt lat="41.0429500" lon="-2.6315460">
        <ele>1120.0</ele>
        <time>2020-09-12T10:06:17Z</time>
      </trkpt>
      <trkpt lat="41.0429940" lon="-2.6316540">
        <ele>1119.8</ele>
        <time>2020-09-12T10:06:18Z</time>
      </trkpt>
      <trkpt lat="41.0430400" lon="-2.6317620">
        <ele>1119.8</ele>
        <time>2020-09-12T10:06:19Z</time>
      </trkpt>
      <trkpt lat="41.0430850" lon="-2.6318690">
        <ele>1119.8</ele>
        <time>2020-09-12T10:06:20Z</time>
      </trkpt>
      <trkpt lat="41.0431310" lon="-2.6319750">
        <ele>1119.6</ele>
        <time>2020-09-12T10:06:21Z</time>
      </trkpt>
      <trkpt lat="41.0431760" lon="-2.6320800">
        <ele>1119.4</ele>
        <time>2020-09-12T10:06:22Z</time>
      </trkpt>
      <trkpt lat="41.0432200" lon="-2.6321840">
        <ele>1119.2</ele>
        <time>2020-09-12T10:06:23Z</time>
      </trkpt>
      <trkpt lat="41.0432630" lon="-2.6322850">
        <ele>1118.8</ele>
        <time>2020-09-12T10:06:24Z</time>
      </trkpt>
      <trkpt lat="41.0433040" lon="-2.6323870">
        <ele>1118.4</ele>
        <time>2020-09-12T10:06:25Z</time>
      </trkpt>
      <trkpt lat="41.0433430" lon="-2.6324870">
        <ele>1118.2</ele>
        <time>2020-09-12T10:06:26Z</time>
      </trkpt>
      <trkpt lat="41.0433830" lon="-2.6325870">
        <ele>1118.0</ele>
        <time>2020-09-12T10:06:27Z</time>
      </trkpt>
      <trkpt lat="41.0434230" lon="-2.6326840">
        <ele>1117.8</ele>
        <time>2020-09-12T10:06:28Z</time>
      </trkpt>
      <trkpt lat="41.0434640" lon="-2.6327790">
        <ele>1117.8</ele>
        <time>2020-09-12T10:06:29Z</time>
      </trkpt>
      <trkpt lat="41.0435040" lon="-2.6328740">
        <ele>1117.8</ele>
        <time>2020-09-12T10:06:30Z</time>
      </trkpt>
      <trkpt lat="41.0435430" lon="-2.6329670">
        <ele>1117.8</ele>
        <time>2020-09-12T10:06:31Z</time>
      </trkpt>
      <trkpt lat="41.0435820" lon="-2.6330600">
        <ele>1117.8</ele>
        <time>2020-09-12T10:06:32Z</time>
      </trkpt>
      <trkpt lat="41.0436220" lon="-2.6331530">
        <ele>1117.6</ele>
        <time>2020-09-12T10:06:33Z</time>
      </trkpt>
      <trkpt lat="41.0436610" lon="-2.6332440">
        <ele>1117.6</ele>
        <time>2020-09-12T10:06:34Z</time>
      </trkpt>
      <trkpt lat="41.0437000" lon="-2.6333360">
        <ele>1117.6</ele>
        <time>2020-09-12T10:06:35Z</time>
      </trkpt>
      <trkpt lat="41.0437390" lon="-2.6334290">
        <ele>1117.6</ele>
        <time>2020-09-12T10:06:36Z</time>
      </trkpt>
      <trkpt lat="41.0437780" lon="-2.6335230">
        <ele>1117.6</ele>
        <time>2020-09-12T10:06:37Z</time>
      </trkpt>
      <trkpt lat="41.0438170" lon="-2.6336170">
        <ele>1117.6</ele>
        <time>2020-09-12T10:06:38Z</time>
      </trkpt>
      <trkpt lat="41.0438550" lon="-2.6337110">
        <ele>1117.6</ele>
        <time>2020-09-12T10:06:39Z</time>
      </trkpt>
      <trkpt lat="41.0438940" lon="-2.6338040">
        <ele>1117.6</ele>
        <time>2020-09-12T10:06:40Z</time>
      </trkpt>
      <trkpt lat="41.0439320" lon="-2.6338970">
        <ele>1117.6</ele>
        <time>2020-09-12T10:06:41Z</time>
      </trkpt>
      <trkpt lat="41.0439710" lon="-2.6339890">
        <ele>1117.6</ele>
        <time>2020-09-12T10:06:42Z</time>
      </trkpt>
      <trkpt lat="41.0440100" lon="-2.6340820">
        <ele>1117.6</ele>
        <time>2020-09-12T10:06:43Z</time>
      </trkpt>
      <trkpt lat="41.0440480" lon="-2.6341740">
        <ele>1117.4</ele>
        <time>2020-09-12T10:06:44Z</time>
      </trkpt>
      <trkpt lat="41.0440860" lon="-2.6342670">
        <ele>1117.4</ele>
        <time>2020-09-12T10:06:45Z</time>
      </trkpt>
      <trkpt lat="41.0441240" lon="-2.6343580">
        <ele>1117.4</ele>
        <time>2020-09-12T10:06:46Z</time>
      </trkpt>
      <trkpt lat="41.0441620" lon="-2.6344490">
        <ele>1117.4</ele>
        <time>2020-09-12T10:06:47Z</time>
      </trkpt>
      <trkpt lat="41.0441980" lon="-2.6345410">
        <ele>1117.6</ele>
        <time>2020-09-12T10:06:48Z</time>
      </trkpt>
      <trkpt lat="41.0442350" lon="-2.6346320">
        <ele>1117.8</ele>
        <time>2020-09-12T10:06:49Z</time>
      </trkpt>
      <trkpt lat="41.0442730" lon="-2.6347220">
        <ele>1117.8</ele>
        <time>2020-09-12T10:06:50Z</time>
      </trkpt>
      <trkpt lat="41.0443110" lon="-2.6348130">
        <ele>1118.0</ele>
        <time>2020-09-12T10:06:51Z</time>
      </trkpt>
      <trkpt lat="41.0443480" lon="-2.6349020">
        <ele>1118.2</ele>
        <time>2020-09-12T10:06:52Z</time>
      </trkpt>
      <trkpt lat="41.0443850" lon="-2.6349910">
        <ele>1118.2</ele>
        <time>2020-09-12T10:06:53Z</time>
      </trkpt>
      <trkpt lat="41.0444220" lon="-2.6350790">
        <ele>1118.4</ele>
        <time>2020-09-12T10:06:54Z</time>
      </trkpt>
      <trkpt lat="41.0444580" lon="-2.6351670">
        <ele>1118.6</ele>
        <time>2020-09-12T10:06:55Z</time>
      </trkpt>
      <trkpt lat="41.0444940" lon="-2.6352550">
        <ele>1118.8</ele>
        <time>2020-09-12T10:06:56Z</time>
      </trkpt>
      <trkpt lat="41.0445290" lon="-2.6353420">
        <ele>1118.8</ele>
        <time>2020-09-12T10:06:57Z</time>
      </trkpt>
      <trkpt lat="41.0445640" lon="-2.6354290">
        <ele>1118.8</ele>
        <time>2020-09-12T10:06:58Z</time>
      </trkpt>
      <trkpt lat="41.0446010" lon="-2.6355160">
        <ele>1118.8</ele>
        <time>2020-09-12T10:06:59Z</time>
      </trkpt>
      <trkpt lat="41.0446380" lon="-2.6356040">
        <ele>1118.8</ele>
        <time>2020-09-12T10:07:00Z</time>
      </trkpt>
      <trkpt lat="41.0446730" lon="-2.6356910">
        <ele>1118.8</ele>
        <time>2020-09-12T10:07:01Z</time>
      </trkpt>
      <trkpt lat="41.0447070" lon="-2.6357790">
        <ele>1118.8</ele>
        <time>2020-09-12T10:07:02Z</time>
      </trkpt>
      <trkpt lat="41.0447430" lon="-2.6358670">
        <ele>1118.8</ele>
        <time>2020-09-12T10:07:03Z</time>
      </trkpt>
      <trkpt lat="41.0447790" lon="-2.6359530">
        <ele>1118.8</ele>
        <time>2020-09-12T10:07:04Z</time>
      </trkpt>
      <trkpt lat="41.0448160" lon="-2.6360380">
        <ele>1118.8</ele>
        <time>2020-09-12T10:07:05Z</time>
      </trkpt>
      <trkpt lat="41.0448520" lon="-2.6361210">
        <ele>1119.0</ele>
        <time>2020-09-12T10:07:06Z</time>
      </trkpt>
      <trkpt lat="41.0448850" lon="-2.6362050">
        <ele>1119.4</ele>
        <time>2020-09-12T10:07:07Z</time>
      </trkpt>
      <trkpt lat="41.0449200" lon="-2.6362870">
        <ele>1119.6</ele>
        <time>2020-09-12T10:07:08Z</time>
      </trkpt>
      <trkpt lat="41.0449530" lon="-2.6363670">
        <ele>1119.6</ele>
        <time>2020-09-12T10:07:09Z</time>
      </trkpt>
      <trkpt lat="41.0449860" lon="-2.6364470">
        <ele>1119.6</ele>
        <time>2020-09-12T10:07:10Z</time>
      </trkpt>
      <trkpt lat="41.0450190" lon="-2.6365280">
        <ele>1119.8</ele>
        <time>2020-09-12T10:07:11Z</time>
      </trkpt>
      <trkpt lat="41.0450540" lon="-2.6366070">
        <ele>1119.8</ele>
        <time>2020-09-12T10:07:12Z</time>
      </trkpt>
      <trkpt lat="41.0450880" lon="-2.6366850">
        <ele>1119.8</ele>
        <time>2020-09-12T10:07:13Z</time>
      </trkpt>
      <trkpt lat="41.0451220" lon="-2.6367640">
        <ele>1119.8</ele>
        <time>2020-09-12T10:07:14Z</time>
      </trkpt>
      <trkpt lat="41.0451550" lon="-2.6368430">
        <ele>1120.0</ele>
        <time>2020-09-12T10:07:15Z</time>
      </trkpt>
      <trkpt lat="41.0451880" lon="-2.6369220">
        <ele>1120.0</ele>
        <time>2020-09-12T10:07:16Z</time>
      </trkpt>
      <trkpt lat="41.0452200" lon="-2.6370010">
        <ele>1120.2</ele>
        <time>2020-09-12T10:07:17Z</time>
      </trkpt>
      <trkpt lat="41.0452530" lon="-2.6370800">
        <ele>1120.2</ele>
        <time>2020-09-12T10:07:18Z</time>
      </trkpt>
      <trkpt lat="41.0452870" lon="-2.6371580">
        <ele>1120.4</ele>
        <time>2020-09-12T10:07:19Z</time>
      </trkpt>
      <trkpt lat="41.0453210" lon="-2.6372370">
        <ele>1120.4</ele>
        <time>2020-09-12T10:07:20Z</time>
      </trkpt>
      <trkpt lat="41.0453560" lon="-2.6373170">
        <ele>1120.4</ele>
        <time>2020-09-12T10:07:21Z</time>
      </trkpt>
      <trkpt lat="41.0453900" lon="-2.6373960">
        <ele>1120.4</ele>
        <time>2020-09-12T10:07:22Z</time>
      </trkpt>
      <trkpt lat="41.0454230" lon="-2.6374770">
        <ele>1120.4</ele>
        <time>2020-09-12T10:07:23Z</time>
      </trkpt>
      <trkpt lat="41.0454560" lon="-2.6375590">
        <ele>1120.4</ele>
        <time>2020-09-12T10:07:24Z</time>
      </trkpt>
      <trkpt lat="41.0454900" lon="-2.6376420">
        <ele>1120.4</ele>
        <time>2020-09-12T10:07:25Z</time>
      </trkpt>
      <trkpt lat="41.0455240" lon="-2.6377240">
        <ele>1120.2</ele>
        <time>2020-09-12T10:07:26Z</time>
      </trkpt>
      <trkpt lat="41.0455580" lon="-2.6378080">
        <ele>1120.2</ele>
        <time>2020-09-12T10:07:27Z</time>
      </trkpt>
      <trkpt lat="41.0455930" lon="-2.6378910">
        <ele>1120.2</ele>
        <time>2020-09-12T10:07:28Z</time>
      </trkpt>
      <trkpt lat="41.0456280" lon="-2.6379760">
        <ele>1119.8</ele>
        <time>2020-09-12T10:07:29Z</time>
      </trkpt>
      <trkpt lat="41.0456630" lon="-2.6380610">
        <ele>1119.6</ele>
        <time>2020-09-12T10:07:30Z</time>
      </trkpt>
      <trkpt lat="41.0456980" lon="-2.6381480">
        <ele>1119.2</ele>
        <time>2020-09-12T10:07:31Z</time>
      </trkpt>
      <trkpt lat="41.0457330" lon="-2.6382360">
        <ele>1119.0</ele>
        <time>2020-09-12T10:07:32Z</time>
      </trkpt>
      <trkpt lat="41.0457700" lon="-2.6383230">
        <ele>1119.0</ele>
        <time>2020-09-12T10:07:33Z</time>
      </trkpt>
      <trkpt lat="41.0458070" lon="-2.6384120">
        <ele>1118.8</ele>
        <time>2020-09-12T10:07:34Z</time>
      </trkpt>
      <trkpt lat="41.0458450" lon="-2.6385010">
        <ele>1118.6</ele>
        <time>2020-09-12T10:07:35Z</time>
      </trkpt>
      <trkpt lat="41.0458820" lon="-2.6385890">
        <ele>1118.6</ele>
        <time>2020-09-12T10:07:36Z</time>
      </trkpt>
      <trkpt lat="41.0459180" lon="-2.6386780">
        <ele>1118.4</ele>
        <time>2020-09-12T10:07:37Z</time>
      </trkpt>
      <trkpt lat="41.0459540" lon="-2.6387660">
        <ele>1118.4</ele>
        <time>2020-09-12T10:07:38Z</time>
      </trkpt>
      <trkpt lat="41.0459900" lon="-2.6388540">
        <ele>1118.4</ele>
        <time>2020-09-12T10:07:39Z</time>
      </trkpt>
      <trkpt lat="41.0460250" lon="-2.6389410">
        <ele>1118.4</ele>
        <time>2020-09-12T10:07:40Z</time>
      </trkpt>
      <trkpt lat="41.0460610" lon="-2.6390270">
        <ele>1118.4</ele>
        <time>2020-09-12T10:07:41Z</time>
      </trkpt>
      <trkpt lat="41.0460960" lon="-2.6391120">
        <ele>1118.4</ele>
        <time>2020-09-12T10:07:42Z</time>
      </trkpt>
      <trkpt lat="41.0461300" lon="-2.6391950">
        <ele>1118.6</ele>
        <time>2020-09-12T10:07:43Z</time>
      </trkpt>
      <trkpt lat="41.0461630" lon="-2.6392760">
        <ele>1118.8</ele>
        <time>2020-09-12T10:07:44Z</time>
      </trkpt>
      <trkpt lat="41.0461960" lon="-2.6393560">
        <ele>1119.0</ele>
        <time>2020-09-12T10:07:45Z</time>
      </trkpt>
      <trkpt lat="41.0462280" lon="-2.6394330">
        <ele>1119.0</ele>
        <time>2020-09-12T10:07:46Z</time>
      </trkpt>
      <trkpt lat="41.0462590" lon="-2.6395080">
        <ele>1119.2</ele>
        <time>2020-09-12T10:07:47Z</time>
      </trkpt>
      <trkpt lat="41.0462900" lon="-2.6395820">
        <ele>1119.4</ele>
        <time>2020-09-12T10:07:48Z</time>
      </trkpt>
      <trkpt lat="41.0463220" lon="-2.6396560">
        <ele>1119.6</ele>
        <time>2020-09-12T10:07:49Z</time>
      </trkpt>
      <trkpt lat="41.0463530" lon="-2.6397300">
        <ele>1119.8</ele>
        <time>2020-09-12T10:07:50Z</time>
      </trkpt>
      <trkpt lat="41.0463830" lon="-2.6398030">
        <ele>1120.0</ele>
        <time>2020-09-12T10:07:51Z</time>
      </trkpt>
      <trkpt lat="41.0464120" lon="-2.6398770">
        <ele>1120.2</ele>
        <time>2020-09-12T10:07:52Z</time>
      </trkpt>
      <trkpt lat="41.0464430" lon="-2.6399520">
        <ele>1120.2</ele>
        <time>2020-09-12T10:07:53Z</time>
      </trkpt>
      <trkpt lat="41.0464740" lon="-2.6400270">
        <ele>1120.4</ele>
        <time>2020-09-12T10:07:54Z</time>
      </trkpt>
      <trkpt lat="41.0465040" lon="-2.6401020">
        <ele>1120.4</ele>
        <time>2020-09-12T10:07:55Z</time>
      </trkpt>
      <trkpt lat="41.0465340" lon="-2.6401770">
        <ele>1120.4</ele>
        <time>2020-09-12T10:07:56Z</time>
      </trkpt>
      <trkpt lat="41.0465650" lon="-2.6402520">
        <ele>1120.4</ele>
        <time>2020-09-12T10:07:57Z</time>
      </trkpt>
      <trkpt lat="41.0465960" lon="-2.6403270">
        <ele>1120.6</ele>
        <time>2020-09-12T10:07:58Z</time>
      </trkpt>
      <trkpt lat="41.0466270" lon="-2.6404030">
        <ele>1121.0</ele>
        <time>2020-09-12T10:07:59Z</time>
      </trkpt>
      <trkpt lat="41.0466580" lon="-2.6404780">
        <ele>1121.4</ele>
        <time>2020-09-12T10:08:00Z</time>
      </trkpt>
      <trkpt lat="41.0467190" lon="-2.6406290">
        <ele>1121.6</ele>
        <time>2020-09-12T10:08:01Z</time>
      </trkpt>
      <trkpt lat="41.0467350" lon="-2.6406660">
        <ele>1121.8</ele>
        <time>2020-09-12T10:08:02Z</time>
      </trkpt>
      <trkpt lat="41.0467500" lon="-2.6407040">
        <ele>1122.0</ele>
        <time>2020-09-12T10:08:03Z</time>
      </trkpt>
      <trkpt lat="41.0467800" lon="-2.6407790">
        <ele>1122.2</ele>
        <time>2020-09-12T10:08:04Z</time>
      </trkpt>
      <trkpt lat="41.0468090" lon="-2.6408520">
        <ele>1122.6</ele>
        <time>2020-09-12T10:08:05Z</time>
      </trkpt>
      <trkpt lat="41.0468380" lon="-2.6409230">
        <ele>1123.0</ele>
        <time>2020-09-12T10:08:06Z</time>
      </trkpt>
      <trkpt lat="41.0468680" lon="-2.6409930">
        <ele>1123.4</ele>
        <time>2020-09-12T10:08:07Z</time>
      </trkpt>
      <trkpt lat="41.0468970" lon="-2.6410620">
        <ele>1123.8</ele>
        <time>2020-09-12T10:08:08Z</time>
      </trkpt>
      <trkpt lat="41.0469260" lon="-2.6411310">
        <ele>1124.0</ele>
        <time>2020-09-12T10:08:09Z</time>
      </trkpt>
      <trkpt lat="41.0469550" lon="-2.6412010">
        <ele>1124.2</ele>
        <time>2020-09-12T10:08:10Z</time>
      </trkpt>
      <trkpt lat="41.0469830" lon="-2.6412700">
        <ele>1124.4</ele>
        <time>2020-09-12T10:08:11Z</time>
      </trkpt>
      <trkpt lat="41.0470120" lon="-2.6413380">
        <ele>1124.4</ele>
        <time>2020-09-12T10:08:12Z</time>
      </trkpt>
      <trkpt lat="41.0470400" lon="-2.6414060">
        <ele>1124.6</ele>
        <time>2020-09-12T10:08:13Z</time>
      </trkpt>
      <trkpt lat="41.0470680" lon="-2.6414730">
        <ele>1124.8</ele>
        <time>2020-09-12T10:08:14Z</time>
      </trkpt>
      <trkpt lat="41.0470960" lon="-2.6415400">
        <ele>1125.2</ele>
        <time>2020-09-12T10:08:15Z</time>
      </trkpt>
      <trkpt lat="41.0471260" lon="-2.6416060">
        <ele>1125.8</ele>
        <time>2020-09-12T10:08:16Z</time>
      </trkpt>
      <trkpt lat="41.0471550" lon="-2.6416710">
        <ele>1126.2</ele>
        <time>2020-09-12T10:08:17Z</time>
      </trkpt>
      <trkpt lat="41.0471850" lon="-2.6417350">
        <ele>1126.4</ele>
        <time>2020-09-12T10:08:18Z</time>
      </trkpt>
      <trkpt lat="41.0472170" lon="-2.6417980">
        <ele>1126.6</ele>
        <time>2020-09-12T10:08:19Z</time>
      </trkpt>
      <trkpt lat="41.0472500" lon="-2.6418610">
        <ele>1126.6</ele>
        <time>2020-09-12T10:08:20Z</time>
      </trkpt>
      <trkpt lat="41.0472840" lon="-2.6419230">
        <ele>1126.8</ele>
        <time>2020-09-12T10:08:21Z</time>
      </trkpt>
      <trkpt lat="41.0473190" lon="-2.6419850">
        <ele>1127.0</ele>
        <time>2020-09-12T10:08:22Z</time>
      </trkpt>
      <trkpt lat="41.0473570" lon="-2.6420450">
        <ele>1127.2</ele>
        <time>2020-09-12T10:08:23Z</time>
      </trkpt>
      <trkpt lat="41.0473950" lon="-2.6421040">
        <ele>1127.2</ele>
        <time>2020-09-12T10:08:24Z</time>
      </trkpt>
      <trkpt lat="41.0474350" lon="-2.6421610">
        <ele>1127.6</ele>
        <time>2020-09-12T10:08:25Z</time>
      </trkpt>
      <trkpt lat="41.0474740" lon="-2.6422190">
        <ele>1127.6</ele>
        <time>2020-09-12T10:08:26Z</time>
      </trkpt>
      <trkpt lat="41.0475140" lon="-2.6422770">
        <ele>1127.8</ele>
        <time>2020-09-12T10:08:27Z</time>
      </trkpt>
      <trkpt lat="41.0475550" lon="-2.6423350">
        <ele>1128.0</ele>
        <time>2020-09-12T10:08:28Z</time>
      </trkpt>
      <trkpt lat="41.0475970" lon="-2.6423920">
        <ele>1128.0</ele>
        <time>2020-09-12T10:08:29Z</time>
      </trkpt>
      <trkpt lat="41.0476390" lon="-2.6424490">
        <ele>1128.0</ele>
        <time>2020-09-12T10:08:30Z</time>
      </trkpt>
      <trkpt lat="41.0476800" lon="-2.6425080">
        <ele>1128.0</ele>
        <time>2020-09-12T10:08:31Z</time>
      </trkpt>
      <trkpt lat="41.0477220" lon="-2.6425680">
        <ele>1128.0</ele>
        <time>2020-09-12T10:08:32Z</time>
      </trkpt>
      <trkpt lat="41.0477650" lon="-2.6426290">
        <ele>1128.0</ele>
        <time>2020-09-12T10:08:33Z</time>
      </trkpt>
      <trkpt lat="41.0478110" lon="-2.6426910">
        <ele>1128.2</ele>
        <time>2020-09-12T10:08:34Z</time>
      </trkpt>
      <trkpt lat="41.0478560" lon="-2.6427540">
        <ele>1128.2</ele>
        <time>2020-09-12T10:08:35Z</time>
      </trkpt>
      <trkpt lat="41.0479020" lon="-2.6428190">
        <ele>1128.2</ele>
        <time>2020-09-12T10:08:36Z</time>
      </trkpt>
      <trkpt lat="41.0479480" lon="-2.6428850">
        <ele>1128.4</ele>
        <time>2020-09-12T10:08:37Z</time>
      </trkpt>
      <trkpt lat="41.0479960" lon="-2.6429500">
        <ele>1128.4</ele>
        <time>2020-09-12T10:08:38Z</time>
      </trkpt>
      <trkpt lat="41.0480440" lon="-2.6430160">
        <ele>1128.4</ele>
        <time>2020-09-12T10:08:39Z</time>
      </trkpt>
      <trkpt lat="41.0480910" lon="-2.6430820">
        <ele>1128.4</ele>
        <time>2020-09-12T10:08:40Z</time>
      </trkpt>
      <trkpt lat="41.0481370" lon="-2.6431510">
        <ele>1128.4</ele>
        <time>2020-09-12T10:08:41Z</time>
      </trkpt>
      <trkpt lat="41.0481840" lon="-2.6432200">
        <ele>1128.4</ele>
        <time>2020-09-12T10:08:42Z</time>
      </trkpt>
      <trkpt lat="41.0482320" lon="-2.6432890">
        <ele>1128.4</ele>
        <time>2020-09-12T10:08:43Z</time>
      </trkpt>
      <trkpt lat="41.0482820" lon="-2.6433590">
        <ele>1128.6</ele>
        <time>2020-09-12T10:08:44Z</time>
      </trkpt>
      <trkpt lat="41.0483300" lon="-2.6434290">
        <ele>1128.8</ele>
        <time>2020-09-12T10:08:45Z</time>
      </trkpt>
      <trkpt lat="41.0483780" lon="-2.6434990">
        <ele>1129.0</ele>
        <time>2020-09-12T10:08:46Z</time>
      </trkpt>
      <trkpt lat="41.0484270" lon="-2.6435690">
        <ele>1129.0</ele>
        <time>2020-09-12T10:08:47Z</time>
      </trkpt>
      <trkpt lat="41.0484760" lon="-2.6436380">
        <ele>1129.0</ele>
        <time>2020-09-12T10:08:48Z</time>
      </trkpt>
      <trkpt lat="41.0485250" lon="-2.6437080">
        <ele>1129.0</ele>
        <time>2020-09-12T10:08:49Z</time>
      </trkpt>
      <trkpt lat="41.0485730" lon="-2.6437810">
        <ele>1128.8</ele>
        <time>2020-09-12T10:08:50Z</time>
      </trkpt>
      <trkpt lat="41.0486210" lon="-2.6438540">
        <ele>1128.4</ele>
        <time>2020-09-12T10:08:51Z</time>
      </trkpt>
      <trkpt lat="41.0486720" lon="-2.6439250">
        <ele>1128.0</ele>
        <time>2020-09-12T10:08:52Z</time>
      </trkpt>
      <trkpt lat="41.0487230" lon="-2.6439950">
        <ele>1127.8</ele>
        <time>2020-09-12T10:08:53Z</time>
      </trkpt>
      <trkpt lat="41.0487730" lon="-2.6440660">
        <ele>1127.6</ele>
        <time>2020-09-12T10:08:54Z</time>
      </trkpt>
      <trkpt lat="41.0488240" lon="-2.6441380">
        <ele>1127.4</ele>
        <time>2020-09-12T10:08:55Z</time>
      </trkpt>
      <trkpt lat="41.0488750" lon="-2.6442100">
        <ele>1127.2</ele>
        <time>2020-09-12T10:08:56Z</time>
      </trkpt>
      <trkpt lat="41.0489270" lon="-2.6442830">
        <ele>1127.2</ele>
        <time>2020-09-12T10:08:57Z</time>
      </trkpt>
      <trkpt lat="41.0489800" lon="-2.6443560">
        <ele>1127.2</ele>
        <time>2020-09-12T10:08:58Z</time>
      </trkpt>
      <trkpt lat="41.0490320" lon="-2.6444310">
        <ele>1127.2</ele>
        <time>2020-09-12T10:08:59Z</time>
      </trkpt>
      <trkpt lat="41.0490830" lon="-2.6445070">
        <ele>1127.2</ele>
        <time>2020-09-12T10:09:00Z</time>
      </trkpt>
      <trkpt lat="41.0491340" lon="-2.6445830">
        <ele>1127.0</ele>
        <time>2020-09-12T10:09:01Z</time>
      </trkpt>
      <trkpt lat="41.0491870" lon="-2.6446570">
        <ele>1126.8</ele>
        <time>2020-09-12T10:09:02Z</time>
      </trkpt>
      <trkpt lat="41.0492400" lon="-2.6447310">
        <ele>1126.6</ele>
        <time>2020-09-12T10:09:03Z</time>
      </trkpt>
      <trkpt lat="41.0492930" lon="-2.6448020">
        <ele>1126.6</ele>
        <time>2020-09-12T10:09:04Z</time>
      </trkpt>
      <trkpt lat="41.0493450" lon="-2.6448740">
        <ele>1126.4</ele>
        <time>2020-09-12T10:09:05Z</time>
      </trkpt>
      <trkpt lat="41.0493970" lon="-2.6449460">
        <ele>1126.4</ele>
        <time>2020-09-12T10:09:06Z</time>
      </trkpt>
      <trkpt lat="41.0494480" lon="-2.6450200">
        <ele>1126.4</ele>
        <time>2020-09-12T10:09:07Z</time>
      </trkpt>
      <trkpt lat="41.0494980" lon="-2.6450940">
        <ele>1126.4</ele>
        <time>2020-09-12T10:09:08Z</time>
      </trkpt>
      <trkpt lat="41.0495480" lon="-2.6451680">
        <ele>1126.4</ele>
        <time>2020-09-12T10:09:09Z</time>
      </trkpt>
      <trkpt lat="41.0495980" lon="-2.6452410">
        <ele>1126.4</ele>
        <time>2020-09-12T10:09:10Z</time>
      </trkpt>
      <trkpt lat="41.0496480" lon="-2.6453130">
        <ele>1126.4</ele>
        <time>2020-09-12T10:09:11Z</time>
      </trkpt>
      <trkpt lat="41.0496980" lon="-2.6453860">
        <ele>1126.4</ele>
        <time>2020-09-12T10:09:12Z</time>
      </trkpt>
      <trkpt lat="41.0497490" lon="-2.6454580">
        <ele>1126.2</ele>
        <time>2020-09-12T10:09:13Z</time>
      </trkpt>
      <trkpt lat="41.0498010" lon="-2.6455300">
        <ele>1126.0</ele>
        <time>2020-09-12T10:09:14Z</time>
      </trkpt>
      <trkpt lat="41.0498520" lon="-2.6456040">
        <ele>1125.8</ele>
        <time>2020-09-12T10:09:15Z</time>
      </trkpt>
      <trkpt lat="41.0499050" lon="-2.6456780">
        <ele>1125.8</ele>
        <time>2020-09-12T10:09:16Z</time>
      </trkpt>
      <trkpt lat="41.0499580" lon="-2.6457530">
        <ele>1125.8</ele>
        <time>2020-09-12T10:09:17Z</time>
      </trkpt>
      <trkpt lat="41.0500110" lon="-2.6458290">
        <ele>1125.6</ele>
        <time>2020-09-12T10:09:18Z</time>
      </trkpt>
      <trkpt lat="41.0500640" lon="-2.6459030">
        <ele>1125.6</ele>
        <time>2020-09-12T10:09:19Z</time>
      </trkpt>
      <trkpt lat="41.0501170" lon="-2.6459790">
        <ele>1125.4</ele>
        <time>2020-09-12T10:09:20Z</time>
      </trkpt>
      <trkpt lat="41.0501700" lon="-2.6460550">
        <ele>1125.4</ele>
        <time>2020-09-12T10:09:21Z</time>
      </trkpt>
      <trkpt lat="41.0502240" lon="-2.6461310">
        <ele>1125.2</ele>
        <time>2020-09-12T10:09:22Z</time>
      </trkpt>
      <trkpt lat="41.0502780" lon="-2.6462070">
        <ele>1125.2</ele>
        <time>2020-09-12T10:09:23Z</time>
      </trkpt>
      <trkpt lat="41.0503340" lon="-2.6462850">
        <ele>1125.0</ele>
        <time>2020-09-12T10:09:24Z</time>
      </trkpt>
      <trkpt lat="41.0503900" lon="-2.6463630">
        <ele>1125.0</ele>
        <time>2020-09-12T10:09:25Z</time>
      </trkpt>
      <trkpt lat="41.0504450" lon="-2.6464420">
        <ele>1124.8</ele>
        <time>2020-09-12T10:09:26Z</time>
      </trkpt>
      <trkpt lat="41.0504990" lon="-2.6465210">
        <ele>1124.6</ele>
        <time>2020-09-12T10:09:27Z</time>
      </trkpt>
      <trkpt lat="41.0505540" lon="-2.6466000">
        <ele>1124.4</ele>
        <time>2020-09-12T10:09:28Z</time>
      </trkpt>
      <trkpt lat="41.0506090" lon="-2.6466810">
        <ele>1124.4</ele>
        <time>2020-09-12T10:09:29Z</time>
      </trkpt>
      <trkpt lat="41.0506620" lon="-2.6467630">
        <ele>1124.4</ele>
        <time>2020-09-12T10:09:30Z</time>
      </trkpt>
      <trkpt lat="41.0507130" lon="-2.6468450">
        <ele>1124.2</ele>
        <time>2020-09-12T10:09:31Z</time>
      </trkpt>
      <trkpt lat="41.0507640" lon="-2.6469260">
        <ele>1124.0</ele>
        <time>2020-09-12T10:09:32Z</time>
      </trkpt>
      <trkpt lat="41.0508120" lon="-2.6470080">
        <ele>1123.8</ele>
        <time>2020-09-12T10:09:33Z</time>
      </trkpt>
      <trkpt lat="41.0508560" lon="-2.6470900">
        <ele>1123.8</ele>
        <time>2020-09-12T10:09:34Z</time>
      </trkpt>
      <trkpt lat="41.0509000" lon="-2.6471730">
        <ele>1123.8</ele>
        <time>2020-09-12T10:09:35Z</time>
      </trkpt>
      <trkpt lat="41.0509410" lon="-2.6472570">
        <ele>1123.6</ele>
        <time>2020-09-12T10:09:36Z</time>
      </trkpt>
      <trkpt lat="41.0509790" lon="-2.6473440">
        <ele>1123.6</ele>
        <time>2020-09-12T10:09:37Z</time>
      </trkpt>
      <trkpt lat="41.0510170" lon="-2.6474340">
        <ele>1123.6</ele>
        <time>2020-09-12T10:09:38Z</time>
      </trkpt>
      <trkpt lat="41.0510560" lon="-2.6475280">
        <ele>1123.4</ele>
        <time>2020-09-12T10:09:39Z</time>
      </trkpt>
      <trkpt lat="41.0510960" lon="-2.6476270">
        <ele>1123.2</ele>
        <time>2020-09-12T10:09:40Z</time>
      </trkpt>
      <trkpt lat="41.0511370" lon="-2.6477300">
        <ele>1123.0</ele>
        <time>2020-09-12T10:09:41Z</time>
      </trkpt>
      <trkpt lat="41.0511800" lon="-2.6478390">
        <ele>1122.6</ele>
        <time>2020-09-12T10:09:42Z</time>
      </trkpt>
      <trkpt lat="41.0512240" lon="-2.6479550">
        <ele>1122.2</ele>
        <time>2020-09-12T10:09:43Z</time>
      </trkpt>
      <trkpt lat="41.0512700" lon="-2.6480750">
        <ele>1121.6</ele>
        <time>2020-09-12T10:09:44Z</time>
      </trkpt>
      <trkpt lat="41.0513160" lon="-2.6482010">
        <ele>1121.2</ele>
        <time>2020-09-12T10:09:45Z</time>
      </trkpt>
      <trkpt lat="41.0513580" lon="-2.6483340">
        <ele>1120.8</ele>
        <time>2020-09-12T10:09:46Z</time>
      </trkpt>
      <trkpt lat="41.0513970" lon="-2.6484730">
        <ele>1120.4</ele>
        <time>2020-09-12T10:09:47Z</time>
      </trkpt>
      <trkpt lat="41.0514340" lon="-2.6486180">
        <ele>1119.8</ele>
        <time>2020-09-12T10:09:48Z</time>
      </trkpt>
      <trkpt lat="41.0514700" lon="-2.6487690">
        <ele>1119.0</ele>
        <time>2020-09-12T10:09:49Z</time>
      </trkpt>
      <trkpt lat="41.0515050" lon="-2.6489220">
        <ele>1118.0</ele>
        <time>2020-09-12T10:09:50Z</time>
      </trkpt>
      <trkpt lat="41.0515410" lon="-2.6490770">
        <ele>1117.4</ele>
        <time>2020-09-12T10:09:51Z</time>
      </trkpt>
      <trkpt lat="41.0515800" lon="-2.6492340">
        <ele>1116.8</ele>
        <time>2020-09-12T10:09:52Z</time>
      </trkpt>
      <trkpt lat="41.0516230" lon="-2.6493880">
        <ele>1116.2</ele>
        <time>2020-09-12T10:09:53Z</time>
      </trkpt>
      <trkpt lat="41.0516680" lon="-2.6495430">
        <ele>1115.6</ele>
        <time>2020-09-12T10:09:54Z</time>
      </trkpt>
      <trkpt lat="41.0517160" lon="-2.6496980">
        <ele>1114.8</ele>
        <time>2020-09-12T10:09:55Z</time>
      </trkpt>
      <trkpt lat="41.0517690" lon="-2.6498500">
        <ele>1113.6</ele>
        <time>2020-09-12T10:09:56Z</time>
      </trkpt>
      <trkpt lat="41.0518280" lon="-2.6500000">
        <ele>1112.6</ele>
        <time>2020-09-12T10:09:57Z</time>
      </trkpt>
      <trkpt lat="41.0518960" lon="-2.6501430">
        <ele>1111.6</ele>
        <time>2020-09-12T10:09:58Z</time>
      </trkpt>
      <trkpt lat="41.0519710" lon="-2.6502790">
        <ele>1110.6</ele>
        <time>2020-09-12T10:09:59Z</time>
      </trkpt>
      <trkpt lat="41.0520480" lon="-2.6504080">
        <ele>1109.8</ele>
        <time>2020-09-12T10:10:00Z</time>
      </trkpt>
      <trkpt lat="41.0521230" lon="-2.6505350">
        <ele>1108.8</ele>
        <time>2020-09-12T10:10:01Z</time>
      </trkpt>
      <trkpt lat="41.0521990" lon="-2.6506600">
        <ele>1108.0</ele>
        <time>2020-09-12T10:10:02Z</time>
      </trkpt>
      <trkpt lat="41.0522750" lon="-2.6507840">
        <ele>1107.2</ele>
        <time>2020-09-12T10:10:03Z</time>
      </trkpt>
      <trkpt lat="41.0523450" lon="-2.6509140">
        <ele>1106.4</ele>
        <time>2020-09-12T10:10:04Z</time>
      </trkpt>
      <trkpt lat="41.0524050" lon="-2.6510540">
        <ele>1105.6</ele>
        <time>2020-09-12T10:10:05Z</time>
      </trkpt>
      <trkpt lat="41.0524530" lon="-2.6512030">
        <ele>1104.8</ele>
        <time>2020-09-12T10:10:06Z</time>
      </trkpt>
      <trkpt lat="41.0524900" lon="-2.6513590">
        <ele>1104.0</ele>
        <time>2020-09-12T10:10:07Z</time>
      </trkpt>
      <trkpt lat="41.0525210" lon="-2.6515170">
        <ele>1103.4</ele>
        <time>2020-09-12T10:10:08Z</time>
      </trkpt>
      <trkpt lat="41.0525510" lon="-2.6516760">
        <ele>1102.6</ele>
        <time>2020-09-12T10:10:09Z</time>
      </trkpt>
      <trkpt lat="41.0525800" lon="-2.6518360">
        <ele>1101.6</ele>
        <time>2020-09-12T10:10:10Z</time>
      </trkpt>
      <trkpt lat="41.0526090" lon="-2.6519900">
        <ele>1100.4</ele>
        <time>2020-09-12T10:10:11Z</time>
      </trkpt>
      <trkpt lat="41.0526380" lon="-2.6521370">
        <ele>1099.4</ele>
        <time>2020-09-12T10:10:12Z</time>
      </trkpt>
      <trkpt lat="41.0526650" lon="-2.6522750">
        <ele>1098.4</ele>
        <time>2020-09-12T10:10:13Z</time>
      </trkpt>
      <trkpt lat="41.0526950" lon="-2.6524070">
        <ele>1097.6</ele>
        <time>2020-09-12T10:10:14Z</time>
      </trkpt>
      <trkpt lat="41.0527310" lon="-2.6525350">
        <ele>1096.4</ele>
        <time>2020-09-12T10:10:15Z</time>
      </trkpt>
      <trkpt lat="41.0527800" lon="-2.6526570">
        <ele>1095.6</ele>
        <time>2020-09-12T10:10:16Z</time>
      </trkpt>
      <trkpt lat="41.0528440" lon="-2.6527710">
        <ele>1094.8</ele>
        <time>2020-09-12T10:10:17Z</time>
      </trkpt>
      <trkpt lat="41.0529220" lon="-2.6528730">
        <ele>1094.0</ele>
        <time>2020-09-12T10:10:18Z</time>
      </trkpt>
      <trkpt lat="41.0530110" lon="-2.6529630">
        <ele>1093.0</ele>
        <time>2020-09-12T10:10:19Z</time>
      </trkpt>
      <trkpt lat="41.0531050" lon="-2.6530490">
        <ele>1092.2</ele>
        <time>2020-09-12T10:10:20Z</time>
      </trkpt>
      <trkpt lat="41.0532000" lon="-2.6531320">
        <ele>1091.8</ele>
        <time>2020-09-12T10:10:21Z</time>
      </trkpt>
      <trkpt lat="41.0532960" lon="-2.6532130">
        <ele>1091.4</ele>
        <time>2020-09-12T10:10:22Z</time>
      </trkpt>
      <trkpt lat="41.0533910" lon="-2.6532950">
        <ele>1091.0</ele>
        <time>2020-09-12T10:10:23Z</time>
      </trkpt>
      <trkpt lat="41.0534820" lon="-2.6533810">
        <ele>1090.4</ele>
        <time>2020-09-12T10:10:24Z</time>
      </trkpt>
      <trkpt lat="41.0535620" lon="-2.6534770">
        <ele>1089.6</ele>
        <time>2020-09-12T10:10:25Z</time>
      </trkpt>
      <trkpt lat="41.0536260" lon="-2.6535870">
        <ele>1088.8</ele>
        <time>2020-09-12T10:10:26Z</time>
      </trkpt>
      <trkpt lat="41.0536790" lon="-2.6537080">
        <ele>1088.0</ele>
        <time>2020-09-12T10:10:27Z</time>
      </trkpt>
      <trkpt lat="41.0537260" lon="-2.6538320">
        <ele>1087.4</ele>
        <time>2020-09-12T10:10:28Z</time>
      </trkpt>
      <trkpt lat="41.0537680" lon="-2.6539550">
        <ele>1086.6</ele>
        <time>2020-09-12T10:10:29Z</time>
      </trkpt>
      <trkpt lat="41.0538050" lon="-2.6540760">
        <ele>1085.8</ele>
        <time>2020-09-12T10:10:30Z</time>
      </trkpt>
      <trkpt lat="41.0538390" lon="-2.6541920">
        <ele>1084.8</ele>
        <time>2020-09-12T10:10:31Z</time>
      </trkpt>
      <trkpt lat="41.0538720" lon="-2.6543030">
        <ele>1084.0</ele>
        <time>2020-09-12T10:10:32Z</time>
      </trkpt>
      <trkpt lat="41.0539080" lon="-2.6544040">
        <ele>1083.2</ele>
        <time>2020-09-12T10:10:33Z</time>
      </trkpt>
      <trkpt lat="41.0539430" lon="-2.6544950">
        <ele>1082.6</ele>
        <time>2020-09-12T10:10:34Z</time>
      </trkpt>
      <trkpt lat="41.0539800" lon="-2.6545730">
        <ele>1082.0</ele>
        <time>2020-09-12T10:10:35Z</time>
      </trkpt>
      <trkpt lat="41.0540220" lon="-2.6546370">
        <ele>1081.4</ele>
        <time>2020-09-12T10:10:36Z</time>
      </trkpt>
      <trkpt lat="41.0540710" lon="-2.6546830">
        <ele>1081.0</ele>
        <time>2020-09-12T10:10:37Z</time>
      </trkpt>
      <trkpt lat="41.0541250" lon="-2.6547080">
        <ele>1080.8</ele>
        <time>2020-09-12T10:10:38Z</time>
      </trkpt>
      <trkpt lat="41.0541800" lon="-2.6547080">
        <ele>1080.6</ele>
        <time>2020-09-12T10:10:39Z</time>
      </trkpt>
      <trkpt lat="41.0542320" lon="-2.6546840">
        <ele>1080.6</ele>
        <time>2020-09-12T10:10:40Z</time>
      </trkpt>
      <trkpt lat="41.0542800" lon="-2.6546470">
        <ele>1080.4</ele>
        <time>2020-09-12T10:10:41Z</time>
      </trkpt>
      <trkpt lat="41.0543290" lon="-2.6546060">
        <ele>1080.4</ele>
        <time>2020-09-12T10:10:42Z</time>
      </trkpt>
      <trkpt lat="41.0543770" lon="-2.6545650">
        <ele>1080.4</ele>
        <time>2020-09-12T10:10:43Z</time>
      </trkpt>
      <trkpt lat="41.0544260" lon="-2.6545210">
        <ele>1080.2</ele>
        <time>2020-09-12T10:10:44Z</time>
      </trkpt>
      <trkpt lat="41.0544760" lon="-2.6544770">
        <ele>1080.2</ele>
        <time>2020-09-12T10:10:45Z</time>
      </trkpt>
      <trkpt lat="41.0545270" lon="-2.6544330">
        <ele>1080.4</ele>
        <time>2020-09-12T10:10:46Z</time>
      </trkpt>
      <trkpt lat="41.0545790" lon="-2.6543890">
        <ele>1080.4</ele>
        <time>2020-09-12T10:10:47Z</time>
      </trkpt>
      <trkpt lat="41.0546320" lon="-2.6543430">
        <ele>1080.2</ele>
        <time>2020-09-12T10:10:48Z</time>
      </trkpt>
      <trkpt lat="41.0546850" lon="-2.6542970">
        <ele>1080.2</ele>
        <time>2020-09-12T10:10:49Z</time>
      </trkpt>
      <trkpt lat="41.0547390" lon="-2.6542520">
        <ele>1080.2</ele>
        <time>2020-09-12T10:10:50Z</time>
      </trkpt>
      <trkpt lat="41.0547930" lon="-2.6542060">
        <ele>1080.2</ele>
        <time>2020-09-12T10:10:51Z</time>
      </trkpt>
      <trkpt lat="41.0548480" lon="-2.6541610">
        <ele>1080.2</ele>
        <time>2020-09-12T10:10:52Z</time>
      </trkpt>
      <trkpt lat="41.0549040" lon="-2.6541140">
        <ele>1080.2</ele>
        <time>2020-09-12T10:10:53Z</time>
      </trkpt>
      <trkpt lat="41.0549590" lon="-2.6540670">
        <ele>1080.2</ele>
        <time>2020-09-12T10:10:54Z</time>
      </trkpt>
      <trkpt lat="41.0550170" lon="-2.6540160">
        <ele>1080.2</ele>
        <time>2020-09-12T10:10:55Z</time>
      </trkpt>
      <trkpt lat="41.0550770" lon="-2.6539650">
        <ele>1080.0</ele>
        <time>2020-09-12T10:10:56Z</time>
      </trkpt>
      <trkpt lat="41.0551380" lon="-2.6539150">
        <ele>1079.6</ele>
        <time>2020-09-12T10:10:57Z</time>
      </trkpt>
      <trkpt lat="41.0552020" lon="-2.6538640">
        <ele>1079.4</ele>
        <time>2020-09-12T10:10:58Z</time>
      </trkpt>
      <trkpt lat="41.0552660" lon="-2.6538120">
        <ele>1079.2</ele>
        <time>2020-09-12T10:10:59Z</time>
      </trkpt>
      <trkpt lat="41.0553310" lon="-2.6537550">
        <ele>1079.2</ele>
        <time>2020-09-12T10:11:00Z</time>
      </trkpt>
      <trkpt lat="41.0553970" lon="-2.6536980">
        <ele>1079.0</ele>
        <time>2020-09-12T10:11:01Z</time>
      </trkpt>
      <trkpt lat="41.0554640" lon="-2.6536390">
        <ele>1078.8</ele>
        <time>2020-09-12T10:11:02Z</time>
      </trkpt>
      <trkpt lat="41.0555330" lon="-2.6535770">
        <ele>1078.8</ele>
        <time>2020-09-12T10:11:03Z</time>
      </trkpt>
      <trkpt lat="41.0556020" lon="-2.6535110">
        <ele>1078.6</ele>
        <time>2020-09-12T10:11:04Z</time>
      </trkpt>
      <trkpt lat="41.0556720" lon="-2.6534410">
        <ele>1078.0</ele>
        <time>2020-09-12T10:11:05Z</time>
      </trkpt>
      <trkpt lat="41.0557420" lon="-2.6533630">
        <ele>1077.6</ele>
        <time>2020-09-12T10:11:06Z</time>
      </trkpt>
      <trkpt lat="41.0558110" lon="-2.6532800">
        <ele>1077.4</ele>
        <time>2020-09-12T10:11:07Z</time>
      </trkpt>
      <trkpt lat="41.0558800" lon="-2.6531920">
        <ele>1077.2</ele>
        <time>2020-09-12T10:11:08Z</time>
      </trkpt>
      <trkpt lat="41.0559490" lon="-2.6530980">
        <ele>1076.8</ele>
        <time>2020-09-12T10:11:09Z</time>
      </trkpt>
      <trkpt lat="41.0560170" lon="-2.6529970">
        <ele>1076.4</ele>
        <time>2020-09-12T10:11:10Z</time>
      </trkpt>
      <trkpt lat="41.0560820" lon="-2.6528880">
        <ele>1076.0</ele>
        <time>2020-09-12T10:11:11Z</time>
      </trkpt>
      <trkpt lat="41.0561450" lon="-2.6527740">
        <ele>1075.8</ele>
        <time>2020-09-12T10:11:12Z</time>
      </trkpt>
      <trkpt lat="41.0562050" lon="-2.6526540">
        <ele>1075.4</ele>
        <time>2020-09-12T10:11:13Z</time>
      </trkpt>
      <trkpt lat="41.0562620" lon="-2.6525280">
        <ele>1074.6</ele>
        <time>2020-09-12T10:11:14Z</time>
      </trkpt>
      <trkpt lat="41.0563150" lon="-2.6523990">
        <ele>1074.0</ele>
        <time>2020-09-12T10:11:15Z</time>
      </trkpt>
      <trkpt lat="41.0563660" lon="-2.6522680">
        <ele>1073.6</ele>
        <time>2020-09-12T10:11:16Z</time>
      </trkpt>
      <trkpt lat="41.0564140" lon="-2.6521350">
        <ele>1073.0</ele>
        <time>2020-09-12T10:11:17Z</time>
      </trkpt>
      <trkpt lat="41.0564600" lon="-2.6519990">
        <ele>1072.4</ele>
        <time>2020-09-12T10:11:18Z</time>
      </trkpt>
      <trkpt lat="41.0565050" lon="-2.6518610">
        <ele>1071.8</ele>
        <time>2020-09-12T10:11:19Z</time>
      </trkpt>
      <trkpt lat="41.0565510" lon="-2.6517200">
        <ele>1071.0</ele>
        <time>2020-09-12T10:11:20Z</time>
      </trkpt>
      <trkpt lat="41.0565960" lon="-2.6515770">
        <ele>1070.0</ele>
        <time>2020-09-12T10:11:21Z</time>
      </trkpt>
      <trkpt lat="41.0566420" lon="-2.6514330">
        <ele>1069.2</ele>
        <time>2020-09-12T10:11:22Z</time>
      </trkpt>
      <trkpt lat="41.0566870" lon="-2.6512890">
        <ele>1068.6</ele>
        <time>2020-09-12T10:11:23Z</time>
      </trkpt>
      <trkpt lat="41.0567340" lon="-2.6511440">
        <ele>1068.0</ele>
        <time>2020-09-12T10:11:24Z</time>
      </trkpt>
      <trkpt lat="41.0567810" lon="-2.6509970">
        <ele>1067.4</ele>
        <time>2020-09-12T10:11:25Z</time>
      </trkpt>
      <trkpt lat="41.0568270" lon="-2.6508520">
        <ele>1066.8</ele>
        <time>2020-09-12T10:11:26Z</time>
      </trkpt>
      <trkpt lat="41.0568730" lon="-2.6507070">
        <ele>1066.4</ele>
        <time>2020-09-12T10:11:27Z</time>
      </trkpt>
      <trkpt lat="41.0569200" lon="-2.6505630">
        <ele>1066.2</ele>
        <time>2020-09-12T10:11:28Z</time>
      </trkpt>
      <trkpt lat="41.0569670" lon="-2.6504190">
        <ele>1065.8</ele>
        <time>2020-09-12T10:11:29Z</time>
      </trkpt>
      <trkpt lat="41.0570140" lon="-2.6502740">
        <ele>1065.2</ele>
        <time>2020-09-12T10:11:30Z</time>
      </trkpt>
      <trkpt lat="41.0570620" lon="-2.6501270">
        <ele>1064.6</ele>
        <time>2020-09-12T10:11:31Z</time>
      </trkpt>
      <trkpt lat="41.0571100" lon="-2.6499800">
        <ele>1064.0</ele>
        <time>2020-09-12T10:11:32Z</time>
      </trkpt>
      <trkpt lat="41.0571600" lon="-2.6498300">
        <ele>1063.2</ele>
        <time>2020-09-12T10:11:33Z</time>
      </trkpt>
      <trkpt lat="41.0572100" lon="-2.6496790">
        <ele>1062.2</ele>
        <time>2020-09-12T10:11:34Z</time>
      </trkpt>
      <trkpt lat="41.0572600" lon="-2.6495280">
        <ele>1061.4</ele>
        <time>2020-09-12T10:11:35Z</time>
      </trkpt>
      <trkpt lat="41.0573120" lon="-2.6493750">
        <ele>1060.8</ele>
        <time>2020-09-12T10:11:36Z</time>
      </trkpt>
      <trkpt lat="41.0573620" lon="-2.6492210">
        <ele>1060.0</ele>
        <time>2020-09-12T10:11:37Z</time>
      </trkpt>
      <trkpt lat="41.0574150" lon="-2.6490660">
        <ele>1059.2</ele>
        <time>2020-09-12T10:11:38Z</time>
      </trkpt>
      <trkpt lat="41.0574690" lon="-2.6489120">
        <ele>1058.2</ele>
        <time>2020-09-12T10:11:39Z</time>
      </trkpt>
      <trkpt lat="41.0575220" lon="-2.6487620">
        <ele>1057.4</ele>
        <time>2020-09-12T10:11:40Z</time>
      </trkpt>
      <trkpt lat="41.0575760" lon="-2.6486150">
        <ele>1056.8</ele>
        <time>2020-09-12T10:11:41Z</time>
      </trkpt>
      <trkpt lat="41.0576320" lon="-2.6484710">
        <ele>1056.0</ele>
        <time>2020-09-12T10:11:42Z</time>
      </trkpt>
      <trkpt lat="41.0576940" lon="-2.6483310">
        <ele>1055.4</ele>
        <time>2020-09-12T10:11:43Z</time>
      </trkpt>
      <trkpt lat="41.0577570" lon="-2.6481970">
        <ele>1054.4</ele>
        <time>2020-09-12T10:11:44Z</time>
      </trkpt>
      <trkpt lat="41.0578210" lon="-2.6480690">
        <ele>1053.6</ele>
        <time>2020-09-12T10:11:45Z</time>
      </trkpt>
      <trkpt lat="41.0578810" lon="-2.6479450">
        <ele>1052.4</ele>
        <time>2020-09-12T10:11:46Z</time>
      </trkpt>
      <trkpt lat="41.0579890" lon="-2.6476980">
        <ele>1051.2</ele>
        <time>2020-09-12T10:11:48Z</time>
      </trkpt>
      <trkpt lat="41.0580350" lon="-2.6475730">
        <ele>1050.6</ele>
        <time>2020-09-12T10:11:49Z</time>
      </trkpt>
      <trkpt lat="41.0580750" lon="-2.6474440">
        <ele>1050.0</ele>
        <time>2020-09-12T10:11:50Z</time>
      </trkpt>
      <trkpt lat="41.0581370" lon="-2.6471730">
        <ele>1048.8</ele>
        <time>2020-09-12T10:11:52Z</time>
      </trkpt>
      <trkpt lat="41.0581590" lon="-2.6470340">
        <ele>1048.2</ele>
        <time>2020-09-12T10:11:53Z</time>
      </trkpt>
      <trkpt lat="41.0581750" lon="-2.6468920">
        <ele>1047.6</ele>
        <time>2020-09-12T10:11:54Z</time>
      </trkpt>
      <trkpt lat="41.0581840" lon="-2.6467480">
        <ele>1047.0</ele>
        <time>2020-09-12T10:11:55Z</time>
      </trkpt>
      <trkpt lat="41.0581880" lon="-2.6466040">
        <ele>1046.8</ele>
        <time>2020-09-12T10:11:56Z</time>
      </trkpt>
      <trkpt lat="41.0581910" lon="-2.6464590">
        <ele>1046.4</ele>
        <time>2020-09-12T10:11:57Z</time>
      </trkpt>
      <trkpt lat="41.0581900" lon="-2.6463140">
        <ele>1046.0</ele>
        <time>2020-09-12T10:11:58Z</time>
      </trkpt>
      <trkpt lat="41.0581850" lon="-2.6461730">
        <ele>1045.4</ele>
        <time>2020-09-12T10:11:59Z</time>
      </trkpt>
      <trkpt lat="41.0581790" lon="-2.6460390">
        <ele>1044.8</ele>
        <time>2020-09-12T10:12:00Z</time>
      </trkpt>
      <trkpt lat="41.0581750" lon="-2.6459110">
        <ele>1044.2</ele>
        <time>2020-09-12T10:12:01Z</time>
      </trkpt>
      <trkpt lat="41.0581740" lon="-2.6457870">
        <ele>1043.4</ele>
        <time>2020-09-12T10:12:02Z</time>
      </trkpt>
      <trkpt lat="41.0581800" lon="-2.6456680">
        <ele>1042.2</ele>
        <time>2020-09-12T10:12:03Z</time>
      </trkpt>
      <trkpt lat="41.0581990" lon="-2.6455520">
        <ele>1041.2</ele>
        <time>2020-09-12T10:12:04Z</time>
      </trkpt>
      <trkpt lat="41.0582340" lon="-2.6454400">
        <ele>1040.2</ele>
        <time>2020-09-12T10:12:05Z</time>
      </trkpt>
      <trkpt lat="41.0582850" lon="-2.6453370">
        <ele>1039.8</ele>
        <time>2020-09-12T10:12:06Z</time>
      </trkpt>
      <trkpt lat="41.0583510" lon="-2.6452480">
        <ele>1039.4</ele>
        <time>2020-09-12T10:12:07Z</time>
      </trkpt>
      <trkpt lat="41.0584300" lon="-2.6451750">
        <ele>1039.0</ele>
        <time>2020-09-12T10:12:08Z</time>
      </trkpt>
      <trkpt lat="41.0585190" lon="-2.6451200">
        <ele>1038.8</ele>
        <time>2020-09-12T10:12:09Z</time>
      </trkpt>
      <trkpt lat="41.0586170" lon="-2.6450890">
        <ele>1038.4</ele>
        <time>2020-09-12T10:12:10Z</time>
      </trkpt>
      <trkpt lat="41.0587210" lon="-2.6450820">
        <ele>1037.8</ele>
        <time>2020-09-12T10:12:11Z</time>
      </trkpt>
      <trkpt lat="41.0588240" lon="-2.6450980">
        <ele>1037.0</ele>
        <time>2020-09-12T10:12:12Z</time>
      </trkpt>
      <trkpt lat="41.0589250" lon="-2.6451380">
        <ele>1036.0</ele>
        <time>2020-09-12T10:12:13Z</time>
      </trkpt>
      <trkpt lat="41.0590210" lon="-2.6451940">
        <ele>1035.4</ele>
        <time>2020-09-12T10:12:14Z</time>
      </trkpt>
      <trkpt lat="41.0591150" lon="-2.6452550">
        <ele>1034.6</ele>
        <time>2020-09-12T10:12:15Z</time>
      </trkpt>
      <trkpt lat="41.0592110" lon="-2.6453150">
        <ele>1034.2</ele>
        <time>2020-09-12T10:12:16Z</time>
      </trkpt>
      <trkpt lat="41.0593080" lon="-2.6453750">
        <ele>1033.6</ele>
        <time>2020-09-12T10:12:17Z</time>
      </trkpt>
      <trkpt lat="41.0594060" lon="-2.6454340">
        <ele>1032.8</ele>
        <time>2020-09-12T10:12:18Z</time>
      </trkpt>
      <trkpt lat="41.0595070" lon="-2.6454940">
        <ele>1031.8</ele>
        <time>2020-09-12T10:12:19Z</time>
      </trkpt>
      <trkpt lat="41.0596080" lon="-2.6455540">
        <ele>1030.8</ele>
        <time>2020-09-12T10:12:20Z</time>
      </trkpt>
      <trkpt lat="41.0597090" lon="-2.6456160">
        <ele>1029.8</ele>
        <time>2020-09-12T10:12:21Z</time>
      </trkpt>
      <trkpt lat="41.0598100" lon="-2.6456780">
        <ele>1029.0</ele>
        <time>2020-09-12T10:12:22Z</time>
      </trkpt>
      <trkpt lat="41.0599110" lon="-2.6457410">
        <ele>1028.2</ele>
        <time>2020-09-12T10:12:23Z</time>
      </trkpt>
      <trkpt lat="41.0600090" lon="-2.6458020">
        <ele>1027.4</ele>
        <time>2020-09-12T10:12:24Z</time>
      </trkpt>
      <trkpt lat="41.0601040" lon="-2.6458620">
        <ele>1026.8</ele>
        <time>2020-09-12T10:12:25Z</time>
      </trkpt>
      <trkpt lat="41.0601990" lon="-2.6459220">
        <ele>1026.0</ele>
        <time>2020-09-12T10:12:26Z</time>
      </trkpt>
      <trkpt lat="41.0602920" lon="-2.6459820">
        <ele>1025.2</ele>
        <time>2020-09-12T10:12:27Z</time>
      </trkpt>
      <trkpt lat="41.0603830" lon="-2.6460400">
        <ele>1024.6</ele>
        <time>2020-09-12T10:12:28Z</time>
      </trkpt>
      <trkpt lat="41.0604710" lon="-2.6460960">
        <ele>1024.0</ele>
        <time>2020-09-12T10:12:29Z</time>
      </trkpt>
      <trkpt lat="41.0605570" lon="-2.6461520">
        <ele>1023.2</ele>
        <time>2020-09-12T10:12:30Z</time>
      </trkpt>
      <trkpt lat="41.0606420" lon="-2.6462060">
        <ele>1022.4</ele>
        <time>2020-09-12T10:12:31Z</time>
      </trkpt>
      <trkpt lat="41.0607280" lon="-2.6462600">
        <ele>1022.0</ele>
        <time>2020-09-12T10:12:32Z</time>
      </trkpt>
      <trkpt lat="41.0608130" lon="-2.6463140">
        <ele>1021.6</ele>
        <time>2020-09-12T10:12:33Z</time>
      </trkpt>
      <trkpt lat="41.0608970" lon="-2.6463680">
        <ele>1021.2</ele>
        <time>2020-09-12T10:12:34Z</time>
      </trkpt>
      <trkpt lat="41.0609810" lon="-2.6464210">
        <ele>1020.6</ele>
        <time>2020-09-12T10:12:35Z</time>
      </trkpt>
      <trkpt lat="41.0610620" lon="-2.6464730">
        <ele>1019.8</ele>
        <time>2020-09-12T10:12:36Z</time>
      </trkpt>
      <trkpt lat="41.0611380" lon="-2.6465220">
        <ele>1019.0</ele>
        <time>2020-09-12T10:12:37Z</time>
      </trkpt>
      <trkpt lat="41.0612080" lon="-2.6465700">
        <ele>1018.2</ele>
        <time>2020-09-12T10:12:38Z</time>
      </trkpt>
      <trkpt lat="41.0612730" lon="-2.6466140">
        <ele>1017.4</ele>
        <time>2020-09-12T10:12:39Z</time>
      </trkpt>
      <trkpt lat="41.0613370" lon="-2.6466550">
        <ele>1016.8</ele>
        <time>2020-09-12T10:12:40Z</time>
      </trkpt>
      <trkpt lat="41.0614000" lon="-2.6466960">
        <ele>1016.2</ele>
        <time>2020-09-12T10:12:41Z</time>
      </trkpt>
      <trkpt lat="41.0614640" lon="-2.6467370">
        <ele>1015.6</ele>
        <time>2020-09-12T10:12:42Z</time>
      </trkpt>
      <trkpt lat="41.0615270" lon="-2.6467780">
        <ele>1015.2</ele>
        <time>2020-09-12T10:12:43Z</time>
      </trkpt>
      <trkpt lat="41.0615870" lon="-2.6468190">
        <ele>1014.6</ele>
        <time>2020-09-12T10:12:44Z</time>
      </trkpt>
      <trkpt lat="41.0616450" lon="-2.6468560">
        <ele>1014.2</ele>
        <time>2020-09-12T10:12:45Z</time>
      </trkpt>
      <trkpt lat="41.0617020" lon="-2.6468910">
        <ele>1013.6</ele>
        <time>2020-09-12T10:12:46Z</time>
      </trkpt>
      <trkpt lat="41.0617600" lon="-2.6469220">
        <ele>1013.2</ele>
        <time>2020-09-12T10:12:47Z</time>
      </trkpt>
      <trkpt lat="41.0618180" lon="-2.6469520">
        <ele>1013.0</ele>
        <time>2020-09-12T10:12:48Z</time>
      </trkpt>
      <trkpt lat="41.0618780" lon="-2.6469800">
        <ele>1012.6</ele>
        <time>2020-09-12T10:12:49Z</time>
      </trkpt>
      <trkpt lat="41.0619370" lon="-2.6470070">
        <ele>1012.0</ele>
        <time>2020-09-12T10:12:50Z</time>
      </trkpt>
      <trkpt lat="41.0619940" lon="-2.6470410">
        <ele>1011.6</ele>
        <time>2020-09-12T10:12:51Z</time>
      </trkpt>
      <trkpt lat="41.0620510" lon="-2.6470780">
        <ele>1011.2</ele>
        <time>2020-09-12T10:12:52Z</time>
      </trkpt>
      <trkpt lat="41.0621080" lon="-2.6471130">
        <ele>1010.6</ele>
        <time>2020-09-12T10:12:53Z</time>
      </trkpt>
      <trkpt lat="41.0621650" lon="-2.6471460">
        <ele>1010.2</ele>
        <time>2020-09-12T10:12:54Z</time>
      </trkpt>
      <trkpt lat="41.0622220" lon="-2.6471760">
        <ele>1010.0</ele>
        <time>2020-09-12T10:12:55Z</time>
      </trkpt>
      <trkpt lat="41.0622800" lon="-2.6472050">
        <ele>1009.6</ele>
        <time>2020-09-12T10:12:56Z</time>
      </trkpt>
      <trkpt lat="41.0623380" lon="-2.6472320">
        <ele>1009.4</ele>
        <time>2020-09-12T10:12:57Z</time>
      </trkpt>
      <trkpt lat="41.0623980" lon="-2.6472550">
        <ele>1009.2</ele>
        <time>2020-09-12T10:12:58Z</time>
      </trkpt>
      <trkpt lat="41.0624570" lon="-2.6472770">
        <ele>1009.0</ele>
        <time>2020-09-12T10:12:59Z</time>
      </trkpt>
      <trkpt lat="41.0625160" lon="-2.6472960">
        <ele>1008.8</ele>
        <time>2020-09-12T10:13:00Z</time>
      </trkpt>
      <trkpt lat="41.0625730" lon="-2.6473120">
        <ele>1008.6</ele>
        <time>2020-09-12T10:13:01Z</time>
      </trkpt>
      <trkpt lat="41.0626280" lon="-2.6473260">
        <ele>1008.2</ele>
        <time>2020-09-12T10:13:02Z</time>
      </trkpt>
      <trkpt lat="41.0626800" lon="-2.6473400">
        <ele>1007.8</ele>
        <time>2020-09-12T10:13:03Z</time>
      </trkpt>
      <trkpt lat="41.0627290" lon="-2.6473500">
        <ele>1007.2</ele>
        <time>2020-09-12T10:13:04Z</time>
      </trkpt>
      <trkpt lat="41.0627790" lon="-2.6473570">
        <ele>1006.8</ele>
        <time>2020-09-12T10:13:05Z</time>
      </trkpt>
      <trkpt lat="41.0628290" lon="-2.6473630">
        <ele>1006.6</ele>
        <time>2020-09-12T10:13:06Z</time>
      </trkpt>
      <trkpt lat="41.0628750" lon="-2.6473710">
        <ele>1006.2</ele>
        <time>2020-09-12T10:13:07Z</time>
      </trkpt>
      <trkpt lat="41.0629190" lon="-2.6473760">
        <ele>1005.8</ele>
        <time>2020-09-12T10:13:08Z</time>
      </trkpt>
      <trkpt lat="41.0629650" lon="-2.6473830">
        <ele>1005.6</ele>
        <time>2020-09-12T10:13:09Z</time>
      </trkpt>
      <trkpt lat="41.0630120" lon="-2.6473820">
        <ele>1005.4</ele>
        <time>2020-09-12T10:13:10Z</time>
      </trkpt>
      <trkpt lat="41.0630630" lon="-2.6473790">
        <ele>1005.2</ele>
        <time>2020-09-12T10:13:11Z</time>
      </trkpt>
      <trkpt lat="41.0631150" lon="-2.6473760">
        <ele>1005.0</ele>
        <time>2020-09-12T10:13:12Z</time>
      </trkpt>
      <trkpt lat="41.0631690" lon="-2.6473760">
        <ele>1005.0</ele>
        <time>2020-09-12T10:13:13Z</time>
      </trkpt>
      <trkpt lat="41.0632240" lon="-2.6473740">
        <ele>1004.8</ele>
        <time>2020-09-12T10:13:14Z</time>
      </trkpt>
      <trkpt lat="41.0632830" lon="-2.6473710">
        <ele>1004.8</ele>
        <time>2020-09-12T10:13:15Z</time>
      </trkpt>
      <trkpt lat="41.0633430" lon="-2.6473680">
        <ele>1004.6</ele>
        <time>2020-09-12T10:13:16Z</time>
      </trkpt>
      <trkpt lat="41.0634060" lon="-2.6473650">
        <ele>1004.6</ele>
        <time>2020-09-12T10:13:17Z</time>
      </trkpt>
      <trkpt lat="41.0634700" lon="-2.6473610">
        <ele>1004.4</ele>
        <time>2020-09-12T10:13:18Z</time>
      </trkpt>
      <trkpt lat="41.0635340" lon="-2.6473590">
        <ele>1004.2</ele>
        <time>2020-09-12T10:13:19Z</time>
      </trkpt>
      <trkpt lat="41.0635950" lon="-2.6473590">
        <ele>1004.0</ele>
        <time>2020-09-12T10:13:20Z</time>
      </trkpt>
      <trkpt lat="41.0636540" lon="-2.6473570">
        <ele>1003.6</ele>
        <time>2020-09-12T10:13:21Z</time>
      </trkpt>
      <trkpt lat="41.0637100" lon="-2.6473570">
        <ele>1003.4</ele>
        <time>2020-09-12T10:13:22Z</time>
      </trkpt>
      <trkpt lat="41.0637690" lon="-2.6473540">
        <ele>1003.2</ele>
        <time>2020-09-12T10:13:23Z</time>
      </trkpt>
      <trkpt lat="41.0638290" lon="-2.6473520">
        <ele>1003.0</ele>
        <time>2020-09-12T10:13:24Z</time>
      </trkpt>
      <trkpt lat="41.0638900" lon="-2.6473510">
        <ele>1002.8</ele>
        <time>2020-09-12T10:13:25Z</time>
      </trkpt>
      <trkpt lat="41.0639520" lon="-2.6473500">
        <ele>1002.6</ele>
        <time>2020-09-12T10:13:26Z</time>
      </trkpt>
      <trkpt lat="41.0640170" lon="-2.6473460">
        <ele>1002.4</ele>
        <time>2020-09-12T10:13:27Z</time>
      </trkpt>
      <trkpt lat="41.0640830" lon="-2.6473450">
        <ele>1002.0</ele>
        <time>2020-09-12T10:13:28Z</time>
      </trkpt>
      <trkpt lat="41.0641490" lon="-2.6473440">
        <ele>1001.8</ele>
        <time>2020-09-12T10:13:29Z</time>
      </trkpt>
      <trkpt lat="41.0642170" lon="-2.6473420">
        <ele>1001.4</ele>
        <time>2020-09-12T10:13:30Z</time>
      </trkpt>
      <trkpt lat="41.0642860" lon="-2.6473380">
        <ele>1001.2</ele>
        <time>2020-09-12T10:13:31Z</time>
      </trkpt>
      <trkpt lat="41.0643560" lon="-2.6473350">
        <ele>1001.0</ele>
        <time>2020-09-12T10:13:32Z</time>
      </trkpt>
      <trkpt lat="41.0644260" lon="-2.6473300">
        <ele>1000.8</ele>
        <time>2020-09-12T10:13:33Z</time>
      </trkpt>
      <trkpt lat="41.0644960" lon="-2.6473270">
        <ele>1000.8</ele>
        <time>2020-09-12T10:13:34Z</time>
      </trkpt>
      <trkpt lat="41.0645670" lon="-2.6473260">
        <ele>1000.4</ele>
        <time>2020-09-12T10:13:35Z</time>
      </trkpt>
      <trkpt lat="41.0646360" lon="-2.6473240">
        <ele>1000.4</ele>
        <time>2020-09-12T10:13:36Z</time>
      </trkpt>
      <trkpt lat="41.0647000" lon="-2.6473240">
        <ele>1000.2</ele>
        <time>2020-09-12T10:13:37Z</time>
      </trkpt>
      <trkpt lat="41.0647590" lon="-2.6473250">
        <ele>1000.0</ele>
        <time>2020-09-12T10:13:38Z</time>
      </trkpt>
      <trkpt lat="41.0648090" lon="-2.6473240">
        <ele>999.6</ele>
        <time>2020-09-12T10:13:39Z</time>
      </trkpt>
      <trkpt lat="41.0648510" lon="-2.6473260">
        <ele>999.4</ele>
        <time>2020-09-12T10:13:40Z</time>
      </trkpt>
      <trkpt lat="41.0648890" lon="-2.6473220">
        <ele>999.0</ele>
        <time>2020-09-12T10:13:41Z</time>
      </trkpt>
      <trkpt lat="41.0649250" lon="-2.6473170">
        <ele>998.6</ele>
        <time>2020-09-12T10:13:42Z</time>
      </trkpt>
      <trkpt lat="41.0649570" lon="-2.6473140">
        <ele>998.4</ele>
        <time>2020-09-12T10:13:43Z</time>
      </trkpt>
      <trkpt lat="41.0649860" lon="-2.6473100">
        <ele>998.0</ele>
        <time>2020-09-12T10:13:44Z</time>
      </trkpt>
      <trkpt lat="41.0650130" lon="-2.6473110">
        <ele>997.6</ele>
        <time>2020-09-12T10:13:45Z</time>
      </trkpt>
      <trkpt lat="41.0650370" lon="-2.6473230">
        <ele>997.4</ele>
        <time>2020-09-12T10:13:46Z</time>
      </trkpt>
      <trkpt lat="41.0650560" lon="-2.6473470">
        <ele>997.2</ele>
        <time>2020-09-12T10:13:47Z</time>
      </trkpt>
      <trkpt lat="41.0650660" lon="-2.6473770">
        <ele>997.0</ele>
        <time>2020-09-12T10:13:48Z</time>
      </trkpt>
      <trkpt lat="41.0650680" lon="-2.6474070">
        <ele>997.0</ele>
        <time>2020-09-12T10:13:49Z</time>
      </trkpt>
      <trkpt lat="41.0650670" lon="-2.6474280">
        <ele>997.0</ele>
        <time>2020-09-12T10:13:50Z</time>
      </trkpt>
      <trkpt lat="41.0650680" lon="-2.6474370">
        <ele>996.8</ele>
        <time>2020-09-12T10:13:51Z</time>
      </trkpt>
      <trkpt lat="41.0650690" lon="-2.6474410">
        <ele>996.6</ele>
        <time>2020-09-12T10:13:52Z</time>
      </trkpt>
      <trkpt lat="41.0650690" lon="-2.6474450">
        <ele>996.4</ele>
        <time>2020-09-12T10:13:53Z</time>
      </trkpt>
      <trkpt lat="41.0650660" lon="-2.6474410">
        <ele>996.0</ele>
        <time>2020-09-12T10:13:56Z</time>
      </trkpt>
      <trkpt lat="41.0650720" lon="-2.6474490">
        <ele>996.2</ele>
        <time>2020-09-12T10:14:01Z</time>
      </trkpt>
      <trkpt lat="41.0650820" lon="-2.6474570">
        <ele>996.2</ele>
        <time>2020-09-12T10:14:03Z</time>
      </trkpt>
      <trkpt lat="41.0650970" lon="-2.6474490">
        <ele>996.2</ele>
        <time>2020-09-12T10:14:06Z</time>
      </trkpt>
      <trkpt lat="41.0651010" lon="-2.6474460">
        <ele>996.2</ele>
        <time>2020-09-12T10:14:07Z</time>
      </trkpt>
      <trkpt lat="41.0651070" lon="-2.6474410">
        <ele>996.2</ele>
        <time>2020-09-12T10:14:09Z</time>
      </trkpt>
      <trkpt lat="41.0651070" lon="-2.6474330">
        <ele>996.2</ele>
        <time>2020-09-12T10:14:13Z</time>
      </trkpt>
      <trkpt lat="41.0651070" lon="-2.6474330">
        <ele>996.4</ele>
        <time>2020-09-12T10:14:19Z</time>
      </trkpt>
      <trkpt lat="41.0651050" lon="-2.6474400">
        <ele>996.2</ele>
        <time>2020-09-12T10:14:23Z</time>
      </trkpt>
      <trkpt lat="41.0647190" lon="-2.6473480">
        <ele>989.4</ele>
        <time>2020-09-12T10:48:35Z</time>
      </trkpt>
      <trkpt lat="41.0647010" lon="-2.6473480">
        <ele>989.2</ele>
        <time>2020-09-12T10:48:36Z</time>
      </trkpt>
      <trkpt lat="41.0646800" lon="-2.6473550">
        <ele>989.2</ele>
        <time>2020-09-12T10:48:37Z</time>
      </trkpt>
      <trkpt lat="41.0646570" lon="-2.6473630">
        <ele>989.8</ele>
        <time>2020-09-12T10:48:38Z</time>
      </trkpt>
      <trkpt lat="41.0646310" lon="-2.6473700">
        <ele>989.8</ele>
        <time>2020-09-12T10:48:39Z</time>
      </trkpt>
      <trkpt lat="41.0646020" lon="-2.6473690">
        <ele>989.6</ele>
        <time>2020-09-12T10:48:40Z</time>
      </trkpt>
      <trkpt lat="41.0645760" lon="-2.6473730">
        <ele>989.6</ele>
        <time>2020-09-12T10:48:41Z</time>
      </trkpt>
      <trkpt lat="41.0645480" lon="-2.6473730">
        <ele>989.6</ele>
        <time>2020-09-12T10:48:42Z</time>
      </trkpt>
      <trkpt lat="41.0645170" lon="-2.6473740">
        <ele>989.8</ele>
        <time>2020-09-12T10:48:43Z</time>
      </trkpt>
      <trkpt lat="41.0644860" lon="-2.6473770">
        <ele>990.0</ele>
        <time>2020-09-12T10:48:44Z</time>
      </trkpt>
      <trkpt lat="41.0644530" lon="-2.6473740">
        <ele>990.0</ele>
        <time>2020-09-12T10:48:45Z</time>
      </trkpt>
      <trkpt lat="41.0644210" lon="-2.6473720">
        <ele>990.2</ele>
        <time>2020-09-12T10:48:46Z</time>
      </trkpt>
      <trkpt lat="41.0643900" lon="-2.6473730">
        <ele>990.2</ele>
        <time>2020-09-12T10:48:47Z</time>
      </trkpt>
      <trkpt lat="41.0643570" lon="-2.6473750">
        <ele>990.2</ele>
        <time>2020-09-12T10:48:48Z</time>
      </trkpt>
      <trkpt lat="41.0643240" lon="-2.6473770">
        <ele>990.2</ele>
        <time>2020-09-12T10:48:49Z</time>
      </trkpt>
      <trkpt lat="41.0642910" lon="-2.6473790">
        <ele>990.4</ele>
        <time>2020-09-12T10:48:50Z</time>
      </trkpt>
      <trkpt lat="41.0642560" lon="-2.6473780">
        <ele>990.4</ele>
        <time>2020-09-12T10:48:51Z</time>
      </trkpt>
      <trkpt lat="41.0642200" lon="-2.6473780">
        <ele>990.6</ele>
        <time>2020-09-12T10:48:52Z</time>
      </trkpt>
      <trkpt lat="41.0641860" lon="-2.6473760">
        <ele>990.6</ele>
        <time>2020-09-12T10:48:53Z</time>
      </trkpt>
      <trkpt lat="41.0641530" lon="-2.6473730">
        <ele>990.8</ele>
        <time>2020-09-12T10:48:54Z</time>
      </trkpt>
      <trkpt lat="41.0641210" lon="-2.6473730">
        <ele>991.0</ele>
        <time>2020-09-12T10:48:55Z</time>
      </trkpt>
      <trkpt lat="41.0640890" lon="-2.6473740">
        <ele>991.0</ele>
        <time>2020-09-12T10:48:56Z</time>
      </trkpt>
      <trkpt lat="41.0640580" lon="-2.6473740">
        <ele>991.2</ele>
        <time>2020-09-12T10:48:57Z</time>
      </trkpt>
      <trkpt lat="41.0640280" lon="-2.6473730">
        <ele>991.4</ele>
        <time>2020-09-12T10:48:58Z</time>
      </trkpt>
      <trkpt lat="41.0639960" lon="-2.6473740">
        <ele>991.4</ele>
        <time>2020-09-12T10:48:59Z</time>
      </trkpt>
      <trkpt lat="41.0639630" lon="-2.6473770">
        <ele>991.6</ele>
        <time>2020-09-12T10:49:00Z</time>
      </trkpt>
      <trkpt lat="41.0639320" lon="-2.6473800">
        <ele>991.8</ele>
        <time>2020-09-12T10:49:01Z</time>
      </trkpt>
      <trkpt lat="41.0638990" lon="-2.6473830">
        <ele>991.8</ele>
        <time>2020-09-12T10:49:02Z</time>
      </trkpt>
      <trkpt lat="41.0638660" lon="-2.6473830">
        <ele>992.0</ele>
        <time>2020-09-12T10:49:03Z</time>
      </trkpt>
      <trkpt lat="41.0638320" lon="-2.6473820">
        <ele>992.2</ele>
        <time>2020-09-12T10:49:04Z</time>
      </trkpt>
      <trkpt lat="41.0637990" lon="-2.6473810">
        <ele>992.2</ele>
        <time>2020-09-12T10:49:05Z</time>
      </trkpt>
      <trkpt lat="41.0637670" lon="-2.6473820">
        <ele>992.4</ele>
        <time>2020-09-12T10:49:06Z</time>
      </trkpt>
      <trkpt lat="41.0637330" lon="-2.6473850">
        <ele>992.6</ele>
        <time>2020-09-12T10:49:07Z</time>
      </trkpt>
      <trkpt lat="41.0636980" lon="-2.6473870">
        <ele>992.8</ele>
        <time>2020-09-12T10:49:08Z</time>
      </trkpt>
      <trkpt lat="41.0636640" lon="-2.6473880">
        <ele>992.8</ele>
        <time>2020-09-12T10:49:09Z</time>
      </trkpt>
      <trkpt lat="41.0636290" lon="-2.6473890">
        <ele>993.0</ele>
        <time>2020-09-12T10:49:10Z</time>
      </trkpt>
      <trkpt lat="41.0635940" lon="-2.6473910">
        <ele>993.0</ele>
        <time>2020-09-12T10:49:11Z</time>
      </trkpt>
      <trkpt lat="41.0635590" lon="-2.6473930">
        <ele>993.2</ele>
        <time>2020-09-12T10:49:12Z</time>
      </trkpt>
      <trkpt lat="41.0635240" lon="-2.6473930">
        <ele>993.2</ele>
        <time>2020-09-12T10:49:13Z</time>
      </trkpt>
      <trkpt lat="41.0634870" lon="-2.6473930">
        <ele>993.4</ele>
        <time>2020-09-12T10:49:14Z</time>
      </trkpt>
      <trkpt lat="41.0634520" lon="-2.6473950">
        <ele>993.4</ele>
        <time>2020-09-12T10:49:15Z</time>
      </trkpt>
      <trkpt lat="41.0634170" lon="-2.6473990">
        <ele>993.6</ele>
        <time>2020-09-12T10:49:16Z</time>
      </trkpt>
      <trkpt lat="41.0633810" lon="-2.6474040">
        <ele>993.8</ele>
        <time>2020-09-12T10:49:17Z</time>
      </trkpt>
      <trkpt lat="41.0633450" lon="-2.6474060">
        <ele>993.8</ele>
        <time>2020-09-12T10:49:18Z</time>
      </trkpt>
      <trkpt lat="41.0633080" lon="-2.6474090">
        <ele>994.0</ele>
        <time>2020-09-12T10:49:19Z</time>
      </trkpt>
      <trkpt lat="41.0632700" lon="-2.6474110">
        <ele>994.0</ele>
        <time>2020-09-12T10:49:20Z</time>
      </trkpt>
      <trkpt lat="41.0632340" lon="-2.6474110">
        <ele>994.0</ele>
        <time>2020-09-12T10:49:21Z</time>
      </trkpt>
      <trkpt lat="41.0631970" lon="-2.6474120">
        <ele>994.0</ele>
        <time>2020-09-12T10:49:22Z</time>
      </trkpt>
      <trkpt lat="41.0631600" lon="-2.6474130">
        <ele>994.2</ele>
        <time>2020-09-12T10:49:23Z</time>
      </trkpt>
      <trkpt lat="41.0631230" lon="-2.6474160">
        <ele>994.2</ele>
        <time>2020-09-12T10:49:24Z</time>
      </trkpt>
      <trkpt lat="41.0630860" lon="-2.6474190">
        <ele>994.4</ele>
        <time>2020-09-12T10:49:25Z</time>
      </trkpt>
      <trkpt lat="41.0630500" lon="-2.6474210">
        <ele>994.6</ele>
        <time>2020-09-12T10:49:26Z</time>
      </trkpt>
      <trkpt lat="41.0630130" lon="-2.6474210">
        <ele>994.6</ele>
        <time>2020-09-12T10:49:27Z</time>
      </trkpt>
      <trkpt lat="41.0629760" lon="-2.6474200">
        <ele>995.0</ele>
        <time>2020-09-12T10:49:28Z</time>
      </trkpt>
      <trkpt lat="41.0629390" lon="-2.6474200">
        <ele>995.2</ele>
        <time>2020-09-12T10:49:29Z</time>
      </trkpt>
      <trkpt lat="41.0629010" lon="-2.6474170">
        <ele>995.4</ele>
        <time>2020-09-12T10:49:30Z</time>
      </trkpt>
      <trkpt lat="41.0628640" lon="-2.6474130">
        <ele>995.6</ele>
        <time>2020-09-12T10:49:31Z</time>
      </trkpt>
      <trkpt lat="41.0628250" lon="-2.6474090">
        <ele>995.8</ele>
        <time>2020-09-12T10:49:32Z</time>
      </trkpt>
      <trkpt lat="41.0627870" lon="-2.6474050">
        <ele>996.0</ele>
        <time>2020-09-12T10:49:33Z</time>
      </trkpt>
      <trkpt lat="41.0627490" lon="-2.6473990">
        <ele>996.0</ele>
        <time>2020-09-12T10:49:34Z</time>
      </trkpt>
      <trkpt lat="41.0627140" lon="-2.6473930">
        <ele>996.2</ele>
        <time>2020-09-12T10:49:35Z</time>
      </trkpt>
      <trkpt lat="41.0626800" lon="-2.6473870">
        <ele>996.2</ele>
        <time>2020-09-12T10:49:36Z</time>
      </trkpt>
      <trkpt lat="41.0626490" lon="-2.6473800">
        <ele>996.2</ele>
        <time>2020-09-12T10:49:37Z</time>
      </trkpt>
      <trkpt lat="41.0626170" lon="-2.6473750">
        <ele>996.2</ele>
        <time>2020-09-12T10:49:38Z</time>
      </trkpt>
      <trkpt lat="41.0625850" lon="-2.6473670">
        <ele>996.2</ele>
        <time>2020-09-12T10:49:39Z</time>
      </trkpt>
      <trkpt lat="41.0625520" lon="-2.6473570">
        <ele>996.4</ele>
        <time>2020-09-12T10:49:40Z</time>
      </trkpt>
      <trkpt lat="41.0625200" lon="-2.6473420">
        <ele>996.6</ele>
        <time>2020-09-12T10:49:41Z</time>
      </trkpt>
      <trkpt lat="41.0624860" lon="-2.6473260">
        <ele>997.0</ele>
        <time>2020-09-12T10:49:42Z</time>
      </trkpt>
      <trkpt lat="41.0624530" lon="-2.6473120">
        <ele>997.2</ele>
        <time>2020-09-12T10:49:43Z</time>
      </trkpt>
      <trkpt lat="41.0624180" lon="-2.6472990">
        <ele>997.2</ele>
        <time>2020-09-12T10:49:44Z</time>
      </trkpt>
      <trkpt lat="41.0623840" lon="-2.6472850">
        <ele>997.4</ele>
        <time>2020-09-12T10:49:45Z</time>
      </trkpt>
      <trkpt lat="41.0623500" lon="-2.6472710">
        <ele>997.6</ele>
        <time>2020-09-12T10:49:46Z</time>
      </trkpt>
      <trkpt lat="41.0623160" lon="-2.6472570">
        <ele>997.8</ele>
        <time>2020-09-12T10:49:47Z</time>
      </trkpt>
      <trkpt lat="41.0622810" lon="-2.6472420">
        <ele>998.0</ele>
        <time>2020-09-12T10:49:48Z</time>
      </trkpt>
      <trkpt lat="41.0622470" lon="-2.6472230">
        <ele>998.2</ele>
        <time>2020-09-12T10:49:49Z</time>
      </trkpt>
      <trkpt lat="41.0622130" lon="-2.6472070">
        <ele>998.6</ele>
        <time>2020-09-12T10:49:50Z</time>
      </trkpt>
      <trkpt lat="41.0621800" lon="-2.6471910">
        <ele>998.8</ele>
        <time>2020-09-12T10:49:51Z</time>
      </trkpt>
      <trkpt lat="41.0621460" lon="-2.6471760">
        <ele>999.2</ele>
        <time>2020-09-12T10:49:52Z</time>
      </trkpt>
      <trkpt lat="41.0621120" lon="-2.6471580">
        <ele>999.4</ele>
        <time>2020-09-12T10:49:53Z</time>
      </trkpt>
      <trkpt lat="41.0620780" lon="-2.6471370">
        <ele>999.6</ele>
        <time>2020-09-12T10:49:54Z</time>
      </trkpt>
      <trkpt lat="41.0620430" lon="-2.6471170">
        <ele>999.8</ele>
        <time>2020-09-12T10:49:55Z</time>
      </trkpt>
      <trkpt lat="41.0620120" lon="-2.6470880">
        <ele>1000.0</ele>
        <time>2020-09-12T10:49:56Z</time>
      </trkpt>
      <trkpt lat="41.0619820" lon="-2.6470530">
        <ele>1000.2</ele>
        <time>2020-09-12T10:49:57Z</time>
      </trkpt>
      <trkpt lat="41.0619550" lon="-2.6470110">
        <ele>1000.4</ele>
        <time>2020-09-12T10:49:58Z</time>
      </trkpt>
      <trkpt lat="41.0619310" lon="-2.6469670">
        <ele>1000.6</ele>
        <time>2020-09-12T10:49:59Z</time>
      </trkpt>
      <trkpt lat="41.0619060" lon="-2.6469270">
        <ele>1000.8</ele>
        <time>2020-09-12T10:50:00Z</time>
      </trkpt>
      <trkpt lat="41.0618810" lon="-2.6468880">
        <ele>1001.0</ele>
        <time>2020-09-12T10:50:01Z</time>
      </trkpt>
      <trkpt lat="41.0618550" lon="-2.6468540">
        <ele>1001.2</ele>
        <time>2020-09-12T10:50:02Z</time>
      </trkpt>
      <trkpt lat="41.0618290" lon="-2.6468210">
        <ele>1001.4</ele>
        <time>2020-09-12T10:50:03Z</time>
      </trkpt>
      <trkpt lat="41.0618040" lon="-2.6467900">
        <ele>1001.4</ele>
        <time>2020-09-12T10:50:04Z</time>
      </trkpt>
      <trkpt lat="41.0617790" lon="-2.6467590">
        <ele>1001.4</ele>
        <time>2020-09-12T10:50:05Z</time>
      </trkpt>
      <trkpt lat="41.0617530" lon="-2.6467280">
        <ele>1001.6</ele>
        <time>2020-09-12T10:50:06Z</time>
      </trkpt>
      <trkpt lat="41.0617260" lon="-2.6466960">
        <ele>1001.6</ele>
        <time>2020-09-12T10:50:07Z</time>
      </trkpt>
      <trkpt lat="41.0617010" lon="-2.6466600">
        <ele>1001.8</ele>
        <time>2020-09-12T10:50:08Z</time>
      </trkpt>
      <trkpt lat="41.0616770" lon="-2.6466200">
        <ele>1001.8</ele>
        <time>2020-09-12T10:50:09Z</time>
      </trkpt>
      <trkpt lat="41.0616530" lon="-2.6465770">
        <ele>1002.0</ele>
        <time>2020-09-12T10:50:10Z</time>
      </trkpt>
      <trkpt lat="41.0616290" lon="-2.6465300">
        <ele>1002.2</ele>
        <time>2020-09-12T10:50:11Z</time>
      </trkpt>
      <trkpt lat="41.0616060" lon="-2.6464820">
        <ele>1002.2</ele>
        <time>2020-09-12T10:50:12Z</time>
      </trkpt>
      <trkpt lat="41.0615820" lon="-2.6464330">
        <ele>1002.4</ele>
        <time>2020-09-12T10:50:13Z</time>
      </trkpt>
      <trkpt lat="41.0615620" lon="-2.6463800">
        <ele>1002.4</ele>
        <time>2020-09-12T10:50:14Z</time>
      </trkpt>
      <trkpt lat="41.0615410" lon="-2.6463250">
        <ele>1002.6</ele>
        <time>2020-09-12T10:50:15Z</time>
      </trkpt>
      <trkpt lat="41.0615190" lon="-2.6462710">
        <ele>1002.8</ele>
        <time>2020-09-12T10:50:16Z</time>
      </trkpt>
      <trkpt lat="41.0614960" lon="-2.6462150">
        <ele>1003.0</ele>
        <time>2020-09-12T10:50:17Z</time>
      </trkpt>
      <trkpt lat="41.0614720" lon="-2.6461590">
        <ele>1003.2</ele>
        <time>2020-09-12T10:50:18Z</time>
      </trkpt>
      <trkpt lat="41.0614470" lon="-2.6461030">
        <ele>1003.4</ele>
        <time>2020-09-12T10:50:19Z</time>
      </trkpt>
      <trkpt lat="41.0614240" lon="-2.6460460">
        <ele>1003.4</ele>
        <time>2020-09-12T10:50:20Z</time>
      </trkpt>
      <trkpt lat="41.0614010" lon="-2.6459880">
        <ele>1003.4</ele>
        <time>2020-09-12T10:50:21Z</time>
      </trkpt>
      <trkpt lat="41.0613780" lon="-2.6459310">
        <ele>1003.6</ele>
        <time>2020-09-12T10:50:22Z</time>
      </trkpt>
      <trkpt lat="41.0613550" lon="-2.6458740">
        <ele>1003.6</ele>
        <time>2020-09-12T10:50:23Z</time>
      </trkpt>
      <trkpt lat="41.0613320" lon="-2.6458170">
        <ele>1003.8</ele>
        <time>2020-09-12T10:50:24Z</time>
      </trkpt>
      <trkpt lat="41.0613090" lon="-2.6457600">
        <ele>1003.8</ele>
        <time>2020-09-12T10:50:25Z</time>
      </trkpt>
      <trkpt lat="41.0612850" lon="-2.6457020">
        <ele>1004.0</ele>
        <time>2020-09-12T10:50:26Z</time>
      </trkpt>
      <trkpt lat="41.0612610" lon="-2.6456460">
        <ele>1004.2</ele>
        <time>2020-09-12T10:50:27Z</time>
      </trkpt>
      <trkpt lat="41.0612370" lon="-2.6455890">
        <ele>1004.2</ele>
        <time>2020-09-12T10:50:28Z</time>
      </trkpt>
      <trkpt lat="41.0612140" lon="-2.6455320">
        <ele>1004.4</ele>
        <time>2020-09-12T10:50:29Z</time>
      </trkpt>
      <trkpt lat="41.0611910" lon="-2.6454740">
        <ele>1004.4</ele>
        <time>2020-09-12T10:50:30Z</time>
      </trkpt>
      <trkpt lat="41.0611670" lon="-2.6454180">
        <ele>1004.4</ele>
        <time>2020-09-12T10:50:31Z</time>
      </trkpt>
      <trkpt lat="41.0611440" lon="-2.6453620">
        <ele>1004.4</ele>
        <time>2020-09-12T10:50:32Z</time>
      </trkpt>
      <trkpt lat="41.0611200" lon="-2.6453050">
        <ele>1004.4</ele>
        <time>2020-09-12T10:50:33Z</time>
      </trkpt>
      <trkpt lat="41.0610980" lon="-2.6452490">
        <ele>1004.4</ele>
        <time>2020-09-12T10:50:34Z</time>
      </trkpt>
      <trkpt lat="41.0610760" lon="-2.6451910">
        <ele>1004.4</ele>
        <time>2020-09-12T10:50:35Z</time>
      </trkpt>
      <trkpt lat="41.0610530" lon="-2.6451340">
        <ele>1004.4</ele>
        <time>2020-09-12T10:50:36Z</time>
      </trkpt>
      <trkpt lat="41.0610290" lon="-2.6450780">
        <ele>1004.4</ele>
        <time>2020-09-12T10:50:37Z</time>
      </trkpt>
      <trkpt lat="41.0610060" lon="-2.6450200">
        <ele>1004.4</ele>
        <time>2020-09-12T10:50:38Z</time>
      </trkpt>
      <trkpt lat="41.0609820" lon="-2.6449630">
        <ele>1004.4</ele>
        <time>2020-09-12T10:50:39Z</time>
      </trkpt>
      <trkpt lat="41.0609580" lon="-2.6449060">
        <ele>1004.4</ele>
        <time>2020-09-12T10:50:40Z</time>
      </trkpt>
      <trkpt lat="41.0609350" lon="-2.6448490">
        <ele>1004.4</ele>
        <time>2020-09-12T10:50:41Z</time>
      </trkpt>
      <trkpt lat="41.0609100" lon="-2.6447920">
        <ele>1004.4</ele>
        <time>2020-09-12T10:50:42Z</time>
      </trkpt>
      <trkpt lat="41.0608870" lon="-2.6447350">
        <ele>1004.4</ele>
        <time>2020-09-12T10:50:43Z</time>
      </trkpt>
      <trkpt lat="41.0608620" lon="-2.6446770">
        <ele>1004.6</ele>
        <time>2020-09-12T10:50:44Z</time>
      </trkpt>
      <trkpt lat="41.0608390" lon="-2.6446210">
        <ele>1004.6</ele>
        <time>2020-09-12T10:50:45Z</time>
      </trkpt>
      <trkpt lat="41.0608130" lon="-2.6445650">
        <ele>1004.6</ele>
        <time>2020-09-12T10:50:46Z</time>
      </trkpt>
      <trkpt lat="41.0607870" lon="-2.6445090">
        <ele>1004.8</ele>
        <time>2020-09-12T10:50:47Z</time>
      </trkpt>
      <trkpt lat="41.0607590" lon="-2.6444540">
        <ele>1004.8</ele>
        <time>2020-09-12T10:50:48Z</time>
      </trkpt>
      <trkpt lat="41.0607300" lon="-2.6444000">
        <ele>1004.8</ele>
        <time>2020-09-12T10:50:49Z</time>
      </trkpt>
      <trkpt lat="41.0606990" lon="-2.6443490">
        <ele>1004.8</ele>
        <time>2020-09-12T10:50:50Z</time>
      </trkpt>
      <trkpt lat="41.0606660" lon="-2.6443000">
        <ele>1005.0</ele>
        <time>2020-09-12T10:50:51Z</time>
      </trkpt>
      <trkpt lat="41.0606330" lon="-2.6442530">
        <ele>1005.2</ele>
        <time>2020-09-12T10:50:52Z</time>
      </trkpt>
      <trkpt lat="41.0605990" lon="-2.6442070">
        <ele>1005.2</ele>
        <time>2020-09-12T10:50:53Z</time>
      </trkpt>
      <trkpt lat="41.0605610" lon="-2.6441660">
        <ele>1005.4</ele>
        <time>2020-09-12T10:50:54Z</time>
      </trkpt>
      <trkpt lat="41.0605210" lon="-2.6441280">
        <ele>1005.4</ele>
        <time>2020-09-12T10:50:55Z</time>
      </trkpt>
      <trkpt lat="41.0604810" lon="-2.6440900">
        <ele>1005.6</ele>
        <time>2020-09-12T10:50:56Z</time>
      </trkpt>
      <trkpt lat="41.0604400" lon="-2.6440530">
        <ele>1005.6</ele>
        <time>2020-09-12T10:50:57Z</time>
      </trkpt>
      <trkpt lat="41.0603980" lon="-2.6440210">
        <ele>1005.6</ele>
        <time>2020-09-12T10:50:58Z</time>
      </trkpt>
      <trkpt lat="41.0603540" lon="-2.6439920">
        <ele>1005.6</ele>
        <time>2020-09-12T10:50:59Z</time>
      </trkpt>
      <trkpt lat="41.0603100" lon="-2.6439630">
        <ele>1005.6</ele>
        <time>2020-09-12T10:51:00Z</time>
      </trkpt>
      <trkpt lat="41.0602660" lon="-2.6439330">
        <ele>1005.6</ele>
        <time>2020-09-12T10:51:01Z</time>
      </trkpt>
      <trkpt lat="41.0602250" lon="-2.6439030">
        <ele>1005.6</ele>
        <time>2020-09-12T10:51:02Z</time>
      </trkpt>
      <trkpt lat="41.0601830" lon="-2.6438720">
        <ele>1005.8</ele>
        <time>2020-09-12T10:51:03Z</time>
      </trkpt>
      <trkpt lat="41.0601400" lon="-2.6438420">
        <ele>1006.0</ele>
        <time>2020-09-12T10:51:04Z</time>
      </trkpt>
      <trkpt lat="41.0600970" lon="-2.6438130">
        <ele>1006.2</ele>
        <time>2020-09-12T10:51:05Z</time>
      </trkpt>
      <trkpt lat="41.0600560" lon="-2.6437840">
        <ele>1006.4</ele>
        <time>2020-09-12T10:51:06Z</time>
      </trkpt>
      <trkpt lat="41.0600150" lon="-2.6437560">
        <ele>1006.8</ele>
        <time>2020-09-12T10:51:07Z</time>
      </trkpt>
      <trkpt lat="41.0599760" lon="-2.6437270">
        <ele>1007.0</ele>
        <time>2020-09-12T10:51:08Z</time>
      </trkpt>
      <trkpt lat="41.0599370" lon="-2.6436990">
        <ele>1007.0</ele>
        <time>2020-09-12T10:51:09Z</time>
      </trkpt>
      <trkpt lat="41.0598980" lon="-2.6436720">
        <ele>1007.2</ele>
        <time>2020-09-12T10:51:10Z</time>
      </trkpt>
      <trkpt lat="41.0598600" lon="-2.6436420">
        <ele>1007.4</ele>
        <time>2020-09-12T10:51:11Z</time>
      </trkpt>
      <trkpt lat="41.0598210" lon="-2.6436150">
        <ele>1007.4</ele>
        <time>2020-09-12T10:51:12Z</time>
      </trkpt>
      <trkpt lat="41.0597820" lon="-2.6435860">
        <ele>1007.4</ele>
        <time>2020-09-12T10:51:13Z</time>
      </trkpt>
      <trkpt lat="41.0597420" lon="-2.6435580">
        <ele>1007.4</ele>
        <time>2020-09-12T10:51:14Z</time>
      </trkpt>
      <trkpt lat="41.0597030" lon="-2.6435280">
        <ele>1007.4</ele>
        <time>2020-09-12T10:51:15Z</time>
      </trkpt>
      <trkpt lat="41.0596630" lon="-2.6435010">
        <ele>1007.6</ele>
        <time>2020-09-12T10:51:16Z</time>
      </trkpt>
      <trkpt lat="41.0596230" lon="-2.6434730">
        <ele>1007.6</ele>
        <time>2020-09-12T10:51:17Z</time>
      </trkpt>
      <trkpt lat="41.0595830" lon="-2.6434480">
        <ele>1007.8</ele>
        <time>2020-09-12T10:51:18Z</time>
      </trkpt>
      <trkpt lat="41.0595440" lon="-2.6434220">
        <ele>1008.0</ele>
        <time>2020-09-12T10:51:19Z</time>
      </trkpt>
      <trkpt lat="41.0595050" lon="-2.6433940">
        <ele>1008.2</ele>
        <time>2020-09-12T10:51:20Z</time>
      </trkpt>
      <trkpt lat="41.0594660" lon="-2.6433680">
        <ele>1008.4</ele>
        <time>2020-09-12T10:51:21Z</time>
      </trkpt>
      <trkpt lat="41.0594280" lon="-2.6433410">
        <ele>1008.4</ele>
        <time>2020-09-12T10:51:22Z</time>
      </trkpt>
      <trkpt lat="41.0593900" lon="-2.6433140">
        <ele>1008.6</ele>
        <time>2020-09-12T10:51:23Z</time>
      </trkpt>
      <trkpt lat="41.0593530" lon="-2.6432890">
        <ele>1008.8</ele>
        <time>2020-09-12T10:51:24Z</time>
      </trkpt>
      <trkpt lat="41.0593160" lon="-2.6432640">
        <ele>1008.8</ele>
        <time>2020-09-12T10:51:25Z</time>
      </trkpt>
      <trkpt lat="41.0592800" lon="-2.6432380">
        <ele>1009.0</ele>
        <time>2020-09-12T10:51:26Z</time>
      </trkpt>
      <trkpt lat="41.0592440" lon="-2.6432130">
        <ele>1009.2</ele>
        <time>2020-09-12T10:51:27Z</time>
      </trkpt>
      <trkpt lat="41.0592090" lon="-2.6431880">
        <ele>1009.4</ele>
        <time>2020-09-12T10:51:28Z</time>
      </trkpt>
      <trkpt lat="41.0591740" lon="-2.6431650">
        <ele>1009.6</ele>
        <time>2020-09-12T10:51:29Z</time>
      </trkpt>
      <trkpt lat="41.0591380" lon="-2.6431420">
        <ele>1009.6</ele>
        <time>2020-09-12T10:51:30Z</time>
      </trkpt>
      <trkpt lat="41.0591030" lon="-2.6431180">
        <ele>1009.8</ele>
        <time>2020-09-12T10:51:31Z</time>
      </trkpt>
      <trkpt lat="41.0590700" lon="-2.6430930">
        <ele>1010.0</ele>
        <time>2020-09-12T10:51:32Z</time>
      </trkpt>
      <trkpt lat="41.0590360" lon="-2.6430680">
        <ele>1010.2</ele>
        <time>2020-09-12T10:51:33Z</time>
      </trkpt>
      <trkpt lat="41.0590010" lon="-2.6430440">
        <ele>1010.4</ele>
        <time>2020-09-12T10:51:34Z</time>
      </trkpt>
      <trkpt lat="41.0589670" lon="-2.6430180">
        <ele>1010.6</ele>
        <time>2020-09-12T10:51:35Z</time>
      </trkpt>
      <trkpt lat="41.0589320" lon="-2.6429930">
        <ele>1010.8</ele>
        <time>2020-09-12T10:51:36Z</time>
      </trkpt>
      <trkpt lat="41.0588960" lon="-2.6429690">
        <ele>1011.2</ele>
        <time>2020-09-12T10:51:37Z</time>
      </trkpt>
      <trkpt lat="41.0588610" lon="-2.6429440">
        <ele>1011.6</ele>
        <time>2020-09-12T10:51:38Z</time>
      </trkpt>
      <trkpt lat="41.0588270" lon="-2.6429190">
        <ele>1011.6</ele>
        <time>2020-09-12T10:51:39Z</time>
      </trkpt>
      <trkpt lat="41.0587930" lon="-2.6428950">
        <ele>1011.8</ele>
        <time>2020-09-12T10:51:40Z</time>
      </trkpt>
      <trkpt lat="41.0587580" lon="-2.6428710">
        <ele>1012.0</ele>
        <time>2020-09-12T10:51:41Z</time>
      </trkpt>
      <trkpt lat="41.0587240" lon="-2.6428460">
        <ele>1012.2</ele>
        <time>2020-09-12T10:51:42Z</time>
      </trkpt>
      <trkpt lat="41.0586900" lon="-2.6428220">
        <ele>1012.2</ele>
        <time>2020-09-12T10:51:43Z</time>
      </trkpt>
      <trkpt lat="41.0586560" lon="-2.6427970">
        <ele>1012.4</ele>
        <time>2020-09-12T10:51:44Z</time>
      </trkpt>
      <trkpt lat="41.0586230" lon="-2.6427710">
        <ele>1012.6</ele>
        <time>2020-09-12T10:51:45Z</time>
      </trkpt>
      <trkpt lat="41.0585890" lon="-2.6427440">
        <ele>1012.8</ele>
        <time>2020-09-12T10:51:46Z</time>
      </trkpt>
      <trkpt lat="41.0585550" lon="-2.6427180">
        <ele>1013.2</ele>
        <time>2020-09-12T10:51:47Z</time>
      </trkpt>
      <trkpt lat="41.0585200" lon="-2.6426930">
        <ele>1013.4</ele>
        <time>2020-09-12T10:51:48Z</time>
      </trkpt>
      <trkpt lat="41.0584850" lon="-2.6426690">
        <ele>1013.6</ele>
        <time>2020-09-12T10:51:49Z</time>
      </trkpt>
      <trkpt lat="41.0584510" lon="-2.6426430">
        <ele>1013.8</ele>
        <time>2020-09-12T10:51:50Z</time>
      </trkpt>
      <trkpt lat="41.0584150" lon="-2.6426180">
        <ele>1014.0</ele>
        <time>2020-09-12T10:51:51Z</time>
      </trkpt>
      <trkpt lat="41.0583800" lon="-2.6425930">
        <ele>1014.2</ele>
        <time>2020-09-12T10:51:52Z</time>
      </trkpt>
      <trkpt lat="41.0583450" lon="-2.6425670">
        <ele>1014.4</ele>
        <time>2020-09-12T10:51:53Z</time>
      </trkpt>
      <trkpt lat="41.0583090" lon="-2.6425400">
        <ele>1014.6</ele>
        <time>2020-09-12T10:51:54Z</time>
      </trkpt>
      <trkpt lat="41.0582740" lon="-2.6425140">
        <ele>1014.8</ele>
        <time>2020-09-12T10:51:55Z</time>
      </trkpt>
      <trkpt lat="41.0582380" lon="-2.6424880">
        <ele>1015.0</ele>
        <time>2020-09-12T10:51:56Z</time>
      </trkpt>
      <trkpt lat="41.0582010" lon="-2.6424630">
        <ele>1015.2</ele>
        <time>2020-09-12T10:51:57Z</time>
      </trkpt>
      <trkpt lat="41.0581650" lon="-2.6424380">
        <ele>1015.6</ele>
        <time>2020-09-12T10:51:58Z</time>
      </trkpt>
      <trkpt lat="41.0581280" lon="-2.6424130">
        <ele>1015.8</ele>
        <time>2020-09-12T10:51:59Z</time>
      </trkpt>
      <trkpt lat="41.0580910" lon="-2.6423910">
        <ele>1016.0</ele>
        <time>2020-09-12T10:52:00Z</time>
      </trkpt>
      <trkpt lat="41.0580530" lon="-2.6423700">
        <ele>1016.2</ele>
        <time>2020-09-12T10:52:01Z</time>
      </trkpt>
      <trkpt lat="41.0580150" lon="-2.6423500">
        <ele>1016.4</ele>
        <time>2020-09-12T10:52:02Z</time>
      </trkpt>
      <trkpt lat="41.0579780" lon="-2.6423310">
        <ele>1016.6</ele>
        <time>2020-09-12T10:52:03Z</time>
      </trkpt>
      <trkpt lat="41.0579380" lon="-2.6423140">
        <ele>1016.8</ele>
        <time>2020-09-12T10:52:04Z</time>
      </trkpt>
      <trkpt lat="41.0578990" lon="-2.6422990">
        <ele>1017.0</ele>
        <time>2020-09-12T10:52:05Z</time>
      </trkpt>
      <trkpt lat="41.0578580" lon="-2.6422840">
        <ele>1017.2</ele>
        <time>2020-09-12T10:52:06Z</time>
      </trkpt>
      <trkpt lat="41.0578180" lon="-2.6422690">
        <ele>1017.4</ele>
        <time>2020-09-12T10:52:07Z</time>
      </trkpt>
      <trkpt lat="41.0577780" lon="-2.6422530">
        <ele>1017.8</ele>
        <time>2020-09-12T10:52:08Z</time>
      </trkpt>
      <trkpt lat="41.0577400" lon="-2.6422400">
        <ele>1018.0</ele>
        <time>2020-09-12T10:52:09Z</time>
      </trkpt>
      <trkpt lat="41.0577010" lon="-2.6422260">
        <ele>1018.2</ele>
        <time>2020-09-12T10:52:10Z</time>
      </trkpt>
      <trkpt lat="41.0576640" lon="-2.6422130">
        <ele>1018.4</ele>
        <time>2020-09-12T10:52:11Z</time>
      </trkpt>
      <trkpt lat="41.0576250" lon="-2.6422020">
        <ele>1018.8</ele>
        <time>2020-09-12T10:52:12Z</time>
      </trkpt>
      <trkpt lat="41.0575860" lon="-2.6421910">
        <ele>1019.0</ele>
        <time>2020-09-12T10:52:13Z</time>
      </trkpt>
      <trkpt lat="41.0575460" lon="-2.6421800">
        <ele>1019.2</ele>
        <time>2020-09-12T10:52:14Z</time>
      </trkpt>
      <trkpt lat="41.0575060" lon="-2.6421680">
        <ele>1019.4</ele>
        <time>2020-09-12T10:52:15Z</time>
      </trkpt>
      <trkpt lat="41.0574660" lon="-2.6421570">
        <ele>1019.6</ele>
        <time>2020-09-12T10:52:16Z</time>
      </trkpt>
      <trkpt lat="41.0574260" lon="-2.6421460">
        <ele>1019.8</ele>
        <time>2020-09-12T10:52:17Z</time>
      </trkpt>
      <trkpt lat="41.0573870" lon="-2.6421340">
        <ele>1020.0</ele>
        <time>2020-09-12T10:52:18Z</time>
      </trkpt>
      <trkpt lat="41.0573490" lon="-2.6421200">
        <ele>1020.4</ele>
        <time>2020-09-12T10:52:19Z</time>
      </trkpt>
      <trkpt lat="41.0573090" lon="-2.6421070">
        <ele>1020.6</ele>
        <time>2020-09-12T10:52:20Z</time>
      </trkpt>
      <trkpt lat="41.0572710" lon="-2.6420950">
        <ele>1020.8</ele>
        <time>2020-09-12T10:52:21Z</time>
      </trkpt>
      <trkpt lat="41.0572320" lon="-2.6420840">
        <ele>1021.0</ele>
        <time>2020-09-12T10:52:22Z</time>
      </trkpt>
      <trkpt lat="41.0571930" lon="-2.6420730">
        <ele>1021.2</ele>
        <time>2020-09-12T10:52:23Z</time>
      </trkpt>
      <trkpt lat="41.0571550" lon="-2.6420610">
        <ele>1021.2</ele>
        <time>2020-09-12T10:52:24Z</time>
      </trkpt>
      <trkpt lat="41.0571150" lon="-2.6420520">
        <ele>1021.4</ele>
        <time>2020-09-12T10:52:25Z</time>
      </trkpt>
      <trkpt lat="41.0570750" lon="-2.6420410">
        <ele>1021.4</ele>
        <time>2020-09-12T10:52:26Z</time>
      </trkpt>
      <trkpt lat="41.0570350" lon="-2.6420290">
        <ele>1021.6</ele>
        <time>2020-09-12T10:52:27Z</time>
      </trkpt>
      <trkpt lat="41.0569940" lon="-2.6420190">
        <ele>1021.8</ele>
        <time>2020-09-12T10:52:28Z</time>
      </trkpt>
      <trkpt lat="41.0569520" lon="-2.6420080">
        <ele>1022.0</ele>
        <time>2020-09-12T10:52:29Z</time>
      </trkpt>
      <trkpt lat="41.0569100" lon="-2.6419960">
        <ele>1022.2</ele>
        <time>2020-09-12T10:52:30Z</time>
      </trkpt>
      <trkpt lat="41.0568680" lon="-2.6419840">
        <ele>1022.2</ele>
        <time>2020-09-12T10:52:31Z</time>
      </trkpt>
      <trkpt lat="41.0568260" lon="-2.6419720">
        <ele>1022.4</ele>
        <time>2020-09-12T10:52:32Z</time>
      </trkpt>
      <trkpt lat="41.0567830" lon="-2.6419600">
        <ele>1022.8</ele>
        <time>2020-09-12T10:52:33Z</time>
      </trkpt>
      <trkpt lat="41.0567400" lon="-2.6419480">
        <ele>1023.2</ele>
        <time>2020-09-12T10:52:34Z</time>
      </trkpt>
      <trkpt lat="41.0566970" lon="-2.6419340">
        <ele>1023.4</ele>
        <time>2020-09-12T10:52:35Z</time>
      </trkpt>
      <trkpt lat="41.0566540" lon="-2.6419210">
        <ele>1023.6</ele>
        <time>2020-09-12T10:52:36Z</time>
      </trkpt>
      <trkpt lat="41.0566110" lon="-2.6419080">
        <ele>1023.8</ele>
        <time>2020-09-12T10:52:37Z</time>
      </trkpt>
      <trkpt lat="41.0565690" lon="-2.6418950">
        <ele>1024.0</ele>
        <time>2020-09-12T10:52:38Z</time>
      </trkpt>
      <trkpt lat="41.0565260" lon="-2.6418820">
        <ele>1024.2</ele>
        <time>2020-09-12T10:52:39Z</time>
      </trkpt>
      <trkpt lat="41.0564840" lon="-2.6418680">
        <ele>1024.6</ele>
        <time>2020-09-12T10:52:40Z</time>
      </trkpt>
      <trkpt lat="41.0564420" lon="-2.6418550">
        <ele>1025.2</ele>
        <time>2020-09-12T10:52:41Z</time>
      </trkpt>
      <trkpt lat="41.0564000" lon="-2.6418440">
        <ele>1025.8</ele>
        <time>2020-09-12T10:52:42Z</time>
      </trkpt>
      <trkpt lat="41.0563570" lon="-2.6418320">
        <ele>1026.4</ele>
        <time>2020-09-12T10:52:43Z</time>
      </trkpt>
      <trkpt lat="41.0563150" lon="-2.6418200">
        <ele>1026.8</ele>
        <time>2020-09-12T10:52:44Z</time>
      </trkpt>
      <trkpt lat="41.0562730" lon="-2.6418090">
        <ele>1027.0</ele>
        <time>2020-09-12T10:52:45Z</time>
      </trkpt>
      <trkpt lat="41.0562310" lon="-2.6417970">
        <ele>1027.2</ele>
        <time>2020-09-12T10:52:46Z</time>
      </trkpt>
      <trkpt lat="41.0561900" lon="-2.6417860">
        <ele>1027.2</ele>
        <time>2020-09-12T10:52:47Z</time>
      </trkpt>
      <trkpt lat="41.0561490" lon="-2.6417720">
        <ele>1027.2</ele>
        <time>2020-09-12T10:52:48Z</time>
      </trkpt>
      <trkpt lat="41.0561070" lon="-2.6417610">
        <ele>1026.8</ele>
        <time>2020-09-12T10:52:49Z</time>
      </trkpt>
      <trkpt lat="41.0560660" lon="-2.6417500">
        <ele>1026.6</ele>
        <time>2020-09-12T10:52:50Z</time>
      </trkpt>
      <trkpt lat="41.0560240" lon="-2.6417370">
        <ele>1026.6</ele>
        <time>2020-09-12T10:52:51Z</time>
      </trkpt>
      <trkpt lat="41.0559820" lon="-2.6417260">
        <ele>1026.4</ele>
        <time>2020-09-12T10:52:52Z</time>
      </trkpt>
      <trkpt lat="41.0559390" lon="-2.6417150">
        <ele>1026.4</ele>
        <time>2020-09-12T10:52:53Z</time>
      </trkpt>
      <trkpt lat="41.0558950" lon="-2.6417040">
        <ele>1026.6</ele>
        <time>2020-09-12T10:52:54Z</time>
      </trkpt>
      <trkpt lat="41.0558510" lon="-2.6416930">
        <ele>1026.6</ele>
        <time>2020-09-12T10:52:55Z</time>
      </trkpt>
      <trkpt lat="41.0558080" lon="-2.6416810">
        <ele>1026.6</ele>
        <time>2020-09-12T10:52:56Z</time>
      </trkpt>
      <trkpt lat="41.0557650" lon="-2.6416660">
        <ele>1026.8</ele>
        <time>2020-09-12T10:52:57Z</time>
      </trkpt>
      <trkpt lat="41.0557220" lon="-2.6416540">
        <ele>1027.0</ele>
        <time>2020-09-12T10:52:58Z</time>
      </trkpt>
      <trkpt lat="41.0556790" lon="-2.6416400">
        <ele>1027.2</ele>
        <time>2020-09-12T10:52:59Z</time>
      </trkpt>
      <trkpt lat="41.0556360" lon="-2.6416270">
        <ele>1027.2</ele>
        <time>2020-09-12T10:53:00Z</time>
      </trkpt>
      <trkpt lat="41.0555920" lon="-2.6416150">
        <ele>1027.2</ele>
        <time>2020-09-12T10:53:01Z</time>
      </trkpt>
      <trkpt lat="41.0555480" lon="-2.6416020">
        <ele>1027.4</ele>
        <time>2020-09-12T10:53:02Z</time>
      </trkpt>
      <trkpt lat="41.0555040" lon="-2.6415880">
        <ele>1027.4</ele>
        <time>2020-09-12T10:53:03Z</time>
      </trkpt>
      <trkpt lat="41.0554610" lon="-2.6415740">
        <ele>1027.4</ele>
        <time>2020-09-12T10:53:04Z</time>
      </trkpt>
      <trkpt lat="41.0554150" lon="-2.6415620">
        <ele>1027.4</ele>
        <time>2020-09-12T10:53:05Z</time>
      </trkpt>
      <trkpt lat="41.0553710" lon="-2.6415500">
        <ele>1027.4</ele>
        <time>2020-09-12T10:53:06Z</time>
      </trkpt>
      <trkpt lat="41.0553270" lon="-2.6415390">
        <ele>1027.6</ele>
        <time>2020-09-12T10:53:07Z</time>
      </trkpt>
      <trkpt lat="41.0552810" lon="-2.6415300">
        <ele>1027.8</ele>
        <time>2020-09-12T10:53:08Z</time>
      </trkpt>
      <trkpt lat="41.0552360" lon="-2.6415180">
        <ele>1027.8</ele>
        <time>2020-09-12T10:53:09Z</time>
      </trkpt>
      <trkpt lat="41.0551900" lon="-2.6415040">
        <ele>1028.0</ele>
        <time>2020-09-12T10:53:10Z</time>
      </trkpt>
      <trkpt lat="41.0551450" lon="-2.6414900">
        <ele>1028.0</ele>
        <time>2020-09-12T10:53:11Z</time>
      </trkpt>
      <trkpt lat="41.0550980" lon="-2.6414770">
        <ele>1028.2</ele>
        <time>2020-09-12T10:53:12Z</time>
      </trkpt>
      <trkpt lat="41.0550520" lon="-2.6414640">
        <ele>1028.2</ele>
        <time>2020-09-12T10:53:13Z</time>
      </trkpt>
      <trkpt lat="41.0550050" lon="-2.6414530">
        <ele>1028.2</ele>
        <time>2020-09-12T10:53:14Z</time>
      </trkpt>
      <trkpt lat="41.0549590" lon="-2.6414400">
        <ele>1028.2</ele>
        <time>2020-09-12T10:53:15Z</time>
      </trkpt>
      <trkpt lat="41.0549130" lon="-2.6414270">
        <ele>1028.4</ele>
        <time>2020-09-12T10:53:16Z</time>
      </trkpt>
      <trkpt lat="41.0548670" lon="-2.6414160">
        <ele>1028.4</ele>
        <time>2020-09-12T10:53:17Z</time>
      </trkpt>
      <trkpt lat="41.0548210" lon="-2.6414040">
        <ele>1028.6</ele>
        <time>2020-09-12T10:53:18Z</time>
      </trkpt>
      <trkpt lat="41.0547760" lon="-2.6413910">
        <ele>1028.8</ele>
        <time>2020-09-12T10:53:19Z</time>
      </trkpt>
      <trkpt lat="41.0547310" lon="-2.6413790">
        <ele>1029.0</ele>
        <time>2020-09-12T10:53:20Z</time>
      </trkpt>
      <trkpt lat="41.0546860" lon="-2.6413670">
        <ele>1029.0</ele>
        <time>2020-09-12T10:53:21Z</time>
      </trkpt>
      <trkpt lat="41.0546420" lon="-2.6413550">
        <ele>1029.2</ele>
        <time>2020-09-12T10:53:22Z</time>
      </trkpt>
      <trkpt lat="41.0545990" lon="-2.6413420">
        <ele>1029.2</ele>
        <time>2020-09-12T10:53:23Z</time>
      </trkpt>
      <trkpt lat="41.0545560" lon="-2.6413300">
        <ele>1029.4</ele>
        <time>2020-09-12T10:53:24Z</time>
      </trkpt>
      <trkpt lat="41.0545130" lon="-2.6413180">
        <ele>1029.6</ele>
        <time>2020-09-12T10:53:25Z</time>
      </trkpt>
      <trkpt lat="41.0544700" lon="-2.6413060">
        <ele>1029.6</ele>
        <time>2020-09-12T10:53:26Z</time>
      </trkpt>
      <trkpt lat="41.0544260" lon="-2.6412940">
        <ele>1029.8</ele>
        <time>2020-09-12T10:53:27Z</time>
      </trkpt>
      <trkpt lat="41.0543830" lon="-2.6412820">
        <ele>1030.0</ele>
        <time>2020-09-12T10:53:28Z</time>
      </trkpt>
      <trkpt lat="41.0543400" lon="-2.6412700">
        <ele>1030.0</ele>
        <time>2020-09-12T10:53:29Z</time>
      </trkpt>
      <trkpt lat="41.0542970" lon="-2.6412590">
        <ele>1030.2</ele>
        <time>2020-09-12T10:53:30Z</time>
      </trkpt>
      <trkpt lat="41.0542530" lon="-2.6412480">
        <ele>1030.4</ele>
        <time>2020-09-12T10:53:31Z</time>
      </trkpt>
      <trkpt lat="41.0542090" lon="-2.6412340">
        <ele>1030.6</ele>
        <time>2020-09-12T10:53:32Z</time>
      </trkpt>
      <trkpt lat="41.0541650" lon="-2.6412200">
        <ele>1031.0</ele>
        <time>2020-09-12T10:53:33Z</time>
      </trkpt>
      <trkpt lat="41.0541190" lon="-2.6412070">
        <ele>1031.2</ele>
        <time>2020-09-12T10:53:34Z</time>
      </trkpt>
      <trkpt lat="41.0540750" lon="-2.6411950">
        <ele>1031.2</ele>
        <time>2020-09-12T10:53:35Z</time>
      </trkpt>
      <trkpt lat="41.0540310" lon="-2.6411840">
        <ele>1031.4</ele>
        <time>2020-09-12T10:53:36Z</time>
      </trkpt>
      <trkpt lat="41.0539880" lon="-2.6411710">
        <ele>1031.4</ele>
        <time>2020-09-12T10:53:37Z</time>
      </trkpt>
      <trkpt lat="41.0539450" lon="-2.6411590">
        <ele>1031.6</ele>
        <time>2020-09-12T10:53:38Z</time>
      </trkpt>
      <trkpt lat="41.0539030" lon="-2.6411450">
        <ele>1031.6</ele>
        <time>2020-09-12T10:53:39Z</time>
      </trkpt>
      <trkpt lat="41.0538610" lon="-2.6411330">
        <ele>1031.8</ele>
        <time>2020-09-12T10:53:40Z</time>
      </trkpt>
      <trkpt lat="41.0538190" lon="-2.6411200">
        <ele>1031.8</ele>
        <time>2020-09-12T10:53:41Z</time>
      </trkpt>
      <trkpt lat="41.0537760" lon="-2.6411060">
        <ele>1032.0</ele>
        <time>2020-09-12T10:53:42Z</time>
      </trkpt>
      <trkpt lat="41.0537330" lon="-2.6410950">
        <ele>1032.2</ele>
        <time>2020-09-12T10:53:43Z</time>
      </trkpt>
      <trkpt lat="41.0536910" lon="-2.6410830">
        <ele>1032.4</ele>
        <time>2020-09-12T10:53:44Z</time>
      </trkpt>
      <trkpt lat="41.0536490" lon="-2.6410710">
        <ele>1032.8</ele>
        <time>2020-09-12T10:53:45Z</time>
      </trkpt>
      <trkpt lat="41.0536070" lon="-2.6410590">
        <ele>1033.0</ele>
        <time>2020-09-12T10:53:46Z</time>
      </trkpt>
      <trkpt lat="41.0535660" lon="-2.6410480">
        <ele>1033.4</ele>
        <time>2020-09-12T10:53:47Z</time>
      </trkpt>
      <trkpt lat="41.0535250" lon="-2.6410360">
        <ele>1033.6</ele>
        <time>2020-09-12T10:53:48Z</time>
      </trkpt>
      <trkpt lat="41.0534840" lon="-2.6410240">
        <ele>1033.6</ele>
        <time>2020-09-12T10:53:49Z</time>
      </trkpt>
      <trkpt lat="41.0534430" lon="-2.6410120">
        <ele>1033.8</ele>
        <time>2020-09-12T10:53:50Z</time>
      </trkpt>
      <trkpt lat="41.0534030" lon="-2.6410000">
        <ele>1033.8</ele>
        <time>2020-09-12T10:53:51Z</time>
      </trkpt>
      <trkpt lat="41.0533620" lon="-2.6409890">
        <ele>1034.0</ele>
        <time>2020-09-12T10:53:52Z</time>
      </trkpt>
      <trkpt lat="41.0533220" lon="-2.6409780">
        <ele>1034.2</ele>
        <time>2020-09-12T10:53:53Z</time>
      </trkpt>
      <trkpt lat="41.0532810" lon="-2.6409660">
        <ele>1034.2</ele>
        <time>2020-09-12T10:53:54Z</time>
      </trkpt>
      <trkpt lat="41.0532400" lon="-2.6409550">
        <ele>1034.2</ele>
        <time>2020-09-12T10:53:55Z</time>
      </trkpt>
      <trkpt lat="41.0531980" lon="-2.6409450">
        <ele>1034.4</ele>
        <time>2020-09-12T10:53:56Z</time>
      </trkpt>
      <trkpt lat="41.0531560" lon="-2.6409360">
        <ele>1034.6</ele>
        <time>2020-09-12T10:53:57Z</time>
      </trkpt>
      <trkpt lat="41.0531130" lon="-2.6409250">
        <ele>1034.8</ele>
        <time>2020-09-12T10:53:58Z</time>
      </trkpt>
      <trkpt lat="41.0530710" lon="-2.6409130">
        <ele>1035.0</ele>
        <time>2020-09-12T10:53:59Z</time>
      </trkpt>
      <trkpt lat="41.0530290" lon="-2.6409000">
        <ele>1035.2</ele>
        <time>2020-09-12T10:54:00Z</time>
      </trkpt>
      <trkpt lat="41.0529860" lon="-2.6408860">
        <ele>1035.4</ele>
        <time>2020-09-12T10:54:01Z</time>
      </trkpt>
      <trkpt lat="41.0529430" lon="-2.6408730">
        <ele>1035.6</ele>
        <time>2020-09-12T10:54:02Z</time>
      </trkpt>
      <trkpt lat="41.0529000" lon="-2.6408610">
        <ele>1035.6</ele>
        <time>2020-09-12T10:54:03Z</time>
      </trkpt>
      <trkpt lat="41.0528570" lon="-2.6408460">
        <ele>1035.8</ele>
        <time>2020-09-12T10:54:04Z</time>
      </trkpt>
      <trkpt lat="41.0528150" lon="-2.6408300">
        <ele>1035.8</ele>
        <time>2020-09-12T10:54:05Z</time>
      </trkpt>
      <trkpt lat="41.0527730" lon="-2.6408150">
        <ele>1035.8</ele>
        <time>2020-09-12T10:54:06Z</time>
      </trkpt>
      <trkpt lat="41.0527320" lon="-2.6407970">
        <ele>1036.0</ele>
        <time>2020-09-12T10:54:07Z</time>
      </trkpt>
      <trkpt lat="41.0526910" lon="-2.6407780">
        <ele>1036.2</ele>
        <time>2020-09-12T10:54:08Z</time>
      </trkpt>
      <trkpt lat="41.0526500" lon="-2.6407570">
        <ele>1036.6</ele>
        <time>2020-09-12T10:54:09Z</time>
      </trkpt>
      <trkpt lat="41.0526100" lon="-2.6407340">
        <ele>1036.8</ele>
        <time>2020-09-12T10:54:10Z</time>
      </trkpt>
      <trkpt lat="41.0525720" lon="-2.6407110">
        <ele>1036.8</ele>
        <time>2020-09-12T10:54:11Z</time>
      </trkpt>
      <trkpt lat="41.0525350" lon="-2.6406850">
        <ele>1037.0</ele>
        <time>2020-09-12T10:54:12Z</time>
      </trkpt>
      <trkpt lat="41.0524980" lon="-2.6406590">
        <ele>1037.2</ele>
        <time>2020-09-12T10:54:13Z</time>
      </trkpt>
      <trkpt lat="41.0524610" lon="-2.6406320">
        <ele>1037.4</ele>
        <time>2020-09-12T10:54:14Z</time>
      </trkpt>
      <trkpt lat="41.0524240" lon="-2.6406050">
        <ele>1037.6</ele>
        <time>2020-09-12T10:54:15Z</time>
      </trkpt>
      <trkpt lat="41.0523880" lon="-2.6405770">
        <ele>1037.8</ele>
        <time>2020-09-12T10:54:16Z</time>
      </trkpt>
      <trkpt lat="41.0523520" lon="-2.6405470">
        <ele>1038.2</ele>
        <time>2020-09-12T10:54:17Z</time>
      </trkpt>
      <trkpt lat="41.0523180" lon="-2.6405120">
        <ele>1038.4</ele>
        <time>2020-09-12T10:54:18Z</time>
      </trkpt>
      <trkpt lat="41.0522850" lon="-2.6404770">
        <ele>1038.6</ele>
        <time>2020-09-12T10:54:19Z</time>
      </trkpt>
      <trkpt lat="41.0522510" lon="-2.6404390">
        <ele>1038.8</ele>
        <time>2020-09-12T10:54:20Z</time>
      </trkpt>
      <trkpt lat="41.0522190" lon="-2.6404000">
        <ele>1039.0</ele>
        <time>2020-09-12T10:54:21Z</time>
      </trkpt>
      <trkpt lat="41.0521880" lon="-2.6403590">
        <ele>1039.2</ele>
        <time>2020-09-12T10:54:22Z</time>
      </trkpt>
      <trkpt lat="41.0521580" lon="-2.6403170">
        <ele>1039.4</ele>
        <time>2020-09-12T10:54:23Z</time>
      </trkpt>
      <trkpt lat="41.0521300" lon="-2.6402730">
        <ele>1039.6</ele>
        <time>2020-09-12T10:54:24Z</time>
      </trkpt>
      <trkpt lat="41.0521020" lon="-2.6402290">
        <ele>1039.8</ele>
        <time>2020-09-12T10:54:25Z</time>
      </trkpt>
      <trkpt lat="41.0520760" lon="-2.6401840">
        <ele>1040.0</ele>
        <time>2020-09-12T10:54:26Z</time>
      </trkpt>
      <trkpt lat="41.0520510" lon="-2.6401370">
        <ele>1040.2</ele>
        <time>2020-09-12T10:54:27Z</time>
      </trkpt>
      <trkpt lat="41.0520270" lon="-2.6400900">
        <ele>1040.4</ele>
        <time>2020-09-12T10:54:28Z</time>
      </trkpt>
      <trkpt lat="41.0520040" lon="-2.6400410">
        <ele>1040.6</ele>
        <time>2020-09-12T10:54:29Z</time>
      </trkpt>
      <trkpt lat="41.0519830" lon="-2.6399920">
        <ele>1040.8</ele>
        <time>2020-09-12T10:54:30Z</time>
      </trkpt>
      <trkpt lat="41.0519610" lon="-2.6399420">
        <ele>1041.0</ele>
        <time>2020-09-12T10:54:31Z</time>
      </trkpt>
      <trkpt lat="41.0519400" lon="-2.6398910">
        <ele>1041.2</ele>
        <time>2020-09-12T10:54:32Z</time>
      </trkpt>
      <trkpt lat="41.0519200" lon="-2.6398380">
        <ele>1041.4</ele>
        <time>2020-09-12T10:54:33Z</time>
      </trkpt>
      <trkpt lat="41.0519000" lon="-2.6397850">
        <ele>1041.6</ele>
        <time>2020-09-12T10:54:34Z</time>
      </trkpt>
      <trkpt lat="41.0518820" lon="-2.6397310">
        <ele>1042.0</ele>
        <time>2020-09-12T10:54:35Z</time>
      </trkpt>
      <trkpt lat="41.0518640" lon="-2.6396740">
        <ele>1042.2</ele>
        <time>2020-09-12T10:54:36Z</time>
      </trkpt>
      <trkpt lat="41.0518490" lon="-2.6396150">
        <ele>1042.4</ele>
        <time>2020-09-12T10:54:37Z</time>
      </trkpt>
      <trkpt lat="41.0518340" lon="-2.6395570">
        <ele>1042.6</ele>
        <time>2020-09-12T10:54:38Z</time>
      </trkpt>
      <trkpt lat="41.0518220" lon="-2.6395000">
        <ele>1042.6</ele>
        <time>2020-09-12T10:54:39Z</time>
      </trkpt>
      <trkpt lat="41.0518120" lon="-2.6394420">
        <ele>1042.8</ele>
        <time>2020-09-12T10:54:40Z</time>
      </trkpt>
      <trkpt lat="41.0518030" lon="-2.6393830">
        <ele>1043.0</ele>
        <time>2020-09-12T10:54:41Z</time>
      </trkpt>
      <trkpt lat="41.0517960" lon="-2.6393250">
        <ele>1043.2</ele>
        <time>2020-09-12T10:54:42Z</time>
      </trkpt>
      <trkpt lat="41.0517890" lon="-2.6392660">
        <ele>1043.4</ele>
        <time>2020-09-12T10:54:43Z</time>
      </trkpt>
      <trkpt lat="41.0517820" lon="-2.6392050">
        <ele>1043.6</ele>
        <time>2020-09-12T10:54:44Z</time>
      </trkpt>
      <trkpt lat="41.0517750" lon="-2.6391450">
        <ele>1043.8</ele>
        <time>2020-09-12T10:54:45Z</time>
      </trkpt>
      <trkpt lat="41.0517690" lon="-2.6390840">
        <ele>1043.8</ele>
        <time>2020-09-12T10:54:46Z</time>
      </trkpt>
      <trkpt lat="41.0517630" lon="-2.6390230">
        <ele>1043.8</ele>
        <time>2020-09-12T10:54:47Z</time>
      </trkpt>
      <trkpt lat="41.0517580" lon="-2.6389610">
        <ele>1043.8</ele>
        <time>2020-09-12T10:54:48Z</time>
      </trkpt>
      <trkpt lat="41.0517520" lon="-2.6388990">
        <ele>1043.8</ele>
        <time>2020-09-12T10:54:49Z</time>
      </trkpt>
      <trkpt lat="41.0517460" lon="-2.6388380">
        <ele>1044.0</ele>
        <time>2020-09-12T10:54:50Z</time>
      </trkpt>
      <trkpt lat="41.0517410" lon="-2.6387760">
        <ele>1044.4</ele>
        <time>2020-09-12T10:54:51Z</time>
      </trkpt>
      <trkpt lat="41.0517350" lon="-2.6387110">
        <ele>1044.6</ele>
        <time>2020-09-12T10:54:52Z</time>
      </trkpt>
      <trkpt lat="41.0517290" lon="-2.6386480">
        <ele>1044.6</ele>
        <time>2020-09-12T10:54:53Z</time>
      </trkpt>
      <trkpt lat="41.0517250" lon="-2.6385870">
        <ele>1044.8</ele>
        <time>2020-09-12T10:54:54Z</time>
      </trkpt>
      <trkpt lat="41.0517200" lon="-2.6385240">
        <ele>1044.8</ele>
        <time>2020-09-12T10:54:55Z</time>
      </trkpt>
      <trkpt lat="41.0517150" lon="-2.6384580">
        <ele>1044.8</ele>
        <time>2020-09-12T10:54:56Z</time>
      </trkpt>
      <trkpt lat="41.0517100" lon="-2.6383940">
        <ele>1044.8</ele>
        <time>2020-09-12T10:54:57Z</time>
      </trkpt>
      <trkpt lat="41.0517060" lon="-2.6383300">
        <ele>1044.8</ele>
        <time>2020-09-12T10:54:58Z</time>
      </trkpt>
      <trkpt lat="41.0517000" lon="-2.6382650">
        <ele>1044.8</ele>
        <time>2020-09-12T10:54:59Z</time>
      </trkpt>
      <trkpt lat="41.0516950" lon="-2.6382000">
        <ele>1045.0</ele>
        <time>2020-09-12T10:55:00Z</time>
      </trkpt>
      <trkpt lat="41.0516890" lon="-2.6381360">
        <ele>1045.2</ele>
        <time>2020-09-12T10:55:01Z</time>
      </trkpt>
      <trkpt lat="41.0516840" lon="-2.6380730">
        <ele>1045.4</ele>
        <time>2020-09-12T10:55:02Z</time>
      </trkpt>
      <trkpt lat="41.0516780" lon="-2.6380110">
        <ele>1045.6</ele>
        <time>2020-09-12T10:55:03Z</time>
      </trkpt>
      <trkpt lat="41.0516720" lon="-2.6379490">
        <ele>1046.0</ele>
        <time>2020-09-12T10:55:04Z</time>
      </trkpt>
      <trkpt lat="41.0516670" lon="-2.6378860">
        <ele>1046.2</ele>
        <time>2020-09-12T10:55:05Z</time>
      </trkpt>
      <trkpt lat="41.0516620" lon="-2.6378240">
        <ele>1046.4</ele>
        <time>2020-09-12T10:55:06Z</time>
      </trkpt>
      <trkpt lat="41.0516570" lon="-2.6377620">
        <ele>1046.6</ele>
        <time>2020-09-12T10:55:07Z</time>
      </trkpt>
      <trkpt lat="41.0516520" lon="-2.6376990">
        <ele>1046.8</ele>
        <time>2020-09-12T10:55:08Z</time>
      </trkpt>
      <trkpt lat="41.0516460" lon="-2.6376360">
        <ele>1047.0</ele>
        <time>2020-09-12T10:55:09Z</time>
      </trkpt>
      <trkpt lat="41.0516420" lon="-2.6375740">
        <ele>1047.0</ele>
        <time>2020-09-12T10:55:10Z</time>
      </trkpt>
      <trkpt lat="41.0516370" lon="-2.6375120">
        <ele>1047.2</ele>
        <time>2020-09-12T10:55:11Z</time>
      </trkpt>
      <trkpt lat="41.0516310" lon="-2.6374510">
        <ele>1047.4</ele>
        <time>2020-09-12T10:55:12Z</time>
      </trkpt>
      <trkpt lat="41.0516260" lon="-2.6373880">
        <ele>1047.6</ele>
        <time>2020-09-12T10:55:13Z</time>
      </trkpt>
      <trkpt lat="41.0516210" lon="-2.6373260">
        <ele>1047.8</ele>
        <time>2020-09-12T10:55:14Z</time>
      </trkpt>
      <trkpt lat="41.0516150" lon="-2.6372640">
        <ele>1048.0</ele>
        <time>2020-09-12T10:55:15Z</time>
      </trkpt>
      <trkpt lat="41.0516100" lon="-2.6372020">
        <ele>1048.0</ele>
        <time>2020-09-12T10:55:16Z</time>
      </trkpt>
      <trkpt lat="41.0516060" lon="-2.6371400">
        <ele>1048.4</ele>
        <time>2020-09-12T10:55:17Z</time>
      </trkpt>
      <trkpt lat="41.0516010" lon="-2.6370790">
        <ele>1048.6</ele>
        <time>2020-09-12T10:55:18Z</time>
      </trkpt>
      <trkpt lat="41.0515950" lon="-2.6370190">
        <ele>1048.6</ele>
        <time>2020-09-12T10:55:19Z</time>
      </trkpt>
      <trkpt lat="41.0515890" lon="-2.6369580">
        <ele>1048.8</ele>
        <time>2020-09-12T10:55:20Z</time>
      </trkpt>
      <trkpt lat="41.0515820" lon="-2.6368990">
        <ele>1049.0</ele>
        <time>2020-09-12T10:55:21Z</time>
      </trkpt>
      <trkpt lat="41.0515760" lon="-2.6368380">
        <ele>1049.2</ele>
        <time>2020-09-12T10:55:22Z</time>
      </trkpt>
      <trkpt lat="41.0515700" lon="-2.6367760">
        <ele>1049.2</ele>
        <time>2020-09-12T10:55:23Z</time>
      </trkpt>
      <trkpt lat="41.0515650" lon="-2.6367150">
        <ele>1049.2</ele>
        <time>2020-09-12T10:55:24Z</time>
      </trkpt>
      <trkpt lat="41.0515600" lon="-2.6366540">
        <ele>1049.2</ele>
        <time>2020-09-12T10:55:25Z</time>
      </trkpt>
      <trkpt lat="41.0515550" lon="-2.6365910">
        <ele>1049.2</ele>
        <time>2020-09-12T10:55:26Z</time>
      </trkpt>
      <trkpt lat="41.0515510" lon="-2.6365270">
        <ele>1049.4</ele>
        <time>2020-09-12T10:55:27Z</time>
      </trkpt>
      <trkpt lat="41.0515450" lon="-2.6364610">
        <ele>1049.4</ele>
        <time>2020-09-12T10:55:28Z</time>
      </trkpt>
      <trkpt lat="41.0515390" lon="-2.6363950">
        <ele>1049.6</ele>
        <time>2020-09-12T10:55:29Z</time>
      </trkpt>
      <trkpt lat="41.0515330" lon="-2.6363320">
        <ele>1049.8</ele>
        <time>2020-09-12T10:55:30Z</time>
      </trkpt>
      <trkpt lat="41.0515270" lon="-2.6362670">
        <ele>1050.2</ele>
        <time>2020-09-12T10:55:31Z</time>
      </trkpt>
      <trkpt lat="41.0515210" lon="-2.6362010">
        <ele>1050.4</ele>
        <time>2020-09-12T10:55:32Z</time>
      </trkpt>
      <trkpt lat="41.0515150" lon="-2.6361360">
        <ele>1050.6</ele>
        <time>2020-09-12T10:55:33Z</time>
      </trkpt>
      <trkpt lat="41.0515080" lon="-2.6360700">
        <ele>1050.8</ele>
        <time>2020-09-12T10:55:34Z</time>
      </trkpt>
      <trkpt lat="41.0515020" lon="-2.6360050">
        <ele>1050.8</ele>
        <time>2020-09-12T10:55:35Z</time>
      </trkpt>
      <trkpt lat="41.0514960" lon="-2.6359400">
        <ele>1050.8</ele>
        <time>2020-09-12T10:55:36Z</time>
      </trkpt>
      <trkpt lat="41.0514890" lon="-2.6358760">
        <ele>1050.8</ele>
        <time>2020-09-12T10:55:37Z</time>
      </trkpt>
      <trkpt lat="41.0514820" lon="-2.6358110">
        <ele>1051.0</ele>
        <time>2020-09-12T10:55:38Z</time>
      </trkpt>
      <trkpt lat="41.0514760" lon="-2.6357460">
        <ele>1051.0</ele>
        <time>2020-09-12T10:55:39Z</time>
      </trkpt>
      <trkpt lat="41.0514710" lon="-2.6356830">
        <ele>1051.0</ele>
        <time>2020-09-12T10:55:40Z</time>
      </trkpt>
      <trkpt lat="41.0514650" lon="-2.6356210">
        <ele>1051.2</ele>
        <time>2020-09-12T10:55:41Z</time>
      </trkpt>
      <trkpt lat="41.0514580" lon="-2.6355580">
        <ele>1051.4</ele>
        <time>2020-09-12T10:55:42Z</time>
      </trkpt>
      <trkpt lat="41.0514520" lon="-2.6354950">
        <ele>1051.8</ele>
        <time>2020-09-12T10:55:43Z</time>
      </trkpt>
      <trkpt lat="41.0514460" lon="-2.6354330">
        <ele>1052.0</ele>
        <time>2020-09-12T10:55:44Z</time>
      </trkpt>
      <trkpt lat="41.0514410" lon="-2.6353710">
        <ele>1052.2</ele>
        <time>2020-09-12T10:55:45Z</time>
      </trkpt>
      <trkpt lat="41.0514360" lon="-2.6353100">
        <ele>1052.4</ele>
        <time>2020-09-12T10:55:46Z</time>
      </trkpt>
      <trkpt lat="41.0514300" lon="-2.6352480">
        <ele>1052.6</ele>
        <time>2020-09-12T10:55:47Z</time>
      </trkpt>
      <trkpt lat="41.0514240" lon="-2.6351850">
        <ele>1052.8</ele>
        <time>2020-09-12T10:55:48Z</time>
      </trkpt>
      <trkpt lat="41.0514180" lon="-2.6351210">
        <ele>1053.0</ele>
        <time>2020-09-12T10:55:49Z</time>
      </trkpt>
      <trkpt lat="41.0514120" lon="-2.6350590">
        <ele>1053.0</ele>
        <time>2020-09-12T10:55:50Z</time>
      </trkpt>
      <trkpt lat="41.0514060" lon="-2.6349970">
        <ele>1053.0</ele>
        <time>2020-09-12T10:55:51Z</time>
      </trkpt>
      <trkpt lat="41.0514010" lon="-2.6349340">
        <ele>1053.2</ele>
        <time>2020-09-12T10:55:52Z</time>
      </trkpt>
      <trkpt lat="41.0513950" lon="-2.6348720">
        <ele>1053.2</ele>
        <time>2020-09-12T10:55:53Z</time>
      </trkpt>
      <trkpt lat="41.0513900" lon="-2.6348090">
        <ele>1053.4</ele>
        <time>2020-09-12T10:55:54Z</time>
      </trkpt>
      <trkpt lat="41.0513850" lon="-2.6347450">
        <ele>1053.6</ele>
        <time>2020-09-12T10:55:55Z</time>
      </trkpt>
      <trkpt lat="41.0513790" lon="-2.6346820">
        <ele>1053.8</ele>
        <time>2020-09-12T10:55:56Z</time>
      </trkpt>
      <trkpt lat="41.0513740" lon="-2.6346190">
        <ele>1054.0</ele>
        <time>2020-09-12T10:55:57Z</time>
      </trkpt>
      <trkpt lat="41.0513680" lon="-2.6345580">
        <ele>1054.2</ele>
        <time>2020-09-12T10:55:58Z</time>
      </trkpt>
      <trkpt lat="41.0513640" lon="-2.6344960">
        <ele>1054.4</ele>
        <time>2020-09-12T10:55:59Z</time>
      </trkpt>
      <trkpt lat="41.0513580" lon="-2.6344340">
        <ele>1054.6</ele>
        <time>2020-09-12T10:56:00Z</time>
      </trkpt>
      <trkpt lat="41.0513520" lon="-2.6343700">
        <ele>1054.6</ele>
        <time>2020-09-12T10:56:01Z</time>
      </trkpt>
      <trkpt lat="41.0513470" lon="-2.6343070">
        <ele>1054.8</ele>
        <time>2020-09-12T10:56:02Z</time>
      </trkpt>
      <trkpt lat="41.0513420" lon="-2.6342440">
        <ele>1054.8</ele>
        <time>2020-09-12T10:56:03Z</time>
      </trkpt>
      <trkpt lat="41.0513360" lon="-2.6341820">
        <ele>1055.0</ele>
        <time>2020-09-12T10:56:04Z</time>
      </trkpt>
      <trkpt lat="41.0513310" lon="-2.6341200">
        <ele>1055.2</ele>
        <time>2020-09-12T10:56:05Z</time>
      </trkpt>
      <trkpt lat="41.0513270" lon="-2.6340590">
        <ele>1055.2</ele>
        <time>2020-09-12T10:56:06Z</time>
      </trkpt>
      <trkpt lat="41.0513210" lon="-2.6339960">
        <ele>1055.4</ele>
        <time>2020-09-12T10:56:07Z</time>
      </trkpt>
      <trkpt lat="41.0513160" lon="-2.6339360">
        <ele>1055.4</ele>
        <time>2020-09-12T10:56:08Z</time>
      </trkpt>
      <trkpt lat="41.0513110" lon="-2.6338760">
        <ele>1055.6</ele>
        <time>2020-09-12T10:56:09Z</time>
      </trkpt>
      <trkpt lat="41.0513060" lon="-2.6338150">
        <ele>1055.6</ele>
        <time>2020-09-12T10:56:10Z</time>
      </trkpt>
      <trkpt lat="41.0513010" lon="-2.6337550">
        <ele>1055.8</ele>
        <time>2020-09-12T10:56:11Z</time>
      </trkpt>
      <trkpt lat="41.0512950" lon="-2.6336930">
        <ele>1055.8</ele>
        <time>2020-09-12T10:56:12Z</time>
      </trkpt>
      <trkpt lat="41.0512900" lon="-2.6336310">
        <ele>1056.0</ele>
        <time>2020-09-12T10:56:13Z</time>
      </trkpt>
      <trkpt lat="41.0512840" lon="-2.6335680">
        <ele>1056.2</ele>
        <time>2020-09-12T10:56:14Z</time>
      </trkpt>
      <trkpt lat="41.0512800" lon="-2.6335050">
        <ele>1056.4</ele>
        <time>2020-09-12T10:56:15Z</time>
      </trkpt>
      <trkpt lat="41.0512750" lon="-2.6334430">
        <ele>1056.6</ele>
        <time>2020-09-12T10:56:16Z</time>
      </trkpt>
      <trkpt lat="41.0512700" lon="-2.6333800">
        <ele>1056.8</ele>
        <time>2020-09-12T10:56:17Z</time>
      </trkpt>
      <trkpt lat="41.0512630" lon="-2.6333180">
        <ele>1057.0</ele>
        <time>2020-09-12T10:56:18Z</time>
      </trkpt>
      <trkpt lat="41.0512580" lon="-2.6332560">
        <ele>1057.2</ele>
        <time>2020-09-12T10:56:19Z</time>
      </trkpt>
      <trkpt lat="41.0512530" lon="-2.6331940">
        <ele>1057.6</ele>
        <time>2020-09-12T10:56:20Z</time>
      </trkpt>
      <trkpt lat="41.0512490" lon="-2.6331330">
        <ele>1057.8</ele>
        <time>2020-09-12T10:56:21Z</time>
      </trkpt>
      <trkpt lat="41.0512440" lon="-2.6330720">
        <ele>1058.0</ele>
        <time>2020-09-12T10:56:22Z</time>
      </trkpt>
      <trkpt lat="41.0512390" lon="-2.6330100">
        <ele>1058.0</ele>
        <time>2020-09-12T10:56:23Z</time>
      </trkpt>
      <trkpt lat="41.0512330" lon="-2.6329490">
        <ele>1058.2</ele>
        <time>2020-09-12T10:56:24Z</time>
      </trkpt>
      <trkpt lat="41.0512280" lon="-2.6328880">
        <ele>1058.4</ele>
        <time>2020-09-12T10:56:25Z</time>
      </trkpt>
      <trkpt lat="41.0512240" lon="-2.6328280">
        <ele>1058.6</ele>
        <time>2020-09-12T10:56:26Z</time>
      </trkpt>
      <trkpt lat="41.0512190" lon="-2.6327690">
        <ele>1059.0</ele>
        <time>2020-09-12T10:56:27Z</time>
      </trkpt>
      <trkpt lat="41.0512130" lon="-2.6327090">
        <ele>1059.2</ele>
        <time>2020-09-12T10:56:28Z</time>
      </trkpt>
      <trkpt lat="41.0512060" lon="-2.6326500">
        <ele>1059.6</ele>
        <time>2020-09-12T10:56:29Z</time>
      </trkpt>
      <trkpt lat="41.0512000" lon="-2.6325890">
        <ele>1060.0</ele>
        <time>2020-09-12T10:56:30Z</time>
      </trkpt>
      <trkpt lat="41.0511940" lon="-2.6325290">
        <ele>1060.2</ele>
        <time>2020-09-12T10:56:31Z</time>
      </trkpt>
      <trkpt lat="41.0511890" lon="-2.6324690">
        <ele>1060.4</ele>
        <time>2020-09-12T10:56:32Z</time>
      </trkpt>
      <trkpt lat="41.0511840" lon="-2.6324100">
        <ele>1060.6</ele>
        <time>2020-09-12T10:56:33Z</time>
      </trkpt>
      <trkpt lat="41.0511790" lon="-2.6323500">
        <ele>1060.8</ele>
        <time>2020-09-12T10:56:34Z</time>
      </trkpt>
      <trkpt lat="41.0511740" lon="-2.6322910">
        <ele>1061.0</ele>
        <time>2020-09-12T10:56:35Z</time>
      </trkpt>
      <trkpt lat="41.0511680" lon="-2.6322300">
        <ele>1061.2</ele>
        <time>2020-09-12T10:56:36Z</time>
      </trkpt>
      <trkpt lat="41.0511610" lon="-2.6321690">
        <ele>1061.2</ele>
        <time>2020-09-12T10:56:37Z</time>
      </trkpt>
      <trkpt lat="41.0511550" lon="-2.6321080">
        <ele>1061.4</ele>
        <time>2020-09-12T10:56:38Z</time>
      </trkpt>
      <trkpt lat="41.0511500" lon="-2.6320450">
        <ele>1061.4</ele>
        <time>2020-09-12T10:56:39Z</time>
      </trkpt>
      <trkpt lat="41.0511450" lon="-2.6319830">
        <ele>1061.6</ele>
        <time>2020-09-12T10:56:40Z</time>
      </trkpt>
      <trkpt lat="41.0511400" lon="-2.6319210">
        <ele>1061.6</ele>
        <time>2020-09-12T10:56:41Z</time>
      </trkpt>
      <trkpt lat="41.0511350" lon="-2.6318580">
        <ele>1061.8</ele>
        <time>2020-09-12T10:56:42Z</time>
      </trkpt>
      <trkpt lat="41.0511320" lon="-2.6317960">
        <ele>1062.0</ele>
        <time>2020-09-12T10:56:43Z</time>
      </trkpt>
      <trkpt lat="41.0511290" lon="-2.6317330">
        <ele>1062.0</ele>
        <time>2020-09-12T10:56:44Z</time>
      </trkpt>
      <trkpt lat="41.0511270" lon="-2.6316700">
        <ele>1062.2</ele>
        <time>2020-09-12T10:56:45Z</time>
      </trkpt>
      <trkpt lat="41.0511240" lon="-2.6316060">
        <ele>1062.2</ele>
        <time>2020-09-12T10:56:46Z</time>
      </trkpt>
      <trkpt lat="41.0511210" lon="-2.6315420">
        <ele>1062.4</ele>
        <time>2020-09-12T10:56:47Z</time>
      </trkpt>
      <trkpt lat="41.0511190" lon="-2.6314780">
        <ele>1062.6</ele>
        <time>2020-09-12T10:56:48Z</time>
      </trkpt>
      <trkpt lat="41.0511180" lon="-2.6314140">
        <ele>1062.6</ele>
        <time>2020-09-12T10:56:49Z</time>
      </trkpt>
      <trkpt lat="41.0511160" lon="-2.6313510">
        <ele>1062.8</ele>
        <time>2020-09-12T10:56:50Z</time>
      </trkpt>
      <trkpt lat="41.0511160" lon="-2.6312880">
        <ele>1063.0</ele>
        <time>2020-09-12T10:56:51Z</time>
      </trkpt>
      <trkpt lat="41.0511160" lon="-2.6312240">
        <ele>1063.4</ele>
        <time>2020-09-12T10:56:52Z</time>
      </trkpt>
      <trkpt lat="41.0511150" lon="-2.6311610">
        <ele>1063.6</ele>
        <time>2020-09-12T10:56:53Z</time>
      </trkpt>
      <trkpt lat="41.0511140" lon="-2.6310970">
        <ele>1063.8</ele>
        <time>2020-09-12T10:56:54Z</time>
      </trkpt>
      <trkpt lat="41.0511140" lon="-2.6310320">
        <ele>1064.0</ele>
        <time>2020-09-12T10:56:55Z</time>
      </trkpt>
      <trkpt lat="41.0511140" lon="-2.6309660">
        <ele>1064.0</ele>
        <time>2020-09-12T10:56:56Z</time>
      </trkpt>
      <trkpt lat="41.0511120" lon="-2.6309000">
        <ele>1064.2</ele>
        <time>2020-09-12T10:56:57Z</time>
      </trkpt>
      <trkpt lat="41.0511110" lon="-2.6308350">
        <ele>1064.4</ele>
        <time>2020-09-12T10:56:58Z</time>
      </trkpt>
      <trkpt lat="41.0511100" lon="-2.6307710">
        <ele>1064.6</ele>
        <time>2020-09-12T10:56:59Z</time>
      </trkpt>
      <trkpt lat="41.0511110" lon="-2.6307080">
        <ele>1064.8</ele>
        <time>2020-09-12T10:57:00Z</time>
      </trkpt>
      <trkpt lat="41.0511100" lon="-2.6306450">
        <ele>1065.2</ele>
        <time>2020-09-12T10:57:01Z</time>
      </trkpt>
      <trkpt lat="41.0511080" lon="-2.6305820">
        <ele>1065.4</ele>
        <time>2020-09-12T10:57:02Z</time>
      </trkpt>
      <trkpt lat="41.0511080" lon="-2.6305190">
        <ele>1065.6</ele>
        <time>2020-09-12T10:57:03Z</time>
      </trkpt>
      <trkpt lat="41.0511080" lon="-2.6304560">
        <ele>1065.6</ele>
        <time>2020-09-12T10:57:04Z</time>
      </trkpt>
      <trkpt lat="41.0511080" lon="-2.6303900">
        <ele>1065.8</ele>
        <time>2020-09-12T10:57:05Z</time>
      </trkpt>
      <trkpt lat="41.0511070" lon="-2.6303230">
        <ele>1065.8</ele>
        <time>2020-09-12T10:57:06Z</time>
      </trkpt>
      <trkpt lat="41.0511050" lon="-2.6302550">
        <ele>1065.8</ele>
        <time>2020-09-12T10:57:07Z</time>
      </trkpt>
      <trkpt lat="41.0511040" lon="-2.6301870">
        <ele>1065.8</ele>
        <time>2020-09-12T10:57:08Z</time>
      </trkpt>
      <trkpt lat="41.0511030" lon="-2.6301190">
        <ele>1065.8</ele>
        <time>2020-09-12T10:57:09Z</time>
      </trkpt>
      <trkpt lat="41.0511010" lon="-2.6300520">
        <ele>1066.0</ele>
        <time>2020-09-12T10:57:10Z</time>
      </trkpt>
      <trkpt lat="41.0511000" lon="-2.6299850">
        <ele>1066.2</ele>
        <time>2020-09-12T10:57:11Z</time>
      </trkpt>
      <trkpt lat="41.0511000" lon="-2.6299180">
        <ele>1066.6</ele>
        <time>2020-09-12T10:57:12Z</time>
      </trkpt>
      <trkpt lat="41.0511000" lon="-2.6298520">
        <ele>1066.8</ele>
        <time>2020-09-12T10:57:13Z</time>
      </trkpt>
      <trkpt lat="41.0510990" lon="-2.6297860">
        <ele>1067.0</ele>
        <time>2020-09-12T10:57:14Z</time>
      </trkpt>
      <trkpt lat="41.0510980" lon="-2.6297200">
        <ele>1067.4</ele>
        <time>2020-09-12T10:57:15Z</time>
      </trkpt>
      <trkpt lat="41.0510980" lon="-2.6296540">
        <ele>1067.6</ele>
        <time>2020-09-12T10:57:16Z</time>
      </trkpt>
      <trkpt lat="41.0510980" lon="-2.6295880">
        <ele>1067.6</ele>
        <time>2020-09-12T10:57:17Z</time>
      </trkpt>
      <trkpt lat="41.0510980" lon="-2.6295220">
        <ele>1067.8</ele>
        <time>2020-09-12T10:57:18Z</time>
      </trkpt>
      <trkpt lat="41.0510970" lon="-2.6294560">
        <ele>1068.0</ele>
        <time>2020-09-12T10:57:19Z</time>
      </trkpt>
      <trkpt lat="41.0510960" lon="-2.6293900">
        <ele>1068.2</ele>
        <time>2020-09-12T10:57:20Z</time>
      </trkpt>
      <trkpt lat="41.0510940" lon="-2.6293260">
        <ele>1068.2</ele>
        <time>2020-09-12T10:57:21Z</time>
      </trkpt>
      <trkpt lat="41.0510930" lon="-2.6292640">
        <ele>1068.4</ele>
        <time>2020-09-12T10:57:22Z</time>
      </trkpt>
      <trkpt lat="41.0510930" lon="-2.6292010">
        <ele>1068.6</ele>
        <time>2020-09-12T10:57:23Z</time>
      </trkpt>
      <trkpt lat="41.0510930" lon="-2.6291380">
        <ele>1068.8</ele>
        <time>2020-09-12T10:57:24Z</time>
      </trkpt>
      <trkpt lat="41.0510920" lon="-2.6290740">
        <ele>1069.0</ele>
        <time>2020-09-12T10:57:25Z</time>
      </trkpt>
      <trkpt lat="41.0510920" lon="-2.6290090">
        <ele>1069.2</ele>
        <time>2020-09-12T10:57:26Z</time>
      </trkpt>
      <trkpt lat="41.0510910" lon="-2.6289450">
        <ele>1069.4</ele>
        <time>2020-09-12T10:57:27Z</time>
      </trkpt>
      <trkpt lat="41.0510900" lon="-2.6288800">
        <ele>1069.8</ele>
        <time>2020-09-12T10:57:28Z</time>
      </trkpt>
      <trkpt lat="41.0510890" lon="-2.6288150">
        <ele>1070.0</ele>
        <time>2020-09-12T10:57:29Z</time>
      </trkpt>
      <trkpt lat="41.0510880" lon="-2.6287500">
        <ele>1070.2</ele>
        <time>2020-09-12T10:57:30Z</time>
      </trkpt>
      <trkpt lat="41.0510870" lon="-2.6286850">
        <ele>1070.2</ele>
        <time>2020-09-12T10:57:31Z</time>
      </trkpt>
      <trkpt lat="41.0510850" lon="-2.6286200">
        <ele>1070.4</ele>
        <time>2020-09-12T10:57:32Z</time>
      </trkpt>
      <trkpt lat="41.0510830" lon="-2.6285540">
        <ele>1070.4</ele>
        <time>2020-09-12T10:57:33Z</time>
      </trkpt>
      <trkpt lat="41.0510810" lon="-2.6284890">
        <ele>1070.6</ele>
        <time>2020-09-12T10:57:34Z</time>
      </trkpt>
      <trkpt lat="41.0510800" lon="-2.6284260">
        <ele>1070.8</ele>
        <time>2020-09-12T10:57:35Z</time>
      </trkpt>
      <trkpt lat="41.0510790" lon="-2.6283620">
        <ele>1071.0</ele>
        <time>2020-09-12T10:57:36Z</time>
      </trkpt>
      <trkpt lat="41.0510790" lon="-2.6282980">
        <ele>1071.2</ele>
        <time>2020-09-12T10:57:37Z</time>
      </trkpt>
      <trkpt lat="41.0510780" lon="-2.6282340">
        <ele>1071.4</ele>
        <time>2020-09-12T10:57:38Z</time>
      </trkpt>
      <trkpt lat="41.0510760" lon="-2.6281690">
        <ele>1071.4</ele>
        <time>2020-09-12T10:57:39Z</time>
      </trkpt>
      <trkpt lat="41.0510750" lon="-2.6281040">
        <ele>1071.6</ele>
        <time>2020-09-12T10:57:40Z</time>
      </trkpt>
      <trkpt lat="41.0510740" lon="-2.6280390">
        <ele>1072.0</ele>
        <time>2020-09-12T10:57:41Z</time>
      </trkpt>
      <trkpt lat="41.0510720" lon="-2.6279730">
        <ele>1072.4</ele>
        <time>2020-09-12T10:57:42Z</time>
      </trkpt>
      <trkpt lat="41.0510710" lon="-2.6279070">
        <ele>1072.6</ele>
        <time>2020-09-12T10:57:43Z</time>
      </trkpt>
      <trkpt lat="41.0510700" lon="-2.6278410">
        <ele>1072.8</ele>
        <time>2020-09-12T10:57:44Z</time>
      </trkpt>
      <trkpt lat="41.0510690" lon="-2.6277730">
        <ele>1072.8</ele>
        <time>2020-09-12T10:57:45Z</time>
      </trkpt>
      <trkpt lat="41.0510680" lon="-2.6277050">
        <ele>1072.8</ele>
        <time>2020-09-12T10:57:46Z</time>
      </trkpt>
      <trkpt lat="41.0510670" lon="-2.6276360">
        <ele>1072.8</ele>
        <time>2020-09-12T10:57:47Z</time>
      </trkpt>
      <trkpt lat="41.0510660" lon="-2.6275650">
        <ele>1072.8</ele>
        <time>2020-09-12T10:57:48Z</time>
      </trkpt>
      <trkpt lat="41.0510640" lon="-2.6274940">
        <ele>1073.0</ele>
        <time>2020-09-12T10:57:49Z</time>
      </trkpt>
      <trkpt lat="41.0510620" lon="-2.6274220">
        <ele>1073.0</ele>
        <time>2020-09-12T10:57:50Z</time>
      </trkpt>
      <trkpt lat="41.0510610" lon="-2.6273490">
        <ele>1073.0</ele>
        <time>2020-09-12T10:57:51Z</time>
      </trkpt>
      <trkpt lat="41.0510600" lon="-2.6272750">
        <ele>1072.8</ele>
        <time>2020-09-12T10:57:52Z</time>
      </trkpt>
      <trkpt lat="41.0510590" lon="-2.6272000">
        <ele>1072.8</ele>
        <time>2020-09-12T10:57:53Z</time>
      </trkpt>
      <trkpt lat="41.0510590" lon="-2.6271230">
        <ele>1072.6</ele>
        <time>2020-09-12T10:57:54Z</time>
      </trkpt>
      <trkpt lat="41.0510590" lon="-2.6270450">
        <ele>1072.6</ele>
        <time>2020-09-12T10:57:55Z</time>
      </trkpt>
      <trkpt lat="41.0510590" lon="-2.6269660">
        <ele>1072.6</ele>
        <time>2020-09-12T10:57:56Z</time>
      </trkpt>
      <trkpt lat="41.0510590" lon="-2.6268860">
        <ele>1072.6</ele>
        <time>2020-09-12T10:57:57Z</time>
      </trkpt>
      <trkpt lat="41.0510590" lon="-2.6268060">
        <ele>1072.6</ele>
        <time>2020-09-12T10:57:58Z</time>
      </trkpt>
      <trkpt lat="41.0510590" lon="-2.6267240">
        <ele>1072.6</ele>
        <time>2020-09-12T10:57:59Z</time>
      </trkpt>
      <trkpt lat="41.0510580" lon="-2.6266410">
        <ele>1072.8</ele>
        <time>2020-09-12T10:58:00Z</time>
      </trkpt>
      <trkpt lat="41.0510570" lon="-2.6265580">
        <ele>1072.8</ele>
        <time>2020-09-12T10:58:01Z</time>
      </trkpt>
      <trkpt lat="41.0510550" lon="-2.6264740">
        <ele>1072.8</ele>
        <time>2020-09-12T10:58:02Z</time>
      </trkpt>
      <trkpt lat="41.0510540" lon="-2.6263890">
        <ele>1072.8</ele>
        <time>2020-09-12T10:58:03Z</time>
      </trkpt>
      <trkpt lat="41.0510540" lon="-2.6263030">
        <ele>1073.0</ele>
        <time>2020-09-12T10:58:04Z</time>
      </trkpt>
      <trkpt lat="41.0510530" lon="-2.6262160">
        <ele>1073.0</ele>
        <time>2020-09-12T10:58:05Z</time>
      </trkpt>
      <trkpt lat="41.0510510" lon="-2.6261270">
        <ele>1073.0</ele>
        <time>2020-09-12T10:58:06Z</time>
      </trkpt>
      <trkpt lat="41.0510490" lon="-2.6260370">
        <ele>1073.2</ele>
        <time>2020-09-12T10:58:07Z</time>
      </trkpt>
      <trkpt lat="41.0510480" lon="-2.6259450">
        <ele>1073.4</ele>
        <time>2020-09-12T10:58:08Z</time>
      </trkpt>
      <trkpt lat="41.0510460" lon="-2.6258530">
        <ele>1073.4</ele>
        <time>2020-09-12T10:58:09Z</time>
      </trkpt>
      <trkpt lat="41.0510430" lon="-2.6257590">
        <ele>1073.6</ele>
        <time>2020-09-12T10:58:10Z</time>
      </trkpt>
      <trkpt lat="41.0510410" lon="-2.6256650">
        <ele>1073.8</ele>
        <time>2020-09-12T10:58:11Z</time>
      </trkpt>
      <trkpt lat="41.0510390" lon="-2.6255710">
        <ele>1073.8</ele>
        <time>2020-09-12T10:58:12Z</time>
      </trkpt>
      <trkpt lat="41.0510350" lon="-2.6254770">
        <ele>1074.0</ele>
        <time>2020-09-12T10:58:13Z</time>
      </trkpt>
      <trkpt lat="41.0510340" lon="-2.6253840">
        <ele>1074.0</ele>
        <time>2020-09-12T10:58:14Z</time>
      </trkpt>
      <trkpt lat="41.0510320" lon="-2.6252920">
        <ele>1074.0</ele>
        <time>2020-09-12T10:58:15Z</time>
      </trkpt>
      <trkpt lat="41.0510320" lon="-2.6252010">
        <ele>1074.0</ele>
        <time>2020-09-12T10:58:16Z</time>
      </trkpt>
      <trkpt lat="41.0510320" lon="-2.6251110">
        <ele>1074.0</ele>
        <time>2020-09-12T10:58:17Z</time>
      </trkpt>
      <trkpt lat="41.0510320" lon="-2.6250240">
        <ele>1074.0</ele>
        <time>2020-09-12T10:58:18Z</time>
      </trkpt>
      <trkpt lat="41.0510320" lon="-2.6249360">
        <ele>1073.8</ele>
        <time>2020-09-12T10:58:19Z</time>
      </trkpt>
      <trkpt lat="41.0510320" lon="-2.6248490">
        <ele>1073.8</ele>
        <time>2020-09-12T10:58:20Z</time>
      </trkpt>
      <trkpt lat="41.0510330" lon="-2.6247650">
        <ele>1073.6</ele>
        <time>2020-09-12T10:58:21Z</time>
      </trkpt>
      <trkpt lat="41.0510330" lon="-2.6246770">
        <ele>1073.6</ele>
        <time>2020-09-12T10:58:22Z</time>
      </trkpt>
      <trkpt lat="41.0510330" lon="-2.6245910">
        <ele>1073.4</ele>
        <time>2020-09-12T10:58:23Z</time>
      </trkpt>
      <trkpt lat="41.0510330" lon="-2.6245050">
        <ele>1073.4</ele>
        <time>2020-09-12T10:58:24Z</time>
      </trkpt>
      <trkpt lat="41.0510320" lon="-2.6244200">
        <ele>1073.4</ele>
        <time>2020-09-12T10:58:25Z</time>
      </trkpt>
      <trkpt lat="41.0510320" lon="-2.6243360">
        <ele>1073.2</ele>
        <time>2020-09-12T10:58:26Z</time>
      </trkpt>
      <trkpt lat="41.0510320" lon="-2.6242530">
        <ele>1073.4</ele>
        <time>2020-09-12T10:58:27Z</time>
      </trkpt>
      <trkpt lat="41.0510310" lon="-2.6241710">
        <ele>1073.4</ele>
        <time>2020-09-12T10:58:28Z</time>
      </trkpt>
      <trkpt lat="41.0510300" lon="-2.6240900">
        <ele>1073.6</ele>
        <time>2020-09-12T10:58:29Z</time>
      </trkpt>
      <trkpt lat="41.0510290" lon="-2.6240110">
        <ele>1073.6</ele>
        <time>2020-09-12T10:58:30Z</time>
      </trkpt>
      <trkpt lat="41.0510280" lon="-2.6239320">
        <ele>1073.6</ele>
        <time>2020-09-12T10:58:31Z</time>
      </trkpt>
      <trkpt lat="41.0510270" lon="-2.6238530">
        <ele>1073.8</ele>
        <time>2020-09-12T10:58:32Z</time>
      </trkpt>
      <trkpt lat="41.0510260" lon="-2.6237760">
        <ele>1073.8</ele>
        <time>2020-09-12T10:58:33Z</time>
      </trkpt>
      <trkpt lat="41.0510250" lon="-2.6236970">
        <ele>1074.0</ele>
        <time>2020-09-12T10:58:34Z</time>
      </trkpt>
      <trkpt lat="41.0510250" lon="-2.6236180">
        <ele>1074.2</ele>
        <time>2020-09-12T10:58:35Z</time>
      </trkpt>
      <trkpt lat="41.0510240" lon="-2.6235390">
        <ele>1074.4</ele>
        <time>2020-09-12T10:58:36Z</time>
      </trkpt>
      <trkpt lat="41.0510230" lon="-2.6234590">
        <ele>1074.6</ele>
        <time>2020-09-12T10:58:37Z</time>
      </trkpt>
      <trkpt lat="41.0510230" lon="-2.6233800">
        <ele>1074.8</ele>
        <time>2020-09-12T10:58:38Z</time>
      </trkpt>
      <trkpt lat="41.0510230" lon="-2.6233020">
        <ele>1075.0</ele>
        <time>2020-09-12T10:58:39Z</time>
      </trkpt>
      <trkpt lat="41.0510250" lon="-2.6232240">
        <ele>1075.4</ele>
        <time>2020-09-12T10:58:40Z</time>
      </trkpt>
      <trkpt lat="41.0510280" lon="-2.6231470">
        <ele>1075.4</ele>
        <time>2020-09-12T10:58:41Z</time>
      </trkpt>
      <trkpt lat="41.0510310" lon="-2.6230700">
        <ele>1075.6</ele>
        <time>2020-09-12T10:58:42Z</time>
      </trkpt>
      <trkpt lat="41.0510350" lon="-2.6229940">
        <ele>1075.6</ele>
        <time>2020-09-12T10:58:43Z</time>
      </trkpt>
      <trkpt lat="41.0510400" lon="-2.6229180">
        <ele>1075.6</ele>
        <time>2020-09-12T10:58:44Z</time>
      </trkpt>
      <trkpt lat="41.0510470" lon="-2.6228440">
        <ele>1075.6</ele>
        <time>2020-09-12T10:58:45Z</time>
      </trkpt>
      <trkpt lat="41.0510570" lon="-2.6227690">
        <ele>1075.6</ele>
        <time>2020-09-12T10:58:46Z</time>
      </trkpt>
      <trkpt lat="41.0510700" lon="-2.6226950">
        <ele>1075.6</ele>
        <time>2020-09-12T10:58:47Z</time>
      </trkpt>
      <trkpt lat="41.0510830" lon="-2.6226200">
        <ele>1075.8</ele>
        <time>2020-09-12T10:58:48Z</time>
      </trkpt>
      <trkpt lat="41.0510970" lon="-2.6225430">
        <ele>1076.0</ele>
        <time>2020-09-12T10:58:49Z</time>
      </trkpt>
      <trkpt lat="41.0511150" lon="-2.6224680">
        <ele>1076.2</ele>
        <time>2020-09-12T10:58:50Z</time>
      </trkpt>
      <trkpt lat="41.0511320" lon="-2.6223910">
        <ele>1076.2</ele>
        <time>2020-09-12T10:58:51Z</time>
      </trkpt>
      <trkpt lat="41.0511510" lon="-2.6223130">
        <ele>1076.4</ele>
        <time>2020-09-12T10:58:52Z</time>
      </trkpt>
      <trkpt lat="41.0511710" lon="-2.6222350">
        <ele>1076.6</ele>
        <time>2020-09-12T10:58:53Z</time>
      </trkpt>
      <trkpt lat="41.0511910" lon="-2.6221570">
        <ele>1077.0</ele>
        <time>2020-09-12T10:58:54Z</time>
      </trkpt>
      <trkpt lat="41.0512120" lon="-2.6220790">
        <ele>1077.2</ele>
        <time>2020-09-12T10:58:55Z</time>
      </trkpt>
      <trkpt lat="41.0512330" lon="-2.6220010">
        <ele>1077.2</ele>
        <time>2020-09-12T10:58:56Z</time>
      </trkpt>
      <trkpt lat="41.0512550" lon="-2.6219250">
        <ele>1077.4</ele>
        <time>2020-09-12T10:58:57Z</time>
      </trkpt>
      <trkpt lat="41.0512760" lon="-2.6218480">
        <ele>1077.4</ele>
        <time>2020-09-12T10:58:58Z</time>
      </trkpt>
      <trkpt lat="41.0512990" lon="-2.6217700">
        <ele>1077.4</ele>
        <time>2020-09-12T10:58:59Z</time>
      </trkpt>
      <trkpt lat="41.0513210" lon="-2.6216920">
        <ele>1077.4</ele>
        <time>2020-09-12T10:59:00Z</time>
      </trkpt>
      <trkpt lat="41.0513420" lon="-2.6216140">
        <ele>1077.4</ele>
        <time>2020-09-12T10:59:01Z</time>
      </trkpt>
      <trkpt lat="41.0513650" lon="-2.6215350">
        <ele>1077.4</ele>
        <time>2020-09-12T10:59:02Z</time>
      </trkpt>
      <trkpt lat="41.0513860" lon="-2.6214570">
        <ele>1077.6</ele>
        <time>2020-09-12T10:59:03Z</time>
      </trkpt>
      <trkpt lat="41.0514080" lon="-2.6213780">
        <ele>1078.0</ele>
        <time>2020-09-12T10:59:04Z</time>
      </trkpt>
      <trkpt lat="41.0514290" lon="-2.6213000">
        <ele>1078.2</ele>
        <time>2020-09-12T10:59:05Z</time>
      </trkpt>
      <trkpt lat="41.0514510" lon="-2.6212220">
        <ele>1078.4</ele>
        <time>2020-09-12T10:59:06Z</time>
      </trkpt>
      <trkpt lat="41.0514730" lon="-2.6211450">
        <ele>1078.8</ele>
        <time>2020-09-12T10:59:07Z</time>
      </trkpt>
      <trkpt lat="41.0514940" lon="-2.6210670">
        <ele>1079.0</ele>
        <time>2020-09-12T10:59:08Z</time>
      </trkpt>
      <trkpt lat="41.0515150" lon="-2.6209900">
        <ele>1079.2</ele>
        <time>2020-09-12T10:59:09Z</time>
      </trkpt>
      <trkpt lat="41.0515360" lon="-2.6209110">
        <ele>1079.4</ele>
        <time>2020-09-12T10:59:10Z</time>
      </trkpt>
      <trkpt lat="41.0515550" lon="-2.6208320">
        <ele>1079.6</ele>
        <time>2020-09-12T10:59:11Z</time>
      </trkpt>
      <trkpt lat="41.0515720" lon="-2.6207530">
        <ele>1079.8</ele>
        <time>2020-09-12T10:59:12Z</time>
      </trkpt>
      <trkpt lat="41.0515870" lon="-2.6206730">
        <ele>1080.0</ele>
        <time>2020-09-12T10:59:13Z</time>
      </trkpt>
      <trkpt lat="41.0516000" lon="-2.6205930">
        <ele>1080.2</ele>
        <time>2020-09-12T10:59:14Z</time>
      </trkpt>
      <trkpt lat="41.0516120" lon="-2.6205130">
        <ele>1080.4</ele>
        <time>2020-09-12T10:59:15Z</time>
      </trkpt>
      <trkpt lat="41.0516230" lon="-2.6204360">
        <ele>1080.8</ele>
        <time>2020-09-12T10:59:16Z</time>
      </trkpt>
      <trkpt lat="41.0516350" lon="-2.6203600">
        <ele>1080.8</ele>
        <time>2020-09-12T10:59:17Z</time>
      </trkpt>
      <trkpt lat="41.0516460" lon="-2.6202850">
        <ele>1081.0</ele>
        <time>2020-09-12T10:59:18Z</time>
      </trkpt>
      <trkpt lat="41.0516560" lon="-2.6202110">
        <ele>1081.2</ele>
        <time>2020-09-12T10:59:19Z</time>
      </trkpt>
      <trkpt lat="41.0516660" lon="-2.6201370">
        <ele>1081.4</ele>
        <time>2020-09-12T10:59:20Z</time>
      </trkpt>
      <trkpt lat="41.0516750" lon="-2.6200650">
        <ele>1081.6</ele>
        <time>2020-09-12T10:59:21Z</time>
      </trkpt>
      <trkpt lat="41.0516850" lon="-2.6199940">
        <ele>1081.6</ele>
        <time>2020-09-12T10:59:22Z</time>
      </trkpt>
      <trkpt lat="41.0516950" lon="-2.6199240">
        <ele>1081.8</ele>
        <time>2020-09-12T10:59:23Z</time>
      </trkpt>
      <trkpt lat="41.0517060" lon="-2.6198550">
        <ele>1082.0</ele>
        <time>2020-09-12T10:59:24Z</time>
      </trkpt>
      <trkpt lat="41.0517170" lon="-2.6197870">
        <ele>1082.2</ele>
        <time>2020-09-12T10:59:25Z</time>
      </trkpt>
      <trkpt lat="41.0517280" lon="-2.6197200">
        <ele>1082.6</ele>
        <time>2020-09-12T10:59:26Z</time>
      </trkpt>
      <trkpt lat="41.0517380" lon="-2.6196540">
        <ele>1082.8</ele>
        <time>2020-09-12T10:59:27Z</time>
      </trkpt>
      <trkpt lat="41.0517470" lon="-2.6195880">
        <ele>1083.0</ele>
        <time>2020-09-12T10:59:28Z</time>
      </trkpt>
      <trkpt lat="41.0517580" lon="-2.6195250">
        <ele>1083.2</ele>
        <time>2020-09-12T10:59:29Z</time>
      </trkpt>
      <trkpt lat="41.0517690" lon="-2.6194610">
        <ele>1083.4</ele>
        <time>2020-09-12T10:59:30Z</time>
      </trkpt>
      <trkpt lat="41.0517790" lon="-2.6193990">
        <ele>1083.6</ele>
        <time>2020-09-12T10:59:31Z</time>
      </trkpt>
      <trkpt lat="41.0517890" lon="-2.6193360">
        <ele>1083.8</ele>
        <time>2020-09-12T10:59:32Z</time>
      </trkpt>
      <trkpt lat="41.0518000" lon="-2.6192730">
        <ele>1084.2</ele>
        <time>2020-09-12T10:59:33Z</time>
      </trkpt>
      <trkpt lat="41.0518090" lon="-2.6192080">
        <ele>1084.4</ele>
        <time>2020-09-12T10:59:34Z</time>
      </trkpt>
      <trkpt lat="41.0518180" lon="-2.6191440">
        <ele>1084.6</ele>
        <time>2020-09-12T10:59:35Z</time>
      </trkpt>
      <trkpt lat="41.0518280" lon="-2.6190800">
        <ele>1085.0</ele>
        <time>2020-09-12T10:59:36Z</time>
      </trkpt>
      <trkpt lat="41.0518380" lon="-2.6190170">
        <ele>1085.2</ele>
        <time>2020-09-12T10:59:37Z</time>
      </trkpt>
      <trkpt lat="41.0518480" lon="-2.6189540">
        <ele>1085.4</ele>
        <time>2020-09-12T10:59:38Z</time>
      </trkpt>
      <trkpt lat="41.0518580" lon="-2.6188890">
        <ele>1085.6</ele>
        <time>2020-09-12T10:59:39Z</time>
      </trkpt>
      <trkpt lat="41.0518670" lon="-2.6188240">
        <ele>1085.8</ele>
        <time>2020-09-12T10:59:40Z</time>
      </trkpt>
      <trkpt lat="41.0518760" lon="-2.6187590">
        <ele>1086.0</ele>
        <time>2020-09-12T10:59:41Z</time>
      </trkpt>
      <trkpt lat="41.0518850" lon="-2.6186940">
        <ele>1086.2</ele>
        <time>2020-09-12T10:59:42Z</time>
      </trkpt>
      <trkpt lat="41.0518940" lon="-2.6186290">
        <ele>1086.4</ele>
        <time>2020-09-12T10:59:43Z</time>
      </trkpt>
      <trkpt lat="41.0519030" lon="-2.6185640">
        <ele>1086.8</ele>
        <time>2020-09-12T10:59:44Z</time>
      </trkpt>
      <trkpt lat="41.0519140" lon="-2.6184990">
        <ele>1086.8</ele>
        <time>2020-09-12T10:59:45Z</time>
      </trkpt>
      <trkpt lat="41.0519240" lon="-2.6184330">
        <ele>1087.0</ele>
        <time>2020-09-12T10:59:46Z</time>
      </trkpt>
      <trkpt lat="41.0519340" lon="-2.6183640">
        <ele>1087.0</ele>
        <time>2020-09-12T10:59:47Z</time>
      </trkpt>
      <trkpt lat="41.0519430" lon="-2.6182930">
        <ele>1087.2</ele>
        <time>2020-09-12T10:59:48Z</time>
      </trkpt>
      <trkpt lat="41.0519510" lon="-2.6182210">
        <ele>1087.2</ele>
        <time>2020-09-12T10:59:49Z</time>
      </trkpt>
      <trkpt lat="41.0519610" lon="-2.6181490">
        <ele>1087.4</ele>
        <time>2020-09-12T10:59:50Z</time>
      </trkpt>
      <trkpt lat="41.0519710" lon="-2.6180760">
        <ele>1087.4</ele>
        <time>2020-09-12T10:59:51Z</time>
      </trkpt>
      <trkpt lat="41.0519820" lon="-2.6180020">
        <ele>1087.4</ele>
        <time>2020-09-12T10:59:52Z</time>
      </trkpt>
      <trkpt lat="41.0519940" lon="-2.6179280">
        <ele>1087.4</ele>
        <time>2020-09-12T10:59:53Z</time>
      </trkpt>
      <trkpt lat="41.0520060" lon="-2.6178530">
        <ele>1087.4</ele>
        <time>2020-09-12T10:59:54Z</time>
      </trkpt>
      <trkpt lat="41.0520170" lon="-2.6177770">
        <ele>1087.6</ele>
        <time>2020-09-12T10:59:55Z</time>
      </trkpt>
      <trkpt lat="41.0520280" lon="-2.6177000">
        <ele>1087.8</ele>
        <time>2020-09-12T10:59:56Z</time>
      </trkpt>
      <trkpt lat="41.0520400" lon="-2.6176250">
        <ele>1088.0</ele>
        <time>2020-09-12T10:59:57Z</time>
      </trkpt>
      <trkpt lat="41.0520520" lon="-2.6175480">
        <ele>1088.0</ele>
        <time>2020-09-12T10:59:58Z</time>
      </trkpt>
      <trkpt lat="41.0520640" lon="-2.6174700">
        <ele>1088.2</ele>
        <time>2020-09-12T10:59:59Z</time>
      </trkpt>
      <trkpt lat="41.0520750" lon="-2.6173920">
        <ele>1088.2</ele>
        <time>2020-09-12T11:00:00Z</time>
      </trkpt>
      <trkpt lat="41.0520870" lon="-2.6173120">
        <ele>1088.2</ele>
        <time>2020-09-12T11:00:01Z</time>
      </trkpt>
      <trkpt lat="41.0520980" lon="-2.6172330">
        <ele>1088.4</ele>
        <time>2020-09-12T11:00:02Z</time>
      </trkpt>
      <trkpt lat="41.0521090" lon="-2.6171540">
        <ele>1088.4</ele>
        <time>2020-09-12T11:00:03Z</time>
      </trkpt>
      <trkpt lat="41.0521200" lon="-2.6170760">
        <ele>1088.6</ele>
        <time>2020-09-12T11:00:04Z</time>
      </trkpt>
      <trkpt lat="41.0521310" lon="-2.6169980">
        <ele>1088.6</ele>
        <time>2020-09-12T11:00:05Z</time>
      </trkpt>
      <trkpt lat="41.0521420" lon="-2.6169210">
        <ele>1088.8</ele>
        <time>2020-09-12T11:00:06Z</time>
      </trkpt>
      <trkpt lat="41.0521540" lon="-2.6168430">
        <ele>1088.8</ele>
        <time>2020-09-12T11:00:07Z</time>
      </trkpt>
      <trkpt lat="41.0521660" lon="-2.6167660">
        <ele>1089.0</ele>
        <time>2020-09-12T11:00:08Z</time>
      </trkpt>
      <trkpt lat="41.0521770" lon="-2.6166870">
        <ele>1089.0</ele>
        <time>2020-09-12T11:00:09Z</time>
      </trkpt>
      <trkpt lat="41.0521890" lon="-2.6166100">
        <ele>1089.0</ele>
        <time>2020-09-12T11:00:10Z</time>
      </trkpt>
      <trkpt lat="41.0522010" lon="-2.6165310">
        <ele>1089.0</ele>
        <time>2020-09-12T11:00:11Z</time>
      </trkpt>
      <trkpt lat="41.0522130" lon="-2.6164540">
        <ele>1089.2</ele>
        <time>2020-09-12T11:00:12Z</time>
      </trkpt>
      <trkpt lat="41.0522250" lon="-2.6163750">
        <ele>1089.2</ele>
        <time>2020-09-12T11:00:13Z</time>
      </trkpt>
      <trkpt lat="41.0522380" lon="-2.6162960">
        <ele>1089.2</ele>
        <time>2020-09-12T11:00:14Z</time>
      </trkpt>
      <trkpt lat="41.0522500" lon="-2.6162170">
        <ele>1089.4</ele>
        <time>2020-09-12T11:00:15Z</time>
      </trkpt>
      <trkpt lat="41.0522610" lon="-2.6161360">
        <ele>1089.6</ele>
        <time>2020-09-12T11:00:16Z</time>
      </trkpt>
      <trkpt lat="41.0522720" lon="-2.6160560">
        <ele>1089.8</ele>
        <time>2020-09-12T11:00:17Z</time>
      </trkpt>
      <trkpt lat="41.0522850" lon="-2.6159760">
        <ele>1090.0</ele>
        <time>2020-09-12T11:00:18Z</time>
      </trkpt>
      <trkpt lat="41.0522960" lon="-2.6158940">
        <ele>1090.2</ele>
        <time>2020-09-12T11:00:19Z</time>
      </trkpt>
      <trkpt lat="41.0523070" lon="-2.6158140">
        <ele>1090.4</ele>
        <time>2020-09-12T11:00:20Z</time>
      </trkpt>
      <trkpt lat="41.0523170" lon="-2.6157340">
        <ele>1090.4</ele>
        <time>2020-09-12T11:00:21Z</time>
      </trkpt>
      <trkpt lat="41.0523280" lon="-2.6156530">
        <ele>1090.6</ele>
        <time>2020-09-12T11:00:22Z</time>
      </trkpt>
      <trkpt lat="41.0523380" lon="-2.6155710">
        <ele>1090.8</ele>
        <time>2020-09-12T11:00:23Z</time>
      </trkpt>
      <trkpt lat="41.0523490" lon="-2.6154890">
        <ele>1090.8</ele>
        <time>2020-09-12T11:00:24Z</time>
      </trkpt>
      <trkpt lat="41.0523590" lon="-2.6154080">
        <ele>1090.8</ele>
        <time>2020-09-12T11:00:25Z</time>
      </trkpt>
      <trkpt lat="41.0523680" lon="-2.6153280">
        <ele>1090.8</ele>
        <time>2020-09-12T11:00:26Z</time>
      </trkpt>
      <trkpt lat="41.0523780" lon="-2.6152470">
        <ele>1090.8</ele>
        <time>2020-09-12T11:00:27Z</time>
      </trkpt>
      <trkpt lat="41.0523880" lon="-2.6151670">
        <ele>1090.8</ele>
        <time>2020-09-12T11:00:28Z</time>
      </trkpt>
      <trkpt lat="41.0523990" lon="-2.6150880">
        <ele>1090.8</ele>
        <time>2020-09-12T11:00:29Z</time>
      </trkpt>
      <trkpt lat="41.0524110" lon="-2.6150100">
        <ele>1091.0</ele>
        <time>2020-09-12T11:00:30Z</time>
      </trkpt>
      <trkpt lat="41.0524240" lon="-2.6149330">
        <ele>1091.0</ele>
        <time>2020-09-12T11:00:31Z</time>
      </trkpt>
      <trkpt lat="41.0524360" lon="-2.6148540">
        <ele>1091.0</ele>
        <time>2020-09-12T11:00:32Z</time>
      </trkpt>
      <trkpt lat="41.0524490" lon="-2.6147740">
        <ele>1091.0</ele>
        <time>2020-09-12T11:00:33Z</time>
      </trkpt>
      <trkpt lat="41.0524600" lon="-2.6146930">
        <ele>1091.2</ele>
        <time>2020-09-12T11:00:34Z</time>
      </trkpt>
      <trkpt lat="41.0524710" lon="-2.6146130">
        <ele>1091.2</ele>
        <time>2020-09-12T11:00:35Z</time>
      </trkpt>
      <trkpt lat="41.0524830" lon="-2.6145340">
        <ele>1091.2</ele>
        <time>2020-09-12T11:00:36Z</time>
      </trkpt>
      <trkpt lat="41.0524940" lon="-2.6144530">
        <ele>1091.0</ele>
        <time>2020-09-12T11:00:37Z</time>
      </trkpt>
      <trkpt lat="41.0525040" lon="-2.6143730">
        <ele>1091.0</ele>
        <time>2020-09-12T11:00:38Z</time>
      </trkpt>
      <trkpt lat="41.0525150" lon="-2.6142940">
        <ele>1091.0</ele>
        <time>2020-09-12T11:00:39Z</time>
      </trkpt>
      <trkpt lat="41.0525260" lon="-2.6142130">
        <ele>1090.8</ele>
        <time>2020-09-12T11:00:40Z</time>
      </trkpt>
      <trkpt lat="41.0525370" lon="-2.6141300">
        <ele>1090.8</ele>
        <time>2020-09-12T11:00:41Z</time>
      </trkpt>
      <trkpt lat="41.0525480" lon="-2.6140480">
        <ele>1091.0</ele>
        <time>2020-09-12T11:00:42Z</time>
      </trkpt>
      <trkpt lat="41.0525600" lon="-2.6139650">
        <ele>1091.0</ele>
        <time>2020-09-12T11:00:43Z</time>
      </trkpt>
      <trkpt lat="41.0525710" lon="-2.6138820">
        <ele>1091.0</ele>
        <time>2020-09-12T11:00:44Z</time>
      </trkpt>
      <trkpt lat="41.0525840" lon="-2.6137990">
        <ele>1091.2</ele>
        <time>2020-09-12T11:00:45Z</time>
      </trkpt>
      <trkpt lat="41.0525950" lon="-2.6137160">
        <ele>1091.2</ele>
        <time>2020-09-12T11:00:46Z</time>
      </trkpt>
      <trkpt lat="41.0526060" lon="-2.6136320">
        <ele>1091.4</ele>
        <time>2020-09-12T11:00:47Z</time>
      </trkpt>
      <trkpt lat="41.0526160" lon="-2.6135460">
        <ele>1091.4</ele>
        <time>2020-09-12T11:00:48Z</time>
      </trkpt>
      <trkpt lat="41.0526270" lon="-2.6134610">
        <ele>1091.6</ele>
        <time>2020-09-12T11:00:49Z</time>
      </trkpt>
      <trkpt lat="41.0526370" lon="-2.6133750">
        <ele>1091.6</ele>
        <time>2020-09-12T11:00:50Z</time>
      </trkpt>
      <trkpt lat="41.0526480" lon="-2.6132900">
        <ele>1091.8</ele>
        <time>2020-09-12T11:00:51Z</time>
      </trkpt>
      <trkpt lat="41.0526590" lon="-2.6132050">
        <ele>1091.8</ele>
        <time>2020-09-12T11:00:52Z</time>
      </trkpt>
      <trkpt lat="41.0526690" lon="-2.6131200">
        <ele>1091.8</ele>
        <time>2020-09-12T11:00:53Z</time>
      </trkpt>
      <trkpt lat="41.0526800" lon="-2.6130360">
        <ele>1091.8</ele>
        <time>2020-09-12T11:00:54Z</time>
      </trkpt>
      <trkpt lat="41.0526910" lon="-2.6129510">
        <ele>1091.8</ele>
        <time>2020-09-12T11:00:55Z</time>
      </trkpt>
      <trkpt lat="41.0527030" lon="-2.6128670">
        <ele>1091.8</ele>
        <time>2020-09-12T11:00:56Z</time>
      </trkpt>
      <trkpt lat="41.0527140" lon="-2.6127820">
        <ele>1091.8</ele>
        <time>2020-09-12T11:00:57Z</time>
      </trkpt>
      <trkpt lat="41.0527250" lon="-2.6126980">
        <ele>1092.0</ele>
        <time>2020-09-12T11:00:58Z</time>
      </trkpt>
      <trkpt lat="41.0527360" lon="-2.6126150">
        <ele>1092.2</ele>
        <time>2020-09-12T11:00:59Z</time>
      </trkpt>
      <trkpt lat="41.0527470" lon="-2.6125320">
        <ele>1092.4</ele>
        <time>2020-09-12T11:01:00Z</time>
      </trkpt>
      <trkpt lat="41.0527590" lon="-2.6124480">
        <ele>1092.6</ele>
        <time>2020-09-12T11:01:01Z</time>
      </trkpt>
      <trkpt lat="41.0527700" lon="-2.6123640">
        <ele>1092.6</ele>
        <time>2020-09-12T11:01:02Z</time>
      </trkpt>
      <trkpt lat="41.0527810" lon="-2.6122780">
        <ele>1092.8</ele>
        <time>2020-09-12T11:01:03Z</time>
      </trkpt>
      <trkpt lat="41.0527930" lon="-2.6121940">
        <ele>1092.8</ele>
        <time>2020-09-12T11:01:04Z</time>
      </trkpt>
      <trkpt lat="41.0528050" lon="-2.6121100">
        <ele>1092.8</ele>
        <time>2020-09-12T11:01:05Z</time>
      </trkpt>
      <trkpt lat="41.0528160" lon="-2.6120270">
        <ele>1093.0</ele>
        <time>2020-09-12T11:01:06Z</time>
      </trkpt>
      <trkpt lat="41.0528280" lon="-2.6119430">
        <ele>1093.2</ele>
        <time>2020-09-12T11:01:07Z</time>
      </trkpt>
      <trkpt lat="41.0528390" lon="-2.6118600">
        <ele>1093.2</ele>
        <time>2020-09-12T11:01:08Z</time>
      </trkpt>
      <trkpt lat="41.0528500" lon="-2.6117760">
        <ele>1093.4</ele>
        <time>2020-09-12T11:01:09Z</time>
      </trkpt>
      <trkpt lat="41.0528620" lon="-2.6116920">
        <ele>1093.6</ele>
        <time>2020-09-12T11:01:10Z</time>
      </trkpt>
      <trkpt lat="41.0528740" lon="-2.6116080">
        <ele>1093.6</ele>
        <time>2020-09-12T11:01:11Z</time>
      </trkpt>
      <trkpt lat="41.0528850" lon="-2.6115240">
        <ele>1093.8</ele>
        <time>2020-09-12T11:01:12Z</time>
      </trkpt>
      <trkpt lat="41.0528970" lon="-2.6114420">
        <ele>1093.8</ele>
        <time>2020-09-12T11:01:13Z</time>
      </trkpt>
      <trkpt lat="41.0529070" lon="-2.6113600">
        <ele>1094.0</ele>
        <time>2020-09-12T11:01:14Z</time>
      </trkpt>
      <trkpt lat="41.0529160" lon="-2.6112770">
        <ele>1094.0</ele>
        <time>2020-09-12T11:01:15Z</time>
      </trkpt>
      <trkpt lat="41.0529270" lon="-2.6111940">
        <ele>1094.2</ele>
        <time>2020-09-12T11:01:16Z</time>
      </trkpt>
      <trkpt lat="41.0529380" lon="-2.6111110">
        <ele>1094.2</ele>
        <time>2020-09-12T11:01:17Z</time>
      </trkpt>
      <trkpt lat="41.0529480" lon="-2.6110270">
        <ele>1094.4</ele>
        <time>2020-09-12T11:01:18Z</time>
      </trkpt>
      <trkpt lat="41.0529590" lon="-2.6109460">
        <ele>1094.4</ele>
        <time>2020-09-12T11:01:19Z</time>
      </trkpt>
      <trkpt lat="41.0529700" lon="-2.6108650">
        <ele>1094.6</ele>
        <time>2020-09-12T11:01:20Z</time>
      </trkpt>
      <trkpt lat="41.0529810" lon="-2.6107820">
        <ele>1094.8</ele>
        <time>2020-09-12T11:01:21Z</time>
      </trkpt>
      <trkpt lat="41.0529910" lon="-2.6106990">
        <ele>1094.8</ele>
        <time>2020-09-12T11:01:22Z</time>
      </trkpt>
      <trkpt lat="41.0530010" lon="-2.6106160">
        <ele>1095.0</ele>
        <time>2020-09-12T11:01:23Z</time>
      </trkpt>
      <trkpt lat="41.0530110" lon="-2.6105330">
        <ele>1095.0</ele>
        <time>2020-09-12T11:01:24Z</time>
      </trkpt>
      <trkpt lat="41.0530220" lon="-2.6104500">
        <ele>1095.2</ele>
        <time>2020-09-12T11:01:25Z</time>
      </trkpt>
      <trkpt lat="41.0530330" lon="-2.6103670">
        <ele>1095.2</ele>
        <time>2020-09-12T11:01:26Z</time>
      </trkpt>
      <trkpt lat="41.0530440" lon="-2.6102850">
        <ele>1095.2</ele>
        <time>2020-09-12T11:01:27Z</time>
      </trkpt>
      <trkpt lat="41.0530560" lon="-2.6102030">
        <ele>1095.2</ele>
        <time>2020-09-12T11:01:28Z</time>
      </trkpt>
      <trkpt lat="41.0530650" lon="-2.6101220">
        <ele>1095.2</ele>
        <time>2020-09-12T11:01:29Z</time>
      </trkpt>
      <trkpt lat="41.0530760" lon="-2.6100410">
        <ele>1095.2</ele>
        <time>2020-09-12T11:01:30Z</time>
      </trkpt>
      <trkpt lat="41.0530870" lon="-2.6099600">
        <ele>1095.4</ele>
        <time>2020-09-12T11:01:31Z</time>
      </trkpt>
      <trkpt lat="41.0530980" lon="-2.6098790">
        <ele>1095.6</ele>
        <time>2020-09-12T11:01:32Z</time>
      </trkpt>
      <trkpt lat="41.0531090" lon="-2.6097980">
        <ele>1095.6</ele>
        <time>2020-09-12T11:01:33Z</time>
      </trkpt>
      <trkpt lat="41.0531200" lon="-2.6097160">
        <ele>1095.8</ele>
        <time>2020-09-12T11:01:34Z</time>
      </trkpt>
      <trkpt lat="41.0531320" lon="-2.6096340">
        <ele>1095.8</ele>
        <time>2020-09-12T11:01:35Z</time>
      </trkpt>
      <trkpt lat="41.0531430" lon="-2.6095510">
        <ele>1096.0</ele>
        <time>2020-09-12T11:01:36Z</time>
      </trkpt>
      <trkpt lat="41.0531540" lon="-2.6094680">
        <ele>1096.2</ele>
        <time>2020-09-12T11:01:37Z</time>
      </trkpt>
      <trkpt lat="41.0531650" lon="-2.6093850">
        <ele>1096.4</ele>
        <time>2020-09-12T11:01:38Z</time>
      </trkpt>
      <trkpt lat="41.0531750" lon="-2.6093010">
        <ele>1096.4</ele>
        <time>2020-09-12T11:01:39Z</time>
      </trkpt>
      <trkpt lat="41.0531850" lon="-2.6092180">
        <ele>1096.4</ele>
        <time>2020-09-12T11:01:40Z</time>
      </trkpt>
      <trkpt lat="41.0531950" lon="-2.6091360">
        <ele>1096.6</ele>
        <time>2020-09-12T11:01:41Z</time>
      </trkpt>
      <trkpt lat="41.0532060" lon="-2.6090550">
        <ele>1096.6</ele>
        <time>2020-09-12T11:01:42Z</time>
      </trkpt>
      <trkpt lat="41.0532180" lon="-2.6089750">
        <ele>1096.8</ele>
        <time>2020-09-12T11:01:43Z</time>
      </trkpt>
      <trkpt lat="41.0532290" lon="-2.6088950">
        <ele>1096.8</ele>
        <time>2020-09-12T11:01:44Z</time>
      </trkpt>
      <trkpt lat="41.0532390" lon="-2.6088130">
        <ele>1096.8</ele>
        <time>2020-09-12T11:01:45Z</time>
      </trkpt>
      <trkpt lat="41.0532500" lon="-2.6087300">
        <ele>1097.0</ele>
        <time>2020-09-12T11:01:46Z</time>
      </trkpt>
      <trkpt lat="41.0532600" lon="-2.6086480">
        <ele>1097.2</ele>
        <time>2020-09-12T11:01:47Z</time>
      </trkpt>
      <trkpt lat="41.0532700" lon="-2.6085660">
        <ele>1097.2</ele>
        <time>2020-09-12T11:01:48Z</time>
      </trkpt>
      <trkpt lat="41.0532800" lon="-2.6084850">
        <ele>1097.2</ele>
        <time>2020-09-12T11:01:49Z</time>
      </trkpt>
      <trkpt lat="41.0532900" lon="-2.6084030">
        <ele>1097.4</ele>
        <time>2020-09-12T11:01:50Z</time>
      </trkpt>
      <trkpt lat="41.0533000" lon="-2.6083210">
        <ele>1097.4</ele>
        <time>2020-09-12T11:01:51Z</time>
      </trkpt>
      <trkpt lat="41.0533110" lon="-2.6082380">
        <ele>1097.4</ele>
        <time>2020-09-12T11:01:52Z</time>
      </trkpt>
      <trkpt lat="41.0533240" lon="-2.6081560">
        <ele>1097.4</ele>
        <time>2020-09-12T11:01:53Z</time>
      </trkpt>
      <trkpt lat="41.0533390" lon="-2.6080750">
        <ele>1097.4</ele>
        <time>2020-09-12T11:01:54Z</time>
      </trkpt>
      <trkpt lat="41.0533540" lon="-2.6079940">
        <ele>1097.6</ele>
        <time>2020-09-12T11:01:55Z</time>
      </trkpt>
      <trkpt lat="41.0533710" lon="-2.6079140">
        <ele>1097.6</ele>
        <time>2020-09-12T11:01:56Z</time>
      </trkpt>
      <trkpt lat="41.0533890" lon="-2.6078330">
        <ele>1097.8</ele>
        <time>2020-09-12T11:01:57Z</time>
      </trkpt>
      <trkpt lat="41.0534100" lon="-2.6077530">
        <ele>1097.8</ele>
        <time>2020-09-12T11:01:58Z</time>
      </trkpt>
      <trkpt lat="41.0534350" lon="-2.6076740">
        <ele>1097.8</ele>
        <time>2020-09-12T11:01:59Z</time>
      </trkpt>
      <trkpt lat="41.0534610" lon="-2.6075960">
        <ele>1097.8</ele>
        <time>2020-09-12T11:02:00Z</time>
      </trkpt>
      <trkpt lat="41.0534880" lon="-2.6075170">
        <ele>1098.0</ele>
        <time>2020-09-12T11:02:01Z</time>
      </trkpt>
      <trkpt lat="41.0535160" lon="-2.6074410">
        <ele>1098.0</ele>
        <time>2020-09-12T11:02:02Z</time>
      </trkpt>
      <trkpt lat="41.0535450" lon="-2.6073620">
        <ele>1098.0</ele>
        <time>2020-09-12T11:02:03Z</time>
      </trkpt>
      <trkpt lat="41.0535740" lon="-2.6072840">
        <ele>1098.2</ele>
        <time>2020-09-12T11:02:04Z</time>
      </trkpt>
      <trkpt lat="41.0536020" lon="-2.6072030">
        <ele>1098.2</ele>
        <time>2020-09-12T11:02:05Z</time>
      </trkpt>
      <trkpt lat="41.0536310" lon="-2.6071200">
        <ele>1098.2</ele>
        <time>2020-09-12T11:02:06Z</time>
      </trkpt>
      <trkpt lat="41.0536590" lon="-2.6070370">
        <ele>1098.4</ele>
        <time>2020-09-12T11:02:07Z</time>
      </trkpt>
      <trkpt lat="41.0536870" lon="-2.6069550">
        <ele>1098.4</ele>
        <time>2020-09-12T11:02:08Z</time>
      </trkpt>
      <trkpt lat="41.0537170" lon="-2.6068750">
        <ele>1098.6</ele>
        <time>2020-09-12T11:02:09Z</time>
      </trkpt>
      <trkpt lat="41.0537460" lon="-2.6067920">
        <ele>1098.8</ele>
        <time>2020-09-12T11:02:10Z</time>
      </trkpt>
      <trkpt lat="41.0537740" lon="-2.6067080">
        <ele>1098.8</ele>
        <time>2020-09-12T11:02:11Z</time>
      </trkpt>
      <trkpt lat="41.0538010" lon="-2.6066250">
        <ele>1099.0</ele>
        <time>2020-09-12T11:02:12Z</time>
      </trkpt>
      <trkpt lat="41.0538300" lon="-2.6065430">
        <ele>1099.2</ele>
        <time>2020-09-12T11:02:13Z</time>
      </trkpt>
      <trkpt lat="41.0538580" lon="-2.6064610">
        <ele>1099.2</ele>
        <time>2020-09-12T11:02:14Z</time>
      </trkpt>
      <trkpt lat="41.0538870" lon="-2.6063790">
        <ele>1099.4</ele>
        <time>2020-09-12T11:02:15Z</time>
      </trkpt>
      <trkpt lat="41.0539150" lon="-2.6062980">
        <ele>1099.4</ele>
        <time>2020-09-12T11:02:16Z</time>
      </trkpt>
      <trkpt lat="41.0539430" lon="-2.6062160">
        <ele>1099.4</ele>
        <time>2020-09-12T11:02:17Z</time>
      </trkpt>
      <trkpt lat="41.0539710" lon="-2.6061350">
        <ele>1099.6</ele>
        <time>2020-09-12T11:02:18Z</time>
      </trkpt>
      <trkpt lat="41.0539990" lon="-2.6060540">
        <ele>1099.8</ele>
        <time>2020-09-12T11:02:19Z</time>
      </trkpt>
      <trkpt lat="41.0540260" lon="-2.6059730">
        <ele>1099.8</ele>
        <time>2020-09-12T11:02:20Z</time>
      </trkpt>
      <trkpt lat="41.0540530" lon="-2.6058910">
        <ele>1099.8</ele>
        <time>2020-09-12T11:02:21Z</time>
      </trkpt>
      <trkpt lat="41.0540800" lon="-2.6058090">
        <ele>1100.0</ele>
        <time>2020-09-12T11:02:22Z</time>
      </trkpt>
      <trkpt lat="41.0541060" lon="-2.6057260">
        <ele>1100.0</ele>
        <time>2020-09-12T11:02:23Z</time>
      </trkpt>
      <trkpt lat="41.0541300" lon="-2.6056410">
        <ele>1100.0</ele>
        <time>2020-09-12T11:02:24Z</time>
      </trkpt>
      <trkpt lat="41.0541540" lon="-2.6055550">
        <ele>1100.2</ele>
        <time>2020-09-12T11:02:25Z</time>
      </trkpt>
      <trkpt lat="41.0541780" lon="-2.6054680">
        <ele>1100.2</ele>
        <time>2020-09-12T11:02:26Z</time>
      </trkpt>
      <trkpt lat="41.0542020" lon="-2.6053810">
        <ele>1100.2</ele>
        <time>2020-09-12T11:02:27Z</time>
      </trkpt>
      <trkpt lat="41.0542240" lon="-2.6052960">
        <ele>1100.2</ele>
        <time>2020-09-12T11:02:28Z</time>
      </trkpt>
      <trkpt lat="41.0542440" lon="-2.6052110">
        <ele>1100.2</ele>
        <time>2020-09-12T11:02:29Z</time>
      </trkpt>
      <trkpt lat="41.0542630" lon="-2.6051250">
        <ele>1100.4</ele>
        <time>2020-09-12T11:02:30Z</time>
      </trkpt>
      <trkpt lat="41.0542790" lon="-2.6050390">
        <ele>1100.4</ele>
        <time>2020-09-12T11:02:31Z</time>
      </trkpt>
      <trkpt lat="41.0542950" lon="-2.6049520">
        <ele>1100.6</ele>
        <time>2020-09-12T11:02:32Z</time>
      </trkpt>
      <trkpt lat="41.0543080" lon="-2.6048660">
        <ele>1100.8</ele>
        <time>2020-09-12T11:02:33Z</time>
      </trkpt>
      <trkpt lat="41.0543210" lon="-2.6047800">
        <ele>1101.0</ele>
        <time>2020-09-12T11:02:34Z</time>
      </trkpt>
      <trkpt lat="41.0543320" lon="-2.6046950">
        <ele>1101.2</ele>
        <time>2020-09-12T11:02:35Z</time>
      </trkpt>
      <trkpt lat="41.0543440" lon="-2.6046120">
        <ele>1101.4</ele>
        <time>2020-09-12T11:02:36Z</time>
      </trkpt>
      <trkpt lat="41.0543540" lon="-2.6045300">
        <ele>1101.6</ele>
        <time>2020-09-12T11:02:37Z</time>
      </trkpt>
      <trkpt lat="41.0543640" lon="-2.6044480">
        <ele>1102.0</ele>
        <time>2020-09-12T11:02:38Z</time>
      </trkpt>
      <trkpt lat="41.0543730" lon="-2.6043670">
        <ele>1102.2</ele>
        <time>2020-09-12T11:02:39Z</time>
      </trkpt>
      <trkpt lat="41.0543820" lon="-2.6042870">
        <ele>1102.2</ele>
        <time>2020-09-12T11:02:40Z</time>
      </trkpt>
      <trkpt lat="41.0543910" lon="-2.6042060">
        <ele>1102.4</ele>
        <time>2020-09-12T11:02:41Z</time>
      </trkpt>
      <trkpt lat="41.0544000" lon="-2.6041240">
        <ele>1102.4</ele>
        <time>2020-09-12T11:02:42Z</time>
      </trkpt>
      <trkpt lat="41.0544090" lon="-2.6040440">
        <ele>1102.6</ele>
        <time>2020-09-12T11:02:43Z</time>
      </trkpt>
      <trkpt lat="41.0544180" lon="-2.6039630">
        <ele>1102.8</ele>
        <time>2020-09-12T11:02:44Z</time>
      </trkpt>
      <trkpt lat="41.0544270" lon="-2.6038830">
        <ele>1102.8</ele>
        <time>2020-09-12T11:02:45Z</time>
      </trkpt>
      <trkpt lat="41.0544360" lon="-2.6038020">
        <ele>1102.8</ele>
        <time>2020-09-12T11:02:46Z</time>
      </trkpt>
      <trkpt lat="41.0544450" lon="-2.6037220">
        <ele>1103.0</ele>
        <time>2020-09-12T11:02:47Z</time>
      </trkpt>
      <trkpt lat="41.0544550" lon="-2.6036430">
        <ele>1103.2</ele>
        <time>2020-09-12T11:02:48Z</time>
      </trkpt>
      <trkpt lat="41.0544630" lon="-2.6035640">
        <ele>1103.4</ele>
        <time>2020-09-12T11:02:49Z</time>
      </trkpt>
      <trkpt lat="41.0544700" lon="-2.6034860">
        <ele>1103.6</ele>
        <time>2020-09-12T11:02:50Z</time>
      </trkpt>
      <trkpt lat="41.0544780" lon="-2.6034080">
        <ele>1103.8</ele>
        <time>2020-09-12T11:02:51Z</time>
      </trkpt>
      <trkpt lat="41.0544860" lon="-2.6033320">
        <ele>1104.2</ele>
        <time>2020-09-12T11:02:52Z</time>
      </trkpt>
      <trkpt lat="41.0544950" lon="-2.6032560">
        <ele>1104.6</ele>
        <time>2020-09-12T11:02:53Z</time>
      </trkpt>
      <trkpt lat="41.0545050" lon="-2.6031800">
        <ele>1104.8</ele>
        <time>2020-09-12T11:02:54Z</time>
      </trkpt>
      <trkpt lat="41.0545170" lon="-2.6031050">
        <ele>1105.0</ele>
        <time>2020-09-12T11:02:55Z</time>
      </trkpt>
      <trkpt lat="41.0545310" lon="-2.6030320">
        <ele>1105.0</ele>
        <time>2020-09-12T11:02:56Z</time>
      </trkpt>
      <trkpt lat="41.0545460" lon="-2.6029580">
        <ele>1105.2</ele>
        <time>2020-09-12T11:02:57Z</time>
      </trkpt>
      <trkpt lat="41.0545630" lon="-2.6028840">
        <ele>1105.4</ele>
        <time>2020-09-12T11:02:58Z</time>
      </trkpt>
      <trkpt lat="41.0545830" lon="-2.6028110">
        <ele>1105.6</ele>
        <time>2020-09-12T11:02:59Z</time>
      </trkpt>
      <trkpt lat="41.0546040" lon="-2.6027400">
        <ele>1105.6</ele>
        <time>2020-09-12T11:03:00Z</time>
      </trkpt>
      <trkpt lat="41.0546270" lon="-2.6026700">
        <ele>1105.6</ele>
        <time>2020-09-12T11:03:01Z</time>
      </trkpt>
      <trkpt lat="41.0546510" lon="-2.6026010">
        <ele>1105.6</ele>
        <time>2020-09-12T11:03:02Z</time>
      </trkpt>
      <trkpt lat="41.0546750" lon="-2.6025320">
        <ele>1105.8</ele>
        <time>2020-09-12T11:03:03Z</time>
      </trkpt>
      <trkpt lat="41.0547000" lon="-2.6024650">
        <ele>1105.8</ele>
        <time>2020-09-12T11:03:04Z</time>
      </trkpt>
      <trkpt lat="41.0547250" lon="-2.6023980">
        <ele>1105.8</ele>
        <time>2020-09-12T11:03:05Z</time>
      </trkpt>
      <trkpt lat="41.0547500" lon="-2.6023310">
        <ele>1106.0</ele>
        <time>2020-09-12T11:03:06Z</time>
      </trkpt>
      <trkpt lat="41.0547740" lon="-2.6022630">
        <ele>1106.0</ele>
        <time>2020-09-12T11:03:07Z</time>
      </trkpt>
      <trkpt lat="41.0547980" lon="-2.6021960">
        <ele>1106.2</ele>
        <time>2020-09-12T11:03:08Z</time>
      </trkpt>
      <trkpt lat="41.0548230" lon="-2.6021300">
        <ele>1106.4</ele>
        <time>2020-09-12T11:03:09Z</time>
      </trkpt>
      <trkpt lat="41.0548490" lon="-2.6020630">
        <ele>1106.6</ele>
        <time>2020-09-12T11:03:10Z</time>
      </trkpt>
      <trkpt lat="41.0548750" lon="-2.6019990">
        <ele>1106.6</ele>
        <time>2020-09-12T11:03:11Z</time>
      </trkpt>
      <trkpt lat="41.0548990" lon="-2.6019320">
        <ele>1106.8</ele>
        <time>2020-09-12T11:03:12Z</time>
      </trkpt>
      <trkpt lat="41.0549240" lon="-2.6018640">
        <ele>1106.8</ele>
        <time>2020-09-12T11:03:13Z</time>
      </trkpt>
      <trkpt lat="41.0549500" lon="-2.6017980">
        <ele>1106.8</ele>
        <time>2020-09-12T11:03:14Z</time>
      </trkpt>
      <trkpt lat="41.0549760" lon="-2.6017310">
        <ele>1107.0</ele>
        <time>2020-09-12T11:03:15Z</time>
      </trkpt>
      <trkpt lat="41.0550010" lon="-2.6016620">
        <ele>1107.4</ele>
        <time>2020-09-12T11:03:16Z</time>
      </trkpt>
      <trkpt lat="41.0550260" lon="-2.6015950">
        <ele>1107.6</ele>
        <time>2020-09-12T11:03:17Z</time>
      </trkpt>
      <trkpt lat="41.0550520" lon="-2.6015280">
        <ele>1107.8</ele>
        <time>2020-09-12T11:03:18Z</time>
      </trkpt>
      <trkpt lat="41.0550780" lon="-2.6014620">
        <ele>1108.0</ele>
        <time>2020-09-12T11:03:19Z</time>
      </trkpt>
      <trkpt lat="41.0551040" lon="-2.6013940">
        <ele>1108.0</ele>
        <time>2020-09-12T11:03:20Z</time>
      </trkpt>
      <trkpt lat="41.0551300" lon="-2.6013270">
        <ele>1108.2</ele>
        <time>2020-09-12T11:03:21Z</time>
      </trkpt>
      <trkpt lat="41.0551560" lon="-2.6012590">
        <ele>1108.2</ele>
        <time>2020-09-12T11:03:22Z</time>
      </trkpt>
      <trkpt lat="41.0551810" lon="-2.6011910">
        <ele>1108.4</ele>
        <time>2020-09-12T11:03:23Z</time>
      </trkpt>
      <trkpt lat="41.0552070" lon="-2.6011230">
        <ele>1108.8</ele>
        <time>2020-09-12T11:03:24Z</time>
      </trkpt>
      <trkpt lat="41.0552320" lon="-2.6010560">
        <ele>1109.0</ele>
        <time>2020-09-12T11:03:25Z</time>
      </trkpt>
      <trkpt lat="41.0552580" lon="-2.6009890">
        <ele>1109.2</ele>
        <time>2020-09-12T11:03:26Z</time>
      </trkpt>
      <trkpt lat="41.0552830" lon="-2.6009220">
        <ele>1109.4</ele>
        <time>2020-09-12T11:03:27Z</time>
      </trkpt>
      <trkpt lat="41.0553090" lon="-2.6008540">
        <ele>1109.6</ele>
        <time>2020-09-12T11:03:28Z</time>
      </trkpt>
      <trkpt lat="41.0553340" lon="-2.6007860">
        <ele>1109.6</ele>
        <time>2020-09-12T11:03:29Z</time>
      </trkpt>
      <trkpt lat="41.0553570" lon="-2.6007180">
        <ele>1109.8</ele>
        <time>2020-09-12T11:03:30Z</time>
      </trkpt>
      <trkpt lat="41.0553800" lon="-2.6006510">
        <ele>1110.0</ele>
        <time>2020-09-12T11:03:31Z</time>
      </trkpt>
      <trkpt lat="41.0554040" lon="-2.6005840">
        <ele>1110.0</ele>
        <time>2020-09-12T11:03:32Z</time>
      </trkpt>
      <trkpt lat="41.0554310" lon="-2.6005150">
        <ele>1110.0</ele>
        <time>2020-09-12T11:03:33Z</time>
      </trkpt>
      <trkpt lat="41.0554560" lon="-2.6004450">
        <ele>1110.0</ele>
        <time>2020-09-12T11:03:34Z</time>
      </trkpt>
      <trkpt lat="41.0554810" lon="-2.6003750">
        <ele>1110.0</ele>
        <time>2020-09-12T11:03:35Z</time>
      </trkpt>
      <trkpt lat="41.0555070" lon="-2.6003080">
        <ele>1110.0</ele>
        <time>2020-09-12T11:03:36Z</time>
      </trkpt>
      <trkpt lat="41.0555320" lon="-2.6002380">
        <ele>1110.2</ele>
        <time>2020-09-12T11:03:37Z</time>
      </trkpt>
      <trkpt lat="41.0555560" lon="-2.6001700">
        <ele>1110.2</ele>
        <time>2020-09-12T11:03:38Z</time>
      </trkpt>
      <trkpt lat="41.0555810" lon="-2.6001010">
        <ele>1110.6</ele>
        <time>2020-09-12T11:03:39Z</time>
      </trkpt>
      <trkpt lat="41.0556050" lon="-2.6000320">
        <ele>1110.8</ele>
        <time>2020-09-12T11:03:40Z</time>
      </trkpt>
      <trkpt lat="41.0556300" lon="-2.5999640">
        <ele>1111.2</ele>
        <time>2020-09-12T11:03:41Z</time>
      </trkpt>
      <trkpt lat="41.0556550" lon="-2.5998970">
        <ele>1111.6</ele>
        <time>2020-09-12T11:03:42Z</time>
      </trkpt>
      <trkpt lat="41.0556790" lon="-2.5998300">
        <ele>1111.6</ele>
        <time>2020-09-12T11:03:43Z</time>
      </trkpt>
      <trkpt lat="41.0557040" lon="-2.5997640">
        <ele>1111.8</ele>
        <time>2020-09-12T11:03:44Z</time>
      </trkpt>
      <trkpt lat="41.0557290" lon="-2.5996970">
        <ele>1111.8</ele>
        <time>2020-09-12T11:03:45Z</time>
      </trkpt>
      <trkpt lat="41.0557540" lon="-2.5996310">
        <ele>1112.0</ele>
        <time>2020-09-12T11:03:46Z</time>
      </trkpt>
      <trkpt lat="41.0557790" lon="-2.5995630">
        <ele>1112.2</ele>
        <time>2020-09-12T11:03:47Z</time>
      </trkpt>
      <trkpt lat="41.0558040" lon="-2.5994960">
        <ele>1112.4</ele>
        <time>2020-09-12T11:03:48Z</time>
      </trkpt>
      <trkpt lat="41.0558290" lon="-2.5994290">
        <ele>1112.6</ele>
        <time>2020-09-12T11:03:49Z</time>
      </trkpt>
      <trkpt lat="41.0558540" lon="-2.5993630">
        <ele>1112.6</ele>
        <time>2020-09-12T11:03:50Z</time>
      </trkpt>
      <trkpt lat="41.0558780" lon="-2.5992970">
        <ele>1112.6</ele>
        <time>2020-09-12T11:03:51Z</time>
      </trkpt>
      <trkpt lat="41.0559010" lon="-2.5992300">
        <ele>1112.6</ele>
        <time>2020-09-12T11:03:52Z</time>
      </trkpt>
      <trkpt lat="41.0559250" lon="-2.5991640">
        <ele>1112.6</ele>
        <time>2020-09-12T11:03:53Z</time>
      </trkpt>
      <trkpt lat="41.0559480" lon="-2.5990980">
        <ele>1112.8</ele>
        <time>2020-09-12T11:03:54Z</time>
      </trkpt>
      <trkpt lat="41.0559720" lon="-2.5990320">
        <ele>1112.8</ele>
        <time>2020-09-12T11:03:55Z</time>
      </trkpt>
      <trkpt lat="41.0559970" lon="-2.5989660">
        <ele>1113.0</ele>
        <time>2020-09-12T11:03:56Z</time>
      </trkpt>
      <trkpt lat="41.0560210" lon="-2.5989000">
        <ele>1113.2</ele>
        <time>2020-09-12T11:03:57Z</time>
      </trkpt>
      <trkpt lat="41.0560460" lon="-2.5988340">
        <ele>1113.4</ele>
        <time>2020-09-12T11:03:58Z</time>
      </trkpt>
      <trkpt lat="41.0560700" lon="-2.5987670">
        <ele>1113.6</ele>
        <time>2020-09-12T11:03:59Z</time>
      </trkpt>
      <trkpt lat="41.0560950" lon="-2.5987000">
        <ele>1113.6</ele>
        <time>2020-09-12T11:04:00Z</time>
      </trkpt>
      <trkpt lat="41.0561220" lon="-2.5986330">
        <ele>1113.6</ele>
        <time>2020-09-12T11:04:01Z</time>
      </trkpt>
      <trkpt lat="41.0561470" lon="-2.5985640">
        <ele>1113.8</ele>
        <time>2020-09-12T11:04:02Z</time>
      </trkpt>
      <trkpt lat="41.0561730" lon="-2.5984960">
        <ele>1114.0</ele>
        <time>2020-09-12T11:04:03Z</time>
      </trkpt>
      <trkpt lat="41.0561980" lon="-2.5984260">
        <ele>1114.0</ele>
        <time>2020-09-12T11:04:04Z</time>
      </trkpt>
      <trkpt lat="41.0562230" lon="-2.5983570">
        <ele>1114.2</ele>
        <time>2020-09-12T11:04:05Z</time>
      </trkpt>
      <trkpt lat="41.0562480" lon="-2.5982880">
        <ele>1114.2</ele>
        <time>2020-09-12T11:04:06Z</time>
      </trkpt>
      <trkpt lat="41.0562730" lon="-2.5982190">
        <ele>1114.4</ele>
        <time>2020-09-12T11:04:07Z</time>
      </trkpt>
      <trkpt lat="41.0563000" lon="-2.5981510">
        <ele>1114.8</ele>
        <time>2020-09-12T11:04:08Z</time>
      </trkpt>
      <trkpt lat="41.0563270" lon="-2.5980830">
        <ele>1115.2</ele>
        <time>2020-09-12T11:04:09Z</time>
      </trkpt>
      <trkpt lat="41.0563530" lon="-2.5980140">
        <ele>1115.4</ele>
        <time>2020-09-12T11:04:10Z</time>
      </trkpt>
      <trkpt lat="41.0563770" lon="-2.5979460">
        <ele>1115.6</ele>
        <time>2020-09-12T11:04:11Z</time>
      </trkpt>
      <trkpt lat="41.0564020" lon="-2.5978780">
        <ele>1115.8</ele>
        <time>2020-09-12T11:04:12Z</time>
      </trkpt>
      <trkpt lat="41.0564270" lon="-2.5978120">
        <ele>1115.8</ele>
        <time>2020-09-12T11:04:13Z</time>
      </trkpt>
      <trkpt lat="41.0564530" lon="-2.5977450">
        <ele>1116.0</ele>
        <time>2020-09-12T11:04:14Z</time>
      </trkpt>
      <trkpt lat="41.0564770" lon="-2.5976770">
        <ele>1116.2</ele>
        <time>2020-09-12T11:04:15Z</time>
      </trkpt>
      <trkpt lat="41.0565000" lon="-2.5976080">
        <ele>1116.4</ele>
        <time>2020-09-12T11:04:16Z</time>
      </trkpt>
      <trkpt lat="41.0565220" lon="-2.5975390">
        <ele>1116.4</ele>
        <time>2020-09-12T11:04:17Z</time>
      </trkpt>
      <trkpt lat="41.0565430" lon="-2.5974680">
        <ele>1116.4</ele>
        <time>2020-09-12T11:04:18Z</time>
      </trkpt>
      <trkpt lat="41.0565620" lon="-2.5973970">
        <ele>1116.6</ele>
        <time>2020-09-12T11:04:19Z</time>
      </trkpt>
      <trkpt lat="41.0565770" lon="-2.5973240">
        <ele>1116.6</ele>
        <time>2020-09-12T11:04:20Z</time>
      </trkpt>
      <trkpt lat="41.0565910" lon="-2.5972510">
        <ele>1116.8</ele>
        <time>2020-09-12T11:04:21Z</time>
      </trkpt>
      <trkpt lat="41.0566030" lon="-2.5971780">
        <ele>1117.0</ele>
        <time>2020-09-12T11:04:22Z</time>
      </trkpt>
      <trkpt lat="41.0566130" lon="-2.5971040">
        <ele>1117.0</ele>
        <time>2020-09-12T11:04:23Z</time>
      </trkpt>
      <trkpt lat="41.0566220" lon="-2.5970290">
        <ele>1117.2</ele>
        <time>2020-09-12T11:04:24Z</time>
      </trkpt>
      <trkpt lat="41.0566300" lon="-2.5969550">
        <ele>1117.4</ele>
        <time>2020-09-12T11:04:25Z</time>
      </trkpt>
      <trkpt lat="41.0566380" lon="-2.5968800">
        <ele>1117.6</ele>
        <time>2020-09-12T11:04:26Z</time>
      </trkpt>
      <trkpt lat="41.0566460" lon="-2.5968030">
        <ele>1117.8</ele>
        <time>2020-09-12T11:04:27Z</time>
      </trkpt>
      <trkpt lat="41.0566550" lon="-2.5967260">
        <ele>1118.0</ele>
        <time>2020-09-12T11:04:28Z</time>
      </trkpt>
      <trkpt lat="41.0566630" lon="-2.5966490">
        <ele>1118.2</ele>
        <time>2020-09-12T11:04:29Z</time>
      </trkpt>
      <trkpt lat="41.0566710" lon="-2.5965710">
        <ele>1118.6</ele>
        <time>2020-09-12T11:04:30Z</time>
      </trkpt>
      <trkpt lat="41.0566790" lon="-2.5964930">
        <ele>1118.8</ele>
        <time>2020-09-12T11:04:31Z</time>
      </trkpt>
      <trkpt lat="41.0566870" lon="-2.5964160">
        <ele>1119.0</ele>
        <time>2020-09-12T11:04:32Z</time>
      </trkpt>
      <trkpt lat="41.0566960" lon="-2.5963380">
        <ele>1119.2</ele>
        <time>2020-09-12T11:04:33Z</time>
      </trkpt>
      <trkpt lat="41.0567040" lon="-2.5962590">
        <ele>1119.2</ele>
        <time>2020-09-12T11:04:34Z</time>
      </trkpt>
      <trkpt lat="41.0567130" lon="-2.5961810">
        <ele>1119.2</ele>
        <time>2020-09-12T11:04:35Z</time>
      </trkpt>
      <trkpt lat="41.0567210" lon="-2.5961020">
        <ele>1119.2</ele>
        <time>2020-09-12T11:04:36Z</time>
      </trkpt>
      <trkpt lat="41.0567280" lon="-2.5960230">
        <ele>1119.2</ele>
        <time>2020-09-12T11:04:37Z</time>
      </trkpt>
      <trkpt lat="41.0567370" lon="-2.5959450">
        <ele>1119.4</ele>
        <time>2020-09-12T11:04:38Z</time>
      </trkpt>
      <trkpt lat="41.0567460" lon="-2.5958660">
        <ele>1119.4</ele>
        <time>2020-09-12T11:04:39Z</time>
      </trkpt>
      <trkpt lat="41.0567530" lon="-2.5957860">
        <ele>1119.4</ele>
        <time>2020-09-12T11:04:40Z</time>
      </trkpt>
      <trkpt lat="41.0567610" lon="-2.5957070">
        <ele>1119.4</ele>
        <time>2020-09-12T11:04:41Z</time>
      </trkpt>
      <trkpt lat="41.0567690" lon="-2.5956270">
        <ele>1119.6</ele>
        <time>2020-09-12T11:04:42Z</time>
      </trkpt>
      <trkpt lat="41.0567770" lon="-2.5955470">
        <ele>1119.6</ele>
        <time>2020-09-12T11:04:43Z</time>
      </trkpt>
      <trkpt lat="41.0567860" lon="-2.5954660">
        <ele>1119.6</ele>
        <time>2020-09-12T11:04:44Z</time>
      </trkpt>
      <trkpt lat="41.0567950" lon="-2.5953830">
        <ele>1119.6</ele>
        <time>2020-09-12T11:04:45Z</time>
      </trkpt>
      <trkpt lat="41.0568040" lon="-2.5952980">
        <ele>1119.6</ele>
        <time>2020-09-12T11:04:46Z</time>
      </trkpt>
      <trkpt lat="41.0568140" lon="-2.5952110">
        <ele>1119.8</ele>
        <time>2020-09-12T11:04:47Z</time>
      </trkpt>
      <trkpt lat="41.0568250" lon="-2.5951210">
        <ele>1119.8</ele>
        <time>2020-09-12T11:04:48Z</time>
      </trkpt>
      <trkpt lat="41.0568360" lon="-2.5950290">
        <ele>1119.8</ele>
        <time>2020-09-12T11:04:49Z</time>
      </trkpt>
      <trkpt lat="41.0568460" lon="-2.5949330">
        <ele>1119.6</ele>
        <time>2020-09-12T11:04:50Z</time>
      </trkpt>
      <trkpt lat="41.0568550" lon="-2.5948350">
        <ele>1119.6</ele>
        <time>2020-09-12T11:04:51Z</time>
      </trkpt>
      <trkpt lat="41.0568650" lon="-2.5947340">
        <ele>1119.6</ele>
        <time>2020-09-12T11:04:52Z</time>
      </trkpt>
      <trkpt lat="41.0568750" lon="-2.5946320">
        <ele>1119.6</ele>
        <time>2020-09-12T11:04:53Z</time>
      </trkpt>
      <trkpt lat="41.0568850" lon="-2.5945280">
        <ele>1119.6</ele>
        <time>2020-09-12T11:04:54Z</time>
      </trkpt>
      <trkpt lat="41.0568960" lon="-2.5944230">
        <ele>1119.4</ele>
        <time>2020-09-12T11:04:55Z</time>
      </trkpt>
      <trkpt lat="41.0569080" lon="-2.5943160">
        <ele>1119.4</ele>
        <time>2020-09-12T11:04:56Z</time>
      </trkpt>
      <trkpt lat="41.0569200" lon="-2.5942060">
        <ele>1119.4</ele>
        <time>2020-09-12T11:04:57Z</time>
      </trkpt>
      <trkpt lat="41.0569310" lon="-2.5940940">
        <ele>1119.4</ele>
        <time>2020-09-12T11:04:58Z</time>
      </trkpt>
      <trkpt lat="41.0569430" lon="-2.5939810">
        <ele>1119.2</ele>
        <time>2020-09-12T11:04:59Z</time>
      </trkpt>
      <trkpt lat="41.0569550" lon="-2.5938680">
        <ele>1119.0</ele>
        <time>2020-09-12T11:05:00Z</time>
      </trkpt>
      <trkpt lat="41.0569660" lon="-2.5937520">
        <ele>1119.0</ele>
        <time>2020-09-12T11:05:01Z</time>
      </trkpt>
      <trkpt lat="41.0569780" lon="-2.5936370">
        <ele>1119.0</ele>
        <time>2020-09-12T11:05:02Z</time>
      </trkpt>
      <trkpt lat="41.0569890" lon="-2.5935220">
        <ele>1118.8</ele>
        <time>2020-09-12T11:05:03Z</time>
      </trkpt>
      <trkpt lat="41.0570010" lon="-2.5934070">
        <ele>1118.6</ele>
        <time>2020-09-12T11:05:04Z</time>
      </trkpt>
      <trkpt lat="41.0570130" lon="-2.5932910">
        <ele>1118.4</ele>
        <time>2020-09-12T11:05:05Z</time>
      </trkpt>
      <trkpt lat="41.0570250" lon="-2.5931740">
        <ele>1118.4</ele>
        <time>2020-09-12T11:05:06Z</time>
      </trkpt>
      <trkpt lat="41.0570360" lon="-2.5930580">
        <ele>1118.2</ele>
        <time>2020-09-12T11:05:07Z</time>
      </trkpt>
      <trkpt lat="41.0570480" lon="-2.5929410">
        <ele>1118.0</ele>
        <time>2020-09-12T11:05:08Z</time>
      </trkpt>
      <trkpt lat="41.0570610" lon="-2.5928230">
        <ele>1117.8</ele>
        <time>2020-09-12T11:05:09Z</time>
      </trkpt>
      <trkpt lat="41.0570740" lon="-2.5927050">
        <ele>1117.8</ele>
        <time>2020-09-12T11:05:10Z</time>
      </trkpt>
      <trkpt lat="41.0570870" lon="-2.5925870">
        <ele>1117.6</ele>
        <time>2020-09-12T11:05:11Z</time>
      </trkpt>
      <trkpt lat="41.0571000" lon="-2.5924680">
        <ele>1117.4</ele>
        <time>2020-09-12T11:05:12Z</time>
      </trkpt>
      <trkpt lat="41.0571130" lon="-2.5923500">
        <ele>1117.4</ele>
        <time>2020-09-12T11:05:13Z</time>
      </trkpt>
      <trkpt lat="41.0571250" lon="-2.5922300">
        <ele>1117.4</ele>
        <time>2020-09-12T11:05:14Z</time>
      </trkpt>
      <trkpt lat="41.0571380" lon="-2.5921110">
        <ele>1117.4</ele>
        <time>2020-09-12T11:05:15Z</time>
      </trkpt>
      <trkpt lat="41.0571500" lon="-2.5919920">
        <ele>1117.4</ele>
        <time>2020-09-12T11:05:16Z</time>
      </trkpt>
      <trkpt lat="41.0571620" lon="-2.5918720">
        <ele>1117.2</ele>
        <time>2020-09-12T11:05:17Z</time>
      </trkpt>
      <trkpt lat="41.0571740" lon="-2.5917510">
        <ele>1117.2</ele>
        <time>2020-09-12T11:05:18Z</time>
      </trkpt>
      <trkpt lat="41.0571880" lon="-2.5916320">
        <ele>1117.2</ele>
        <time>2020-09-12T11:05:19Z</time>
      </trkpt>
      <trkpt lat="41.0572010" lon="-2.5915130">
        <ele>1117.0</ele>
        <time>2020-09-12T11:05:20Z</time>
      </trkpt>
      <trkpt lat="41.0572140" lon="-2.5913930">
        <ele>1116.8</ele>
        <time>2020-09-12T11:05:21Z</time>
      </trkpt>
      <trkpt lat="41.0572270" lon="-2.5912740">
        <ele>1116.6</ele>
        <time>2020-09-12T11:05:22Z</time>
      </trkpt>
      <trkpt lat="41.0572400" lon="-2.5911560">
        <ele>1116.4</ele>
        <time>2020-09-12T11:05:23Z</time>
      </trkpt>
      <trkpt lat="41.0572520" lon="-2.5910370">
        <ele>1116.2</ele>
        <time>2020-09-12T11:05:24Z</time>
      </trkpt>
      <trkpt lat="41.0572660" lon="-2.5909190">
        <ele>1116.0</ele>
        <time>2020-09-12T11:05:25Z</time>
      </trkpt>
      <trkpt lat="41.0572800" lon="-2.5908020">
        <ele>1116.0</ele>
        <time>2020-09-12T11:05:26Z</time>
      </trkpt>
      <trkpt lat="41.0572930" lon="-2.5906840">
        <ele>1115.6</ele>
        <time>2020-09-12T11:05:27Z</time>
      </trkpt>
      <trkpt lat="41.0573040" lon="-2.5905650">
        <ele>1115.4</ele>
        <time>2020-09-12T11:05:28Z</time>
      </trkpt>
      <trkpt lat="41.0573170" lon="-2.5904460">
        <ele>1115.2</ele>
        <time>2020-09-12T11:05:29Z</time>
      </trkpt>
      <trkpt lat="41.0573290" lon="-2.5903270">
        <ele>1115.0</ele>
        <time>2020-09-12T11:05:30Z</time>
      </trkpt>
      <trkpt lat="41.0573420" lon="-2.5902070">
        <ele>1114.8</ele>
        <time>2020-09-12T11:05:31Z</time>
      </trkpt>
      <trkpt lat="41.0573540" lon="-2.5900870">
        <ele>1114.6</ele>
        <time>2020-09-12T11:05:32Z</time>
      </trkpt>
      <trkpt lat="41.0573670" lon="-2.5899660">
        <ele>1114.6</ele>
        <time>2020-09-12T11:05:33Z</time>
      </trkpt>
      <trkpt lat="41.0573800" lon="-2.5898430">
        <ele>1114.4</ele>
        <time>2020-09-12T11:05:34Z</time>
      </trkpt>
      <trkpt lat="41.0573930" lon="-2.5897200">
        <ele>1114.4</ele>
        <time>2020-09-12T11:05:35Z</time>
      </trkpt>
      <trkpt lat="41.0574070" lon="-2.5895970">
        <ele>1114.2</ele>
        <time>2020-09-12T11:05:36Z</time>
      </trkpt>
      <trkpt lat="41.0574210" lon="-2.5894730">
        <ele>1114.0</ele>
        <time>2020-09-12T11:05:37Z</time>
      </trkpt>
      <trkpt lat="41.0574350" lon="-2.5893500">
        <ele>1114.0</ele>
        <time>2020-09-12T11:05:38Z</time>
      </trkpt>
      <trkpt lat="41.0574480" lon="-2.5892260">
        <ele>1113.8</ele>
        <time>2020-09-12T11:05:39Z</time>
      </trkpt>
      <trkpt lat="41.0574610" lon="-2.5891030">
        <ele>1113.8</ele>
        <time>2020-09-12T11:05:40Z</time>
      </trkpt>
      <trkpt lat="41.0574740" lon="-2.5889790">
        <ele>1113.8</ele>
        <time>2020-09-12T11:05:41Z</time>
      </trkpt>
      <trkpt lat="41.0574880" lon="-2.5888570">
        <ele>1113.6</ele>
        <time>2020-09-12T11:05:42Z</time>
      </trkpt>
      <trkpt lat="41.0575000" lon="-2.5887330">
        <ele>1113.4</ele>
        <time>2020-09-12T11:05:43Z</time>
      </trkpt>
      <trkpt lat="41.0575100" lon="-2.5886070">
        <ele>1113.0</ele>
        <time>2020-09-12T11:05:44Z</time>
      </trkpt>
      <trkpt lat="41.0575230" lon="-2.5884830">
        <ele>1113.0</ele>
        <time>2020-09-12T11:05:45Z</time>
      </trkpt>
      <trkpt lat="41.0575350" lon="-2.5883580">
        <ele>1113.0</ele>
        <time>2020-09-12T11:05:46Z</time>
      </trkpt>
      <trkpt lat="41.0575480" lon="-2.5882340">
        <ele>1112.8</ele>
        <time>2020-09-12T11:05:47Z</time>
      </trkpt>
      <trkpt lat="41.0575610" lon="-2.5881120">
        <ele>1112.8</ele>
        <time>2020-09-12T11:05:48Z</time>
      </trkpt>
      <trkpt lat="41.0575740" lon="-2.5879900">
        <ele>1112.8</ele>
        <time>2020-09-12T11:05:49Z</time>
      </trkpt>
      <trkpt lat="41.0575860" lon="-2.5878700">
        <ele>1113.0</ele>
        <time>2020-09-12T11:05:50Z</time>
      </trkpt>
      <trkpt lat="41.0575980" lon="-2.5877500">
        <ele>1113.0</ele>
        <time>2020-09-12T11:05:51Z</time>
      </trkpt>
      <trkpt lat="41.0576110" lon="-2.5876310">
        <ele>1112.8</ele>
        <time>2020-09-12T11:05:52Z</time>
      </trkpt>
      <trkpt lat="41.0576240" lon="-2.5875130">
        <ele>1112.8</ele>
        <time>2020-09-12T11:05:53Z</time>
      </trkpt>
      <trkpt lat="41.0576360" lon="-2.5873950">
        <ele>1112.6</ele>
        <time>2020-09-12T11:05:54Z</time>
      </trkpt>
      <trkpt lat="41.0576490" lon="-2.5872780">
        <ele>1112.4</ele>
        <time>2020-09-12T11:05:55Z</time>
      </trkpt>
      <trkpt lat="41.0576610" lon="-2.5871610">
        <ele>1112.2</ele>
        <time>2020-09-12T11:05:56Z</time>
      </trkpt>
      <trkpt lat="41.0576730" lon="-2.5870430">
        <ele>1112.0</ele>
        <time>2020-09-12T11:05:57Z</time>
      </trkpt>
      <trkpt lat="41.0576860" lon="-2.5869250">
        <ele>1112.0</ele>
        <time>2020-09-12T11:05:58Z</time>
      </trkpt>
      <trkpt lat="41.0576990" lon="-2.5868070">
        <ele>1111.8</ele>
        <time>2020-09-12T11:05:59Z</time>
      </trkpt>
      <trkpt lat="41.0577100" lon="-2.5866870">
        <ele>1111.8</ele>
        <time>2020-09-12T11:06:00Z</time>
      </trkpt>
      <trkpt lat="41.0577210" lon="-2.5865680">
        <ele>1111.6</ele>
        <time>2020-09-12T11:06:01Z</time>
      </trkpt>
      <trkpt lat="41.0577340" lon="-2.5864500">
        <ele>1111.6</ele>
        <time>2020-09-12T11:06:02Z</time>
      </trkpt>
      <trkpt lat="41.0577470" lon="-2.5863310">
        <ele>1111.6</ele>
        <time>2020-09-12T11:06:03Z</time>
      </trkpt>
      <trkpt lat="41.0577590" lon="-2.5862130">
        <ele>1111.6</ele>
        <time>2020-09-12T11:06:04Z</time>
      </trkpt>
      <trkpt lat="41.0577720" lon="-2.5860940">
        <ele>1111.6</ele>
        <time>2020-09-12T11:06:05Z</time>
      </trkpt>
      <trkpt lat="41.0577860" lon="-2.5859760">
        <ele>1111.6</ele>
        <time>2020-09-12T11:06:06Z</time>
      </trkpt>
      <trkpt lat="41.0578000" lon="-2.5858570">
        <ele>1111.6</ele>
        <time>2020-09-12T11:06:07Z</time>
      </trkpt>
      <trkpt lat="41.0578130" lon="-2.5857370">
        <ele>1111.6</ele>
        <time>2020-09-12T11:06:08Z</time>
      </trkpt>
      <trkpt lat="41.0578260" lon="-2.5856160">
        <ele>1111.4</ele>
        <time>2020-09-12T11:06:09Z</time>
      </trkpt>
      <trkpt lat="41.0578390" lon="-2.5854950">
        <ele>1111.4</ele>
        <time>2020-09-12T11:06:10Z</time>
      </trkpt>
      <trkpt lat="41.0578510" lon="-2.5853740">
        <ele>1111.2</ele>
        <time>2020-09-12T11:06:11Z</time>
      </trkpt>
      <trkpt lat="41.0578640" lon="-2.5852520">
        <ele>1111.2</ele>
        <time>2020-09-12T11:06:12Z</time>
      </trkpt>
      <trkpt lat="41.0578760" lon="-2.5851300">
        <ele>1111.0</ele>
        <time>2020-09-12T11:06:13Z</time>
      </trkpt>
      <trkpt lat="41.0578890" lon="-2.5850080">
        <ele>1111.0</ele>
        <time>2020-09-12T11:06:14Z</time>
      </trkpt>
      <trkpt lat="41.0579010" lon="-2.5848860">
        <ele>1111.0</ele>
        <time>2020-09-12T11:06:15Z</time>
      </trkpt>
      <trkpt lat="41.0579140" lon="-2.5847640">
        <ele>1110.8</ele>
        <time>2020-09-12T11:06:16Z</time>
      </trkpt>
      <trkpt lat="41.0579270" lon="-2.5846420">
        <ele>1110.8</ele>
        <time>2020-09-12T11:06:17Z</time>
      </trkpt>
      <trkpt lat="41.0579410" lon="-2.5845210">
        <ele>1110.8</ele>
        <time>2020-09-12T11:06:18Z</time>
      </trkpt>
      <trkpt lat="41.0579570" lon="-2.5844000">
        <ele>1110.8</ele>
        <time>2020-09-12T11:06:19Z</time>
      </trkpt>
      <trkpt lat="41.0579730" lon="-2.5842790">
        <ele>1110.8</ele>
        <time>2020-09-12T11:06:20Z</time>
      </trkpt>
      <trkpt lat="41.0579910" lon="-2.5841590">
        <ele>1110.8</ele>
        <time>2020-09-12T11:06:21Z</time>
      </trkpt>
      <trkpt lat="41.0580110" lon="-2.5840390">
        <ele>1110.8</ele>
        <time>2020-09-12T11:06:22Z</time>
      </trkpt>
      <trkpt lat="41.0580340" lon="-2.5839190">
        <ele>1110.8</ele>
        <time>2020-09-12T11:06:23Z</time>
      </trkpt>
      <trkpt lat="41.0580600" lon="-2.5837980">
        <ele>1110.6</ele>
        <time>2020-09-12T11:06:24Z</time>
      </trkpt>
      <trkpt lat="41.0580870" lon="-2.5836750">
        <ele>1110.6</ele>
        <time>2020-09-12T11:06:25Z</time>
      </trkpt>
      <trkpt lat="41.0581160" lon="-2.5835490">
        <ele>1110.4</ele>
        <time>2020-09-12T11:06:26Z</time>
      </trkpt>
      <trkpt lat="41.0581460" lon="-2.5834210">
        <ele>1110.4</ele>
        <time>2020-09-12T11:06:27Z</time>
      </trkpt>
      <trkpt lat="41.0581790" lon="-2.5832920">
        <ele>1110.4</ele>
        <time>2020-09-12T11:06:28Z</time>
      </trkpt>
      <trkpt lat="41.0582110" lon="-2.5831590">
        <ele>1110.2</ele>
        <time>2020-09-12T11:06:29Z</time>
      </trkpt>
      <trkpt lat="41.0582430" lon="-2.5830220">
        <ele>1110.2</ele>
        <time>2020-09-12T11:06:30Z</time>
      </trkpt>
      <trkpt lat="41.0582740" lon="-2.5828830">
        <ele>1110.0</ele>
        <time>2020-09-12T11:06:31Z</time>
      </trkpt>
      <trkpt lat="41.0583070" lon="-2.5827430">
        <ele>1110.0</ele>
        <time>2020-09-12T11:06:32Z</time>
      </trkpt>
      <trkpt lat="41.0583400" lon="-2.5826030">
        <ele>1110.0</ele>
        <time>2020-09-12T11:06:33Z</time>
      </trkpt>
      <trkpt lat="41.0583740" lon="-2.5824630">
        <ele>1109.6</ele>
        <time>2020-09-12T11:06:34Z</time>
      </trkpt>
      <trkpt lat="41.0584080" lon="-2.5823230">
        <ele>1109.4</ele>
        <time>2020-09-12T11:06:35Z</time>
      </trkpt>
      <trkpt lat="41.0584410" lon="-2.5821810">
        <ele>1109.0</ele>
        <time>2020-09-12T11:06:36Z</time>
      </trkpt>
      <trkpt lat="41.0584740" lon="-2.5820410">
        <ele>1108.6</ele>
        <time>2020-09-12T11:06:37Z</time>
      </trkpt>
      <trkpt lat="41.0585060" lon="-2.5819010">
        <ele>1108.2</ele>
        <time>2020-09-12T11:06:38Z</time>
      </trkpt>
      <trkpt lat="41.0585390" lon="-2.5817630">
        <ele>1107.8</ele>
        <time>2020-09-12T11:06:39Z</time>
      </trkpt>
      <trkpt lat="41.0585710" lon="-2.5816260">
        <ele>1107.6</ele>
        <time>2020-09-12T11:06:40Z</time>
      </trkpt>
      <trkpt lat="41.0586020" lon="-2.5814900">
        <ele>1107.4</ele>
        <time>2020-09-12T11:06:41Z</time>
      </trkpt>
      <trkpt lat="41.0586320" lon="-2.5813550">
        <ele>1107.2</ele>
        <time>2020-09-12T11:06:42Z</time>
      </trkpt>
      <trkpt lat="41.0586640" lon="-2.5812220">
        <ele>1107.2</ele>
        <time>2020-09-12T11:06:43Z</time>
      </trkpt>
      <trkpt lat="41.0586940" lon="-2.5810900">
        <ele>1107.2</ele>
        <time>2020-09-12T11:06:44Z</time>
      </trkpt>
      <trkpt lat="41.0587250" lon="-2.5809600">
        <ele>1107.0</ele>
        <time>2020-09-12T11:06:45Z</time>
      </trkpt>
      <trkpt lat="41.0587540" lon="-2.5808300">
        <ele>1107.0</ele>
        <time>2020-09-12T11:06:46Z</time>
      </trkpt>
      <trkpt lat="41.0587820" lon="-2.5807020">
        <ele>1107.0</ele>
        <time>2020-09-12T11:06:47Z</time>
      </trkpt>
      <trkpt lat="41.0588120" lon="-2.5805780">
        <ele>1107.0</ele>
        <time>2020-09-12T11:06:48Z</time>
      </trkpt>
      <trkpt lat="41.0588420" lon="-2.5804540">
        <ele>1107.0</ele>
        <time>2020-09-12T11:06:49Z</time>
      </trkpt>
      <trkpt lat="41.0588710" lon="-2.5803310">
        <ele>1107.0</ele>
        <time>2020-09-12T11:06:50Z</time>
      </trkpt>
      <trkpt lat="41.0588990" lon="-2.5802080">
        <ele>1106.8</ele>
        <time>2020-09-12T11:06:51Z</time>
      </trkpt>
      <trkpt lat="41.0589260" lon="-2.5800880">
        <ele>1106.8</ele>
        <time>2020-09-12T11:06:52Z</time>
      </trkpt>
      <trkpt lat="41.0589530" lon="-2.5799700">
        <ele>1107.0</ele>
        <time>2020-09-12T11:06:53Z</time>
      </trkpt>
      <trkpt lat="41.0589780" lon="-2.5798540">
        <ele>1107.0</ele>
        <time>2020-09-12T11:06:54Z</time>
      </trkpt>
      <trkpt lat="41.0590040" lon="-2.5797420">
        <ele>1107.0</ele>
        <time>2020-09-12T11:06:55Z</time>
      </trkpt>
      <trkpt lat="41.0590290" lon="-2.5796300">
        <ele>1107.0</ele>
        <time>2020-09-12T11:06:56Z</time>
      </trkpt>
      <trkpt lat="41.0590530" lon="-2.5795210">
        <ele>1107.0</ele>
        <time>2020-09-12T11:06:57Z</time>
      </trkpt>
      <trkpt lat="41.0590760" lon="-2.5794130">
        <ele>1107.2</ele>
        <time>2020-09-12T11:06:58Z</time>
      </trkpt>
      <trkpt lat="41.0591000" lon="-2.5793080">
        <ele>1107.4</ele>
        <time>2020-09-12T11:06:59Z</time>
      </trkpt>
      <trkpt lat="41.0591220" lon="-2.5792050">
        <ele>1107.4</ele>
        <time>2020-09-12T11:07:00Z</time>
      </trkpt>
      <trkpt lat="41.0591450" lon="-2.5791040">
        <ele>1107.6</ele>
        <time>2020-09-12T11:07:01Z</time>
      </trkpt>
      <trkpt lat="41.0591670" lon="-2.5790060">
        <ele>1107.6</ele>
        <time>2020-09-12T11:07:02Z</time>
      </trkpt>
      <trkpt lat="41.0591880" lon="-2.5789070">
        <ele>1107.6</ele>
        <time>2020-09-12T11:07:03Z</time>
      </trkpt>
      <trkpt lat="41.0592100" lon="-2.5788130">
        <ele>1107.6</ele>
        <time>2020-09-12T11:07:04Z</time>
      </trkpt>
      <trkpt lat="41.0592320" lon="-2.5787200">
        <ele>1107.8</ele>
        <time>2020-09-12T11:07:05Z</time>
      </trkpt>
      <trkpt lat="41.0592520" lon="-2.5786270">
        <ele>1107.8</ele>
        <time>2020-09-12T11:07:06Z</time>
      </trkpt>
      <trkpt lat="41.0592720" lon="-2.5785350">
        <ele>1107.6</ele>
        <time>2020-09-12T11:07:07Z</time>
      </trkpt>
      <trkpt lat="41.0592930" lon="-2.5784430">
        <ele>1107.8</ele>
        <time>2020-09-12T11:07:08Z</time>
      </trkpt>
      <trkpt lat="41.0593120" lon="-2.5783530">
        <ele>1108.0</ele>
        <time>2020-09-12T11:07:09Z</time>
      </trkpt>
      <trkpt lat="41.0593330" lon="-2.5782640">
        <ele>1108.2</ele>
        <time>2020-09-12T11:07:10Z</time>
      </trkpt>
      <trkpt lat="41.0593530" lon="-2.5781760">
        <ele>1108.4</ele>
        <time>2020-09-12T11:07:11Z</time>
      </trkpt>
      <trkpt lat="41.0593730" lon="-2.5780900">
        <ele>1108.8</ele>
        <time>2020-09-12T11:07:12Z</time>
      </trkpt>
      <trkpt lat="41.0593940" lon="-2.5780040">
        <ele>1109.0</ele>
        <time>2020-09-12T11:07:13Z</time>
      </trkpt>
      <trkpt lat="41.0594170" lon="-2.5779230">
        <ele>1109.2</ele>
        <time>2020-09-12T11:07:14Z</time>
      </trkpt>
      <trkpt lat="41.0594390" lon="-2.5778420">
        <ele>1109.4</ele>
        <time>2020-09-12T11:07:15Z</time>
      </trkpt>
      <trkpt lat="41.0594610" lon="-2.5777620">
        <ele>1109.6</ele>
        <time>2020-09-12T11:07:16Z</time>
      </trkpt>
      <trkpt lat="41.0594820" lon="-2.5776790">
        <ele>1109.8</ele>
        <time>2020-09-12T11:07:17Z</time>
      </trkpt>
      <trkpt lat="41.0595030" lon="-2.5775950">
        <ele>1110.0</ele>
        <time>2020-09-12T11:07:18Z</time>
      </trkpt>
      <trkpt lat="41.0595220" lon="-2.5775100">
        <ele>1110.2</ele>
        <time>2020-09-12T11:07:19Z</time>
      </trkpt>
      <trkpt lat="41.0595430" lon="-2.5774260">
        <ele>1110.4</ele>
        <time>2020-09-12T11:07:20Z</time>
      </trkpt>
      <trkpt lat="41.0595630" lon="-2.5773420">
        <ele>1110.6</ele>
        <time>2020-09-12T11:07:21Z</time>
      </trkpt>
      <trkpt lat="41.0595830" lon="-2.5772570">
        <ele>1110.8</ele>
        <time>2020-09-12T11:07:22Z</time>
      </trkpt>
      <trkpt lat="41.0596020" lon="-2.5771720">
        <ele>1111.0</ele>
        <time>2020-09-12T11:07:23Z</time>
      </trkpt>
      <trkpt lat="41.0596210" lon="-2.5770870">
        <ele>1111.2</ele>
        <time>2020-09-12T11:07:24Z</time>
      </trkpt>
      <trkpt lat="41.0596410" lon="-2.5770040">
        <ele>1111.4</ele>
        <time>2020-09-12T11:07:25Z</time>
      </trkpt>
      <trkpt lat="41.0596610" lon="-2.5769220">
        <ele>1111.6</ele>
        <time>2020-09-12T11:07:26Z</time>
      </trkpt>
      <trkpt lat="41.0596800" lon="-2.5768390">
        <ele>1111.8</ele>
        <time>2020-09-12T11:07:27Z</time>
      </trkpt>
      <trkpt lat="41.0596990" lon="-2.5767580">
        <ele>1112.0</ele>
        <time>2020-09-12T11:07:28Z</time>
      </trkpt>
      <trkpt lat="41.0597180" lon="-2.5766760">
        <ele>1112.2</ele>
        <time>2020-09-12T11:07:29Z</time>
      </trkpt>
      <trkpt lat="41.0597360" lon="-2.5765950">
        <ele>1112.4</ele>
        <time>2020-09-12T11:07:30Z</time>
      </trkpt>
      <trkpt lat="41.0597540" lon="-2.5765130">
        <ele>1112.4</ele>
        <time>2020-09-12T11:07:31Z</time>
      </trkpt>
      <trkpt lat="41.0597730" lon="-2.5764320">
        <ele>1112.4</ele>
        <time>2020-09-12T11:07:32Z</time>
      </trkpt>
      <trkpt lat="41.0597920" lon="-2.5763530">
        <ele>1112.6</ele>
        <time>2020-09-12T11:07:33Z</time>
      </trkpt>
      <trkpt lat="41.0598110" lon="-2.5762720">
        <ele>1112.8</ele>
        <time>2020-09-12T11:07:34Z</time>
      </trkpt>
      <trkpt lat="41.0598300" lon="-2.5761930">
        <ele>1113.0</ele>
        <time>2020-09-12T11:07:35Z</time>
      </trkpt>
      <trkpt lat="41.0598490" lon="-2.5761130">
        <ele>1113.0</ele>
        <time>2020-09-12T11:07:36Z</time>
      </trkpt>
      <trkpt lat="41.0598680" lon="-2.5760320">
        <ele>1113.2</ele>
        <time>2020-09-12T11:07:37Z</time>
      </trkpt>
      <trkpt lat="41.0598860" lon="-2.5759520">
        <ele>1113.4</ele>
        <time>2020-09-12T11:07:38Z</time>
      </trkpt>
      <trkpt lat="41.0599040" lon="-2.5758720">
        <ele>1113.6</ele>
        <time>2020-09-12T11:07:39Z</time>
      </trkpt>
      <trkpt lat="41.0599230" lon="-2.5757930">
        <ele>1113.8</ele>
        <time>2020-09-12T11:07:40Z</time>
      </trkpt>
      <trkpt lat="41.0599420" lon="-2.5757140">
        <ele>1114.0</ele>
        <time>2020-09-12T11:07:41Z</time>
      </trkpt>
      <trkpt lat="41.0599600" lon="-2.5756340">
        <ele>1114.2</ele>
        <time>2020-09-12T11:07:42Z</time>
      </trkpt>
      <trkpt lat="41.0599790" lon="-2.5755550">
        <ele>1114.4</ele>
        <time>2020-09-12T11:07:43Z</time>
      </trkpt>
      <trkpt lat="41.0599980" lon="-2.5754750">
        <ele>1114.6</ele>
        <time>2020-09-12T11:07:44Z</time>
      </trkpt>
      <trkpt lat="41.0600160" lon="-2.5753940">
        <ele>1114.6</ele>
        <time>2020-09-12T11:07:45Z</time>
      </trkpt>
      <trkpt lat="41.0600340" lon="-2.5753140">
        <ele>1114.6</ele>
        <time>2020-09-12T11:07:46Z</time>
      </trkpt>
      <trkpt lat="41.0600520" lon="-2.5752340">
        <ele>1114.8</ele>
        <time>2020-09-12T11:07:47Z</time>
      </trkpt>
      <trkpt lat="41.0600710" lon="-2.5751550">
        <ele>1114.8</ele>
        <time>2020-09-12T11:07:48Z</time>
      </trkpt>
      <trkpt lat="41.0600890" lon="-2.5750760">
        <ele>1114.8</ele>
        <time>2020-09-12T11:07:49Z</time>
      </trkpt>
      <trkpt lat="41.0601070" lon="-2.5749980">
        <ele>1115.0</ele>
        <time>2020-09-12T11:07:50Z</time>
      </trkpt>
      <trkpt lat="41.0601240" lon="-2.5749190">
        <ele>1115.4</ele>
        <time>2020-09-12T11:07:51Z</time>
      </trkpt>
      <trkpt lat="41.0601420" lon="-2.5748410">
        <ele>1115.6</ele>
        <time>2020-09-12T11:07:52Z</time>
      </trkpt>
      <trkpt lat="41.0601610" lon="-2.5747640">
        <ele>1115.8</ele>
        <time>2020-09-12T11:07:53Z</time>
      </trkpt>
      <trkpt lat="41.0601800" lon="-2.5746890">
        <ele>1115.8</ele>
        <time>2020-09-12T11:07:54Z</time>
      </trkpt>
      <trkpt lat="41.0601980" lon="-2.5746150">
        <ele>1116.0</ele>
        <time>2020-09-12T11:07:55Z</time>
      </trkpt>
      <trkpt lat="41.0602150" lon="-2.5745410">
        <ele>1116.0</ele>
        <time>2020-09-12T11:07:56Z</time>
      </trkpt>
      <trkpt lat="41.0602310" lon="-2.5744670">
        <ele>1116.0</ele>
        <time>2020-09-12T11:07:57Z</time>
      </trkpt>
      <trkpt lat="41.0602480" lon="-2.5743930">
        <ele>1116.2</ele>
        <time>2020-09-12T11:07:58Z</time>
      </trkpt>
      <trkpt lat="41.0602650" lon="-2.5743170">
        <ele>1116.4</ele>
        <time>2020-09-12T11:07:59Z</time>
      </trkpt>
      <trkpt lat="41.0602810" lon="-2.5742420">
        <ele>1116.6</ele>
        <time>2020-09-12T11:08:00Z</time>
      </trkpt>
      <trkpt lat="41.0602980" lon="-2.5741670">
        <ele>1117.2</ele>
        <time>2020-09-12T11:08:01Z</time>
      </trkpt>
      <trkpt lat="41.0603150" lon="-2.5740910">
        <ele>1117.6</ele>
        <time>2020-09-12T11:08:02Z</time>
      </trkpt>
      <trkpt lat="41.0603320" lon="-2.5740160">
        <ele>1118.0</ele>
        <time>2020-09-12T11:08:03Z</time>
      </trkpt>
      <trkpt lat="41.0603490" lon="-2.5739400">
        <ele>1118.2</ele>
        <time>2020-09-12T11:08:04Z</time>
      </trkpt>
      <trkpt lat="41.0603650" lon="-2.5738650">
        <ele>1118.2</ele>
        <time>2020-09-12T11:08:05Z</time>
      </trkpt>
      <trkpt lat="41.0603820" lon="-2.5737910">
        <ele>1118.2</ele>
        <time>2020-09-12T11:08:06Z</time>
      </trkpt>
      <trkpt lat="41.0603990" lon="-2.5737160">
        <ele>1118.4</ele>
        <time>2020-09-12T11:08:07Z</time>
      </trkpt>
      <trkpt lat="41.0604170" lon="-2.5736400">
        <ele>1118.4</ele>
        <time>2020-09-12T11:08:08Z</time>
      </trkpt>
      <trkpt lat="41.0604340" lon="-2.5735640">
        <ele>1118.4</ele>
        <time>2020-09-12T11:08:09Z</time>
      </trkpt>
      <trkpt lat="41.0604530" lon="-2.5734890">
        <ele>1118.4</ele>
        <time>2020-09-12T11:08:10Z</time>
      </trkpt>
      <trkpt lat="41.0604710" lon="-2.5734120">
        <ele>1118.4</ele>
        <time>2020-09-12T11:08:11Z</time>
      </trkpt>
      <trkpt lat="41.0604890" lon="-2.5733340">
        <ele>1118.6</ele>
        <time>2020-09-12T11:08:12Z</time>
      </trkpt>
      <trkpt lat="41.0605060" lon="-2.5732560">
        <ele>1118.6</ele>
        <time>2020-09-12T11:08:13Z</time>
      </trkpt>
      <trkpt lat="41.0605230" lon="-2.5731770">
        <ele>1118.8</ele>
        <time>2020-09-12T11:08:14Z</time>
      </trkpt>
      <trkpt lat="41.0605410" lon="-2.5730980">
        <ele>1118.8</ele>
        <time>2020-09-12T11:08:15Z</time>
      </trkpt>
      <trkpt lat="41.0605580" lon="-2.5730190">
        <ele>1118.6</ele>
        <time>2020-09-12T11:08:16Z</time>
      </trkpt>
      <trkpt lat="41.0605760" lon="-2.5729400">
        <ele>1118.8</ele>
        <time>2020-09-12T11:08:17Z</time>
      </trkpt>
      <trkpt lat="41.0605940" lon="-2.5728590">
        <ele>1118.8</ele>
        <time>2020-09-12T11:08:18Z</time>
      </trkpt>
      <trkpt lat="41.0606130" lon="-2.5727790">
        <ele>1118.8</ele>
        <time>2020-09-12T11:08:19Z</time>
      </trkpt>
      <trkpt lat="41.0606310" lon="-2.5726960">
        <ele>1118.8</ele>
        <time>2020-09-12T11:08:20Z</time>
      </trkpt>
      <trkpt lat="41.0606500" lon="-2.5726140">
        <ele>1119.0</ele>
        <time>2020-09-12T11:08:21Z</time>
      </trkpt>
      <trkpt lat="41.0606690" lon="-2.5725320">
        <ele>1119.2</ele>
        <time>2020-09-12T11:08:22Z</time>
      </trkpt>
      <trkpt lat="41.0606880" lon="-2.5724480">
        <ele>1119.2</ele>
        <time>2020-09-12T11:08:23Z</time>
      </trkpt>
      <trkpt lat="41.0607070" lon="-2.5723640">
        <ele>1119.2</ele>
        <time>2020-09-12T11:08:24Z</time>
      </trkpt>
      <trkpt lat="41.0607260" lon="-2.5722800">
        <ele>1119.2</ele>
        <time>2020-09-12T11:08:25Z</time>
      </trkpt>
      <trkpt lat="41.0607450" lon="-2.5721950">
        <ele>1119.4</ele>
        <time>2020-09-12T11:08:26Z</time>
      </trkpt>
      <trkpt lat="41.0607640" lon="-2.5721090">
        <ele>1119.4</ele>
        <time>2020-09-12T11:08:27Z</time>
      </trkpt>
      <trkpt lat="41.0607830" lon="-2.5720230">
        <ele>1119.4</ele>
        <time>2020-09-12T11:08:28Z</time>
      </trkpt>
      <trkpt lat="41.0608030" lon="-2.5719370">
        <ele>1119.6</ele>
        <time>2020-09-12T11:08:29Z</time>
      </trkpt>
      <trkpt lat="41.0608240" lon="-2.5718510">
        <ele>1119.8</ele>
        <time>2020-09-12T11:08:30Z</time>
      </trkpt>
      <trkpt lat="41.0608440" lon="-2.5717640">
        <ele>1119.8</ele>
        <time>2020-09-12T11:08:31Z</time>
      </trkpt>
      <trkpt lat="41.0608640" lon="-2.5716750">
        <ele>1120.0</ele>
        <time>2020-09-12T11:08:32Z</time>
      </trkpt>
      <trkpt lat="41.0608840" lon="-2.5715860">
        <ele>1120.0</ele>
        <time>2020-09-12T11:08:33Z</time>
      </trkpt>
      <trkpt lat="41.0609050" lon="-2.5714960">
        <ele>1120.2</ele>
        <time>2020-09-12T11:08:34Z</time>
      </trkpt>
      <trkpt lat="41.0609260" lon="-2.5714050">
        <ele>1120.2</ele>
        <time>2020-09-12T11:08:35Z</time>
      </trkpt>
      <trkpt lat="41.0609470" lon="-2.5713120">
        <ele>1120.2</ele>
        <time>2020-09-12T11:08:36Z</time>
      </trkpt>
      <trkpt lat="41.0609680" lon="-2.5712160">
        <ele>1120.4</ele>
        <time>2020-09-12T11:08:37Z</time>
      </trkpt>
      <trkpt lat="41.0609910" lon="-2.5711200">
        <ele>1120.4</ele>
        <time>2020-09-12T11:08:38Z</time>
      </trkpt>
      <trkpt lat="41.0610140" lon="-2.5710200">
        <ele>1120.4</ele>
        <time>2020-09-12T11:08:39Z</time>
      </trkpt>
      <trkpt lat="41.0610370" lon="-2.5709190">
        <ele>1120.2</ele>
        <time>2020-09-12T11:08:40Z</time>
      </trkpt>
      <trkpt lat="41.0610610" lon="-2.5708160">
        <ele>1120.2</ele>
        <time>2020-09-12T11:08:41Z</time>
      </trkpt>
      <trkpt lat="41.0610850" lon="-2.5707100">
        <ele>1120.0</ele>
        <time>2020-09-12T11:08:42Z</time>
      </trkpt>
      <trkpt lat="41.0611100" lon="-2.5706050">
        <ele>1119.8</ele>
        <time>2020-09-12T11:08:43Z</time>
      </trkpt>
      <trkpt lat="41.0611350" lon="-2.5704980">
        <ele>1119.6</ele>
        <time>2020-09-12T11:08:44Z</time>
      </trkpt>
      <trkpt lat="41.0611610" lon="-2.5703880">
        <ele>1119.4</ele>
        <time>2020-09-12T11:08:45Z</time>
      </trkpt>
      <trkpt lat="41.0611860" lon="-2.5702760">
        <ele>1119.4</ele>
        <time>2020-09-12T11:08:46Z</time>
      </trkpt>
      <trkpt lat="41.0612110" lon="-2.5701610">
        <ele>1119.2</ele>
        <time>2020-09-12T11:08:47Z</time>
      </trkpt>
      <trkpt lat="41.0612370" lon="-2.5700440">
        <ele>1118.8</ele>
        <time>2020-09-12T11:08:48Z</time>
      </trkpt>
      <trkpt lat="41.0612640" lon="-2.5699270">
        <ele>1118.4</ele>
        <time>2020-09-12T11:08:49Z</time>
      </trkpt>
      <trkpt lat="41.0612910" lon="-2.5698080">
        <ele>1118.2</ele>
        <time>2020-09-12T11:08:50Z</time>
      </trkpt>
      <trkpt lat="41.0613190" lon="-2.5696870">
        <ele>1118.0</ele>
        <time>2020-09-12T11:08:51Z</time>
      </trkpt>
      <trkpt lat="41.0613470" lon="-2.5695640">
        <ele>1117.8</ele>
        <time>2020-09-12T11:08:52Z</time>
      </trkpt>
      <trkpt lat="41.0613750" lon="-2.5694400">
        <ele>1117.8</ele>
        <time>2020-09-12T11:08:53Z</time>
      </trkpt>
      <trkpt lat="41.0614040" lon="-2.5693150">
        <ele>1117.6</ele>
        <time>2020-09-12T11:08:54Z</time>
      </trkpt>
      <trkpt lat="41.0614330" lon="-2.5691900">
        <ele>1117.4</ele>
        <time>2020-09-12T11:08:55Z</time>
      </trkpt>
      <trkpt lat="41.0614630" lon="-2.5690630">
        <ele>1117.4</ele>
        <time>2020-09-12T11:08:56Z</time>
      </trkpt>
      <trkpt lat="41.0614920" lon="-2.5689360">
        <ele>1117.0</ele>
        <time>2020-09-12T11:08:57Z</time>
      </trkpt>
      <trkpt lat="41.0615210" lon="-2.5688080">
        <ele>1117.0</ele>
        <time>2020-09-12T11:08:58Z</time>
      </trkpt>
      <trkpt lat="41.0615500" lon="-2.5686790">
        <ele>1116.8</ele>
        <time>2020-09-12T11:08:59Z</time>
      </trkpt>
      <trkpt lat="41.0615800" lon="-2.5685480">
        <ele>1116.6</ele>
        <time>2020-09-12T11:09:00Z</time>
      </trkpt>
      <trkpt lat="41.0616090" lon="-2.5684160">
        <ele>1116.6</ele>
        <time>2020-09-12T11:09:01Z</time>
      </trkpt>
      <trkpt lat="41.0616400" lon="-2.5682840">
        <ele>1116.4</ele>
        <time>2020-09-12T11:09:02Z</time>
      </trkpt>
      <trkpt lat="41.0616720" lon="-2.5681500">
        <ele>1116.2</ele>
        <time>2020-09-12T11:09:03Z</time>
      </trkpt>
      <trkpt lat="41.0617040" lon="-2.5680160">
        <ele>1115.8</ele>
        <time>2020-09-12T11:09:04Z</time>
      </trkpt>
      <trkpt lat="41.0617350" lon="-2.5678800">
        <ele>1115.6</ele>
        <time>2020-09-12T11:09:05Z</time>
      </trkpt>
      <trkpt lat="41.0617670" lon="-2.5677460">
        <ele>1115.2</ele>
        <time>2020-09-12T11:09:06Z</time>
      </trkpt>
      <trkpt lat="41.0617970" lon="-2.5676100">
        <ele>1115.0</ele>
        <time>2020-09-12T11:09:07Z</time>
      </trkpt>
      <trkpt lat="41.0618280" lon="-2.5674750">
        <ele>1114.8</ele>
        <time>2020-09-12T11:09:08Z</time>
      </trkpt>
      <trkpt lat="41.0618600" lon="-2.5673400">
        <ele>1114.6</ele>
        <time>2020-09-12T11:09:09Z</time>
      </trkpt>
      <trkpt lat="41.0618900" lon="-2.5672060">
        <ele>1114.6</ele>
        <time>2020-09-12T11:09:10Z</time>
      </trkpt>
      <trkpt lat="41.0619190" lon="-2.5670730">
        <ele>1114.6</ele>
        <time>2020-09-12T11:09:11Z</time>
      </trkpt>
      <trkpt lat="41.0619480" lon="-2.5669410">
        <ele>1114.4</ele>
        <time>2020-09-12T11:09:12Z</time>
      </trkpt>
      <trkpt lat="41.0619790" lon="-2.5668110">
        <ele>1114.4</ele>
        <time>2020-09-12T11:09:13Z</time>
      </trkpt>
      <trkpt lat="41.0620100" lon="-2.5666820">
        <ele>1114.4</ele>
        <time>2020-09-12T11:09:14Z</time>
      </trkpt>
      <trkpt lat="41.0620390" lon="-2.5665540">
        <ele>1114.4</ele>
        <time>2020-09-12T11:09:15Z</time>
      </trkpt>
      <trkpt lat="41.0620680" lon="-2.5664250">
        <ele>1114.4</ele>
        <time>2020-09-12T11:09:16Z</time>
      </trkpt>
      <trkpt lat="41.0620970" lon="-2.5662980">
        <ele>1114.2</ele>
        <time>2020-09-12T11:09:17Z</time>
      </trkpt>
      <trkpt lat="41.0621250" lon="-2.5661720">
        <ele>1114.2</ele>
        <time>2020-09-12T11:09:18Z</time>
      </trkpt>
      <trkpt lat="41.0621530" lon="-2.5660480">
        <ele>1114.2</ele>
        <time>2020-09-12T11:09:19Z</time>
      </trkpt>
      <trkpt lat="41.0621800" lon="-2.5659250">
        <ele>1114.2</ele>
        <time>2020-09-12T11:09:20Z</time>
      </trkpt>
      <trkpt lat="41.0622070" lon="-2.5658040">
        <ele>1114.0</ele>
        <time>2020-09-12T11:09:21Z</time>
      </trkpt>
      <trkpt lat="41.0622330" lon="-2.5656840">
        <ele>1114.0</ele>
        <time>2020-09-12T11:09:22Z</time>
      </trkpt>
      <trkpt lat="41.0622620" lon="-2.5655660">
        <ele>1114.0</ele>
        <time>2020-09-12T11:09:23Z</time>
      </trkpt>
      <trkpt lat="41.0622890" lon="-2.5654480">
        <ele>1114.0</ele>
        <time>2020-09-12T11:09:24Z</time>
      </trkpt>
      <trkpt lat="41.0623160" lon="-2.5653320">
        <ele>1113.8</ele>
        <time>2020-09-12T11:09:25Z</time>
      </trkpt>
      <trkpt lat="41.0623420" lon="-2.5652180">
        <ele>1113.8</ele>
        <time>2020-09-12T11:09:26Z</time>
      </trkpt>
      <trkpt lat="41.0623680" lon="-2.5651040">
        <ele>1113.8</ele>
        <time>2020-09-12T11:09:27Z</time>
      </trkpt>
      <trkpt lat="41.0623970" lon="-2.5649940">
        <ele>1113.8</ele>
        <time>2020-09-12T11:09:28Z</time>
      </trkpt>
      <trkpt lat="41.0624290" lon="-2.5648870">
        <ele>1113.8</ele>
        <time>2020-09-12T11:09:29Z</time>
      </trkpt>
      <trkpt lat="41.0624640" lon="-2.5647810">
        <ele>1113.8</ele>
        <time>2020-09-12T11:09:30Z</time>
      </trkpt>
      <trkpt lat="41.0625000" lon="-2.5646770">
        <ele>1113.8</ele>
        <time>2020-09-12T11:09:31Z</time>
      </trkpt>
      <trkpt lat="41.0625390" lon="-2.5645760">
        <ele>1114.0</ele>
        <time>2020-09-12T11:09:32Z</time>
      </trkpt>
      <trkpt lat="41.0625800" lon="-2.5644780">
        <ele>1114.2</ele>
        <time>2020-09-12T11:09:33Z</time>
      </trkpt>
      <trkpt lat="41.0626220" lon="-2.5643820">
        <ele>1114.4</ele>
        <time>2020-09-12T11:09:34Z</time>
      </trkpt>
      <trkpt lat="41.0626660" lon="-2.5642910">
        <ele>1114.6</ele>
        <time>2020-09-12T11:09:35Z</time>
      </trkpt>
      <trkpt lat="41.0627110" lon="-2.5642000">
        <ele>1114.8</ele>
        <time>2020-09-12T11:09:36Z</time>
      </trkpt>
      <trkpt lat="41.0627540" lon="-2.5641090">
        <ele>1115.0</ele>
        <time>2020-09-12T11:09:37Z</time>
      </trkpt>
      <trkpt lat="41.0627960" lon="-2.5640180">
        <ele>1115.2</ele>
        <time>2020-09-12T11:09:38Z</time>
      </trkpt>
      <trkpt lat="41.0628400" lon="-2.5639300">
        <ele>1115.4</ele>
        <time>2020-09-12T11:09:39Z</time>
      </trkpt>
      <trkpt lat="41.0628830" lon="-2.5638430">
        <ele>1115.4</ele>
        <time>2020-09-12T11:09:40Z</time>
      </trkpt>
      <trkpt lat="41.0629270" lon="-2.5637550">
        <ele>1115.6</ele>
        <time>2020-09-12T11:09:41Z</time>
      </trkpt>
      <trkpt lat="41.0629700" lon="-2.5636660">
        <ele>1115.6</ele>
        <time>2020-09-12T11:09:42Z</time>
      </trkpt>
      <trkpt lat="41.0630130" lon="-2.5635780">
        <ele>1115.8</ele>
        <time>2020-09-12T11:09:43Z</time>
      </trkpt>
      <trkpt lat="41.0630550" lon="-2.5634920">
        <ele>1115.8</ele>
        <time>2020-09-12T11:09:44Z</time>
      </trkpt>
      <trkpt lat="41.0630970" lon="-2.5634050">
        <ele>1116.0</ele>
        <time>2020-09-12T11:09:45Z</time>
      </trkpt>
      <trkpt lat="41.0631380" lon="-2.5633180">
        <ele>1116.2</ele>
        <time>2020-09-12T11:09:46Z</time>
      </trkpt>
      <trkpt lat="41.0631780" lon="-2.5632310">
        <ele>1116.4</ele>
        <time>2020-09-12T11:09:47Z</time>
      </trkpt>
      <trkpt lat="41.0632210" lon="-2.5631450">
        <ele>1116.4</ele>
        <time>2020-09-12T11:09:48Z</time>
      </trkpt>
      <trkpt lat="41.0632630" lon="-2.5630600">
        <ele>1116.6</ele>
        <time>2020-09-12T11:09:49Z</time>
      </trkpt>
      <trkpt lat="41.0633050" lon="-2.5629760">
        <ele>1117.0</ele>
        <time>2020-09-12T11:09:50Z</time>
      </trkpt>
      <trkpt lat="41.0633460" lon="-2.5628900">
        <ele>1117.2</ele>
        <time>2020-09-12T11:09:51Z</time>
      </trkpt>
      <trkpt lat="41.0633860" lon="-2.5628030">
        <ele>1117.4</ele>
        <time>2020-09-12T11:09:52Z</time>
      </trkpt>
      <trkpt lat="41.0634260" lon="-2.5627170">
        <ele>1117.6</ele>
        <time>2020-09-12T11:09:53Z</time>
      </trkpt>
      <trkpt lat="41.0634670" lon="-2.5626310">
        <ele>1117.6</ele>
        <time>2020-09-12T11:09:54Z</time>
      </trkpt>
      <trkpt lat="41.0635070" lon="-2.5625450">
        <ele>1117.6</ele>
        <time>2020-09-12T11:09:55Z</time>
      </trkpt>
      <trkpt lat="41.0635460" lon="-2.5624590">
        <ele>1117.6</ele>
        <time>2020-09-12T11:09:56Z</time>
      </trkpt>
      <trkpt lat="41.0635870" lon="-2.5623730">
        <ele>1117.6</ele>
        <time>2020-09-12T11:09:57Z</time>
      </trkpt>
      <trkpt lat="41.0636270" lon="-2.5622880">
        <ele>1117.8</ele>
        <time>2020-09-12T11:09:58Z</time>
      </trkpt>
      <trkpt lat="41.0636670" lon="-2.5622030">
        <ele>1118.0</ele>
        <time>2020-09-12T11:09:59Z</time>
      </trkpt>
      <trkpt lat="41.0637050" lon="-2.5621190">
        <ele>1118.2</ele>
        <time>2020-09-12T11:10:00Z</time>
      </trkpt>
      <trkpt lat="41.0637430" lon="-2.5620350">
        <ele>1118.2</ele>
        <time>2020-09-12T11:10:01Z</time>
      </trkpt>
      <trkpt lat="41.0637820" lon="-2.5619510">
        <ele>1118.4</ele>
        <time>2020-09-12T11:10:02Z</time>
      </trkpt>
      <trkpt lat="41.0638230" lon="-2.5618690">
        <ele>1118.6</ele>
        <time>2020-09-12T11:10:03Z</time>
      </trkpt>
      <trkpt lat="41.0638630" lon="-2.5617870">
        <ele>1118.6</ele>
        <time>2020-09-12T11:10:04Z</time>
      </trkpt>
      <trkpt lat="41.0639020" lon="-2.5617050">
        <ele>1118.8</ele>
        <time>2020-09-12T11:10:05Z</time>
      </trkpt>
      <trkpt lat="41.0639400" lon="-2.5616220">
        <ele>1119.0</ele>
        <time>2020-09-12T11:10:06Z</time>
      </trkpt>
      <trkpt lat="41.0639780" lon="-2.5615390">
        <ele>1119.2</ele>
        <time>2020-09-12T11:10:07Z</time>
      </trkpt>
      <trkpt lat="41.0640170" lon="-2.5614560">
        <ele>1119.2</ele>
        <time>2020-09-12T11:10:08Z</time>
      </trkpt>
      <trkpt lat="41.0640560" lon="-2.5613730">
        <ele>1119.4</ele>
        <time>2020-09-12T11:10:09Z</time>
      </trkpt>
      <trkpt lat="41.0640960" lon="-2.5612910">
        <ele>1119.4</ele>
        <time>2020-09-12T11:10:10Z</time>
      </trkpt>
      <trkpt lat="41.0641360" lon="-2.5612080">
        <ele>1119.6</ele>
        <time>2020-09-12T11:10:11Z</time>
      </trkpt>
      <trkpt lat="41.0641750" lon="-2.5611230">
        <ele>1119.8</ele>
        <time>2020-09-12T11:10:12Z</time>
      </trkpt>
      <trkpt lat="41.0642140" lon="-2.5610380">
        <ele>1119.8</ele>
        <time>2020-09-12T11:10:13Z</time>
      </trkpt>
      <trkpt lat="41.0642550" lon="-2.5609540">
        <ele>1119.8</ele>
        <time>2020-09-12T11:10:14Z</time>
      </trkpt>
      <trkpt lat="41.0642960" lon="-2.5608710">
        <ele>1119.8</ele>
        <time>2020-09-12T11:10:15Z</time>
      </trkpt>
      <trkpt lat="41.0643360" lon="-2.5607880">
        <ele>1119.8</ele>
        <time>2020-09-12T11:10:16Z</time>
      </trkpt>
      <trkpt lat="41.0643760" lon="-2.5607030">
        <ele>1119.6</ele>
        <time>2020-09-12T11:10:17Z</time>
      </trkpt>
      <trkpt lat="41.0644160" lon="-2.5606180">
        <ele>1119.6</ele>
        <time>2020-09-12T11:10:18Z</time>
      </trkpt>
      <trkpt lat="41.0644560" lon="-2.5605330">
        <ele>1119.6</ele>
        <time>2020-09-12T11:10:19Z</time>
      </trkpt>
      <trkpt lat="41.0644970" lon="-2.5604500">
        <ele>1119.6</ele>
        <time>2020-09-12T11:10:20Z</time>
      </trkpt>
      <trkpt lat="41.0645370" lon="-2.5603660">
        <ele>1119.8</ele>
        <time>2020-09-12T11:10:21Z</time>
      </trkpt>
      <trkpt lat="41.0645770" lon="-2.5602810">
        <ele>1119.8</ele>
        <time>2020-09-12T11:10:22Z</time>
      </trkpt>
      <trkpt lat="41.0646170" lon="-2.5601960">
        <ele>1120.0</ele>
        <time>2020-09-12T11:10:23Z</time>
      </trkpt>
      <trkpt lat="41.0646570" lon="-2.5601120">
        <ele>1120.0</ele>
        <time>2020-09-12T11:10:24Z</time>
      </trkpt>
      <trkpt lat="41.0646960" lon="-2.5600290">
        <ele>1120.4</ele>
        <time>2020-09-12T11:10:25Z</time>
      </trkpt>
      <trkpt lat="41.0647360" lon="-2.5599470">
        <ele>1120.6</ele>
        <time>2020-09-12T11:10:26Z</time>
      </trkpt>
      <trkpt lat="41.0647750" lon="-2.5598650">
        <ele>1120.8</ele>
        <time>2020-09-12T11:10:27Z</time>
      </trkpt>
      <trkpt lat="41.0648140" lon="-2.5597830">
        <ele>1120.8</ele>
        <time>2020-09-12T11:10:28Z</time>
      </trkpt>
      <trkpt lat="41.0648520" lon="-2.5597010">
        <ele>1120.8</ele>
        <time>2020-09-12T11:10:29Z</time>
      </trkpt>
      <trkpt lat="41.0648910" lon="-2.5596190">
        <ele>1120.8</ele>
        <time>2020-09-12T11:10:30Z</time>
      </trkpt>
      <trkpt lat="41.0649300" lon="-2.5595390">
        <ele>1121.0</ele>
        <time>2020-09-12T11:10:31Z</time>
      </trkpt>
      <trkpt lat="41.0649680" lon="-2.5594580">
        <ele>1121.0</ele>
        <time>2020-09-12T11:10:32Z</time>
      </trkpt>
      <trkpt lat="41.0650070" lon="-2.5593780">
        <ele>1121.0</ele>
        <time>2020-09-12T11:10:33Z</time>
      </trkpt>
      <trkpt lat="41.0650460" lon="-2.5592980">
        <ele>1121.0</ele>
        <time>2020-09-12T11:10:34Z</time>
      </trkpt>
      <trkpt lat="41.0650840" lon="-2.5592170">
        <ele>1121.0</ele>
        <time>2020-09-12T11:10:35Z</time>
      </trkpt>
      <trkpt lat="41.0651220" lon="-2.5591350">
        <ele>1121.2</ele>
        <time>2020-09-12T11:10:36Z</time>
      </trkpt>
      <trkpt lat="41.0651590" lon="-2.5590530">
        <ele>1121.2</ele>
        <time>2020-09-12T11:10:37Z</time>
      </trkpt>
      <trkpt lat="41.0651970" lon="-2.5589720">
        <ele>1121.4</ele>
        <time>2020-09-12T11:10:38Z</time>
      </trkpt>
      <trkpt lat="41.0652350" lon="-2.5588910">
        <ele>1121.6</ele>
        <time>2020-09-12T11:10:39Z</time>
      </trkpt>
      <trkpt lat="41.0652740" lon="-2.5588100">
        <ele>1121.8</ele>
        <time>2020-09-12T11:10:40Z</time>
      </trkpt>
      <trkpt lat="41.0653120" lon="-2.5587310">
        <ele>1122.0</ele>
        <time>2020-09-12T11:10:41Z</time>
      </trkpt>
      <trkpt lat="41.0653500" lon="-2.5586510">
        <ele>1122.2</ele>
        <time>2020-09-12T11:10:42Z</time>
      </trkpt>
      <trkpt lat="41.0653880" lon="-2.5585720">
        <ele>1122.2</ele>
        <time>2020-09-12T11:10:43Z</time>
      </trkpt>
      <trkpt lat="41.0654260" lon="-2.5584930">
        <ele>1122.2</ele>
        <time>2020-09-12T11:10:44Z</time>
      </trkpt>
      <trkpt lat="41.0654630" lon="-2.5584140">
        <ele>1122.2</ele>
        <time>2020-09-12T11:10:45Z</time>
      </trkpt>
      <trkpt lat="41.0655010" lon="-2.5583330">
        <ele>1122.2</ele>
        <time>2020-09-12T11:10:46Z</time>
      </trkpt>
      <trkpt lat="41.0655390" lon="-2.5582520">
        <ele>1122.2</ele>
        <time>2020-09-12T11:10:47Z</time>
      </trkpt>
      <trkpt lat="41.0655760" lon="-2.5581710">
        <ele>1122.2</ele>
        <time>2020-09-12T11:10:48Z</time>
      </trkpt>
      <trkpt lat="41.0656130" lon="-2.5580890">
        <ele>1122.4</ele>
        <time>2020-09-12T11:10:49Z</time>
      </trkpt>
      <trkpt lat="41.0656520" lon="-2.5580070">
        <ele>1122.4</ele>
        <time>2020-09-12T11:10:50Z</time>
      </trkpt>
      <trkpt lat="41.0656910" lon="-2.5579250">
        <ele>1122.8</ele>
        <time>2020-09-12T11:10:51Z</time>
      </trkpt>
      <trkpt lat="41.0657290" lon="-2.5578420">
        <ele>1123.0</ele>
        <time>2020-09-12T11:10:52Z</time>
      </trkpt>
      <trkpt lat="41.0657680" lon="-2.5577580">
        <ele>1123.2</ele>
        <time>2020-09-12T11:10:53Z</time>
      </trkpt>
      <trkpt lat="41.0658070" lon="-2.5576760">
        <ele>1123.4</ele>
        <time>2020-09-12T11:10:54Z</time>
      </trkpt>
      <trkpt lat="41.0658470" lon="-2.5575930">
        <ele>1123.4</ele>
        <time>2020-09-12T11:10:55Z</time>
      </trkpt>
      <trkpt lat="41.0658860" lon="-2.5575090">
        <ele>1123.6</ele>
        <time>2020-09-12T11:10:56Z</time>
      </trkpt>
      <trkpt lat="41.0659260" lon="-2.5574260">
        <ele>1123.8</ele>
        <time>2020-09-12T11:10:57Z</time>
      </trkpt>
      <trkpt lat="41.0659660" lon="-2.5573420">
        <ele>1123.8</ele>
        <time>2020-09-12T11:10:58Z</time>
      </trkpt>
      <trkpt lat="41.0660050" lon="-2.5572570">
        <ele>1124.0</ele>
        <time>2020-09-12T11:10:59Z</time>
      </trkpt>
      <trkpt lat="41.0660440" lon="-2.5571730">
        <ele>1124.0</ele>
        <time>2020-09-12T11:11:00Z</time>
      </trkpt>
      <trkpt lat="41.0660840" lon="-2.5570900">
        <ele>1124.0</ele>
        <time>2020-09-12T11:11:01Z</time>
      </trkpt>
      <trkpt lat="41.0661250" lon="-2.5570080">
        <ele>1124.0</ele>
        <time>2020-09-12T11:11:02Z</time>
      </trkpt>
      <trkpt lat="41.0661650" lon="-2.5569250">
        <ele>1124.2</ele>
        <time>2020-09-12T11:11:03Z</time>
      </trkpt>
      <trkpt lat="41.0662040" lon="-2.5568400">
        <ele>1124.4</ele>
        <time>2020-09-12T11:11:04Z</time>
      </trkpt>
      <trkpt lat="41.0662440" lon="-2.5567560">
        <ele>1124.4</ele>
        <time>2020-09-12T11:11:05Z</time>
      </trkpt>
      <trkpt lat="41.0662820" lon="-2.5566710">
        <ele>1124.6</ele>
        <time>2020-09-12T11:11:06Z</time>
      </trkpt>
      <trkpt lat="41.0663220" lon="-2.5565870">
        <ele>1124.8</ele>
        <time>2020-09-12T11:11:07Z</time>
      </trkpt>
      <trkpt lat="41.0663610" lon="-2.5565030">
        <ele>1125.0</ele>
        <time>2020-09-12T11:11:08Z</time>
      </trkpt>
      <trkpt lat="41.0664010" lon="-2.5564190">
        <ele>1125.0</ele>
        <time>2020-09-12T11:11:09Z</time>
      </trkpt>
      <trkpt lat="41.0664390" lon="-2.5563350">
        <ele>1125.2</ele>
        <time>2020-09-12T11:11:10Z</time>
      </trkpt>
      <trkpt lat="41.0664770" lon="-2.5562510">
        <ele>1125.2</ele>
        <time>2020-09-12T11:11:11Z</time>
      </trkpt>
      <trkpt lat="41.0665150" lon="-2.5561690">
        <ele>1125.4</ele>
        <time>2020-09-12T11:11:12Z</time>
      </trkpt>
      <trkpt lat="41.0665540" lon="-2.5560890">
        <ele>1125.4</ele>
        <time>2020-09-12T11:11:13Z</time>
      </trkpt>
      <trkpt lat="41.0665930" lon="-2.5560070">
        <ele>1125.2</ele>
        <time>2020-09-12T11:11:14Z</time>
      </trkpt>
      <trkpt lat="41.0666310" lon="-2.5559250">
        <ele>1125.2</ele>
        <time>2020-09-12T11:11:15Z</time>
      </trkpt>
      <trkpt lat="41.0666680" lon="-2.5558420">
        <ele>1125.2</ele>
        <time>2020-09-12T11:11:16Z</time>
      </trkpt>
      <trkpt lat="41.0667070" lon="-2.5557600">
        <ele>1125.2</ele>
        <time>2020-09-12T11:11:17Z</time>
      </trkpt>
      <trkpt lat="41.0667470" lon="-2.5556780">
        <ele>1125.2</ele>
        <time>2020-09-12T11:11:18Z</time>
      </trkpt>
      <trkpt lat="41.0667870" lon="-2.5555970">
        <ele>1125.4</ele>
        <time>2020-09-12T11:11:19Z</time>
      </trkpt>
      <trkpt lat="41.0668260" lon="-2.5555140">
        <ele>1125.6</ele>
        <time>2020-09-12T11:11:20Z</time>
      </trkpt>
      <trkpt lat="41.0668650" lon="-2.5554310">
        <ele>1125.8</ele>
        <time>2020-09-12T11:11:21Z</time>
      </trkpt>
      <trkpt lat="41.0669030" lon="-2.5553480">
        <ele>1126.0</ele>
        <time>2020-09-12T11:11:22Z</time>
      </trkpt>
      <trkpt lat="41.0669420" lon="-2.5552650">
        <ele>1126.0</ele>
        <time>2020-09-12T11:11:23Z</time>
      </trkpt>
      <trkpt lat="41.0669810" lon="-2.5551810">
        <ele>1126.2</ele>
        <time>2020-09-12T11:11:24Z</time>
      </trkpt>
      <trkpt lat="41.0670200" lon="-2.5550980">
        <ele>1126.2</ele>
        <time>2020-09-12T11:11:25Z</time>
      </trkpt>
      <trkpt lat="41.0670600" lon="-2.5550150">
        <ele>1126.2</ele>
        <time>2020-09-12T11:11:26Z</time>
      </trkpt>
      <trkpt lat="41.0670990" lon="-2.5549310">
        <ele>1126.4</ele>
        <time>2020-09-12T11:11:27Z</time>
      </trkpt>
      <trkpt lat="41.0671380" lon="-2.5548470">
        <ele>1126.4</ele>
        <time>2020-09-12T11:11:28Z</time>
      </trkpt>
      <trkpt lat="41.0671780" lon="-2.5547640">
        <ele>1126.6</ele>
        <time>2020-09-12T11:11:29Z</time>
      </trkpt>
      <trkpt lat="41.0672170" lon="-2.5546810">
        <ele>1126.8</ele>
        <time>2020-09-12T11:11:30Z</time>
      </trkpt>
      <trkpt lat="41.0672570" lon="-2.5545980">
        <ele>1126.8</ele>
        <time>2020-09-12T11:11:31Z</time>
      </trkpt>
      <trkpt lat="41.0672970" lon="-2.5545150">
        <ele>1126.8</ele>
        <time>2020-09-12T11:11:32Z</time>
      </trkpt>
      <trkpt lat="41.0673370" lon="-2.5544310">
        <ele>1126.8</ele>
        <time>2020-09-12T11:11:33Z</time>
      </trkpt>
      <trkpt lat="41.0673780" lon="-2.5543470">
        <ele>1126.8</ele>
        <time>2020-09-12T11:11:34Z</time>
      </trkpt>
      <trkpt lat="41.0674200" lon="-2.5542630">
        <ele>1126.6</ele>
        <time>2020-09-12T11:11:35Z</time>
      </trkpt>
      <trkpt lat="41.0674630" lon="-2.5541780">
        <ele>1126.6</ele>
        <time>2020-09-12T11:11:36Z</time>
      </trkpt>
      <trkpt lat="41.0675070" lon="-2.5540920">
        <ele>1126.4</ele>
        <time>2020-09-12T11:11:37Z</time>
      </trkpt>
      <trkpt lat="41.0675510" lon="-2.5540060">
        <ele>1126.2</ele>
        <time>2020-09-12T11:11:38Z</time>
      </trkpt>
      <trkpt lat="41.0675980" lon="-2.5539190">
        <ele>1126.2</ele>
        <time>2020-09-12T11:11:39Z</time>
      </trkpt>
      <trkpt lat="41.0676440" lon="-2.5538310">
        <ele>1126.0</ele>
        <time>2020-09-12T11:11:40Z</time>
      </trkpt>
      <trkpt lat="41.0676920" lon="-2.5537410">
        <ele>1125.8</ele>
        <time>2020-09-12T11:11:41Z</time>
      </trkpt>
      <trkpt lat="41.0677400" lon="-2.5536470">
        <ele>1125.6</ele>
        <time>2020-09-12T11:11:42Z</time>
      </trkpt>
      <trkpt lat="41.0677880" lon="-2.5535520">
        <ele>1125.6</ele>
        <time>2020-09-12T11:11:43Z</time>
      </trkpt>
      <trkpt lat="41.0678390" lon="-2.5534550">
        <ele>1125.4</ele>
        <time>2020-09-12T11:11:44Z</time>
      </trkpt>
      <trkpt lat="41.0678890" lon="-2.5533560">
        <ele>1125.4</ele>
        <time>2020-09-12T11:11:45Z</time>
      </trkpt>
      <trkpt lat="41.0679410" lon="-2.5532540">
        <ele>1125.4</ele>
        <time>2020-09-12T11:11:46Z</time>
      </trkpt>
      <trkpt lat="41.0679930" lon="-2.5531490">
        <ele>1125.4</ele>
        <time>2020-09-12T11:11:47Z</time>
      </trkpt>
      <trkpt lat="41.0680470" lon="-2.5530430">
        <ele>1125.2</ele>
        <time>2020-09-12T11:11:48Z</time>
      </trkpt>
      <trkpt lat="41.0681010" lon="-2.5529360">
        <ele>1125.0</ele>
        <time>2020-09-12T11:11:49Z</time>
      </trkpt>
      <trkpt lat="41.0681560" lon="-2.5528270">
        <ele>1124.6</ele>
        <time>2020-09-12T11:11:50Z</time>
      </trkpt>
      <trkpt lat="41.0682120" lon="-2.5527170">
        <ele>1124.4</ele>
        <time>2020-09-12T11:11:51Z</time>
      </trkpt>
      <trkpt lat="41.0682680" lon="-2.5526060">
        <ele>1124.2</ele>
        <time>2020-09-12T11:11:52Z</time>
      </trkpt>
      <trkpt lat="41.0683270" lon="-2.5524950">
        <ele>1124.0</ele>
        <time>2020-09-12T11:11:53Z</time>
      </trkpt>
      <trkpt lat="41.0683850" lon="-2.5523840">
        <ele>1124.0</ele>
        <time>2020-09-12T11:11:54Z</time>
      </trkpt>
      <trkpt lat="41.0684420" lon="-2.5522720">
        <ele>1123.8</ele>
        <time>2020-09-12T11:11:55Z</time>
      </trkpt>
      <trkpt lat="41.0684980" lon="-2.5521610">
        <ele>1123.6</ele>
        <time>2020-09-12T11:11:56Z</time>
      </trkpt>
      <trkpt lat="41.0685540" lon="-2.5520500">
        <ele>1123.4</ele>
        <time>2020-09-12T11:11:57Z</time>
      </trkpt>
      <trkpt lat="41.0686090" lon="-2.5519400">
        <ele>1123.4</ele>
        <time>2020-09-12T11:11:58Z</time>
      </trkpt>
      <trkpt lat="41.0686660" lon="-2.5518310">
        <ele>1123.2</ele>
        <time>2020-09-12T11:11:59Z</time>
      </trkpt>
      <trkpt lat="41.0687230" lon="-2.5517230">
        <ele>1122.8</ele>
        <time>2020-09-12T11:12:00Z</time>
      </trkpt>
      <trkpt lat="41.0687790" lon="-2.5516130">
        <ele>1122.6</ele>
        <time>2020-09-12T11:12:01Z</time>
      </trkpt>
      <trkpt lat="41.0688340" lon="-2.5515010">
        <ele>1122.2</ele>
        <time>2020-09-12T11:12:02Z</time>
      </trkpt>
      <trkpt lat="41.0688910" lon="-2.5513900">
        <ele>1121.8</ele>
        <time>2020-09-12T11:12:03Z</time>
      </trkpt>
      <trkpt lat="41.0689470" lon="-2.5512790">
        <ele>1121.4</ele>
        <time>2020-09-12T11:12:04Z</time>
      </trkpt>
      <trkpt lat="41.0690040" lon="-2.5511680">
        <ele>1121.2</ele>
        <time>2020-09-12T11:12:05Z</time>
      </trkpt>
      <trkpt lat="41.0690600" lon="-2.5510560">
        <ele>1121.0</ele>
        <time>2020-09-12T11:12:06Z</time>
      </trkpt>
      <trkpt lat="41.0691170" lon="-2.5509440">
        <ele>1121.0</ele>
        <time>2020-09-12T11:12:07Z</time>
      </trkpt>
      <trkpt lat="41.0691740" lon="-2.5508330">
        <ele>1121.0</ele>
        <time>2020-09-12T11:12:08Z</time>
      </trkpt>
      <trkpt lat="41.0692300" lon="-2.5507210">
        <ele>1120.8</ele>
        <time>2020-09-12T11:12:09Z</time>
      </trkpt>
      <trkpt lat="41.0692870" lon="-2.5506100">
        <ele>1120.6</ele>
        <time>2020-09-12T11:12:10Z</time>
      </trkpt>
      <trkpt lat="41.0693430" lon="-2.5504980">
        <ele>1120.4</ele>
        <time>2020-09-12T11:12:11Z</time>
      </trkpt>
      <trkpt lat="41.0693990" lon="-2.5503870">
        <ele>1120.2</ele>
        <time>2020-09-12T11:12:12Z</time>
      </trkpt>
      <trkpt lat="41.0694560" lon="-2.5502760">
        <ele>1120.2</ele>
        <time>2020-09-12T11:12:13Z</time>
      </trkpt>
      <trkpt lat="41.0695130" lon="-2.5501650">
        <ele>1120.0</ele>
        <time>2020-09-12T11:12:14Z</time>
      </trkpt>
      <trkpt lat="41.0695700" lon="-2.5500550">
        <ele>1119.8</ele>
        <time>2020-09-12T11:12:15Z</time>
      </trkpt>
      <trkpt lat="41.0696270" lon="-2.5499450">
        <ele>1119.8</ele>
        <time>2020-09-12T11:12:16Z</time>
      </trkpt>
      <trkpt lat="41.0696830" lon="-2.5498350">
        <ele>1119.8</ele>
        <time>2020-09-12T11:12:17Z</time>
      </trkpt>
      <trkpt lat="41.0697400" lon="-2.5497240">
        <ele>1119.6</ele>
        <time>2020-09-12T11:12:18Z</time>
      </trkpt>
      <trkpt lat="41.0697970" lon="-2.5496140">
        <ele>1119.2</ele>
        <time>2020-09-12T11:12:19Z</time>
      </trkpt>
      <trkpt lat="41.0698540" lon="-2.5495030">
        <ele>1118.8</ele>
        <time>2020-09-12T11:12:20Z</time>
      </trkpt>
      <trkpt lat="41.0699110" lon="-2.5493920">
        <ele>1118.6</ele>
        <time>2020-09-12T11:12:21Z</time>
      </trkpt>
      <trkpt lat="41.0699660" lon="-2.5492800">
        <ele>1118.4</ele>
        <time>2020-09-12T11:12:22Z</time>
      </trkpt>
      <trkpt lat="41.0700220" lon="-2.5491690">
        <ele>1118.2</ele>
        <time>2020-09-12T11:12:23Z</time>
      </trkpt>
      <trkpt lat="41.0700790" lon="-2.5490590">
        <ele>1117.8</ele>
        <time>2020-09-12T11:12:24Z</time>
      </trkpt>
      <trkpt lat="41.0701340" lon="-2.5489500">
        <ele>1117.8</ele>
        <time>2020-09-12T11:12:25Z</time>
      </trkpt>
      <trkpt lat="41.0701900" lon="-2.5488410">
        <ele>1117.4</ele>
        <time>2020-09-12T11:12:26Z</time>
      </trkpt>
      <trkpt lat="41.0702440" lon="-2.5487300">
        <ele>1117.0</ele>
        <time>2020-09-12T11:12:27Z</time>
      </trkpt>
      <trkpt lat="41.0702950" lon="-2.5486160">
        <ele>1117.0</ele>
        <time>2020-09-12T11:12:28Z</time>
      </trkpt>
      <trkpt lat="41.0703440" lon="-2.5485000">
        <ele>1116.8</ele>
        <time>2020-09-12T11:12:29Z</time>
      </trkpt>
      <trkpt lat="41.0703880" lon="-2.5483790">
        <ele>1116.6</ele>
        <time>2020-09-12T11:12:30Z</time>
      </trkpt>
      <trkpt lat="41.0704250" lon="-2.5482550">
        <ele>1116.4</ele>
        <time>2020-09-12T11:12:31Z</time>
      </trkpt>
      <trkpt lat="41.0704560" lon="-2.5481270">
        <ele>1116.4</ele>
        <time>2020-09-12T11:12:32Z</time>
      </trkpt>
      <trkpt lat="41.0704770" lon="-2.5479950">
        <ele>1116.2</ele>
        <time>2020-09-12T11:12:33Z</time>
      </trkpt>
      <trkpt lat="41.0704890" lon="-2.5478610">
        <ele>1116.0</ele>
        <time>2020-09-12T11:12:34Z</time>
      </trkpt>
      <trkpt lat="41.0704900" lon="-2.5477260">
        <ele>1116.0</ele>
        <time>2020-09-12T11:12:35Z</time>
      </trkpt>
      <trkpt lat="41.0704820" lon="-2.5475910">
        <ele>1115.8</ele>
        <time>2020-09-12T11:12:36Z</time>
      </trkpt>
      <trkpt lat="41.0704690" lon="-2.5474570">
        <ele>1115.6</ele>
        <time>2020-09-12T11:12:37Z</time>
      </trkpt>
      <trkpt lat="41.0704530" lon="-2.5473240">
        <ele>1115.6</ele>
        <time>2020-09-12T11:12:38Z</time>
      </trkpt>
      <trkpt lat="41.0704320" lon="-2.5471940">
        <ele>1115.4</ele>
        <time>2020-09-12T11:12:39Z</time>
      </trkpt>
      <trkpt lat="41.0704100" lon="-2.5470650">
        <ele>1115.2</ele>
        <time>2020-09-12T11:12:40Z</time>
      </trkpt>
      <trkpt lat="41.0703880" lon="-2.5469360">
        <ele>1115.0</ele>
        <time>2020-09-12T11:12:41Z</time>
      </trkpt>
      <trkpt lat="41.0703660" lon="-2.5468080">
        <ele>1114.8</ele>
        <time>2020-09-12T11:12:42Z</time>
      </trkpt>
      <trkpt lat="41.0703460" lon="-2.5466800">
        <ele>1114.6</ele>
        <time>2020-09-12T11:12:43Z</time>
      </trkpt>
      <trkpt lat="41.0703260" lon="-2.5465540">
        <ele>1114.6</ele>
        <time>2020-09-12T11:12:44Z</time>
      </trkpt>
      <trkpt lat="41.0703060" lon="-2.5464280">
        <ele>1114.6</ele>
        <time>2020-09-12T11:12:45Z</time>
      </trkpt>
      <trkpt lat="41.0702850" lon="-2.5463040">
        <ele>1114.6</ele>
        <time>2020-09-12T11:12:46Z</time>
      </trkpt>
      <trkpt lat="41.0702640" lon="-2.5461800">
        <ele>1114.4</ele>
        <time>2020-09-12T11:12:47Z</time>
      </trkpt>
      <trkpt lat="41.0702430" lon="-2.5460570">
        <ele>1114.4</ele>
        <time>2020-09-12T11:12:48Z</time>
      </trkpt>
      <trkpt lat="41.0702220" lon="-2.5459340">
        <ele>1114.2</ele>
        <time>2020-09-12T11:12:49Z</time>
      </trkpt>
      <trkpt lat="41.0702030" lon="-2.5458110">
        <ele>1114.2</ele>
        <time>2020-09-12T11:12:50Z</time>
      </trkpt>
      <trkpt lat="41.0701820" lon="-2.5456920">
        <ele>1114.2</ele>
        <time>2020-09-12T11:12:51Z</time>
      </trkpt>
      <trkpt lat="41.0701620" lon="-2.5455760">
        <ele>1114.2</ele>
        <time>2020-09-12T11:12:52Z</time>
      </trkpt>
      <trkpt lat="41.0701420" lon="-2.5454610">
        <ele>1114.0</ele>
        <time>2020-09-12T11:12:53Z</time>
      </trkpt>
      <trkpt lat="41.0701220" lon="-2.5453450">
        <ele>1113.8</ele>
        <time>2020-09-12T11:12:54Z</time>
      </trkpt>
      <trkpt lat="41.0701020" lon="-2.5452270">
        <ele>1113.8</ele>
        <time>2020-09-12T11:12:55Z</time>
      </trkpt>
      <trkpt lat="41.0700840" lon="-2.5451100">
        <ele>1113.6</ele>
        <time>2020-09-12T11:12:56Z</time>
      </trkpt>
      <trkpt lat="41.0700660" lon="-2.5449920">
        <ele>1113.4</ele>
        <time>2020-09-12T11:12:57Z</time>
      </trkpt>
      <trkpt lat="41.0700470" lon="-2.5448750">
        <ele>1113.4</ele>
        <time>2020-09-12T11:12:58Z</time>
      </trkpt>
      <trkpt lat="41.0700290" lon="-2.5447580">
        <ele>1113.2</ele>
        <time>2020-09-12T11:12:59Z</time>
      </trkpt>
      <trkpt lat="41.0700100" lon="-2.5446410">
        <ele>1113.2</ele>
        <time>2020-09-12T11:13:00Z</time>
      </trkpt>
      <trkpt lat="41.0699900" lon="-2.5445250">
        <ele>1113.0</ele>
        <time>2020-09-12T11:13:01Z</time>
      </trkpt>
      <trkpt lat="41.0699700" lon="-2.5444090">
        <ele>1112.8</ele>
        <time>2020-09-12T11:13:02Z</time>
      </trkpt>
      <trkpt lat="41.0699520" lon="-2.5442910">
        <ele>1112.6</ele>
        <time>2020-09-12T11:13:03Z</time>
      </trkpt>
      <trkpt lat="41.0699340" lon="-2.5441720">
        <ele>1112.4</ele>
        <time>2020-09-12T11:13:04Z</time>
      </trkpt>
      <trkpt lat="41.0699160" lon="-2.5440530">
        <ele>1112.0</ele>
        <time>2020-09-12T11:13:05Z</time>
      </trkpt>
      <trkpt lat="41.0698990" lon="-2.5439340">
        <ele>1111.8</ele>
        <time>2020-09-12T11:13:06Z</time>
      </trkpt>
      <trkpt lat="41.0698810" lon="-2.5438150">
        <ele>1111.8</ele>
        <time>2020-09-12T11:13:07Z</time>
      </trkpt>
      <trkpt lat="41.0698620" lon="-2.5436950">
        <ele>1111.6</ele>
        <time>2020-09-12T11:13:08Z</time>
      </trkpt>
      <trkpt lat="41.0698430" lon="-2.5435750">
        <ele>1111.4</ele>
        <time>2020-09-12T11:13:09Z</time>
      </trkpt>
      <trkpt lat="41.0698240" lon="-2.5434540">
        <ele>1111.2</ele>
        <time>2020-09-12T11:13:10Z</time>
      </trkpt>
      <trkpt lat="41.0698060" lon="-2.5433330">
        <ele>1111.0</ele>
        <time>2020-09-12T11:13:11Z</time>
      </trkpt>
      <trkpt lat="41.0697870" lon="-2.5432120">
        <ele>1110.6</ele>
        <time>2020-09-12T11:13:12Z</time>
      </trkpt>
      <trkpt lat="41.0697690" lon="-2.5430910">
        <ele>1110.2</ele>
        <time>2020-09-12T11:13:13Z</time>
      </trkpt>
      <trkpt lat="41.0697500" lon="-2.5429700">
        <ele>1110.0</ele>
        <time>2020-09-12T11:13:14Z</time>
      </trkpt>
      <trkpt lat="41.0697300" lon="-2.5428480">
        <ele>1109.6</ele>
        <time>2020-09-12T11:13:15Z</time>
      </trkpt>
      <trkpt lat="41.0697110" lon="-2.5427250">
        <ele>1109.4</ele>
        <time>2020-09-12T11:13:16Z</time>
      </trkpt>
      <trkpt lat="41.0696910" lon="-2.5426010">
        <ele>1109.2</ele>
        <time>2020-09-12T11:13:17Z</time>
      </trkpt>
      <trkpt lat="41.0696720" lon="-2.5424760">
        <ele>1109.2</ele>
        <time>2020-09-12T11:13:18Z</time>
      </trkpt>
      <trkpt lat="41.0696510" lon="-2.5423500">
        <ele>1109.0</ele>
        <time>2020-09-12T11:13:19Z</time>
      </trkpt>
      <trkpt lat="41.0696300" lon="-2.5422250">
        <ele>1108.6</ele>
        <time>2020-09-12T11:13:20Z</time>
      </trkpt>
      <trkpt lat="41.0696110" lon="-2.5420990">
        <ele>1108.4</ele>
        <time>2020-09-12T11:13:21Z</time>
      </trkpt>
      <trkpt lat="41.0695910" lon="-2.5419720">
        <ele>1108.2</ele>
        <time>2020-09-12T11:13:22Z</time>
      </trkpt>
      <trkpt lat="41.0695710" lon="-2.5418450">
        <ele>1107.8</ele>
        <time>2020-09-12T11:13:23Z</time>
      </trkpt>
      <trkpt lat="41.0695520" lon="-2.5417180">
        <ele>1107.4</ele>
        <time>2020-09-12T11:13:24Z</time>
      </trkpt>
      <trkpt lat="41.0695320" lon="-2.5415890">
        <ele>1107.2</ele>
        <time>2020-09-12T11:13:25Z</time>
      </trkpt>
      <trkpt lat="41.0695120" lon="-2.5414590">
        <ele>1107.0</ele>
        <time>2020-09-12T11:13:26Z</time>
      </trkpt>
      <trkpt lat="41.0694910" lon="-2.5413300">
        <ele>1106.6</ele>
        <time>2020-09-12T11:13:27Z</time>
      </trkpt>
      <trkpt lat="41.0694700" lon="-2.5412020">
        <ele>1106.4</ele>
        <time>2020-09-12T11:13:28Z</time>
      </trkpt>
      <trkpt lat="41.0694480" lon="-2.5410740">
        <ele>1106.0</ele>
        <time>2020-09-12T11:13:29Z</time>
      </trkpt>
      <trkpt lat="41.0694230" lon="-2.5409460">
        <ele>1105.6</ele>
        <time>2020-09-12T11:13:30Z</time>
      </trkpt>
      <trkpt lat="41.0693990" lon="-2.5408190">
        <ele>1105.4</ele>
        <time>2020-09-12T11:13:31Z</time>
      </trkpt>
      <trkpt lat="41.0693720" lon="-2.5406910">
        <ele>1105.2</ele>
        <time>2020-09-12T11:13:32Z</time>
      </trkpt>
      <trkpt lat="41.0693400" lon="-2.5405660">
        <ele>1105.2</ele>
        <time>2020-09-12T11:13:33Z</time>
      </trkpt>
      <trkpt lat="41.0693060" lon="-2.5404430">
        <ele>1105.0</ele>
        <time>2020-09-12T11:13:34Z</time>
      </trkpt>
      <trkpt lat="41.0692690" lon="-2.5403180">
        <ele>1104.8</ele>
        <time>2020-09-12T11:13:35Z</time>
      </trkpt>
      <trkpt lat="41.0692310" lon="-2.5401950">
        <ele>1104.6</ele>
        <time>2020-09-12T11:13:36Z</time>
      </trkpt>
      <trkpt lat="41.0691920" lon="-2.5400720">
        <ele>1104.4</ele>
        <time>2020-09-12T11:13:37Z</time>
      </trkpt>
      <trkpt lat="41.0691540" lon="-2.5399490">
        <ele>1104.2</ele>
        <time>2020-09-12T11:13:38Z</time>
      </trkpt>
      <trkpt lat="41.0691160" lon="-2.5398270">
        <ele>1104.0</ele>
        <time>2020-09-12T11:13:39Z</time>
      </trkpt>
      <trkpt lat="41.0690770" lon="-2.5397040">
        <ele>1104.0</ele>
        <time>2020-09-12T11:13:40Z</time>
      </trkpt>
      <trkpt lat="41.0690380" lon="-2.5395820">
        <ele>1104.0</ele>
        <time>2020-09-12T11:13:41Z</time>
      </trkpt>
      <trkpt lat="41.0689990" lon="-2.5394600">
        <ele>1103.8</ele>
        <time>2020-09-12T11:13:42Z</time>
      </trkpt>
      <trkpt lat="41.0689610" lon="-2.5393390">
        <ele>1103.6</ele>
        <time>2020-09-12T11:13:43Z</time>
      </trkpt>
      <trkpt lat="41.0689250" lon="-2.5392180">
        <ele>1103.4</ele>
        <time>2020-09-12T11:13:44Z</time>
      </trkpt>
      <trkpt lat="41.0688880" lon="-2.5390960">
        <ele>1103.2</ele>
        <time>2020-09-12T11:13:45Z</time>
      </trkpt>
      <trkpt lat="41.0688510" lon="-2.5389750">
        <ele>1102.8</ele>
        <time>2020-09-12T11:13:46Z</time>
      </trkpt>
      <trkpt lat="41.0688130" lon="-2.5388540">
        <ele>1102.6</ele>
        <time>2020-09-12T11:13:47Z</time>
      </trkpt>
      <trkpt lat="41.0687740" lon="-2.5387340">
        <ele>1102.4</ele>
        <time>2020-09-12T11:13:48Z</time>
      </trkpt>
      <trkpt lat="41.0687350" lon="-2.5386120">
        <ele>1102.0</ele>
        <time>2020-09-12T11:13:49Z</time>
      </trkpt>
      <trkpt lat="41.0686970" lon="-2.5384880">
        <ele>1101.6</ele>
        <time>2020-09-12T11:13:50Z</time>
      </trkpt>
      <trkpt lat="41.0686590" lon="-2.5383650">
        <ele>1101.4</ele>
        <time>2020-09-12T11:13:51Z</time>
      </trkpt>
      <trkpt lat="41.0686200" lon="-2.5382420">
        <ele>1101.2</ele>
        <time>2020-09-12T11:13:52Z</time>
      </trkpt>
      <trkpt lat="41.0685810" lon="-2.5381190">
        <ele>1101.0</ele>
        <time>2020-09-12T11:13:53Z</time>
      </trkpt>
      <trkpt lat="41.0685420" lon="-2.5379970">
        <ele>1100.8</ele>
        <time>2020-09-12T11:13:54Z</time>
      </trkpt>
      <trkpt lat="41.0685040" lon="-2.5378740">
        <ele>1100.6</ele>
        <time>2020-09-12T11:13:55Z</time>
      </trkpt>
      <trkpt lat="41.0684660" lon="-2.5377500">
        <ele>1100.6</ele>
        <time>2020-09-12T11:13:56Z</time>
      </trkpt>
      <trkpt lat="41.0684280" lon="-2.5376270">
        <ele>1100.4</ele>
        <time>2020-09-12T11:13:57Z</time>
      </trkpt>
      <trkpt lat="41.0683910" lon="-2.5375030">
        <ele>1100.4</ele>
        <time>2020-09-12T11:13:58Z</time>
      </trkpt>
      <trkpt lat="41.0683520" lon="-2.5373790">
        <ele>1100.2</ele>
        <time>2020-09-12T11:13:59Z</time>
      </trkpt>
      <trkpt lat="41.0683140" lon="-2.5372550">
        <ele>1100.2</ele>
        <time>2020-09-12T11:14:00Z</time>
      </trkpt>
      <trkpt lat="41.0682760" lon="-2.5371320">
        <ele>1100.2</ele>
        <time>2020-09-12T11:14:01Z</time>
      </trkpt>
      <trkpt lat="41.0682380" lon="-2.5370090">
        <ele>1100.2</ele>
        <time>2020-09-12T11:14:02Z</time>
      </trkpt>
      <trkpt lat="41.0682000" lon="-2.5368880">
        <ele>1100.2</ele>
        <time>2020-09-12T11:14:03Z</time>
      </trkpt>
      <trkpt lat="41.0681630" lon="-2.5367680">
        <ele>1100.2</ele>
        <time>2020-09-12T11:14:04Z</time>
      </trkpt>
      <trkpt lat="41.0681270" lon="-2.5366500">
        <ele>1100.2</ele>
        <time>2020-09-12T11:14:05Z</time>
      </trkpt>
      <trkpt lat="41.0680900" lon="-2.5365320">
        <ele>1100.2</ele>
        <time>2020-09-12T11:14:06Z</time>
      </trkpt>
      <trkpt lat="41.0680540" lon="-2.5364140">
        <ele>1100.0</ele>
        <time>2020-09-12T11:14:07Z</time>
      </trkpt>
      <trkpt lat="41.0680180" lon="-2.5362970">
        <ele>1099.4</ele>
        <time>2020-09-12T11:14:08Z</time>
      </trkpt>
      <trkpt lat="41.0679810" lon="-2.5361780">
        <ele>1099.0</ele>
        <time>2020-09-12T11:14:09Z</time>
      </trkpt>
      <trkpt lat="41.0679440" lon="-2.5360590">
        <ele>1098.6</ele>
        <time>2020-09-12T11:14:10Z</time>
      </trkpt>
      <trkpt lat="41.0679060" lon="-2.5359400">
        <ele>1098.2</ele>
        <time>2020-09-12T11:14:11Z</time>
      </trkpt>
      <trkpt lat="41.0678690" lon="-2.5358210">
        <ele>1097.8</ele>
        <time>2020-09-12T11:14:12Z</time>
      </trkpt>
      <trkpt lat="41.0678320" lon="-2.5357000">
        <ele>1097.6</ele>
        <time>2020-09-12T11:14:13Z</time>
      </trkpt>
      <trkpt lat="41.0677930" lon="-2.5355810">
        <ele>1097.4</ele>
        <time>2020-09-12T11:14:14Z</time>
      </trkpt>
      <trkpt lat="41.0677540" lon="-2.5354620">
        <ele>1097.4</ele>
        <time>2020-09-12T11:14:15Z</time>
      </trkpt>
      <trkpt lat="41.0677120" lon="-2.5353430">
        <ele>1097.2</ele>
        <time>2020-09-12T11:14:16Z</time>
      </trkpt>
      <trkpt lat="41.0676680" lon="-2.5352260">
        <ele>1097.0</ele>
        <time>2020-09-12T11:14:17Z</time>
      </trkpt>
      <trkpt lat="41.0676220" lon="-2.5351110">
        <ele>1097.0</ele>
        <time>2020-09-12T11:14:18Z</time>
      </trkpt>
      <trkpt lat="41.0675720" lon="-2.5349980">
        <ele>1096.8</ele>
        <time>2020-09-12T11:14:19Z</time>
      </trkpt>
      <trkpt lat="41.0675210" lon="-2.5348870">
        <ele>1096.6</ele>
        <time>2020-09-12T11:14:20Z</time>
      </trkpt>
      <trkpt lat="41.0674680" lon="-2.5347770">
        <ele>1096.4</ele>
        <time>2020-09-12T11:14:21Z</time>
      </trkpt>
      <trkpt lat="41.0674130" lon="-2.5346690">
        <ele>1096.4</ele>
        <time>2020-09-12T11:14:22Z</time>
      </trkpt>
      <trkpt lat="41.0673570" lon="-2.5345640">
        <ele>1096.4</ele>
        <time>2020-09-12T11:14:23Z</time>
      </trkpt>
      <trkpt lat="41.0673000" lon="-2.5344610">
        <ele>1096.4</ele>
        <time>2020-09-12T11:14:24Z</time>
      </trkpt>
      <trkpt lat="41.0672440" lon="-2.5343600">
        <ele>1096.4</ele>
        <time>2020-09-12T11:14:25Z</time>
      </trkpt>
      <trkpt lat="41.0671890" lon="-2.5342600">
        <ele>1096.4</ele>
        <time>2020-09-12T11:14:26Z</time>
      </trkpt>
      <trkpt lat="41.0671340" lon="-2.5341620">
        <ele>1096.4</ele>
        <time>2020-09-12T11:14:27Z</time>
      </trkpt>
      <trkpt lat="41.0670790" lon="-2.5340640">
        <ele>1096.6</ele>
        <time>2020-09-12T11:14:28Z</time>
      </trkpt>
      <trkpt lat="41.0670240" lon="-2.5339670">
        <ele>1096.8</ele>
        <time>2020-09-12T11:14:29Z</time>
      </trkpt>
      <trkpt lat="41.0669680" lon="-2.5338710">
        <ele>1096.8</ele>
        <time>2020-09-12T11:14:30Z</time>
      </trkpt>
      <trkpt lat="41.0669140" lon="-2.5337740">
        <ele>1096.8</ele>
        <time>2020-09-12T11:14:31Z</time>
      </trkpt>
      <trkpt lat="41.0668600" lon="-2.5336780">
        <ele>1096.6</ele>
        <time>2020-09-12T11:14:32Z</time>
      </trkpt>
      <trkpt lat="41.0668060" lon="-2.5335800">
        <ele>1096.6</ele>
        <time>2020-09-12T11:14:33Z</time>
      </trkpt>
      <trkpt lat="41.0667520" lon="-2.5334830">
        <ele>1096.6</ele>
        <time>2020-09-12T11:14:34Z</time>
      </trkpt>
      <trkpt lat="41.0666980" lon="-2.5333850">
        <ele>1096.6</ele>
        <time>2020-09-12T11:14:35Z</time>
      </trkpt>
      <trkpt lat="41.0666440" lon="-2.5332870">
        <ele>1096.6</ele>
        <time>2020-09-12T11:14:36Z</time>
      </trkpt>
      <trkpt lat="41.0665900" lon="-2.5331900">
        <ele>1096.6</ele>
        <time>2020-09-12T11:14:37Z</time>
      </trkpt>
      <trkpt lat="41.0665350" lon="-2.5330930">
        <ele>1096.6</ele>
        <time>2020-09-12T11:14:38Z</time>
      </trkpt>
      <trkpt lat="41.0664810" lon="-2.5329960">
        <ele>1096.4</ele>
        <time>2020-09-12T11:14:39Z</time>
      </trkpt>
      <trkpt lat="41.0664270" lon="-2.5329000">
        <ele>1096.4</ele>
        <time>2020-09-12T11:14:40Z</time>
      </trkpt>
      <trkpt lat="41.0663740" lon="-2.5328040">
        <ele>1096.4</ele>
        <time>2020-09-12T11:14:41Z</time>
      </trkpt>
      <trkpt lat="41.0663210" lon="-2.5327070">
        <ele>1096.2</ele>
        <time>2020-09-12T11:14:42Z</time>
      </trkpt>
      <trkpt lat="41.0662670" lon="-2.5326110">
        <ele>1096.2</ele>
        <time>2020-09-12T11:14:43Z</time>
      </trkpt>
      <trkpt lat="41.0662130" lon="-2.5325130">
        <ele>1096.0</ele>
        <time>2020-09-12T11:14:44Z</time>
      </trkpt>
      <trkpt lat="41.0661580" lon="-2.5324160">
        <ele>1095.8</ele>
        <time>2020-09-12T11:14:45Z</time>
      </trkpt>
      <trkpt lat="41.0661030" lon="-2.5323190">
        <ele>1095.8</ele>
        <time>2020-09-12T11:14:46Z</time>
      </trkpt>
      <trkpt lat="41.0660480" lon="-2.5322210">
        <ele>1095.8</ele>
        <time>2020-09-12T11:14:47Z</time>
      </trkpt>
      <trkpt lat="41.0659940" lon="-2.5321230">
        <ele>1095.6</ele>
        <time>2020-09-12T11:14:48Z</time>
      </trkpt>
      <trkpt lat="41.0659390" lon="-2.5320250">
        <ele>1095.6</ele>
        <time>2020-09-12T11:14:49Z</time>
      </trkpt>
      <trkpt lat="41.0658850" lon="-2.5319250">
        <ele>1095.4</ele>
        <time>2020-09-12T11:14:50Z</time>
      </trkpt>
      <trkpt lat="41.0658290" lon="-2.5318250">
        <ele>1095.2</ele>
        <time>2020-09-12T11:14:51Z</time>
      </trkpt>
      <trkpt lat="41.0657730" lon="-2.5317260">
        <ele>1095.2</ele>
        <time>2020-09-12T11:14:52Z</time>
      </trkpt>
      <trkpt lat="41.0657170" lon="-2.5316280">
        <ele>1095.2</ele>
        <time>2020-09-12T11:14:53Z</time>
      </trkpt>
      <trkpt lat="41.0656600" lon="-2.5315280">
        <ele>1095.0</ele>
        <time>2020-09-12T11:14:54Z</time>
      </trkpt>
      <trkpt lat="41.0656050" lon="-2.5314290">
        <ele>1094.8</ele>
        <time>2020-09-12T11:14:55Z</time>
      </trkpt>
      <trkpt lat="41.0655500" lon="-2.5313290">
        <ele>1094.6</ele>
        <time>2020-09-12T11:14:56Z</time>
      </trkpt>
      <trkpt lat="41.0654940" lon="-2.5312280">
        <ele>1094.4</ele>
        <time>2020-09-12T11:14:57Z</time>
      </trkpt>
      <trkpt lat="41.0654380" lon="-2.5311290">
        <ele>1094.2</ele>
        <time>2020-09-12T11:14:58Z</time>
      </trkpt>
      <trkpt lat="41.0653810" lon="-2.5310290">
        <ele>1094.2</ele>
        <time>2020-09-12T11:14:59Z</time>
      </trkpt>
      <trkpt lat="41.0653250" lon="-2.5309300">
        <ele>1094.2</ele>
        <time>2020-09-12T11:15:00Z</time>
      </trkpt>
      <trkpt lat="41.0652680" lon="-2.5308320">
        <ele>1094.2</ele>
        <time>2020-09-12T11:15:01Z</time>
      </trkpt>
      <trkpt lat="41.0652130" lon="-2.5307320">
        <ele>1094.0</ele>
        <time>2020-09-12T11:15:02Z</time>
      </trkpt>
      <trkpt lat="41.0651570" lon="-2.5306330">
        <ele>1094.0</ele>
        <time>2020-09-12T11:15:03Z</time>
      </trkpt>
      <trkpt lat="41.0651010" lon="-2.5305320">
        <ele>1093.8</ele>
        <time>2020-09-12T11:15:04Z</time>
      </trkpt>
      <trkpt lat="41.0650450" lon="-2.5304300">
        <ele>1093.6</ele>
        <time>2020-09-12T11:15:05Z</time>
      </trkpt>
      <trkpt lat="41.0649890" lon="-2.5303290">
        <ele>1093.4</ele>
        <time>2020-09-12T11:15:06Z</time>
      </trkpt>
      <trkpt lat="41.0649330" lon="-2.5302270">
        <ele>1093.2</ele>
        <time>2020-09-12T11:15:07Z</time>
      </trkpt>
      <trkpt lat="41.0648760" lon="-2.5301250">
        <ele>1093.2</ele>
        <time>2020-09-12T11:15:08Z</time>
      </trkpt>
      <trkpt lat="41.0648210" lon="-2.5300230">
        <ele>1093.0</ele>
        <time>2020-09-12T11:15:09Z</time>
      </trkpt>
      <trkpt lat="41.0647660" lon="-2.5299220">
        <ele>1093.0</ele>
        <time>2020-09-12T11:15:10Z</time>
      </trkpt>
      <trkpt lat="41.0647100" lon="-2.5298220">
        <ele>1092.8</ele>
        <time>2020-09-12T11:15:11Z</time>
      </trkpt>
      <trkpt lat="41.0646550" lon="-2.5297200">
        <ele>1092.8</ele>
        <time>2020-09-12T11:15:12Z</time>
      </trkpt>
      <trkpt lat="41.0645990" lon="-2.5296190">
        <ele>1092.6</ele>
        <time>2020-09-12T11:15:13Z</time>
      </trkpt>
      <trkpt lat="41.0645420" lon="-2.5295190">
        <ele>1092.6</ele>
        <time>2020-09-12T11:15:14Z</time>
      </trkpt>
      <trkpt lat="41.0644860" lon="-2.5294200">
        <ele>1092.6</ele>
        <time>2020-09-12T11:15:15Z</time>
      </trkpt>
      <trkpt lat="41.0644310" lon="-2.5293210">
        <ele>1092.8</ele>
        <time>2020-09-12T11:15:16Z</time>
      </trkpt>
      <trkpt lat="41.0643780" lon="-2.5292230">
        <ele>1092.6</ele>
        <time>2020-09-12T11:15:17Z</time>
      </trkpt>
      <trkpt lat="41.0643240" lon="-2.5291250">
        <ele>1092.6</ele>
        <time>2020-09-12T11:15:18Z</time>
      </trkpt>
      <trkpt lat="41.0642710" lon="-2.5290260">
        <ele>1092.8</ele>
        <time>2020-09-12T11:15:19Z</time>
      </trkpt>
      <trkpt lat="41.0642180" lon="-2.5289280">
        <ele>1092.8</ele>
        <time>2020-09-12T11:15:20Z</time>
      </trkpt>
      <trkpt lat="41.0641630" lon="-2.5288300">
        <ele>1092.8</ele>
        <time>2020-09-12T11:15:21Z</time>
      </trkpt>
      <trkpt lat="41.0641100" lon="-2.5287330">
        <ele>1092.8</ele>
        <time>2020-09-12T11:15:22Z</time>
      </trkpt>
      <trkpt lat="41.0640550" lon="-2.5286360">
        <ele>1092.6</ele>
        <time>2020-09-12T11:15:23Z</time>
      </trkpt>
      <trkpt lat="41.0640000" lon="-2.5285390">
        <ele>1092.6</ele>
        <time>2020-09-12T11:15:24Z</time>
      </trkpt>
      <trkpt lat="41.0639460" lon="-2.5284430">
        <ele>1092.6</ele>
        <time>2020-09-12T11:15:25Z</time>
      </trkpt>
      <trkpt lat="41.0638930" lon="-2.5283460">
        <ele>1092.6</ele>
        <time>2020-09-12T11:15:26Z</time>
      </trkpt>
      <trkpt lat="41.0638400" lon="-2.5282530">
        <ele>1092.4</ele>
        <time>2020-09-12T11:15:27Z</time>
      </trkpt>
      <trkpt lat="41.0637870" lon="-2.5281580">
        <ele>1092.4</ele>
        <time>2020-09-12T11:15:28Z</time>
      </trkpt>
      <trkpt lat="41.0637330" lon="-2.5280640">
        <ele>1092.2</ele>
        <time>2020-09-12T11:15:29Z</time>
      </trkpt>
      <trkpt lat="41.0636800" lon="-2.5279700">
        <ele>1092.2</ele>
        <time>2020-09-12T11:15:30Z</time>
      </trkpt>
      <trkpt lat="41.0636280" lon="-2.5278760">
        <ele>1092.2</ele>
        <time>2020-09-12T11:15:31Z</time>
      </trkpt>
      <trkpt lat="41.0635760" lon="-2.5277830">
        <ele>1092.2</ele>
        <time>2020-09-12T11:15:32Z</time>
      </trkpt>
      <trkpt lat="41.0635240" lon="-2.5276890">
        <ele>1092.2</ele>
        <time>2020-09-12T11:15:33Z</time>
      </trkpt>
      <trkpt lat="41.0634720" lon="-2.5275970">
        <ele>1092.4</ele>
        <time>2020-09-12T11:15:34Z</time>
      </trkpt>
      <trkpt lat="41.0634210" lon="-2.5275040">
        <ele>1092.4</ele>
        <time>2020-09-12T11:15:35Z</time>
      </trkpt>
      <trkpt lat="41.0633700" lon="-2.5274110">
        <ele>1092.6</ele>
        <time>2020-09-12T11:15:36Z</time>
      </trkpt>
      <trkpt lat="41.0633190" lon="-2.5273200">
        <ele>1092.6</ele>
        <time>2020-09-12T11:15:37Z</time>
      </trkpt>
      <trkpt lat="41.0632690" lon="-2.5272280">
        <ele>1092.6</ele>
        <time>2020-09-12T11:15:38Z</time>
      </trkpt>
      <trkpt lat="41.0632190" lon="-2.5271370">
        <ele>1092.8</ele>
        <time>2020-09-12T11:15:39Z</time>
      </trkpt>
      <trkpt lat="41.0631700" lon="-2.5270480">
        <ele>1092.8</ele>
        <time>2020-09-12T11:15:40Z</time>
      </trkpt>
      <trkpt lat="41.0631220" lon="-2.5269590">
        <ele>1092.8</ele>
        <time>2020-09-12T11:15:41Z</time>
      </trkpt>
      <trkpt lat="41.0630730" lon="-2.5268720">
        <ele>1092.8</ele>
        <time>2020-09-12T11:15:42Z</time>
      </trkpt>
      <trkpt lat="41.0630240" lon="-2.5267860">
        <ele>1093.0</ele>
        <time>2020-09-12T11:15:43Z</time>
      </trkpt>
      <trkpt lat="41.0629760" lon="-2.5267000">
        <ele>1093.0</ele>
        <time>2020-09-12T11:15:44Z</time>
      </trkpt>
      <trkpt lat="41.0629280" lon="-2.5266160">
        <ele>1093.2</ele>
        <time>2020-09-12T11:15:45Z</time>
      </trkpt>
      <trkpt lat="41.0628810" lon="-2.5265330">
        <ele>1093.2</ele>
        <time>2020-09-12T11:15:46Z</time>
      </trkpt>
      <trkpt lat="41.0628360" lon="-2.5264500">
        <ele>1093.2</ele>
        <time>2020-09-12T11:15:47Z</time>
      </trkpt>
      <trkpt lat="41.0627910" lon="-2.5263700">
        <ele>1093.2</ele>
        <time>2020-09-12T11:15:48Z</time>
      </trkpt>
      <trkpt lat="41.0627480" lon="-2.5262890">
        <ele>1093.4</ele>
        <time>2020-09-12T11:15:49Z</time>
      </trkpt>
      <trkpt lat="41.0627050" lon="-2.5262100">
        <ele>1093.4</ele>
        <time>2020-09-12T11:15:50Z</time>
      </trkpt>
      <trkpt lat="41.0626630" lon="-2.5261320">
        <ele>1093.6</ele>
        <time>2020-09-12T11:15:51Z</time>
      </trkpt>
      <trkpt lat="41.0626220" lon="-2.5260570">
        <ele>1093.6</ele>
        <time>2020-09-12T11:15:52Z</time>
      </trkpt>
      <trkpt lat="41.0625810" lon="-2.5259860">
        <ele>1093.8</ele>
        <time>2020-09-12T11:15:53Z</time>
      </trkpt>
      <trkpt lat="41.0625400" lon="-2.5259160">
        <ele>1093.8</ele>
        <time>2020-09-12T11:15:54Z</time>
      </trkpt>
      <trkpt lat="41.0624990" lon="-2.5258480">
        <ele>1094.0</ele>
        <time>2020-09-12T11:15:55Z</time>
      </trkpt>
      <trkpt lat="41.0624590" lon="-2.5257810">
        <ele>1094.0</ele>
        <time>2020-09-12T11:15:56Z</time>
      </trkpt>
      <trkpt lat="41.0624230" lon="-2.5257140">
        <ele>1094.0</ele>
        <time>2020-09-12T11:15:57Z</time>
      </trkpt>
      <trkpt lat="41.0623860" lon="-2.5256480">
        <ele>1094.0</ele>
        <time>2020-09-12T11:15:58Z</time>
      </trkpt>
      <trkpt lat="41.0623490" lon="-2.5255830">
        <ele>1094.0</ele>
        <time>2020-09-12T11:15:59Z</time>
      </trkpt>
      <trkpt lat="41.0623120" lon="-2.5255180">
        <ele>1094.2</ele>
        <time>2020-09-12T11:16:00Z</time>
      </trkpt>
      <trkpt lat="41.0622770" lon="-2.5254530">
        <ele>1094.4</ele>
        <time>2020-09-12T11:16:01Z</time>
      </trkpt>
      <trkpt lat="41.0622420" lon="-2.5253880">
        <ele>1094.6</ele>
        <time>2020-09-12T11:16:02Z</time>
      </trkpt>
      <trkpt lat="41.0622070" lon="-2.5253240">
        <ele>1094.8</ele>
        <time>2020-09-12T11:16:03Z</time>
      </trkpt>
      <trkpt lat="41.0621710" lon="-2.5252600">
        <ele>1095.2</ele>
        <time>2020-09-12T11:16:04Z</time>
      </trkpt>
      <trkpt lat="41.0621360" lon="-2.5251960">
        <ele>1095.6</ele>
        <time>2020-09-12T11:16:05Z</time>
      </trkpt>
      <trkpt lat="41.0621020" lon="-2.5251330">
        <ele>1095.8</ele>
        <time>2020-09-12T11:16:06Z</time>
      </trkpt>
      <trkpt lat="41.0620670" lon="-2.5250690">
        <ele>1096.0</ele>
        <time>2020-09-12T11:16:07Z</time>
      </trkpt>
      <trkpt lat="41.0620300" lon="-2.5250060">
        <ele>1096.0</ele>
        <time>2020-09-12T11:16:08Z</time>
      </trkpt>
      <trkpt lat="41.0619940" lon="-2.5249410">
        <ele>1096.2</ele>
        <time>2020-09-12T11:16:09Z</time>
      </trkpt>
      <trkpt lat="41.0619570" lon="-2.5248740">
        <ele>1096.4</ele>
        <time>2020-09-12T11:16:10Z</time>
      </trkpt>
      <trkpt lat="41.0619210" lon="-2.5248080">
        <ele>1096.4</ele>
        <time>2020-09-12T11:16:11Z</time>
      </trkpt>
      <trkpt lat="41.0618830" lon="-2.5247400">
        <ele>1096.6</ele>
        <time>2020-09-12T11:16:12Z</time>
      </trkpt>
      <trkpt lat="41.0618440" lon="-2.5246720">
        <ele>1096.6</ele>
        <time>2020-09-12T11:16:13Z</time>
      </trkpt>
      <trkpt lat="41.0618060" lon="-2.5246030">
        <ele>1096.8</ele>
        <time>2020-09-12T11:16:14Z</time>
      </trkpt>
      <trkpt lat="41.0617660" lon="-2.5245320">
        <ele>1096.8</ele>
        <time>2020-09-12T11:16:15Z</time>
      </trkpt>
      <trkpt lat="41.0617270" lon="-2.5244610">
        <ele>1097.0</ele>
        <time>2020-09-12T11:16:16Z</time>
      </trkpt>
      <trkpt lat="41.0616870" lon="-2.5243900">
        <ele>1097.0</ele>
        <time>2020-09-12T11:16:17Z</time>
      </trkpt>
      <trkpt lat="41.0616480" lon="-2.5243190">
        <ele>1097.2</ele>
        <time>2020-09-12T11:16:18Z</time>
      </trkpt>
      <trkpt lat="41.0616080" lon="-2.5242460">
        <ele>1097.2</ele>
        <time>2020-09-12T11:16:19Z</time>
      </trkpt>
      <trkpt lat="41.0615690" lon="-2.5241730">
        <ele>1097.2</ele>
        <time>2020-09-12T11:16:20Z</time>
      </trkpt>
      <trkpt lat="41.0615290" lon="-2.5241000">
        <ele>1097.2</ele>
        <time>2020-09-12T11:16:21Z</time>
      </trkpt>
      <trkpt lat="41.0614880" lon="-2.5240260">
        <ele>1097.0</ele>
        <time>2020-09-12T11:16:22Z</time>
      </trkpt>
      <trkpt lat="41.0614460" lon="-2.5239530">
        <ele>1097.0</ele>
        <time>2020-09-12T11:16:23Z</time>
      </trkpt>
      <trkpt lat="41.0614050" lon="-2.5238790">
        <ele>1097.0</ele>
        <time>2020-09-12T11:16:24Z</time>
      </trkpt>
      <trkpt lat="41.0613640" lon="-2.5238040">
        <ele>1097.0</ele>
        <time>2020-09-12T11:16:25Z</time>
      </trkpt>
      <trkpt lat="41.0613210" lon="-2.5237290">
        <ele>1097.0</ele>
        <time>2020-09-12T11:16:26Z</time>
      </trkpt>
      <trkpt lat="41.0612790" lon="-2.5236530">
        <ele>1097.0</ele>
        <time>2020-09-12T11:16:27Z</time>
      </trkpt>
      <trkpt lat="41.0612360" lon="-2.5235760">
        <ele>1097.0</ele>
        <time>2020-09-12T11:16:28Z</time>
      </trkpt>
      <trkpt lat="41.0611930" lon="-2.5235000">
        <ele>1097.0</ele>
        <time>2020-09-12T11:16:29Z</time>
      </trkpt>
      <trkpt lat="41.0611510" lon="-2.5234230">
        <ele>1097.0</ele>
        <time>2020-09-12T11:16:30Z</time>
      </trkpt>
      <trkpt lat="41.0611080" lon="-2.5233490">
        <ele>1097.0</ele>
        <time>2020-09-12T11:16:31Z</time>
      </trkpt>
      <trkpt lat="41.0610660" lon="-2.5232740">
        <ele>1097.0</ele>
        <time>2020-09-12T11:16:32Z</time>
      </trkpt>
      <trkpt lat="41.0610240" lon="-2.5232000">
        <ele>1097.2</ele>
        <time>2020-09-12T11:16:33Z</time>
      </trkpt>
      <trkpt lat="41.0609820" lon="-2.5231240">
        <ele>1097.2</ele>
        <time>2020-09-12T11:16:34Z</time>
      </trkpt>
      <trkpt lat="41.0609400" lon="-2.5230490">
        <ele>1097.2</ele>
        <time>2020-09-12T11:16:35Z</time>
      </trkpt>
      <trkpt lat="41.0608960" lon="-2.5229740">
        <ele>1097.4</ele>
        <time>2020-09-12T11:16:36Z</time>
      </trkpt>
      <trkpt lat="41.0608530" lon="-2.5228990">
        <ele>1097.4</ele>
        <time>2020-09-12T11:16:37Z</time>
      </trkpt>
      <trkpt lat="41.0608100" lon="-2.5228230">
        <ele>1097.6</ele>
        <time>2020-09-12T11:16:38Z</time>
      </trkpt>
      <trkpt lat="41.0607680" lon="-2.5227450">
        <ele>1097.6</ele>
        <time>2020-09-12T11:16:39Z</time>
      </trkpt>
      <trkpt lat="41.0607270" lon="-2.5226670">
        <ele>1098.0</ele>
        <time>2020-09-12T11:16:40Z</time>
      </trkpt>
      <trkpt lat="41.0606840" lon="-2.5225910">
        <ele>1098.2</ele>
        <time>2020-09-12T11:16:41Z</time>
      </trkpt>
      <trkpt lat="41.0606420" lon="-2.5225150">
        <ele>1098.4</ele>
        <time>2020-09-12T11:16:42Z</time>
      </trkpt>
      <trkpt lat="41.0606000" lon="-2.5224380">
        <ele>1098.4</ele>
        <time>2020-09-12T11:16:43Z</time>
      </trkpt>
      <trkpt lat="41.0605590" lon="-2.5223640">
        <ele>1098.6</ele>
        <time>2020-09-12T11:16:44Z</time>
      </trkpt>
      <trkpt lat="41.0605190" lon="-2.5222910">
        <ele>1098.6</ele>
        <time>2020-09-12T11:16:45Z</time>
      </trkpt>
      <trkpt lat="41.0604820" lon="-2.5222180">
        <ele>1098.8</ele>
        <time>2020-09-12T11:16:46Z</time>
      </trkpt>
      <trkpt lat="41.0604450" lon="-2.5221460">
        <ele>1099.0</ele>
        <time>2020-09-12T11:16:47Z</time>
      </trkpt>
      <trkpt lat="41.0604080" lon="-2.5220780">
        <ele>1098.8</ele>
        <time>2020-09-12T11:16:48Z</time>
      </trkpt>
      <trkpt lat="41.0603720" lon="-2.5220110">
        <ele>1099.0</ele>
        <time>2020-09-12T11:16:49Z</time>
      </trkpt>
      <trkpt lat="41.0603370" lon="-2.5219460">
        <ele>1099.0</ele>
        <time>2020-09-12T11:16:50Z</time>
      </trkpt>
      <trkpt lat="41.0603050" lon="-2.5218800">
        <ele>1099.2</ele>
        <time>2020-09-12T11:16:51Z</time>
      </trkpt>
      <trkpt lat="41.0602760" lon="-2.5218130">
        <ele>1099.4</ele>
        <time>2020-09-12T11:16:52Z</time>
      </trkpt>
      <trkpt lat="41.0602490" lon="-2.5217480">
        <ele>1099.6</ele>
        <time>2020-09-12T11:16:53Z</time>
      </trkpt>
      <trkpt lat="41.0602230" lon="-2.5216800">
        <ele>1099.8</ele>
        <time>2020-09-12T11:16:54Z</time>
      </trkpt>
      <trkpt lat="41.0601980" lon="-2.5216120">
        <ele>1100.0</ele>
        <time>2020-09-12T11:16:55Z</time>
      </trkpt>
      <trkpt lat="41.0601760" lon="-2.5215420">
        <ele>1100.2</ele>
        <time>2020-09-12T11:16:56Z</time>
      </trkpt>
      <trkpt lat="41.0601560" lon="-2.5214700">
        <ele>1100.2</ele>
        <time>2020-09-12T11:16:57Z</time>
      </trkpt>
      <trkpt lat="41.0601390" lon="-2.5213980">
        <ele>1100.4</ele>
        <time>2020-09-12T11:16:58Z</time>
      </trkpt>
      <trkpt lat="41.0601230" lon="-2.5213240">
        <ele>1100.6</ele>
        <time>2020-09-12T11:16:59Z</time>
      </trkpt>
      <trkpt lat="41.0601070" lon="-2.5212500">
        <ele>1100.8</ele>
        <time>2020-09-12T11:17:00Z</time>
      </trkpt>
      <trkpt lat="41.0600930" lon="-2.5211770">
        <ele>1101.0</ele>
        <time>2020-09-12T11:17:01Z</time>
      </trkpt>
      <trkpt lat="41.0600810" lon="-2.5211040">
        <ele>1101.0</ele>
        <time>2020-09-12T11:17:02Z</time>
      </trkpt>
      <trkpt lat="41.0600700" lon="-2.5210280">
        <ele>1101.0</ele>
        <time>2020-09-12T11:17:03Z</time>
      </trkpt>
      <trkpt lat="41.0600600" lon="-2.5209520">
        <ele>1101.0</ele>
        <time>2020-09-12T11:17:04Z</time>
      </trkpt>
      <trkpt lat="41.0600490" lon="-2.5208760">
        <ele>1101.0</ele>
        <time>2020-09-12T11:17:05Z</time>
      </trkpt>
      <trkpt lat="41.0600400" lon="-2.5207980">
        <ele>1101.0</ele>
        <time>2020-09-12T11:17:06Z</time>
      </trkpt>
      <trkpt lat="41.0600300" lon="-2.5207210">
        <ele>1101.2</ele>
        <time>2020-09-12T11:17:07Z</time>
      </trkpt>
      <trkpt lat="41.0600230" lon="-2.5206450">
        <ele>1101.4</ele>
        <time>2020-09-12T11:17:08Z</time>
      </trkpt>
      <trkpt lat="41.0600180" lon="-2.5205690">
        <ele>1101.8</ele>
        <time>2020-09-12T11:17:09Z</time>
      </trkpt>
      <trkpt lat="41.0600130" lon="-2.5204940">
        <ele>1102.0</ele>
        <time>2020-09-12T11:17:10Z</time>
      </trkpt>
      <trkpt lat="41.0600100" lon="-2.5204190">
        <ele>1102.2</ele>
        <time>2020-09-12T11:17:11Z</time>
      </trkpt>
      <trkpt lat="41.0600100" lon="-2.5203420">
        <ele>1102.4</ele>
        <time>2020-09-12T11:17:12Z</time>
      </trkpt>
      <trkpt lat="41.0600090" lon="-2.5202660">
        <ele>1102.6</ele>
        <time>2020-09-12T11:17:13Z</time>
      </trkpt>
      <trkpt lat="41.0600090" lon="-2.5201900">
        <ele>1102.8</ele>
        <time>2020-09-12T11:17:14Z</time>
      </trkpt>
      <trkpt lat="41.0600130" lon="-2.5201150">
        <ele>1103.2</ele>
        <time>2020-09-12T11:17:15Z</time>
      </trkpt>
      <trkpt lat="41.0600180" lon="-2.5200410">
        <ele>1103.4</ele>
        <time>2020-09-12T11:17:16Z</time>
      </trkpt>
      <trkpt lat="41.0600230" lon="-2.5199660">
        <ele>1103.6</ele>
        <time>2020-09-12T11:17:17Z</time>
      </trkpt>
      <trkpt lat="41.0600300" lon="-2.5198910">
        <ele>1103.8</ele>
        <time>2020-09-12T11:17:18Z</time>
      </trkpt>
      <trkpt lat="41.0600400" lon="-2.5198170">
        <ele>1104.0</ele>
        <time>2020-09-12T11:17:19Z</time>
      </trkpt>
      <trkpt lat="41.0600540" lon="-2.5197450">
        <ele>1104.2</ele>
        <time>2020-09-12T11:17:20Z</time>
      </trkpt>
      <trkpt lat="41.0600680" lon="-2.5196720">
        <ele>1104.2</ele>
        <time>2020-09-12T11:17:21Z</time>
      </trkpt>
      <trkpt lat="41.0600830" lon="-2.5195990">
        <ele>1104.6</ele>
        <time>2020-09-12T11:17:22Z</time>
      </trkpt>
      <trkpt lat="41.0600980" lon="-2.5195260">
        <ele>1104.8</ele>
        <time>2020-09-12T11:17:23Z</time>
      </trkpt>
      <trkpt lat="41.0601130" lon="-2.5194530">
        <ele>1105.0</ele>
        <time>2020-09-12T11:17:24Z</time>
      </trkpt>
      <trkpt lat="41.0601280" lon="-2.5193820">
        <ele>1105.0</ele>
        <time>2020-09-12T11:17:25Z</time>
      </trkpt>
      <trkpt lat="41.0601440" lon="-2.5193110">
        <ele>1105.2</ele>
        <time>2020-09-12T11:17:26Z</time>
      </trkpt>
      <trkpt lat="41.0601600" lon="-2.5192400">
        <ele>1105.2</ele>
        <time>2020-09-12T11:17:27Z</time>
      </trkpt>
      <trkpt lat="41.0601770" lon="-2.5191690">
        <ele>1105.2</ele>
        <time>2020-09-12T11:17:28Z</time>
      </trkpt>
      <trkpt lat="41.0601940" lon="-2.5190970">
        <ele>1105.2</ele>
        <time>2020-09-12T11:17:29Z</time>
      </trkpt>
      <trkpt lat="41.0602120" lon="-2.5190220">
        <ele>1105.4</ele>
        <time>2020-09-12T11:17:30Z</time>
      </trkpt>
      <trkpt lat="41.0602310" lon="-2.5189440">
        <ele>1105.4</ele>
        <time>2020-09-12T11:17:31Z</time>
      </trkpt>
      <trkpt lat="41.0602520" lon="-2.5188650">
        <ele>1105.6</ele>
        <time>2020-09-12T11:17:32Z</time>
      </trkpt>
      <trkpt lat="41.0602730" lon="-2.5187850">
        <ele>1105.6</ele>
        <time>2020-09-12T11:17:33Z</time>
      </trkpt>
      <trkpt lat="41.0602920" lon="-2.5187040">
        <ele>1105.6</ele>
        <time>2020-09-12T11:17:34Z</time>
      </trkpt>
      <trkpt lat="41.0603100" lon="-2.5186250">
        <ele>1105.8</ele>
        <time>2020-09-12T11:17:35Z</time>
      </trkpt>
      <trkpt lat="41.0603280" lon="-2.5185460">
        <ele>1106.2</ele>
        <time>2020-09-12T11:17:36Z</time>
      </trkpt>
      <trkpt lat="41.0603450" lon="-2.5184680">
        <ele>1106.4</ele>
        <time>2020-09-12T11:17:37Z</time>
      </trkpt>
      <trkpt lat="41.0603610" lon="-2.5183900">
        <ele>1106.6</ele>
        <time>2020-09-12T11:17:38Z</time>
      </trkpt>
      <trkpt lat="41.0603760" lon="-2.5183140">
        <ele>1107.0</ele>
        <time>2020-09-12T11:17:39Z</time>
      </trkpt>
      <trkpt lat="41.0603890" lon="-2.5182350">
        <ele>1107.0</ele>
        <time>2020-09-12T11:17:40Z</time>
      </trkpt>
      <trkpt lat="41.0604000" lon="-2.5181550">
        <ele>1107.2</ele>
        <time>2020-09-12T11:17:41Z</time>
      </trkpt>
      <trkpt lat="41.0604120" lon="-2.5180750">
        <ele>1107.2</ele>
        <time>2020-09-12T11:17:42Z</time>
      </trkpt>
      <trkpt lat="41.0604220" lon="-2.5179950">
        <ele>1107.4</ele>
        <time>2020-09-12T11:17:43Z</time>
      </trkpt>
      <trkpt lat="41.0604320" lon="-2.5179150">
        <ele>1107.4</ele>
        <time>2020-09-12T11:17:44Z</time>
      </trkpt>
      <trkpt lat="41.0604410" lon="-2.5178360">
        <ele>1107.4</ele>
        <time>2020-09-12T11:17:45Z</time>
      </trkpt>
      <trkpt lat="41.0604500" lon="-2.5177550">
        <ele>1107.4</ele>
        <time>2020-09-12T11:17:46Z</time>
      </trkpt>
      <trkpt lat="41.0604590" lon="-2.5176740">
        <ele>1107.6</ele>
        <time>2020-09-12T11:17:47Z</time>
      </trkpt>
      <trkpt lat="41.0604670" lon="-2.5175920">
        <ele>1107.6</ele>
        <time>2020-09-12T11:17:48Z</time>
      </trkpt>
      <trkpt lat="41.0604740" lon="-2.5175090">
        <ele>1107.8</ele>
        <time>2020-09-12T11:17:49Z</time>
      </trkpt>
      <trkpt lat="41.0604820" lon="-2.5174250">
        <ele>1108.0</ele>
        <time>2020-09-12T11:17:50Z</time>
      </trkpt>
      <trkpt lat="41.0604890" lon="-2.5173410">
        <ele>1108.0</ele>
        <time>2020-09-12T11:17:51Z</time>
      </trkpt>
      <trkpt lat="41.0604940" lon="-2.5172560">
        <ele>1108.2</ele>
        <time>2020-09-12T11:17:52Z</time>
      </trkpt>
      <trkpt lat="41.0604980" lon="-2.5171710">
        <ele>1108.2</ele>
        <time>2020-09-12T11:17:53Z</time>
      </trkpt>
      <trkpt lat="41.0605010" lon="-2.5170850">
        <ele>1108.4</ele>
        <time>2020-09-12T11:17:54Z</time>
      </trkpt>
      <trkpt lat="41.0605020" lon="-2.5169980">
        <ele>1108.6</ele>
        <time>2020-09-12T11:17:55Z</time>
      </trkpt>
      <trkpt lat="41.0605010" lon="-2.5169110">
        <ele>1108.8</ele>
        <time>2020-09-12T11:17:56Z</time>
      </trkpt>
      <trkpt lat="41.0604970" lon="-2.5168240">
        <ele>1109.0</ele>
        <time>2020-09-12T11:17:57Z</time>
      </trkpt>
      <trkpt lat="41.0604930" lon="-2.5167380">
        <ele>1109.2</ele>
        <time>2020-09-12T11:17:58Z</time>
      </trkpt>
      <trkpt lat="41.0604890" lon="-2.5166530">
        <ele>1109.2</ele>
        <time>2020-09-12T11:17:59Z</time>
      </trkpt>
      <trkpt lat="41.0604820" lon="-2.5165660">
        <ele>1109.4</ele>
        <time>2020-09-12T11:18:00Z</time>
      </trkpt>
      <trkpt lat="41.0604730" lon="-2.5164800">
        <ele>1109.6</ele>
        <time>2020-09-12T11:18:01Z</time>
      </trkpt>
      <trkpt lat="41.0604620" lon="-2.5163940">
        <ele>1109.6</ele>
        <time>2020-09-12T11:18:02Z</time>
      </trkpt>
      <trkpt lat="41.0604480" lon="-2.5163060">
        <ele>1109.6</ele>
        <time>2020-09-12T11:18:03Z</time>
      </trkpt>
      <trkpt lat="41.0604320" lon="-2.5162180">
        <ele>1109.4</ele>
        <time>2020-09-12T11:18:04Z</time>
      </trkpt>
      <trkpt lat="41.0604140" lon="-2.5161290">
        <ele>1109.4</ele>
        <time>2020-09-12T11:18:05Z</time>
      </trkpt>
      <trkpt lat="41.0603950" lon="-2.5160410">
        <ele>1109.4</ele>
        <time>2020-09-12T11:18:06Z</time>
      </trkpt>
      <trkpt lat="41.0603740" lon="-2.5159530">
        <ele>1109.4</ele>
        <time>2020-09-12T11:18:07Z</time>
      </trkpt>
      <trkpt lat="41.0603540" lon="-2.5158650">
        <ele>1109.4</ele>
        <time>2020-09-12T11:18:08Z</time>
      </trkpt>
      <trkpt lat="41.0603300" lon="-2.5157790">
        <ele>1109.4</ele>
        <time>2020-09-12T11:18:09Z</time>
      </trkpt>
      <trkpt lat="41.0603040" lon="-2.5156940">
        <ele>1109.4</ele>
        <time>2020-09-12T11:18:10Z</time>
      </trkpt>
      <trkpt lat="41.0602760" lon="-2.5156090">
        <ele>1109.4</ele>
        <time>2020-09-12T11:18:11Z</time>
      </trkpt>
      <trkpt lat="41.0602450" lon="-2.5155250">
        <ele>1109.4</ele>
        <time>2020-09-12T11:18:12Z</time>
      </trkpt>
      <trkpt lat="41.0602110" lon="-2.5154420">
        <ele>1109.4</ele>
        <time>2020-09-12T11:18:13Z</time>
      </trkpt>
      <trkpt lat="41.0601760" lon="-2.5153580">
        <ele>1109.4</ele>
        <time>2020-09-12T11:18:14Z</time>
      </trkpt>
      <trkpt lat="41.0601410" lon="-2.5152760">
        <ele>1109.4</ele>
        <time>2020-09-12T11:18:15Z</time>
      </trkpt>
      <trkpt lat="41.0601030" lon="-2.5151970">
        <ele>1109.4</ele>
        <time>2020-09-12T11:18:16Z</time>
      </trkpt>
      <trkpt lat="41.0600650" lon="-2.5151180">
        <ele>1109.4</ele>
        <time>2020-09-12T11:18:17Z</time>
      </trkpt>
      <trkpt lat="41.0600270" lon="-2.5150400">
        <ele>1109.6</ele>
        <time>2020-09-12T11:18:18Z</time>
      </trkpt>
      <trkpt lat="41.0599880" lon="-2.5149640">
        <ele>1109.6</ele>
        <time>2020-09-12T11:18:19Z</time>
      </trkpt>
      <trkpt lat="41.0599470" lon="-2.5148900">
        <ele>1109.6</ele>
        <time>2020-09-12T11:18:20Z</time>
      </trkpt>
      <trkpt lat="41.0599050" lon="-2.5148180">
        <ele>1109.6</ele>
        <time>2020-09-12T11:18:21Z</time>
      </trkpt>
      <trkpt lat="41.0598620" lon="-2.5147470">
        <ele>1109.8</ele>
        <time>2020-09-12T11:18:22Z</time>
      </trkpt>
      <trkpt lat="41.0598170" lon="-2.5146780">
        <ele>1110.0</ele>
        <time>2020-09-12T11:18:23Z</time>
      </trkpt>
      <trkpt lat="41.0597700" lon="-2.5146140">
        <ele>1110.2</ele>
        <time>2020-09-12T11:18:24Z</time>
      </trkpt>
      <trkpt lat="41.0597240" lon="-2.5145500">
        <ele>1110.4</ele>
        <time>2020-09-12T11:18:25Z</time>
      </trkpt>
      <trkpt lat="41.0596790" lon="-2.5144890">
        <ele>1110.8</ele>
        <time>2020-09-12T11:18:26Z</time>
      </trkpt>
      <trkpt lat="41.0596330" lon="-2.5144300">
        <ele>1111.2</ele>
        <time>2020-09-12T11:18:27Z</time>
      </trkpt>
      <trkpt lat="41.0595860" lon="-2.5143740">
        <ele>1111.6</ele>
        <time>2020-09-12T11:18:28Z</time>
      </trkpt>
      <trkpt lat="41.0595390" lon="-2.5143210">
        <ele>1111.6</ele>
        <time>2020-09-12T11:18:29Z</time>
      </trkpt>
      <trkpt lat="41.0594910" lon="-2.5142710">
        <ele>1111.8</ele>
        <time>2020-09-12T11:18:30Z</time>
      </trkpt>
      <trkpt lat="41.0594430" lon="-2.5142210">
        <ele>1112.0</ele>
        <time>2020-09-12T11:18:31Z</time>
      </trkpt>
      <trkpt lat="41.0593930" lon="-2.5141740">
        <ele>1112.2</ele>
        <time>2020-09-12T11:18:32Z</time>
      </trkpt>
      <trkpt lat="41.0593440" lon="-2.5141270">
        <ele>1112.4</ele>
        <time>2020-09-12T11:18:33Z</time>
      </trkpt>
      <trkpt lat="41.0592960" lon="-2.5140820">
        <ele>1112.6</ele>
        <time>2020-09-12T11:18:34Z</time>
      </trkpt>
      <trkpt lat="41.0592480" lon="-2.5140380">
        <ele>1112.6</ele>
        <time>2020-09-12T11:18:35Z</time>
      </trkpt>
      <trkpt lat="41.0592000" lon="-2.5139970">
        <ele>1112.8</ele>
        <time>2020-09-12T11:18:36Z</time>
      </trkpt>
      <trkpt lat="41.0591540" lon="-2.5139560">
        <ele>1113.0</ele>
        <time>2020-09-12T11:18:37Z</time>
      </trkpt>
      <trkpt lat="41.0591060" lon="-2.5139170">
        <ele>1113.4</ele>
        <time>2020-09-12T11:18:38Z</time>
      </trkpt>
      <trkpt lat="41.0590580" lon="-2.5138780">
        <ele>1113.6</ele>
        <time>2020-09-12T11:18:39Z</time>
      </trkpt>
      <trkpt lat="41.0590090" lon="-2.5138410">
        <ele>1113.8</ele>
        <time>2020-09-12T11:18:40Z</time>
      </trkpt>
      <trkpt lat="41.0589600" lon="-2.5138050">
        <ele>1114.2</ele>
        <time>2020-09-12T11:18:41Z</time>
      </trkpt>
      <trkpt lat="41.0589110" lon="-2.5137690">
        <ele>1114.4</ele>
        <time>2020-09-12T11:18:42Z</time>
      </trkpt>
      <trkpt lat="41.0588640" lon="-2.5137330">
        <ele>1114.6</ele>
        <time>2020-09-12T11:18:43Z</time>
      </trkpt>
      <trkpt lat="41.0588160" lon="-2.5137010">
        <ele>1114.8</ele>
        <time>2020-09-12T11:18:44Z</time>
      </trkpt>
      <trkpt lat="41.0587700" lon="-2.5136700">
        <ele>1115.0</ele>
        <time>2020-09-12T11:18:45Z</time>
      </trkpt>
      <trkpt lat="41.0587240" lon="-2.5136400">
        <ele>1115.4</ele>
        <time>2020-09-12T11:18:46Z</time>
      </trkpt>
      <trkpt lat="41.0586780" lon="-2.5136090">
        <ele>1115.8</ele>
        <time>2020-09-12T11:18:47Z</time>
      </trkpt>
      <trkpt lat="41.0586330" lon="-2.5135770">
        <ele>1116.0</ele>
        <time>2020-09-12T11:18:48Z</time>
      </trkpt>
      <trkpt lat="41.0585880" lon="-2.5135490">
        <ele>1116.4</ele>
        <time>2020-09-12T11:18:49Z</time>
      </trkpt>
      <trkpt lat="41.0585430" lon="-2.5135200">
        <ele>1116.4</ele>
        <time>2020-09-12T11:18:50Z</time>
      </trkpt>
      <trkpt lat="41.0584980" lon="-2.5134920">
        <ele>1116.6</ele>
        <time>2020-09-12T11:18:51Z</time>
      </trkpt>
      <trkpt lat="41.0584530" lon="-2.5134650">
        <ele>1117.0</ele>
        <time>2020-09-12T11:18:52Z</time>
      </trkpt>
      <trkpt lat="41.0584080" lon="-2.5134370">
        <ele>1117.0</ele>
        <time>2020-09-12T11:18:53Z</time>
      </trkpt>
      <trkpt lat="41.0583630" lon="-2.5134070">
        <ele>1117.2</ele>
        <time>2020-09-12T11:18:54Z</time>
      </trkpt>
      <trkpt lat="41.0583180" lon="-2.5133780">
        <ele>1117.4</ele>
        <time>2020-09-12T11:18:55Z</time>
      </trkpt>
      <trkpt lat="41.0582730" lon="-2.5133490">
        <ele>1117.4</ele>
        <time>2020-09-12T11:18:56Z</time>
      </trkpt>
      <trkpt lat="41.0582260" lon="-2.5133220">
        <ele>1117.6</ele>
        <time>2020-09-12T11:18:57Z</time>
      </trkpt>
      <trkpt lat="41.0581770" lon="-2.5132950">
        <ele>1117.6</ele>
        <time>2020-09-12T11:18:58Z</time>
      </trkpt>
      <trkpt lat="41.0581300" lon="-2.5132690">
        <ele>1117.8</ele>
        <time>2020-09-12T11:18:59Z</time>
      </trkpt>
      <trkpt lat="41.0580820" lon="-2.5132460">
        <ele>1117.8</ele>
        <time>2020-09-12T11:19:00Z</time>
      </trkpt>
      <trkpt lat="41.0580320" lon="-2.5132240">
        <ele>1117.8</ele>
        <time>2020-09-12T11:19:01Z</time>
      </trkpt>
      <trkpt lat="41.0579810" lon="-2.5132030">
        <ele>1118.0</ele>
        <time>2020-09-12T11:19:02Z</time>
      </trkpt>
      <trkpt lat="41.0579290" lon="-2.5131840">
        <ele>1118.2</ele>
        <time>2020-09-12T11:19:03Z</time>
      </trkpt>
      <trkpt lat="41.0578750" lon="-2.5131660">
        <ele>1118.4</ele>
        <time>2020-09-12T11:19:04Z</time>
      </trkpt>
      <trkpt lat="41.0578210" lon="-2.5131480">
        <ele>1118.6</ele>
        <time>2020-09-12T11:19:05Z</time>
      </trkpt>
      <trkpt lat="41.0577680" lon="-2.5131310">
        <ele>1118.8</ele>
        <time>2020-09-12T11:19:06Z</time>
      </trkpt>
      <trkpt lat="41.0577130" lon="-2.5131160">
        <ele>1119.0</ele>
        <time>2020-09-12T11:19:07Z</time>
      </trkpt>
      <trkpt lat="41.0576600" lon="-2.5131020">
        <ele>1119.0</ele>
        <time>2020-09-12T11:19:08Z</time>
      </trkpt>
      <trkpt lat="41.0576070" lon="-2.5130870">
        <ele>1119.2</ele>
        <time>2020-09-12T11:19:09Z</time>
      </trkpt>
      <trkpt lat="41.0575530" lon="-2.5130720">
        <ele>1119.2</ele>
        <time>2020-09-12T11:19:10Z</time>
      </trkpt>
      <trkpt lat="41.0575000" lon="-2.5130590">
        <ele>1119.2</ele>
        <time>2020-09-12T11:19:11Z</time>
      </trkpt>
      <trkpt lat="41.0574470" lon="-2.5130440">
        <ele>1119.4</ele>
        <time>2020-09-12T11:19:12Z</time>
      </trkpt>
      <trkpt lat="41.0573940" lon="-2.5130300">
        <ele>1119.4</ele>
        <time>2020-09-12T11:19:13Z</time>
      </trkpt>
      <trkpt lat="41.0573390" lon="-2.5130120">
        <ele>1119.4</ele>
        <time>2020-09-12T11:19:14Z</time>
      </trkpt>
      <trkpt lat="41.0572810" lon="-2.5129940">
        <ele>1119.4</ele>
        <time>2020-09-12T11:19:15Z</time>
      </trkpt>
      <trkpt lat="41.0572220" lon="-2.5129750">
        <ele>1119.4</ele>
        <time>2020-09-12T11:19:16Z</time>
      </trkpt>
      <trkpt lat="41.0571610" lon="-2.5129550">
        <ele>1119.6</ele>
        <time>2020-09-12T11:19:17Z</time>
      </trkpt>
      <trkpt lat="41.0571000" lon="-2.5129330">
        <ele>1119.6</ele>
        <time>2020-09-12T11:19:18Z</time>
      </trkpt>
      <trkpt lat="41.0570390" lon="-2.5129100">
        <ele>1119.6</ele>
        <time>2020-09-12T11:19:19Z</time>
      </trkpt>
      <trkpt lat="41.0569760" lon="-2.5128870">
        <ele>1119.6</ele>
        <time>2020-09-12T11:19:20Z</time>
      </trkpt>
      <trkpt lat="41.0569130" lon="-2.5128630">
        <ele>1119.8</ele>
        <time>2020-09-12T11:19:21Z</time>
      </trkpt>
      <trkpt lat="41.0568510" lon="-2.5128380">
        <ele>1119.8</ele>
        <time>2020-09-12T11:19:22Z</time>
      </trkpt>
      <trkpt lat="41.0567880" lon="-2.5128130">
        <ele>1120.0</ele>
        <time>2020-09-12T11:19:23Z</time>
      </trkpt>
      <trkpt lat="41.0567260" lon="-2.5127860">
        <ele>1120.2</ele>
        <time>2020-09-12T11:19:24Z</time>
      </trkpt>
      <trkpt lat="41.0566630" lon="-2.5127570">
        <ele>1120.2</ele>
        <time>2020-09-12T11:19:25Z</time>
      </trkpt>
      <trkpt lat="41.0566010" lon="-2.5127270">
        <ele>1120.2</ele>
        <time>2020-09-12T11:19:26Z</time>
      </trkpt>
      <trkpt lat="41.0565380" lon="-2.5126950">
        <ele>1120.2</ele>
        <time>2020-09-12T11:19:27Z</time>
      </trkpt>
      <trkpt lat="41.0564750" lon="-2.5126620">
        <ele>1120.2</ele>
        <time>2020-09-12T11:19:28Z</time>
      </trkpt>
      <trkpt lat="41.0564120" lon="-2.5126250">
        <ele>1120.2</ele>
        <time>2020-09-12T11:19:29Z</time>
      </trkpt>
      <trkpt lat="41.0563490" lon="-2.5125820">
        <ele>1120.0</ele>
        <time>2020-09-12T11:19:30Z</time>
      </trkpt>
      <trkpt lat="41.0562870" lon="-2.5125340">
        <ele>1120.0</ele>
        <time>2020-09-12T11:19:31Z</time>
      </trkpt>
      <trkpt lat="41.0562250" lon="-2.5124840">
        <ele>1119.8</ele>
        <time>2020-09-12T11:19:32Z</time>
      </trkpt>
      <trkpt lat="41.0561660" lon="-2.5124320">
        <ele>1119.8</ele>
        <time>2020-09-12T11:19:33Z</time>
      </trkpt>
      <trkpt lat="41.0561100" lon="-2.5123750">
        <ele>1119.8</ele>
        <time>2020-09-12T11:19:34Z</time>
      </trkpt>
      <trkpt lat="41.0560540" lon="-2.5123150">
        <ele>1119.8</ele>
        <time>2020-09-12T11:19:35Z</time>
      </trkpt>
      <trkpt lat="41.0560000" lon="-2.5122530">
        <ele>1119.6</ele>
        <time>2020-09-12T11:19:36Z</time>
      </trkpt>
      <trkpt lat="41.0559460" lon="-2.5121860">
        <ele>1119.4</ele>
        <time>2020-09-12T11:19:37Z</time>
      </trkpt>
      <trkpt lat="41.0558940" lon="-2.5121140">
        <ele>1119.4</ele>
        <time>2020-09-12T11:19:38Z</time>
      </trkpt>
      <trkpt lat="41.0558430" lon="-2.5120390">
        <ele>1119.4</ele>
        <time>2020-09-12T11:19:39Z</time>
      </trkpt>
      <trkpt lat="41.0557940" lon="-2.5119630">
        <ele>1119.4</ele>
        <time>2020-09-12T11:19:40Z</time>
      </trkpt>
      <trkpt lat="41.0557460" lon="-2.5118880">
        <ele>1119.4</ele>
        <time>2020-09-12T11:19:41Z</time>
      </trkpt>
      <trkpt lat="41.0556990" lon="-2.5118130">
        <ele>1119.4</ele>
        <time>2020-09-12T11:19:42Z</time>
      </trkpt>
      <trkpt lat="41.0556520" lon="-2.5117370">
        <ele>1119.6</ele>
        <time>2020-09-12T11:19:43Z</time>
      </trkpt>
      <trkpt lat="41.0556060" lon="-2.5116580">
        <ele>1119.6</ele>
        <time>2020-09-12T11:19:44Z</time>
      </trkpt>
      <trkpt lat="41.0555600" lon="-2.5115770">
        <ele>1119.6</ele>
        <time>2020-09-12T11:19:45Z</time>
      </trkpt>
      <trkpt lat="41.0555130" lon="-2.5114930">
        <ele>1119.6</ele>
        <time>2020-09-12T11:19:46Z</time>
      </trkpt>
      <trkpt lat="41.0554670" lon="-2.5114100">
        <ele>1119.4</ele>
        <time>2020-09-12T11:19:47Z</time>
      </trkpt>
      <trkpt lat="41.0554230" lon="-2.5113260">
        <ele>1119.0</ele>
        <time>2020-09-12T11:19:48Z</time>
      </trkpt>
      <trkpt lat="41.0553830" lon="-2.5112420">
        <ele>1119.0</ele>
        <time>2020-09-12T11:19:49Z</time>
      </trkpt>
      <trkpt lat="41.0553450" lon="-2.5111560">
        <ele>1118.8</ele>
        <time>2020-09-12T11:19:50Z</time>
      </trkpt>
      <trkpt lat="41.0553100" lon="-2.5110690">
        <ele>1119.0</ele>
        <time>2020-09-12T11:19:51Z</time>
      </trkpt>
      <trkpt lat="41.0552780" lon="-2.5109820">
        <ele>1119.0</ele>
        <time>2020-09-12T11:19:52Z</time>
      </trkpt>
      <trkpt lat="41.0552510" lon="-2.5108920">
        <ele>1119.0</ele>
        <time>2020-09-12T11:19:53Z</time>
      </trkpt>
      <trkpt lat="41.0552250" lon="-2.5108050">
        <ele>1119.0</ele>
        <time>2020-09-12T11:19:54Z</time>
      </trkpt>
      <trkpt lat="41.0552000" lon="-2.5107190">
        <ele>1119.2</ele>
        <time>2020-09-12T11:19:55Z</time>
      </trkpt>
      <trkpt lat="41.0551790" lon="-2.5106330">
        <ele>1119.4</ele>
        <time>2020-09-12T11:19:56Z</time>
      </trkpt>
      <trkpt lat="41.0551600" lon="-2.5105460">
        <ele>1119.6</ele>
        <time>2020-09-12T11:19:57Z</time>
      </trkpt>
      <trkpt lat="41.0551450" lon="-2.5104590">
        <ele>1119.6</ele>
        <time>2020-09-12T11:19:58Z</time>
      </trkpt>
      <trkpt lat="41.0551330" lon="-2.5103710">
        <ele>1119.6</ele>
        <time>2020-09-12T11:19:59Z</time>
      </trkpt>
      <trkpt lat="41.0551220" lon="-2.5102850">
        <ele>1119.6</ele>
        <time>2020-09-12T11:20:00Z</time>
      </trkpt>
      <trkpt lat="41.0551130" lon="-2.5101980">
        <ele>1119.8</ele>
        <time>2020-09-12T11:20:01Z</time>
      </trkpt>
      <trkpt lat="41.0551040" lon="-2.5101120">
        <ele>1119.8</ele>
        <time>2020-09-12T11:20:02Z</time>
      </trkpt>
      <trkpt lat="41.0550960" lon="-2.5100260">
        <ele>1119.8</ele>
        <time>2020-09-12T11:20:03Z</time>
      </trkpt>
      <trkpt lat="41.0550910" lon="-2.5099420">
        <ele>1120.0</ele>
        <time>2020-09-12T11:20:04Z</time>
      </trkpt>
      <trkpt lat="41.0550890" lon="-2.5098570">
        <ele>1120.0</ele>
        <time>2020-09-12T11:20:05Z</time>
      </trkpt>
      <trkpt lat="41.0550870" lon="-2.5097720">
        <ele>1120.0</ele>
        <time>2020-09-12T11:20:06Z</time>
      </trkpt>
      <trkpt lat="41.0550860" lon="-2.5096880">
        <ele>1120.0</ele>
        <time>2020-09-12T11:20:07Z</time>
      </trkpt>
      <trkpt lat="41.0550860" lon="-2.5096070">
        <ele>1120.0</ele>
        <time>2020-09-12T11:20:08Z</time>
      </trkpt>
      <trkpt lat="41.0550860" lon="-2.5095260">
        <ele>1120.4</ele>
        <time>2020-09-12T11:20:09Z</time>
      </trkpt>
      <trkpt lat="41.0550880" lon="-2.5094470">
        <ele>1121.0</ele>
        <time>2020-09-12T11:20:10Z</time>
      </trkpt>
      <trkpt lat="41.0550910" lon="-2.5093670">
        <ele>1121.4</ele>
        <time>2020-09-12T11:20:11Z</time>
      </trkpt>
      <trkpt lat="41.0550950" lon="-2.5092860">
        <ele>1121.8</ele>
        <time>2020-09-12T11:20:12Z</time>
      </trkpt>
      <trkpt lat="41.0551020" lon="-2.5092030">
        <ele>1121.8</ele>
        <time>2020-09-12T11:20:13Z</time>
      </trkpt>
      <trkpt lat="41.0551110" lon="-2.5091170">
        <ele>1121.8</ele>
        <time>2020-09-12T11:20:14Z</time>
      </trkpt>
      <trkpt lat="41.0551220" lon="-2.5090330">
        <ele>1121.8</ele>
        <time>2020-09-12T11:20:15Z</time>
      </trkpt>
      <trkpt lat="41.0551340" lon="-2.5089510">
        <ele>1121.8</ele>
        <time>2020-09-12T11:20:16Z</time>
      </trkpt>
      <trkpt lat="41.0551480" lon="-2.5088700">
        <ele>1121.8</ele>
        <time>2020-09-12T11:20:17Z</time>
      </trkpt>
      <trkpt lat="41.0551650" lon="-2.5087890">
        <ele>1121.8</ele>
        <time>2020-09-12T11:20:18Z</time>
      </trkpt>
      <trkpt lat="41.0551840" lon="-2.5087070">
        <ele>1121.8</ele>
        <time>2020-09-12T11:20:19Z</time>
      </trkpt>
      <trkpt lat="41.0552050" lon="-2.5086260">
        <ele>1122.0</ele>
        <time>2020-09-12T11:20:20Z</time>
      </trkpt>
      <trkpt lat="41.0552300" lon="-2.5085470">
        <ele>1122.2</ele>
        <time>2020-09-12T11:20:21Z</time>
      </trkpt>
      <trkpt lat="41.0552530" lon="-2.5084670">
        <ele>1122.4</ele>
        <time>2020-09-12T11:20:22Z</time>
      </trkpt>
      <trkpt lat="41.0552760" lon="-2.5083880">
        <ele>1122.6</ele>
        <time>2020-09-12T11:20:23Z</time>
      </trkpt>
      <trkpt lat="41.0553010" lon="-2.5083130">
        <ele>1122.6</ele>
        <time>2020-09-12T11:20:24Z</time>
      </trkpt>
      <trkpt lat="41.0553280" lon="-2.5082390">
        <ele>1122.6</ele>
        <time>2020-09-12T11:20:25Z</time>
      </trkpt>
      <trkpt lat="41.0553570" lon="-2.5081660">
        <ele>1122.8</ele>
        <time>2020-09-12T11:20:26Z</time>
      </trkpt>
      <trkpt lat="41.0553850" lon="-2.5080930">
        <ele>1122.8</ele>
        <time>2020-09-12T11:20:27Z</time>
      </trkpt>
      <trkpt lat="41.0554140" lon="-2.5080210">
        <ele>1122.8</ele>
        <time>2020-09-12T11:20:28Z</time>
      </trkpt>
      <trkpt lat="41.0554450" lon="-2.5079490">
        <ele>1122.8</ele>
        <time>2020-09-12T11:20:29Z</time>
      </trkpt>
      <trkpt lat="41.0554780" lon="-2.5078780">
        <ele>1122.8</ele>
        <time>2020-09-12T11:20:30Z</time>
      </trkpt>
      <trkpt lat="41.0555110" lon="-2.5078070">
        <ele>1122.8</ele>
        <time>2020-09-12T11:20:31Z</time>
      </trkpt>
      <trkpt lat="41.0555430" lon="-2.5077360">
        <ele>1122.8</ele>
        <time>2020-09-12T11:20:32Z</time>
      </trkpt>
      <trkpt lat="41.0555760" lon="-2.5076650">
        <ele>1122.8</ele>
        <time>2020-09-12T11:20:33Z</time>
      </trkpt>
      <trkpt lat="41.0556100" lon="-2.5075940">
        <ele>1122.8</ele>
        <time>2020-09-12T11:20:34Z</time>
      </trkpt>
      <trkpt lat="41.0556450" lon="-2.5075240">
        <ele>1122.8</ele>
        <time>2020-09-12T11:20:35Z</time>
      </trkpt>
      <trkpt lat="41.0556800" lon="-2.5074530">
        <ele>1123.2</ele>
        <time>2020-09-12T11:20:36Z</time>
      </trkpt>
      <trkpt lat="41.0557160" lon="-2.5073820">
        <ele>1123.2</ele>
        <time>2020-09-12T11:20:37Z</time>
      </trkpt>
      <trkpt lat="41.0557530" lon="-2.5073130">
        <ele>1123.4</ele>
        <time>2020-09-12T11:20:38Z</time>
      </trkpt>
      <trkpt lat="41.0557880" lon="-2.5072440">
        <ele>1123.6</ele>
        <time>2020-09-12T11:20:39Z</time>
      </trkpt>
      <trkpt lat="41.0558220" lon="-2.5071760">
        <ele>1123.6</ele>
        <time>2020-09-12T11:20:40Z</time>
      </trkpt>
      <trkpt lat="41.0558570" lon="-2.5071070">
        <ele>1123.8</ele>
        <time>2020-09-12T11:20:41Z</time>
      </trkpt>
      <trkpt lat="41.0558920" lon="-2.5070410">
        <ele>1124.0</ele>
        <time>2020-09-12T11:20:42Z</time>
      </trkpt>
      <trkpt lat="41.0559250" lon="-2.5069740">
        <ele>1124.2</ele>
        <time>2020-09-12T11:20:43Z</time>
      </trkpt>
      <trkpt lat="41.0559590" lon="-2.5069070">
        <ele>1124.4</ele>
        <time>2020-09-12T11:20:44Z</time>
      </trkpt>
      <trkpt lat="41.0559910" lon="-2.5068390">
        <ele>1124.6</ele>
        <time>2020-09-12T11:20:45Z</time>
      </trkpt>
      <trkpt lat="41.0560240" lon="-2.5067710">
        <ele>1124.4</ele>
        <time>2020-09-12T11:20:46Z</time>
      </trkpt>
      <trkpt lat="41.0560590" lon="-2.5067060">
        <ele>1124.4</ele>
        <time>2020-09-12T11:20:47Z</time>
      </trkpt>
      <trkpt lat="41.0560930" lon="-2.5066410">
        <ele>1124.4</ele>
        <time>2020-09-12T11:20:48Z</time>
      </trkpt>
      <trkpt lat="41.0561270" lon="-2.5065750">
        <ele>1124.4</ele>
        <time>2020-09-12T11:20:49Z</time>
      </trkpt>
      <trkpt lat="41.0561590" lon="-2.5065090">
        <ele>1124.4</ele>
        <time>2020-09-12T11:20:50Z</time>
      </trkpt>
      <trkpt lat="41.0561910" lon="-2.5064420">
        <ele>1124.4</ele>
        <time>2020-09-12T11:20:51Z</time>
      </trkpt>
      <trkpt lat="41.0562210" lon="-2.5063740">
        <ele>1124.6</ele>
        <time>2020-09-12T11:20:52Z</time>
      </trkpt>
      <trkpt lat="41.0562490" lon="-2.5063050">
        <ele>1124.8</ele>
        <time>2020-09-12T11:20:53Z</time>
      </trkpt>
      <trkpt lat="41.0562750" lon="-2.5062350">
        <ele>1125.0</ele>
        <time>2020-09-12T11:20:54Z</time>
      </trkpt>
      <trkpt lat="41.0563020" lon="-2.5061630">
        <ele>1125.2</ele>
        <time>2020-09-12T11:20:55Z</time>
      </trkpt>
      <trkpt lat="41.0563290" lon="-2.5060920">
        <ele>1125.4</ele>
        <time>2020-09-12T11:20:56Z</time>
      </trkpt>
      <trkpt lat="41.0563540" lon="-2.5060190">
        <ele>1125.6</ele>
        <time>2020-09-12T11:20:57Z</time>
      </trkpt>
      <trkpt lat="41.0563760" lon="-2.5059450">
        <ele>1125.6</ele>
        <time>2020-09-12T11:20:58Z</time>
      </trkpt>
      <trkpt lat="41.0563960" lon="-2.5058690">
        <ele>1125.6</ele>
        <time>2020-09-12T11:20:59Z</time>
      </trkpt>
      <trkpt lat="41.0564150" lon="-2.5057930">
        <ele>1125.6</ele>
        <time>2020-09-12T11:21:00Z</time>
      </trkpt>
      <trkpt lat="41.0564330" lon="-2.5057180">
        <ele>1125.6</ele>
        <time>2020-09-12T11:21:01Z</time>
      </trkpt>
      <trkpt lat="41.0564490" lon="-2.5056420">
        <ele>1125.6</ele>
        <time>2020-09-12T11:21:02Z</time>
      </trkpt>
      <trkpt lat="41.0564640" lon="-2.5055650">
        <ele>1125.6</ele>
        <time>2020-09-12T11:21:03Z</time>
      </trkpt>
      <trkpt lat="41.0564770" lon="-2.5054870">
        <ele>1125.6</ele>
        <time>2020-09-12T11:21:04Z</time>
      </trkpt>
      <trkpt lat="41.0564880" lon="-2.5054080">
        <ele>1125.8</ele>
        <time>2020-09-12T11:21:05Z</time>
      </trkpt>
      <trkpt lat="41.0564970" lon="-2.5053280">
        <ele>1125.8</ele>
        <time>2020-09-12T11:21:06Z</time>
      </trkpt>
      <trkpt lat="41.0565060" lon="-2.5052480">
        <ele>1126.0</ele>
        <time>2020-09-12T11:21:07Z</time>
      </trkpt>
      <trkpt lat="41.0565160" lon="-2.5051690">
        <ele>1126.2</ele>
        <time>2020-09-12T11:21:08Z</time>
      </trkpt>
      <trkpt lat="41.0565230" lon="-2.5050890">
        <ele>1126.4</ele>
        <time>2020-09-12T11:21:09Z</time>
      </trkpt>
      <trkpt lat="41.0565280" lon="-2.5050100">
        <ele>1126.6</ele>
        <time>2020-09-12T11:21:10Z</time>
      </trkpt>
      <trkpt lat="41.0565300" lon="-2.5049310">
        <ele>1126.6</ele>
        <time>2020-09-12T11:21:11Z</time>
      </trkpt>
      <trkpt lat="41.0565310" lon="-2.5048510">
        <ele>1127.0</ele>
        <time>2020-09-12T11:21:12Z</time>
      </trkpt>
      <trkpt lat="41.0565290" lon="-2.5047710">
        <ele>1127.4</ele>
        <time>2020-09-12T11:21:13Z</time>
      </trkpt>
      <trkpt lat="41.0565250" lon="-2.5046900">
        <ele>1127.6</ele>
        <time>2020-09-12T11:21:14Z</time>
      </trkpt>
      <trkpt lat="41.0565160" lon="-2.5046100">
        <ele>1127.6</ele>
        <time>2020-09-12T11:21:15Z</time>
      </trkpt>
      <trkpt lat="41.0565040" lon="-2.5045290">
        <ele>1127.8</ele>
        <time>2020-09-12T11:21:16Z</time>
      </trkpt>
      <trkpt lat="41.0564920" lon="-2.5044490">
        <ele>1128.0</ele>
        <time>2020-09-12T11:21:17Z</time>
      </trkpt>
      <trkpt lat="41.0564800" lon="-2.5043680">
        <ele>1128.0</ele>
        <time>2020-09-12T11:21:18Z</time>
      </trkpt>
      <trkpt lat="41.0564700" lon="-2.5042860">
        <ele>1128.0</ele>
        <time>2020-09-12T11:21:19Z</time>
      </trkpt>
      <trkpt lat="41.0564570" lon="-2.5042060">
        <ele>1128.2</ele>
        <time>2020-09-12T11:21:20Z</time>
      </trkpt>
      <trkpt lat="41.0564450" lon="-2.5041280">
        <ele>1128.2</ele>
        <time>2020-09-12T11:21:21Z</time>
      </trkpt>
      <trkpt lat="41.0564340" lon="-2.5040510">
        <ele>1128.2</ele>
        <time>2020-09-12T11:21:22Z</time>
      </trkpt>
      <trkpt lat="41.0564220" lon="-2.5039730">
        <ele>1128.4</ele>
        <time>2020-09-12T11:21:23Z</time>
      </trkpt>
      <trkpt lat="41.0564100" lon="-2.5038940">
        <ele>1128.4</ele>
        <time>2020-09-12T11:21:24Z</time>
      </trkpt>
      <trkpt lat="41.0563980" lon="-2.5038150">
        <ele>1128.4</ele>
        <time>2020-09-12T11:21:25Z</time>
      </trkpt>
      <trkpt lat="41.0563870" lon="-2.5037360">
        <ele>1128.4</ele>
        <time>2020-09-12T11:21:26Z</time>
      </trkpt>
      <trkpt lat="41.0563750" lon="-2.5036560">
        <ele>1128.4</ele>
        <time>2020-09-12T11:21:27Z</time>
      </trkpt>
      <trkpt lat="41.0563640" lon="-2.5035750">
        <ele>1128.6</ele>
        <time>2020-09-12T11:21:28Z</time>
      </trkpt>
      <trkpt lat="41.0563530" lon="-2.5034940">
        <ele>1128.8</ele>
        <time>2020-09-12T11:21:29Z</time>
      </trkpt>
      <trkpt lat="41.0563410" lon="-2.5034120">
        <ele>1129.0</ele>
        <time>2020-09-12T11:21:30Z</time>
      </trkpt>
      <trkpt lat="41.0563290" lon="-2.5033290">
        <ele>1129.0</ele>
        <time>2020-09-12T11:21:31Z</time>
      </trkpt>
      <trkpt lat="41.0563180" lon="-2.5032480">
        <ele>1129.0</ele>
        <time>2020-09-12T11:21:32Z</time>
      </trkpt>
      <trkpt lat="41.0563070" lon="-2.5031670">
        <ele>1129.0</ele>
        <time>2020-09-12T11:21:33Z</time>
      </trkpt>
      <trkpt lat="41.0562970" lon="-2.5030870">
        <ele>1129.2</ele>
        <time>2020-09-12T11:21:34Z</time>
      </trkpt>
      <trkpt lat="41.0562860" lon="-2.5030060">
        <ele>1129.2</ele>
        <time>2020-09-12T11:21:35Z</time>
      </trkpt>
      <trkpt lat="41.0562740" lon="-2.5029250">
        <ele>1129.2</ele>
        <time>2020-09-12T11:21:36Z</time>
      </trkpt>
      <trkpt lat="41.0562630" lon="-2.5028440">
        <ele>1129.4</ele>
        <time>2020-09-12T11:21:37Z</time>
      </trkpt>
      <trkpt lat="41.0562530" lon="-2.5027640">
        <ele>1129.4</ele>
        <time>2020-09-12T11:21:38Z</time>
      </trkpt>
      <trkpt lat="41.0562420" lon="-2.5026840">
        <ele>1129.4</ele>
        <time>2020-09-12T11:21:39Z</time>
      </trkpt>
      <trkpt lat="41.0562290" lon="-2.5026040">
        <ele>1129.4</ele>
        <time>2020-09-12T11:21:40Z</time>
      </trkpt>
      <trkpt lat="41.0562160" lon="-2.5025230">
        <ele>1129.4</ele>
        <time>2020-09-12T11:21:41Z</time>
      </trkpt>
      <trkpt lat="41.0562050" lon="-2.5024420">
        <ele>1129.4</ele>
        <time>2020-09-12T11:21:42Z</time>
      </trkpt>
      <trkpt lat="41.0561960" lon="-2.5023580">
        <ele>1129.4</ele>
        <time>2020-09-12T11:21:43Z</time>
      </trkpt>
      <trkpt lat="41.0561860" lon="-2.5022740">
        <ele>1129.4</ele>
        <time>2020-09-12T11:21:44Z</time>
      </trkpt>
      <trkpt lat="41.0561750" lon="-2.5021880">
        <ele>1129.4</ele>
        <time>2020-09-12T11:21:45Z</time>
      </trkpt>
      <trkpt lat="41.0561640" lon="-2.5021030">
        <ele>1129.4</ele>
        <time>2020-09-12T11:21:46Z</time>
      </trkpt>
      <trkpt lat="41.0561550" lon="-2.5020190">
        <ele>1129.4</ele>
        <time>2020-09-12T11:21:47Z</time>
      </trkpt>
      <trkpt lat="41.0561450" lon="-2.5019350">
        <ele>1129.4</ele>
        <time>2020-09-12T11:21:48Z</time>
      </trkpt>
      <trkpt lat="41.0561340" lon="-2.5018510">
        <ele>1129.4</ele>
        <time>2020-09-12T11:21:49Z</time>
      </trkpt>
      <trkpt lat="41.0561240" lon="-2.5017670">
        <ele>1129.4</ele>
        <time>2020-09-12T11:21:50Z</time>
      </trkpt>
      <trkpt lat="41.0561140" lon="-2.5016830">
        <ele>1129.4</ele>
        <time>2020-09-12T11:21:51Z</time>
      </trkpt>
      <trkpt lat="41.0561050" lon="-2.5016010">
        <ele>1129.6</ele>
        <time>2020-09-12T11:21:52Z</time>
      </trkpt>
      <trkpt lat="41.0560930" lon="-2.5015200">
        <ele>1129.6</ele>
        <time>2020-09-12T11:21:53Z</time>
      </trkpt>
      <trkpt lat="41.0560820" lon="-2.5014380">
        <ele>1129.6</ele>
        <time>2020-09-12T11:21:54Z</time>
      </trkpt>
      <trkpt lat="41.0560710" lon="-2.5013550">
        <ele>1129.6</ele>
        <time>2020-09-12T11:21:55Z</time>
      </trkpt>
      <trkpt lat="41.0560620" lon="-2.5012720">
        <ele>1129.8</ele>
        <time>2020-09-12T11:21:56Z</time>
      </trkpt>
      <trkpt lat="41.0560520" lon="-2.5011880">
        <ele>1130.0</ele>
        <time>2020-09-12T11:21:57Z</time>
      </trkpt>
      <trkpt lat="41.0560420" lon="-2.5011040">
        <ele>1129.8</ele>
        <time>2020-09-12T11:21:58Z</time>
      </trkpt>
      <trkpt lat="41.0560300" lon="-2.5010200">
        <ele>1129.8</ele>
        <time>2020-09-12T11:21:59Z</time>
      </trkpt>
      <trkpt lat="41.0560190" lon="-2.5009350">
        <ele>1129.8</ele>
        <time>2020-09-12T11:22:00Z</time>
      </trkpt>
      <trkpt lat="41.0560100" lon="-2.5008500">
        <ele>1129.8</ele>
        <time>2020-09-12T11:22:01Z</time>
      </trkpt>
      <trkpt lat="41.0560020" lon="-2.5007660">
        <ele>1129.8</ele>
        <time>2020-09-12T11:22:02Z</time>
      </trkpt>
      <trkpt lat="41.0559930" lon="-2.5006820">
        <ele>1129.8</ele>
        <time>2020-09-12T11:22:03Z</time>
      </trkpt>
      <trkpt lat="41.0559830" lon="-2.5005970">
        <ele>1130.0</ele>
        <time>2020-09-12T11:22:04Z</time>
      </trkpt>
      <trkpt lat="41.0559750" lon="-2.5005110">
        <ele>1130.2</ele>
        <time>2020-09-12T11:22:05Z</time>
      </trkpt>
      <trkpt lat="41.0559670" lon="-2.5004240">
        <ele>1130.2</ele>
        <time>2020-09-12T11:22:06Z</time>
      </trkpt>
      <trkpt lat="41.0559600" lon="-2.5003360">
        <ele>1130.2</ele>
        <time>2020-09-12T11:22:07Z</time>
      </trkpt>
      <trkpt lat="41.0559530" lon="-2.5002480">
        <ele>1130.2</ele>
        <time>2020-09-12T11:22:08Z</time>
      </trkpt>
      <trkpt lat="41.0559450" lon="-2.5001630">
        <ele>1130.2</ele>
        <time>2020-09-12T11:22:09Z</time>
      </trkpt>
      <trkpt lat="41.0559370" lon="-2.5000760">
        <ele>1130.2</ele>
        <time>2020-09-12T11:22:10Z</time>
      </trkpt>
      <trkpt lat="41.0559320" lon="-2.4999900">
        <ele>1130.0</ele>
        <time>2020-09-12T11:22:11Z</time>
      </trkpt>
      <trkpt lat="41.0559270" lon="-2.4999030">
        <ele>1130.0</ele>
        <time>2020-09-12T11:22:12Z</time>
      </trkpt>
      <trkpt lat="41.0559220" lon="-2.4998160">
        <ele>1130.2</ele>
        <time>2020-09-12T11:22:13Z</time>
      </trkpt>
      <trkpt lat="41.0559180" lon="-2.4997310">
        <ele>1130.2</ele>
        <time>2020-09-12T11:22:14Z</time>
      </trkpt>
      <trkpt lat="41.0559160" lon="-2.4996440">
        <ele>1130.4</ele>
        <time>2020-09-12T11:22:15Z</time>
      </trkpt>
      <trkpt lat="41.0559160" lon="-2.4995560">
        <ele>1130.6</ele>
        <time>2020-09-12T11:22:16Z</time>
      </trkpt>
      <trkpt lat="41.0559180" lon="-2.4994660">
        <ele>1130.6</ele>
        <time>2020-09-12T11:22:17Z</time>
      </trkpt>
      <trkpt lat="41.0559220" lon="-2.4993760">
        <ele>1130.6</ele>
        <time>2020-09-12T11:22:18Z</time>
      </trkpt>
      <trkpt lat="41.0559280" lon="-2.4992860">
        <ele>1130.6</ele>
        <time>2020-09-12T11:22:19Z</time>
      </trkpt>
      <trkpt lat="41.0559370" lon="-2.4991960">
        <ele>1130.6</ele>
        <time>2020-09-12T11:22:20Z</time>
      </trkpt>
      <trkpt lat="41.0559510" lon="-2.4991080">
        <ele>1130.6</ele>
        <time>2020-09-12T11:22:21Z</time>
      </trkpt>
      <trkpt lat="41.0559670" lon="-2.4990200">
        <ele>1130.6</ele>
        <time>2020-09-12T11:22:22Z</time>
      </trkpt>
      <trkpt lat="41.0559880" lon="-2.4989340">
        <ele>1130.6</ele>
        <time>2020-09-12T11:22:23Z</time>
      </trkpt>
      <trkpt lat="41.0560110" lon="-2.4988510">
        <ele>1130.6</ele>
        <time>2020-09-12T11:22:24Z</time>
      </trkpt>
      <trkpt lat="41.0560360" lon="-2.4987680">
        <ele>1130.6</ele>
        <time>2020-09-12T11:22:25Z</time>
      </trkpt>
      <trkpt lat="41.0560630" lon="-2.4986850">
        <ele>1130.6</ele>
        <time>2020-09-12T11:22:26Z</time>
      </trkpt>
      <trkpt lat="41.0560920" lon="-2.4986000">
        <ele>1130.8</ele>
        <time>2020-09-12T11:22:27Z</time>
      </trkpt>
      <trkpt lat="41.0561220" lon="-2.4985140">
        <ele>1131.0</ele>
        <time>2020-09-12T11:22:28Z</time>
      </trkpt>
      <trkpt lat="41.0561520" lon="-2.4984280">
        <ele>1131.2</ele>
        <time>2020-09-12T11:22:29Z</time>
      </trkpt>
      <trkpt lat="41.0561830" lon="-2.4983420">
        <ele>1131.6</ele>
        <time>2020-09-12T11:22:30Z</time>
      </trkpt>
      <trkpt lat="41.0562140" lon="-2.4982580">
        <ele>1131.8</ele>
        <time>2020-09-12T11:22:31Z</time>
      </trkpt>
      <trkpt lat="41.0562450" lon="-2.4981730">
        <ele>1132.0</ele>
        <time>2020-09-12T11:22:32Z</time>
      </trkpt>
      <trkpt lat="41.0562800" lon="-2.4980900">
        <ele>1132.0</ele>
        <time>2020-09-12T11:22:33Z</time>
      </trkpt>
      <trkpt lat="41.0563170" lon="-2.4980080">
        <ele>1132.2</ele>
        <time>2020-09-12T11:22:34Z</time>
      </trkpt>
      <trkpt lat="41.0563560" lon="-2.4979270">
        <ele>1132.2</ele>
        <time>2020-09-12T11:22:35Z</time>
      </trkpt>
      <trkpt lat="41.0563960" lon="-2.4978460">
        <ele>1132.0</ele>
        <time>2020-09-12T11:22:36Z</time>
      </trkpt>
      <trkpt lat="41.0564360" lon="-2.4977660">
        <ele>1131.8</ele>
        <time>2020-09-12T11:22:37Z</time>
      </trkpt>
      <trkpt lat="41.0564770" lon="-2.4976880">
        <ele>1131.8</ele>
        <time>2020-09-12T11:22:38Z</time>
      </trkpt>
      <trkpt lat="41.0565190" lon="-2.4976090">
        <ele>1131.8</ele>
        <time>2020-09-12T11:22:39Z</time>
      </trkpt>
      <trkpt lat="41.0565610" lon="-2.4975300">
        <ele>1131.8</ele>
        <time>2020-09-12T11:22:40Z</time>
      </trkpt>
      <trkpt lat="41.0566020" lon="-2.4974510">
        <ele>1131.8</ele>
        <time>2020-09-12T11:22:41Z</time>
      </trkpt>
      <trkpt lat="41.0566420" lon="-2.4973730">
        <ele>1131.8</ele>
        <time>2020-09-12T11:22:42Z</time>
      </trkpt>
      <trkpt lat="41.0566820" lon="-2.4972950">
        <ele>1131.8</ele>
        <time>2020-09-12T11:22:43Z</time>
      </trkpt>
      <trkpt lat="41.0567210" lon="-2.4972170">
        <ele>1131.8</ele>
        <time>2020-09-12T11:22:44Z</time>
      </trkpt>
      <trkpt lat="41.0567590" lon="-2.4971380">
        <ele>1131.6</ele>
        <time>2020-09-12T11:22:45Z</time>
      </trkpt>
      <trkpt lat="41.0567960" lon="-2.4970590">
        <ele>1131.6</ele>
        <time>2020-09-12T11:22:46Z</time>
      </trkpt>
      <trkpt lat="41.0568320" lon="-2.4969790">
        <ele>1131.6</ele>
        <time>2020-09-12T11:22:47Z</time>
      </trkpt>
      <trkpt lat="41.0568650" lon="-2.4968980">
        <ele>1131.6</ele>
        <time>2020-09-12T11:22:48Z</time>
      </trkpt>
      <trkpt lat="41.0568970" lon="-2.4968160">
        <ele>1131.6</ele>
        <time>2020-09-12T11:22:49Z</time>
      </trkpt>
      <trkpt lat="41.0569280" lon="-2.4967340">
        <ele>1131.6</ele>
        <time>2020-09-12T11:22:50Z</time>
      </trkpt>
      <trkpt lat="41.0569550" lon="-2.4966490">
        <ele>1131.6</ele>
        <time>2020-09-12T11:22:51Z</time>
      </trkpt>
      <trkpt lat="41.0569770" lon="-2.4965610">
        <ele>1131.6</ele>
        <time>2020-09-12T11:22:52Z</time>
      </trkpt>
      <trkpt lat="41.0569980" lon="-2.4964710">
        <ele>1131.6</ele>
        <time>2020-09-12T11:22:53Z</time>
      </trkpt>
      <trkpt lat="41.0570170" lon="-2.4963790">
        <ele>1131.6</ele>
        <time>2020-09-12T11:22:54Z</time>
      </trkpt>
      <trkpt lat="41.0570330" lon="-2.4962870">
        <ele>1131.6</ele>
        <time>2020-09-12T11:22:55Z</time>
      </trkpt>
      <trkpt lat="41.0570490" lon="-2.4961940">
        <ele>1131.8</ele>
        <time>2020-09-12T11:22:56Z</time>
      </trkpt>
      <trkpt lat="41.0570620" lon="-2.4960980">
        <ele>1132.0</ele>
        <time>2020-09-12T11:22:57Z</time>
      </trkpt>
      <trkpt lat="41.0570710" lon="-2.4960040">
        <ele>1132.2</ele>
        <time>2020-09-12T11:22:58Z</time>
      </trkpt>
      <trkpt lat="41.0570790" lon="-2.4959100">
        <ele>1132.6</ele>
        <time>2020-09-12T11:22:59Z</time>
      </trkpt>
      <trkpt lat="41.0570840" lon="-2.4958160">
        <ele>1132.8</ele>
        <time>2020-09-12T11:23:00Z</time>
      </trkpt>
      <trkpt lat="41.0570870" lon="-2.4957220">
        <ele>1133.2</ele>
        <time>2020-09-12T11:23:01Z</time>
      </trkpt>
      <trkpt lat="41.0570890" lon="-2.4956280">
        <ele>1133.4</ele>
        <time>2020-09-12T11:23:02Z</time>
      </trkpt>
      <trkpt lat="41.0570880" lon="-2.4955340">
        <ele>1133.6</ele>
        <time>2020-09-12T11:23:03Z</time>
      </trkpt>
      <trkpt lat="41.0570850" lon="-2.4954410">
        <ele>1133.8</ele>
        <time>2020-09-12T11:23:04Z</time>
      </trkpt>
      <trkpt lat="41.0570800" lon="-2.4953480">
        <ele>1133.8</ele>
        <time>2020-09-12T11:23:05Z</time>
      </trkpt>
      <trkpt lat="41.0570720" lon="-2.4952560">
        <ele>1134.0</ele>
        <time>2020-09-12T11:23:06Z</time>
      </trkpt>
      <trkpt lat="41.0570640" lon="-2.4951640">
        <ele>1134.2</ele>
        <time>2020-09-12T11:23:07Z</time>
      </trkpt>
      <trkpt lat="41.0570530" lon="-2.4950730">
        <ele>1134.2</ele>
        <time>2020-09-12T11:23:08Z</time>
      </trkpt>
      <trkpt lat="41.0570420" lon="-2.4949830">
        <ele>1134.2</ele>
        <time>2020-09-12T11:23:09Z</time>
      </trkpt>
      <trkpt lat="41.0570290" lon="-2.4948900">
        <ele>1134.0</ele>
        <time>2020-09-12T11:23:10Z</time>
      </trkpt>
      <trkpt lat="41.0570150" lon="-2.4948010">
        <ele>1133.8</ele>
        <time>2020-09-12T11:23:11Z</time>
      </trkpt>
      <trkpt lat="41.0569970" lon="-2.4947160">
        <ele>1133.4</ele>
        <time>2020-09-12T11:23:12Z</time>
      </trkpt>
      <trkpt lat="41.0569750" lon="-2.4946290">
        <ele>1133.2</ele>
        <time>2020-09-12T11:23:13Z</time>
      </trkpt>
      <trkpt lat="41.0569510" lon="-2.4945460">
        <ele>1133.0</ele>
        <time>2020-09-12T11:23:14Z</time>
      </trkpt>
      <trkpt lat="41.0569240" lon="-2.4944630">
        <ele>1133.0</ele>
        <time>2020-09-12T11:23:15Z</time>
      </trkpt>
      <trkpt lat="41.0568930" lon="-2.4943810">
        <ele>1132.8</ele>
        <time>2020-09-12T11:23:16Z</time>
      </trkpt>
      <trkpt lat="41.0568620" lon="-2.4943010">
        <ele>1132.6</ele>
        <time>2020-09-12T11:23:17Z</time>
      </trkpt>
      <trkpt lat="41.0568290" lon="-2.4942220">
        <ele>1132.6</ele>
        <time>2020-09-12T11:23:18Z</time>
      </trkpt>
      <trkpt lat="41.0567950" lon="-2.4941430">
        <ele>1132.6</ele>
        <time>2020-09-12T11:23:19Z</time>
      </trkpt>
      <trkpt lat="41.0567570" lon="-2.4940660">
        <ele>1132.6</ele>
        <time>2020-09-12T11:23:20Z</time>
      </trkpt>
      <trkpt lat="41.0567170" lon="-2.4939900">
        <ele>1132.6</ele>
        <time>2020-09-12T11:23:21Z</time>
      </trkpt>
      <trkpt lat="41.0566760" lon="-2.4939170">
        <ele>1132.6</ele>
        <time>2020-09-12T11:23:22Z</time>
      </trkpt>
      <trkpt lat="41.0566320" lon="-2.4938470">
        <ele>1132.8</ele>
        <time>2020-09-12T11:23:23Z</time>
      </trkpt>
      <trkpt lat="41.0565840" lon="-2.4937780">
        <ele>1132.6</ele>
        <time>2020-09-12T11:23:24Z</time>
      </trkpt>
      <trkpt lat="41.0565360" lon="-2.4937100">
        <ele>1132.6</ele>
        <time>2020-09-12T11:23:25Z</time>
      </trkpt>
      <trkpt lat="41.0564870" lon="-2.4936430">
        <ele>1132.6</ele>
        <time>2020-09-12T11:23:26Z</time>
      </trkpt>
      <trkpt lat="41.0564370" lon="-2.4935780">
        <ele>1132.6</ele>
        <time>2020-09-12T11:23:27Z</time>
      </trkpt>
      <trkpt lat="41.0563850" lon="-2.4935150">
        <ele>1132.6</ele>
        <time>2020-09-12T11:23:28Z</time>
      </trkpt>
      <trkpt lat="41.0563340" lon="-2.4934510">
        <ele>1132.8</ele>
        <time>2020-09-12T11:23:29Z</time>
      </trkpt>
      <trkpt lat="41.0562830" lon="-2.4933870">
        <ele>1132.8</ele>
        <time>2020-09-12T11:23:30Z</time>
      </trkpt>
      <trkpt lat="41.0562320" lon="-2.4933200">
        <ele>1132.8</ele>
        <time>2020-09-12T11:23:31Z</time>
      </trkpt>
      <trkpt lat="41.0561810" lon="-2.4932530">
        <ele>1132.8</ele>
        <time>2020-09-12T11:23:32Z</time>
      </trkpt>
      <trkpt lat="41.0561300" lon="-2.4931870">
        <ele>1133.0</ele>
        <time>2020-09-12T11:23:33Z</time>
      </trkpt>
      <trkpt lat="41.0560780" lon="-2.4931190">
        <ele>1133.0</ele>
        <time>2020-09-12T11:23:34Z</time>
      </trkpt>
      <trkpt lat="41.0560250" lon="-2.4930520">
        <ele>1133.0</ele>
        <time>2020-09-12T11:23:35Z</time>
      </trkpt>
      <trkpt lat="41.0559720" lon="-2.4929830">
        <ele>1133.0</ele>
        <time>2020-09-12T11:23:36Z</time>
      </trkpt>
      <trkpt lat="41.0559200" lon="-2.4929150">
        <ele>1133.0</ele>
        <time>2020-09-12T11:23:37Z</time>
      </trkpt>
      <trkpt lat="41.0558670" lon="-2.4928460">
        <ele>1133.0</ele>
        <time>2020-09-12T11:23:38Z</time>
      </trkpt>
      <trkpt lat="41.0558130" lon="-2.4927760">
        <ele>1133.2</ele>
        <time>2020-09-12T11:23:39Z</time>
      </trkpt>
      <trkpt lat="41.0557600" lon="-2.4927060">
        <ele>1133.2</ele>
        <time>2020-09-12T11:23:40Z</time>
      </trkpt>
      <trkpt lat="41.0557060" lon="-2.4926350">
        <ele>1133.4</ele>
        <time>2020-09-12T11:23:41Z</time>
      </trkpt>
      <trkpt lat="41.0556510" lon="-2.4925650">
        <ele>1133.4</ele>
        <time>2020-09-12T11:23:42Z</time>
      </trkpt>
      <trkpt lat="41.0555960" lon="-2.4924950">
        <ele>1133.6</ele>
        <time>2020-09-12T11:23:43Z</time>
      </trkpt>
      <trkpt lat="41.0555430" lon="-2.4924250">
        <ele>1133.6</ele>
        <time>2020-09-12T11:23:44Z</time>
      </trkpt>
      <trkpt lat="41.0554900" lon="-2.4923550">
        <ele>1133.8</ele>
        <time>2020-09-12T11:23:45Z</time>
      </trkpt>
      <trkpt lat="41.0554370" lon="-2.4922840">
        <ele>1134.0</ele>
        <time>2020-09-12T11:23:46Z</time>
      </trkpt>
      <trkpt lat="41.0553840" lon="-2.4922130">
        <ele>1134.0</ele>
        <time>2020-09-12T11:23:47Z</time>
      </trkpt>
      <trkpt lat="41.0553310" lon="-2.4921420">
        <ele>1134.2</ele>
        <time>2020-09-12T11:23:48Z</time>
      </trkpt>
      <trkpt lat="41.0552790" lon="-2.4920700">
        <ele>1134.2</ele>
        <time>2020-09-12T11:23:49Z</time>
      </trkpt>
      <trkpt lat="41.0552280" lon="-2.4920000">
        <ele>1134.2</ele>
        <time>2020-09-12T11:23:50Z</time>
      </trkpt>
      <trkpt lat="41.0551770" lon="-2.4919300">
        <ele>1134.2</ele>
        <time>2020-09-12T11:23:51Z</time>
      </trkpt>
      <trkpt lat="41.0551250" lon="-2.4918630">
        <ele>1134.2</ele>
        <time>2020-09-12T11:23:52Z</time>
      </trkpt>
      <trkpt lat="41.0550730" lon="-2.4917950">
        <ele>1134.2</ele>
        <time>2020-09-12T11:23:53Z</time>
      </trkpt>
      <trkpt lat="41.0550200" lon="-2.4917250">
        <ele>1134.2</ele>
        <time>2020-09-12T11:23:54Z</time>
      </trkpt>
      <trkpt lat="41.0549670" lon="-2.4916560">
        <ele>1134.4</ele>
        <time>2020-09-12T11:23:55Z</time>
      </trkpt>
      <trkpt lat="41.0549140" lon="-2.4915910">
        <ele>1134.8</ele>
        <time>2020-09-12T11:23:56Z</time>
      </trkpt>
      <trkpt lat="41.0548590" lon="-2.4915290">
        <ele>1135.0</ele>
        <time>2020-09-12T11:23:57Z</time>
      </trkpt>
      <trkpt lat="41.0548030" lon="-2.4914680">
        <ele>1135.0</ele>
        <time>2020-09-12T11:23:58Z</time>
      </trkpt>
      <trkpt lat="41.0547450" lon="-2.4914130">
        <ele>1135.2</ele>
        <time>2020-09-12T11:23:59Z</time>
      </trkpt>
      <trkpt lat="41.0546840" lon="-2.4913630">
        <ele>1135.2</ele>
        <time>2020-09-12T11:24:00Z</time>
      </trkpt>
      <trkpt lat="41.0546210" lon="-2.4913180">
        <ele>1135.4</ele>
        <time>2020-09-12T11:24:01Z</time>
      </trkpt>
      <trkpt lat="41.0545570" lon="-2.4912730">
        <ele>1135.4</ele>
        <time>2020-09-12T11:24:02Z</time>
      </trkpt>
      <trkpt lat="41.0544920" lon="-2.4912310">
        <ele>1135.4</ele>
        <time>2020-09-12T11:24:03Z</time>
      </trkpt>
      <trkpt lat="41.0544270" lon="-2.4911900">
        <ele>1135.4</ele>
        <time>2020-09-12T11:24:04Z</time>
      </trkpt>
      <trkpt lat="41.0543610" lon="-2.4911490">
        <ele>1135.4</ele>
        <time>2020-09-12T11:24:05Z</time>
      </trkpt>
      <trkpt lat="41.0542960" lon="-2.4911090">
        <ele>1135.4</ele>
        <time>2020-09-12T11:24:06Z</time>
      </trkpt>
      <trkpt lat="41.0542300" lon="-2.4910680">
        <ele>1135.4</ele>
        <time>2020-09-12T11:24:07Z</time>
      </trkpt>
      <trkpt lat="41.0541650" lon="-2.4910270">
        <ele>1135.4</ele>
        <time>2020-09-12T11:24:08Z</time>
      </trkpt>
      <trkpt lat="41.0541000" lon="-2.4909860">
        <ele>1135.2</ele>
        <time>2020-09-12T11:24:09Z</time>
      </trkpt>
      <trkpt lat="41.0540350" lon="-2.4909440">
        <ele>1135.2</ele>
        <time>2020-09-12T11:24:10Z</time>
      </trkpt>
      <trkpt lat="41.0539690" lon="-2.4909040">
        <ele>1135.2</ele>
        <time>2020-09-12T11:24:11Z</time>
      </trkpt>
      <trkpt lat="41.0539040" lon="-2.4908630">
        <ele>1135.0</ele>
        <time>2020-09-12T11:24:12Z</time>
      </trkpt>
      <trkpt lat="41.0538370" lon="-2.4908210">
        <ele>1135.0</ele>
        <time>2020-09-12T11:24:13Z</time>
      </trkpt>
      <trkpt lat="41.0537710" lon="-2.4907800">
        <ele>1135.0</ele>
        <time>2020-09-12T11:24:14Z</time>
      </trkpt>
      <trkpt lat="41.0537040" lon="-2.4907380">
        <ele>1134.8</ele>
        <time>2020-09-12T11:24:15Z</time>
      </trkpt>
      <trkpt lat="41.0536370" lon="-2.4906970">
        <ele>1134.8</ele>
        <time>2020-09-12T11:24:16Z</time>
      </trkpt>
      <trkpt lat="41.0535700" lon="-2.4906550">
        <ele>1134.8</ele>
        <time>2020-09-12T11:24:17Z</time>
      </trkpt>
      <trkpt lat="41.0535030" lon="-2.4906140">
        <ele>1134.8</ele>
        <time>2020-09-12T11:24:18Z</time>
      </trkpt>
      <trkpt lat="41.0534360" lon="-2.4905730">
        <ele>1135.0</ele>
        <time>2020-09-12T11:24:19Z</time>
      </trkpt>
      <trkpt lat="41.0533690" lon="-2.4905310">
        <ele>1135.2</ele>
        <time>2020-09-12T11:24:20Z</time>
      </trkpt>
      <trkpt lat="41.0533040" lon="-2.4904900">
        <ele>1135.2</ele>
        <time>2020-09-12T11:24:21Z</time>
      </trkpt>
      <trkpt lat="41.0532380" lon="-2.4904490">
        <ele>1135.4</ele>
        <time>2020-09-12T11:24:22Z</time>
      </trkpt>
      <trkpt lat="41.0531720" lon="-2.4904090">
        <ele>1135.4</ele>
        <time>2020-09-12T11:24:23Z</time>
      </trkpt>
      <trkpt lat="41.0531050" lon="-2.4903680">
        <ele>1135.4</ele>
        <time>2020-09-12T11:24:24Z</time>
      </trkpt>
      <trkpt lat="41.0530390" lon="-2.4903260">
        <ele>1135.4</ele>
        <time>2020-09-12T11:24:25Z</time>
      </trkpt>
      <trkpt lat="41.0529720" lon="-2.4902840">
        <ele>1135.4</ele>
        <time>2020-09-12T11:24:26Z</time>
      </trkpt>
      <trkpt lat="41.0529060" lon="-2.4902430">
        <ele>1135.4</ele>
        <time>2020-09-12T11:24:27Z</time>
      </trkpt>
      <trkpt lat="41.0528400" lon="-2.4902010">
        <ele>1135.6</ele>
        <time>2020-09-12T11:24:28Z</time>
      </trkpt>
      <trkpt lat="41.0527740" lon="-2.4901590">
        <ele>1135.6</ele>
        <time>2020-09-12T11:24:29Z</time>
      </trkpt>
      <trkpt lat="41.0527090" lon="-2.4901180">
        <ele>1135.6</ele>
        <time>2020-09-12T11:24:30Z</time>
      </trkpt>
      <trkpt lat="41.0526440" lon="-2.4900760">
        <ele>1135.6</ele>
        <time>2020-09-12T11:24:31Z</time>
      </trkpt>
      <trkpt lat="41.0525800" lon="-2.4900330">
        <ele>1135.8</ele>
        <time>2020-09-12T11:24:32Z</time>
      </trkpt>
      <trkpt lat="41.0525170" lon="-2.4899910">
        <ele>1135.8</ele>
        <time>2020-09-12T11:24:33Z</time>
      </trkpt>
      <trkpt lat="41.0524540" lon="-2.4899500">
        <ele>1135.8</ele>
        <time>2020-09-12T11:24:34Z</time>
      </trkpt>
      <trkpt lat="41.0523910" lon="-2.4899090">
        <ele>1135.8</ele>
        <time>2020-09-12T11:24:35Z</time>
      </trkpt>
      <trkpt lat="41.0523270" lon="-2.4898690">
        <ele>1136.0</ele>
        <time>2020-09-12T11:24:36Z</time>
      </trkpt>
      <trkpt lat="41.0522640" lon="-2.4898290">
        <ele>1136.0</ele>
        <time>2020-09-12T11:24:37Z</time>
      </trkpt>
      <trkpt lat="41.0522000" lon="-2.4897890">
        <ele>1136.0</ele>
        <time>2020-09-12T11:24:38Z</time>
      </trkpt>
      <trkpt lat="41.0521360" lon="-2.4897470">
        <ele>1136.0</ele>
        <time>2020-09-12T11:24:39Z</time>
      </trkpt>
      <trkpt lat="41.0520730" lon="-2.4897060">
        <ele>1136.0</ele>
        <time>2020-09-12T11:24:40Z</time>
      </trkpt>
      <trkpt lat="41.0520100" lon="-2.4896650">
        <ele>1136.0</ele>
        <time>2020-09-12T11:24:41Z</time>
      </trkpt>
      <trkpt lat="41.0519470" lon="-2.4896250">
        <ele>1136.2</ele>
        <time>2020-09-12T11:24:42Z</time>
      </trkpt>
      <trkpt lat="41.0518830" lon="-2.4895860">
        <ele>1136.2</ele>
        <time>2020-09-12T11:24:43Z</time>
      </trkpt>
      <trkpt lat="41.0518190" lon="-2.4895470">
        <ele>1136.2</ele>
        <time>2020-09-12T11:24:44Z</time>
      </trkpt>
      <trkpt lat="41.0517550" lon="-2.4895070">
        <ele>1136.2</ele>
        <time>2020-09-12T11:24:45Z</time>
      </trkpt>
      <trkpt lat="41.0516900" lon="-2.4894690">
        <ele>1136.4</ele>
        <time>2020-09-12T11:24:46Z</time>
      </trkpt>
      <trkpt lat="41.0516260" lon="-2.4894300">
        <ele>1136.4</ele>
        <time>2020-09-12T11:24:47Z</time>
      </trkpt>
      <trkpt lat="41.0515610" lon="-2.4893910">
        <ele>1136.4</ele>
        <time>2020-09-12T11:24:48Z</time>
      </trkpt>
      <trkpt lat="41.0514980" lon="-2.4893510">
        <ele>1136.4</ele>
        <time>2020-09-12T11:24:49Z</time>
      </trkpt>
      <trkpt lat="41.0514350" lon="-2.4893110">
        <ele>1136.4</ele>
        <time>2020-09-12T11:24:50Z</time>
      </trkpt>
      <trkpt lat="41.0513710" lon="-2.4892710">
        <ele>1136.6</ele>
        <time>2020-09-12T11:24:51Z</time>
      </trkpt>
      <trkpt lat="41.0513070" lon="-2.4892300">
        <ele>1136.8</ele>
        <time>2020-09-12T11:24:52Z</time>
      </trkpt>
      <trkpt lat="41.0512440" lon="-2.4891870">
        <ele>1137.0</ele>
        <time>2020-09-12T11:24:53Z</time>
      </trkpt>
      <trkpt lat="41.0511810" lon="-2.4891450">
        <ele>1137.4</ele>
        <time>2020-09-12T11:24:54Z</time>
      </trkpt>
      <trkpt lat="41.0511170" lon="-2.4891050">
        <ele>1137.4</ele>
        <time>2020-09-12T11:24:55Z</time>
      </trkpt>
      <trkpt lat="41.0510540" lon="-2.4890650">
        <ele>1137.6</ele>
        <time>2020-09-12T11:24:56Z</time>
      </trkpt>
      <trkpt lat="41.0509910" lon="-2.4890260">
        <ele>1137.6</ele>
        <time>2020-09-12T11:24:57Z</time>
      </trkpt>
      <trkpt lat="41.0509280" lon="-2.4889870">
        <ele>1137.8</ele>
        <time>2020-09-12T11:24:58Z</time>
      </trkpt>
      <trkpt lat="41.0508640" lon="-2.4889470">
        <ele>1137.8</ele>
        <time>2020-09-12T11:24:59Z</time>
      </trkpt>
      <trkpt lat="41.0508020" lon="-2.4889060">
        <ele>1137.8</ele>
        <time>2020-09-12T11:25:00Z</time>
      </trkpt>
      <trkpt lat="41.0507390" lon="-2.4888670">
        <ele>1137.8</ele>
        <time>2020-09-12T11:25:01Z</time>
      </trkpt>
      <trkpt lat="41.0506770" lon="-2.4888290">
        <ele>1138.0</ele>
        <time>2020-09-12T11:25:02Z</time>
      </trkpt>
      <trkpt lat="41.0506140" lon="-2.4887900">
        <ele>1138.0</ele>
        <time>2020-09-12T11:25:03Z</time>
      </trkpt>
      <trkpt lat="41.0505520" lon="-2.4887520">
        <ele>1138.0</ele>
        <time>2020-09-12T11:25:04Z</time>
      </trkpt>
      <trkpt lat="41.0504910" lon="-2.4887120">
        <ele>1138.0</ele>
        <time>2020-09-12T11:25:05Z</time>
      </trkpt>
      <trkpt lat="41.0504300" lon="-2.4886740">
        <ele>1138.0</ele>
        <time>2020-09-12T11:25:06Z</time>
      </trkpt>
      <trkpt lat="41.0503670" lon="-2.4886380">
        <ele>1138.2</ele>
        <time>2020-09-12T11:25:07Z</time>
      </trkpt>
      <trkpt lat="41.0503040" lon="-2.4886020">
        <ele>1138.4</ele>
        <time>2020-09-12T11:25:08Z</time>
      </trkpt>
      <trkpt lat="41.0502430" lon="-2.4885650">
        <ele>1138.6</ele>
        <time>2020-09-12T11:25:09Z</time>
      </trkpt>
      <trkpt lat="41.0501810" lon="-2.4885260">
        <ele>1138.8</ele>
        <time>2020-09-12T11:25:10Z</time>
      </trkpt>
      <trkpt lat="41.0501200" lon="-2.4884870">
        <ele>1138.8</ele>
        <time>2020-09-12T11:25:11Z</time>
      </trkpt>
      <trkpt lat="41.0500590" lon="-2.4884490">
        <ele>1139.0</ele>
        <time>2020-09-12T11:25:12Z</time>
      </trkpt>
      <trkpt lat="41.0499990" lon="-2.4884110">
        <ele>1139.0</ele>
        <time>2020-09-12T11:25:13Z</time>
      </trkpt>
      <trkpt lat="41.0499390" lon="-2.4883730">
        <ele>1139.2</ele>
        <time>2020-09-12T11:25:14Z</time>
      </trkpt>
      <trkpt lat="41.0498780" lon="-2.4883350">
        <ele>1139.0</ele>
        <time>2020-09-12T11:25:15Z</time>
      </trkpt>
      <trkpt lat="41.0498160" lon="-2.4882970">
        <ele>1139.2</ele>
        <time>2020-09-12T11:25:16Z</time>
      </trkpt>
      <trkpt lat="41.0497550" lon="-2.4882580">
        <ele>1139.2</ele>
        <time>2020-09-12T11:25:17Z</time>
      </trkpt>
      <trkpt lat="41.0496930" lon="-2.4882190">
        <ele>1139.2</ele>
        <time>2020-09-12T11:25:18Z</time>
      </trkpt>
      <trkpt lat="41.0496320" lon="-2.4881790">
        <ele>1139.2</ele>
        <time>2020-09-12T11:25:19Z</time>
      </trkpt>
      <trkpt lat="41.0495700" lon="-2.4881390">
        <ele>1139.4</ele>
        <time>2020-09-12T11:25:20Z</time>
      </trkpt>
      <trkpt lat="41.0495090" lon="-2.4880990">
        <ele>1139.2</ele>
        <time>2020-09-12T11:25:21Z</time>
      </trkpt>
      <trkpt lat="41.0494480" lon="-2.4880600">
        <ele>1139.2</ele>
        <time>2020-09-12T11:25:22Z</time>
      </trkpt>
      <trkpt lat="41.0493850" lon="-2.4880200">
        <ele>1139.2</ele>
        <time>2020-09-12T11:25:23Z</time>
      </trkpt>
      <trkpt lat="41.0493240" lon="-2.4879820">
        <ele>1139.2</ele>
        <time>2020-09-12T11:25:24Z</time>
      </trkpt>
      <trkpt lat="41.0492620" lon="-2.4879430">
        <ele>1139.2</ele>
        <time>2020-09-12T11:25:25Z</time>
      </trkpt>
      <trkpt lat="41.0492010" lon="-2.4879050">
        <ele>1139.4</ele>
        <time>2020-09-12T11:25:26Z</time>
      </trkpt>
      <trkpt lat="41.0491390" lon="-2.4878640">
        <ele>1139.4</ele>
        <time>2020-09-12T11:25:27Z</time>
      </trkpt>
      <trkpt lat="41.0490770" lon="-2.4878230">
        <ele>1139.4</ele>
        <time>2020-09-12T11:25:28Z</time>
      </trkpt>
      <trkpt lat="41.0490150" lon="-2.4877820">
        <ele>1139.6</ele>
        <time>2020-09-12T11:25:29Z</time>
      </trkpt>
      <trkpt lat="41.0489520" lon="-2.4877410">
        <ele>1139.8</ele>
        <time>2020-09-12T11:25:30Z</time>
      </trkpt>
      <trkpt lat="41.0488890" lon="-2.4877000">
        <ele>1139.8</ele>
        <time>2020-09-12T11:25:31Z</time>
      </trkpt>
      <trkpt lat="41.0488280" lon="-2.4876570">
        <ele>1139.6</ele>
        <time>2020-09-12T11:25:32Z</time>
      </trkpt>
      <trkpt lat="41.0487660" lon="-2.4876130">
        <ele>1139.6</ele>
        <time>2020-09-12T11:25:33Z</time>
      </trkpt>
      <trkpt lat="41.0487040" lon="-2.4875660">
        <ele>1139.6</ele>
        <time>2020-09-12T11:25:34Z</time>
      </trkpt>
      <trkpt lat="41.0486430" lon="-2.4875160">
        <ele>1139.6</ele>
        <time>2020-09-12T11:25:35Z</time>
      </trkpt>
      <trkpt lat="41.0485830" lon="-2.4874620">
        <ele>1139.6</ele>
        <time>2020-09-12T11:25:36Z</time>
      </trkpt>
      <trkpt lat="41.0485230" lon="-2.4874070">
        <ele>1139.4</ele>
        <time>2020-09-12T11:25:37Z</time>
      </trkpt>
      <trkpt lat="41.0484630" lon="-2.4873520">
        <ele>1139.4</ele>
        <time>2020-09-12T11:25:38Z</time>
      </trkpt>
      <trkpt lat="41.0484020" lon="-2.4872980">
        <ele>1139.4</ele>
        <time>2020-09-12T11:25:39Z</time>
      </trkpt>
      <trkpt lat="41.0483430" lon="-2.4872420">
        <ele>1139.2</ele>
        <time>2020-09-12T11:25:40Z</time>
      </trkpt>
      <trkpt lat="41.0482830" lon="-2.4871860">
        <ele>1139.2</ele>
        <time>2020-09-12T11:25:41Z</time>
      </trkpt>
      <trkpt lat="41.0482220" lon="-2.4871300">
        <ele>1139.2</ele>
        <time>2020-09-12T11:25:42Z</time>
      </trkpt>
      <trkpt lat="41.0481600" lon="-2.4870750">
        <ele>1139.2</ele>
        <time>2020-09-12T11:25:43Z</time>
      </trkpt>
      <trkpt lat="41.0480980" lon="-2.4870190">
        <ele>1139.2</ele>
        <time>2020-09-12T11:25:44Z</time>
      </trkpt>
      <trkpt lat="41.0480370" lon="-2.4869610">
        <ele>1139.2</ele>
        <time>2020-09-12T11:25:45Z</time>
      </trkpt>
      <trkpt lat="41.0479770" lon="-2.4869030">
        <ele>1139.2</ele>
        <time>2020-09-12T11:25:46Z</time>
      </trkpt>
      <trkpt lat="41.0479160" lon="-2.4868460">
        <ele>1139.2</ele>
        <time>2020-09-12T11:25:47Z</time>
      </trkpt>
      <trkpt lat="41.0478550" lon="-2.4867900">
        <ele>1139.2</ele>
        <time>2020-09-12T11:25:48Z</time>
      </trkpt>
      <trkpt lat="41.0477940" lon="-2.4867340">
        <ele>1139.2</ele>
        <time>2020-09-12T11:25:49Z</time>
      </trkpt>
      <trkpt lat="41.0477330" lon="-2.4866770">
        <ele>1139.0</ele>
        <time>2020-09-12T11:25:50Z</time>
      </trkpt>
      <trkpt lat="41.0476730" lon="-2.4866200">
        <ele>1139.0</ele>
        <time>2020-09-12T11:25:51Z</time>
      </trkpt>
      <trkpt lat="41.0476120" lon="-2.4865620">
        <ele>1139.0</ele>
        <time>2020-09-12T11:25:52Z</time>
      </trkpt>
      <trkpt lat="41.0475520" lon="-2.4865050">
        <ele>1139.0</ele>
        <time>2020-09-12T11:25:53Z</time>
      </trkpt>
      <trkpt lat="41.0474900" lon="-2.4864490">
        <ele>1139.0</ele>
        <time>2020-09-12T11:25:54Z</time>
      </trkpt>
      <trkpt lat="41.0474280" lon="-2.4863940">
        <ele>1139.0</ele>
        <time>2020-09-12T11:25:55Z</time>
      </trkpt>
      <trkpt lat="41.0473660" lon="-2.4863380">
        <ele>1139.0</ele>
        <time>2020-09-12T11:25:56Z</time>
      </trkpt>
      <trkpt lat="41.0473060" lon="-2.4862810">
        <ele>1139.2</ele>
        <time>2020-09-12T11:25:57Z</time>
      </trkpt>
      <trkpt lat="41.0472460" lon="-2.4862230">
        <ele>1139.4</ele>
        <time>2020-09-12T11:25:58Z</time>
      </trkpt>
      <trkpt lat="41.0471860" lon="-2.4861670">
        <ele>1139.4</ele>
        <time>2020-09-12T11:25:59Z</time>
      </trkpt>
      <trkpt lat="41.0471260" lon="-2.4861110">
        <ele>1139.6</ele>
        <time>2020-09-12T11:26:00Z</time>
      </trkpt>
      <trkpt lat="41.0470660" lon="-2.4860550">
        <ele>1139.6</ele>
        <time>2020-09-12T11:26:01Z</time>
      </trkpt>
      <trkpt lat="41.0470060" lon="-2.4860000">
        <ele>1139.4</ele>
        <time>2020-09-12T11:26:02Z</time>
      </trkpt>
      <trkpt lat="41.0469470" lon="-2.4859440">
        <ele>1139.4</ele>
        <time>2020-09-12T11:26:03Z</time>
      </trkpt>
      <trkpt lat="41.0468880" lon="-2.4858890">
        <ele>1139.4</ele>
        <time>2020-09-12T11:26:04Z</time>
      </trkpt>
      <trkpt lat="41.0468290" lon="-2.4858350">
        <ele>1139.4</ele>
        <time>2020-09-12T11:26:05Z</time>
      </trkpt>
      <trkpt lat="41.0467700" lon="-2.4857820">
        <ele>1139.4</ele>
        <time>2020-09-12T11:26:06Z</time>
      </trkpt>
      <trkpt lat="41.0467120" lon="-2.4857300">
        <ele>1139.4</ele>
        <time>2020-09-12T11:26:07Z</time>
      </trkpt>
      <trkpt lat="41.0466540" lon="-2.4856770">
        <ele>1139.4</ele>
        <time>2020-09-12T11:26:08Z</time>
      </trkpt>
      <trkpt lat="41.0465960" lon="-2.4856240">
        <ele>1139.8</ele>
        <time>2020-09-12T11:26:09Z</time>
      </trkpt>
      <trkpt lat="41.0465380" lon="-2.4855700">
        <ele>1140.0</ele>
        <time>2020-09-12T11:26:10Z</time>
      </trkpt>
      <trkpt lat="41.0464810" lon="-2.4855160">
        <ele>1140.2</ele>
        <time>2020-09-12T11:26:11Z</time>
      </trkpt>
      <trkpt lat="41.0464230" lon="-2.4854620">
        <ele>1140.2</ele>
        <time>2020-09-12T11:26:12Z</time>
      </trkpt>
      <trkpt lat="41.0463660" lon="-2.4854090">
        <ele>1140.4</ele>
        <time>2020-09-12T11:26:13Z</time>
      </trkpt>
      <trkpt lat="41.0463080" lon="-2.4853580">
        <ele>1140.2</ele>
        <time>2020-09-12T11:26:14Z</time>
      </trkpt>
      <trkpt lat="41.0462500" lon="-2.4853060">
        <ele>1140.4</ele>
        <time>2020-09-12T11:26:15Z</time>
      </trkpt>
      <trkpt lat="41.0461920" lon="-2.4852530">
        <ele>1140.2</ele>
        <time>2020-09-12T11:26:16Z</time>
      </trkpt>
      <trkpt lat="41.0461350" lon="-2.4852000">
        <ele>1140.2</ele>
        <time>2020-09-12T11:26:17Z</time>
      </trkpt>
      <trkpt lat="41.0460780" lon="-2.4851460">
        <ele>1140.2</ele>
        <time>2020-09-12T11:26:18Z</time>
      </trkpt>
      <trkpt lat="41.0460200" lon="-2.4850920">
        <ele>1140.4</ele>
        <time>2020-09-12T11:26:19Z</time>
      </trkpt>
      <trkpt lat="41.0459630" lon="-2.4850390">
        <ele>1140.6</ele>
        <time>2020-09-12T11:26:20Z</time>
      </trkpt>
      <trkpt lat="41.0459060" lon="-2.4849860">
        <ele>1140.8</ele>
        <time>2020-09-12T11:26:21Z</time>
      </trkpt>
      <trkpt lat="41.0458480" lon="-2.4849330">
        <ele>1141.0</ele>
        <time>2020-09-12T11:26:22Z</time>
      </trkpt>
      <trkpt lat="41.0457920" lon="-2.4848800">
        <ele>1141.0</ele>
        <time>2020-09-12T11:26:23Z</time>
      </trkpt>
      <trkpt lat="41.0457350" lon="-2.4848290">
        <ele>1141.0</ele>
        <time>2020-09-12T11:26:24Z</time>
      </trkpt>
      <trkpt lat="41.0456780" lon="-2.4847780">
        <ele>1140.8</ele>
        <time>2020-09-12T11:26:25Z</time>
      </trkpt>
      <trkpt lat="41.0456220" lon="-2.4847260">
        <ele>1140.8</ele>
        <time>2020-09-12T11:26:26Z</time>
      </trkpt>
      <trkpt lat="41.0455660" lon="-2.4846740">
        <ele>1140.6</ele>
        <time>2020-09-12T11:26:27Z</time>
      </trkpt>
      <trkpt lat="41.0455120" lon="-2.4846220">
        <ele>1140.8</ele>
        <time>2020-09-12T11:26:28Z</time>
      </trkpt>
      <trkpt lat="41.0454570" lon="-2.4845710">
        <ele>1140.8</ele>
        <time>2020-09-12T11:26:29Z</time>
      </trkpt>
      <trkpt lat="41.0454020" lon="-2.4845210">
        <ele>1141.0</ele>
        <time>2020-09-12T11:26:30Z</time>
      </trkpt>
      <trkpt lat="41.0453480" lon="-2.4844720">
        <ele>1141.2</ele>
        <time>2020-09-12T11:26:31Z</time>
      </trkpt>
      <trkpt lat="41.0452950" lon="-2.4844210">
        <ele>1141.4</ele>
        <time>2020-09-12T11:26:32Z</time>
      </trkpt>
      <trkpt lat="41.0452420" lon="-2.4843730">
        <ele>1141.4</ele>
        <time>2020-09-12T11:26:33Z</time>
      </trkpt>
      <trkpt lat="41.0451890" lon="-2.4843250">
        <ele>1141.4</ele>
        <time>2020-09-12T11:26:34Z</time>
      </trkpt>
      <trkpt lat="41.0451360" lon="-2.4842770">
        <ele>1141.6</ele>
        <time>2020-09-12T11:26:35Z</time>
      </trkpt>
      <trkpt lat="41.0450830" lon="-2.4842300">
        <ele>1141.4</ele>
        <time>2020-09-12T11:26:36Z</time>
      </trkpt>
      <trkpt lat="41.0450320" lon="-2.4841820">
        <ele>1141.4</ele>
        <time>2020-09-12T11:26:37Z</time>
      </trkpt>
      <trkpt lat="41.0449810" lon="-2.4841330">
        <ele>1141.4</ele>
        <time>2020-09-12T11:26:38Z</time>
      </trkpt>
      <trkpt lat="41.0449300" lon="-2.4840860">
        <ele>1141.6</ele>
        <time>2020-09-12T11:26:39Z</time>
      </trkpt>
      <trkpt lat="41.0448790" lon="-2.4840390">
        <ele>1141.8</ele>
        <time>2020-09-12T11:26:40Z</time>
      </trkpt>
      <trkpt lat="41.0448280" lon="-2.4839920">
        <ele>1142.2</ele>
        <time>2020-09-12T11:26:41Z</time>
      </trkpt>
      <trkpt lat="41.0447790" lon="-2.4839460">
        <ele>1142.4</ele>
        <time>2020-09-12T11:26:42Z</time>
      </trkpt>
      <trkpt lat="41.0447300" lon="-2.4839000">
        <ele>1142.4</ele>
        <time>2020-09-12T11:26:43Z</time>
      </trkpt>
      <trkpt lat="41.0446810" lon="-2.4838560">
        <ele>1142.6</ele>
        <time>2020-09-12T11:26:44Z</time>
      </trkpt>
      <trkpt lat="41.0446320" lon="-2.4838120">
        <ele>1142.6</ele>
        <time>2020-09-12T11:26:45Z</time>
      </trkpt>
      <trkpt lat="41.0445820" lon="-2.4837690">
        <ele>1142.6</ele>
        <time>2020-09-12T11:26:46Z</time>
      </trkpt>
      <trkpt lat="41.0445330" lon="-2.4837240">
        <ele>1142.4</ele>
        <time>2020-09-12T11:26:47Z</time>
      </trkpt>
      <trkpt lat="41.0444850" lon="-2.4836790">
        <ele>1142.4</ele>
        <time>2020-09-12T11:26:48Z</time>
      </trkpt>
      <trkpt lat="41.0444360" lon="-2.4836350">
        <ele>1142.6</ele>
        <time>2020-09-12T11:26:49Z</time>
      </trkpt>
      <trkpt lat="41.0443890" lon="-2.4835920">
        <ele>1142.6</ele>
        <time>2020-09-12T11:26:50Z</time>
      </trkpt>
      <trkpt lat="41.0443410" lon="-2.4835490">
        <ele>1142.8</ele>
        <time>2020-09-12T11:26:51Z</time>
      </trkpt>
      <trkpt lat="41.0442950" lon="-2.4835050">
        <ele>1143.0</ele>
        <time>2020-09-12T11:26:52Z</time>
      </trkpt>
      <trkpt lat="41.0442500" lon="-2.4834630">
        <ele>1143.2</ele>
        <time>2020-09-12T11:26:53Z</time>
      </trkpt>
      <trkpt lat="41.0442060" lon="-2.4834220">
        <ele>1143.4</ele>
        <time>2020-09-12T11:26:54Z</time>
      </trkpt>
      <trkpt lat="41.0441610" lon="-2.4833820">
        <ele>1143.4</ele>
        <time>2020-09-12T11:26:55Z</time>
      </trkpt>
      <trkpt lat="41.0441170" lon="-2.4833420">
        <ele>1143.4</ele>
        <time>2020-09-12T11:26:56Z</time>
      </trkpt>
      <trkpt lat="41.0440730" lon="-2.4833030">
        <ele>1143.4</ele>
        <time>2020-09-12T11:26:57Z</time>
      </trkpt>
      <trkpt lat="41.0440300" lon="-2.4832630">
        <ele>1143.6</ele>
        <time>2020-09-12T11:26:58Z</time>
      </trkpt>
      <trkpt lat="41.0439860" lon="-2.4832220">
        <ele>1143.6</ele>
        <time>2020-09-12T11:26:59Z</time>
      </trkpt>
      <trkpt lat="41.0439430" lon="-2.4831830">
        <ele>1143.8</ele>
        <time>2020-09-12T11:27:00Z</time>
      </trkpt>
      <trkpt lat="41.0438990" lon="-2.4831450">
        <ele>1144.0</ele>
        <time>2020-09-12T11:27:01Z</time>
      </trkpt>
      <trkpt lat="41.0438560" lon="-2.4831070">
        <ele>1144.2</ele>
        <time>2020-09-12T11:27:02Z</time>
      </trkpt>
      <trkpt lat="41.0438140" lon="-2.4830670">
        <ele>1144.4</ele>
        <time>2020-09-12T11:27:03Z</time>
      </trkpt>
      <trkpt lat="41.0437740" lon="-2.4830280">
        <ele>1144.6</ele>
        <time>2020-09-12T11:27:04Z</time>
      </trkpt>
      <trkpt lat="41.0437340" lon="-2.4829910">
        <ele>1144.8</ele>
        <time>2020-09-12T11:27:05Z</time>
      </trkpt>
      <trkpt lat="41.0436950" lon="-2.4829540">
        <ele>1145.0</ele>
        <time>2020-09-12T11:27:06Z</time>
      </trkpt>
      <trkpt lat="41.0436570" lon="-2.4829170">
        <ele>1145.2</ele>
        <time>2020-09-12T11:27:07Z</time>
      </trkpt>
      <trkpt lat="41.0436170" lon="-2.4828820">
        <ele>1145.4</ele>
        <time>2020-09-12T11:27:08Z</time>
      </trkpt>
      <trkpt lat="41.0435770" lon="-2.4828460">
        <ele>1145.8</ele>
        <time>2020-09-12T11:27:09Z</time>
      </trkpt>
      <trkpt lat="41.0435380" lon="-2.4828090">
        <ele>1146.0</ele>
        <time>2020-09-12T11:27:10Z</time>
      </trkpt>
      <trkpt lat="41.0434990" lon="-2.4827730">
        <ele>1146.2</ele>
        <time>2020-09-12T11:27:11Z</time>
      </trkpt>
      <trkpt lat="41.0434600" lon="-2.4827380">
        <ele>1146.2</ele>
        <time>2020-09-12T11:27:12Z</time>
      </trkpt>
      <trkpt lat="41.0434210" lon="-2.4827020">
        <ele>1146.4</ele>
        <time>2020-09-12T11:27:13Z</time>
      </trkpt>
      <trkpt lat="41.0433830" lon="-2.4826650">
        <ele>1146.4</ele>
        <time>2020-09-12T11:27:14Z</time>
      </trkpt>
      <trkpt lat="41.0433430" lon="-2.4826290">
        <ele>1146.6</ele>
        <time>2020-09-12T11:27:15Z</time>
      </trkpt>
      <trkpt lat="41.0433030" lon="-2.4825940">
        <ele>1146.6</ele>
        <time>2020-09-12T11:27:16Z</time>
      </trkpt>
      <trkpt lat="41.0432620" lon="-2.4825590">
        <ele>1146.8</ele>
        <time>2020-09-12T11:27:17Z</time>
      </trkpt>
      <trkpt lat="41.0432210" lon="-2.4825220">
        <ele>1147.0</ele>
        <time>2020-09-12T11:27:18Z</time>
      </trkpt>
      <trkpt lat="41.0431810" lon="-2.4824850">
        <ele>1147.2</ele>
        <time>2020-09-12T11:27:19Z</time>
      </trkpt>
      <trkpt lat="41.0431410" lon="-2.4824490">
        <ele>1147.2</ele>
        <time>2020-09-12T11:27:20Z</time>
      </trkpt>
      <trkpt lat="41.0431000" lon="-2.4824120">
        <ele>1147.4</ele>
        <time>2020-09-12T11:27:21Z</time>
      </trkpt>
      <trkpt lat="41.0430590" lon="-2.4823750">
        <ele>1147.6</ele>
        <time>2020-09-12T11:27:22Z</time>
      </trkpt>
      <trkpt lat="41.0430190" lon="-2.4823360">
        <ele>1147.8</ele>
        <time>2020-09-12T11:27:23Z</time>
      </trkpt>
      <trkpt lat="41.0429780" lon="-2.4822990">
        <ele>1148.2</ele>
        <time>2020-09-12T11:27:24Z</time>
      </trkpt>
      <trkpt lat="41.0429380" lon="-2.4822610">
        <ele>1148.4</ele>
        <time>2020-09-12T11:27:25Z</time>
      </trkpt>
      <trkpt lat="41.0428980" lon="-2.4822240">
        <ele>1148.8</ele>
        <time>2020-09-12T11:27:26Z</time>
      </trkpt>
      <trkpt lat="41.0428580" lon="-2.4821860">
        <ele>1149.0</ele>
        <time>2020-09-12T11:27:27Z</time>
      </trkpt>
      <trkpt lat="41.0428180" lon="-2.4821470">
        <ele>1149.4</ele>
        <time>2020-09-12T11:27:28Z</time>
      </trkpt>
      <trkpt lat="41.0427780" lon="-2.4821100">
        <ele>1149.6</ele>
        <time>2020-09-12T11:27:29Z</time>
      </trkpt>
      <trkpt lat="41.0427370" lon="-2.4820740">
        <ele>1149.8</ele>
        <time>2020-09-12T11:27:30Z</time>
      </trkpt>
      <trkpt lat="41.0426960" lon="-2.4820360">
        <ele>1150.0</ele>
        <time>2020-09-12T11:27:31Z</time>
      </trkpt>
      <trkpt lat="41.0426570" lon="-2.4819990">
        <ele>1150.4</ele>
        <time>2020-09-12T11:27:32Z</time>
      </trkpt>
      <trkpt lat="41.0426160" lon="-2.4819630">
        <ele>1150.6</ele>
        <time>2020-09-12T11:27:33Z</time>
      </trkpt>
      <trkpt lat="41.0425770" lon="-2.4819270">
        <ele>1151.0</ele>
        <time>2020-09-12T11:27:34Z</time>
      </trkpt>
      <trkpt lat="41.0425370" lon="-2.4818910">
        <ele>1151.4</ele>
        <time>2020-09-12T11:27:35Z</time>
      </trkpt>
      <trkpt lat="41.0424970" lon="-2.4818540">
        <ele>1151.6</ele>
        <time>2020-09-12T11:27:36Z</time>
      </trkpt>
      <trkpt lat="41.0424580" lon="-2.4818160">
        <ele>1152.0</ele>
        <time>2020-09-12T11:27:37Z</time>
      </trkpt>
      <trkpt lat="41.0424210" lon="-2.4817790">
        <ele>1152.2</ele>
        <time>2020-09-12T11:27:38Z</time>
      </trkpt>
      <trkpt lat="41.0423840" lon="-2.4817420">
        <ele>1152.4</ele>
        <time>2020-09-12T11:27:39Z</time>
      </trkpt>
      <trkpt lat="41.0423460" lon="-2.4817080">
        <ele>1152.6</ele>
        <time>2020-09-12T11:27:40Z</time>
      </trkpt>
      <trkpt lat="41.0423090" lon="-2.4816740">
        <ele>1153.0</ele>
        <time>2020-09-12T11:27:41Z</time>
      </trkpt>
      <trkpt lat="41.0422730" lon="-2.4816400">
        <ele>1153.4</ele>
        <time>2020-09-12T11:27:42Z</time>
      </trkpt>
      <trkpt lat="41.0422380" lon="-2.4816040">
        <ele>1153.6</ele>
        <time>2020-09-12T11:27:43Z</time>
      </trkpt>
      <trkpt lat="41.0422040" lon="-2.4815690">
        <ele>1154.0</ele>
        <time>2020-09-12T11:27:44Z</time>
      </trkpt>
      <trkpt lat="41.0421720" lon="-2.4815330">
        <ele>1154.2</ele>
        <time>2020-09-12T11:27:45Z</time>
      </trkpt>
      <trkpt lat="41.0421390" lon="-2.4814980">
        <ele>1154.4</ele>
        <time>2020-09-12T11:27:46Z</time>
      </trkpt>
      <trkpt lat="41.0421070" lon="-2.4814600">
        <ele>1154.6</ele>
        <time>2020-09-12T11:27:47Z</time>
      </trkpt>
      <trkpt lat="41.0420750" lon="-2.4814200">
        <ele>1154.8</ele>
        <time>2020-09-12T11:27:48Z</time>
      </trkpt>
      <trkpt lat="41.0420440" lon="-2.4813780">
        <ele>1155.0</ele>
        <time>2020-09-12T11:27:49Z</time>
      </trkpt>
      <trkpt lat="41.0420140" lon="-2.4813360">
        <ele>1155.2</ele>
        <time>2020-09-12T11:27:50Z</time>
      </trkpt>
      <trkpt lat="41.0419850" lon="-2.4812910">
        <ele>1155.4</ele>
        <time>2020-09-12T11:27:51Z</time>
      </trkpt>
      <trkpt lat="41.0419560" lon="-2.4812450">
        <ele>1155.8</ele>
        <time>2020-09-12T11:27:52Z</time>
      </trkpt>
      <trkpt lat="41.0419270" lon="-2.4811990">
        <ele>1156.2</ele>
        <time>2020-09-12T11:27:53Z</time>
      </trkpt>
      <trkpt lat="41.0418980" lon="-2.4811530">
        <ele>1156.4</ele>
        <time>2020-09-12T11:27:54Z</time>
      </trkpt>
      <trkpt lat="41.0418710" lon="-2.4811060">
        <ele>1156.4</ele>
        <time>2020-09-12T11:27:55Z</time>
      </trkpt>
      <trkpt lat="41.0418440" lon="-2.4810600">
        <ele>1156.6</ele>
        <time>2020-09-12T11:27:56Z</time>
      </trkpt>
      <trkpt lat="41.0418180" lon="-2.4810130">
        <ele>1156.8</ele>
        <time>2020-09-12T11:27:57Z</time>
      </trkpt>
      <trkpt lat="41.0417920" lon="-2.4809660">
        <ele>1157.0</ele>
        <time>2020-09-12T11:27:58Z</time>
      </trkpt>
      <trkpt lat="41.0417650" lon="-2.4809190">
        <ele>1157.4</ele>
        <time>2020-09-12T11:27:59Z</time>
      </trkpt>
      <trkpt lat="41.0417380" lon="-2.4808730">
        <ele>1157.6</ele>
        <time>2020-09-12T11:28:00Z</time>
      </trkpt>
      <trkpt lat="41.0417110" lon="-2.4808260">
        <ele>1157.8</ele>
        <time>2020-09-12T11:28:01Z</time>
      </trkpt>
      <trkpt lat="41.0416840" lon="-2.4807790">
        <ele>1157.8</ele>
        <time>2020-09-12T11:28:02Z</time>
      </trkpt>
      <trkpt lat="41.0416560" lon="-2.4807300">
        <ele>1158.0</ele>
        <time>2020-09-12T11:28:03Z</time>
      </trkpt>
      <trkpt lat="41.0416280" lon="-2.4806800">
        <ele>1158.2</ele>
        <time>2020-09-12T11:28:04Z</time>
      </trkpt>
      <trkpt lat="41.0416010" lon="-2.4806290">
        <ele>1158.2</ele>
        <time>2020-09-12T11:28:05Z</time>
      </trkpt>
      <trkpt lat="41.0415730" lon="-2.4805770">
        <ele>1158.4</ele>
        <time>2020-09-12T11:28:06Z</time>
      </trkpt>
      <trkpt lat="41.0415440" lon="-2.4805260">
        <ele>1158.6</ele>
        <time>2020-09-12T11:28:07Z</time>
      </trkpt>
      <trkpt lat="41.0415160" lon="-2.4804740">
        <ele>1158.6</ele>
        <time>2020-09-12T11:28:08Z</time>
      </trkpt>
      <trkpt lat="41.0414870" lon="-2.4804220">
        <ele>1158.8</ele>
        <time>2020-09-12T11:28:09Z</time>
      </trkpt>
      <trkpt lat="41.0414580" lon="-2.4803690">
        <ele>1159.0</ele>
        <time>2020-09-12T11:28:10Z</time>
      </trkpt>
      <trkpt lat="41.0414270" lon="-2.4803160">
        <ele>1159.2</ele>
        <time>2020-09-12T11:28:11Z</time>
      </trkpt>
      <trkpt lat="41.0413970" lon="-2.4802630">
        <ele>1159.2</ele>
        <time>2020-09-12T11:28:12Z</time>
      </trkpt>
      <trkpt lat="41.0413670" lon="-2.4802080">
        <ele>1159.4</ele>
        <time>2020-09-12T11:28:13Z</time>
      </trkpt>
      <trkpt lat="41.0413370" lon="-2.4801530">
        <ele>1159.6</ele>
        <time>2020-09-12T11:28:14Z</time>
      </trkpt>
      <trkpt lat="41.0413070" lon="-2.4800970">
        <ele>1159.8</ele>
        <time>2020-09-12T11:28:15Z</time>
      </trkpt>
      <trkpt lat="41.0412760" lon="-2.4800410">
        <ele>1159.8</ele>
        <time>2020-09-12T11:28:16Z</time>
      </trkpt>
      <trkpt lat="41.0412460" lon="-2.4799860">
        <ele>1160.0</ele>
        <time>2020-09-12T11:28:17Z</time>
      </trkpt>
      <trkpt lat="41.0412160" lon="-2.4799300">
        <ele>1160.0</ele>
        <time>2020-09-12T11:28:18Z</time>
      </trkpt>
      <trkpt lat="41.0411850" lon="-2.4798740">
        <ele>1160.2</ele>
        <time>2020-09-12T11:28:19Z</time>
      </trkpt>
      <trkpt lat="41.0411550" lon="-2.4798180">
        <ele>1160.4</ele>
        <time>2020-09-12T11:28:20Z</time>
      </trkpt>
      <trkpt lat="41.0411250" lon="-2.4797600">
        <ele>1160.6</ele>
        <time>2020-09-12T11:28:21Z</time>
      </trkpt>
      <trkpt lat="41.0410950" lon="-2.4797040">
        <ele>1160.8</ele>
        <time>2020-09-12T11:28:22Z</time>
      </trkpt>
      <trkpt lat="41.0410650" lon="-2.4796470">
        <ele>1161.0</ele>
        <time>2020-09-12T11:28:23Z</time>
      </trkpt>
      <trkpt lat="41.0410350" lon="-2.4795910">
        <ele>1161.2</ele>
        <time>2020-09-12T11:28:24Z</time>
      </trkpt>
      <trkpt lat="41.0410040" lon="-2.4795360">
        <ele>1161.4</ele>
        <time>2020-09-12T11:28:25Z</time>
      </trkpt>
      <trkpt lat="41.0409730" lon="-2.4794800">
        <ele>1161.6</ele>
        <time>2020-09-12T11:28:26Z</time>
      </trkpt>
      <trkpt lat="41.0409440" lon="-2.4794240">
        <ele>1161.8</ele>
        <time>2020-09-12T11:28:27Z</time>
      </trkpt>
      <trkpt lat="41.0409140" lon="-2.4793680">
        <ele>1162.0</ele>
        <time>2020-09-12T11:28:28Z</time>
      </trkpt>
      <trkpt lat="41.0408840" lon="-2.4793120">
        <ele>1162.0</ele>
        <time>2020-09-12T11:28:29Z</time>
      </trkpt>
      <trkpt lat="41.0408530" lon="-2.4792560">
        <ele>1162.2</ele>
        <time>2020-09-12T11:28:30Z</time>
      </trkpt>
      <trkpt lat="41.0408230" lon="-2.4791990">
        <ele>1162.4</ele>
        <time>2020-09-12T11:28:31Z</time>
      </trkpt>
      <trkpt lat="41.0407930" lon="-2.4791420">
        <ele>1162.6</ele>
        <time>2020-09-12T11:28:32Z</time>
      </trkpt>
      <trkpt lat="41.0407620" lon="-2.4790840">
        <ele>1162.8</ele>
        <time>2020-09-12T11:28:33Z</time>
      </trkpt>
      <trkpt lat="41.0407310" lon="-2.4790270">
        <ele>1163.0</ele>
        <time>2020-09-12T11:28:34Z</time>
      </trkpt>
      <trkpt lat="41.0407010" lon="-2.4789690">
        <ele>1163.2</ele>
        <time>2020-09-12T11:28:35Z</time>
      </trkpt>
      <trkpt lat="41.0406700" lon="-2.4789110">
        <ele>1163.6</ele>
        <time>2020-09-12T11:28:36Z</time>
      </trkpt>
      <trkpt lat="41.0406380" lon="-2.4788540">
        <ele>1163.8</ele>
        <time>2020-09-12T11:28:37Z</time>
      </trkpt>
      <trkpt lat="41.0406060" lon="-2.4787960">
        <ele>1163.8</ele>
        <time>2020-09-12T11:28:38Z</time>
      </trkpt>
      <trkpt lat="41.0405740" lon="-2.4787380">
        <ele>1164.0</ele>
        <time>2020-09-12T11:28:39Z</time>
      </trkpt>
      <trkpt lat="41.0405420" lon="-2.4786800">
        <ele>1164.0</ele>
        <time>2020-09-12T11:28:40Z</time>
      </trkpt>
      <trkpt lat="41.0405100" lon="-2.4786200">
        <ele>1163.8</ele>
        <time>2020-09-12T11:28:41Z</time>
      </trkpt>
      <trkpt lat="41.0404770" lon="-2.4785610">
        <ele>1163.8</ele>
        <time>2020-09-12T11:28:42Z</time>
      </trkpt>
      <trkpt lat="41.0404440" lon="-2.4785020">
        <ele>1164.0</ele>
        <time>2020-09-12T11:28:43Z</time>
      </trkpt>
      <trkpt lat="41.0404110" lon="-2.4784430">
        <ele>1164.2</ele>
        <time>2020-09-12T11:28:44Z</time>
      </trkpt>
      <trkpt lat="41.0403780" lon="-2.4783850">
        <ele>1164.4</ele>
        <time>2020-09-12T11:28:45Z</time>
      </trkpt>
      <trkpt lat="41.0403470" lon="-2.4783260">
        <ele>1164.6</ele>
        <time>2020-09-12T11:28:46Z</time>
      </trkpt>
      <trkpt lat="41.0403150" lon="-2.4782690">
        <ele>1164.8</ele>
        <time>2020-09-12T11:28:47Z</time>
      </trkpt>
      <trkpt lat="41.0402830" lon="-2.4782120">
        <ele>1165.0</ele>
        <time>2020-09-12T11:28:48Z</time>
      </trkpt>
      <trkpt lat="41.0402500" lon="-2.4781530">
        <ele>1165.2</ele>
        <time>2020-09-12T11:28:49Z</time>
      </trkpt>
      <trkpt lat="41.0402180" lon="-2.4780950">
        <ele>1165.4</ele>
        <time>2020-09-12T11:28:50Z</time>
      </trkpt>
      <trkpt lat="41.0401850" lon="-2.4780370">
        <ele>1165.6</ele>
        <time>2020-09-12T11:28:51Z</time>
      </trkpt>
      <trkpt lat="41.0401520" lon="-2.4779790">
        <ele>1165.6</ele>
        <time>2020-09-12T11:28:52Z</time>
      </trkpt>
      <trkpt lat="41.0401200" lon="-2.4779200">
        <ele>1165.8</ele>
        <time>2020-09-12T11:28:53Z</time>
      </trkpt>
      <trkpt lat="41.0400880" lon="-2.4778620">
        <ele>1166.0</ele>
        <time>2020-09-12T11:28:54Z</time>
      </trkpt>
      <trkpt lat="41.0400550" lon="-2.4778050">
        <ele>1166.0</ele>
        <time>2020-09-12T11:28:55Z</time>
      </trkpt>
      <trkpt lat="41.0400220" lon="-2.4777480">
        <ele>1166.2</ele>
        <time>2020-09-12T11:28:56Z</time>
      </trkpt>
      <trkpt lat="41.0399900" lon="-2.4776910">
        <ele>1166.4</ele>
        <time>2020-09-12T11:28:57Z</time>
      </trkpt>
      <trkpt lat="41.0399580" lon="-2.4776320">
        <ele>1166.4</ele>
        <time>2020-09-12T11:28:58Z</time>
      </trkpt>
      <trkpt lat="41.0399270" lon="-2.4775750">
        <ele>1166.6</ele>
        <time>2020-09-12T11:28:59Z</time>
      </trkpt>
      <trkpt lat="41.0398950" lon="-2.4775170">
        <ele>1166.8</ele>
        <time>2020-09-12T11:29:00Z</time>
      </trkpt>
      <trkpt lat="41.0398640" lon="-2.4774600">
        <ele>1166.8</ele>
        <time>2020-09-12T11:29:01Z</time>
      </trkpt>
      <trkpt lat="41.0398330" lon="-2.4774040">
        <ele>1167.0</ele>
        <time>2020-09-12T11:29:02Z</time>
      </trkpt>
      <trkpt lat="41.0398010" lon="-2.4773480">
        <ele>1167.2</ele>
        <time>2020-09-12T11:29:03Z</time>
      </trkpt>
      <trkpt lat="41.0397700" lon="-2.4772920">
        <ele>1167.4</ele>
        <time>2020-09-12T11:29:04Z</time>
      </trkpt>
      <trkpt lat="41.0397400" lon="-2.4772360">
        <ele>1167.4</ele>
        <time>2020-09-12T11:29:05Z</time>
      </trkpt>
      <trkpt lat="41.0397090" lon="-2.4771810">
        <ele>1167.6</ele>
        <time>2020-09-12T11:29:06Z</time>
      </trkpt>
      <trkpt lat="41.0396790" lon="-2.4771270">
        <ele>1167.8</ele>
        <time>2020-09-12T11:29:07Z</time>
      </trkpt>
      <trkpt lat="41.0396500" lon="-2.4770710">
        <ele>1167.8</ele>
        <time>2020-09-12T11:29:08Z</time>
      </trkpt>
      <trkpt lat="41.0396220" lon="-2.4770170">
        <ele>1168.0</ele>
        <time>2020-09-12T11:29:09Z</time>
      </trkpt>
      <trkpt lat="41.0395920" lon="-2.4769640">
        <ele>1168.0</ele>
        <time>2020-09-12T11:29:10Z</time>
      </trkpt>
      <trkpt lat="41.0395620" lon="-2.4769080">
        <ele>1168.2</ele>
        <time>2020-09-12T11:29:11Z</time>
      </trkpt>
      <trkpt lat="41.0395330" lon="-2.4768510">
        <ele>1168.2</ele>
        <time>2020-09-12T11:29:12Z</time>
      </trkpt>
      <trkpt lat="41.0395030" lon="-2.4767940">
        <ele>1168.4</ele>
        <time>2020-09-12T11:29:13Z</time>
      </trkpt>
      <trkpt lat="41.0394730" lon="-2.4767360">
        <ele>1168.8</ele>
        <time>2020-09-12T11:29:14Z</time>
      </trkpt>
      <trkpt lat="41.0394410" lon="-2.4766770">
        <ele>1169.2</ele>
        <time>2020-09-12T11:29:15Z</time>
      </trkpt>
      <trkpt lat="41.0394090" lon="-2.4766170">
        <ele>1169.4</ele>
        <time>2020-09-12T11:29:16Z</time>
      </trkpt>
      <trkpt lat="41.0393760" lon="-2.4765570">
        <ele>1169.6</ele>
        <time>2020-09-12T11:29:17Z</time>
      </trkpt>
      <trkpt lat="41.0393430" lon="-2.4764970">
        <ele>1169.8</ele>
        <time>2020-09-12T11:29:18Z</time>
      </trkpt>
      <trkpt lat="41.0393100" lon="-2.4764370">
        <ele>1170.0</ele>
        <time>2020-09-12T11:29:19Z</time>
      </trkpt>
      <trkpt lat="41.0392770" lon="-2.4763760">
        <ele>1170.2</ele>
        <time>2020-09-12T11:29:20Z</time>
      </trkpt>
      <trkpt lat="41.0392450" lon="-2.4763150">
        <ele>1170.6</ele>
        <time>2020-09-12T11:29:21Z</time>
      </trkpt>
      <trkpt lat="41.0392120" lon="-2.4762530">
        <ele>1170.8</ele>
        <time>2020-09-12T11:29:22Z</time>
      </trkpt>
      <trkpt lat="41.0391790" lon="-2.4761920">
        <ele>1170.8</ele>
        <time>2020-09-12T11:29:23Z</time>
      </trkpt>
      <trkpt lat="41.0391450" lon="-2.4761300">
        <ele>1171.0</ele>
        <time>2020-09-12T11:29:24Z</time>
      </trkpt>
      <trkpt lat="41.0391110" lon="-2.4760690">
        <ele>1171.0</ele>
        <time>2020-09-12T11:29:25Z</time>
      </trkpt>
      <trkpt lat="41.0390770" lon="-2.4760070">
        <ele>1171.0</ele>
        <time>2020-09-12T11:29:26Z</time>
      </trkpt>
      <trkpt lat="41.0390440" lon="-2.4759450">
        <ele>1171.2</ele>
        <time>2020-09-12T11:29:27Z</time>
      </trkpt>
      <trkpt lat="41.0390110" lon="-2.4758830">
        <ele>1171.2</ele>
        <time>2020-09-12T11:29:28Z</time>
      </trkpt>
      <trkpt lat="41.0389790" lon="-2.4758190">
        <ele>1171.2</ele>
        <time>2020-09-12T11:29:29Z</time>
      </trkpt>
      <trkpt lat="41.0389450" lon="-2.4757560">
        <ele>1171.4</ele>
        <time>2020-09-12T11:29:30Z</time>
      </trkpt>
      <trkpt lat="41.0389100" lon="-2.4756930">
        <ele>1171.4</ele>
        <time>2020-09-12T11:29:31Z</time>
      </trkpt>
      <trkpt lat="41.0388760" lon="-2.4756290">
        <ele>1171.6</ele>
        <time>2020-09-12T11:29:32Z</time>
      </trkpt>
      <trkpt lat="41.0388420" lon="-2.4755650">
        <ele>1171.8</ele>
        <time>2020-09-12T11:29:33Z</time>
      </trkpt>
      <trkpt lat="41.0388080" lon="-2.4755010">
        <ele>1172.0</ele>
        <time>2020-09-12T11:29:34Z</time>
      </trkpt>
      <trkpt lat="41.0387730" lon="-2.4754360">
        <ele>1172.2</ele>
        <time>2020-09-12T11:29:35Z</time>
      </trkpt>
      <trkpt lat="41.0387380" lon="-2.4753730">
        <ele>1172.2</ele>
        <time>2020-09-12T11:29:36Z</time>
      </trkpt>
      <trkpt lat="41.0387020" lon="-2.4753100">
        <ele>1172.4</ele>
        <time>2020-09-12T11:29:37Z</time>
      </trkpt>
      <trkpt lat="41.0386670" lon="-2.4752470">
        <ele>1172.6</ele>
        <time>2020-09-12T11:29:38Z</time>
      </trkpt>
      <trkpt lat="41.0386320" lon="-2.4751840">
        <ele>1172.6</ele>
        <time>2020-09-12T11:29:39Z</time>
      </trkpt>
      <trkpt lat="41.0385980" lon="-2.4751210">
        <ele>1172.8</ele>
        <time>2020-09-12T11:29:40Z</time>
      </trkpt>
      <trkpt lat="41.0385640" lon="-2.4750590">
        <ele>1173.0</ele>
        <time>2020-09-12T11:29:41Z</time>
      </trkpt>
      <trkpt lat="41.0385310" lon="-2.4749960">
        <ele>1173.2</ele>
        <time>2020-09-12T11:29:42Z</time>
      </trkpt>
      <trkpt lat="41.0384980" lon="-2.4749340">
        <ele>1173.4</ele>
        <time>2020-09-12T11:29:43Z</time>
      </trkpt>
      <trkpt lat="41.0384650" lon="-2.4748710">
        <ele>1173.4</ele>
        <time>2020-09-12T11:29:44Z</time>
      </trkpt>
      <trkpt lat="41.0384330" lon="-2.4748080">
        <ele>1173.4</ele>
        <time>2020-09-12T11:29:45Z</time>
      </trkpt>
      <trkpt lat="41.0384000" lon="-2.4747460">
        <ele>1173.6</ele>
        <time>2020-09-12T11:29:46Z</time>
      </trkpt>
      <trkpt lat="41.0383680" lon="-2.4746850">
        <ele>1174.0</ele>
        <time>2020-09-12T11:29:47Z</time>
      </trkpt>
      <trkpt lat="41.0383350" lon="-2.4746260">
        <ele>1174.2</ele>
        <time>2020-09-12T11:29:48Z</time>
      </trkpt>
      <trkpt lat="41.0383020" lon="-2.4745670">
        <ele>1174.4</ele>
        <time>2020-09-12T11:29:49Z</time>
      </trkpt>
      <trkpt lat="41.0382690" lon="-2.4745080">
        <ele>1174.6</ele>
        <time>2020-09-12T11:29:50Z</time>
      </trkpt>
      <trkpt lat="41.0382360" lon="-2.4744490">
        <ele>1174.8</ele>
        <time>2020-09-12T11:29:51Z</time>
      </trkpt>
      <trkpt lat="41.0382040" lon="-2.4743900">
        <ele>1175.0</ele>
        <time>2020-09-12T11:29:52Z</time>
      </trkpt>
      <trkpt lat="41.0381710" lon="-2.4743300">
        <ele>1175.0</ele>
        <time>2020-09-12T11:29:53Z</time>
      </trkpt>
      <trkpt lat="41.0381390" lon="-2.4742720">
        <ele>1175.0</ele>
        <time>2020-09-12T11:29:54Z</time>
      </trkpt>
      <trkpt lat="41.0381070" lon="-2.4742130">
        <ele>1175.2</ele>
        <time>2020-09-12T11:29:55Z</time>
      </trkpt>
      <trkpt lat="41.0380750" lon="-2.4741550">
        <ele>1175.6</ele>
        <time>2020-09-12T11:29:56Z</time>
      </trkpt>
      <trkpt lat="41.0380420" lon="-2.4740980">
        <ele>1175.8</ele>
        <time>2020-09-12T11:29:57Z</time>
      </trkpt>
      <trkpt lat="41.0380110" lon="-2.4740390">
        <ele>1176.0</ele>
        <time>2020-09-12T11:29:58Z</time>
      </trkpt>
      <trkpt lat="41.0379800" lon="-2.4739800">
        <ele>1176.2</ele>
        <time>2020-09-12T11:29:59Z</time>
      </trkpt>
      <trkpt lat="41.0379490" lon="-2.4739190">
        <ele>1176.4</ele>
        <time>2020-09-12T11:30:00Z</time>
      </trkpt>
      <trkpt lat="41.0379170" lon="-2.4738580">
        <ele>1176.6</ele>
        <time>2020-09-12T11:30:01Z</time>
      </trkpt>
      <trkpt lat="41.0378850" lon="-2.4737980">
        <ele>1176.8</ele>
        <time>2020-09-12T11:30:02Z</time>
      </trkpt>
      <trkpt lat="41.0378540" lon="-2.4737360">
        <ele>1176.8</ele>
        <time>2020-09-12T11:30:03Z</time>
      </trkpt>
      <trkpt lat="41.0378220" lon="-2.4736760">
        <ele>1176.8</ele>
        <time>2020-09-12T11:30:04Z</time>
      </trkpt>
      <trkpt lat="41.0377910" lon="-2.4736150">
        <ele>1177.2</ele>
        <time>2020-09-12T11:30:05Z</time>
      </trkpt>
      <trkpt lat="41.0377620" lon="-2.4735530">
        <ele>1177.4</ele>
        <time>2020-09-12T11:30:06Z</time>
      </trkpt>
      <trkpt lat="41.0377340" lon="-2.4734890">
        <ele>1178.0</ele>
        <time>2020-09-12T11:30:07Z</time>
      </trkpt>
      <trkpt lat="41.0377090" lon="-2.4734240">
        <ele>1178.2</ele>
        <time>2020-09-12T11:30:08Z</time>
      </trkpt>
      <trkpt lat="41.0376850" lon="-2.4733580">
        <ele>1178.4</ele>
        <time>2020-09-12T11:30:09Z</time>
      </trkpt>
      <trkpt lat="41.0376610" lon="-2.4732920">
        <ele>1178.6</ele>
        <time>2020-09-12T11:30:10Z</time>
      </trkpt>
      <trkpt lat="41.0376380" lon="-2.4732230">
        <ele>1178.8</ele>
        <time>2020-09-12T11:30:11Z</time>
      </trkpt>
      <trkpt lat="41.0376160" lon="-2.4731550">
        <ele>1178.8</ele>
        <time>2020-09-12T11:30:12Z</time>
      </trkpt>
      <trkpt lat="41.0375960" lon="-2.4730840">
        <ele>1179.0</ele>
        <time>2020-09-12T11:30:13Z</time>
      </trkpt>
      <trkpt lat="41.0375740" lon="-2.4730140">
        <ele>1179.0</ele>
        <time>2020-09-12T11:30:14Z</time>
      </trkpt>
      <trkpt lat="41.0375500" lon="-2.4729470">
        <ele>1179.2</ele>
        <time>2020-09-12T11:30:15Z</time>
      </trkpt>
      <trkpt lat="41.0375280" lon="-2.4728770">
        <ele>1179.4</ele>
        <time>2020-09-12T11:30:16Z</time>
      </trkpt>
      <trkpt lat="41.0375070" lon="-2.4728080">
        <ele>1179.6</ele>
        <time>2020-09-12T11:30:17Z</time>
      </trkpt>
      <trkpt lat="41.0374870" lon="-2.4727400">
        <ele>1179.8</ele>
        <time>2020-09-12T11:30:18Z</time>
      </trkpt>
      <trkpt lat="41.0374680" lon="-2.4726720">
        <ele>1180.2</ele>
        <time>2020-09-12T11:30:19Z</time>
      </trkpt>
      <trkpt lat="41.0374480" lon="-2.4726040">
        <ele>1180.4</ele>
        <time>2020-09-12T11:30:20Z</time>
      </trkpt>
      <trkpt lat="41.0374280" lon="-2.4725350">
        <ele>1180.6</ele>
        <time>2020-09-12T11:30:21Z</time>
      </trkpt>
      <trkpt lat="41.0374080" lon="-2.4724660">
        <ele>1180.8</ele>
        <time>2020-09-12T11:30:22Z</time>
      </trkpt>
      <trkpt lat="41.0373890" lon="-2.4723980">
        <ele>1181.0</ele>
        <time>2020-09-12T11:30:23Z</time>
      </trkpt>
      <trkpt lat="41.0373680" lon="-2.4723280">
        <ele>1181.0</ele>
        <time>2020-09-12T11:30:24Z</time>
      </trkpt>
      <trkpt lat="41.0373460" lon="-2.4722580">
        <ele>1181.0</ele>
        <time>2020-09-12T11:30:25Z</time>
      </trkpt>
      <trkpt lat="41.0373250" lon="-2.4721880">
        <ele>1181.2</ele>
        <time>2020-09-12T11:30:26Z</time>
      </trkpt>
      <trkpt lat="41.0373040" lon="-2.4721160">
        <ele>1181.2</ele>
        <time>2020-09-12T11:30:27Z</time>
      </trkpt>
      <trkpt lat="41.0372850" lon="-2.4720460">
        <ele>1181.4</ele>
        <time>2020-09-12T11:30:28Z</time>
      </trkpt>
      <trkpt lat="41.0372650" lon="-2.4719770">
        <ele>1181.6</ele>
        <time>2020-09-12T11:30:29Z</time>
      </trkpt>
      <trkpt lat="41.0372450" lon="-2.4719070">
        <ele>1181.8</ele>
        <time>2020-09-12T11:30:30Z</time>
      </trkpt>
      <trkpt lat="41.0372240" lon="-2.4718390">
        <ele>1182.0</ele>
        <time>2020-09-12T11:30:31Z</time>
      </trkpt>
      <trkpt lat="41.0372040" lon="-2.4717720">
        <ele>1182.2</ele>
        <time>2020-09-12T11:30:32Z</time>
      </trkpt>
      <trkpt lat="41.0371840" lon="-2.4717020">
        <ele>1182.4</ele>
        <time>2020-09-12T11:30:33Z</time>
      </trkpt>
      <trkpt lat="41.0371640" lon="-2.4716320">
        <ele>1182.4</ele>
        <time>2020-09-12T11:30:34Z</time>
      </trkpt>
      <trkpt lat="41.0371440" lon="-2.4715620">
        <ele>1182.6</ele>
        <time>2020-09-12T11:30:35Z</time>
      </trkpt>
      <trkpt lat="41.0371250" lon="-2.4714900">
        <ele>1183.0</ele>
        <time>2020-09-12T11:30:36Z</time>
      </trkpt>
      <trkpt lat="41.0371040" lon="-2.4714190">
        <ele>1183.4</ele>
        <time>2020-09-12T11:30:37Z</time>
      </trkpt>
      <trkpt lat="41.0370850" lon="-2.4713490">
        <ele>1183.6</ele>
        <time>2020-09-12T11:30:38Z</time>
      </trkpt>
      <trkpt lat="41.0370640" lon="-2.4712790">
        <ele>1183.8</ele>
        <time>2020-09-12T11:30:39Z</time>
      </trkpt>
      <trkpt lat="41.0370430" lon="-2.4712090">
        <ele>1184.0</ele>
        <time>2020-09-12T11:30:40Z</time>
      </trkpt>
      <trkpt lat="41.0370220" lon="-2.4711400">
        <ele>1184.2</ele>
        <time>2020-09-12T11:30:41Z</time>
      </trkpt>
      <trkpt lat="41.0370010" lon="-2.4710720">
        <ele>1184.4</ele>
        <time>2020-09-12T11:30:42Z</time>
      </trkpt>
      <trkpt lat="41.0369790" lon="-2.4710050">
        <ele>1184.8</ele>
        <time>2020-09-12T11:30:43Z</time>
      </trkpt>
      <trkpt lat="41.0369590" lon="-2.4709380">
        <ele>1185.0</ele>
        <time>2020-09-12T11:30:44Z</time>
      </trkpt>
      <trkpt lat="41.0369400" lon="-2.4708700">
        <ele>1185.0</ele>
        <time>2020-09-12T11:30:45Z</time>
      </trkpt>
      <trkpt lat="41.0369220" lon="-2.4708020">
        <ele>1185.2</ele>
        <time>2020-09-12T11:30:46Z</time>
      </trkpt>
      <trkpt lat="41.0369020" lon="-2.4707350">
        <ele>1185.4</ele>
        <time>2020-09-12T11:30:47Z</time>
      </trkpt>
      <trkpt lat="41.0368830" lon="-2.4706720">
        <ele>1185.6</ele>
        <time>2020-09-12T11:30:48Z</time>
      </trkpt>
      <trkpt lat="41.0368630" lon="-2.4706070">
        <ele>1185.6</ele>
        <time>2020-09-12T11:30:49Z</time>
      </trkpt>
      <trkpt lat="41.0368440" lon="-2.4705430">
        <ele>1185.8</ele>
        <time>2020-09-12T11:30:50Z</time>
      </trkpt>
      <trkpt lat="41.0368250" lon="-2.4704800">
        <ele>1186.0</ele>
        <time>2020-09-12T11:30:51Z</time>
      </trkpt>
      <trkpt lat="41.0368090" lon="-2.4704190">
        <ele>1186.0</ele>
        <time>2020-09-12T11:30:52Z</time>
      </trkpt>
      <trkpt lat="41.0367940" lon="-2.4703590">
        <ele>1186.2</ele>
        <time>2020-09-12T11:30:53Z</time>
      </trkpt>
      <trkpt lat="41.0367760" lon="-2.4703020">
        <ele>1186.4</ele>
        <time>2020-09-12T11:30:54Z</time>
      </trkpt>
      <trkpt lat="41.0367600" lon="-2.4702480">
        <ele>1186.6</ele>
        <time>2020-09-12T11:30:55Z</time>
      </trkpt>
      <trkpt lat="41.0367420" lon="-2.4701990">
        <ele>1186.8</ele>
        <time>2020-09-12T11:30:56Z</time>
      </trkpt>
      <trkpt lat="41.0367220" lon="-2.4701540">
        <ele>1187.0</ele>
        <time>2020-09-12T11:30:57Z</time>
      </trkpt>
      <trkpt lat="41.0366970" lon="-2.4701170">
        <ele>1187.2</ele>
        <time>2020-09-12T11:30:58Z</time>
      </trkpt>
      <trkpt lat="41.0366720" lon="-2.4700830">
        <ele>1187.4</ele>
        <time>2020-09-12T11:30:59Z</time>
      </trkpt>
      <trkpt lat="41.0366510" lon="-2.4700470">
        <ele>1187.4</ele>
        <time>2020-09-12T11:31:00Z</time>
      </trkpt>
      <trkpt lat="41.0366370" lon="-2.4700020">
        <ele>1187.6</ele>
        <time>2020-09-12T11:31:01Z</time>
      </trkpt>
      <trkpt lat="41.0366310" lon="-2.4699500">
        <ele>1187.6</ele>
        <time>2020-09-12T11:31:02Z</time>
      </trkpt>
      <trkpt lat="41.0366290" lon="-2.4698950">
        <ele>1187.8</ele>
        <time>2020-09-12T11:31:03Z</time>
      </trkpt>
      <trkpt lat="41.0366300" lon="-2.4698380">
        <ele>1187.8</ele>
        <time>2020-09-12T11:31:04Z</time>
      </trkpt>
      <trkpt lat="41.0366280" lon="-2.4697200">
        <ele>1188.0</ele>
        <time>2020-09-12T11:31:06Z</time>
      </trkpt>
      <trkpt lat="41.0366240" lon="-2.4696590">
        <ele>1188.0</ele>
        <time>2020-09-12T11:31:07Z</time>
      </trkpt>
      <trkpt lat="41.0366210" lon="-2.4696000">
        <ele>1188.0</ele>
        <time>2020-09-12T11:31:08Z</time>
      </trkpt>
      <trkpt lat="41.0366180" lon="-2.4695400">
        <ele>1188.0</ele>
        <time>2020-09-12T11:31:09Z</time>
      </trkpt>
      <trkpt lat="41.0366140" lon="-2.4694790">
        <ele>1188.2</ele>
        <time>2020-09-12T11:31:10Z</time>
      </trkpt>
      <trkpt lat="41.0366120" lon="-2.4694190">
        <ele>1188.2</ele>
        <time>2020-09-12T11:31:11Z</time>
      </trkpt>
      <trkpt lat="41.0366100" lon="-2.4693600">
        <ele>1188.2</ele>
        <time>2020-09-12T11:31:12Z</time>
      </trkpt>
      <trkpt lat="41.0366070" lon="-2.4693010">
        <ele>1188.2</ele>
        <time>2020-09-12T11:31:13Z</time>
      </trkpt>
      <trkpt lat="41.0366040" lon="-2.4692420">
        <ele>1188.2</ele>
        <time>2020-09-12T11:31:14Z</time>
      </trkpt>
      <trkpt lat="41.0366010" lon="-2.4691850">
        <ele>1188.4</ele>
        <time>2020-09-12T11:31:15Z</time>
      </trkpt>
      <trkpt lat="41.0365980" lon="-2.4691300">
        <ele>1188.6</ele>
        <time>2020-09-12T11:31:16Z</time>
      </trkpt>
      <trkpt lat="41.0365940" lon="-2.4690790">
        <ele>1188.6</ele>
        <time>2020-09-12T11:31:17Z</time>
      </trkpt>
      <trkpt lat="41.0365920" lon="-2.4690290">
        <ele>1188.6</ele>
        <time>2020-09-12T11:31:18Z</time>
      </trkpt>
      <trkpt lat="41.0365910" lon="-2.4689800">
        <ele>1188.8</ele>
        <time>2020-09-12T11:31:19Z</time>
      </trkpt>
      <trkpt lat="41.0365890" lon="-2.4689300">
        <ele>1189.0</ele>
        <time>2020-09-12T11:31:20Z</time>
      </trkpt>
      <trkpt lat="41.0365890" lon="-2.4688810">
        <ele>1189.0</ele>
        <time>2020-09-12T11:31:21Z</time>
      </trkpt>
      <trkpt lat="41.0365890" lon="-2.4688320">
        <ele>1189.0</ele>
        <time>2020-09-12T11:31:22Z</time>
      </trkpt>
      <trkpt lat="41.0365890" lon="-2.4687830">
        <ele>1189.0</ele>
        <time>2020-09-12T11:31:23Z</time>
      </trkpt>
      <trkpt lat="41.0365880" lon="-2.4687340">
        <ele>1189.0</ele>
        <time>2020-09-12T11:31:24Z</time>
      </trkpt>
      <trkpt lat="41.0365880" lon="-2.4686860">
        <ele>1189.2</ele>
        <time>2020-09-12T11:31:25Z</time>
      </trkpt>
      <trkpt lat="41.0365880" lon="-2.4686380">
        <ele>1189.2</ele>
        <time>2020-09-12T11:31:26Z</time>
      </trkpt>
      <trkpt lat="41.0365890" lon="-2.4685910">
        <ele>1189.2</ele>
        <time>2020-09-12T11:31:27Z</time>
      </trkpt>
      <trkpt lat="41.0365950" lon="-2.4685440">
        <ele>1189.4</ele>
        <time>2020-09-12T11:31:28Z</time>
      </trkpt>
      <trkpt lat="41.0366000" lon="-2.4684960">
        <ele>1189.4</ele>
        <time>2020-09-12T11:31:29Z</time>
      </trkpt>
      <trkpt lat="41.0366020" lon="-2.4684440">
        <ele>1189.4</ele>
        <time>2020-09-12T11:31:30Z</time>
      </trkpt>
      <trkpt lat="41.0366030" lon="-2.4683930">
        <ele>1189.4</ele>
        <time>2020-09-12T11:31:31Z</time>
      </trkpt>
      <trkpt lat="41.0366050" lon="-2.4683400">
        <ele>1189.6</ele>
        <time>2020-09-12T11:31:32Z</time>
      </trkpt>
      <trkpt lat="41.0366070" lon="-2.4682900">
        <ele>1189.6</ele>
        <time>2020-09-12T11:31:33Z</time>
      </trkpt>
      <trkpt lat="41.0366100" lon="-2.4682370">
        <ele>1189.6</ele>
        <time>2020-09-12T11:31:34Z</time>
      </trkpt>
      <trkpt lat="41.0366110" lon="-2.4681830">
        <ele>1189.8</ele>
        <time>2020-09-12T11:31:35Z</time>
      </trkpt>
      <trkpt lat="41.0366100" lon="-2.4681270">
        <ele>1189.8</ele>
        <time>2020-09-12T11:31:36Z</time>
      </trkpt>
      <trkpt lat="41.0366080" lon="-2.4680720">
        <ele>1189.8</ele>
        <time>2020-09-12T11:31:37Z</time>
      </trkpt>
      <trkpt lat="41.0366080" lon="-2.4680170">
        <ele>1190.0</ele>
        <time>2020-09-12T11:31:38Z</time>
      </trkpt>
      <trkpt lat="41.0366110" lon="-2.4679620">
        <ele>1190.0</ele>
        <time>2020-09-12T11:31:39Z</time>
      </trkpt>
      <trkpt lat="41.0366140" lon="-2.4679100">
        <ele>1190.0</ele>
        <time>2020-09-12T11:31:40Z</time>
      </trkpt>
      <trkpt lat="41.0366150" lon="-2.4678600">
        <ele>1190.0</ele>
        <time>2020-09-12T11:31:41Z</time>
      </trkpt>
      <trkpt lat="41.0366140" lon="-2.4678140">
        <ele>1190.0</ele>
        <time>2020-09-12T11:31:42Z</time>
      </trkpt>
      <trkpt lat="41.0366130" lon="-2.4677670">
        <ele>1190.0</ele>
        <time>2020-09-12T11:31:43Z</time>
      </trkpt>
      <trkpt lat="41.0366110" lon="-2.4677170">
        <ele>1190.2</ele>
        <time>2020-09-12T11:31:44Z</time>
      </trkpt>
      <trkpt lat="41.0366070" lon="-2.4676650">
        <ele>1190.2</ele>
        <time>2020-09-12T11:31:45Z</time>
      </trkpt>
      <trkpt lat="41.0366050" lon="-2.4676110">
        <ele>1190.4</ele>
        <time>2020-09-12T11:31:46Z</time>
      </trkpt>
      <trkpt lat="41.0366050" lon="-2.4675520">
        <ele>1190.4</ele>
        <time>2020-09-12T11:31:47Z</time>
      </trkpt>
      <trkpt lat="41.0366060" lon="-2.4674930">
        <ele>1190.4</ele>
        <time>2020-09-12T11:31:48Z</time>
      </trkpt>
      <trkpt lat="41.0366050" lon="-2.4674330">
        <ele>1190.6</ele>
        <time>2020-09-12T11:31:49Z</time>
      </trkpt>
      <trkpt lat="41.0366030" lon="-2.4673720">
        <ele>1190.6</ele>
        <time>2020-09-12T11:31:50Z</time>
      </trkpt>
      <trkpt lat="41.0366010" lon="-2.4673090">
        <ele>1190.8</ele>
        <time>2020-09-12T11:31:51Z</time>
      </trkpt>
      <trkpt lat="41.0366010" lon="-2.4672470">
        <ele>1190.8</ele>
        <time>2020-09-12T11:31:52Z</time>
      </trkpt>
      <trkpt lat="41.0366000" lon="-2.4671820">
        <ele>1191.0</ele>
        <time>2020-09-12T11:31:53Z</time>
      </trkpt>
      <trkpt lat="41.0365990" lon="-2.4671160">
        <ele>1190.8</ele>
        <time>2020-09-12T11:31:54Z</time>
      </trkpt>
      <trkpt lat="41.0365960" lon="-2.4670520">
        <ele>1190.8</ele>
        <time>2020-09-12T11:31:55Z</time>
      </trkpt>
      <trkpt lat="41.0365940" lon="-2.4669880">
        <ele>1190.8</ele>
        <time>2020-09-12T11:31:56Z</time>
      </trkpt>
      <trkpt lat="41.0365920" lon="-2.4669210">
        <ele>1190.8</ele>
        <time>2020-09-12T11:31:57Z</time>
      </trkpt>
      <trkpt lat="41.0365760" lon="-2.4668600">
        <ele>1191.0</ele>
        <time>2020-09-12T11:31:58Z</time>
      </trkpt>
      <trkpt lat="41.0365700" lon="-2.4667940">
        <ele>1191.2</ele>
        <time>2020-09-12T11:31:59Z</time>
      </trkpt>
      <trkpt lat="41.0365630" lon="-2.4667290">
        <ele>1191.4</ele>
        <time>2020-09-12T11:32:00Z</time>
      </trkpt>
      <trkpt lat="41.0365610" lon="-2.4666610">
        <ele>1191.4</ele>
        <time>2020-09-12T11:32:01Z</time>
      </trkpt>
      <trkpt lat="41.0365580" lon="-2.4665950">
        <ele>1191.6</ele>
        <time>2020-09-12T11:32:02Z</time>
      </trkpt>
      <trkpt lat="41.0365580" lon="-2.4665290">
        <ele>1191.6</ele>
        <time>2020-09-12T11:32:03Z</time>
      </trkpt>
      <trkpt lat="41.0365560" lon="-2.4664640">
        <ele>1191.6</ele>
        <time>2020-09-12T11:32:04Z</time>
      </trkpt>
      <trkpt lat="41.0365530" lon="-2.4663980">
        <ele>1191.6</ele>
        <time>2020-09-12T11:32:05Z</time>
      </trkpt>
      <trkpt lat="41.0365520" lon="-2.4663340">
        <ele>1191.6</ele>
        <time>2020-09-12T11:32:06Z</time>
      </trkpt>
      <trkpt lat="41.0365520" lon="-2.4662700">
        <ele>1191.6</ele>
        <time>2020-09-12T11:32:07Z</time>
      </trkpt>
      <trkpt lat="41.0365530" lon="-2.4662060">
        <ele>1191.6</ele>
        <time>2020-09-12T11:32:08Z</time>
      </trkpt>
      <trkpt lat="41.0365540" lon="-2.4661390">
        <ele>1191.6</ele>
        <time>2020-09-12T11:32:09Z</time>
      </trkpt>
      <trkpt lat="41.0365530" lon="-2.4660700">
        <ele>1191.6</ele>
        <time>2020-09-12T11:32:10Z</time>
      </trkpt>
      <trkpt lat="41.0365580" lon="-2.4659980">
        <ele>1191.8</ele>
        <time>2020-09-12T11:32:11Z</time>
      </trkpt>
      <trkpt lat="41.0365690" lon="-2.4659240">
        <ele>1191.8</ele>
        <time>2020-09-12T11:32:12Z</time>
      </trkpt>
      <trkpt lat="41.0365810" lon="-2.4658490">
        <ele>1191.6</ele>
        <time>2020-09-12T11:32:13Z</time>
      </trkpt>
      <trkpt lat="41.0365950" lon="-2.4657730">
        <ele>1191.6</ele>
        <time>2020-09-12T11:32:14Z</time>
      </trkpt>
      <trkpt lat="41.0366050" lon="-2.4656940">
        <ele>1191.4</ele>
        <time>2020-09-12T11:32:15Z</time>
      </trkpt>
      <trkpt lat="41.0366150" lon="-2.4656130">
        <ele>1191.2</ele>
        <time>2020-09-12T11:32:16Z</time>
      </trkpt>
      <trkpt lat="41.0366280" lon="-2.4655310">
        <ele>1191.0</ele>
        <time>2020-09-12T11:32:17Z</time>
      </trkpt>
      <trkpt lat="41.0366400" lon="-2.4654470">
        <ele>1190.8</ele>
        <time>2020-09-12T11:32:18Z</time>
      </trkpt>
      <trkpt lat="41.0366550" lon="-2.4653610">
        <ele>1190.6</ele>
        <time>2020-09-12T11:32:19Z</time>
      </trkpt>
      <trkpt lat="41.0366710" lon="-2.4652710">
        <ele>1190.4</ele>
        <time>2020-09-12T11:32:20Z</time>
      </trkpt>
      <trkpt lat="41.0366870" lon="-2.4651830">
        <ele>1190.4</ele>
        <time>2020-09-12T11:32:21Z</time>
      </trkpt>
      <trkpt lat="41.0367050" lon="-2.4650940">
        <ele>1190.2</ele>
        <time>2020-09-12T11:32:22Z</time>
      </trkpt>
      <trkpt lat="41.0367220" lon="-2.4650010">
        <ele>1190.2</ele>
        <time>2020-09-12T11:32:23Z</time>
      </trkpt>
      <trkpt lat="41.0367390" lon="-2.4649050">
        <ele>1190.0</ele>
        <time>2020-09-12T11:32:24Z</time>
      </trkpt>
      <trkpt lat="41.0367530" lon="-2.4648060">
        <ele>1189.8</ele>
        <time>2020-09-12T11:32:25Z</time>
      </trkpt>
      <trkpt lat="41.0367660" lon="-2.4647050">
        <ele>1189.4</ele>
        <time>2020-09-12T11:32:26Z</time>
      </trkpt>
      <trkpt lat="41.0367800" lon="-2.4646020">
        <ele>1189.0</ele>
        <time>2020-09-12T11:32:27Z</time>
      </trkpt>
      <trkpt lat="41.0367990" lon="-2.4644990">
        <ele>1188.6</ele>
        <time>2020-09-12T11:32:28Z</time>
      </trkpt>
      <trkpt lat="41.0368180" lon="-2.4643950">
        <ele>1188.4</ele>
        <time>2020-09-12T11:32:29Z</time>
      </trkpt>
      <trkpt lat="41.0368350" lon="-2.4642860">
        <ele>1188.2</ele>
        <time>2020-09-12T11:32:30Z</time>
      </trkpt>
      <trkpt lat="41.0368520" lon="-2.4641750">
        <ele>1188.0</ele>
        <time>2020-09-12T11:32:31Z</time>
      </trkpt>
      <trkpt lat="41.0368680" lon="-2.4640620">
        <ele>1187.8</ele>
        <time>2020-09-12T11:32:32Z</time>
      </trkpt>
      <trkpt lat="41.0368850" lon="-2.4639440">
        <ele>1187.6</ele>
        <time>2020-09-12T11:32:33Z</time>
      </trkpt>
      <trkpt lat="41.0369020" lon="-2.4638260">
        <ele>1187.4</ele>
        <time>2020-09-12T11:32:34Z</time>
      </trkpt>
      <trkpt lat="41.0369220" lon="-2.4637070">
        <ele>1187.2</ele>
        <time>2020-09-12T11:32:35Z</time>
      </trkpt>
      <trkpt lat="41.0369420" lon="-2.4635860">
        <ele>1187.2</ele>
        <time>2020-09-12T11:32:36Z</time>
      </trkpt>
      <trkpt lat="41.0369660" lon="-2.4634630">
        <ele>1187.2</ele>
        <time>2020-09-12T11:32:37Z</time>
      </trkpt>
      <trkpt lat="41.0369880" lon="-2.4633370">
        <ele>1187.2</ele>
        <time>2020-09-12T11:32:38Z</time>
      </trkpt>
      <trkpt lat="41.0370080" lon="-2.4632120">
        <ele>1187.2</ele>
        <time>2020-09-12T11:32:39Z</time>
      </trkpt>
      <trkpt lat="41.0370300" lon="-2.4630850">
        <ele>1187.0</ele>
        <time>2020-09-12T11:32:40Z</time>
      </trkpt>
      <trkpt lat="41.0370510" lon="-2.4629580">
        <ele>1187.0</ele>
        <time>2020-09-12T11:32:41Z</time>
      </trkpt>
      <trkpt lat="41.0370720" lon="-2.4628300">
        <ele>1186.8</ele>
        <time>2020-09-12T11:32:42Z</time>
      </trkpt>
      <trkpt lat="41.0370950" lon="-2.4627010">
        <ele>1186.4</ele>
        <time>2020-09-12T11:32:43Z</time>
      </trkpt>
      <trkpt lat="41.0371180" lon="-2.4625720">
        <ele>1186.0</ele>
        <time>2020-09-12T11:32:44Z</time>
      </trkpt>
      <trkpt lat="41.0371400" lon="-2.4624430">
        <ele>1185.6</ele>
        <time>2020-09-12T11:32:45Z</time>
      </trkpt>
      <trkpt lat="41.0371610" lon="-2.4623130">
        <ele>1185.4</ele>
        <time>2020-09-12T11:32:46Z</time>
      </trkpt>
      <trkpt lat="41.0371820" lon="-2.4621820">
        <ele>1185.4</ele>
        <time>2020-09-12T11:32:47Z</time>
      </trkpt>
      <trkpt lat="41.0372040" lon="-2.4620520">
        <ele>1185.2</ele>
        <time>2020-09-12T11:32:48Z</time>
      </trkpt>
      <trkpt lat="41.0372290" lon="-2.4619220">
        <ele>1185.0</ele>
        <time>2020-09-12T11:32:49Z</time>
      </trkpt>
      <trkpt lat="41.0372520" lon="-2.4617930">
        <ele>1184.8</ele>
        <time>2020-09-12T11:32:50Z</time>
      </trkpt>
      <trkpt lat="41.0372750" lon="-2.4616630">
        <ele>1184.6</ele>
        <time>2020-09-12T11:32:51Z</time>
      </trkpt>
      <trkpt lat="41.0372970" lon="-2.4615330">
        <ele>1184.4</ele>
        <time>2020-09-12T11:32:52Z</time>
      </trkpt>
      <trkpt lat="41.0373180" lon="-2.4614030">
        <ele>1184.2</ele>
        <time>2020-09-12T11:32:53Z</time>
      </trkpt>
      <trkpt lat="41.0373370" lon="-2.4612740">
        <ele>1184.0</ele>
        <time>2020-09-12T11:32:54Z</time>
      </trkpt>
      <trkpt lat="41.0373570" lon="-2.4611460">
        <ele>1183.6</ele>
        <time>2020-09-12T11:32:55Z</time>
      </trkpt>
      <trkpt lat="41.0373780" lon="-2.4610190">
        <ele>1183.4</ele>
        <time>2020-09-12T11:32:56Z</time>
      </trkpt>
      <trkpt lat="41.0373990" lon="-2.4608930">
        <ele>1183.0</ele>
        <time>2020-09-12T11:32:57Z</time>
      </trkpt>
      <trkpt lat="41.0374200" lon="-2.4607670">
        <ele>1182.6</ele>
        <time>2020-09-12T11:32:58Z</time>
      </trkpt>
      <trkpt lat="41.0374400" lon="-2.4606410">
        <ele>1182.4</ele>
        <time>2020-09-12T11:32:59Z</time>
      </trkpt>
      <trkpt lat="41.0374620" lon="-2.4605160">
        <ele>1182.2</ele>
        <time>2020-09-12T11:33:00Z</time>
      </trkpt>
      <trkpt lat="41.0374820" lon="-2.4603920">
        <ele>1182.0</ele>
        <time>2020-09-12T11:33:01Z</time>
      </trkpt>
      <trkpt lat="41.0375050" lon="-2.4602710">
        <ele>1181.8</ele>
        <time>2020-09-12T11:33:02Z</time>
      </trkpt>
      <trkpt lat="41.0375270" lon="-2.4601540">
        <ele>1181.8</ele>
        <time>2020-09-12T11:33:03Z</time>
      </trkpt>
      <trkpt lat="41.0375480" lon="-2.4600360">
        <ele>1181.8</ele>
        <time>2020-09-12T11:33:04Z</time>
      </trkpt>
      <trkpt lat="41.0375640" lon="-2.4599160">
        <ele>1181.8</ele>
        <time>2020-09-12T11:33:05Z</time>
      </trkpt>
      <trkpt lat="41.0375770" lon="-2.4597950">
        <ele>1181.6</ele>
        <time>2020-09-12T11:33:06Z</time>
      </trkpt>
      <trkpt lat="41.0375920" lon="-2.4596760">
        <ele>1181.6</ele>
        <time>2020-09-12T11:33:07Z</time>
      </trkpt>
      <trkpt lat="41.0376110" lon="-2.4595600">
        <ele>1181.4</ele>
        <time>2020-09-12T11:33:08Z</time>
      </trkpt>
      <trkpt lat="41.0376310" lon="-2.4594460">
        <ele>1181.4</ele>
        <time>2020-09-12T11:33:09Z</time>
      </trkpt>
      <trkpt lat="41.0376510" lon="-2.4593320">
        <ele>1181.2</ele>
        <time>2020-09-12T11:33:10Z</time>
      </trkpt>
      <trkpt lat="41.0376700" lon="-2.4592200">
        <ele>1181.0</ele>
        <time>2020-09-12T11:33:11Z</time>
      </trkpt>
      <trkpt lat="41.0376880" lon="-2.4591120">
        <ele>1181.0</ele>
        <time>2020-09-12T11:33:12Z</time>
      </trkpt>
      <trkpt lat="41.0377050" lon="-2.4590060">
        <ele>1180.8</ele>
        <time>2020-09-12T11:33:13Z</time>
      </trkpt>
      <trkpt lat="41.0377220" lon="-2.4589020">
        <ele>1181.0</ele>
        <time>2020-09-12T11:33:14Z</time>
      </trkpt>
      <trkpt lat="41.0377390" lon="-2.4588000">
        <ele>1181.0</ele>
        <time>2020-09-12T11:33:15Z</time>
      </trkpt>
      <trkpt lat="41.0377560" lon="-2.4587010">
        <ele>1181.2</ele>
        <time>2020-09-12T11:33:16Z</time>
      </trkpt>
      <trkpt lat="41.0377730" lon="-2.4586050">
        <ele>1181.4</ele>
        <time>2020-09-12T11:33:17Z</time>
      </trkpt>
      <trkpt lat="41.0377890" lon="-2.4585120">
        <ele>1181.6</ele>
        <time>2020-09-12T11:33:18Z</time>
      </trkpt>
      <trkpt lat="41.0378060" lon="-2.4584220">
        <ele>1181.8</ele>
        <time>2020-09-12T11:33:19Z</time>
      </trkpt>
      <trkpt lat="41.0378230" lon="-2.4583330">
        <ele>1181.8</ele>
        <time>2020-09-12T11:33:20Z</time>
      </trkpt>
      <trkpt lat="41.0378400" lon="-2.4582460">
        <ele>1182.2</ele>
        <time>2020-09-12T11:33:21Z</time>
      </trkpt>
      <trkpt lat="41.0378550" lon="-2.4581610">
        <ele>1182.4</ele>
        <time>2020-09-12T11:33:22Z</time>
      </trkpt>
      <trkpt lat="41.0378690" lon="-2.4580760">
        <ele>1182.8</ele>
        <time>2020-09-12T11:33:23Z</time>
      </trkpt>
      <trkpt lat="41.0378820" lon="-2.4579920">
        <ele>1183.0</ele>
        <time>2020-09-12T11:33:24Z</time>
      </trkpt>
      <trkpt lat="41.0378960" lon="-2.4579110">
        <ele>1183.2</ele>
        <time>2020-09-12T11:33:25Z</time>
      </trkpt>
      <trkpt lat="41.0379100" lon="-2.4578300">
        <ele>1183.6</ele>
        <time>2020-09-12T11:33:26Z</time>
      </trkpt>
      <trkpt lat="41.0379230" lon="-2.4577530">
        <ele>1183.8</ele>
        <time>2020-09-12T11:33:27Z</time>
      </trkpt>
      <trkpt lat="41.0379340" lon="-2.4576790">
        <ele>1184.2</ele>
        <time>2020-09-12T11:33:28Z</time>
      </trkpt>
      <trkpt lat="41.0379460" lon="-2.4576060">
        <ele>1184.6</ele>
        <time>2020-09-12T11:33:29Z</time>
      </trkpt>
      <trkpt lat="41.0379570" lon="-2.4575330">
        <ele>1185.0</ele>
        <time>2020-09-12T11:33:30Z</time>
      </trkpt>
      <trkpt lat="41.0379690" lon="-2.4574590">
        <ele>1185.4</ele>
        <time>2020-09-12T11:33:31Z</time>
      </trkpt>
      <trkpt lat="41.0379820" lon="-2.4573850">
        <ele>1185.8</ele>
        <time>2020-09-12T11:33:32Z</time>
      </trkpt>
      <trkpt lat="41.0379950" lon="-2.4573110">
        <ele>1186.0</ele>
        <time>2020-09-12T11:33:33Z</time>
      </trkpt>
      <trkpt lat="41.0380060" lon="-2.4572370">
        <ele>1186.2</ele>
        <time>2020-09-12T11:33:34Z</time>
      </trkpt>
      <trkpt lat="41.0380170" lon="-2.4571630">
        <ele>1186.4</ele>
        <time>2020-09-12T11:33:35Z</time>
      </trkpt>
      <trkpt lat="41.0380290" lon="-2.4570920">
        <ele>1186.6</ele>
        <time>2020-09-12T11:33:36Z</time>
      </trkpt>
      <trkpt lat="41.0380420" lon="-2.4570210">
        <ele>1186.8</ele>
        <time>2020-09-12T11:33:37Z</time>
      </trkpt>
      <trkpt lat="41.0380530" lon="-2.4569500">
        <ele>1187.2</ele>
        <time>2020-09-12T11:33:38Z</time>
      </trkpt>
      <trkpt lat="41.0380630" lon="-2.4568780">
        <ele>1187.2</ele>
        <time>2020-09-12T11:33:39Z</time>
      </trkpt>
      <trkpt lat="41.0380730" lon="-2.4568070">
        <ele>1187.4</ele>
        <time>2020-09-12T11:33:40Z</time>
      </trkpt>
      <trkpt lat="41.0380840" lon="-2.4567370">
        <ele>1187.8</ele>
        <time>2020-09-12T11:33:41Z</time>
      </trkpt>
      <trkpt lat="41.0380950" lon="-2.4566670">
        <ele>1188.0</ele>
        <time>2020-09-12T11:33:42Z</time>
      </trkpt>
      <trkpt lat="41.0381060" lon="-2.4565990">
        <ele>1188.2</ele>
        <time>2020-09-12T11:33:43Z</time>
      </trkpt>
      <trkpt lat="41.0381180" lon="-2.4565320">
        <ele>1188.4</ele>
        <time>2020-09-12T11:33:44Z</time>
      </trkpt>
      <trkpt lat="41.0381300" lon="-2.4564660">
        <ele>1188.6</ele>
        <time>2020-09-12T11:33:45Z</time>
      </trkpt>
      <trkpt lat="41.0381410" lon="-2.4564010">
        <ele>1188.8</ele>
        <time>2020-09-12T11:33:46Z</time>
      </trkpt>
      <trkpt lat="41.0381510" lon="-2.4563360">
        <ele>1189.0</ele>
        <time>2020-09-12T11:33:47Z</time>
      </trkpt>
      <trkpt lat="41.0381620" lon="-2.4562710">
        <ele>1189.2</ele>
        <time>2020-09-12T11:33:48Z</time>
      </trkpt>
      <trkpt lat="41.0381720" lon="-2.4562070">
        <ele>1189.4</ele>
        <time>2020-09-12T11:33:49Z</time>
      </trkpt>
      <trkpt lat="41.0381820" lon="-2.4561420">
        <ele>1189.6</ele>
        <time>2020-09-12T11:33:50Z</time>
      </trkpt>
      <trkpt lat="41.0381920" lon="-2.4560780">
        <ele>1189.6</ele>
        <time>2020-09-12T11:33:51Z</time>
      </trkpt>
      <trkpt lat="41.0382040" lon="-2.4560120">
        <ele>1189.8</ele>
        <time>2020-09-12T11:33:52Z</time>
      </trkpt>
      <trkpt lat="41.0382150" lon="-2.4559470">
        <ele>1190.0</ele>
        <time>2020-09-12T11:33:53Z</time>
      </trkpt>
      <trkpt lat="41.0382270" lon="-2.4558860">
        <ele>1190.2</ele>
        <time>2020-09-12T11:33:54Z</time>
      </trkpt>
      <trkpt lat="41.0382390" lon="-2.4558240">
        <ele>1190.2</ele>
        <time>2020-09-12T11:33:55Z</time>
      </trkpt>
      <trkpt lat="41.0382480" lon="-2.4557610">
        <ele>1190.4</ele>
        <time>2020-09-12T11:33:56Z</time>
      </trkpt>
      <trkpt lat="41.0382550" lon="-2.4556980">
        <ele>1190.4</ele>
        <time>2020-09-12T11:33:57Z</time>
      </trkpt>
      <trkpt lat="41.0382640" lon="-2.4556370">
        <ele>1190.6</ele>
        <time>2020-09-12T11:33:58Z</time>
      </trkpt>
      <trkpt lat="41.0382750" lon="-2.4555780">
        <ele>1190.8</ele>
        <time>2020-09-12T11:33:59Z</time>
      </trkpt>
      <trkpt lat="41.0382880" lon="-2.4555190">
        <ele>1191.0</ele>
        <time>2020-09-12T11:34:00Z</time>
      </trkpt>
      <trkpt lat="41.0382990" lon="-2.4554620">
        <ele>1191.4</ele>
        <time>2020-09-12T11:34:01Z</time>
      </trkpt>
      <trkpt lat="41.0383080" lon="-2.4554040">
        <ele>1191.4</ele>
        <time>2020-09-12T11:34:02Z</time>
      </trkpt>
      <trkpt lat="41.0383160" lon="-2.4553430">
        <ele>1191.6</ele>
        <time>2020-09-12T11:34:03Z</time>
      </trkpt>
      <trkpt lat="41.0383240" lon="-2.4552820">
        <ele>1191.8</ele>
        <time>2020-09-12T11:34:04Z</time>
      </trkpt>
      <trkpt lat="41.0383330" lon="-2.4552190">
        <ele>1191.8</ele>
        <time>2020-09-12T11:34:05Z</time>
      </trkpt>
      <trkpt lat="41.0383450" lon="-2.4551540">
        <ele>1192.0</ele>
        <time>2020-09-12T11:34:06Z</time>
      </trkpt>
      <trkpt lat="41.0383570" lon="-2.4550890">
        <ele>1192.0</ele>
        <time>2020-09-12T11:34:07Z</time>
      </trkpt>
      <trkpt lat="41.0383700" lon="-2.4550240">
        <ele>1192.0</ele>
        <time>2020-09-12T11:34:08Z</time>
      </trkpt>
      <trkpt lat="41.0383770" lon="-2.4549560">
        <ele>1192.0</ele>
        <time>2020-09-12T11:34:09Z</time>
      </trkpt>
      <trkpt lat="41.0383800" lon="-2.4548860">
        <ele>1192.2</ele>
        <time>2020-09-12T11:34:10Z</time>
      </trkpt>
      <trkpt lat="41.0383830" lon="-2.4548140">
        <ele>1192.4</ele>
        <time>2020-09-12T11:34:11Z</time>
      </trkpt>
      <trkpt lat="41.0383870" lon="-2.4547430">
        <ele>1192.6</ele>
        <time>2020-09-12T11:34:12Z</time>
      </trkpt>
      <trkpt lat="41.0383910" lon="-2.4546730">
        <ele>1192.8</ele>
        <time>2020-09-12T11:34:13Z</time>
      </trkpt>
      <trkpt lat="41.0383970" lon="-2.4546050">
        <ele>1193.2</ele>
        <time>2020-09-12T11:34:14Z</time>
      </trkpt>
      <trkpt lat="41.0384060" lon="-2.4545380">
        <ele>1193.6</ele>
        <time>2020-09-12T11:34:15Z</time>
      </trkpt>
      <trkpt lat="41.0384150" lon="-2.4544730">
        <ele>1193.8</ele>
        <time>2020-09-12T11:34:16Z</time>
      </trkpt>
      <trkpt lat="41.0384240" lon="-2.4544080">
        <ele>1193.8</ele>
        <time>2020-09-12T11:34:17Z</time>
      </trkpt>
      <trkpt lat="41.0384340" lon="-2.4543450">
        <ele>1194.0</ele>
        <time>2020-09-12T11:34:18Z</time>
      </trkpt>
      <trkpt lat="41.0384430" lon="-2.4542830">
        <ele>1194.0</ele>
        <time>2020-09-12T11:34:19Z</time>
      </trkpt>
      <trkpt lat="41.0384540" lon="-2.4542220">
        <ele>1194.2</ele>
        <time>2020-09-12T11:34:20Z</time>
      </trkpt>
      <trkpt lat="41.0384630" lon="-2.4541620">
        <ele>1194.4</ele>
        <time>2020-09-12T11:34:21Z</time>
      </trkpt>
      <trkpt lat="41.0384700" lon="-2.4541020">
        <ele>1194.4</ele>
        <time>2020-09-12T11:34:22Z</time>
      </trkpt>
      <trkpt lat="41.0384760" lon="-2.4540430">
        <ele>1194.8</ele>
        <time>2020-09-12T11:34:23Z</time>
      </trkpt>
      <trkpt lat="41.0384830" lon="-2.4539830">
        <ele>1195.0</ele>
        <time>2020-09-12T11:34:24Z</time>
      </trkpt>
      <trkpt lat="41.0384910" lon="-2.4539240">
        <ele>1195.2</ele>
        <time>2020-09-12T11:34:25Z</time>
      </trkpt>
      <trkpt lat="41.0384980" lon="-2.4538650">
        <ele>1195.4</ele>
        <time>2020-09-12T11:34:26Z</time>
      </trkpt>
      <trkpt lat="41.0385030" lon="-2.4538050">
        <ele>1195.4</ele>
        <time>2020-09-12T11:34:27Z</time>
      </trkpt>
      <trkpt lat="41.0385050" lon="-2.4537440">
        <ele>1195.6</ele>
        <time>2020-09-12T11:34:28Z</time>
      </trkpt>
      <trkpt lat="41.0385030" lon="-2.4536830">
        <ele>1195.6</ele>
        <time>2020-09-12T11:34:29Z</time>
      </trkpt>
      <trkpt lat="41.0384990" lon="-2.4536210">
        <ele>1195.8</ele>
        <time>2020-09-12T11:34:30Z</time>
      </trkpt>
      <trkpt lat="41.0384890" lon="-2.4535600">
        <ele>1195.8</ele>
        <time>2020-09-12T11:34:31Z</time>
      </trkpt>
      <trkpt lat="41.0384750" lon="-2.4534990">
        <ele>1196.0</ele>
        <time>2020-09-12T11:34:32Z</time>
      </trkpt>
      <trkpt lat="41.0384560" lon="-2.4534400">
        <ele>1196.2</ele>
        <time>2020-09-12T11:34:33Z</time>
      </trkpt>
      <trkpt lat="41.0384350" lon="-2.4533840">
        <ele>1196.6</ele>
        <time>2020-09-12T11:34:34Z</time>
      </trkpt>
      <trkpt lat="41.0384090" lon="-2.4533300">
        <ele>1196.8</ele>
        <time>2020-09-12T11:34:35Z</time>
      </trkpt>
      <trkpt lat="41.0383780" lon="-2.4532820">
        <ele>1197.2</ele>
        <time>2020-09-12T11:34:36Z</time>
      </trkpt>
      <trkpt lat="41.0383400" lon="-2.4532410">
        <ele>1197.4</ele>
        <time>2020-09-12T11:34:37Z</time>
      </trkpt>
      <trkpt lat="41.0382980" lon="-2.4532070">
        <ele>1197.6</ele>
        <time>2020-09-12T11:34:38Z</time>
      </trkpt>
      <trkpt lat="41.0382530" lon="-2.4531750">
        <ele>1197.8</ele>
        <time>2020-09-12T11:34:39Z</time>
      </trkpt>
      <trkpt lat="41.0382080" lon="-2.4531440">
        <ele>1198.0</ele>
        <time>2020-09-12T11:34:40Z</time>
      </trkpt>
      <trkpt lat="41.0381620" lon="-2.4531150">
        <ele>1198.2</ele>
        <time>2020-09-12T11:34:41Z</time>
      </trkpt>
      <trkpt lat="41.0381140" lon="-2.4530930">
        <ele>1198.4</ele>
        <time>2020-09-12T11:34:42Z</time>
      </trkpt>
      <trkpt lat="41.0380650" lon="-2.4530740">
        <ele>1198.4</ele>
        <time>2020-09-12T11:34:43Z</time>
      </trkpt>
      <trkpt lat="41.0380160" lon="-2.4530550">
        <ele>1198.6</ele>
        <time>2020-09-12T11:34:44Z</time>
      </trkpt>
      <trkpt lat="41.0379670" lon="-2.4530370">
        <ele>1198.8</ele>
        <time>2020-09-12T11:34:45Z</time>
      </trkpt>
      <trkpt lat="41.0379180" lon="-2.4530160">
        <ele>1199.2</ele>
        <time>2020-09-12T11:34:46Z</time>
      </trkpt>
      <trkpt lat="41.0378680" lon="-2.4529940">
        <ele>1199.4</ele>
        <time>2020-09-12T11:34:47Z</time>
      </trkpt>
      <trkpt lat="41.0378180" lon="-2.4529700">
        <ele>1199.6</ele>
        <time>2020-09-12T11:34:48Z</time>
      </trkpt>
      <trkpt lat="41.0377690" lon="-2.4529420">
        <ele>1199.8</ele>
        <time>2020-09-12T11:34:49Z</time>
      </trkpt>
      <trkpt lat="41.0377220" lon="-2.4529100">
        <ele>1199.8</ele>
        <time>2020-09-12T11:34:50Z</time>
      </trkpt>
      <trkpt lat="41.0376750" lon="-2.4528740">
        <ele>1199.8</ele>
        <time>2020-09-12T11:34:51Z</time>
      </trkpt>
      <trkpt lat="41.0376280" lon="-2.4528370">
        <ele>1200.2</ele>
        <time>2020-09-12T11:34:52Z</time>
      </trkpt>
      <trkpt lat="41.0375840" lon="-2.4527970">
        <ele>1200.4</ele>
        <time>2020-09-12T11:34:53Z</time>
      </trkpt>
      <trkpt lat="41.0375410" lon="-2.4527580">
        <ele>1200.6</ele>
        <time>2020-09-12T11:34:54Z</time>
      </trkpt>
      <trkpt lat="41.0375000" lon="-2.4527170">
        <ele>1200.8</ele>
        <time>2020-09-12T11:34:55Z</time>
      </trkpt>
      <trkpt lat="41.0374600" lon="-2.4526730">
        <ele>1201.0</ele>
        <time>2020-09-12T11:34:56Z</time>
      </trkpt>
      <trkpt lat="41.0374210" lon="-2.4526250">
        <ele>1201.2</ele>
        <time>2020-09-12T11:34:57Z</time>
      </trkpt>
      <trkpt lat="41.0373840" lon="-2.4525750">
        <ele>1201.2</ele>
        <time>2020-09-12T11:34:58Z</time>
      </trkpt>
      <trkpt lat="41.0373480" lon="-2.4525200">
        <ele>1201.4</ele>
        <time>2020-09-12T11:34:59Z</time>
      </trkpt>
      <trkpt lat="41.0373140" lon="-2.4524630">
        <ele>1201.4</ele>
        <time>2020-09-12T11:35:00Z</time>
      </trkpt>
      <trkpt lat="41.0372810" lon="-2.4524030">
        <ele>1201.4</ele>
        <time>2020-09-12T11:35:01Z</time>
      </trkpt>
      <trkpt lat="41.0372510" lon="-2.4523400">
        <ele>1201.4</ele>
        <time>2020-09-12T11:35:02Z</time>
      </trkpt>
      <trkpt lat="41.0372220" lon="-2.4522750">
        <ele>1201.4</ele>
        <time>2020-09-12T11:35:03Z</time>
      </trkpt>
      <trkpt lat="41.0371960" lon="-2.4522060">
        <ele>1201.4</ele>
        <time>2020-09-12T11:35:04Z</time>
      </trkpt>
      <trkpt lat="41.0371730" lon="-2.4521330">
        <ele>1201.4</ele>
        <time>2020-09-12T11:35:05Z</time>
      </trkpt>
      <trkpt lat="41.0371510" lon="-2.4520550">
        <ele>1201.2</ele>
        <time>2020-09-12T11:35:06Z</time>
      </trkpt>
      <trkpt lat="41.0371300" lon="-2.4519740">
        <ele>1201.4</ele>
        <time>2020-09-12T11:35:07Z</time>
      </trkpt>
      <trkpt lat="41.0371120" lon="-2.4518860">
        <ele>1201.4</ele>
        <time>2020-09-12T11:35:08Z</time>
      </trkpt>
      <trkpt lat="41.0371000" lon="-2.4517930">
        <ele>1201.4</ele>
        <time>2020-09-12T11:35:09Z</time>
      </trkpt>
      <trkpt lat="41.0370920" lon="-2.4516960">
        <ele>1201.4</ele>
        <time>2020-09-12T11:35:10Z</time>
      </trkpt>
      <trkpt lat="41.0370880" lon="-2.4515960">
        <ele>1201.4</ele>
        <time>2020-09-12T11:35:11Z</time>
      </trkpt>
      <trkpt lat="41.0370900" lon="-2.4514920">
        <ele>1201.2</ele>
        <time>2020-09-12T11:35:12Z</time>
      </trkpt>
      <trkpt lat="41.0370960" lon="-2.4513860">
        <ele>1201.0</ele>
        <time>2020-09-12T11:35:13Z</time>
      </trkpt>
      <trkpt lat="41.0371070" lon="-2.4512740">
        <ele>1201.0</ele>
        <time>2020-09-12T11:35:14Z</time>
      </trkpt>
      <trkpt lat="41.0371240" lon="-2.4511590">
        <ele>1200.8</ele>
        <time>2020-09-12T11:35:15Z</time>
      </trkpt>
      <trkpt lat="41.0371490" lon="-2.4510410">
        <ele>1200.4</ele>
        <time>2020-09-12T11:35:16Z</time>
      </trkpt>
      <trkpt lat="41.0371850" lon="-2.4509240">
        <ele>1200.2</ele>
        <time>2020-09-12T11:35:17Z</time>
      </trkpt>
      <trkpt lat="41.0372310" lon="-2.4508080">
        <ele>1199.8</ele>
        <time>2020-09-12T11:35:18Z</time>
      </trkpt>
      <trkpt lat="41.0372840" lon="-2.4506920">
        <ele>1199.4</ele>
        <time>2020-09-12T11:35:19Z</time>
      </trkpt>
      <trkpt lat="41.0373410" lon="-2.4505730">
        <ele>1199.2</ele>
        <time>2020-09-12T11:35:20Z</time>
      </trkpt>
      <trkpt lat="41.0374040" lon="-2.4504550">
        <ele>1198.8</ele>
        <time>2020-09-12T11:35:21Z</time>
      </trkpt>
      <trkpt lat="41.0374740" lon="-2.4503390">
        <ele>1198.4</ele>
        <time>2020-09-12T11:35:22Z</time>
      </trkpt>
      <trkpt lat="41.0375470" lon="-2.4502200">
        <ele>1197.8</ele>
        <time>2020-09-12T11:35:23Z</time>
      </trkpt>
      <trkpt lat="41.0376210" lon="-2.4500980">
        <ele>1197.2</ele>
        <time>2020-09-12T11:35:24Z</time>
      </trkpt>
      <trkpt lat="41.0376950" lon="-2.4499730">
        <ele>1196.6</ele>
        <time>2020-09-12T11:35:25Z</time>
      </trkpt>
      <trkpt lat="41.0377710" lon="-2.4498460">
        <ele>1196.0</ele>
        <time>2020-09-12T11:35:26Z</time>
      </trkpt>
      <trkpt lat="41.0378470" lon="-2.4497200">
        <ele>1195.4</ele>
        <time>2020-09-12T11:35:27Z</time>
      </trkpt>
      <trkpt lat="41.0379240" lon="-2.4495950">
        <ele>1195.0</ele>
        <time>2020-09-12T11:35:28Z</time>
      </trkpt>
      <trkpt lat="41.0379970" lon="-2.4494690">
        <ele>1194.8</ele>
        <time>2020-09-12T11:35:29Z</time>
      </trkpt>
      <trkpt lat="41.0380680" lon="-2.4493450">
        <ele>1194.4</ele>
        <time>2020-09-12T11:35:30Z</time>
      </trkpt>
      <trkpt lat="41.0381360" lon="-2.4492200">
        <ele>1194.4</ele>
        <time>2020-09-12T11:35:31Z</time>
      </trkpt>
      <trkpt lat="41.0381970" lon="-2.4490950">
        <ele>1194.4</ele>
        <time>2020-09-12T11:35:32Z</time>
      </trkpt>
      <trkpt lat="41.0382550" lon="-2.4489720">
        <ele>1194.4</ele>
        <time>2020-09-12T11:35:33Z</time>
      </trkpt>
      <trkpt lat="41.0383150" lon="-2.4488560">
        <ele>1194.4</ele>
        <time>2020-09-12T11:35:34Z</time>
      </trkpt>
      <trkpt lat="41.0383780" lon="-2.4487470">
        <ele>1194.2</ele>
        <time>2020-09-12T11:35:35Z</time>
      </trkpt>
      <trkpt lat="41.0384380" lon="-2.4486430">
        <ele>1194.2</ele>
        <time>2020-09-12T11:35:36Z</time>
      </trkpt>
      <trkpt lat="41.0384980" lon="-2.4485450">
        <ele>1194.2</ele>
        <time>2020-09-12T11:35:37Z</time>
      </trkpt>
      <trkpt lat="41.0385610" lon="-2.4484510">
        <ele>1194.2</ele>
        <time>2020-09-12T11:35:38Z</time>
      </trkpt>
      <trkpt lat="41.0386250" lon="-2.4483610">
        <ele>1194.2</ele>
        <time>2020-09-12T11:35:39Z</time>
      </trkpt>
      <trkpt lat="41.0386890" lon="-2.4482720">
        <ele>1194.2</ele>
        <time>2020-09-12T11:35:40Z</time>
      </trkpt>
      <trkpt lat="41.0387570" lon="-2.4481890">
        <ele>1194.4</ele>
        <time>2020-09-12T11:35:41Z</time>
      </trkpt>
      <trkpt lat="41.0388270" lon="-2.4481070">
        <ele>1194.8</ele>
        <time>2020-09-12T11:35:42Z</time>
      </trkpt>
      <trkpt lat="41.0388950" lon="-2.4480300">
        <ele>1195.0</ele>
        <time>2020-09-12T11:35:43Z</time>
      </trkpt>
      <trkpt lat="41.0389620" lon="-2.4479590">
        <ele>1195.6</ele>
        <time>2020-09-12T11:35:44Z</time>
      </trkpt>
      <trkpt lat="41.0390310" lon="-2.4478960">
        <ele>1196.2</ele>
        <time>2020-09-12T11:35:45Z</time>
      </trkpt>
      <trkpt lat="41.0390990" lon="-2.4478370">
        <ele>1196.8</ele>
        <time>2020-09-12T11:35:46Z</time>
      </trkpt>
      <trkpt lat="41.0391670" lon="-2.4477800">
        <ele>1197.0</ele>
        <time>2020-09-12T11:35:47Z</time>
      </trkpt>
      <trkpt lat="41.0392320" lon="-2.4477190">
        <ele>1197.2</ele>
        <time>2020-09-12T11:35:48Z</time>
      </trkpt>
      <trkpt lat="41.0392940" lon="-2.4476480">
        <ele>1197.4</ele>
        <time>2020-09-12T11:35:49Z</time>
      </trkpt>
      <trkpt lat="41.0393490" lon="-2.4475660">
        <ele>1197.6</ele>
        <time>2020-09-12T11:35:50Z</time>
      </trkpt>
      <trkpt lat="41.0393970" lon="-2.4474750">
        <ele>1197.6</ele>
        <time>2020-09-12T11:35:51Z</time>
      </trkpt>
      <trkpt lat="41.0394390" lon="-2.4473750">
        <ele>1197.8</ele>
        <time>2020-09-12T11:35:52Z</time>
      </trkpt>
      <trkpt lat="41.0394760" lon="-2.4472710">
        <ele>1198.0</ele>
        <time>2020-09-12T11:35:53Z</time>
      </trkpt>
      <trkpt lat="41.0395170" lon="-2.4471660">
        <ele>1198.2</ele>
        <time>2020-09-12T11:35:54Z</time>
      </trkpt>
      <trkpt lat="41.0395680" lon="-2.4470690">
        <ele>1198.2</ele>
        <time>2020-09-12T11:35:55Z</time>
      </trkpt>
      <trkpt lat="41.0396230" lon="-2.4469730">
        <ele>1198.2</ele>
        <time>2020-09-12T11:35:56Z</time>
      </trkpt>
      <trkpt lat="41.0396710" lon="-2.4468700">
        <ele>1198.0</ele>
        <time>2020-09-12T11:35:57Z</time>
      </trkpt>
      <trkpt lat="41.0397020" lon="-2.4467560">
        <ele>1198.0</ele>
        <time>2020-09-12T11:35:58Z</time>
      </trkpt>
      <trkpt lat="41.0397180" lon="-2.4466360">
        <ele>1197.8</ele>
        <time>2020-09-12T11:35:59Z</time>
      </trkpt>
      <trkpt lat="41.0397320" lon="-2.4465140">
        <ele>1197.6</ele>
        <time>2020-09-12T11:36:00Z</time>
      </trkpt>
      <trkpt lat="41.0397470" lon="-2.4463920">
        <ele>1197.4</ele>
        <time>2020-09-12T11:36:01Z</time>
      </trkpt>
      <trkpt lat="41.0397650" lon="-2.4462700">
        <ele>1197.2</ele>
        <time>2020-09-12T11:36:02Z</time>
      </trkpt>
      <trkpt lat="41.0397850" lon="-2.4461540">
        <ele>1197.0</ele>
        <time>2020-09-12T11:36:03Z</time>
      </trkpt>
      <trkpt lat="41.0398070" lon="-2.4460380">
        <ele>1196.8</ele>
        <time>2020-09-12T11:36:04Z</time>
      </trkpt>
      <trkpt lat="41.0398480" lon="-2.4458880">
        <ele>1196.6</ele>
        <time>2020-09-12T11:36:05Z</time>
      </trkpt>
      <trkpt lat="41.0398640" lon="-2.4457480">
        <ele>1196.4</ele>
        <time>2020-09-12T11:36:06Z</time>
      </trkpt>
      <trkpt lat="41.0398800" lon="-2.4456170">
        <ele>1196.0</ele>
        <time>2020-09-12T11:36:07Z</time>
      </trkpt>
      <trkpt lat="41.0399010" lon="-2.4454800">
        <ele>1195.8</ele>
        <time>2020-09-12T11:36:08Z</time>
      </trkpt>
      <trkpt lat="41.0399230" lon="-2.4453460">
        <ele>1195.6</ele>
        <time>2020-09-12T11:36:09Z</time>
      </trkpt>
      <trkpt lat="41.0399520" lon="-2.4452150">
        <ele>1195.6</ele>
        <time>2020-09-12T11:36:10Z</time>
      </trkpt>
      <trkpt lat="41.0399840" lon="-2.4450870">
        <ele>1195.6</ele>
        <time>2020-09-12T11:36:11Z</time>
      </trkpt>
      <trkpt lat="41.0400180" lon="-2.4449610">
        <ele>1195.6</ele>
        <time>2020-09-12T11:36:12Z</time>
      </trkpt>
      <trkpt lat="41.0400540" lon="-2.4448360">
        <ele>1195.4</ele>
        <time>2020-09-12T11:36:13Z</time>
      </trkpt>
      <trkpt lat="41.0400890" lon="-2.4447080">
        <ele>1195.4</ele>
        <time>2020-09-12T11:36:14Z</time>
      </trkpt>
      <trkpt lat="41.0401270" lon="-2.4445780">
        <ele>1195.2</ele>
        <time>2020-09-12T11:36:15Z</time>
      </trkpt>
      <trkpt lat="41.0401660" lon="-2.4444480">
        <ele>1195.0</ele>
        <time>2020-09-12T11:36:16Z</time>
      </trkpt>
      <trkpt lat="41.0402050" lon="-2.4443180">
        <ele>1194.8</ele>
        <time>2020-09-12T11:36:17Z</time>
      </trkpt>
      <trkpt lat="41.0402410" lon="-2.4441850">
        <ele>1194.6</ele>
        <time>2020-09-12T11:36:18Z</time>
      </trkpt>
      <trkpt lat="41.0402700" lon="-2.4440510">
        <ele>1194.2</ele>
        <time>2020-09-12T11:36:19Z</time>
      </trkpt>
      <trkpt lat="41.0402960" lon="-2.4439180">
        <ele>1194.0</ele>
        <time>2020-09-12T11:36:20Z</time>
      </trkpt>
      <trkpt lat="41.0403190" lon="-2.4437840">
        <ele>1193.8</ele>
        <time>2020-09-12T11:36:21Z</time>
      </trkpt>
      <trkpt lat="41.0403420" lon="-2.4436520">
        <ele>1193.8</ele>
        <time>2020-09-12T11:36:22Z</time>
      </trkpt>
      <trkpt lat="41.0403640" lon="-2.4435210">
        <ele>1193.6</ele>
        <time>2020-09-12T11:36:23Z</time>
      </trkpt>
      <trkpt lat="41.0403870" lon="-2.4433890">
        <ele>1193.4</ele>
        <time>2020-09-12T11:36:24Z</time>
      </trkpt>
      <trkpt lat="41.0404110" lon="-2.4432590">
        <ele>1193.2</ele>
        <time>2020-09-12T11:36:25Z</time>
      </trkpt>
      <trkpt lat="41.0404340" lon="-2.4431300">
        <ele>1193.4</ele>
        <time>2020-09-12T11:36:26Z</time>
      </trkpt>
      <trkpt lat="41.0404570" lon="-2.4430020">
        <ele>1193.2</ele>
        <time>2020-09-12T11:36:27Z</time>
      </trkpt>
      <trkpt lat="41.0404780" lon="-2.4428740">
        <ele>1193.2</ele>
        <time>2020-09-12T11:36:28Z</time>
      </trkpt>
      <trkpt lat="41.0405000" lon="-2.4427490">
        <ele>1193.0</ele>
        <time>2020-09-12T11:36:29Z</time>
      </trkpt>
      <trkpt lat="41.0405210" lon="-2.4426230">
        <ele>1193.2</ele>
        <time>2020-09-12T11:36:30Z</time>
      </trkpt>
      <trkpt lat="41.0405430" lon="-2.4424970">
        <ele>1193.2</ele>
        <time>2020-09-12T11:36:31Z</time>
      </trkpt>
      <trkpt lat="41.0405640" lon="-2.4423720">
        <ele>1193.2</ele>
        <time>2020-09-12T11:36:32Z</time>
      </trkpt>
      <trkpt lat="41.0405860" lon="-2.4422510">
        <ele>1193.2</ele>
        <time>2020-09-12T11:36:33Z</time>
      </trkpt>
      <trkpt lat="41.0406070" lon="-2.4421280">
        <ele>1193.4</ele>
        <time>2020-09-12T11:36:34Z</time>
      </trkpt>
      <trkpt lat="41.0406280" lon="-2.4420050">
        <ele>1193.4</ele>
        <time>2020-09-12T11:36:35Z</time>
      </trkpt>
      <trkpt lat="41.0406500" lon="-2.4418830">
        <ele>1193.4</ele>
        <time>2020-09-12T11:36:36Z</time>
      </trkpt>
      <trkpt lat="41.0406720" lon="-2.4417620">
        <ele>1193.4</ele>
        <time>2020-09-12T11:36:37Z</time>
      </trkpt>
      <trkpt lat="41.0406920" lon="-2.4416410">
        <ele>1193.4</ele>
        <time>2020-09-12T11:36:38Z</time>
      </trkpt>
      <trkpt lat="41.0407140" lon="-2.4415210">
        <ele>1193.6</ele>
        <time>2020-09-12T11:36:39Z</time>
      </trkpt>
      <trkpt lat="41.0407350" lon="-2.4414020">
        <ele>1193.6</ele>
        <time>2020-09-12T11:36:40Z</time>
      </trkpt>
      <trkpt lat="41.0407550" lon="-2.4412840">
        <ele>1193.6</ele>
        <time>2020-09-12T11:36:41Z</time>
      </trkpt>
      <trkpt lat="41.0407750" lon="-2.4411660">
        <ele>1193.8</ele>
        <time>2020-09-12T11:36:42Z</time>
      </trkpt>
      <trkpt lat="41.0407950" lon="-2.4410480">
        <ele>1193.8</ele>
        <time>2020-09-12T11:36:43Z</time>
      </trkpt>
      <trkpt lat="41.0408170" lon="-2.4409310">
        <ele>1194.0</ele>
        <time>2020-09-12T11:36:44Z</time>
      </trkpt>
      <trkpt lat="41.0408390" lon="-2.4408160">
        <ele>1193.8</ele>
        <time>2020-09-12T11:36:45Z</time>
      </trkpt>
      <trkpt lat="41.0408600" lon="-2.4407020">
        <ele>1193.6</ele>
        <time>2020-09-12T11:36:46Z</time>
      </trkpt>
      <trkpt lat="41.0408810" lon="-2.4405890">
        <ele>1193.6</ele>
        <time>2020-09-12T11:36:47Z</time>
      </trkpt>
      <trkpt lat="41.0409000" lon="-2.4404770">
        <ele>1193.6</ele>
        <time>2020-09-12T11:36:48Z</time>
      </trkpt>
      <trkpt lat="41.0409190" lon="-2.4403650">
        <ele>1193.6</ele>
        <time>2020-09-12T11:36:49Z</time>
      </trkpt>
      <trkpt lat="41.0409370" lon="-2.4402560">
        <ele>1193.6</ele>
        <time>2020-09-12T11:36:50Z</time>
      </trkpt>
      <trkpt lat="41.0409570" lon="-2.4401480">
        <ele>1193.8</ele>
        <time>2020-09-12T11:36:51Z</time>
      </trkpt>
      <trkpt lat="41.0409770" lon="-2.4400410">
        <ele>1193.8</ele>
        <time>2020-09-12T11:36:52Z</time>
      </trkpt>
      <trkpt lat="41.0409970" lon="-2.4399350">
        <ele>1193.8</ele>
        <time>2020-09-12T11:36:53Z</time>
      </trkpt>
      <trkpt lat="41.0410160" lon="-2.4398280">
        <ele>1194.0</ele>
        <time>2020-09-12T11:36:54Z</time>
      </trkpt>
      <trkpt lat="41.0410360" lon="-2.4397210">
        <ele>1193.8</ele>
        <time>2020-09-12T11:36:55Z</time>
      </trkpt>
      <trkpt lat="41.0410550" lon="-2.4396120">
        <ele>1193.6</ele>
        <time>2020-09-12T11:36:56Z</time>
      </trkpt>
      <trkpt lat="41.0410750" lon="-2.4395030">
        <ele>1193.4</ele>
        <time>2020-09-12T11:36:57Z</time>
      </trkpt>
      <trkpt lat="41.0410950" lon="-2.4393920">
        <ele>1193.0</ele>
        <time>2020-09-12T11:36:58Z</time>
      </trkpt>
      <trkpt lat="41.0411160" lon="-2.4392820">
        <ele>1193.0</ele>
        <time>2020-09-12T11:36:59Z</time>
      </trkpt>
      <trkpt lat="41.0411360" lon="-2.4391700">
        <ele>1192.8</ele>
        <time>2020-09-12T11:37:00Z</time>
      </trkpt>
      <trkpt lat="41.0411560" lon="-2.4390570">
        <ele>1192.8</ele>
        <time>2020-09-12T11:37:01Z</time>
      </trkpt>
      <trkpt lat="41.0411760" lon="-2.4389430">
        <ele>1192.8</ele>
        <time>2020-09-12T11:37:02Z</time>
      </trkpt>
      <trkpt lat="41.0411960" lon="-2.4388280">
        <ele>1192.8</ele>
        <time>2020-09-12T11:37:03Z</time>
      </trkpt>
      <trkpt lat="41.0412160" lon="-2.4387120">
        <ele>1193.2</ele>
        <time>2020-09-12T11:37:04Z</time>
      </trkpt>
      <trkpt lat="41.0412370" lon="-2.4385950">
        <ele>1193.6</ele>
        <time>2020-09-12T11:37:05Z</time>
      </trkpt>
      <trkpt lat="41.0412580" lon="-2.4384770">
        <ele>1193.8</ele>
        <time>2020-09-12T11:37:06Z</time>
      </trkpt>
      <trkpt lat="41.0412790" lon="-2.4383580">
        <ele>1194.0</ele>
        <time>2020-09-12T11:37:07Z</time>
      </trkpt>
      <trkpt lat="41.0413010" lon="-2.4382390">
        <ele>1194.0</ele>
        <time>2020-09-12T11:37:08Z</time>
      </trkpt>
      <trkpt lat="41.0413240" lon="-2.4381180">
        <ele>1193.8</ele>
        <time>2020-09-12T11:37:09Z</time>
      </trkpt>
      <trkpt lat="41.0413460" lon="-2.4379950">
        <ele>1193.4</ele>
        <time>2020-09-12T11:37:10Z</time>
      </trkpt>
      <trkpt lat="41.0413690" lon="-2.4378700">
        <ele>1193.0</ele>
        <time>2020-09-12T11:37:11Z</time>
      </trkpt>
      <trkpt lat="41.0413920" lon="-2.4377430">
        <ele>1192.8</ele>
        <time>2020-09-12T11:37:12Z</time>
      </trkpt>
      <trkpt lat="41.0414140" lon="-2.4376140">
        <ele>1192.6</ele>
        <time>2020-09-12T11:37:13Z</time>
      </trkpt>
      <trkpt lat="41.0414360" lon="-2.4374850">
        <ele>1192.6</ele>
        <time>2020-09-12T11:37:14Z</time>
      </trkpt>
      <trkpt lat="41.0414600" lon="-2.4373560">
        <ele>1192.6</ele>
        <time>2020-09-12T11:37:15Z</time>
      </trkpt>
      <trkpt lat="41.0414830" lon="-2.4372260">
        <ele>1192.6</ele>
        <time>2020-09-12T11:37:16Z</time>
      </trkpt>
      <trkpt lat="41.0415060" lon="-2.4370950">
        <ele>1192.6</ele>
        <time>2020-09-12T11:37:17Z</time>
      </trkpt>
      <trkpt lat="41.0415290" lon="-2.4369630">
        <ele>1192.6</ele>
        <time>2020-09-12T11:37:18Z</time>
      </trkpt>
      <trkpt lat="41.0415520" lon="-2.4368310">
        <ele>1192.6</ele>
        <time>2020-09-12T11:37:19Z</time>
      </trkpt>
      <trkpt lat="41.0415740" lon="-2.4366990">
        <ele>1192.4</ele>
        <time>2020-09-12T11:37:20Z</time>
      </trkpt>
      <trkpt lat="41.0415960" lon="-2.4365690">
        <ele>1192.4</ele>
        <time>2020-09-12T11:37:21Z</time>
      </trkpt>
      <trkpt lat="41.0416190" lon="-2.4364400">
        <ele>1192.0</ele>
        <time>2020-09-12T11:37:22Z</time>
      </trkpt>
      <trkpt lat="41.0416410" lon="-2.4363130">
        <ele>1191.8</ele>
        <time>2020-09-12T11:37:23Z</time>
      </trkpt>
      <trkpt lat="41.0416630" lon="-2.4361870">
        <ele>1191.6</ele>
        <time>2020-09-12T11:37:24Z</time>
      </trkpt>
      <trkpt lat="41.0416860" lon="-2.4360640">
        <ele>1191.0</ele>
        <time>2020-09-12T11:37:25Z</time>
      </trkpt>
      <trkpt lat="41.0417080" lon="-2.4359420">
        <ele>1190.4</ele>
        <time>2020-09-12T11:37:26Z</time>
      </trkpt>
      <trkpt lat="41.0417290" lon="-2.4358240">
        <ele>1190.0</ele>
        <time>2020-09-12T11:37:27Z</time>
      </trkpt>
      <trkpt lat="41.0417500" lon="-2.4357070">
        <ele>1189.4</ele>
        <time>2020-09-12T11:37:28Z</time>
      </trkpt>
      <trkpt lat="41.0417710" lon="-2.4355910">
        <ele>1189.2</ele>
        <time>2020-09-12T11:37:29Z</time>
      </trkpt>
      <trkpt lat="41.0417910" lon="-2.4354770">
        <ele>1189.0</ele>
        <time>2020-09-12T11:37:30Z</time>
      </trkpt>
      <trkpt lat="41.0418110" lon="-2.4353640">
        <ele>1188.8</ele>
        <time>2020-09-12T11:37:31Z</time>
      </trkpt>
      <trkpt lat="41.0418290" lon="-2.4352530">
        <ele>1188.8</ele>
        <time>2020-09-12T11:37:32Z</time>
      </trkpt>
      <trkpt lat="41.0418470" lon="-2.4351430">
        <ele>1188.6</ele>
        <time>2020-09-12T11:37:33Z</time>
      </trkpt>
      <trkpt lat="41.0418650" lon="-2.4350340">
        <ele>1188.6</ele>
        <time>2020-09-12T11:37:34Z</time>
      </trkpt>
      <trkpt lat="41.0418840" lon="-2.4349250">
        <ele>1188.6</ele>
        <time>2020-09-12T11:37:35Z</time>
      </trkpt>
      <trkpt lat="41.0419040" lon="-2.4348180">
        <ele>1188.6</ele>
        <time>2020-09-12T11:37:36Z</time>
      </trkpt>
      <trkpt lat="41.0419230" lon="-2.4347120">
        <ele>1188.6</ele>
        <time>2020-09-12T11:37:37Z</time>
      </trkpt>
      <trkpt lat="41.0419410" lon="-2.4346070">
        <ele>1188.6</ele>
        <time>2020-09-12T11:37:38Z</time>
      </trkpt>
      <trkpt lat="41.0419580" lon="-2.4345040">
        <ele>1188.6</ele>
        <time>2020-09-12T11:37:39Z</time>
      </trkpt>
      <trkpt lat="41.0419770" lon="-2.4344020">
        <ele>1188.6</ele>
        <time>2020-09-12T11:37:40Z</time>
      </trkpt>
      <trkpt lat="41.0419950" lon="-2.4343000">
        <ele>1188.6</ele>
        <time>2020-09-12T11:37:41Z</time>
      </trkpt>
      <trkpt lat="41.0420130" lon="-2.4341990">
        <ele>1188.6</ele>
        <time>2020-09-12T11:37:42Z</time>
      </trkpt>
      <trkpt lat="41.0420310" lon="-2.4340990">
        <ele>1188.6</ele>
        <time>2020-09-12T11:37:43Z</time>
      </trkpt>
      <trkpt lat="41.0420490" lon="-2.4339990">
        <ele>1188.6</ele>
        <time>2020-09-12T11:37:44Z</time>
      </trkpt>
      <trkpt lat="41.0420660" lon="-2.4338980">
        <ele>1188.6</ele>
        <time>2020-09-12T11:37:45Z</time>
      </trkpt>
      <trkpt lat="41.0420830" lon="-2.4337990">
        <ele>1188.6</ele>
        <time>2020-09-12T11:37:46Z</time>
      </trkpt>
      <trkpt lat="41.0421000" lon="-2.4337010">
        <ele>1188.6</ele>
        <time>2020-09-12T11:37:47Z</time>
      </trkpt>
      <trkpt lat="41.0421170" lon="-2.4336010">
        <ele>1188.6</ele>
        <time>2020-09-12T11:37:48Z</time>
      </trkpt>
      <trkpt lat="41.0421340" lon="-2.4335020">
        <ele>1188.6</ele>
        <time>2020-09-12T11:37:49Z</time>
      </trkpt>
      <trkpt lat="41.0421510" lon="-2.4334030">
        <ele>1188.8</ele>
        <time>2020-09-12T11:37:50Z</time>
      </trkpt>
      <trkpt lat="41.0421680" lon="-2.4333040">
        <ele>1188.8</ele>
        <time>2020-09-12T11:37:51Z</time>
      </trkpt>
      <trkpt lat="41.0421850" lon="-2.4332050">
        <ele>1188.8</ele>
        <time>2020-09-12T11:37:52Z</time>
      </trkpt>
      <trkpt lat="41.0422020" lon="-2.4331050">
        <ele>1188.8</ele>
        <time>2020-09-12T11:37:53Z</time>
      </trkpt>
      <trkpt lat="41.0422200" lon="-2.4330060">
        <ele>1188.8</ele>
        <time>2020-09-12T11:37:54Z</time>
      </trkpt>
      <trkpt lat="41.0422390" lon="-2.4329060">
        <ele>1188.8</ele>
        <time>2020-09-12T11:37:55Z</time>
      </trkpt>
      <trkpt lat="41.0422590" lon="-2.4328050">
        <ele>1188.8</ele>
        <time>2020-09-12T11:37:56Z</time>
      </trkpt>
      <trkpt lat="41.0422780" lon="-2.4327040">
        <ele>1188.8</ele>
        <time>2020-09-12T11:37:57Z</time>
      </trkpt>
      <trkpt lat="41.0422970" lon="-2.4326010">
        <ele>1188.8</ele>
        <time>2020-09-12T11:37:58Z</time>
      </trkpt>
      <trkpt lat="41.0423150" lon="-2.4324980">
        <ele>1188.8</ele>
        <time>2020-09-12T11:37:59Z</time>
      </trkpt>
      <trkpt lat="41.0423340" lon="-2.4323930">
        <ele>1188.8</ele>
        <time>2020-09-12T11:38:00Z</time>
      </trkpt>
      <trkpt lat="41.0423530" lon="-2.4322870">
        <ele>1189.0</ele>
        <time>2020-09-12T11:38:01Z</time>
      </trkpt>
      <trkpt lat="41.0423730" lon="-2.4321810">
        <ele>1189.0</ele>
        <time>2020-09-12T11:38:02Z</time>
      </trkpt>
      <trkpt lat="41.0423920" lon="-2.4320730">
        <ele>1189.2</ele>
        <time>2020-09-12T11:38:03Z</time>
      </trkpt>
      <trkpt lat="41.0424100" lon="-2.4319660">
        <ele>1189.4</ele>
        <time>2020-09-12T11:38:04Z</time>
      </trkpt>
      <trkpt lat="41.0424300" lon="-2.4318590">
        <ele>1189.6</ele>
        <time>2020-09-12T11:38:05Z</time>
      </trkpt>
      <trkpt lat="41.0424500" lon="-2.4317530">
        <ele>1189.8</ele>
        <time>2020-09-12T11:38:06Z</time>
      </trkpt>
      <trkpt lat="41.0424710" lon="-2.4316460">
        <ele>1190.0</ele>
        <time>2020-09-12T11:38:07Z</time>
      </trkpt>
      <trkpt lat="41.0424900" lon="-2.4315390">
        <ele>1190.0</ele>
        <time>2020-09-12T11:38:08Z</time>
      </trkpt>
      <trkpt lat="41.0425090" lon="-2.4314310">
        <ele>1190.2</ele>
        <time>2020-09-12T11:38:09Z</time>
      </trkpt>
      <trkpt lat="41.0425280" lon="-2.4313240">
        <ele>1190.2</ele>
        <time>2020-09-12T11:38:10Z</time>
      </trkpt>
      <trkpt lat="41.0425460" lon="-2.4312170">
        <ele>1190.2</ele>
        <time>2020-09-12T11:38:11Z</time>
      </trkpt>
      <trkpt lat="41.0425650" lon="-2.4311090">
        <ele>1190.4</ele>
        <time>2020-09-12T11:38:12Z</time>
      </trkpt>
      <trkpt lat="41.0425860" lon="-2.4310000">
        <ele>1190.6</ele>
        <time>2020-09-12T11:38:13Z</time>
      </trkpt>
      <trkpt lat="41.0426080" lon="-2.4308910">
        <ele>1190.6</ele>
        <time>2020-09-12T11:38:14Z</time>
      </trkpt>
      <trkpt lat="41.0426280" lon="-2.4307800">
        <ele>1190.6</ele>
        <time>2020-09-12T11:38:15Z</time>
      </trkpt>
      <trkpt lat="41.0426490" lon="-2.4306670">
        <ele>1190.6</ele>
        <time>2020-09-12T11:38:16Z</time>
      </trkpt>
      <trkpt lat="41.0426700" lon="-2.4305520">
        <ele>1190.8</ele>
        <time>2020-09-12T11:38:17Z</time>
      </trkpt>
      <trkpt lat="41.0426920" lon="-2.4304370">
        <ele>1190.6</ele>
        <time>2020-09-12T11:38:18Z</time>
      </trkpt>
      <trkpt lat="41.0427140" lon="-2.4303190">
        <ele>1190.6</ele>
        <time>2020-09-12T11:38:19Z</time>
      </trkpt>
      <trkpt lat="41.0427350" lon="-2.4302000">
        <ele>1190.4</ele>
        <time>2020-09-12T11:38:20Z</time>
      </trkpt>
      <trkpt lat="41.0427550" lon="-2.4300800">
        <ele>1190.2</ele>
        <time>2020-09-12T11:38:21Z</time>
      </trkpt>
      <trkpt lat="41.0427760" lon="-2.4299600">
        <ele>1190.2</ele>
        <time>2020-09-12T11:38:22Z</time>
      </trkpt>
      <trkpt lat="41.0427970" lon="-2.4298400">
        <ele>1190.0</ele>
        <time>2020-09-12T11:38:23Z</time>
      </trkpt>
      <trkpt lat="41.0428190" lon="-2.4297190">
        <ele>1189.8</ele>
        <time>2020-09-12T11:38:24Z</time>
      </trkpt>
      <trkpt lat="41.0428400" lon="-2.4295940">
        <ele>1189.4</ele>
        <time>2020-09-12T11:38:25Z</time>
      </trkpt>
      <trkpt lat="41.0428630" lon="-2.4294690">
        <ele>1188.8</ele>
        <time>2020-09-12T11:38:26Z</time>
      </trkpt>
      <trkpt lat="41.0428860" lon="-2.4293420">
        <ele>1188.6</ele>
        <time>2020-09-12T11:38:27Z</time>
      </trkpt>
      <trkpt lat="41.0429080" lon="-2.4292120">
        <ele>1188.4</ele>
        <time>2020-09-12T11:38:28Z</time>
      </trkpt>
      <trkpt lat="41.0429270" lon="-2.4290810">
        <ele>1188.0</ele>
        <time>2020-09-12T11:38:29Z</time>
      </trkpt>
      <trkpt lat="41.0429460" lon="-2.4289480">
        <ele>1187.8</ele>
        <time>2020-09-12T11:38:30Z</time>
      </trkpt>
      <trkpt lat="41.0429630" lon="-2.4288130">
        <ele>1187.4</ele>
        <time>2020-09-12T11:38:31Z</time>
      </trkpt>
      <trkpt lat="41.0429770" lon="-2.4286760">
        <ele>1187.0</ele>
        <time>2020-09-12T11:38:32Z</time>
      </trkpt>
      <trkpt lat="41.0429860" lon="-2.4285350">
        <ele>1186.6</ele>
        <time>2020-09-12T11:38:33Z</time>
      </trkpt>
      <trkpt lat="41.0429900" lon="-2.4283930">
        <ele>1186.2</ele>
        <time>2020-09-12T11:38:34Z</time>
      </trkpt>
      <trkpt lat="41.0429880" lon="-2.4282500">
        <ele>1186.0</ele>
        <time>2020-09-12T11:38:35Z</time>
      </trkpt>
      <trkpt lat="41.0429830" lon="-2.4281050">
        <ele>1185.6</ele>
        <time>2020-09-12T11:38:36Z</time>
      </trkpt>
      <trkpt lat="41.0429730" lon="-2.4279600">
        <ele>1185.2</ele>
        <time>2020-09-12T11:38:37Z</time>
      </trkpt>
      <trkpt lat="41.0429600" lon="-2.4278130">
        <ele>1184.6</ele>
        <time>2020-09-12T11:38:38Z</time>
      </trkpt>
      <trkpt lat="41.0429430" lon="-2.4276660">
        <ele>1184.2</ele>
        <time>2020-09-12T11:38:39Z</time>
      </trkpt>
      <trkpt lat="41.0429200" lon="-2.4275210">
        <ele>1183.8</ele>
        <time>2020-09-12T11:38:40Z</time>
      </trkpt>
      <trkpt lat="41.0428920" lon="-2.4273770">
        <ele>1183.4</ele>
        <time>2020-09-12T11:38:41Z</time>
      </trkpt>
      <trkpt lat="41.0428600" lon="-2.4272360">
        <ele>1183.2</ele>
        <time>2020-09-12T11:38:42Z</time>
      </trkpt>
      <trkpt lat="41.0428230" lon="-2.4270980">
        <ele>1182.8</ele>
        <time>2020-09-12T11:38:43Z</time>
      </trkpt>
      <trkpt lat="41.0427840" lon="-2.4269620">
        <ele>1182.4</ele>
        <time>2020-09-12T11:38:44Z</time>
      </trkpt>
      <trkpt lat="41.0427410" lon="-2.4268310">
        <ele>1182.2</ele>
        <time>2020-09-12T11:38:45Z</time>
      </trkpt>
      <trkpt lat="41.0426960" lon="-2.4267060">
        <ele>1182.0</ele>
        <time>2020-09-12T11:38:46Z</time>
      </trkpt>
      <trkpt lat="41.0426480" lon="-2.4265840">
        <ele>1181.6</ele>
        <time>2020-09-12T11:38:47Z</time>
      </trkpt>
      <trkpt lat="41.0426000" lon="-2.4264680">
        <ele>1181.4</ele>
        <time>2020-09-12T11:38:48Z</time>
      </trkpt>
      <trkpt lat="41.0425520" lon="-2.4263550">
        <ele>1181.4</ele>
        <time>2020-09-12T11:38:49Z</time>
      </trkpt>
      <trkpt lat="41.0425040" lon="-2.4262450">
        <ele>1181.4</ele>
        <time>2020-09-12T11:38:50Z</time>
      </trkpt>
      <trkpt lat="41.0424570" lon="-2.4261370">
        <ele>1181.4</ele>
        <time>2020-09-12T11:38:51Z</time>
      </trkpt>
      <trkpt lat="41.0424120" lon="-2.4260300">
        <ele>1181.4</ele>
        <time>2020-09-12T11:38:52Z</time>
      </trkpt>
      <trkpt lat="41.0423670" lon="-2.4259230">
        <ele>1181.4</ele>
        <time>2020-09-12T11:38:53Z</time>
      </trkpt>
      <trkpt lat="41.0423230" lon="-2.4258180">
        <ele>1181.2</ele>
        <time>2020-09-12T11:38:54Z</time>
      </trkpt>
      <trkpt lat="41.0422800" lon="-2.4257120">
        <ele>1181.2</ele>
        <time>2020-09-12T11:38:55Z</time>
      </trkpt>
      <trkpt lat="41.0422380" lon="-2.4256060">
        <ele>1181.2</ele>
        <time>2020-09-12T11:38:56Z</time>
      </trkpt>
      <trkpt lat="41.0421970" lon="-2.4255010">
        <ele>1180.8</ele>
        <time>2020-09-12T11:38:57Z</time>
      </trkpt>
      <trkpt lat="41.0421560" lon="-2.4253960">
        <ele>1180.8</ele>
        <time>2020-09-12T11:38:58Z</time>
      </trkpt>
      <trkpt lat="41.0421150" lon="-2.4252900">
        <ele>1180.8</ele>
        <time>2020-09-12T11:38:59Z</time>
      </trkpt>
      <trkpt lat="41.0420760" lon="-2.4251830">
        <ele>1180.8</ele>
        <time>2020-09-12T11:39:00Z</time>
      </trkpt>
      <trkpt lat="41.0420370" lon="-2.4250740">
        <ele>1180.8</ele>
        <time>2020-09-12T11:39:01Z</time>
      </trkpt>
      <trkpt lat="41.0419980" lon="-2.4249650">
        <ele>1180.4</ele>
        <time>2020-09-12T11:39:02Z</time>
      </trkpt>
      <trkpt lat="41.0419590" lon="-2.4248550">
        <ele>1180.4</ele>
        <time>2020-09-12T11:39:03Z</time>
      </trkpt>
      <trkpt lat="41.0419200" lon="-2.4247430">
        <ele>1180.4</ele>
        <time>2020-09-12T11:39:04Z</time>
      </trkpt>
      <trkpt lat="41.0418820" lon="-2.4246290">
        <ele>1180.0</ele>
        <time>2020-09-12T11:39:05Z</time>
      </trkpt>
      <trkpt lat="41.0418430" lon="-2.4245110">
        <ele>1179.8</ele>
        <time>2020-09-12T11:39:06Z</time>
      </trkpt>
      <trkpt lat="41.0418040" lon="-2.4243900">
        <ele>1179.4</ele>
        <time>2020-09-12T11:39:07Z</time>
      </trkpt>
      <trkpt lat="41.0417640" lon="-2.4242670">
        <ele>1179.2</ele>
        <time>2020-09-12T11:39:08Z</time>
      </trkpt>
      <trkpt lat="41.0417230" lon="-2.4241410">
        <ele>1178.8</ele>
        <time>2020-09-12T11:39:09Z</time>
      </trkpt>
      <trkpt lat="41.0416840" lon="-2.4240110">
        <ele>1178.4</ele>
        <time>2020-09-12T11:39:10Z</time>
      </trkpt>
      <trkpt lat="41.0416440" lon="-2.4238790">
        <ele>1178.2</ele>
        <time>2020-09-12T11:39:11Z</time>
      </trkpt>
      <trkpt lat="41.0416050" lon="-2.4237420">
        <ele>1177.8</ele>
        <time>2020-09-12T11:39:12Z</time>
      </trkpt>
      <trkpt lat="41.0415670" lon="-2.4236030">
        <ele>1177.8</ele>
        <time>2020-09-12T11:39:13Z</time>
      </trkpt>
      <trkpt lat="41.0415270" lon="-2.4234610">
        <ele>1177.4</ele>
        <time>2020-09-12T11:39:14Z</time>
      </trkpt>
      <trkpt lat="41.0414870" lon="-2.4233160">
        <ele>1177.0</ele>
        <time>2020-09-12T11:39:15Z</time>
      </trkpt>
      <trkpt lat="41.0414470" lon="-2.4231670">
        <ele>1176.4</ele>
        <time>2020-09-12T11:39:16Z</time>
      </trkpt>
      <trkpt lat="41.0414080" lon="-2.4230150">
        <ele>1175.8</ele>
        <time>2020-09-12T11:39:17Z</time>
      </trkpt>
      <trkpt lat="41.0413690" lon="-2.4228600">
        <ele>1175.4</ele>
        <time>2020-09-12T11:39:18Z</time>
      </trkpt>
      <trkpt lat="41.0413320" lon="-2.4227010">
        <ele>1175.0</ele>
        <time>2020-09-12T11:39:19Z</time>
      </trkpt>
      <trkpt lat="41.0412950" lon="-2.4225390">
        <ele>1174.4</ele>
        <time>2020-09-12T11:39:20Z</time>
      </trkpt>
      <trkpt lat="41.0412570" lon="-2.4223760">
        <ele>1173.8</ele>
        <time>2020-09-12T11:39:21Z</time>
      </trkpt>
      <trkpt lat="41.0412180" lon="-2.4222120">
        <ele>1173.0</ele>
        <time>2020-09-12T11:39:22Z</time>
      </trkpt>
      <trkpt lat="41.0411780" lon="-2.4220440">
        <ele>1172.2</ele>
        <time>2020-09-12T11:39:23Z</time>
      </trkpt>
      <trkpt lat="41.0411360" lon="-2.4218740">
        <ele>1171.0</ele>
        <time>2020-09-12T11:39:24Z</time>
      </trkpt>
      <trkpt lat="41.0410920" lon="-2.4217020">
        <ele>1169.8</ele>
        <time>2020-09-12T11:39:25Z</time>
      </trkpt>
      <trkpt lat="41.0410440" lon="-2.4215290">
        <ele>1169.0</ele>
        <time>2020-09-12T11:39:26Z</time>
      </trkpt>
      <trkpt lat="41.0409920" lon="-2.4213560">
        <ele>1168.6</ele>
        <time>2020-09-12T11:39:27Z</time>
      </trkpt>
      <trkpt lat="41.0409340" lon="-2.4211840">
        <ele>1168.0</ele>
        <time>2020-09-12T11:39:28Z</time>
      </trkpt>
      <trkpt lat="41.0408680" lon="-2.4210150">
        <ele>1167.6</ele>
        <time>2020-09-12T11:39:29Z</time>
      </trkpt>
      <trkpt lat="41.0407960" lon="-2.4208480">
        <ele>1167.2</ele>
        <time>2020-09-12T11:39:30Z</time>
      </trkpt>
      <trkpt lat="41.0407170" lon="-2.4206840">
        <ele>1166.6</ele>
        <time>2020-09-12T11:39:31Z</time>
      </trkpt>
      <trkpt lat="41.0406360" lon="-2.4205230">
        <ele>1166.0</ele>
        <time>2020-09-12T11:39:32Z</time>
      </trkpt>
      <trkpt lat="41.0405530" lon="-2.4203630">
        <ele>1165.6</ele>
        <time>2020-09-12T11:39:33Z</time>
      </trkpt>
      <trkpt lat="41.0404700" lon="-2.4202040">
        <ele>1165.2</ele>
        <time>2020-09-12T11:39:34Z</time>
      </trkpt>
      <trkpt lat="41.0403860" lon="-2.4200450">
        <ele>1164.8</ele>
        <time>2020-09-12T11:39:35Z</time>
      </trkpt>
      <trkpt lat="41.0403010" lon="-2.4198850">
        <ele>1164.2</ele>
        <time>2020-09-12T11:39:36Z</time>
      </trkpt>
      <trkpt lat="41.0402180" lon="-2.4197240">
        <ele>1163.6</ele>
        <time>2020-09-12T11:39:37Z</time>
      </trkpt>
      <trkpt lat="41.0401380" lon="-2.4195600">
        <ele>1162.6</ele>
        <time>2020-09-12T11:39:38Z</time>
      </trkpt>
      <trkpt lat="41.0400650" lon="-2.4193910">
        <ele>1161.2</ele>
        <time>2020-09-12T11:39:39Z</time>
      </trkpt>
      <trkpt lat="41.0399970" lon="-2.4192180">
        <ele>1160.0</ele>
        <time>2020-09-12T11:39:40Z</time>
      </trkpt>
      <trkpt lat="41.0399370" lon="-2.4190400">
        <ele>1159.2</ele>
        <time>2020-09-12T11:39:41Z</time>
      </trkpt>
      <trkpt lat="41.0398860" lon="-2.4188580">
        <ele>1158.2</ele>
        <time>2020-09-12T11:39:42Z</time>
      </trkpt>
      <trkpt lat="41.0398430" lon="-2.4186730">
        <ele>1157.2</ele>
        <time>2020-09-12T11:39:43Z</time>
      </trkpt>
      <trkpt lat="41.0398060" lon="-2.4184850">
        <ele>1156.4</ele>
        <time>2020-09-12T11:39:44Z</time>
      </trkpt>
      <trkpt lat="41.0397770" lon="-2.4182960">
        <ele>1155.6</ele>
        <time>2020-09-12T11:39:45Z</time>
      </trkpt>
      <trkpt lat="41.0397550" lon="-2.4181070">
        <ele>1155.0</ele>
        <time>2020-09-12T11:39:46Z</time>
      </trkpt>
      <trkpt lat="41.0397420" lon="-2.4179170">
        <ele>1154.2</ele>
        <time>2020-09-12T11:39:47Z</time>
      </trkpt>
      <trkpt lat="41.0397360" lon="-2.4177260">
        <ele>1153.4</ele>
        <time>2020-09-12T11:39:48Z</time>
      </trkpt>
      <trkpt lat="41.0397370" lon="-2.4175340">
        <ele>1153.0</ele>
        <time>2020-09-12T11:39:49Z</time>
      </trkpt>
      <trkpt lat="41.0397440" lon="-2.4173400">
        <ele>1152.4</ele>
        <time>2020-09-12T11:39:50Z</time>
      </trkpt>
      <trkpt lat="41.0397560" lon="-2.4171470">
        <ele>1151.8</ele>
        <time>2020-09-12T11:39:51Z</time>
      </trkpt>
      <trkpt lat="41.0397700" lon="-2.4169530">
        <ele>1151.0</ele>
        <time>2020-09-12T11:39:52Z</time>
      </trkpt>
      <trkpt lat="41.0397880" lon="-2.4167580">
        <ele>1150.2</ele>
        <time>2020-09-12T11:39:53Z</time>
      </trkpt>
      <trkpt lat="41.0398070" lon="-2.4165610">
        <ele>1149.0</ele>
        <time>2020-09-12T11:39:54Z</time>
      </trkpt>
      <trkpt lat="41.0398250" lon="-2.4163630">
        <ele>1147.8</ele>
        <time>2020-09-12T11:39:55Z</time>
      </trkpt>
      <trkpt lat="41.0398420" lon="-2.4161650">
        <ele>1146.6</ele>
        <time>2020-09-12T11:39:56Z</time>
      </trkpt>
      <trkpt lat="41.0398610" lon="-2.4159650">
        <ele>1145.4</ele>
        <time>2020-09-12T11:39:57Z</time>
      </trkpt>
      <trkpt lat="41.0398800" lon="-2.4157630">
        <ele>1144.4</ele>
        <time>2020-09-12T11:39:58Z</time>
      </trkpt>
      <trkpt lat="41.0398990" lon="-2.4155590">
        <ele>1143.0</ele>
        <time>2020-09-12T11:39:59Z</time>
      </trkpt>
      <trkpt lat="41.0399180" lon="-2.4153550">
        <ele>1142.0</ele>
        <time>2020-09-12T11:40:00Z</time>
      </trkpt>
      <trkpt lat="41.0399350" lon="-2.4151520">
        <ele>1141.2</ele>
        <time>2020-09-12T11:40:01Z</time>
      </trkpt>
      <trkpt lat="41.0399500" lon="-2.4149490">
        <ele>1140.6</ele>
        <time>2020-09-12T11:40:02Z</time>
      </trkpt>
      <trkpt lat="41.0399590" lon="-2.4147470">
        <ele>1140.2</ele>
        <time>2020-09-12T11:40:03Z</time>
      </trkpt>
      <trkpt lat="41.0399600" lon="-2.4145470">
        <ele>1139.8</ele>
        <time>2020-09-12T11:40:04Z</time>
      </trkpt>
      <trkpt lat="41.0399510" lon="-2.4143500">
        <ele>1139.6</ele>
        <time>2020-09-12T11:40:05Z</time>
      </trkpt>
      <trkpt lat="41.0399340" lon="-2.4141580">
        <ele>1139.4</ele>
        <time>2020-09-12T11:40:06Z</time>
      </trkpt>
      <trkpt lat="41.0399100" lon="-2.4139690">
        <ele>1139.0</ele>
        <time>2020-09-12T11:40:07Z</time>
      </trkpt>
      <trkpt lat="41.0398820" lon="-2.4137830">
        <ele>1138.6</ele>
        <time>2020-09-12T11:40:08Z</time>
      </trkpt>
      <trkpt lat="41.0398510" lon="-2.4136000">
        <ele>1138.2</ele>
        <time>2020-09-12T11:40:09Z</time>
      </trkpt>
      <trkpt lat="41.0398210" lon="-2.4134190">
        <ele>1137.6</ele>
        <time>2020-09-12T11:40:10Z</time>
      </trkpt>
      <trkpt lat="41.0397910" lon="-2.4132410">
        <ele>1137.4</ele>
        <time>2020-09-12T11:40:11Z</time>
      </trkpt>
      <trkpt lat="41.0397610" lon="-2.4130650">
        <ele>1137.0</ele>
        <time>2020-09-12T11:40:12Z</time>
      </trkpt>
      <trkpt lat="41.0397320" lon="-2.4128920">
        <ele>1136.6</ele>
        <time>2020-09-12T11:40:13Z</time>
      </trkpt>
      <trkpt lat="41.0397020" lon="-2.4127210">
        <ele>1136.2</ele>
        <time>2020-09-12T11:40:14Z</time>
      </trkpt>
      <trkpt lat="41.0396710" lon="-2.4125520">
        <ele>1135.8</ele>
        <time>2020-09-12T11:40:15Z</time>
      </trkpt>
      <trkpt lat="41.0396420" lon="-2.4123850">
        <ele>1135.2</ele>
        <time>2020-09-12T11:40:16Z</time>
      </trkpt>
      <trkpt lat="41.0396130" lon="-2.4122200">
        <ele>1134.8</ele>
        <time>2020-09-12T11:40:17Z</time>
      </trkpt>
      <trkpt lat="41.0395840" lon="-2.4120550">
        <ele>1134.6</ele>
        <time>2020-09-12T11:40:18Z</time>
      </trkpt>
      <trkpt lat="41.0395580" lon="-2.4118920">
        <ele>1134.4</ele>
        <time>2020-09-12T11:40:19Z</time>
      </trkpt>
      <trkpt lat="41.0395330" lon="-2.4117300">
        <ele>1134.0</ele>
        <time>2020-09-12T11:40:20Z</time>
      </trkpt>
      <trkpt lat="41.0395110" lon="-2.4115710">
        <ele>1133.8</ele>
        <time>2020-09-12T11:40:21Z</time>
      </trkpt>
      <trkpt lat="41.0394930" lon="-2.4114140">
        <ele>1133.6</ele>
        <time>2020-09-12T11:40:22Z</time>
      </trkpt>
      <trkpt lat="41.0394800" lon="-2.4112560">
        <ele>1133.4</ele>
        <time>2020-09-12T11:40:23Z</time>
      </trkpt>
      <trkpt lat="41.0394710" lon="-2.4111000">
        <ele>1133.2</ele>
        <time>2020-09-12T11:40:24Z</time>
      </trkpt>
      <trkpt lat="41.0394670" lon="-2.4109450">
        <ele>1133.0</ele>
        <time>2020-09-12T11:40:25Z</time>
      </trkpt>
      <trkpt lat="41.0394670" lon="-2.4107910">
        <ele>1132.6</ele>
        <time>2020-09-12T11:40:26Z</time>
      </trkpt>
      <trkpt lat="41.0394740" lon="-2.4106390">
        <ele>1132.6</ele>
        <time>2020-09-12T11:40:27Z</time>
      </trkpt>
      <trkpt lat="41.0394850" lon="-2.4104880">
        <ele>1132.2</ele>
        <time>2020-09-12T11:40:28Z</time>
      </trkpt>
      <trkpt lat="41.0395010" lon="-2.4103380">
        <ele>1131.8</ele>
        <time>2020-09-12T11:40:29Z</time>
      </trkpt>
      <trkpt lat="41.0395220" lon="-2.4101880">
        <ele>1131.4</ele>
        <time>2020-09-12T11:40:30Z</time>
      </trkpt>
      <trkpt lat="41.0395480" lon="-2.4100380">
        <ele>1131.2</ele>
        <time>2020-09-12T11:40:31Z</time>
      </trkpt>
      <trkpt lat="41.0395780" lon="-2.4098880">
        <ele>1130.8</ele>
        <time>2020-09-12T11:40:32Z</time>
      </trkpt>
      <trkpt lat="41.0396140" lon="-2.4097390">
        <ele>1130.2</ele>
        <time>2020-09-12T11:40:33Z</time>
      </trkpt>
      <trkpt lat="41.0396570" lon="-2.4095920">
        <ele>1129.6</ele>
        <time>2020-09-12T11:40:34Z</time>
      </trkpt>
      <trkpt lat="41.0397030" lon="-2.4094450">
        <ele>1129.4</ele>
        <time>2020-09-12T11:40:35Z</time>
      </trkpt>
      <trkpt lat="41.0397540" lon="-2.4092990">
        <ele>1129.0</ele>
        <time>2020-09-12T11:40:36Z</time>
      </trkpt>
      <trkpt lat="41.0398110" lon="-2.4091560">
        <ele>1128.6</ele>
        <time>2020-09-12T11:40:37Z</time>
      </trkpt>
      <trkpt lat="41.0398740" lon="-2.4090150">
        <ele>1128.2</ele>
        <time>2020-09-12T11:40:38Z</time>
      </trkpt>
      <trkpt lat="41.0399450" lon="-2.4088780">
        <ele>1127.8</ele>
        <time>2020-09-12T11:40:39Z</time>
      </trkpt>
      <trkpt lat="41.0400210" lon="-2.4087450">
        <ele>1127.2</ele>
        <time>2020-09-12T11:40:40Z</time>
      </trkpt>
      <trkpt lat="41.0400980" lon="-2.4086130">
        <ele>1126.8</ele>
        <time>2020-09-12T11:40:41Z</time>
      </trkpt>
      <trkpt lat="41.0401760" lon="-2.4084820">
        <ele>1126.2</ele>
        <time>2020-09-12T11:40:42Z</time>
      </trkpt>
      <trkpt lat="41.0402540" lon="-2.4083520">
        <ele>1125.8</ele>
        <time>2020-09-12T11:40:43Z</time>
      </trkpt>
      <trkpt lat="41.0403320" lon="-2.4082230">
        <ele>1125.0</ele>
        <time>2020-09-12T11:40:44Z</time>
      </trkpt>
      <trkpt lat="41.0404090" lon="-2.4080940">
        <ele>1124.2</ele>
        <time>2020-09-12T11:40:45Z</time>
      </trkpt>
      <trkpt lat="41.0404870" lon="-2.4079650">
        <ele>1123.6</ele>
        <time>2020-09-12T11:40:46Z</time>
      </trkpt>
      <trkpt lat="41.0405640" lon="-2.4078360">
        <ele>1123.0</ele>
        <time>2020-09-12T11:40:47Z</time>
      </trkpt>
      <trkpt lat="41.0406430" lon="-2.4077090">
        <ele>1122.2</ele>
        <time>2020-09-12T11:40:48Z</time>
      </trkpt>
      <trkpt lat="41.0407230" lon="-2.4075830">
        <ele>1121.6</ele>
        <time>2020-09-12T11:40:49Z</time>
      </trkpt>
      <trkpt lat="41.0408030" lon="-2.4074580">
        <ele>1121.0</ele>
        <time>2020-09-12T11:40:50Z</time>
      </trkpt>
      <trkpt lat="41.0408830" lon="-2.4073330">
        <ele>1120.4</ele>
        <time>2020-09-12T11:40:51Z</time>
      </trkpt>
      <trkpt lat="41.0409610" lon="-2.4072070">
        <ele>1120.0</ele>
        <time>2020-09-12T11:40:52Z</time>
      </trkpt>
      <trkpt lat="41.0410390" lon="-2.4070840">
        <ele>1119.6</ele>
        <time>2020-09-12T11:40:53Z</time>
      </trkpt>
      <trkpt lat="41.0411150" lon="-2.4069610">
        <ele>1119.6</ele>
        <time>2020-09-12T11:40:54Z</time>
      </trkpt>
      <trkpt lat="41.0411900" lon="-2.4068400">
        <ele>1119.2</ele>
        <time>2020-09-12T11:40:55Z</time>
      </trkpt>
      <trkpt lat="41.0412640" lon="-2.4067210">
        <ele>1118.8</ele>
        <time>2020-09-12T11:40:56Z</time>
      </trkpt>
      <trkpt lat="41.0413370" lon="-2.4066040">
        <ele>1118.4</ele>
        <time>2020-09-12T11:40:57Z</time>
      </trkpt>
      <trkpt lat="41.0414080" lon="-2.4064880">
        <ele>1118.0</ele>
        <time>2020-09-12T11:40:58Z</time>
      </trkpt>
      <trkpt lat="41.0414780" lon="-2.4063730">
        <ele>1117.6</ele>
        <time>2020-09-12T11:40:59Z</time>
      </trkpt>
      <trkpt lat="41.0415480" lon="-2.4062600">
        <ele>1117.2</ele>
        <time>2020-09-12T11:41:00Z</time>
      </trkpt>
      <trkpt lat="41.0416170" lon="-2.4061490">
        <ele>1116.8</ele>
        <time>2020-09-12T11:41:01Z</time>
      </trkpt>
      <trkpt lat="41.0416860" lon="-2.4060380">
        <ele>1116.2</ele>
        <time>2020-09-12T11:41:02Z</time>
      </trkpt>
      <trkpt lat="41.0417540" lon="-2.4059290">
        <ele>1116.0</ele>
        <time>2020-09-12T11:41:03Z</time>
      </trkpt>
      <trkpt lat="41.0418220" lon="-2.4058200">
        <ele>1115.6</ele>
        <time>2020-09-12T11:41:04Z</time>
      </trkpt>
      <trkpt lat="41.0418890" lon="-2.4057130">
        <ele>1115.0</ele>
        <time>2020-09-12T11:41:05Z</time>
      </trkpt>
      <trkpt lat="41.0419550" lon="-2.4056060">
        <ele>1114.8</ele>
        <time>2020-09-12T11:41:06Z</time>
      </trkpt>
      <trkpt lat="41.0420210" lon="-2.4055010">
        <ele>1114.4</ele>
        <time>2020-09-12T11:41:07Z</time>
      </trkpt>
      <trkpt lat="41.0420860" lon="-2.4053960">
        <ele>1114.2</ele>
        <time>2020-09-12T11:41:08Z</time>
      </trkpt>
      <trkpt lat="41.0421500" lon="-2.4052920">
        <ele>1114.0</ele>
        <time>2020-09-12T11:41:09Z</time>
      </trkpt>
      <trkpt lat="41.0422150" lon="-2.4051890">
        <ele>1113.8</ele>
        <time>2020-09-12T11:41:10Z</time>
      </trkpt>
      <trkpt lat="41.0422780" lon="-2.4050860">
        <ele>1113.6</ele>
        <time>2020-09-12T11:41:11Z</time>
      </trkpt>
      <trkpt lat="41.0423410" lon="-2.4049840">
        <ele>1113.6</ele>
        <time>2020-09-12T11:41:12Z</time>
      </trkpt>
      <trkpt lat="41.0424040" lon="-2.4048840">
        <ele>1113.4</ele>
        <time>2020-09-12T11:41:13Z</time>
      </trkpt>
      <trkpt lat="41.0424650" lon="-2.4047850">
        <ele>1113.4</ele>
        <time>2020-09-12T11:41:14Z</time>
      </trkpt>
      <trkpt lat="41.0425260" lon="-2.4046860">
        <ele>1113.2</ele>
        <time>2020-09-12T11:41:15Z</time>
      </trkpt>
      <trkpt lat="41.0425850" lon="-2.4045880">
        <ele>1113.0</ele>
        <time>2020-09-12T11:41:16Z</time>
      </trkpt>
      <trkpt lat="41.0426440" lon="-2.4044890">
        <ele>1113.0</ele>
        <time>2020-09-12T11:41:17Z</time>
      </trkpt>
      <trkpt lat="41.0427030" lon="-2.4043910">
        <ele>1112.8</ele>
        <time>2020-09-12T11:41:18Z</time>
      </trkpt>
      <trkpt lat="41.0427610" lon="-2.4042930">
        <ele>1112.8</ele>
        <time>2020-09-12T11:41:19Z</time>
      </trkpt>
      <trkpt lat="41.0428200" lon="-2.4041970">
        <ele>1112.8</ele>
        <time>2020-09-12T11:41:20Z</time>
      </trkpt>
      <trkpt lat="41.0428790" lon="-2.4041040">
        <ele>1112.8</ele>
        <time>2020-09-12T11:41:21Z</time>
      </trkpt>
      <trkpt lat="41.0429370" lon="-2.4040110">
        <ele>1112.8</ele>
        <time>2020-09-12T11:41:22Z</time>
      </trkpt>
      <trkpt lat="41.0429950" lon="-2.4039190">
        <ele>1112.6</ele>
        <time>2020-09-12T11:41:23Z</time>
      </trkpt>
      <trkpt lat="41.0430540" lon="-2.4038250">
        <ele>1112.6</ele>
        <time>2020-09-12T11:41:24Z</time>
      </trkpt>
      <trkpt lat="41.0431120" lon="-2.4037310">
        <ele>1112.6</ele>
        <time>2020-09-12T11:41:25Z</time>
      </trkpt>
      <trkpt lat="41.0431700" lon="-2.4036360">
        <ele>1112.4</ele>
        <time>2020-09-12T11:41:26Z</time>
      </trkpt>
      <trkpt lat="41.0432290" lon="-2.4035400">
        <ele>1112.2</ele>
        <time>2020-09-12T11:41:27Z</time>
      </trkpt>
      <trkpt lat="41.0432880" lon="-2.4034450">
        <ele>1112.2</ele>
        <time>2020-09-12T11:41:28Z</time>
      </trkpt>
      <trkpt lat="41.0433460" lon="-2.4033490">
        <ele>1112.0</ele>
        <time>2020-09-12T11:41:29Z</time>
      </trkpt>
      <trkpt lat="41.0434050" lon="-2.4032520">
        <ele>1112.0</ele>
        <time>2020-09-12T11:41:30Z</time>
      </trkpt>
      <trkpt lat="41.0434650" lon="-2.4031540">
        <ele>1112.0</ele>
        <time>2020-09-12T11:41:31Z</time>
      </trkpt>
      <trkpt lat="41.0435240" lon="-2.4030550">
        <ele>1112.0</ele>
        <time>2020-09-12T11:41:32Z</time>
      </trkpt>
      <trkpt lat="41.0435830" lon="-2.4029560">
        <ele>1111.8</ele>
        <time>2020-09-12T11:41:33Z</time>
      </trkpt>
      <trkpt lat="41.0436430" lon="-2.4028570">
        <ele>1111.8</ele>
        <time>2020-09-12T11:41:34Z</time>
      </trkpt>
      <trkpt lat="41.0437050" lon="-2.4027590">
        <ele>1111.8</ele>
        <time>2020-09-12T11:41:35Z</time>
      </trkpt>
      <trkpt lat="41.0437670" lon="-2.4026610">
        <ele>1111.6</ele>
        <time>2020-09-12T11:41:36Z</time>
      </trkpt>
      <trkpt lat="41.0438290" lon="-2.4025600">
        <ele>1111.0</ele>
        <time>2020-09-12T11:41:37Z</time>
      </trkpt>
      <trkpt lat="41.0438910" lon="-2.4024580">
        <ele>1110.4</ele>
        <time>2020-09-12T11:41:38Z</time>
      </trkpt>
      <trkpt lat="41.0439530" lon="-2.4023580">
        <ele>1110.0</ele>
        <time>2020-09-12T11:41:39Z</time>
      </trkpt>
      <trkpt lat="41.0440160" lon="-2.4022560">
        <ele>1109.8</ele>
        <time>2020-09-12T11:41:40Z</time>
      </trkpt>
      <trkpt lat="41.0440780" lon="-2.4021550">
        <ele>1109.6</ele>
        <time>2020-09-12T11:41:41Z</time>
      </trkpt>
      <trkpt lat="41.0441400" lon="-2.4020540">
        <ele>1109.4</ele>
        <time>2020-09-12T11:41:42Z</time>
      </trkpt>
      <trkpt lat="41.0442020" lon="-2.4019510">
        <ele>1109.2</ele>
        <time>2020-09-12T11:41:43Z</time>
      </trkpt>
      <trkpt lat="41.0442640" lon="-2.4018490">
        <ele>1108.6</ele>
        <time>2020-09-12T11:41:44Z</time>
      </trkpt>
      <trkpt lat="41.0443260" lon="-2.4017470">
        <ele>1108.0</ele>
        <time>2020-09-12T11:41:45Z</time>
      </trkpt>
      <trkpt lat="41.0443870" lon="-2.4016450">
        <ele>1107.8</ele>
        <time>2020-09-12T11:41:46Z</time>
      </trkpt>
      <trkpt lat="41.0444490" lon="-2.4015460">
        <ele>1107.6</ele>
        <time>2020-09-12T11:41:47Z</time>
      </trkpt>
      <trkpt lat="41.0445110" lon="-2.4014460">
        <ele>1107.4</ele>
        <time>2020-09-12T11:41:48Z</time>
      </trkpt>
      <trkpt lat="41.0445740" lon="-2.4013480">
        <ele>1107.4</ele>
        <time>2020-09-12T11:41:49Z</time>
      </trkpt>
      <trkpt lat="41.0446360" lon="-2.4012490">
        <ele>1107.4</ele>
        <time>2020-09-12T11:41:50Z</time>
      </trkpt>
      <trkpt lat="41.0446970" lon="-2.4011480">
        <ele>1107.4</ele>
        <time>2020-09-12T11:41:51Z</time>
      </trkpt>
      <trkpt lat="41.0447580" lon="-2.4010470">
        <ele>1107.4</ele>
        <time>2020-09-12T11:41:52Z</time>
      </trkpt>
      <trkpt lat="41.0448180" lon="-2.4009470">
        <ele>1107.4</ele>
        <time>2020-09-12T11:41:53Z</time>
      </trkpt>
      <trkpt lat="41.0448780" lon="-2.4008490">
        <ele>1107.2</ele>
        <time>2020-09-12T11:41:54Z</time>
      </trkpt>
      <trkpt lat="41.0449380" lon="-2.4007520">
        <ele>1107.0</ele>
        <time>2020-09-12T11:41:55Z</time>
      </trkpt>
      <trkpt lat="41.0449980" lon="-2.4006550">
        <ele>1107.0</ele>
        <time>2020-09-12T11:41:56Z</time>
      </trkpt>
      <trkpt lat="41.0450570" lon="-2.4005570">
        <ele>1107.2</ele>
        <time>2020-09-12T11:41:57Z</time>
      </trkpt>
      <trkpt lat="41.0451160" lon="-2.4004610">
        <ele>1107.2</ele>
        <time>2020-09-12T11:41:58Z</time>
      </trkpt>
      <trkpt lat="41.0451750" lon="-2.4003650">
        <ele>1107.2</ele>
        <time>2020-09-12T11:41:59Z</time>
      </trkpt>
      <trkpt lat="41.0452330" lon="-2.4002680">
        <ele>1107.2</ele>
        <time>2020-09-12T11:42:00Z</time>
      </trkpt>
      <trkpt lat="41.0452930" lon="-2.4001720">
        <ele>1107.2</ele>
        <time>2020-09-12T11:42:01Z</time>
      </trkpt>
      <trkpt lat="41.0453520" lon="-2.4000770">
        <ele>1107.2</ele>
        <time>2020-09-12T11:42:02Z</time>
      </trkpt>
      <trkpt lat="41.0454110" lon="-2.3999800">
        <ele>1107.0</ele>
        <time>2020-09-12T11:42:03Z</time>
      </trkpt>
      <trkpt lat="41.0454690" lon="-2.3998820">
        <ele>1107.0</ele>
        <time>2020-09-12T11:42:04Z</time>
      </trkpt>
      <trkpt lat="41.0455280" lon="-2.3997830">
        <ele>1107.0</ele>
        <time>2020-09-12T11:42:05Z</time>
      </trkpt>
      <trkpt lat="41.0455870" lon="-2.3996840">
        <ele>1107.0</ele>
        <time>2020-09-12T11:42:06Z</time>
      </trkpt>
      <trkpt lat="41.0456470" lon="-2.3995840">
        <ele>1107.0</ele>
        <time>2020-09-12T11:42:07Z</time>
      </trkpt>
      <trkpt lat="41.0457070" lon="-2.3994830">
        <ele>1106.8</ele>
        <time>2020-09-12T11:42:08Z</time>
      </trkpt>
      <trkpt lat="41.0457700" lon="-2.3993810">
        <ele>1106.8</ele>
        <time>2020-09-12T11:42:09Z</time>
      </trkpt>
      <trkpt lat="41.0458340" lon="-2.3992780">
        <ele>1106.6</ele>
        <time>2020-09-12T11:42:10Z</time>
      </trkpt>
      <trkpt lat="41.0458990" lon="-2.3991730">
        <ele>1106.4</ele>
        <time>2020-09-12T11:42:11Z</time>
      </trkpt>
      <trkpt lat="41.0459650" lon="-2.3990670">
        <ele>1106.0</ele>
        <time>2020-09-12T11:42:12Z</time>
      </trkpt>
      <trkpt lat="41.0460310" lon="-2.3989600">
        <ele>1105.4</ele>
        <time>2020-09-12T11:42:13Z</time>
      </trkpt>
      <trkpt lat="41.0460980" lon="-2.3988510">
        <ele>1105.2</ele>
        <time>2020-09-12T11:42:14Z</time>
      </trkpt>
      <trkpt lat="41.0461640" lon="-2.3987400">
        <ele>1104.8</ele>
        <time>2020-09-12T11:42:15Z</time>
      </trkpt>
      <trkpt lat="41.0462320" lon="-2.3986290">
        <ele>1104.6</ele>
        <time>2020-09-12T11:42:16Z</time>
      </trkpt>
      <trkpt lat="41.0463020" lon="-2.3985180">
        <ele>1104.2</ele>
        <time>2020-09-12T11:42:17Z</time>
      </trkpt>
      <trkpt lat="41.0463700" lon="-2.3984050">
        <ele>1104.0</ele>
        <time>2020-09-12T11:42:18Z</time>
      </trkpt>
      <trkpt lat="41.0464380" lon="-2.3982930">
        <ele>1103.6</ele>
        <time>2020-09-12T11:42:19Z</time>
      </trkpt>
      <trkpt lat="41.0465060" lon="-2.3981800">
        <ele>1103.4</ele>
        <time>2020-09-12T11:42:20Z</time>
      </trkpt>
      <trkpt lat="41.0465740" lon="-2.3980690">
        <ele>1103.2</ele>
        <time>2020-09-12T11:42:21Z</time>
      </trkpt>
      <trkpt lat="41.0466410" lon="-2.3979590">
        <ele>1103.0</ele>
        <time>2020-09-12T11:42:22Z</time>
      </trkpt>
      <trkpt lat="41.0467070" lon="-2.3978510">
        <ele>1102.8</ele>
        <time>2020-09-12T11:42:23Z</time>
      </trkpt>
      <trkpt lat="41.0467720" lon="-2.3977460">
        <ele>1102.6</ele>
        <time>2020-09-12T11:42:24Z</time>
      </trkpt>
      <trkpt lat="41.0468360" lon="-2.3976420">
        <ele>1102.6</ele>
        <time>2020-09-12T11:42:25Z</time>
      </trkpt>
      <trkpt lat="41.0468990" lon="-2.3975380">
        <ele>1102.8</ele>
        <time>2020-09-12T11:42:26Z</time>
      </trkpt>
      <trkpt lat="41.0469620" lon="-2.3974350">
        <ele>1102.8</ele>
        <time>2020-09-12T11:42:27Z</time>
      </trkpt>
      <trkpt lat="41.0470250" lon="-2.3973330">
        <ele>1102.8</ele>
        <time>2020-09-12T11:42:28Z</time>
      </trkpt>
      <trkpt lat="41.0470870" lon="-2.3972310">
        <ele>1103.0</ele>
        <time>2020-09-12T11:42:29Z</time>
      </trkpt>
      <trkpt lat="41.0471480" lon="-2.3971290">
        <ele>1102.8</ele>
        <time>2020-09-12T11:42:30Z</time>
      </trkpt>
      <trkpt lat="41.0472090" lon="-2.3970270">
        <ele>1102.8</ele>
        <time>2020-09-12T11:42:31Z</time>
      </trkpt>
      <trkpt lat="41.0472710" lon="-2.3969270">
        <ele>1102.6</ele>
        <time>2020-09-12T11:42:32Z</time>
      </trkpt>
      <trkpt lat="41.0473330" lon="-2.3968280">
        <ele>1102.2</ele>
        <time>2020-09-12T11:42:33Z</time>
      </trkpt>
      <trkpt lat="41.0473940" lon="-2.3967300">
        <ele>1102.0</ele>
        <time>2020-09-12T11:42:34Z</time>
      </trkpt>
      <trkpt lat="41.0474550" lon="-2.3966300">
        <ele>1101.8</ele>
        <time>2020-09-12T11:42:35Z</time>
      </trkpt>
      <trkpt lat="41.0475160" lon="-2.3965310">
        <ele>1101.6</ele>
        <time>2020-09-12T11:42:36Z</time>
      </trkpt>
      <trkpt lat="41.0475770" lon="-2.3964330">
        <ele>1101.6</ele>
        <time>2020-09-12T11:42:37Z</time>
      </trkpt>
      <trkpt lat="41.0476380" lon="-2.3963360">
        <ele>1101.4</ele>
        <time>2020-09-12T11:42:38Z</time>
      </trkpt>
      <trkpt lat="41.0476980" lon="-2.3962360">
        <ele>1101.2</ele>
        <time>2020-09-12T11:42:39Z</time>
      </trkpt>
      <trkpt lat="41.0477580" lon="-2.3961350">
        <ele>1101.0</ele>
        <time>2020-09-12T11:42:40Z</time>
      </trkpt>
      <trkpt lat="41.0478170" lon="-2.3960350">
        <ele>1101.0</ele>
        <time>2020-09-12T11:42:41Z</time>
      </trkpt>
      <trkpt lat="41.0478770" lon="-2.3959370">
        <ele>1101.2</ele>
        <time>2020-09-12T11:42:42Z</time>
      </trkpt>
      <trkpt lat="41.0479360" lon="-2.3958400">
        <ele>1101.0</ele>
        <time>2020-09-12T11:42:43Z</time>
      </trkpt>
      <trkpt lat="41.0479960" lon="-2.3957440">
        <ele>1101.2</ele>
        <time>2020-09-12T11:42:44Z</time>
      </trkpt>
      <trkpt lat="41.0480550" lon="-2.3956490">
        <ele>1101.2</ele>
        <time>2020-09-12T11:42:45Z</time>
      </trkpt>
      <trkpt lat="41.0481140" lon="-2.3955530">
        <ele>1101.4</ele>
        <time>2020-09-12T11:42:46Z</time>
      </trkpt>
      <trkpt lat="41.0481730" lon="-2.3954580">
        <ele>1101.2</ele>
        <time>2020-09-12T11:42:47Z</time>
      </trkpt>
      <trkpt lat="41.0482320" lon="-2.3953620">
        <ele>1101.2</ele>
        <time>2020-09-12T11:42:48Z</time>
      </trkpt>
      <trkpt lat="41.0482890" lon="-2.3952680">
        <ele>1101.0</ele>
        <time>2020-09-12T11:42:49Z</time>
      </trkpt>
      <trkpt lat="41.0483450" lon="-2.3951730">
        <ele>1100.8</ele>
        <time>2020-09-12T11:42:50Z</time>
      </trkpt>
      <trkpt lat="41.0484020" lon="-2.3950790">
        <ele>1101.0</ele>
        <time>2020-09-12T11:42:51Z</time>
      </trkpt>
      <trkpt lat="41.0484600" lon="-2.3949860">
        <ele>1101.0</ele>
        <time>2020-09-12T11:42:52Z</time>
      </trkpt>
      <trkpt lat="41.0485160" lon="-2.3948950">
        <ele>1101.2</ele>
        <time>2020-09-12T11:42:53Z</time>
      </trkpt>
      <trkpt lat="41.0485730" lon="-2.3948030">
        <ele>1101.2</ele>
        <time>2020-09-12T11:42:54Z</time>
      </trkpt>
      <trkpt lat="41.0486280" lon="-2.3947120">
        <ele>1101.4</ele>
        <time>2020-09-12T11:42:55Z</time>
      </trkpt>
      <trkpt lat="41.0486840" lon="-2.3946210">
        <ele>1101.6</ele>
        <time>2020-09-12T11:42:56Z</time>
      </trkpt>
      <trkpt lat="41.0487390" lon="-2.3945290">
        <ele>1101.8</ele>
        <time>2020-09-12T11:42:57Z</time>
      </trkpt>
      <trkpt lat="41.0487950" lon="-2.3944380">
        <ele>1102.0</ele>
        <time>2020-09-12T11:42:58Z</time>
      </trkpt>
      <trkpt lat="41.0488510" lon="-2.3943460">
        <ele>1102.2</ele>
        <time>2020-09-12T11:42:59Z</time>
      </trkpt>
      <trkpt lat="41.0489080" lon="-2.3942540">
        <ele>1102.4</ele>
        <time>2020-09-12T11:43:00Z</time>
      </trkpt>
      <trkpt lat="41.0489640" lon="-2.3941620">
        <ele>1102.4</ele>
        <time>2020-09-12T11:43:01Z</time>
      </trkpt>
      <trkpt lat="41.0490210" lon="-2.3940710">
        <ele>1102.8</ele>
        <time>2020-09-12T11:43:02Z</time>
      </trkpt>
      <trkpt lat="41.0490770" lon="-2.3939800">
        <ele>1102.8</ele>
        <time>2020-09-12T11:43:03Z</time>
      </trkpt>
      <trkpt lat="41.0491310" lon="-2.3938880">
        <ele>1103.2</ele>
        <time>2020-09-12T11:43:04Z</time>
      </trkpt>
      <trkpt lat="41.0491850" lon="-2.3937980">
        <ele>1103.4</ele>
        <time>2020-09-12T11:43:05Z</time>
      </trkpt>
      <trkpt lat="41.0492400" lon="-2.3937080">
        <ele>1103.4</ele>
        <time>2020-09-12T11:43:06Z</time>
      </trkpt>
      <trkpt lat="41.0492950" lon="-2.3936180">
        <ele>1103.0</ele>
        <time>2020-09-12T11:43:07Z</time>
      </trkpt>
      <trkpt lat="41.0493490" lon="-2.3935280">
        <ele>1102.4</ele>
        <time>2020-09-12T11:43:08Z</time>
      </trkpt>
      <trkpt lat="41.0494030" lon="-2.3934390">
        <ele>1102.0</ele>
        <time>2020-09-12T11:43:09Z</time>
      </trkpt>
      <trkpt lat="41.0494560" lon="-2.3933500">
        <ele>1101.8</ele>
        <time>2020-09-12T11:43:10Z</time>
      </trkpt>
      <trkpt lat="41.0495090" lon="-2.3932600">
        <ele>1101.8</ele>
        <time>2020-09-12T11:43:11Z</time>
      </trkpt>
      <trkpt lat="41.0495630" lon="-2.3931710">
        <ele>1101.6</ele>
        <time>2020-09-12T11:43:12Z</time>
      </trkpt>
      <trkpt lat="41.0496170" lon="-2.3930810">
        <ele>1101.4</ele>
        <time>2020-09-12T11:43:13Z</time>
      </trkpt>
      <trkpt lat="41.0496690" lon="-2.3929910">
        <ele>1101.2</ele>
        <time>2020-09-12T11:43:14Z</time>
      </trkpt>
      <trkpt lat="41.0497220" lon="-2.3929010">
        <ele>1101.0</ele>
        <time>2020-09-12T11:43:15Z</time>
      </trkpt>
      <trkpt lat="41.0497730" lon="-2.3928110">
        <ele>1100.8</ele>
        <time>2020-09-12T11:43:16Z</time>
      </trkpt>
      <trkpt lat="41.0498240" lon="-2.3927200">
        <ele>1100.8</ele>
        <time>2020-09-12T11:43:17Z</time>
      </trkpt>
      <trkpt lat="41.0498750" lon="-2.3926300">
        <ele>1100.8</ele>
        <time>2020-09-12T11:43:18Z</time>
      </trkpt>
      <trkpt lat="41.0499250" lon="-2.3925410">
        <ele>1101.0</ele>
        <time>2020-09-12T11:43:19Z</time>
      </trkpt>
      <trkpt lat="41.0499740" lon="-2.3924520">
        <ele>1101.0</ele>
        <time>2020-09-12T11:43:20Z</time>
      </trkpt>
      <trkpt lat="41.0500220" lon="-2.3923650">
        <ele>1101.0</ele>
        <time>2020-09-12T11:43:21Z</time>
      </trkpt>
      <trkpt lat="41.0500670" lon="-2.3922800">
        <ele>1101.2</ele>
        <time>2020-09-12T11:43:22Z</time>
      </trkpt>
      <trkpt lat="41.0501110" lon="-2.3921960">
        <ele>1101.2</ele>
        <time>2020-09-12T11:43:23Z</time>
      </trkpt>
      <trkpt lat="41.0501520" lon="-2.3921140">
        <ele>1101.4</ele>
        <time>2020-09-12T11:43:24Z</time>
      </trkpt>
      <trkpt lat="41.0501920" lon="-2.3920320">
        <ele>1101.4</ele>
        <time>2020-09-12T11:43:25Z</time>
      </trkpt>
      <trkpt lat="41.0502310" lon="-2.3919550">
        <ele>1101.6</ele>
        <time>2020-09-12T11:43:26Z</time>
      </trkpt>
      <trkpt lat="41.0502700" lon="-2.3918800">
        <ele>1101.8</ele>
        <time>2020-09-12T11:43:27Z</time>
      </trkpt>
      <trkpt lat="41.0503070" lon="-2.3918080">
        <ele>1102.2</ele>
        <time>2020-09-12T11:43:28Z</time>
      </trkpt>
      <trkpt lat="41.0503420" lon="-2.3917380">
        <ele>1102.6</ele>
        <time>2020-09-12T11:43:29Z</time>
      </trkpt>
      <trkpt lat="41.0503760" lon="-2.3916710">
        <ele>1102.8</ele>
        <time>2020-09-12T11:43:30Z</time>
      </trkpt>
      <trkpt lat="41.0504090" lon="-2.3916060">
        <ele>1103.0</ele>
        <time>2020-09-12T11:43:31Z</time>
      </trkpt>
      <trkpt lat="41.0504410" lon="-2.3915430">
        <ele>1103.2</ele>
        <time>2020-09-12T11:43:32Z</time>
      </trkpt>
      <trkpt lat="41.0504710" lon="-2.3914790">
        <ele>1103.4</ele>
        <time>2020-09-12T11:43:33Z</time>
      </trkpt>
      <trkpt lat="41.0505010" lon="-2.3914170">
        <ele>1103.8</ele>
        <time>2020-09-12T11:43:34Z</time>
      </trkpt>
      <trkpt lat="41.0505320" lon="-2.3913560">
        <ele>1104.0</ele>
        <time>2020-09-12T11:43:35Z</time>
      </trkpt>
      <trkpt lat="41.0505630" lon="-2.3912950">
        <ele>1104.2</ele>
        <time>2020-09-12T11:43:36Z</time>
      </trkpt>
      <trkpt lat="41.0505940" lon="-2.3912360">
        <ele>1104.6</ele>
        <time>2020-09-12T11:43:37Z</time>
      </trkpt>
      <trkpt lat="41.0506250" lon="-2.3911770">
        <ele>1104.8</ele>
        <time>2020-09-12T11:43:38Z</time>
      </trkpt>
      <trkpt lat="41.0506570" lon="-2.3911190">
        <ele>1105.2</ele>
        <time>2020-09-12T11:43:39Z</time>
      </trkpt>
      <trkpt lat="41.0506890" lon="-2.3910600">
        <ele>1105.4</ele>
        <time>2020-09-12T11:43:40Z</time>
      </trkpt>
      <trkpt lat="41.0507210" lon="-2.3909990">
        <ele>1105.6</ele>
        <time>2020-09-12T11:43:41Z</time>
      </trkpt>
      <trkpt lat="41.0507530" lon="-2.3909400">
        <ele>1105.8</ele>
        <time>2020-09-12T11:43:42Z</time>
      </trkpt>
      <trkpt lat="41.0507860" lon="-2.3908830">
        <ele>1106.2</ele>
        <time>2020-09-12T11:43:43Z</time>
      </trkpt>
      <trkpt lat="41.0508210" lon="-2.3908260">
        <ele>1106.4</ele>
        <time>2020-09-12T11:43:44Z</time>
      </trkpt>
      <trkpt lat="41.0508570" lon="-2.3907690">
        <ele>1106.8</ele>
        <time>2020-09-12T11:43:45Z</time>
      </trkpt>
      <trkpt lat="41.0508910" lon="-2.3907150">
        <ele>1107.0</ele>
        <time>2020-09-12T11:43:46Z</time>
      </trkpt>
      <trkpt lat="41.0509260" lon="-2.3906620">
        <ele>1107.2</ele>
        <time>2020-09-12T11:43:47Z</time>
      </trkpt>
      <trkpt lat="41.0509610" lon="-2.3906110">
        <ele>1107.4</ele>
        <time>2020-09-12T11:43:48Z</time>
      </trkpt>
      <trkpt lat="41.0509960" lon="-2.3905640">
        <ele>1107.6</ele>
        <time>2020-09-12T11:43:49Z</time>
      </trkpt>
      <trkpt lat="41.0510300" lon="-2.3905180">
        <ele>1108.0</ele>
        <time>2020-09-12T11:43:50Z</time>
      </trkpt>
      <trkpt lat="41.0510640" lon="-2.3904700">
        <ele>1108.4</ele>
        <time>2020-09-12T11:43:51Z</time>
      </trkpt>
      <trkpt lat="41.0511000" lon="-2.3904230">
        <ele>1108.6</ele>
        <time>2020-09-12T11:43:52Z</time>
      </trkpt>
      <trkpt lat="41.0511370" lon="-2.3903760">
        <ele>1108.8</ele>
        <time>2020-09-12T11:43:53Z</time>
      </trkpt>
      <trkpt lat="41.0511740" lon="-2.3903280">
        <ele>1109.2</ele>
        <time>2020-09-12T11:43:54Z</time>
      </trkpt>
      <trkpt lat="41.0512110" lon="-2.3902810">
        <ele>1109.6</ele>
        <time>2020-09-12T11:43:55Z</time>
      </trkpt>
      <trkpt lat="41.0512500" lon="-2.3902350">
        <ele>1109.8</ele>
        <time>2020-09-12T11:43:56Z</time>
      </trkpt>
      <trkpt lat="41.0512870" lon="-2.3901900">
        <ele>1110.0</ele>
        <time>2020-09-12T11:43:57Z</time>
      </trkpt>
      <trkpt lat="41.0513250" lon="-2.3901440">
        <ele>1110.4</ele>
        <time>2020-09-12T11:43:58Z</time>
      </trkpt>
      <trkpt lat="41.0513640" lon="-2.3900970">
        <ele>1110.6</ele>
        <time>2020-09-12T11:43:59Z</time>
      </trkpt>
      <trkpt lat="41.0514030" lon="-2.3900500">
        <ele>1110.6</ele>
        <time>2020-09-12T11:44:00Z</time>
      </trkpt>
      <trkpt lat="41.0514430" lon="-2.3900030">
        <ele>1110.8</ele>
        <time>2020-09-12T11:44:01Z</time>
      </trkpt>
      <trkpt lat="41.0514820" lon="-2.3899550">
        <ele>1111.0</ele>
        <time>2020-09-12T11:44:02Z</time>
      </trkpt>
      <trkpt lat="41.0515210" lon="-2.3899080">
        <ele>1111.0</ele>
        <time>2020-09-12T11:44:03Z</time>
      </trkpt>
      <trkpt lat="41.0515610" lon="-2.3898620">
        <ele>1111.2</ele>
        <time>2020-09-12T11:44:04Z</time>
      </trkpt>
      <trkpt lat="41.0515990" lon="-2.3898160">
        <ele>1111.2</ele>
        <time>2020-09-12T11:44:05Z</time>
      </trkpt>
      <trkpt lat="41.0516380" lon="-2.3897700">
        <ele>1111.4</ele>
        <time>2020-09-12T11:44:06Z</time>
      </trkpt>
      <trkpt lat="41.0516770" lon="-2.3897250">
        <ele>1111.8</ele>
        <time>2020-09-12T11:44:07Z</time>
      </trkpt>
      <trkpt lat="41.0517150" lon="-2.3896790">
        <ele>1111.8</ele>
        <time>2020-09-12T11:44:08Z</time>
      </trkpt>
      <trkpt lat="41.0517530" lon="-2.3896320">
        <ele>1112.0</ele>
        <time>2020-09-12T11:44:09Z</time>
      </trkpt>
      <trkpt lat="41.0517920" lon="-2.3895860">
        <ele>1112.0</ele>
        <time>2020-09-12T11:44:10Z</time>
      </trkpt>
      <trkpt lat="41.0518320" lon="-2.3895400">
        <ele>1112.2</ele>
        <time>2020-09-12T11:44:11Z</time>
      </trkpt>
      <trkpt lat="41.0518710" lon="-2.3894940">
        <ele>1112.4</ele>
        <time>2020-09-12T11:44:12Z</time>
      </trkpt>
      <trkpt lat="41.0519100" lon="-2.3894470">
        <ele>1112.6</ele>
        <time>2020-09-12T11:44:13Z</time>
      </trkpt>
      <trkpt lat="41.0519480" lon="-2.3894010">
        <ele>1112.8</ele>
        <time>2020-09-12T11:44:14Z</time>
      </trkpt>
      <trkpt lat="41.0519860" lon="-2.3893540">
        <ele>1112.8</ele>
        <time>2020-09-12T11:44:15Z</time>
      </trkpt>
      <trkpt lat="41.0520230" lon="-2.3893090">
        <ele>1113.0</ele>
        <time>2020-09-12T11:44:16Z</time>
      </trkpt>
      <trkpt lat="41.0520590" lon="-2.3892620">
        <ele>1113.2</ele>
        <time>2020-09-12T11:44:17Z</time>
      </trkpt>
      <trkpt lat="41.0520990" lon="-2.3892130">
        <ele>1113.4</ele>
        <time>2020-09-12T11:44:18Z</time>
      </trkpt>
      <trkpt lat="41.0521380" lon="-2.3891670">
        <ele>1113.6</ele>
        <time>2020-09-12T11:44:19Z</time>
      </trkpt>
      <trkpt lat="41.0521750" lon="-2.3891200">
        <ele>1113.8</ele>
        <time>2020-09-12T11:44:20Z</time>
      </trkpt>
      <trkpt lat="41.0522130" lon="-2.3890730">
        <ele>1114.2</ele>
        <time>2020-09-12T11:44:21Z</time>
      </trkpt>
      <trkpt lat="41.0522510" lon="-2.3890280">
        <ele>1114.4</ele>
        <time>2020-09-12T11:44:22Z</time>
      </trkpt>
      <trkpt lat="41.0522880" lon="-2.3889830">
        <ele>1114.6</ele>
        <time>2020-09-12T11:44:23Z</time>
      </trkpt>
      <trkpt lat="41.0523250" lon="-2.3889390">
        <ele>1114.8</ele>
        <time>2020-09-12T11:44:24Z</time>
      </trkpt>
      <trkpt lat="41.0523600" lon="-2.3888940">
        <ele>1115.2</ele>
        <time>2020-09-12T11:44:25Z</time>
      </trkpt>
      <trkpt lat="41.0523960" lon="-2.3888500">
        <ele>1115.4</ele>
        <time>2020-09-12T11:44:26Z</time>
      </trkpt>
      <trkpt lat="41.0524300" lon="-2.3888080">
        <ele>1115.6</ele>
        <time>2020-09-12T11:44:27Z</time>
      </trkpt>
      <trkpt lat="41.0524650" lon="-2.3887650">
        <ele>1116.0</ele>
        <time>2020-09-12T11:44:28Z</time>
      </trkpt>
      <trkpt lat="41.0524970" lon="-2.3887220">
        <ele>1116.2</ele>
        <time>2020-09-12T11:44:29Z</time>
      </trkpt>
      <trkpt lat="41.0525310" lon="-2.3886800">
        <ele>1116.6</ele>
        <time>2020-09-12T11:44:30Z</time>
      </trkpt>
      <trkpt lat="41.0525640" lon="-2.3886390">
        <ele>1116.8</ele>
        <time>2020-09-12T11:44:31Z</time>
      </trkpt>
      <trkpt lat="41.0525980" lon="-2.3886000">
        <ele>1117.0</ele>
        <time>2020-09-12T11:44:32Z</time>
      </trkpt>
      <trkpt lat="41.0526330" lon="-2.3885600">
        <ele>1117.2</ele>
        <time>2020-09-12T11:44:33Z</time>
      </trkpt>
      <trkpt lat="41.0526650" lon="-2.3885180">
        <ele>1117.4</ele>
        <time>2020-09-12T11:44:34Z</time>
      </trkpt>
      <trkpt lat="41.0526990" lon="-2.3884760">
        <ele>1117.6</ele>
        <time>2020-09-12T11:44:35Z</time>
      </trkpt>
      <trkpt lat="41.0527300" lon="-2.3884330">
        <ele>1118.0</ele>
        <time>2020-09-12T11:44:36Z</time>
      </trkpt>
      <trkpt lat="41.0527640" lon="-2.3883910">
        <ele>1118.2</ele>
        <time>2020-09-12T11:44:37Z</time>
      </trkpt>
      <trkpt lat="41.0527990" lon="-2.3883510">
        <ele>1118.6</ele>
        <time>2020-09-12T11:44:38Z</time>
      </trkpt>
      <trkpt lat="41.0528330" lon="-2.3883140">
        <ele>1119.0</ele>
        <time>2020-09-12T11:44:39Z</time>
      </trkpt>
      <trkpt lat="41.0528660" lon="-2.3882760">
        <ele>1119.2</ele>
        <time>2020-09-12T11:44:40Z</time>
      </trkpt>
      <trkpt lat="41.0528980" lon="-2.3882370">
        <ele>1119.4</ele>
        <time>2020-09-12T11:44:41Z</time>
      </trkpt>
      <trkpt lat="41.0529300" lon="-2.3881980">
        <ele>1119.8</ele>
        <time>2020-09-12T11:44:42Z</time>
      </trkpt>
      <trkpt lat="41.0529600" lon="-2.3881590">
        <ele>1120.2</ele>
        <time>2020-09-12T11:44:43Z</time>
      </trkpt>
      <trkpt lat="41.0529910" lon="-2.3881210">
        <ele>1120.6</ele>
        <time>2020-09-12T11:44:44Z</time>
      </trkpt>
      <trkpt lat="41.0530220" lon="-2.3880830">
        <ele>1120.8</ele>
        <time>2020-09-12T11:44:45Z</time>
      </trkpt>
      <trkpt lat="41.0530530" lon="-2.3880440">
        <ele>1121.0</ele>
        <time>2020-09-12T11:44:46Z</time>
      </trkpt>
      <trkpt lat="41.0530840" lon="-2.3880050">
        <ele>1121.2</ele>
        <time>2020-09-12T11:44:47Z</time>
      </trkpt>
      <trkpt lat="41.0531150" lon="-2.3879680">
        <ele>1121.2</ele>
        <time>2020-09-12T11:44:48Z</time>
      </trkpt>
      <trkpt lat="41.0531440" lon="-2.3879300">
        <ele>1121.4</ele>
        <time>2020-09-12T11:44:49Z</time>
      </trkpt>
      <trkpt lat="41.0531750" lon="-2.3878930">
        <ele>1121.4</ele>
        <time>2020-09-12T11:44:50Z</time>
      </trkpt>
      <trkpt lat="41.0532040" lon="-2.3878560">
        <ele>1121.8</ele>
        <time>2020-09-12T11:44:51Z</time>
      </trkpt>
      <trkpt lat="41.0532340" lon="-2.3878190">
        <ele>1122.0</ele>
        <time>2020-09-12T11:44:52Z</time>
      </trkpt>
      <trkpt lat="41.0532640" lon="-2.3877800">
        <ele>1122.2</ele>
        <time>2020-09-12T11:44:53Z</time>
      </trkpt>
      <trkpt lat="41.0532940" lon="-2.3877420">
        <ele>1122.6</ele>
        <time>2020-09-12T11:44:54Z</time>
      </trkpt>
      <trkpt lat="41.0533240" lon="-2.3877020">
        <ele>1122.8</ele>
        <time>2020-09-12T11:44:55Z</time>
      </trkpt>
      <trkpt lat="41.0533530" lon="-2.3876630">
        <ele>1123.0</ele>
        <time>2020-09-12T11:44:56Z</time>
      </trkpt>
      <trkpt lat="41.0533830" lon="-2.3876230">
        <ele>1123.0</ele>
        <time>2020-09-12T11:44:57Z</time>
      </trkpt>
      <trkpt lat="41.0534110" lon="-2.3875820">
        <ele>1123.2</ele>
        <time>2020-09-12T11:44:58Z</time>
      </trkpt>
      <trkpt lat="41.0534390" lon="-2.3875390">
        <ele>1123.4</ele>
        <time>2020-09-12T11:44:59Z</time>
      </trkpt>
      <trkpt lat="41.0534680" lon="-2.3874980">
        <ele>1123.8</ele>
        <time>2020-09-12T11:45:00Z</time>
      </trkpt>
      <trkpt lat="41.0534940" lon="-2.3874550">
        <ele>1124.0</ele>
        <time>2020-09-12T11:45:01Z</time>
      </trkpt>
      <trkpt lat="41.0535210" lon="-2.3874110">
        <ele>1124.2</ele>
        <time>2020-09-12T11:45:02Z</time>
      </trkpt>
      <trkpt lat="41.0535480" lon="-2.3873670">
        <ele>1124.2</ele>
        <time>2020-09-12T11:45:03Z</time>
      </trkpt>
      <trkpt lat="41.0535740" lon="-2.3873220">
        <ele>1124.4</ele>
        <time>2020-09-12T11:45:04Z</time>
      </trkpt>
      <trkpt lat="41.0536000" lon="-2.3872770">
        <ele>1124.6</ele>
        <time>2020-09-12T11:45:05Z</time>
      </trkpt>
      <trkpt lat="41.0536260" lon="-2.3872290">
        <ele>1124.6</ele>
        <time>2020-09-12T11:45:06Z</time>
      </trkpt>
      <trkpt lat="41.0536510" lon="-2.3871810">
        <ele>1124.8</ele>
        <time>2020-09-12T11:45:07Z</time>
      </trkpt>
      <trkpt lat="41.0536750" lon="-2.3871330">
        <ele>1125.2</ele>
        <time>2020-09-12T11:45:08Z</time>
      </trkpt>
      <trkpt lat="41.0536970" lon="-2.3870850">
        <ele>1125.6</ele>
        <time>2020-09-12T11:45:09Z</time>
      </trkpt>
      <trkpt lat="41.0537170" lon="-2.3870360">
        <ele>1125.8</ele>
        <time>2020-09-12T11:45:10Z</time>
      </trkpt>
      <trkpt lat="41.0537370" lon="-2.3869850">
        <ele>1126.0</ele>
        <time>2020-09-12T11:45:11Z</time>
      </trkpt>
      <trkpt lat="41.0537570" lon="-2.3869350">
        <ele>1126.2</ele>
        <time>2020-09-12T11:45:12Z</time>
      </trkpt>
      <trkpt lat="41.0537760" lon="-2.3868850">
        <ele>1126.4</ele>
        <time>2020-09-12T11:45:13Z</time>
      </trkpt>
      <trkpt lat="41.0537950" lon="-2.3868350">
        <ele>1126.6</ele>
        <time>2020-09-12T11:45:14Z</time>
      </trkpt>
      <trkpt lat="41.0538140" lon="-2.3867840">
        <ele>1126.8</ele>
        <time>2020-09-12T11:45:15Z</time>
      </trkpt>
      <trkpt lat="41.0538320" lon="-2.3867350">
        <ele>1127.0</ele>
        <time>2020-09-12T11:45:16Z</time>
      </trkpt>
      <trkpt lat="41.0538500" lon="-2.3866850">
        <ele>1127.2</ele>
        <time>2020-09-12T11:45:17Z</time>
      </trkpt>
      <trkpt lat="41.0538650" lon="-2.3866330">
        <ele>1127.4</ele>
        <time>2020-09-12T11:45:18Z</time>
      </trkpt>
      <trkpt lat="41.0538790" lon="-2.3865800">
        <ele>1127.6</ele>
        <time>2020-09-12T11:45:19Z</time>
      </trkpt>
      <trkpt lat="41.0538940" lon="-2.3865260">
        <ele>1127.8</ele>
        <time>2020-09-12T11:45:20Z</time>
      </trkpt>
      <trkpt lat="41.0539080" lon="-2.3864730">
        <ele>1127.8</ele>
        <time>2020-09-12T11:45:21Z</time>
      </trkpt>
      <trkpt lat="41.0539210" lon="-2.3864200">
        <ele>1128.0</ele>
        <time>2020-09-12T11:45:22Z</time>
      </trkpt>
      <trkpt lat="41.0539310" lon="-2.3863650">
        <ele>1128.2</ele>
        <time>2020-09-12T11:45:23Z</time>
      </trkpt>
      <trkpt lat="41.0539390" lon="-2.3863100">
        <ele>1128.4</ele>
        <time>2020-09-12T11:45:24Z</time>
      </trkpt>
      <trkpt lat="41.0539490" lon="-2.3862550">
        <ele>1128.6</ele>
        <time>2020-09-12T11:45:25Z</time>
      </trkpt>
      <trkpt lat="41.0539580" lon="-2.3861990">
        <ele>1128.8</ele>
        <time>2020-09-12T11:45:26Z</time>
      </trkpt>
      <trkpt lat="41.0539660" lon="-2.3861430">
        <ele>1129.0</ele>
        <time>2020-09-12T11:45:27Z</time>
      </trkpt>
      <trkpt lat="41.0539730" lon="-2.3860860">
        <ele>1129.2</ele>
        <time>2020-09-12T11:45:28Z</time>
      </trkpt>
      <trkpt lat="41.0539810" lon="-2.3860280">
        <ele>1129.4</ele>
        <time>2020-09-12T11:45:29Z</time>
      </trkpt>
      <trkpt lat="41.0539890" lon="-2.3859700">
        <ele>1129.8</ele>
        <time>2020-09-12T11:45:30Z</time>
      </trkpt>
      <trkpt lat="41.0539970" lon="-2.3859120">
        <ele>1130.2</ele>
        <time>2020-09-12T11:45:31Z</time>
      </trkpt>
      <trkpt lat="41.0540030" lon="-2.3858550">
        <ele>1130.4</ele>
        <time>2020-09-12T11:45:32Z</time>
      </trkpt>
      <trkpt lat="41.0540090" lon="-2.3857970">
        <ele>1130.6</ele>
        <time>2020-09-12T11:45:33Z</time>
      </trkpt>
      <trkpt lat="41.0540150" lon="-2.3857390">
        <ele>1130.8</ele>
        <time>2020-09-12T11:45:34Z</time>
      </trkpt>
      <trkpt lat="41.0540210" lon="-2.3856830">
        <ele>1131.0</ele>
        <time>2020-09-12T11:45:35Z</time>
      </trkpt>
      <trkpt lat="41.0540280" lon="-2.3856280">
        <ele>1131.2</ele>
        <time>2020-09-12T11:45:36Z</time>
      </trkpt>
      <trkpt lat="41.0540340" lon="-2.3855740">
        <ele>1131.4</ele>
        <time>2020-09-12T11:45:37Z</time>
      </trkpt>
      <trkpt lat="41.0540390" lon="-2.3855200">
        <ele>1131.6</ele>
        <time>2020-09-12T11:45:38Z</time>
      </trkpt>
      <trkpt lat="41.0540430" lon="-2.3854640">
        <ele>1132.0</ele>
        <time>2020-09-12T11:45:39Z</time>
      </trkpt>
      <trkpt lat="41.0540480" lon="-2.3854110">
        <ele>1132.2</ele>
        <time>2020-09-12T11:45:40Z</time>
      </trkpt>
      <trkpt lat="41.0540540" lon="-2.3853570">
        <ele>1132.4</ele>
        <time>2020-09-12T11:45:41Z</time>
      </trkpt>
      <trkpt lat="41.0540600" lon="-2.3853040">
        <ele>1132.6</ele>
        <time>2020-09-12T11:45:42Z</time>
      </trkpt>
      <trkpt lat="41.0540660" lon="-2.3852510">
        <ele>1133.0</ele>
        <time>2020-09-12T11:45:43Z</time>
      </trkpt>
      <trkpt lat="41.0540710" lon="-2.3851970">
        <ele>1133.2</ele>
        <time>2020-09-12T11:45:44Z</time>
      </trkpt>
      <trkpt lat="41.0540760" lon="-2.3851430">
        <ele>1133.6</ele>
        <time>2020-09-12T11:45:45Z</time>
      </trkpt>
      <trkpt lat="41.0540820" lon="-2.3850890">
        <ele>1133.8</ele>
        <time>2020-09-12T11:45:46Z</time>
      </trkpt>
      <trkpt lat="41.0540870" lon="-2.3850360">
        <ele>1134.0</ele>
        <time>2020-09-12T11:45:47Z</time>
      </trkpt>
      <trkpt lat="41.0540910" lon="-2.3849840">
        <ele>1134.2</ele>
        <time>2020-09-12T11:45:48Z</time>
      </trkpt>
      <trkpt lat="41.0540960" lon="-2.3849320">
        <ele>1134.6</ele>
        <time>2020-09-12T11:45:49Z</time>
      </trkpt>
      <trkpt lat="41.0541010" lon="-2.3848800">
        <ele>1134.8</ele>
        <time>2020-09-12T11:45:50Z</time>
      </trkpt>
      <trkpt lat="41.0541040" lon="-2.3848280">
        <ele>1134.8</ele>
        <time>2020-09-12T11:45:51Z</time>
      </trkpt>
      <trkpt lat="41.0541090" lon="-2.3847760">
        <ele>1135.0</ele>
        <time>2020-09-12T11:45:52Z</time>
      </trkpt>
      <trkpt lat="41.0541130" lon="-2.3847230">
        <ele>1135.4</ele>
        <time>2020-09-12T11:45:53Z</time>
      </trkpt>
      <trkpt lat="41.0541170" lon="-2.3846710">
        <ele>1135.8</ele>
        <time>2020-09-12T11:45:54Z</time>
      </trkpt>
      <trkpt lat="41.0541220" lon="-2.3846200">
        <ele>1136.0</ele>
        <time>2020-09-12T11:45:55Z</time>
      </trkpt>
      <trkpt lat="41.0541250" lon="-2.3845690">
        <ele>1136.2</ele>
        <time>2020-09-12T11:45:56Z</time>
      </trkpt>
      <trkpt lat="41.0541290" lon="-2.3845170">
        <ele>1136.4</ele>
        <time>2020-09-12T11:45:57Z</time>
      </trkpt>
      <trkpt lat="41.0541340" lon="-2.3844650">
        <ele>1136.6</ele>
        <time>2020-09-12T11:45:58Z</time>
      </trkpt>
      <trkpt lat="41.0541380" lon="-2.3844130">
        <ele>1136.8</ele>
        <time>2020-09-12T11:45:59Z</time>
      </trkpt>
      <trkpt lat="41.0541420" lon="-2.3843600">
        <ele>1137.0</ele>
        <time>2020-09-12T11:46:00Z</time>
      </trkpt>
      <trkpt lat="41.0541460" lon="-2.3843070">
        <ele>1137.2</ele>
        <time>2020-09-12T11:46:01Z</time>
      </trkpt>
      <trkpt lat="41.0541500" lon="-2.3842530">
        <ele>1137.6</ele>
        <time>2020-09-12T11:46:02Z</time>
      </trkpt>
      <trkpt lat="41.0541550" lon="-2.3841990">
        <ele>1137.8</ele>
        <time>2020-09-12T11:46:03Z</time>
      </trkpt>
      <trkpt lat="41.0541590" lon="-2.3841450">
        <ele>1138.0</ele>
        <time>2020-09-12T11:46:04Z</time>
      </trkpt>
      <trkpt lat="41.0541640" lon="-2.3840910">
        <ele>1138.2</ele>
        <time>2020-09-12T11:46:05Z</time>
      </trkpt>
      <trkpt lat="41.0541670" lon="-2.3840360">
        <ele>1138.2</ele>
        <time>2020-09-12T11:46:06Z</time>
      </trkpt>
      <trkpt lat="41.0541700" lon="-2.3839810">
        <ele>1138.4</ele>
        <time>2020-09-12T11:46:07Z</time>
      </trkpt>
      <trkpt lat="41.0541740" lon="-2.3839260">
        <ele>1138.6</ele>
        <time>2020-09-12T11:46:08Z</time>
      </trkpt>
      <trkpt lat="41.0541790" lon="-2.3838710">
        <ele>1138.6</ele>
        <time>2020-09-12T11:46:09Z</time>
      </trkpt>
      <trkpt lat="41.0541830" lon="-2.3838160">
        <ele>1138.8</ele>
        <time>2020-09-12T11:46:10Z</time>
      </trkpt>
      <trkpt lat="41.0541870" lon="-2.3837620">
        <ele>1139.0</ele>
        <time>2020-09-12T11:46:11Z</time>
      </trkpt>
      <trkpt lat="41.0541900" lon="-2.3837070">
        <ele>1139.2</ele>
        <time>2020-09-12T11:46:12Z</time>
      </trkpt>
      <trkpt lat="41.0541950" lon="-2.3836510">
        <ele>1139.4</ele>
        <time>2020-09-12T11:46:13Z</time>
      </trkpt>
      <trkpt lat="41.0542000" lon="-2.3835950">
        <ele>1139.6</ele>
        <time>2020-09-12T11:46:14Z</time>
      </trkpt>
      <trkpt lat="41.0542020" lon="-2.3835370">
        <ele>1139.8</ele>
        <time>2020-09-12T11:46:15Z</time>
      </trkpt>
      <trkpt lat="41.0542050" lon="-2.3834800">
        <ele>1140.0</ele>
        <time>2020-09-12T11:46:16Z</time>
      </trkpt>
      <trkpt lat="41.0542080" lon="-2.3834250">
        <ele>1140.2</ele>
        <time>2020-09-12T11:46:17Z</time>
      </trkpt>
      <trkpt lat="41.0542110" lon="-2.3833720">
        <ele>1140.6</ele>
        <time>2020-09-12T11:46:18Z</time>
      </trkpt>
      <trkpt lat="41.0542140" lon="-2.3833180">
        <ele>1140.8</ele>
        <time>2020-09-12T11:46:19Z</time>
      </trkpt>
      <trkpt lat="41.0542170" lon="-2.3832640">
        <ele>1141.0</ele>
        <time>2020-09-12T11:46:20Z</time>
      </trkpt>
      <trkpt lat="41.0542200" lon="-2.3832100">
        <ele>1141.2</ele>
        <time>2020-09-12T11:46:21Z</time>
      </trkpt>
      <trkpt lat="41.0542250" lon="-2.3831550">
        <ele>1141.2</ele>
        <time>2020-09-12T11:46:22Z</time>
      </trkpt>
      <trkpt lat="41.0542280" lon="-2.3831010">
        <ele>1141.4</ele>
        <time>2020-09-12T11:46:23Z</time>
      </trkpt>
      <trkpt lat="41.0542300" lon="-2.3830470">
        <ele>1141.4</ele>
        <time>2020-09-12T11:46:24Z</time>
      </trkpt>
      <trkpt lat="41.0542330" lon="-2.3829920">
        <ele>1141.8</ele>
        <time>2020-09-12T11:46:25Z</time>
      </trkpt>
      <trkpt lat="41.0542380" lon="-2.3829370">
        <ele>1142.0</ele>
        <time>2020-09-12T11:46:26Z</time>
      </trkpt>
      <trkpt lat="41.0542410" lon="-2.3828820">
        <ele>1142.2</ele>
        <time>2020-09-12T11:46:27Z</time>
      </trkpt>
      <trkpt lat="41.0542430" lon="-2.3828260">
        <ele>1142.4</ele>
        <time>2020-09-12T11:46:28Z</time>
      </trkpt>
      <trkpt lat="41.0542460" lon="-2.3827710">
        <ele>1142.6</ele>
        <time>2020-09-12T11:46:29Z</time>
      </trkpt>
      <trkpt lat="41.0542510" lon="-2.3827160">
        <ele>1142.6</ele>
        <time>2020-09-12T11:46:30Z</time>
      </trkpt>
      <trkpt lat="41.0542540" lon="-2.3826620">
        <ele>1142.8</ele>
        <time>2020-09-12T11:46:31Z</time>
      </trkpt>
      <trkpt lat="41.0542580" lon="-2.3826080">
        <ele>1143.0</ele>
        <time>2020-09-12T11:46:32Z</time>
      </trkpt>
      <trkpt lat="41.0542590" lon="-2.3825540">
        <ele>1143.4</ele>
        <time>2020-09-12T11:46:33Z</time>
      </trkpt>
      <trkpt lat="41.0542620" lon="-2.3825000">
        <ele>1143.6</ele>
        <time>2020-09-12T11:46:34Z</time>
      </trkpt>
      <trkpt lat="41.0542650" lon="-2.3824470">
        <ele>1143.8</ele>
        <time>2020-09-12T11:46:35Z</time>
      </trkpt>
      <trkpt lat="41.0542680" lon="-2.3823940">
        <ele>1144.0</ele>
        <time>2020-09-12T11:46:36Z</time>
      </trkpt>
      <trkpt lat="41.0542710" lon="-2.3823390">
        <ele>1144.0</ele>
        <time>2020-09-12T11:46:37Z</time>
      </trkpt>
      <trkpt lat="41.0542720" lon="-2.3822840">
        <ele>1144.2</ele>
        <time>2020-09-12T11:46:38Z</time>
      </trkpt>
      <trkpt lat="41.0542730" lon="-2.3822290">
        <ele>1144.2</ele>
        <time>2020-09-12T11:46:39Z</time>
      </trkpt>
      <trkpt lat="41.0542730" lon="-2.3821750">
        <ele>1144.2</ele>
        <time>2020-09-12T11:46:40Z</time>
      </trkpt>
      <trkpt lat="41.0542740" lon="-2.3821200">
        <ele>1144.2</ele>
        <time>2020-09-12T11:46:41Z</time>
      </trkpt>
      <trkpt lat="41.0542730" lon="-2.3820650">
        <ele>1144.2</ele>
        <time>2020-09-12T11:46:42Z</time>
      </trkpt>
      <trkpt lat="41.0542750" lon="-2.3820080">
        <ele>1144.4</ele>
        <time>2020-09-12T11:46:43Z</time>
      </trkpt>
      <trkpt lat="41.0542780" lon="-2.3819520">
        <ele>1144.6</ele>
        <time>2020-09-12T11:46:44Z</time>
      </trkpt>
      <trkpt lat="41.0542800" lon="-2.3818960">
        <ele>1144.8</ele>
        <time>2020-09-12T11:46:45Z</time>
      </trkpt>
      <trkpt lat="41.0542800" lon="-2.3818410">
        <ele>1145.0</ele>
        <time>2020-09-12T11:46:46Z</time>
      </trkpt>
      <trkpt lat="41.0542790" lon="-2.3817850">
        <ele>1145.2</ele>
        <time>2020-09-12T11:46:47Z</time>
      </trkpt>
      <trkpt lat="41.0542790" lon="-2.3817290">
        <ele>1145.4</ele>
        <time>2020-09-12T11:46:48Z</time>
      </trkpt>
      <trkpt lat="41.0542810" lon="-2.3816720">
        <ele>1145.6</ele>
        <time>2020-09-12T11:46:49Z</time>
      </trkpt>
      <trkpt lat="41.0542830" lon="-2.3816140">
        <ele>1145.8</ele>
        <time>2020-09-12T11:46:50Z</time>
      </trkpt>
      <trkpt lat="41.0542840" lon="-2.3815560">
        <ele>1146.0</ele>
        <time>2020-09-12T11:46:51Z</time>
      </trkpt>
      <trkpt lat="41.0542840" lon="-2.3814990">
        <ele>1146.0</ele>
        <time>2020-09-12T11:46:52Z</time>
      </trkpt>
      <trkpt lat="41.0542850" lon="-2.3814420">
        <ele>1146.2</ele>
        <time>2020-09-12T11:46:53Z</time>
      </trkpt>
      <trkpt lat="41.0542870" lon="-2.3813850">
        <ele>1146.4</ele>
        <time>2020-09-12T11:46:54Z</time>
      </trkpt>
      <trkpt lat="41.0542900" lon="-2.3813280">
        <ele>1146.8</ele>
        <time>2020-09-12T11:46:55Z</time>
      </trkpt>
      <trkpt lat="41.0542900" lon="-2.3812710">
        <ele>1147.0</ele>
        <time>2020-09-12T11:46:56Z</time>
      </trkpt>
      <trkpt lat="41.0542890" lon="-2.3812140">
        <ele>1147.0</ele>
        <time>2020-09-12T11:46:57Z</time>
      </trkpt>
      <trkpt lat="41.0542880" lon="-2.3811580">
        <ele>1147.2</ele>
        <time>2020-09-12T11:46:58Z</time>
      </trkpt>
      <trkpt lat="41.0542890" lon="-2.3811010">
        <ele>1147.4</ele>
        <time>2020-09-12T11:46:59Z</time>
      </trkpt>
      <trkpt lat="41.0542890" lon="-2.3810440">
        <ele>1147.8</ele>
        <time>2020-09-12T11:47:00Z</time>
      </trkpt>
      <trkpt lat="41.0542890" lon="-2.3809860">
        <ele>1148.0</ele>
        <time>2020-09-12T11:47:01Z</time>
      </trkpt>
      <trkpt lat="41.0542890" lon="-2.3809300">
        <ele>1148.2</ele>
        <time>2020-09-12T11:47:02Z</time>
      </trkpt>
      <trkpt lat="41.0542890" lon="-2.3808720">
        <ele>1148.2</ele>
        <time>2020-09-12T11:47:03Z</time>
      </trkpt>
      <trkpt lat="41.0542900" lon="-2.3808150">
        <ele>1148.2</ele>
        <time>2020-09-12T11:47:04Z</time>
      </trkpt>
      <trkpt lat="41.0542920" lon="-2.3807580">
        <ele>1148.4</ele>
        <time>2020-09-12T11:47:05Z</time>
      </trkpt>
      <trkpt lat="41.0542920" lon="-2.3807010">
        <ele>1148.6</ele>
        <time>2020-09-12T11:47:06Z</time>
      </trkpt>
      <trkpt lat="41.0542920" lon="-2.3806430">
        <ele>1148.8</ele>
        <time>2020-09-12T11:47:07Z</time>
      </trkpt>
      <trkpt lat="41.0542890" lon="-2.3805850">
        <ele>1149.0</ele>
        <time>2020-09-12T11:47:08Z</time>
      </trkpt>
      <trkpt lat="41.0542870" lon="-2.3805270">
        <ele>1149.2</ele>
        <time>2020-09-12T11:47:09Z</time>
      </trkpt>
      <trkpt lat="41.0542860" lon="-2.3804680">
        <ele>1149.4</ele>
        <time>2020-09-12T11:47:10Z</time>
      </trkpt>
      <trkpt lat="41.0542850" lon="-2.3804080">
        <ele>1149.6</ele>
        <time>2020-09-12T11:47:11Z</time>
      </trkpt>
      <trkpt lat="41.0542860" lon="-2.3803490">
        <ele>1149.8</ele>
        <time>2020-09-12T11:47:12Z</time>
      </trkpt>
      <trkpt lat="41.0542860" lon="-2.3802910">
        <ele>1150.0</ele>
        <time>2020-09-12T11:47:13Z</time>
      </trkpt>
      <trkpt lat="41.0542860" lon="-2.3802340">
        <ele>1150.2</ele>
        <time>2020-09-12T11:47:14Z</time>
      </trkpt>
      <trkpt lat="41.0542850" lon="-2.3801770">
        <ele>1150.4</ele>
        <time>2020-09-12T11:47:15Z</time>
      </trkpt>
      <trkpt lat="41.0542830" lon="-2.3801200">
        <ele>1150.4</ele>
        <time>2020-09-12T11:47:16Z</time>
      </trkpt>
      <trkpt lat="41.0542820" lon="-2.3800620">
        <ele>1150.6</ele>
        <time>2020-09-12T11:47:17Z</time>
      </trkpt>
      <trkpt lat="41.0542810" lon="-2.3800030">
        <ele>1150.8</ele>
        <time>2020-09-12T11:47:18Z</time>
      </trkpt>
      <trkpt lat="41.0542800" lon="-2.3799450">
        <ele>1151.2</ele>
        <time>2020-09-12T11:47:19Z</time>
      </trkpt>
      <trkpt lat="41.0542760" lon="-2.3798870">
        <ele>1151.4</ele>
        <time>2020-09-12T11:47:20Z</time>
      </trkpt>
      <trkpt lat="41.0542710" lon="-2.3798300">
        <ele>1151.6</ele>
        <time>2020-09-12T11:47:21Z</time>
      </trkpt>
      <trkpt lat="41.0542680" lon="-2.3797710">
        <ele>1152.0</ele>
        <time>2020-09-12T11:47:22Z</time>
      </trkpt>
      <trkpt lat="41.0542650" lon="-2.3797140">
        <ele>1152.0</ele>
        <time>2020-09-12T11:47:23Z</time>
      </trkpt>
      <trkpt lat="41.0542660" lon="-2.3796570">
        <ele>1152.2</ele>
        <time>2020-09-12T11:47:24Z</time>
      </trkpt>
      <trkpt lat="41.0542680" lon="-2.3796000">
        <ele>1152.4</ele>
        <time>2020-09-12T11:47:25Z</time>
      </trkpt>
      <trkpt lat="41.0542670" lon="-2.3795440">
        <ele>1152.8</ele>
        <time>2020-09-12T11:47:26Z</time>
      </trkpt>
      <trkpt lat="41.0542640" lon="-2.3794870">
        <ele>1153.0</ele>
        <time>2020-09-12T11:47:27Z</time>
      </trkpt>
      <trkpt lat="41.0542610" lon="-2.3794290">
        <ele>1153.4</ele>
        <time>2020-09-12T11:47:28Z</time>
      </trkpt>
      <trkpt lat="41.0542590" lon="-2.3793690">
        <ele>1153.6</ele>
        <time>2020-09-12T11:47:29Z</time>
      </trkpt>
      <trkpt lat="41.0542570" lon="-2.3793080">
        <ele>1153.6</ele>
        <time>2020-09-12T11:47:30Z</time>
      </trkpt>
      <trkpt lat="41.0542540" lon="-2.3792460">
        <ele>1153.8</ele>
        <time>2020-09-12T11:47:31Z</time>
      </trkpt>
      <trkpt lat="41.0542500" lon="-2.3791840">
        <ele>1154.0</ele>
        <time>2020-09-12T11:47:32Z</time>
      </trkpt>
      <trkpt lat="41.0542450" lon="-2.3791210">
        <ele>1154.2</ele>
        <time>2020-09-12T11:47:33Z</time>
      </trkpt>
      <trkpt lat="41.0542410" lon="-2.3790580">
        <ele>1154.2</ele>
        <time>2020-09-12T11:47:34Z</time>
      </trkpt>
      <trkpt lat="41.0542360" lon="-2.3789940">
        <ele>1154.4</ele>
        <time>2020-09-12T11:47:35Z</time>
      </trkpt>
      <trkpt lat="41.0542310" lon="-2.3789320">
        <ele>1154.6</ele>
        <time>2020-09-12T11:47:36Z</time>
      </trkpt>
      <trkpt lat="41.0542270" lon="-2.3788690">
        <ele>1154.8</ele>
        <time>2020-09-12T11:47:37Z</time>
      </trkpt>
      <trkpt lat="41.0542220" lon="-2.3788060">
        <ele>1155.0</ele>
        <time>2020-09-12T11:47:38Z</time>
      </trkpt>
      <trkpt lat="41.0542170" lon="-2.3787430">
        <ele>1155.2</ele>
        <time>2020-09-12T11:47:39Z</time>
      </trkpt>
      <trkpt lat="41.0542130" lon="-2.3786790">
        <ele>1155.2</ele>
        <time>2020-09-12T11:47:40Z</time>
      </trkpt>
      <trkpt lat="41.0542070" lon="-2.3786170">
        <ele>1155.4</ele>
        <time>2020-09-12T11:47:41Z</time>
      </trkpt>
      <trkpt lat="41.0542000" lon="-2.3785530">
        <ele>1155.4</ele>
        <time>2020-09-12T11:47:42Z</time>
      </trkpt>
      <trkpt lat="41.0541930" lon="-2.3784900">
        <ele>1155.6</ele>
        <time>2020-09-12T11:47:43Z</time>
      </trkpt>
      <trkpt lat="41.0541870" lon="-2.3784270">
        <ele>1155.8</ele>
        <time>2020-09-12T11:47:44Z</time>
      </trkpt>
      <trkpt lat="41.0541810" lon="-2.3783630">
        <ele>1155.8</ele>
        <time>2020-09-12T11:47:45Z</time>
      </trkpt>
      <trkpt lat="41.0541740" lon="-2.3783000">
        <ele>1156.0</ele>
        <time>2020-09-12T11:47:46Z</time>
      </trkpt>
      <trkpt lat="41.0541660" lon="-2.3782370">
        <ele>1156.2</ele>
        <time>2020-09-12T11:47:47Z</time>
      </trkpt>
      <trkpt lat="41.0541580" lon="-2.3781750">
        <ele>1156.4</ele>
        <time>2020-09-12T11:47:48Z</time>
      </trkpt>
      <trkpt lat="41.0541500" lon="-2.3781130">
        <ele>1156.6</ele>
        <time>2020-09-12T11:47:49Z</time>
      </trkpt>
      <trkpt lat="41.0541420" lon="-2.3780510">
        <ele>1156.8</ele>
        <time>2020-09-12T11:47:50Z</time>
      </trkpt>
      <trkpt lat="41.0541310" lon="-2.3779910">
        <ele>1157.0</ele>
        <time>2020-09-12T11:47:51Z</time>
      </trkpt>
      <trkpt lat="41.0541210" lon="-2.3779300">
        <ele>1157.0</ele>
        <time>2020-09-12T11:47:52Z</time>
      </trkpt>
      <trkpt lat="41.0541130" lon="-2.3778690">
        <ele>1157.2</ele>
        <time>2020-09-12T11:47:53Z</time>
      </trkpt>
      <trkpt lat="41.0541050" lon="-2.3778080">
        <ele>1157.4</ele>
        <time>2020-09-12T11:47:54Z</time>
      </trkpt>
      <trkpt lat="41.0540920" lon="-2.3777460">
        <ele>1157.6</ele>
        <time>2020-09-12T11:47:55Z</time>
      </trkpt>
      <trkpt lat="41.0540780" lon="-2.3776830">
        <ele>1157.6</ele>
        <time>2020-09-12T11:47:56Z</time>
      </trkpt>
      <trkpt lat="41.0540620" lon="-2.3776190">
        <ele>1157.8</ele>
        <time>2020-09-12T11:47:57Z</time>
      </trkpt>
      <trkpt lat="41.0540460" lon="-2.3775560">
        <ele>1158.0</ele>
        <time>2020-09-12T11:47:58Z</time>
      </trkpt>
      <trkpt lat="41.0540310" lon="-2.3774930">
        <ele>1158.0</ele>
        <time>2020-09-12T11:47:59Z</time>
      </trkpt>
      <trkpt lat="41.0540150" lon="-2.3774310">
        <ele>1158.2</ele>
        <time>2020-09-12T11:48:00Z</time>
      </trkpt>
      <trkpt lat="41.0539970" lon="-2.3773700">
        <ele>1158.2</ele>
        <time>2020-09-12T11:48:01Z</time>
      </trkpt>
      <trkpt lat="41.0539790" lon="-2.3773100">
        <ele>1158.4</ele>
        <time>2020-09-12T11:48:02Z</time>
      </trkpt>
      <trkpt lat="41.0539580" lon="-2.3772500">
        <ele>1158.6</ele>
        <time>2020-09-12T11:48:03Z</time>
      </trkpt>
      <trkpt lat="41.0539390" lon="-2.3771890">
        <ele>1158.6</ele>
        <time>2020-09-12T11:48:04Z</time>
      </trkpt>
      <trkpt lat="41.0539180" lon="-2.3771290">
        <ele>1158.8</ele>
        <time>2020-09-12T11:48:05Z</time>
      </trkpt>
      <trkpt lat="41.0538970" lon="-2.3770690">
        <ele>1159.0</ele>
        <time>2020-09-12T11:48:06Z</time>
      </trkpt>
      <trkpt lat="41.0538740" lon="-2.3770110">
        <ele>1159.2</ele>
        <time>2020-09-12T11:48:07Z</time>
      </trkpt>
      <trkpt lat="41.0538500" lon="-2.3769540">
        <ele>1159.4</ele>
        <time>2020-09-12T11:48:08Z</time>
      </trkpt>
      <trkpt lat="41.0538250" lon="-2.3768960">
        <ele>1159.4</ele>
        <time>2020-09-12T11:48:09Z</time>
      </trkpt>
      <trkpt lat="41.0537990" lon="-2.3768400">
        <ele>1159.6</ele>
        <time>2020-09-12T11:48:10Z</time>
      </trkpt>
      <trkpt lat="41.0537730" lon="-2.3767850">
        <ele>1159.6</ele>
        <time>2020-09-12T11:48:11Z</time>
      </trkpt>
      <trkpt lat="41.0537450" lon="-2.3767290">
        <ele>1159.8</ele>
        <time>2020-09-12T11:48:12Z</time>
      </trkpt>
      <trkpt lat="41.0537180" lon="-2.3766730">
        <ele>1159.8</ele>
        <time>2020-09-12T11:48:13Z</time>
      </trkpt>
      <trkpt lat="41.0536890" lon="-2.3766200">
        <ele>1160.0</ele>
        <time>2020-09-12T11:48:14Z</time>
      </trkpt>
      <trkpt lat="41.0536600" lon="-2.3765660">
        <ele>1160.2</ele>
        <time>2020-09-12T11:48:15Z</time>
      </trkpt>
      <trkpt lat="41.0536290" lon="-2.3765150">
        <ele>1160.4</ele>
        <time>2020-09-12T11:48:16Z</time>
      </trkpt>
      <trkpt lat="41.0535980" lon="-2.3764620">
        <ele>1160.4</ele>
        <time>2020-09-12T11:48:17Z</time>
      </trkpt>
      <trkpt lat="41.0535660" lon="-2.3764090">
        <ele>1160.6</ele>
        <time>2020-09-12T11:48:18Z</time>
      </trkpt>
      <trkpt lat="41.0535350" lon="-2.3763560">
        <ele>1160.6</ele>
        <time>2020-09-12T11:48:19Z</time>
      </trkpt>
      <trkpt lat="41.0535010" lon="-2.3763070">
        <ele>1160.6</ele>
        <time>2020-09-12T11:48:20Z</time>
      </trkpt>
      <trkpt lat="41.0534660" lon="-2.3762610">
        <ele>1160.8</ele>
        <time>2020-09-12T11:48:21Z</time>
      </trkpt>
      <trkpt lat="41.0534330" lon="-2.3762140">
        <ele>1161.0</ele>
        <time>2020-09-12T11:48:22Z</time>
      </trkpt>
      <trkpt lat="41.0533990" lon="-2.3761670">
        <ele>1161.2</ele>
        <time>2020-09-12T11:48:23Z</time>
      </trkpt>
      <trkpt lat="41.0533640" lon="-2.3761220">
        <ele>1161.4</ele>
        <time>2020-09-12T11:48:24Z</time>
      </trkpt>
      <trkpt lat="41.0533270" lon="-2.3760790">
        <ele>1161.6</ele>
        <time>2020-09-12T11:48:25Z</time>
      </trkpt>
      <trkpt lat="41.0532900" lon="-2.3760350">
        <ele>1161.8</ele>
        <time>2020-09-12T11:48:26Z</time>
      </trkpt>
      <trkpt lat="41.0532520" lon="-2.3759920">
        <ele>1162.4</ele>
        <time>2020-09-12T11:48:27Z</time>
      </trkpt>
      <trkpt lat="41.0532130" lon="-2.3759500">
        <ele>1162.6</ele>
        <time>2020-09-12T11:48:28Z</time>
      </trkpt>
      <trkpt lat="41.0531730" lon="-2.3759090">
        <ele>1162.8</ele>
        <time>2020-09-12T11:48:29Z</time>
      </trkpt>
      <trkpt lat="41.0531340" lon="-2.3758690">
        <ele>1163.0</ele>
        <time>2020-09-12T11:48:30Z</time>
      </trkpt>
      <trkpt lat="41.0530960" lon="-2.3758300">
        <ele>1163.2</ele>
        <time>2020-09-12T11:48:31Z</time>
      </trkpt>
      <trkpt lat="41.0530560" lon="-2.3757920">
        <ele>1163.4</ele>
        <time>2020-09-12T11:48:32Z</time>
      </trkpt>
      <trkpt lat="41.0530160" lon="-2.3757560">
        <ele>1163.4</ele>
        <time>2020-09-12T11:48:33Z</time>
      </trkpt>
      <trkpt lat="41.0529760" lon="-2.3757210">
        <ele>1163.6</ele>
        <time>2020-09-12T11:48:34Z</time>
      </trkpt>
      <trkpt lat="41.0529350" lon="-2.3756870">
        <ele>1163.6</ele>
        <time>2020-09-12T11:48:35Z</time>
      </trkpt>
      <trkpt lat="41.0528940" lon="-2.3756540">
        <ele>1163.8</ele>
        <time>2020-09-12T11:48:36Z</time>
      </trkpt>
      <trkpt lat="41.0528520" lon="-2.3756230">
        <ele>1164.2</ele>
        <time>2020-09-12T11:48:37Z</time>
      </trkpt>
      <trkpt lat="41.0528090" lon="-2.3755920">
        <ele>1164.4</ele>
        <time>2020-09-12T11:48:38Z</time>
      </trkpt>
      <trkpt lat="41.0527670" lon="-2.3755610">
        <ele>1164.8</ele>
        <time>2020-09-12T11:48:39Z</time>
      </trkpt>
      <trkpt lat="41.0527230" lon="-2.3755300">
        <ele>1165.0</ele>
        <time>2020-09-12T11:48:40Z</time>
      </trkpt>
      <trkpt lat="41.0526800" lon="-2.3755010">
        <ele>1165.0</ele>
        <time>2020-09-12T11:48:41Z</time>
      </trkpt>
      <trkpt lat="41.0526370" lon="-2.3754750">
        <ele>1165.2</ele>
        <time>2020-09-12T11:48:42Z</time>
      </trkpt>
      <trkpt lat="41.0525930" lon="-2.3754510">
        <ele>1165.4</ele>
        <time>2020-09-12T11:48:43Z</time>
      </trkpt>
      <trkpt lat="41.0525510" lon="-2.3754280">
        <ele>1165.6</ele>
        <time>2020-09-12T11:48:44Z</time>
      </trkpt>
      <trkpt lat="41.0525100" lon="-2.3754060">
        <ele>1165.8</ele>
        <time>2020-09-12T11:48:45Z</time>
      </trkpt>
      <trkpt lat="41.0524660" lon="-2.3753850">
        <ele>1165.8</ele>
        <time>2020-09-12T11:48:46Z</time>
      </trkpt>
      <trkpt lat="41.0524240" lon="-2.3753650">
        <ele>1166.0</ele>
        <time>2020-09-12T11:48:47Z</time>
      </trkpt>
      <trkpt lat="41.0523810" lon="-2.3753470">
        <ele>1166.6</ele>
        <time>2020-09-12T11:48:48Z</time>
      </trkpt>
      <trkpt lat="41.0523390" lon="-2.3753290">
        <ele>1167.0</ele>
        <time>2020-09-12T11:48:49Z</time>
      </trkpt>
      <trkpt lat="41.0522960" lon="-2.3753110">
        <ele>1167.4</ele>
        <time>2020-09-12T11:48:50Z</time>
      </trkpt>
      <trkpt lat="41.0522540" lon="-2.3752970">
        <ele>1167.6</ele>
        <time>2020-09-12T11:48:51Z</time>
      </trkpt>
      <trkpt lat="41.0522120" lon="-2.3752820">
        <ele>1167.8</ele>
        <time>2020-09-12T11:48:52Z</time>
      </trkpt>
      <trkpt lat="41.0521700" lon="-2.3752650">
        <ele>1167.8</ele>
        <time>2020-09-12T11:48:53Z</time>
      </trkpt>
      <trkpt lat="41.0521280" lon="-2.3752480">
        <ele>1168.0</ele>
        <time>2020-09-12T11:48:54Z</time>
      </trkpt>
      <trkpt lat="41.0520850" lon="-2.3752340">
        <ele>1168.0</ele>
        <time>2020-09-12T11:48:55Z</time>
      </trkpt>
      <trkpt lat="41.0520430" lon="-2.3752200">
        <ele>1168.2</ele>
        <time>2020-09-12T11:48:56Z</time>
      </trkpt>
      <trkpt lat="41.0520020" lon="-2.3752060">
        <ele>1168.4</ele>
        <time>2020-09-12T11:48:57Z</time>
      </trkpt>
      <trkpt lat="41.0519610" lon="-2.3751950">
        <ele>1168.6</ele>
        <time>2020-09-12T11:48:58Z</time>
      </trkpt>
      <trkpt lat="41.0519190" lon="-2.3751820">
        <ele>1169.0</ele>
        <time>2020-09-12T11:48:59Z</time>
      </trkpt>
      <trkpt lat="41.0518770" lon="-2.3751680">
        <ele>1169.2</ele>
        <time>2020-09-12T11:49:00Z</time>
      </trkpt>
      <trkpt lat="41.0518350" lon="-2.3751540">
        <ele>1169.6</ele>
        <time>2020-09-12T11:49:01Z</time>
      </trkpt>
      <trkpt lat="41.0517930" lon="-2.3751410">
        <ele>1170.0</ele>
        <time>2020-09-12T11:49:02Z</time>
      </trkpt>
      <trkpt lat="41.0517490" lon="-2.3751270">
        <ele>1170.4</ele>
        <time>2020-09-12T11:49:03Z</time>
      </trkpt>
      <trkpt lat="41.0517070" lon="-2.3751130">
        <ele>1170.8</ele>
        <time>2020-09-12T11:49:04Z</time>
      </trkpt>
      <trkpt lat="41.0516630" lon="-2.3750970">
        <ele>1171.0</ele>
        <time>2020-09-12T11:49:05Z</time>
      </trkpt>
      <trkpt lat="41.0516190" lon="-2.3750810">
        <ele>1171.2</ele>
        <time>2020-09-12T11:49:06Z</time>
      </trkpt>
      <trkpt lat="41.0515770" lon="-2.3750640">
        <ele>1171.4</ele>
        <time>2020-09-12T11:49:07Z</time>
      </trkpt>
      <trkpt lat="41.0515340" lon="-2.3750460">
        <ele>1171.6</ele>
        <time>2020-09-12T11:49:08Z</time>
      </trkpt>
      <trkpt lat="41.0514900" lon="-2.3750280">
        <ele>1171.8</ele>
        <time>2020-09-12T11:49:09Z</time>
      </trkpt>
      <trkpt lat="41.0514460" lon="-2.3750090">
        <ele>1171.8</ele>
        <time>2020-09-12T11:49:10Z</time>
      </trkpt>
      <trkpt lat="41.0514020" lon="-2.3749910">
        <ele>1172.0</ele>
        <time>2020-09-12T11:49:11Z</time>
      </trkpt>
      <trkpt lat="41.0513580" lon="-2.3749710">
        <ele>1172.0</ele>
        <time>2020-09-12T11:49:12Z</time>
      </trkpt>
      <trkpt lat="41.0513160" lon="-2.3749490">
        <ele>1172.0</ele>
        <time>2020-09-12T11:49:13Z</time>
      </trkpt>
      <trkpt lat="41.0512750" lon="-2.3749260">
        <ele>1172.0</ele>
        <time>2020-09-12T11:49:14Z</time>
      </trkpt>
      <trkpt lat="41.0512330" lon="-2.3749010">
        <ele>1172.2</ele>
        <time>2020-09-12T11:49:15Z</time>
      </trkpt>
      <trkpt lat="41.0511900" lon="-2.3748770">
        <ele>1172.4</ele>
        <time>2020-09-12T11:49:16Z</time>
      </trkpt>
      <trkpt lat="41.0511470" lon="-2.3748500">
        <ele>1172.6</ele>
        <time>2020-09-12T11:49:17Z</time>
      </trkpt>
      <trkpt lat="41.0511040" lon="-2.3748210">
        <ele>1172.8</ele>
        <time>2020-09-12T11:49:18Z</time>
      </trkpt>
      <trkpt lat="41.0510620" lon="-2.3747910">
        <ele>1173.2</ele>
        <time>2020-09-12T11:49:19Z</time>
      </trkpt>
      <trkpt lat="41.0510190" lon="-2.3747600">
        <ele>1173.2</ele>
        <time>2020-09-12T11:49:20Z</time>
      </trkpt>
      <trkpt lat="41.0509780" lon="-2.3747280">
        <ele>1173.4</ele>
        <time>2020-09-12T11:49:21Z</time>
      </trkpt>
      <trkpt lat="41.0509370" lon="-2.3746960">
        <ele>1173.6</ele>
        <time>2020-09-12T11:49:22Z</time>
      </trkpt>
      <trkpt lat="41.0508980" lon="-2.3746640">
        <ele>1173.8</ele>
        <time>2020-09-12T11:49:23Z</time>
      </trkpt>
      <trkpt lat="41.0508600" lon="-2.3746310">
        <ele>1173.8</ele>
        <time>2020-09-12T11:49:24Z</time>
      </trkpt>
      <trkpt lat="41.0508230" lon="-2.3745990">
        <ele>1174.0</ele>
        <time>2020-09-12T11:49:25Z</time>
      </trkpt>
      <trkpt lat="41.0507850" lon="-2.3745650">
        <ele>1174.2</ele>
        <time>2020-09-12T11:49:26Z</time>
      </trkpt>
      <trkpt lat="41.0507490" lon="-2.3745310">
        <ele>1174.6</ele>
        <time>2020-09-12T11:49:27Z</time>
      </trkpt>
      <trkpt lat="41.0507140" lon="-2.3744950">
        <ele>1175.0</ele>
        <time>2020-09-12T11:49:28Z</time>
      </trkpt>
      <trkpt lat="41.0506800" lon="-2.3744590">
        <ele>1175.2</ele>
        <time>2020-09-12T11:49:29Z</time>
      </trkpt>
      <trkpt lat="41.0506470" lon="-2.3744210">
        <ele>1175.4</ele>
        <time>2020-09-12T11:49:30Z</time>
      </trkpt>
      <trkpt lat="41.0506150" lon="-2.3743840">
        <ele>1175.6</ele>
        <time>2020-09-12T11:49:31Z</time>
      </trkpt>
      <trkpt lat="41.0505820" lon="-2.3743470">
        <ele>1175.8</ele>
        <time>2020-09-12T11:49:32Z</time>
      </trkpt>
      <trkpt lat="41.0505490" lon="-2.3743080">
        <ele>1176.0</ele>
        <time>2020-09-12T11:49:33Z</time>
      </trkpt>
      <trkpt lat="41.0505180" lon="-2.3742680">
        <ele>1176.2</ele>
        <time>2020-09-12T11:49:34Z</time>
      </trkpt>
      <trkpt lat="41.0504890" lon="-2.3742260">
        <ele>1176.4</ele>
        <time>2020-09-12T11:49:35Z</time>
      </trkpt>
      <trkpt lat="41.0504600" lon="-2.3741820">
        <ele>1176.4</ele>
        <time>2020-09-12T11:49:36Z</time>
      </trkpt>
      <trkpt lat="41.0504290" lon="-2.3741380">
        <ele>1176.6</ele>
        <time>2020-09-12T11:49:37Z</time>
      </trkpt>
      <trkpt lat="41.0503980" lon="-2.3740960">
        <ele>1176.8</ele>
        <time>2020-09-12T11:49:38Z</time>
      </trkpt>
      <trkpt lat="41.0503690" lon="-2.3740530">
        <ele>1177.0</ele>
        <time>2020-09-12T11:49:39Z</time>
      </trkpt>
      <trkpt lat="41.0503410" lon="-2.3740100">
        <ele>1177.4</ele>
        <time>2020-09-12T11:49:40Z</time>
      </trkpt>
      <trkpt lat="41.0503130" lon="-2.3739660">
        <ele>1177.4</ele>
        <time>2020-09-12T11:49:41Z</time>
      </trkpt>
      <trkpt lat="41.0502860" lon="-2.3739210">
        <ele>1177.6</ele>
        <time>2020-09-12T11:49:42Z</time>
      </trkpt>
      <trkpt lat="41.0502610" lon="-2.3738740">
        <ele>1177.6</ele>
        <time>2020-09-12T11:49:43Z</time>
      </trkpt>
      <trkpt lat="41.0502360" lon="-2.3738270">
        <ele>1177.8</ele>
        <time>2020-09-12T11:49:44Z</time>
      </trkpt>
      <trkpt lat="41.0502110" lon="-2.3737780">
        <ele>1178.0</ele>
        <time>2020-09-12T11:49:45Z</time>
      </trkpt>
      <trkpt lat="41.0501880" lon="-2.3737300">
        <ele>1178.4</ele>
        <time>2020-09-12T11:49:46Z</time>
      </trkpt>
      <trkpt lat="41.0501650" lon="-2.3736820">
        <ele>1178.6</ele>
        <time>2020-09-12T11:49:47Z</time>
      </trkpt>
      <trkpt lat="41.0501420" lon="-2.3736320">
        <ele>1179.0</ele>
        <time>2020-09-12T11:49:48Z</time>
      </trkpt>
      <trkpt lat="41.0501210" lon="-2.3735810">
        <ele>1179.2</ele>
        <time>2020-09-12T11:49:49Z</time>
      </trkpt>
      <trkpt lat="41.0501000" lon="-2.3735290">
        <ele>1179.4</ele>
        <time>2020-09-12T11:49:50Z</time>
      </trkpt>
      <trkpt lat="41.0500790" lon="-2.3734760">
        <ele>1179.6</ele>
        <time>2020-09-12T11:49:51Z</time>
      </trkpt>
      <trkpt lat="41.0500580" lon="-2.3734220">
        <ele>1179.8</ele>
        <time>2020-09-12T11:49:52Z</time>
      </trkpt>
      <trkpt lat="41.0500360" lon="-2.3733680">
        <ele>1179.8</ele>
        <time>2020-09-12T11:49:53Z</time>
      </trkpt>
      <trkpt lat="41.0500140" lon="-2.3733130">
        <ele>1180.0</ele>
        <time>2020-09-12T11:49:54Z</time>
      </trkpt>
      <trkpt lat="41.0499940" lon="-2.3732570">
        <ele>1180.0</ele>
        <time>2020-09-12T11:49:55Z</time>
      </trkpt>
      <trkpt lat="41.0499740" lon="-2.3731990">
        <ele>1180.2</ele>
        <time>2020-09-12T11:49:56Z</time>
      </trkpt>
      <trkpt lat="41.0499550" lon="-2.3731420">
        <ele>1180.4</ele>
        <time>2020-09-12T11:49:57Z</time>
      </trkpt>
      <trkpt lat="41.0499350" lon="-2.3730860">
        <ele>1180.6</ele>
        <time>2020-09-12T11:49:58Z</time>
      </trkpt>
      <trkpt lat="41.0499150" lon="-2.3730290">
        <ele>1180.8</ele>
        <time>2020-09-12T11:49:59Z</time>
      </trkpt>
      <trkpt lat="41.0498960" lon="-2.3729730">
        <ele>1181.2</ele>
        <time>2020-09-12T11:50:00Z</time>
      </trkpt>
      <trkpt lat="41.0498780" lon="-2.3729160">
        <ele>1181.4</ele>
        <time>2020-09-12T11:50:01Z</time>
      </trkpt>
      <trkpt lat="41.0498600" lon="-2.3728600">
        <ele>1181.6</ele>
        <time>2020-09-12T11:50:02Z</time>
      </trkpt>
      <trkpt lat="41.0498430" lon="-2.3728060">
        <ele>1181.8</ele>
        <time>2020-09-12T11:50:03Z</time>
      </trkpt>
      <trkpt lat="41.0498260" lon="-2.3727540">
        <ele>1181.8</ele>
        <time>2020-09-12T11:50:04Z</time>
      </trkpt>
      <trkpt lat="41.0498080" lon="-2.3727020">
        <ele>1181.8</ele>
        <time>2020-09-12T11:50:05Z</time>
      </trkpt>
      <trkpt lat="41.0497900" lon="-2.3726490">
        <ele>1182.0</ele>
        <time>2020-09-12T11:50:06Z</time>
      </trkpt>
      <trkpt lat="41.0497730" lon="-2.3725970">
        <ele>1182.2</ele>
        <time>2020-09-12T11:50:07Z</time>
      </trkpt>
      <trkpt lat="41.0497560" lon="-2.3725460">
        <ele>1182.4</ele>
        <time>2020-09-12T11:50:08Z</time>
      </trkpt>
      <trkpt lat="41.0497410" lon="-2.3724940">
        <ele>1182.6</ele>
        <time>2020-09-12T11:50:09Z</time>
      </trkpt>
      <trkpt lat="41.0497260" lon="-2.3724430">
        <ele>1182.8</ele>
        <time>2020-09-12T11:50:10Z</time>
      </trkpt>
      <trkpt lat="41.0497090" lon="-2.3723910">
        <ele>1183.2</ele>
        <time>2020-09-12T11:50:11Z</time>
      </trkpt>
      <trkpt lat="41.0496920" lon="-2.3723390">
        <ele>1183.2</ele>
        <time>2020-09-12T11:50:12Z</time>
      </trkpt>
      <trkpt lat="41.0496730" lon="-2.3722870">
        <ele>1183.4</ele>
        <time>2020-09-12T11:50:13Z</time>
      </trkpt>
      <trkpt lat="41.0496560" lon="-2.3722340">
        <ele>1183.8</ele>
        <time>2020-09-12T11:50:14Z</time>
      </trkpt>
      <trkpt lat="41.0496400" lon="-2.3721820">
        <ele>1184.0</ele>
        <time>2020-09-12T11:50:15Z</time>
      </trkpt>
      <trkpt lat="41.0496220" lon="-2.3721310">
        <ele>1184.4</ele>
        <time>2020-09-12T11:50:16Z</time>
      </trkpt>
      <trkpt lat="41.0496030" lon="-2.3720810">
        <ele>1184.6</ele>
        <time>2020-09-12T11:50:17Z</time>
      </trkpt>
      <trkpt lat="41.0495860" lon="-2.3720310">
        <ele>1184.6</ele>
        <time>2020-09-12T11:50:18Z</time>
      </trkpt>
      <trkpt lat="41.0495710" lon="-2.3719800">
        <ele>1184.8</ele>
        <time>2020-09-12T11:50:19Z</time>
      </trkpt>
      <trkpt lat="41.0495550" lon="-2.3719300">
        <ele>1184.8</ele>
        <time>2020-09-12T11:50:20Z</time>
      </trkpt>
      <trkpt lat="41.0495390" lon="-2.3718800">
        <ele>1184.8</ele>
        <time>2020-09-12T11:50:21Z</time>
      </trkpt>
      <trkpt lat="41.0495220" lon="-2.3718300">
        <ele>1184.8</ele>
        <time>2020-09-12T11:50:22Z</time>
      </trkpt>
      <trkpt lat="41.0495060" lon="-2.3717800">
        <ele>1185.0</ele>
        <time>2020-09-12T11:50:23Z</time>
      </trkpt>
      <trkpt lat="41.0494900" lon="-2.3717290">
        <ele>1185.4</ele>
        <time>2020-09-12T11:50:24Z</time>
      </trkpt>
      <trkpt lat="41.0494710" lon="-2.3716800">
        <ele>1185.6</ele>
        <time>2020-09-12T11:50:25Z</time>
      </trkpt>
      <trkpt lat="41.0494540" lon="-2.3716310">
        <ele>1185.8</ele>
        <time>2020-09-12T11:50:26Z</time>
      </trkpt>
      <trkpt lat="41.0494390" lon="-2.3715810">
        <ele>1186.0</ele>
        <time>2020-09-12T11:50:27Z</time>
      </trkpt>
      <trkpt lat="41.0494230" lon="-2.3715310">
        <ele>1186.2</ele>
        <time>2020-09-12T11:50:28Z</time>
      </trkpt>
      <trkpt lat="41.0494060" lon="-2.3714820">
        <ele>1186.4</ele>
        <time>2020-09-12T11:50:29Z</time>
      </trkpt>
      <trkpt lat="41.0493910" lon="-2.3714330">
        <ele>1186.6</ele>
        <time>2020-09-12T11:50:30Z</time>
      </trkpt>
      <trkpt lat="41.0493740" lon="-2.3713840">
        <ele>1187.0</ele>
        <time>2020-09-12T11:50:31Z</time>
      </trkpt>
      <trkpt lat="41.0493570" lon="-2.3713360">
        <ele>1187.2</ele>
        <time>2020-09-12T11:50:32Z</time>
      </trkpt>
      <trkpt lat="41.0493430" lon="-2.3712870">
        <ele>1187.4</ele>
        <time>2020-09-12T11:50:33Z</time>
      </trkpt>
      <trkpt lat="41.0493280" lon="-2.3712370">
        <ele>1187.4</ele>
        <time>2020-09-12T11:50:34Z</time>
      </trkpt>
      <trkpt lat="41.0493120" lon="-2.3711890">
        <ele>1187.6</ele>
        <time>2020-09-12T11:50:35Z</time>
      </trkpt>
      <trkpt lat="41.0492960" lon="-2.3711410">
        <ele>1187.8</ele>
        <time>2020-09-12T11:50:36Z</time>
      </trkpt>
      <trkpt lat="41.0492800" lon="-2.3710920">
        <ele>1187.8</ele>
        <time>2020-09-12T11:50:37Z</time>
      </trkpt>
      <trkpt lat="41.0492640" lon="-2.3710440">
        <ele>1188.0</ele>
        <time>2020-09-12T11:50:38Z</time>
      </trkpt>
      <trkpt lat="41.0492490" lon="-2.3709970">
        <ele>1188.2</ele>
        <time>2020-09-12T11:50:39Z</time>
      </trkpt>
      <trkpt lat="41.0492320" lon="-2.3709500">
        <ele>1188.4</ele>
        <time>2020-09-12T11:50:40Z</time>
      </trkpt>
      <trkpt lat="41.0492140" lon="-2.3709030">
        <ele>1188.8</ele>
        <time>2020-09-12T11:50:41Z</time>
      </trkpt>
      <trkpt lat="41.0491980" lon="-2.3708550">
        <ele>1189.0</ele>
        <time>2020-09-12T11:50:42Z</time>
      </trkpt>
      <trkpt lat="41.0491830" lon="-2.3708080">
        <ele>1189.2</ele>
        <time>2020-09-12T11:50:43Z</time>
      </trkpt>
      <trkpt lat="41.0491670" lon="-2.3707610">
        <ele>1189.4</ele>
        <time>2020-09-12T11:50:44Z</time>
      </trkpt>
      <trkpt lat="41.0491510" lon="-2.3707160">
        <ele>1189.6</ele>
        <time>2020-09-12T11:50:45Z</time>
      </trkpt>
      <trkpt lat="41.0491340" lon="-2.3706700">
        <ele>1189.8</ele>
        <time>2020-09-12T11:50:46Z</time>
      </trkpt>
      <trkpt lat="41.0491180" lon="-2.3706220">
        <ele>1190.0</ele>
        <time>2020-09-12T11:50:47Z</time>
      </trkpt>
      <trkpt lat="41.0491040" lon="-2.3705740">
        <ele>1190.2</ele>
        <time>2020-09-12T11:50:48Z</time>
      </trkpt>
      <trkpt lat="41.0490880" lon="-2.3705250">
        <ele>1190.4</ele>
        <time>2020-09-12T11:50:49Z</time>
      </trkpt>
      <trkpt lat="41.0490720" lon="-2.3704760">
        <ele>1190.6</ele>
        <time>2020-09-12T11:50:50Z</time>
      </trkpt>
      <trkpt lat="41.0490560" lon="-2.3704270">
        <ele>1190.6</ele>
        <time>2020-09-12T11:50:51Z</time>
      </trkpt>
      <trkpt lat="41.0490390" lon="-2.3703790">
        <ele>1190.8</ele>
        <time>2020-09-12T11:50:52Z</time>
      </trkpt>
      <trkpt lat="41.0490220" lon="-2.3703300">
        <ele>1191.0</ele>
        <time>2020-09-12T11:50:53Z</time>
      </trkpt>
      <trkpt lat="41.0490040" lon="-2.3702810">
        <ele>1191.2</ele>
        <time>2020-09-12T11:50:54Z</time>
      </trkpt>
      <trkpt lat="41.0489840" lon="-2.3702310">
        <ele>1191.6</ele>
        <time>2020-09-12T11:50:55Z</time>
      </trkpt>
      <trkpt lat="41.0489660" lon="-2.3701810">
        <ele>1192.0</ele>
        <time>2020-09-12T11:50:56Z</time>
      </trkpt>
      <trkpt lat="41.0489490" lon="-2.3701300">
        <ele>1192.4</ele>
        <time>2020-09-12T11:50:57Z</time>
      </trkpt>
      <trkpt lat="41.0489320" lon="-2.3700790">
        <ele>1192.6</ele>
        <time>2020-09-12T11:50:58Z</time>
      </trkpt>
      <trkpt lat="41.0489130" lon="-2.3700280">
        <ele>1192.8</ele>
        <time>2020-09-12T11:50:59Z</time>
      </trkpt>
      <trkpt lat="41.0488960" lon="-2.3699770">
        <ele>1193.0</ele>
        <time>2020-09-12T11:51:00Z</time>
      </trkpt>
      <trkpt lat="41.0488810" lon="-2.3699270">
        <ele>1193.0</ele>
        <time>2020-09-12T11:51:01Z</time>
      </trkpt>
      <trkpt lat="41.0488640" lon="-2.3698780">
        <ele>1193.2</ele>
        <time>2020-09-12T11:51:02Z</time>
      </trkpt>
      <trkpt lat="41.0488460" lon="-2.3698310">
        <ele>1193.2</ele>
        <time>2020-09-12T11:51:03Z</time>
      </trkpt>
      <trkpt lat="41.0488310" lon="-2.3697840">
        <ele>1193.4</ele>
        <time>2020-09-12T11:51:04Z</time>
      </trkpt>
      <trkpt lat="41.0488160" lon="-2.3697380">
        <ele>1193.8</ele>
        <time>2020-09-12T11:51:05Z</time>
      </trkpt>
      <trkpt lat="41.0488010" lon="-2.3696920">
        <ele>1194.0</ele>
        <time>2020-09-12T11:51:06Z</time>
      </trkpt>
      <trkpt lat="41.0487850" lon="-2.3696450">
        <ele>1194.2</ele>
        <time>2020-09-12T11:51:07Z</time>
      </trkpt>
      <trkpt lat="41.0487670" lon="-2.3695990">
        <ele>1194.4</ele>
        <time>2020-09-12T11:51:08Z</time>
      </trkpt>
      <trkpt lat="41.0487500" lon="-2.3695490">
        <ele>1194.6</ele>
        <time>2020-09-12T11:51:09Z</time>
      </trkpt>
      <trkpt lat="41.0487340" lon="-2.3694980">
        <ele>1194.8</ele>
        <time>2020-09-12T11:51:10Z</time>
      </trkpt>
      <trkpt lat="41.0487160" lon="-2.3694450">
        <ele>1195.0</ele>
        <time>2020-09-12T11:51:11Z</time>
      </trkpt>
      <trkpt lat="41.0486970" lon="-2.3693920">
        <ele>1195.4</ele>
        <time>2020-09-12T11:51:12Z</time>
      </trkpt>
      <trkpt lat="41.0486790" lon="-2.3693400">
        <ele>1195.6</ele>
        <time>2020-09-12T11:51:13Z</time>
      </trkpt>
      <trkpt lat="41.0486620" lon="-2.3692870">
        <ele>1195.8</ele>
        <time>2020-09-12T11:51:14Z</time>
      </trkpt>
      <trkpt lat="41.0486430" lon="-2.3692370">
        <ele>1196.0</ele>
        <time>2020-09-12T11:51:15Z</time>
      </trkpt>
      <trkpt lat="41.0486250" lon="-2.3691870">
        <ele>1196.2</ele>
        <time>2020-09-12T11:51:16Z</time>
      </trkpt>
      <trkpt lat="41.0486080" lon="-2.3691370">
        <ele>1196.4</ele>
        <time>2020-09-12T11:51:17Z</time>
      </trkpt>
      <trkpt lat="41.0485920" lon="-2.3690870">
        <ele>1196.6</ele>
        <time>2020-09-12T11:51:18Z</time>
      </trkpt>
      <trkpt lat="41.0485760" lon="-2.3690370">
        <ele>1196.8</ele>
        <time>2020-09-12T11:51:19Z</time>
      </trkpt>
      <trkpt lat="41.0485590" lon="-2.3689860">
        <ele>1196.8</ele>
        <time>2020-09-12T11:51:20Z</time>
      </trkpt>
      <trkpt lat="41.0485420" lon="-2.3689360">
        <ele>1197.0</ele>
        <time>2020-09-12T11:51:21Z</time>
      </trkpt>
      <trkpt lat="41.0485260" lon="-2.3688860">
        <ele>1197.4</ele>
        <time>2020-09-12T11:51:22Z</time>
      </trkpt>
      <trkpt lat="41.0485110" lon="-2.3688350">
        <ele>1197.8</ele>
        <time>2020-09-12T11:51:23Z</time>
      </trkpt>
      <trkpt lat="41.0485000" lon="-2.3687840">
        <ele>1198.2</ele>
        <time>2020-09-12T11:51:24Z</time>
      </trkpt>
      <trkpt lat="41.0484860" lon="-2.3687340">
        <ele>1198.6</ele>
        <time>2020-09-12T11:51:25Z</time>
      </trkpt>
      <trkpt lat="41.0484690" lon="-2.3686890">
        <ele>1199.0</ele>
        <time>2020-09-12T11:51:26Z</time>
      </trkpt>
      <trkpt lat="41.0484530" lon="-2.3686430">
        <ele>1199.2</ele>
        <time>2020-09-12T11:51:27Z</time>
      </trkpt>
      <trkpt lat="41.0484370" lon="-2.3685980">
        <ele>1199.4</ele>
        <time>2020-09-12T11:51:28Z</time>
      </trkpt>
      <trkpt lat="41.0484230" lon="-2.3685520">
        <ele>1199.6</ele>
        <time>2020-09-12T11:51:29Z</time>
      </trkpt>
      <trkpt lat="41.0484100" lon="-2.3685050">
        <ele>1199.6</ele>
        <time>2020-09-12T11:51:30Z</time>
      </trkpt>
      <trkpt lat="41.0483980" lon="-2.3684590">
        <ele>1199.8</ele>
        <time>2020-09-12T11:51:31Z</time>
      </trkpt>
      <trkpt lat="41.0483860" lon="-2.3684120">
        <ele>1199.8</ele>
        <time>2020-09-12T11:51:32Z</time>
      </trkpt>
      <trkpt lat="41.0483740" lon="-2.3683640">
        <ele>1200.0</ele>
        <time>2020-09-12T11:51:33Z</time>
      </trkpt>
      <trkpt lat="41.0483620" lon="-2.3683160">
        <ele>1200.4</ele>
        <time>2020-09-12T11:51:34Z</time>
      </trkpt>
      <trkpt lat="41.0483480" lon="-2.3682670">
        <ele>1200.6</ele>
        <time>2020-09-12T11:51:35Z</time>
      </trkpt>
      <trkpt lat="41.0483330" lon="-2.3682190">
        <ele>1201.2</ele>
        <time>2020-09-12T11:51:36Z</time>
      </trkpt>
      <trkpt lat="41.0483180" lon="-2.3681690">
        <ele>1201.6</ele>
        <time>2020-09-12T11:51:37Z</time>
      </trkpt>
      <trkpt lat="41.0483030" lon="-2.3681190">
        <ele>1201.8</ele>
        <time>2020-09-12T11:51:38Z</time>
      </trkpt>
      <trkpt lat="41.0482880" lon="-2.3680690">
        <ele>1201.8</ele>
        <time>2020-09-12T11:51:39Z</time>
      </trkpt>
      <trkpt lat="41.0482750" lon="-2.3680190">
        <ele>1202.0</ele>
        <time>2020-09-12T11:51:40Z</time>
      </trkpt>
      <trkpt lat="41.0482620" lon="-2.3679670">
        <ele>1202.2</ele>
        <time>2020-09-12T11:51:41Z</time>
      </trkpt>
      <trkpt lat="41.0482500" lon="-2.3679170">
        <ele>1202.4</ele>
        <time>2020-09-12T11:51:42Z</time>
      </trkpt>
      <trkpt lat="41.0482400" lon="-2.3678670">
        <ele>1202.6</ele>
        <time>2020-09-12T11:51:43Z</time>
      </trkpt>
      <trkpt lat="41.0482290" lon="-2.3678160">
        <ele>1202.8</ele>
        <time>2020-09-12T11:51:44Z</time>
      </trkpt>
      <trkpt lat="41.0482170" lon="-2.3677650">
        <ele>1203.0</ele>
        <time>2020-09-12T11:51:45Z</time>
      </trkpt>
      <trkpt lat="41.0482040" lon="-2.3677140">
        <ele>1203.2</ele>
        <time>2020-09-12T11:51:46Z</time>
      </trkpt>
      <trkpt lat="41.0481930" lon="-2.3676620">
        <ele>1203.4</ele>
        <time>2020-09-12T11:51:47Z</time>
      </trkpt>
      <trkpt lat="41.0481840" lon="-2.3676090">
        <ele>1203.6</ele>
        <time>2020-09-12T11:51:48Z</time>
      </trkpt>
      <trkpt lat="41.0481740" lon="-2.3675570">
        <ele>1203.8</ele>
        <time>2020-09-12T11:51:49Z</time>
      </trkpt>
      <trkpt lat="41.0481630" lon="-2.3675030">
        <ele>1204.0</ele>
        <time>2020-09-12T11:51:50Z</time>
      </trkpt>
      <trkpt lat="41.0481530" lon="-2.3674490">
        <ele>1204.2</ele>
        <time>2020-09-12T11:51:51Z</time>
      </trkpt>
      <trkpt lat="41.0481430" lon="-2.3673940">
        <ele>1204.4</ele>
        <time>2020-09-12T11:51:52Z</time>
      </trkpt>
      <trkpt lat="41.0481350" lon="-2.3673370">
        <ele>1204.6</ele>
        <time>2020-09-12T11:51:53Z</time>
      </trkpt>
      <trkpt lat="41.0481260" lon="-2.3672790">
        <ele>1204.8</ele>
        <time>2020-09-12T11:51:54Z</time>
      </trkpt>
      <trkpt lat="41.0481180" lon="-2.3672190">
        <ele>1205.0</ele>
        <time>2020-09-12T11:51:55Z</time>
      </trkpt>
      <trkpt lat="41.0481080" lon="-2.3671590">
        <ele>1205.0</ele>
        <time>2020-09-12T11:51:56Z</time>
      </trkpt>
      <trkpt lat="41.0480980" lon="-2.3670990">
        <ele>1205.2</ele>
        <time>2020-09-12T11:51:57Z</time>
      </trkpt>
      <trkpt lat="41.0480900" lon="-2.3670370">
        <ele>1205.4</ele>
        <time>2020-09-12T11:51:58Z</time>
      </trkpt>
      <trkpt lat="41.0480800" lon="-2.3669760">
        <ele>1205.8</ele>
        <time>2020-09-12T11:51:59Z</time>
      </trkpt>
      <trkpt lat="41.0480680" lon="-2.3669150">
        <ele>1206.0</ele>
        <time>2020-09-12T11:52:00Z</time>
      </trkpt>
      <trkpt lat="41.0480580" lon="-2.3668530">
        <ele>1206.0</ele>
        <time>2020-09-12T11:52:01Z</time>
      </trkpt>
      <trkpt lat="41.0480490" lon="-2.3667920">
        <ele>1206.2</ele>
        <time>2020-09-12T11:52:02Z</time>
      </trkpt>
      <trkpt lat="41.0480410" lon="-2.3667320">
        <ele>1206.4</ele>
        <time>2020-09-12T11:52:03Z</time>
      </trkpt>
      <trkpt lat="41.0480340" lon="-2.3666710">
        <ele>1206.6</ele>
        <time>2020-09-12T11:52:04Z</time>
      </trkpt>
      <trkpt lat="41.0480280" lon="-2.3666100">
        <ele>1206.6</ele>
        <time>2020-09-12T11:52:05Z</time>
      </trkpt>
      <trkpt lat="41.0480220" lon="-2.3665500">
        <ele>1206.8</ele>
        <time>2020-09-12T11:52:06Z</time>
      </trkpt>
      <trkpt lat="41.0480160" lon="-2.3664920">
        <ele>1206.8</ele>
        <time>2020-09-12T11:52:07Z</time>
      </trkpt>
      <trkpt lat="41.0480100" lon="-2.3664340">
        <ele>1207.0</ele>
        <time>2020-09-12T11:52:08Z</time>
      </trkpt>
      <trkpt lat="41.0480050" lon="-2.3663780">
        <ele>1207.2</ele>
        <time>2020-09-12T11:52:09Z</time>
      </trkpt>
      <trkpt lat="41.0479990" lon="-2.3663220">
        <ele>1207.4</ele>
        <time>2020-09-12T11:52:10Z</time>
      </trkpt>
      <trkpt lat="41.0479930" lon="-2.3662680">
        <ele>1207.4</ele>
        <time>2020-09-12T11:52:11Z</time>
      </trkpt>
      <trkpt lat="41.0479890" lon="-2.3662140">
        <ele>1207.6</ele>
        <time>2020-09-12T11:52:12Z</time>
      </trkpt>
      <trkpt lat="41.0479860" lon="-2.3661600">
        <ele>1207.8</ele>
        <time>2020-09-12T11:52:13Z</time>
      </trkpt>
      <trkpt lat="41.0479840" lon="-2.3661060">
        <ele>1208.2</ele>
        <time>2020-09-12T11:52:14Z</time>
      </trkpt>
      <trkpt lat="41.0479830" lon="-2.3660530">
        <ele>1208.6</ele>
        <time>2020-09-12T11:52:15Z</time>
      </trkpt>
      <trkpt lat="41.0479830" lon="-2.3659980">
        <ele>1208.8</ele>
        <time>2020-09-12T11:52:16Z</time>
      </trkpt>
      <trkpt lat="41.0479800" lon="-2.3659430">
        <ele>1208.8</ele>
        <time>2020-09-12T11:52:17Z</time>
      </trkpt>
      <trkpt lat="41.0479780" lon="-2.3658860">
        <ele>1209.0</ele>
        <time>2020-09-12T11:52:18Z</time>
      </trkpt>
      <trkpt lat="41.0479780" lon="-2.3658290">
        <ele>1209.4</ele>
        <time>2020-09-12T11:52:19Z</time>
      </trkpt>
      <trkpt lat="41.0479790" lon="-2.3657710">
        <ele>1209.4</ele>
        <time>2020-09-12T11:52:20Z</time>
      </trkpt>
      <trkpt lat="41.0479810" lon="-2.3657120">
        <ele>1209.6</ele>
        <time>2020-09-12T11:52:21Z</time>
      </trkpt>
      <trkpt lat="41.0479820" lon="-2.3656530">
        <ele>1209.8</ele>
        <time>2020-09-12T11:52:22Z</time>
      </trkpt>
      <trkpt lat="41.0479840" lon="-2.3655950">
        <ele>1210.0</ele>
        <time>2020-09-12T11:52:23Z</time>
      </trkpt>
      <trkpt lat="41.0479890" lon="-2.3655370">
        <ele>1210.2</ele>
        <time>2020-09-12T11:52:24Z</time>
      </trkpt>
      <trkpt lat="41.0479950" lon="-2.3654790">
        <ele>1210.4</ele>
        <time>2020-09-12T11:52:25Z</time>
      </trkpt>
      <trkpt lat="41.0479990" lon="-2.3654210">
        <ele>1210.6</ele>
        <time>2020-09-12T11:52:26Z</time>
      </trkpt>
      <trkpt lat="41.0480030" lon="-2.3653610">
        <ele>1210.8</ele>
        <time>2020-09-12T11:52:27Z</time>
      </trkpt>
      <trkpt lat="41.0480060" lon="-2.3653010">
        <ele>1211.0</ele>
        <time>2020-09-12T11:52:28Z</time>
      </trkpt>
      <trkpt lat="41.0480100" lon="-2.3652400">
        <ele>1211.2</ele>
        <time>2020-09-12T11:52:29Z</time>
      </trkpt>
      <trkpt lat="41.0480140" lon="-2.3651800">
        <ele>1211.4</ele>
        <time>2020-09-12T11:52:30Z</time>
      </trkpt>
      <trkpt lat="41.0480210" lon="-2.3651200">
        <ele>1211.6</ele>
        <time>2020-09-12T11:52:31Z</time>
      </trkpt>
      <trkpt lat="41.0480300" lon="-2.3650600">
        <ele>1212.0</ele>
        <time>2020-09-12T11:52:32Z</time>
      </trkpt>
      <trkpt lat="41.0480390" lon="-2.3650000">
        <ele>1212.0</ele>
        <time>2020-09-12T11:52:33Z</time>
      </trkpt>
      <trkpt lat="41.0480480" lon="-2.3649410">
        <ele>1212.2</ele>
        <time>2020-09-12T11:52:34Z</time>
      </trkpt>
      <trkpt lat="41.0480590" lon="-2.3648830">
        <ele>1212.4</ele>
        <time>2020-09-12T11:52:35Z</time>
      </trkpt>
      <trkpt lat="41.0480700" lon="-2.3648240">
        <ele>1212.4</ele>
        <time>2020-09-12T11:52:36Z</time>
      </trkpt>
      <trkpt lat="41.0480820" lon="-2.3647640">
        <ele>1212.4</ele>
        <time>2020-09-12T11:52:37Z</time>
      </trkpt>
      <trkpt lat="41.0480950" lon="-2.3647020">
        <ele>1212.6</ele>
        <time>2020-09-12T11:52:38Z</time>
      </trkpt>
      <trkpt lat="41.0481100" lon="-2.3646360">
        <ele>1212.8</ele>
        <time>2020-09-12T11:52:39Z</time>
      </trkpt>
      <trkpt lat="41.0481250" lon="-2.3645700">
        <ele>1213.0</ele>
        <time>2020-09-12T11:52:40Z</time>
      </trkpt>
      <trkpt lat="41.0481400" lon="-2.3645060">
        <ele>1213.2</ele>
        <time>2020-09-12T11:52:41Z</time>
      </trkpt>
      <trkpt lat="41.0481560" lon="-2.3644420">
        <ele>1213.4</ele>
        <time>2020-09-12T11:52:42Z</time>
      </trkpt>
      <trkpt lat="41.0481710" lon="-2.3643800">
        <ele>1213.4</ele>
        <time>2020-09-12T11:52:43Z</time>
      </trkpt>
      <trkpt lat="41.0481870" lon="-2.3643180">
        <ele>1213.6</ele>
        <time>2020-09-12T11:52:44Z</time>
      </trkpt>
      <trkpt lat="41.0482040" lon="-2.3642570">
        <ele>1213.8</ele>
        <time>2020-09-12T11:52:45Z</time>
      </trkpt>
      <trkpt lat="41.0482210" lon="-2.3641950">
        <ele>1213.8</ele>
        <time>2020-09-12T11:52:46Z</time>
      </trkpt>
      <trkpt lat="41.0482400" lon="-2.3641340">
        <ele>1214.0</ele>
        <time>2020-09-12T11:52:47Z</time>
      </trkpt>
      <trkpt lat="41.0482600" lon="-2.3640740">
        <ele>1214.2</ele>
        <time>2020-09-12T11:52:48Z</time>
      </trkpt>
      <trkpt lat="41.0482800" lon="-2.3640140">
        <ele>1214.4</ele>
        <time>2020-09-12T11:52:49Z</time>
      </trkpt>
      <trkpt lat="41.0483000" lon="-2.3639520">
        <ele>1214.4</ele>
        <time>2020-09-12T11:52:50Z</time>
      </trkpt>
      <trkpt lat="41.0483220" lon="-2.3638880">
        <ele>1214.4</ele>
        <time>2020-09-12T11:52:51Z</time>
      </trkpt>
      <trkpt lat="41.0483450" lon="-2.3638240">
        <ele>1214.6</ele>
        <time>2020-09-12T11:52:52Z</time>
      </trkpt>
      <trkpt lat="41.0483700" lon="-2.3637590">
        <ele>1214.6</ele>
        <time>2020-09-12T11:52:53Z</time>
      </trkpt>
      <trkpt lat="41.0483970" lon="-2.3636920">
        <ele>1214.6</ele>
        <time>2020-09-12T11:52:54Z</time>
      </trkpt>
      <trkpt lat="41.0484250" lon="-2.3636230">
        <ele>1214.8</ele>
        <time>2020-09-12T11:52:55Z</time>
      </trkpt>
      <trkpt lat="41.0484530" lon="-2.3635550">
        <ele>1215.0</ele>
        <time>2020-09-12T11:52:56Z</time>
      </trkpt>
      <trkpt lat="41.0484800" lon="-2.3634870">
        <ele>1215.2</ele>
        <time>2020-09-12T11:52:57Z</time>
      </trkpt>
      <trkpt lat="41.0485100" lon="-2.3634190">
        <ele>1215.2</ele>
        <time>2020-09-12T11:52:58Z</time>
      </trkpt>
      <trkpt lat="41.0485400" lon="-2.3633530">
        <ele>1215.4</ele>
        <time>2020-09-12T11:52:59Z</time>
      </trkpt>
      <trkpt lat="41.0485710" lon="-2.3632870">
        <ele>1215.4</ele>
        <time>2020-09-12T11:53:00Z</time>
      </trkpt>
      <trkpt lat="41.0486010" lon="-2.3632220">
        <ele>1215.6</ele>
        <time>2020-09-12T11:53:01Z</time>
      </trkpt>
      <trkpt lat="41.0486320" lon="-2.3631600">
        <ele>1215.6</ele>
        <time>2020-09-12T11:53:02Z</time>
      </trkpt>
      <trkpt lat="41.0486630" lon="-2.3631000">
        <ele>1215.8</ele>
        <time>2020-09-12T11:53:03Z</time>
      </trkpt>
      <trkpt lat="41.0486930" lon="-2.3630420">
        <ele>1215.8</ele>
        <time>2020-09-12T11:53:04Z</time>
      </trkpt>
      <trkpt lat="41.0487220" lon="-2.3629830">
        <ele>1215.6</ele>
        <time>2020-09-12T11:53:05Z</time>
      </trkpt>
      <trkpt lat="41.0487490" lon="-2.3629250">
        <ele>1215.6</ele>
        <time>2020-09-12T11:53:06Z</time>
      </trkpt>
      <trkpt lat="41.0487760" lon="-2.3628700">
        <ele>1215.6</ele>
        <time>2020-09-12T11:53:07Z</time>
      </trkpt>
      <trkpt lat="41.0488030" lon="-2.3628150">
        <ele>1215.6</ele>
        <time>2020-09-12T11:53:08Z</time>
      </trkpt>
      <trkpt lat="41.0488310" lon="-2.3627620">
        <ele>1215.6</ele>
        <time>2020-09-12T11:53:09Z</time>
      </trkpt>
      <trkpt lat="41.0488570" lon="-2.3627100">
        <ele>1215.8</ele>
        <time>2020-09-12T11:53:10Z</time>
      </trkpt>
      <trkpt lat="41.0488830" lon="-2.3626580">
        <ele>1215.8</ele>
        <time>2020-09-12T11:53:11Z</time>
      </trkpt>
      <trkpt lat="41.0489070" lon="-2.3626060">
        <ele>1215.8</ele>
        <time>2020-09-12T11:53:12Z</time>
      </trkpt>
      <trkpt lat="41.0489290" lon="-2.3625570">
        <ele>1215.8</ele>
        <time>2020-09-12T11:53:13Z</time>
      </trkpt>
      <trkpt lat="41.0489530" lon="-2.3625080">
        <ele>1215.8</ele>
        <time>2020-09-12T11:53:14Z</time>
      </trkpt>
      <trkpt lat="41.0489760" lon="-2.3624600">
        <ele>1215.8</ele>
        <time>2020-09-12T11:53:15Z</time>
      </trkpt>
      <trkpt lat="41.0489990" lon="-2.3624100">
        <ele>1215.8</ele>
        <time>2020-09-12T11:53:16Z</time>
      </trkpt>
      <trkpt lat="41.0490240" lon="-2.3623590">
        <ele>1215.6</ele>
        <time>2020-09-12T11:53:17Z</time>
      </trkpt>
      <trkpt lat="41.0490950" lon="-2.3621960">
        <ele>1215.4</ele>
        <time>2020-09-12T11:53:20Z</time>
      </trkpt>
      <trkpt lat="41.0491190" lon="-2.3621390">
        <ele>1215.6</ele>
        <time>2020-09-12T11:53:21Z</time>
      </trkpt>
      <trkpt lat="41.0491420" lon="-2.3620820">
        <ele>1215.6</ele>
        <time>2020-09-12T11:53:22Z</time>
      </trkpt>
      <trkpt lat="41.0491630" lon="-2.3620240">
        <ele>1215.6</ele>
        <time>2020-09-12T11:53:23Z</time>
      </trkpt>
      <trkpt lat="41.0491840" lon="-2.3619650">
        <ele>1215.6</ele>
        <time>2020-09-12T11:53:24Z</time>
      </trkpt>
      <trkpt lat="41.0492060" lon="-2.3619060">
        <ele>1215.6</ele>
        <time>2020-09-12T11:53:25Z</time>
      </trkpt>
      <trkpt lat="41.0492290" lon="-2.3618470">
        <ele>1215.6</ele>
        <time>2020-09-12T11:53:26Z</time>
      </trkpt>
      <trkpt lat="41.0492500" lon="-2.3617880">
        <ele>1215.6</ele>
        <time>2020-09-12T11:53:27Z</time>
      </trkpt>
      <trkpt lat="41.0492700" lon="-2.3617280">
        <ele>1215.6</ele>
        <time>2020-09-12T11:53:28Z</time>
      </trkpt>
      <trkpt lat="41.0492890" lon="-2.3616630">
        <ele>1215.6</ele>
        <time>2020-09-12T11:53:29Z</time>
      </trkpt>
      <trkpt lat="41.0493080" lon="-2.3615950">
        <ele>1215.6</ele>
        <time>2020-09-12T11:53:30Z</time>
      </trkpt>
      <trkpt lat="41.0493290" lon="-2.3615250">
        <ele>1215.6</ele>
        <time>2020-09-12T11:53:31Z</time>
      </trkpt>
      <trkpt lat="41.0493500" lon="-2.3614540">
        <ele>1215.6</ele>
        <time>2020-09-12T11:53:32Z</time>
      </trkpt>
      <trkpt lat="41.0493690" lon="-2.3613790">
        <ele>1215.6</ele>
        <time>2020-09-12T11:53:33Z</time>
      </trkpt>
      <trkpt lat="41.0493870" lon="-2.3613010">
        <ele>1215.6</ele>
        <time>2020-09-12T11:53:34Z</time>
      </trkpt>
      <trkpt lat="41.0494040" lon="-2.3612200">
        <ele>1215.6</ele>
        <time>2020-09-12T11:53:35Z</time>
      </trkpt>
      <trkpt lat="41.0494210" lon="-2.3611370">
        <ele>1215.4</ele>
        <time>2020-09-12T11:53:36Z</time>
      </trkpt>
      <trkpt lat="41.0494390" lon="-2.3610540">
        <ele>1215.4</ele>
        <time>2020-09-12T11:53:37Z</time>
      </trkpt>
      <trkpt lat="41.0494560" lon="-2.3609690">
        <ele>1215.4</ele>
        <time>2020-09-12T11:53:38Z</time>
      </trkpt>
      <trkpt lat="41.0494730" lon="-2.3608840">
        <ele>1215.4</ele>
        <time>2020-09-12T11:53:39Z</time>
      </trkpt>
      <trkpt lat="41.0494870" lon="-2.3607970">
        <ele>1215.4</ele>
        <time>2020-09-12T11:53:40Z</time>
      </trkpt>
      <trkpt lat="41.0495000" lon="-2.3607070">
        <ele>1215.4</ele>
        <time>2020-09-12T11:53:41Z</time>
      </trkpt>
      <trkpt lat="41.0495120" lon="-2.3606150">
        <ele>1215.4</ele>
        <time>2020-09-12T11:53:42Z</time>
      </trkpt>
      <trkpt lat="41.0495230" lon="-2.3605220">
        <ele>1215.4</ele>
        <time>2020-09-12T11:53:43Z</time>
      </trkpt>
      <trkpt lat="41.0495320" lon="-2.3604290">
        <ele>1215.4</ele>
        <time>2020-09-12T11:53:44Z</time>
      </trkpt>
      <trkpt lat="41.0495400" lon="-2.3603350">
        <ele>1215.4</ele>
        <time>2020-09-12T11:53:45Z</time>
      </trkpt>
      <trkpt lat="41.0495460" lon="-2.3602410">
        <ele>1215.6</ele>
        <time>2020-09-12T11:53:46Z</time>
      </trkpt>
      <trkpt lat="41.0495510" lon="-2.3601470">
        <ele>1216.0</ele>
        <time>2020-09-12T11:53:47Z</time>
      </trkpt>
      <trkpt lat="41.0495550" lon="-2.3600520">
        <ele>1216.4</ele>
        <time>2020-09-12T11:53:48Z</time>
      </trkpt>
      <trkpt lat="41.0495580" lon="-2.3599590">
        <ele>1216.8</ele>
        <time>2020-09-12T11:53:49Z</time>
      </trkpt>
      <trkpt lat="41.0495590" lon="-2.3598670">
        <ele>1216.8</ele>
        <time>2020-09-12T11:53:50Z</time>
      </trkpt>
      <trkpt lat="41.0495590" lon="-2.3597730">
        <ele>1216.8</ele>
        <time>2020-09-12T11:53:51Z</time>
      </trkpt>
      <trkpt lat="41.0495610" lon="-2.3596800">
        <ele>1216.8</ele>
        <time>2020-09-12T11:53:52Z</time>
      </trkpt>
      <trkpt lat="41.0495630" lon="-2.3595870">
        <ele>1216.6</ele>
        <time>2020-09-12T11:53:53Z</time>
      </trkpt>
      <trkpt lat="41.0495630" lon="-2.3594930">
        <ele>1216.4</ele>
        <time>2020-09-12T11:53:54Z</time>
      </trkpt>
      <trkpt lat="41.0495640" lon="-2.3593980">
        <ele>1216.0</ele>
        <time>2020-09-12T11:53:55Z</time>
      </trkpt>
      <trkpt lat="41.0495640" lon="-2.3593020">
        <ele>1215.8</ele>
        <time>2020-09-12T11:53:56Z</time>
      </trkpt>
      <trkpt lat="41.0495650" lon="-2.3592050">
        <ele>1215.6</ele>
        <time>2020-09-12T11:53:57Z</time>
      </trkpt>
      <trkpt lat="41.0495670" lon="-2.3591070">
        <ele>1215.6</ele>
        <time>2020-09-12T11:53:58Z</time>
      </trkpt>
      <trkpt lat="41.0495680" lon="-2.3590090">
        <ele>1215.4</ele>
        <time>2020-09-12T11:53:59Z</time>
      </trkpt>
      <trkpt lat="41.0495680" lon="-2.3589130">
        <ele>1215.4</ele>
        <time>2020-09-12T11:54:00Z</time>
      </trkpt>
      <trkpt lat="41.0495680" lon="-2.3588150">
        <ele>1215.4</ele>
        <time>2020-09-12T11:54:01Z</time>
      </trkpt>
      <trkpt lat="41.0495690" lon="-2.3587190">
        <ele>1215.4</ele>
        <time>2020-09-12T11:54:02Z</time>
      </trkpt>
      <trkpt lat="41.0495710" lon="-2.3586240">
        <ele>1215.4</ele>
        <time>2020-09-12T11:54:03Z</time>
      </trkpt>
      <trkpt lat="41.0495710" lon="-2.3585290">
        <ele>1215.2</ele>
        <time>2020-09-12T11:54:04Z</time>
      </trkpt>
      <trkpt lat="41.0495720" lon="-2.3584340">
        <ele>1215.2</ele>
        <time>2020-09-12T11:54:05Z</time>
      </trkpt>
      <trkpt lat="41.0495740" lon="-2.3583380">
        <ele>1215.0</ele>
        <time>2020-09-12T11:54:06Z</time>
      </trkpt>
      <trkpt lat="41.0495750" lon="-2.3582420">
        <ele>1215.0</ele>
        <time>2020-09-12T11:54:07Z</time>
      </trkpt>
      <trkpt lat="41.0495760" lon="-2.3581450">
        <ele>1215.0</ele>
        <time>2020-09-12T11:54:08Z</time>
      </trkpt>
      <trkpt lat="41.0495770" lon="-2.3580470">
        <ele>1215.0</ele>
        <time>2020-09-12T11:54:09Z</time>
      </trkpt>
      <trkpt lat="41.0495790" lon="-2.3579490">
        <ele>1214.8</ele>
        <time>2020-09-12T11:54:10Z</time>
      </trkpt>
      <trkpt lat="41.0495800" lon="-2.3578500">
        <ele>1214.8</ele>
        <time>2020-09-12T11:54:11Z</time>
      </trkpt>
      <trkpt lat="41.0495820" lon="-2.3577480">
        <ele>1214.8</ele>
        <time>2020-09-12T11:54:12Z</time>
      </trkpt>
      <trkpt lat="41.0495840" lon="-2.3576450">
        <ele>1214.6</ele>
        <time>2020-09-12T11:54:13Z</time>
      </trkpt>
      <trkpt lat="41.0495850" lon="-2.3575410">
        <ele>1214.6</ele>
        <time>2020-09-12T11:54:14Z</time>
      </trkpt>
      <trkpt lat="41.0495860" lon="-2.3574350">
        <ele>1214.4</ele>
        <time>2020-09-12T11:54:15Z</time>
      </trkpt>
      <trkpt lat="41.0495880" lon="-2.3573310">
        <ele>1214.4</ele>
        <time>2020-09-12T11:54:16Z</time>
      </trkpt>
      <trkpt lat="41.0495890" lon="-2.3572260">
        <ele>1214.2</ele>
        <time>2020-09-12T11:54:17Z</time>
      </trkpt>
      <trkpt lat="41.0495890" lon="-2.3571210">
        <ele>1214.0</ele>
        <time>2020-09-12T11:54:18Z</time>
      </trkpt>
      <trkpt lat="41.0495880" lon="-2.3570160">
        <ele>1214.0</ele>
        <time>2020-09-12T11:54:19Z</time>
      </trkpt>
      <trkpt lat="41.0495890" lon="-2.3569110">
        <ele>1213.8</ele>
        <time>2020-09-12T11:54:20Z</time>
      </trkpt>
      <trkpt lat="41.0495920" lon="-2.3568060">
        <ele>1213.8</ele>
        <time>2020-09-12T11:54:21Z</time>
      </trkpt>
      <trkpt lat="41.0495940" lon="-2.3567010">
        <ele>1213.6</ele>
        <time>2020-09-12T11:54:22Z</time>
      </trkpt>
      <trkpt lat="41.0495950" lon="-2.3565970">
        <ele>1213.4</ele>
        <time>2020-09-12T11:54:23Z</time>
      </trkpt>
      <trkpt lat="41.0495960" lon="-2.3564940">
        <ele>1213.2</ele>
        <time>2020-09-12T11:54:24Z</time>
      </trkpt>
      <trkpt lat="41.0495960" lon="-2.3563920">
        <ele>1213.0</ele>
        <time>2020-09-12T11:54:25Z</time>
      </trkpt>
      <trkpt lat="41.0495970" lon="-2.3562880">
        <ele>1212.8</ele>
        <time>2020-09-12T11:54:26Z</time>
      </trkpt>
      <trkpt lat="41.0495980" lon="-2.3561830">
        <ele>1212.6</ele>
        <time>2020-09-12T11:54:27Z</time>
      </trkpt>
      <trkpt lat="41.0496000" lon="-2.3560770">
        <ele>1212.6</ele>
        <time>2020-09-12T11:54:28Z</time>
      </trkpt>
      <trkpt lat="41.0496020" lon="-2.3559710">
        <ele>1212.4</ele>
        <time>2020-09-12T11:54:29Z</time>
      </trkpt>
      <trkpt lat="41.0496020" lon="-2.3558660">
        <ele>1212.4</ele>
        <time>2020-09-12T11:54:30Z</time>
      </trkpt>
      <trkpt lat="41.0496030" lon="-2.3557620">
        <ele>1212.4</ele>
        <time>2020-09-12T11:54:31Z</time>
      </trkpt>
      <trkpt lat="41.0496050" lon="-2.3556600">
        <ele>1212.6</ele>
        <time>2020-09-12T11:54:32Z</time>
      </trkpt>
      <trkpt lat="41.0496070" lon="-2.3555580">
        <ele>1212.6</ele>
        <time>2020-09-12T11:54:33Z</time>
      </trkpt>
      <trkpt lat="41.0496080" lon="-2.3554570">
        <ele>1212.8</ele>
        <time>2020-09-12T11:54:34Z</time>
      </trkpt>
      <trkpt lat="41.0496090" lon="-2.3553570">
        <ele>1213.0</ele>
        <time>2020-09-12T11:54:35Z</time>
      </trkpt>
      <trkpt lat="41.0496100" lon="-2.3552580">
        <ele>1213.2</ele>
        <time>2020-09-12T11:54:36Z</time>
      </trkpt>
      <trkpt lat="41.0496110" lon="-2.3551590">
        <ele>1213.2</ele>
        <time>2020-09-12T11:54:37Z</time>
      </trkpt>
      <trkpt lat="41.0496110" lon="-2.3550620">
        <ele>1213.6</ele>
        <time>2020-09-12T11:54:38Z</time>
      </trkpt>
      <trkpt lat="41.0496120" lon="-2.3549660">
        <ele>1213.8</ele>
        <time>2020-09-12T11:54:39Z</time>
      </trkpt>
      <trkpt lat="41.0496110" lon="-2.3548710">
        <ele>1213.8</ele>
        <time>2020-09-12T11:54:40Z</time>
      </trkpt>
      <trkpt lat="41.0496120" lon="-2.3547760">
        <ele>1214.0</ele>
        <time>2020-09-12T11:54:41Z</time>
      </trkpt>
      <trkpt lat="41.0496140" lon="-2.3546820">
        <ele>1214.0</ele>
        <time>2020-09-12T11:54:42Z</time>
      </trkpt>
      <trkpt lat="41.0496150" lon="-2.3545880">
        <ele>1214.0</ele>
        <time>2020-09-12T11:54:43Z</time>
      </trkpt>
      <trkpt lat="41.0496150" lon="-2.3544960">
        <ele>1214.2</ele>
        <time>2020-09-12T11:54:44Z</time>
      </trkpt>
      <trkpt lat="41.0496160" lon="-2.3544040">
        <ele>1214.2</ele>
        <time>2020-09-12T11:54:45Z</time>
      </trkpt>
      <trkpt lat="41.0496160" lon="-2.3543130">
        <ele>1214.4</ele>
        <time>2020-09-12T11:54:46Z</time>
      </trkpt>
      <trkpt lat="41.0496160" lon="-2.3542220">
        <ele>1214.6</ele>
        <time>2020-09-12T11:54:47Z</time>
      </trkpt>
      <trkpt lat="41.0496180" lon="-2.3541290">
        <ele>1214.6</ele>
        <time>2020-09-12T11:54:48Z</time>
      </trkpt>
      <trkpt lat="41.0496200" lon="-2.3540370">
        <ele>1214.8</ele>
        <time>2020-09-12T11:54:49Z</time>
      </trkpt>
      <trkpt lat="41.0496220" lon="-2.3539450">
        <ele>1215.2</ele>
        <time>2020-09-12T11:54:50Z</time>
      </trkpt>
      <trkpt lat="41.0496230" lon="-2.3538540">
        <ele>1215.4</ele>
        <time>2020-09-12T11:54:51Z</time>
      </trkpt>
      <trkpt lat="41.0496240" lon="-2.3537640">
        <ele>1215.6</ele>
        <time>2020-09-12T11:54:52Z</time>
      </trkpt>
      <trkpt lat="41.0496240" lon="-2.3536740">
        <ele>1215.8</ele>
        <time>2020-09-12T11:54:53Z</time>
      </trkpt>
      <trkpt lat="41.0496260" lon="-2.3535850">
        <ele>1216.0</ele>
        <time>2020-09-12T11:54:54Z</time>
      </trkpt>
      <trkpt lat="41.0496250" lon="-2.3534960">
        <ele>1216.4</ele>
        <time>2020-09-12T11:54:55Z</time>
      </trkpt>
      <trkpt lat="41.0496250" lon="-2.3534070">
        <ele>1216.6</ele>
        <time>2020-09-12T11:54:56Z</time>
      </trkpt>
      <trkpt lat="41.0496260" lon="-2.3533190">
        <ele>1216.6</ele>
        <time>2020-09-12T11:54:57Z</time>
      </trkpt>
      <trkpt lat="41.0496270" lon="-2.3532310">
        <ele>1216.8</ele>
        <time>2020-09-12T11:54:58Z</time>
      </trkpt>
      <trkpt lat="41.0496290" lon="-2.3531420">
        <ele>1216.8</ele>
        <time>2020-09-12T11:54:59Z</time>
      </trkpt>
      <trkpt lat="41.0496300" lon="-2.3530540">
        <ele>1217.0</ele>
        <time>2020-09-12T11:55:00Z</time>
      </trkpt>
      <trkpt lat="41.0496300" lon="-2.3529660">
        <ele>1217.0</ele>
        <time>2020-09-12T11:55:01Z</time>
      </trkpt>
      <trkpt lat="41.0496290" lon="-2.3528790">
        <ele>1217.2</ele>
        <time>2020-09-12T11:55:02Z</time>
      </trkpt>
      <trkpt lat="41.0496300" lon="-2.3527910">
        <ele>1217.4</ele>
        <time>2020-09-12T11:55:03Z</time>
      </trkpt>
      <trkpt lat="41.0496300" lon="-2.3527030">
        <ele>1217.4</ele>
        <time>2020-09-12T11:55:04Z</time>
      </trkpt>
      <trkpt lat="41.0496320" lon="-2.3526150">
        <ele>1217.6</ele>
        <time>2020-09-12T11:55:05Z</time>
      </trkpt>
      <trkpt lat="41.0496350" lon="-2.3525270">
        <ele>1217.6</ele>
        <time>2020-09-12T11:55:06Z</time>
      </trkpt>
      <trkpt lat="41.0496370" lon="-2.3524390">
        <ele>1217.6</ele>
        <time>2020-09-12T11:55:07Z</time>
      </trkpt>
      <trkpt lat="41.0496370" lon="-2.3523520">
        <ele>1217.6</ele>
        <time>2020-09-12T11:55:08Z</time>
      </trkpt>
      <trkpt lat="41.0496370" lon="-2.3522640">
        <ele>1217.6</ele>
        <time>2020-09-12T11:55:09Z</time>
      </trkpt>
      <trkpt lat="41.0496370" lon="-2.3521770">
        <ele>1217.8</ele>
        <time>2020-09-12T11:55:10Z</time>
      </trkpt>
      <trkpt lat="41.0496380" lon="-2.3520890">
        <ele>1218.0</ele>
        <time>2020-09-12T11:55:11Z</time>
      </trkpt>
      <trkpt lat="41.0496400" lon="-2.3520000">
        <ele>1218.0</ele>
        <time>2020-09-12T11:55:12Z</time>
      </trkpt>
      <trkpt lat="41.0496410" lon="-2.3519110">
        <ele>1218.0</ele>
        <time>2020-09-12T11:55:13Z</time>
      </trkpt>
      <trkpt lat="41.0496430" lon="-2.3518190">
        <ele>1218.0</ele>
        <time>2020-09-12T11:55:14Z</time>
      </trkpt>
      <trkpt lat="41.0496450" lon="-2.3517280">
        <ele>1218.0</ele>
        <time>2020-09-12T11:55:15Z</time>
      </trkpt>
      <trkpt lat="41.0496460" lon="-2.3516350">
        <ele>1218.0</ele>
        <time>2020-09-12T11:55:16Z</time>
      </trkpt>
      <trkpt lat="41.0496470" lon="-2.3515430">
        <ele>1218.0</ele>
        <time>2020-09-12T11:55:17Z</time>
      </trkpt>
      <trkpt lat="41.0496480" lon="-2.3514490">
        <ele>1218.2</ele>
        <time>2020-09-12T11:55:18Z</time>
      </trkpt>
      <trkpt lat="41.0496500" lon="-2.3513570">
        <ele>1218.2</ele>
        <time>2020-09-12T11:55:19Z</time>
      </trkpt>
      <trkpt lat="41.0496520" lon="-2.3512630">
        <ele>1218.4</ele>
        <time>2020-09-12T11:55:20Z</time>
      </trkpt>
      <trkpt lat="41.0496540" lon="-2.3511700">
        <ele>1218.4</ele>
        <time>2020-09-12T11:55:21Z</time>
      </trkpt>
      <trkpt lat="41.0496550" lon="-2.3510770">
        <ele>1218.6</ele>
        <time>2020-09-12T11:55:22Z</time>
      </trkpt>
      <trkpt lat="41.0496560" lon="-2.3509830">
        <ele>1218.8</ele>
        <time>2020-09-12T11:55:23Z</time>
      </trkpt>
      <trkpt lat="41.0496570" lon="-2.3508880">
        <ele>1218.8</ele>
        <time>2020-09-12T11:55:24Z</time>
      </trkpt>
      <trkpt lat="41.0496580" lon="-2.3507920">
        <ele>1218.6</ele>
        <time>2020-09-12T11:55:25Z</time>
      </trkpt>
      <trkpt lat="41.0496590" lon="-2.3506940">
        <ele>1218.6</ele>
        <time>2020-09-12T11:55:26Z</time>
      </trkpt>
      <trkpt lat="41.0496600" lon="-2.3505950">
        <ele>1218.6</ele>
        <time>2020-09-12T11:55:27Z</time>
      </trkpt>
      <trkpt lat="41.0496600" lon="-2.3504940">
        <ele>1218.6</ele>
        <time>2020-09-12T11:55:28Z</time>
      </trkpt>
      <trkpt lat="41.0496600" lon="-2.3503910">
        <ele>1218.6</ele>
        <time>2020-09-12T11:55:29Z</time>
      </trkpt>
      <trkpt lat="41.0496610" lon="-2.3502880">
        <ele>1218.4</ele>
        <time>2020-09-12T11:55:30Z</time>
      </trkpt>
      <trkpt lat="41.0496630" lon="-2.3501830">
        <ele>1218.4</ele>
        <time>2020-09-12T11:55:31Z</time>
      </trkpt>
      <trkpt lat="41.0496630" lon="-2.3500790">
        <ele>1218.2</ele>
        <time>2020-09-12T11:55:32Z</time>
      </trkpt>
      <trkpt lat="41.0496640" lon="-2.3499710">
        <ele>1218.2</ele>
        <time>2020-09-12T11:55:33Z</time>
      </trkpt>
      <trkpt lat="41.0496660" lon="-2.3498630">
        <ele>1218.2</ele>
        <time>2020-09-12T11:55:34Z</time>
      </trkpt>
      <trkpt lat="41.0496670" lon="-2.3497550">
        <ele>1218.2</ele>
        <time>2020-09-12T11:55:35Z</time>
      </trkpt>
      <trkpt lat="41.0496680" lon="-2.3496480">
        <ele>1218.2</ele>
        <time>2020-09-12T11:55:36Z</time>
      </trkpt>
      <trkpt lat="41.0496690" lon="-2.3495400">
        <ele>1218.2</ele>
        <time>2020-09-12T11:55:37Z</time>
      </trkpt>
      <trkpt lat="41.0496700" lon="-2.3494330">
        <ele>1218.4</ele>
        <time>2020-09-12T11:55:38Z</time>
      </trkpt>
      <trkpt lat="41.0496710" lon="-2.3493260">
        <ele>1218.4</ele>
        <time>2020-09-12T11:55:39Z</time>
      </trkpt>
      <trkpt lat="41.0496720" lon="-2.3492190">
        <ele>1218.6</ele>
        <time>2020-09-12T11:55:40Z</time>
      </trkpt>
      <trkpt lat="41.0496710" lon="-2.3491100">
        <ele>1218.6</ele>
        <time>2020-09-12T11:55:41Z</time>
      </trkpt>
      <trkpt lat="41.0496710" lon="-2.3490020">
        <ele>1218.8</ele>
        <time>2020-09-12T11:55:42Z</time>
      </trkpt>
      <trkpt lat="41.0496720" lon="-2.3488930">
        <ele>1219.0</ele>
        <time>2020-09-12T11:55:43Z</time>
      </trkpt>
      <trkpt lat="41.0496740" lon="-2.3487830">
        <ele>1219.0</ele>
        <time>2020-09-12T11:55:44Z</time>
      </trkpt>
      <trkpt lat="41.0496760" lon="-2.3486730">
        <ele>1219.0</ele>
        <time>2020-09-12T11:55:45Z</time>
      </trkpt>
      <trkpt lat="41.0496780" lon="-2.3485610">
        <ele>1219.2</ele>
        <time>2020-09-12T11:55:46Z</time>
      </trkpt>
      <trkpt lat="41.0496810" lon="-2.3484470">
        <ele>1219.2</ele>
        <time>2020-09-12T11:55:47Z</time>
      </trkpt>
      <trkpt lat="41.0496840" lon="-2.3483330">
        <ele>1219.2</ele>
        <time>2020-09-12T11:55:48Z</time>
      </trkpt>
      <trkpt lat="41.0496850" lon="-2.3482190">
        <ele>1219.2</ele>
        <time>2020-09-12T11:55:49Z</time>
      </trkpt>
      <trkpt lat="41.0496860" lon="-2.3481030">
        <ele>1219.0</ele>
        <time>2020-09-12T11:55:50Z</time>
      </trkpt>
      <trkpt lat="41.0496870" lon="-2.3479870">
        <ele>1218.8</ele>
        <time>2020-09-12T11:55:51Z</time>
      </trkpt>
      <trkpt lat="41.0496870" lon="-2.3478680">
        <ele>1218.6</ele>
        <time>2020-09-12T11:55:52Z</time>
      </trkpt>
      <trkpt lat="41.0496870" lon="-2.3477500">
        <ele>1218.4</ele>
        <time>2020-09-12T11:55:53Z</time>
      </trkpt>
      <trkpt lat="41.0496870" lon="-2.3476310">
        <ele>1218.2</ele>
        <time>2020-09-12T11:55:54Z</time>
      </trkpt>
      <trkpt lat="41.0496890" lon="-2.3475120">
        <ele>1218.0</ele>
        <time>2020-09-12T11:55:55Z</time>
      </trkpt>
      <trkpt lat="41.0496900" lon="-2.3473940">
        <ele>1218.0</ele>
        <time>2020-09-12T11:55:56Z</time>
      </trkpt>
      <trkpt lat="41.0496920" lon="-2.3472780">
        <ele>1217.8</ele>
        <time>2020-09-12T11:55:57Z</time>
      </trkpt>
      <trkpt lat="41.0496930" lon="-2.3471620">
        <ele>1217.8</ele>
        <time>2020-09-12T11:55:58Z</time>
      </trkpt>
      <trkpt lat="41.0496950" lon="-2.3470470">
        <ele>1217.6</ele>
        <time>2020-09-12T11:55:59Z</time>
      </trkpt>
      <trkpt lat="41.0496980" lon="-2.3469300">
        <ele>1217.6</ele>
        <time>2020-09-12T11:56:00Z</time>
      </trkpt>
      <trkpt lat="41.0497000" lon="-2.3468130">
        <ele>1217.4</ele>
        <time>2020-09-12T11:56:01Z</time>
      </trkpt>
      <trkpt lat="41.0497030" lon="-2.3466950">
        <ele>1217.4</ele>
        <time>2020-09-12T11:56:02Z</time>
      </trkpt>
      <trkpt lat="41.0497060" lon="-2.3465770">
        <ele>1217.6</ele>
        <time>2020-09-12T11:56:03Z</time>
      </trkpt>
      <trkpt lat="41.0497070" lon="-2.3464620">
        <ele>1217.8</ele>
        <time>2020-09-12T11:56:04Z</time>
      </trkpt>
      <trkpt lat="41.0497090" lon="-2.3463490">
        <ele>1217.8</ele>
        <time>2020-09-12T11:56:05Z</time>
      </trkpt>
      <trkpt lat="41.0497100" lon="-2.3462370">
        <ele>1217.8</ele>
        <time>2020-09-12T11:56:06Z</time>
      </trkpt>
      <trkpt lat="41.0497110" lon="-2.3461250">
        <ele>1218.0</ele>
        <time>2020-09-12T11:56:07Z</time>
      </trkpt>
      <trkpt lat="41.0497110" lon="-2.3460130">
        <ele>1218.2</ele>
        <time>2020-09-12T11:56:08Z</time>
      </trkpt>
      <trkpt lat="41.0497110" lon="-2.3459010">
        <ele>1218.2</ele>
        <time>2020-09-12T11:56:09Z</time>
      </trkpt>
      <trkpt lat="41.0497100" lon="-2.3457900">
        <ele>1218.2</ele>
        <time>2020-09-12T11:56:10Z</time>
      </trkpt>
      <trkpt lat="41.0497100" lon="-2.3456770">
        <ele>1218.0</ele>
        <time>2020-09-12T11:56:11Z</time>
      </trkpt>
      <trkpt lat="41.0497100" lon="-2.3455650">
        <ele>1217.8</ele>
        <time>2020-09-12T11:56:12Z</time>
      </trkpt>
      <trkpt lat="41.0497120" lon="-2.3454520">
        <ele>1217.8</ele>
        <time>2020-09-12T11:56:13Z</time>
      </trkpt>
      <trkpt lat="41.0497130" lon="-2.3453410">
        <ele>1217.6</ele>
        <time>2020-09-12T11:56:14Z</time>
      </trkpt>
      <trkpt lat="41.0497160" lon="-2.3452320">
        <ele>1217.6</ele>
        <time>2020-09-12T11:56:15Z</time>
      </trkpt>
      <trkpt lat="41.0497190" lon="-2.3451250">
        <ele>1217.6</ele>
        <time>2020-09-12T11:56:16Z</time>
      </trkpt>
      <trkpt lat="41.0497200" lon="-2.3450180">
        <ele>1217.8</ele>
        <time>2020-09-12T11:56:17Z</time>
      </trkpt>
      <trkpt lat="41.0497200" lon="-2.3449110">
        <ele>1217.8</ele>
        <time>2020-09-12T11:56:18Z</time>
      </trkpt>
      <trkpt lat="41.0497220" lon="-2.3448010">
        <ele>1218.0</ele>
        <time>2020-09-12T11:56:19Z</time>
      </trkpt>
      <trkpt lat="41.0497240" lon="-2.3446910">
        <ele>1218.2</ele>
        <time>2020-09-12T11:56:20Z</time>
      </trkpt>
      <trkpt lat="41.0497260" lon="-2.3445800">
        <ele>1218.4</ele>
        <time>2020-09-12T11:56:21Z</time>
      </trkpt>
      <trkpt lat="41.0497280" lon="-2.3444670">
        <ele>1218.6</ele>
        <time>2020-09-12T11:56:22Z</time>
      </trkpt>
      <trkpt lat="41.0497310" lon="-2.3443530">
        <ele>1218.6</ele>
        <time>2020-09-12T11:56:23Z</time>
      </trkpt>
      <trkpt lat="41.0497320" lon="-2.3442410">
        <ele>1218.4</ele>
        <time>2020-09-12T11:56:24Z</time>
      </trkpt>
      <trkpt lat="41.0497350" lon="-2.3441270">
        <ele>1218.4</ele>
        <time>2020-09-12T11:56:25Z</time>
      </trkpt>
      <trkpt lat="41.0497380" lon="-2.3440140">
        <ele>1218.4</ele>
        <time>2020-09-12T11:56:26Z</time>
      </trkpt>
      <trkpt lat="41.0497390" lon="-2.3439000">
        <ele>1218.2</ele>
        <time>2020-09-12T11:56:27Z</time>
      </trkpt>
      <trkpt lat="41.0497400" lon="-2.3437860">
        <ele>1218.0</ele>
        <time>2020-09-12T11:56:28Z</time>
      </trkpt>
      <trkpt lat="41.0497420" lon="-2.3436710">
        <ele>1218.0</ele>
        <time>2020-09-12T11:56:29Z</time>
      </trkpt>
      <trkpt lat="41.0497420" lon="-2.3435560">
        <ele>1218.2</ele>
        <time>2020-09-12T11:56:30Z</time>
      </trkpt>
      <trkpt lat="41.0497430" lon="-2.3434420">
        <ele>1218.4</ele>
        <time>2020-09-12T11:56:31Z</time>
      </trkpt>
      <trkpt lat="41.0497430" lon="-2.3433280">
        <ele>1218.4</ele>
        <time>2020-09-12T11:56:32Z</time>
      </trkpt>
      <trkpt lat="41.0497440" lon="-2.3432130">
        <ele>1218.6</ele>
        <time>2020-09-12T11:56:33Z</time>
      </trkpt>
      <trkpt lat="41.0497450" lon="-2.3430990">
        <ele>1218.8</ele>
        <time>2020-09-12T11:56:34Z</time>
      </trkpt>
      <trkpt lat="41.0497480" lon="-2.3429840">
        <ele>1218.8</ele>
        <time>2020-09-12T11:56:35Z</time>
      </trkpt>
      <trkpt lat="41.0497500" lon="-2.3428680">
        <ele>1219.0</ele>
        <time>2020-09-12T11:56:36Z</time>
      </trkpt>
      <trkpt lat="41.0497500" lon="-2.3427540">
        <ele>1219.0</ele>
        <time>2020-09-12T11:56:37Z</time>
      </trkpt>
      <trkpt lat="41.0497500" lon="-2.3426390">
        <ele>1219.2</ele>
        <time>2020-09-12T11:56:38Z</time>
      </trkpt>
      <trkpt lat="41.0497520" lon="-2.3425220">
        <ele>1219.4</ele>
        <time>2020-09-12T11:56:39Z</time>
      </trkpt>
      <trkpt lat="41.0497530" lon="-2.3424040">
        <ele>1219.6</ele>
        <time>2020-09-12T11:56:40Z</time>
      </trkpt>
      <trkpt lat="41.0497540" lon="-2.3422860">
        <ele>1219.8</ele>
        <time>2020-09-12T11:56:41Z</time>
      </trkpt>
      <trkpt lat="41.0497550" lon="-2.3421660">
        <ele>1220.0</ele>
        <time>2020-09-12T11:56:42Z</time>
      </trkpt>
      <trkpt lat="41.0497560" lon="-2.3420450">
        <ele>1220.2</ele>
        <time>2020-09-12T11:56:43Z</time>
      </trkpt>
      <trkpt lat="41.0497570" lon="-2.3419230">
        <ele>1220.4</ele>
        <time>2020-09-12T11:56:44Z</time>
      </trkpt>
      <trkpt lat="41.0497570" lon="-2.3418010">
        <ele>1220.6</ele>
        <time>2020-09-12T11:56:45Z</time>
      </trkpt>
      <trkpt lat="41.0497570" lon="-2.3416800">
        <ele>1220.8</ele>
        <time>2020-09-12T11:56:46Z</time>
      </trkpt>
      <trkpt lat="41.0497600" lon="-2.3415620">
        <ele>1220.8</ele>
        <time>2020-09-12T11:56:47Z</time>
      </trkpt>
      <trkpt lat="41.0497640" lon="-2.3414460">
        <ele>1221.0</ele>
        <time>2020-09-12T11:56:48Z</time>
      </trkpt>
      <trkpt lat="41.0497660" lon="-2.3413330">
        <ele>1221.0</ele>
        <time>2020-09-12T11:56:49Z</time>
      </trkpt>
      <trkpt lat="41.0497670" lon="-2.3412220">
        <ele>1220.8</ele>
        <time>2020-09-12T11:56:50Z</time>
      </trkpt>
      <trkpt lat="41.0497670" lon="-2.3411120">
        <ele>1220.8</ele>
        <time>2020-09-12T11:56:51Z</time>
      </trkpt>
      <trkpt lat="41.0497670" lon="-2.3410030">
        <ele>1220.6</ele>
        <time>2020-09-12T11:56:52Z</time>
      </trkpt>
      <trkpt lat="41.0497670" lon="-2.3408960">
        <ele>1220.6</ele>
        <time>2020-09-12T11:56:53Z</time>
      </trkpt>
      <trkpt lat="41.0497670" lon="-2.3407900">
        <ele>1220.6</ele>
        <time>2020-09-12T11:56:54Z</time>
      </trkpt>
      <trkpt lat="41.0497680" lon="-2.3406830">
        <ele>1220.4</ele>
        <time>2020-09-12T11:56:55Z</time>
      </trkpt>
      <trkpt lat="41.0497690" lon="-2.3405760">
        <ele>1220.4</ele>
        <time>2020-09-12T11:56:56Z</time>
      </trkpt>
      <trkpt lat="41.0497680" lon="-2.3404700">
        <ele>1220.4</ele>
        <time>2020-09-12T11:56:57Z</time>
      </trkpt>
      <trkpt lat="41.0497680" lon="-2.3403630">
        <ele>1220.4</ele>
        <time>2020-09-12T11:56:58Z</time>
      </trkpt>
      <trkpt lat="41.0497700" lon="-2.3402550">
        <ele>1220.4</ele>
        <time>2020-09-12T11:56:59Z</time>
      </trkpt>
      <trkpt lat="41.0497720" lon="-2.3401470">
        <ele>1220.4</ele>
        <time>2020-09-12T11:57:00Z</time>
      </trkpt>
      <trkpt lat="41.0497740" lon="-2.3400390">
        <ele>1220.6</ele>
        <time>2020-09-12T11:57:01Z</time>
      </trkpt>
      <trkpt lat="41.0497770" lon="-2.3399330">
        <ele>1220.6</ele>
        <time>2020-09-12T11:57:02Z</time>
      </trkpt>
      <trkpt lat="41.0497790" lon="-2.3398270">
        <ele>1220.6</ele>
        <time>2020-09-12T11:57:03Z</time>
      </trkpt>
      <trkpt lat="41.0497800" lon="-2.3397220">
        <ele>1220.4</ele>
        <time>2020-09-12T11:57:04Z</time>
      </trkpt>
      <trkpt lat="41.0497810" lon="-2.3396180">
        <ele>1220.6</ele>
        <time>2020-09-12T11:57:05Z</time>
      </trkpt>
      <trkpt lat="41.0497830" lon="-2.3395160">
        <ele>1221.0</ele>
        <time>2020-09-12T11:57:06Z</time>
      </trkpt>
      <trkpt lat="41.0497840" lon="-2.3394130">
        <ele>1221.0</ele>
        <time>2020-09-12T11:57:07Z</time>
      </trkpt>
      <trkpt lat="41.0497850" lon="-2.3393120">
        <ele>1221.0</ele>
        <time>2020-09-12T11:57:08Z</time>
      </trkpt>
      <trkpt lat="41.0497840" lon="-2.3392110">
        <ele>1221.0</ele>
        <time>2020-09-12T11:57:09Z</time>
      </trkpt>
      <trkpt lat="41.0497830" lon="-2.3391100">
        <ele>1221.0</ele>
        <time>2020-09-12T11:57:10Z</time>
      </trkpt>
      <trkpt lat="41.0497820" lon="-2.3390090">
        <ele>1221.2</ele>
        <time>2020-09-12T11:57:11Z</time>
      </trkpt>
      <trkpt lat="41.0497820" lon="-2.3389080">
        <ele>1221.2</ele>
        <time>2020-09-12T11:57:12Z</time>
      </trkpt>
      <trkpt lat="41.0497820" lon="-2.3388070">
        <ele>1221.2</ele>
        <time>2020-09-12T11:57:13Z</time>
      </trkpt>
      <trkpt lat="41.0497820" lon="-2.3387080">
        <ele>1221.2</ele>
        <time>2020-09-12T11:57:14Z</time>
      </trkpt>
      <trkpt lat="41.0497820" lon="-2.3386070">
        <ele>1221.4</ele>
        <time>2020-09-12T11:57:15Z</time>
      </trkpt>
      <trkpt lat="41.0497810" lon="-2.3385070">
        <ele>1221.4</ele>
        <time>2020-09-12T11:57:16Z</time>
      </trkpt>
      <trkpt lat="41.0497820" lon="-2.3384070">
        <ele>1221.6</ele>
        <time>2020-09-12T11:57:17Z</time>
      </trkpt>
      <trkpt lat="41.0497840" lon="-2.3383040">
        <ele>1221.8</ele>
        <time>2020-09-12T11:57:18Z</time>
      </trkpt>
      <trkpt lat="41.0497860" lon="-2.3382020">
        <ele>1221.8</ele>
        <time>2020-09-12T11:57:19Z</time>
      </trkpt>
      <trkpt lat="41.0497880" lon="-2.3380990">
        <ele>1222.0</ele>
        <time>2020-09-12T11:57:20Z</time>
      </trkpt>
      <trkpt lat="41.0497910" lon="-2.3379950">
        <ele>1222.0</ele>
        <time>2020-09-12T11:57:21Z</time>
      </trkpt>
      <trkpt lat="41.0497930" lon="-2.3378930">
        <ele>1222.0</ele>
        <time>2020-09-12T11:57:22Z</time>
      </trkpt>
      <trkpt lat="41.0497950" lon="-2.3377910">
        <ele>1222.2</ele>
        <time>2020-09-12T11:57:23Z</time>
      </trkpt>
      <trkpt lat="41.0497980" lon="-2.3376900">
        <ele>1222.4</ele>
        <time>2020-09-12T11:57:24Z</time>
      </trkpt>
      <trkpt lat="41.0497990" lon="-2.3375910">
        <ele>1222.6</ele>
        <time>2020-09-12T11:57:25Z</time>
      </trkpt>
      <trkpt lat="41.0498010" lon="-2.3374920">
        <ele>1222.8</ele>
        <time>2020-09-12T11:57:26Z</time>
      </trkpt>
      <trkpt lat="41.0498050" lon="-2.3373940">
        <ele>1223.0</ele>
        <time>2020-09-12T11:57:27Z</time>
      </trkpt>
      <trkpt lat="41.0498070" lon="-2.3372960">
        <ele>1223.0</ele>
        <time>2020-09-12T11:57:28Z</time>
      </trkpt>
      <trkpt lat="41.0498070" lon="-2.3372000">
        <ele>1223.2</ele>
        <time>2020-09-12T11:57:29Z</time>
      </trkpt>
      <trkpt lat="41.0498070" lon="-2.3371050">
        <ele>1223.2</ele>
        <time>2020-09-12T11:57:30Z</time>
      </trkpt>
      <trkpt lat="41.0498080" lon="-2.3370120">
        <ele>1223.2</ele>
        <time>2020-09-12T11:57:31Z</time>
      </trkpt>
      <trkpt lat="41.0498090" lon="-2.3369210">
        <ele>1223.2</ele>
        <time>2020-09-12T11:57:32Z</time>
      </trkpt>
      <trkpt lat="41.0498090" lon="-2.3368320">
        <ele>1223.4</ele>
        <time>2020-09-12T11:57:33Z</time>
      </trkpt>
      <trkpt lat="41.0498080" lon="-2.3367440">
        <ele>1223.6</ele>
        <time>2020-09-12T11:57:34Z</time>
      </trkpt>
      <trkpt lat="41.0498070" lon="-2.3366560">
        <ele>1223.8</ele>
        <time>2020-09-12T11:57:35Z</time>
      </trkpt>
      <trkpt lat="41.0498080" lon="-2.3365680">
        <ele>1223.8</ele>
        <time>2020-09-12T11:57:36Z</time>
      </trkpt>
      <trkpt lat="41.0498100" lon="-2.3364810">
        <ele>1224.0</ele>
        <time>2020-09-12T11:57:37Z</time>
      </trkpt>
      <trkpt lat="41.0498120" lon="-2.3363930">
        <ele>1224.2</ele>
        <time>2020-09-12T11:57:38Z</time>
      </trkpt>
      <trkpt lat="41.0498120" lon="-2.3363040">
        <ele>1224.6</ele>
        <time>2020-09-12T11:57:39Z</time>
      </trkpt>
      <trkpt lat="41.0498130" lon="-2.3362150">
        <ele>1224.8</ele>
        <time>2020-09-12T11:57:40Z</time>
      </trkpt>
      <trkpt lat="41.0498140" lon="-2.3361270">
        <ele>1224.8</ele>
        <time>2020-09-12T11:57:41Z</time>
      </trkpt>
      <trkpt lat="41.0498160" lon="-2.3360380">
        <ele>1225.0</ele>
        <time>2020-09-12T11:57:42Z</time>
      </trkpt>
      <trkpt lat="41.0498170" lon="-2.3359490">
        <ele>1225.2</ele>
        <time>2020-09-12T11:57:43Z</time>
      </trkpt>
      <trkpt lat="41.0498190" lon="-2.3358610">
        <ele>1225.2</ele>
        <time>2020-09-12T11:57:44Z</time>
      </trkpt>
      <trkpt lat="41.0498210" lon="-2.3357700">
        <ele>1225.4</ele>
        <time>2020-09-12T11:57:45Z</time>
      </trkpt>
      <trkpt lat="41.0498220" lon="-2.3356780">
        <ele>1225.4</ele>
        <time>2020-09-12T11:57:46Z</time>
      </trkpt>
      <trkpt lat="41.0498240" lon="-2.3355870">
        <ele>1225.4</ele>
        <time>2020-09-12T11:57:47Z</time>
      </trkpt>
      <trkpt lat="41.0498260" lon="-2.3354950">
        <ele>1225.6</ele>
        <time>2020-09-12T11:57:48Z</time>
      </trkpt>
      <trkpt lat="41.0498280" lon="-2.3354020">
        <ele>1225.6</ele>
        <time>2020-09-12T11:57:49Z</time>
      </trkpt>
      <trkpt lat="41.0498290" lon="-2.3353090">
        <ele>1225.6</ele>
        <time>2020-09-12T11:57:50Z</time>
      </trkpt>
      <trkpt lat="41.0498300" lon="-2.3352160">
        <ele>1225.6</ele>
        <time>2020-09-12T11:57:51Z</time>
      </trkpt>
      <trkpt lat="41.0498330" lon="-2.3351220">
        <ele>1225.4</ele>
        <time>2020-09-12T11:57:52Z</time>
      </trkpt>
      <trkpt lat="41.0498360" lon="-2.3350290">
        <ele>1225.4</ele>
        <time>2020-09-12T11:57:53Z</time>
      </trkpt>
      <trkpt lat="41.0498360" lon="-2.3349340">
        <ele>1225.4</ele>
        <time>2020-09-12T11:57:54Z</time>
      </trkpt>
      <trkpt lat="41.0498360" lon="-2.3348370">
        <ele>1225.4</ele>
        <time>2020-09-12T11:57:55Z</time>
      </trkpt>
      <trkpt lat="41.0498370" lon="-2.3347400">
        <ele>1225.4</ele>
        <time>2020-09-12T11:57:56Z</time>
      </trkpt>
      <trkpt lat="41.0498370" lon="-2.3346450">
        <ele>1225.4</ele>
        <time>2020-09-12T11:57:57Z</time>
      </trkpt>
      <trkpt lat="41.0498380" lon="-2.3345490">
        <ele>1225.4</ele>
        <time>2020-09-12T11:57:58Z</time>
      </trkpt>
      <trkpt lat="41.0498380" lon="-2.3344520">
        <ele>1225.4</ele>
        <time>2020-09-12T11:57:59Z</time>
      </trkpt>
      <trkpt lat="41.0498370" lon="-2.3343550">
        <ele>1225.4</ele>
        <time>2020-09-12T11:58:00Z</time>
      </trkpt>
      <trkpt lat="41.0498370" lon="-2.3342570">
        <ele>1225.2</ele>
        <time>2020-09-12T11:58:01Z</time>
      </trkpt>
      <trkpt lat="41.0498380" lon="-2.3341620">
        <ele>1225.2</ele>
        <time>2020-09-12T11:58:02Z</time>
      </trkpt>
      <trkpt lat="41.0498410" lon="-2.3340680">
        <ele>1225.4</ele>
        <time>2020-09-12T11:58:03Z</time>
      </trkpt>
      <trkpt lat="41.0498410" lon="-2.3339740">
        <ele>1225.6</ele>
        <time>2020-09-12T11:58:04Z</time>
      </trkpt>
      <trkpt lat="41.0498400" lon="-2.3338800">
        <ele>1225.6</ele>
        <time>2020-09-12T11:58:05Z</time>
      </trkpt>
      <trkpt lat="41.0498400" lon="-2.3337860">
        <ele>1225.6</ele>
        <time>2020-09-12T11:58:06Z</time>
      </trkpt>
      <trkpt lat="41.0498420" lon="-2.3336900">
        <ele>1225.8</ele>
        <time>2020-09-12T11:58:07Z</time>
      </trkpt>
      <trkpt lat="41.0498420" lon="-2.3335920">
        <ele>1225.8</ele>
        <time>2020-09-12T11:58:08Z</time>
      </trkpt>
      <trkpt lat="41.0498420" lon="-2.3334940">
        <ele>1225.8</ele>
        <time>2020-09-12T11:58:09Z</time>
      </trkpt>
      <trkpt lat="41.0498430" lon="-2.3333940">
        <ele>1225.8</ele>
        <time>2020-09-12T11:58:10Z</time>
      </trkpt>
      <trkpt lat="41.0498430" lon="-2.3332930">
        <ele>1225.6</ele>
        <time>2020-09-12T11:58:11Z</time>
      </trkpt>
      <trkpt lat="41.0498410" lon="-2.3331920">
        <ele>1225.6</ele>
        <time>2020-09-12T11:58:12Z</time>
      </trkpt>
      <trkpt lat="41.0498410" lon="-2.3330890">
        <ele>1225.6</ele>
        <time>2020-09-12T11:58:13Z</time>
      </trkpt>
      <trkpt lat="41.0498410" lon="-2.3329840">
        <ele>1225.6</ele>
        <time>2020-09-12T11:58:14Z</time>
      </trkpt>
      <trkpt lat="41.0498420" lon="-2.3328790">
        <ele>1225.4</ele>
        <time>2020-09-12T11:58:15Z</time>
      </trkpt>
      <trkpt lat="41.0498410" lon="-2.3327710">
        <ele>1225.4</ele>
        <time>2020-09-12T11:58:16Z</time>
      </trkpt>
      <trkpt lat="41.0498400" lon="-2.3326630">
        <ele>1225.4</ele>
        <time>2020-09-12T11:58:17Z</time>
      </trkpt>
      <trkpt lat="41.0498400" lon="-2.3325540">
        <ele>1225.2</ele>
        <time>2020-09-12T11:58:18Z</time>
      </trkpt>
      <trkpt lat="41.0498400" lon="-2.3324430">
        <ele>1225.2</ele>
        <time>2020-09-12T11:58:19Z</time>
      </trkpt>
      <trkpt lat="41.0498410" lon="-2.3323310">
        <ele>1225.2</ele>
        <time>2020-09-12T11:58:20Z</time>
      </trkpt>
      <trkpt lat="41.0498400" lon="-2.3322180">
        <ele>1225.0</ele>
        <time>2020-09-12T11:58:21Z</time>
      </trkpt>
      <trkpt lat="41.0498390" lon="-2.3321040">
        <ele>1225.0</ele>
        <time>2020-09-12T11:58:22Z</time>
      </trkpt>
      <trkpt lat="41.0498380" lon="-2.3319880">
        <ele>1225.0</ele>
        <time>2020-09-12T11:58:23Z</time>
      </trkpt>
      <trkpt lat="41.0498360" lon="-2.3318740">
        <ele>1225.0</ele>
        <time>2020-09-12T11:58:24Z</time>
      </trkpt>
      <trkpt lat="41.0498320" lon="-2.3317580">
        <ele>1225.0</ele>
        <time>2020-09-12T11:58:25Z</time>
      </trkpt>
      <trkpt lat="41.0498270" lon="-2.3316430">
        <ele>1225.0</ele>
        <time>2020-09-12T11:58:26Z</time>
      </trkpt>
      <trkpt lat="41.0498210" lon="-2.3315290">
        <ele>1225.0</ele>
        <time>2020-09-12T11:58:27Z</time>
      </trkpt>
      <trkpt lat="41.0498170" lon="-2.3314130">
        <ele>1224.8</ele>
        <time>2020-09-12T11:58:28Z</time>
      </trkpt>
      <trkpt lat="41.0498120" lon="-2.3312970">
        <ele>1224.8</ele>
        <time>2020-09-12T11:58:29Z</time>
      </trkpt>
      <trkpt lat="41.0498060" lon="-2.3311790">
        <ele>1224.4</ele>
        <time>2020-09-12T11:58:30Z</time>
      </trkpt>
      <trkpt lat="41.0498000" lon="-2.3310600">
        <ele>1224.0</ele>
        <time>2020-09-12T11:58:31Z</time>
      </trkpt>
      <trkpt lat="41.0497950" lon="-2.3309390">
        <ele>1223.6</ele>
        <time>2020-09-12T11:58:32Z</time>
      </trkpt>
      <trkpt lat="41.0497890" lon="-2.3308150">
        <ele>1223.2</ele>
        <time>2020-09-12T11:58:33Z</time>
      </trkpt>
      <trkpt lat="41.0497850" lon="-2.3306910">
        <ele>1223.0</ele>
        <time>2020-09-12T11:58:34Z</time>
      </trkpt>
      <trkpt lat="41.0497800" lon="-2.3305640">
        <ele>1222.6</ele>
        <time>2020-09-12T11:58:35Z</time>
      </trkpt>
      <trkpt lat="41.0497730" lon="-2.3304340">
        <ele>1222.4</ele>
        <time>2020-09-12T11:58:36Z</time>
      </trkpt>
      <trkpt lat="41.0497660" lon="-2.3303040">
        <ele>1222.2</ele>
        <time>2020-09-12T11:58:37Z</time>
      </trkpt>
      <trkpt lat="41.0497580" lon="-2.3301710">
        <ele>1222.0</ele>
        <time>2020-09-12T11:58:38Z</time>
      </trkpt>
      <trkpt lat="41.0497490" lon="-2.3300370">
        <ele>1221.6</ele>
        <time>2020-09-12T11:58:39Z</time>
      </trkpt>
      <trkpt lat="41.0497410" lon="-2.3299010">
        <ele>1221.4</ele>
        <time>2020-09-12T11:58:40Z</time>
      </trkpt>
      <trkpt lat="41.0497350" lon="-2.3297650">
        <ele>1221.2</ele>
        <time>2020-09-12T11:58:41Z</time>
      </trkpt>
      <trkpt lat="41.0497290" lon="-2.3296280">
        <ele>1221.0</ele>
        <time>2020-09-12T11:58:42Z</time>
      </trkpt>
      <trkpt lat="41.0497230" lon="-2.3294890">
        <ele>1221.0</ele>
        <time>2020-09-12T11:58:43Z</time>
      </trkpt>
      <trkpt lat="41.0497160" lon="-2.3293490">
        <ele>1220.8</ele>
        <time>2020-09-12T11:58:44Z</time>
      </trkpt>
      <trkpt lat="41.0497100" lon="-2.3292070">
        <ele>1220.6</ele>
        <time>2020-09-12T11:58:45Z</time>
      </trkpt>
      <trkpt lat="41.0497030" lon="-2.3290640">
        <ele>1220.2</ele>
        <time>2020-09-12T11:58:46Z</time>
      </trkpt>
      <trkpt lat="41.0496960" lon="-2.3289200">
        <ele>1220.0</ele>
        <time>2020-09-12T11:58:47Z</time>
      </trkpt>
      <trkpt lat="41.0496900" lon="-2.3287750">
        <ele>1219.8</ele>
        <time>2020-09-12T11:58:48Z</time>
      </trkpt>
      <trkpt lat="41.0496820" lon="-2.3286300">
        <ele>1219.6</ele>
        <time>2020-09-12T11:58:49Z</time>
      </trkpt>
      <trkpt lat="41.0496750" lon="-2.3284840">
        <ele>1219.4</ele>
        <time>2020-09-12T11:58:50Z</time>
      </trkpt>
      <trkpt lat="41.0496680" lon="-2.3283380">
        <ele>1219.0</ele>
        <time>2020-09-12T11:58:51Z</time>
      </trkpt>
      <trkpt lat="41.0496580" lon="-2.3281930">
        <ele>1218.6</ele>
        <time>2020-09-12T11:58:52Z</time>
      </trkpt>
      <trkpt lat="41.0496490" lon="-2.3280470">
        <ele>1218.4</ele>
        <time>2020-09-12T11:58:53Z</time>
      </trkpt>
      <trkpt lat="41.0496380" lon="-2.3279020">
        <ele>1218.2</ele>
        <time>2020-09-12T11:58:54Z</time>
      </trkpt>
      <trkpt lat="41.0496280" lon="-2.3277570">
        <ele>1217.8</ele>
        <time>2020-09-12T11:58:55Z</time>
      </trkpt>
      <trkpt lat="41.0496170" lon="-2.3276120">
        <ele>1217.6</ele>
        <time>2020-09-12T11:58:56Z</time>
      </trkpt>
      <trkpt lat="41.0496080" lon="-2.3274670">
        <ele>1217.4</ele>
        <time>2020-09-12T11:58:57Z</time>
      </trkpt>
      <trkpt lat="41.0495980" lon="-2.3273230">
        <ele>1217.2</ele>
        <time>2020-09-12T11:58:58Z</time>
      </trkpt>
      <trkpt lat="41.0495880" lon="-2.3271800">
        <ele>1216.8</ele>
        <time>2020-09-12T11:58:59Z</time>
      </trkpt>
      <trkpt lat="41.0495790" lon="-2.3270390">
        <ele>1216.6</ele>
        <time>2020-09-12T11:59:00Z</time>
      </trkpt>
      <trkpt lat="41.0495710" lon="-2.3269000">
        <ele>1216.4</ele>
        <time>2020-09-12T11:59:01Z</time>
      </trkpt>
      <trkpt lat="41.0495620" lon="-2.3267600">
        <ele>1216.2</ele>
        <time>2020-09-12T11:59:02Z</time>
      </trkpt>
      <trkpt lat="41.0495530" lon="-2.3266220">
        <ele>1215.8</ele>
        <time>2020-09-12T11:59:03Z</time>
      </trkpt>
      <trkpt lat="41.0495430" lon="-2.3264850">
        <ele>1215.4</ele>
        <time>2020-09-12T11:59:04Z</time>
      </trkpt>
      <trkpt lat="41.0495350" lon="-2.3263500">
        <ele>1214.8</ele>
        <time>2020-09-12T11:59:05Z</time>
      </trkpt>
      <trkpt lat="41.0495270" lon="-2.3262150">
        <ele>1214.6</ele>
        <time>2020-09-12T11:59:06Z</time>
      </trkpt>
      <trkpt lat="41.0495190" lon="-2.3260810">
        <ele>1214.6</ele>
        <time>2020-09-12T11:59:07Z</time>
      </trkpt>
      <trkpt lat="41.0495130" lon="-2.3259480">
        <ele>1214.4</ele>
        <time>2020-09-12T11:59:08Z</time>
      </trkpt>
      <trkpt lat="41.0495070" lon="-2.3258160">
        <ele>1214.4</ele>
        <time>2020-09-12T11:59:09Z</time>
      </trkpt>
      <trkpt lat="41.0495000" lon="-2.3256860">
        <ele>1214.6</ele>
        <time>2020-09-12T11:59:10Z</time>
      </trkpt>
      <trkpt lat="41.0494930" lon="-2.3255570">
        <ele>1214.6</ele>
        <time>2020-09-12T11:59:11Z</time>
      </trkpt>
      <trkpt lat="41.0494870" lon="-2.3254300">
        <ele>1214.8</ele>
        <time>2020-09-12T11:59:12Z</time>
      </trkpt>
      <trkpt lat="41.0494810" lon="-2.3253030">
        <ele>1214.6</ele>
        <time>2020-09-12T11:59:13Z</time>
      </trkpt>
      <trkpt lat="41.0494740" lon="-2.3251780">
        <ele>1214.4</ele>
        <time>2020-09-12T11:59:14Z</time>
      </trkpt>
      <trkpt lat="41.0494670" lon="-2.3250530">
        <ele>1214.6</ele>
        <time>2020-09-12T11:59:15Z</time>
      </trkpt>
      <trkpt lat="41.0494580" lon="-2.3249290">
        <ele>1214.6</ele>
        <time>2020-09-12T11:59:16Z</time>
      </trkpt>
      <trkpt lat="41.0494510" lon="-2.3248060">
        <ele>1214.6</ele>
        <time>2020-09-12T11:59:17Z</time>
      </trkpt>
      <trkpt lat="41.0494440" lon="-2.3246820">
        <ele>1214.6</ele>
        <time>2020-09-12T11:59:18Z</time>
      </trkpt>
      <trkpt lat="41.0494350" lon="-2.3245600">
        <ele>1214.4</ele>
        <time>2020-09-12T11:59:19Z</time>
      </trkpt>
      <trkpt lat="41.0494270" lon="-2.3244370">
        <ele>1214.4</ele>
        <time>2020-09-12T11:59:20Z</time>
      </trkpt>
      <trkpt lat="41.0494190" lon="-2.3243150">
        <ele>1214.2</ele>
        <time>2020-09-12T11:59:21Z</time>
      </trkpt>
      <trkpt lat="41.0494100" lon="-2.3241930">
        <ele>1214.2</ele>
        <time>2020-09-12T11:59:22Z</time>
      </trkpt>
      <trkpt lat="41.0494000" lon="-2.3240720">
        <ele>1214.0</ele>
        <time>2020-09-12T11:59:23Z</time>
      </trkpt>
      <trkpt lat="41.0493910" lon="-2.3239510">
        <ele>1214.0</ele>
        <time>2020-09-12T11:59:24Z</time>
      </trkpt>
      <trkpt lat="41.0493810" lon="-2.3238310">
        <ele>1214.0</ele>
        <time>2020-09-12T11:59:25Z</time>
      </trkpt>
      <trkpt lat="41.0493730" lon="-2.3237110">
        <ele>1214.0</ele>
        <time>2020-09-12T11:59:26Z</time>
      </trkpt>
      <trkpt lat="41.0493650" lon="-2.3235910">
        <ele>1214.0</ele>
        <time>2020-09-12T11:59:27Z</time>
      </trkpt>
      <trkpt lat="41.0493570" lon="-2.3234700">
        <ele>1214.2</ele>
        <time>2020-09-12T11:59:28Z</time>
      </trkpt>
      <trkpt lat="41.0493520" lon="-2.3233500">
        <ele>1214.2</ele>
        <time>2020-09-12T11:59:29Z</time>
      </trkpt>
      <trkpt lat="41.0493470" lon="-2.3232290">
        <ele>1214.2</ele>
        <time>2020-09-12T11:59:30Z</time>
      </trkpt>
      <trkpt lat="41.0493410" lon="-2.3231090">
        <ele>1214.2</ele>
        <time>2020-09-12T11:59:31Z</time>
      </trkpt>
      <trkpt lat="41.0493350" lon="-2.3229880">
        <ele>1214.4</ele>
        <time>2020-09-12T11:59:32Z</time>
      </trkpt>
      <trkpt lat="41.0493290" lon="-2.3228680">
        <ele>1214.4</ele>
        <time>2020-09-12T11:59:33Z</time>
      </trkpt>
      <trkpt lat="41.0493240" lon="-2.3227450">
        <ele>1214.2</ele>
        <time>2020-09-12T11:59:34Z</time>
      </trkpt>
      <trkpt lat="41.0493180" lon="-2.3226240">
        <ele>1214.0</ele>
        <time>2020-09-12T11:59:35Z</time>
      </trkpt>
      <trkpt lat="41.0493120" lon="-2.3225000">
        <ele>1213.8</ele>
        <time>2020-09-12T11:59:36Z</time>
      </trkpt>
      <trkpt lat="41.0493060" lon="-2.3223760">
        <ele>1213.6</ele>
        <time>2020-09-12T11:59:37Z</time>
      </trkpt>
      <trkpt lat="41.0493000" lon="-2.3222500">
        <ele>1213.4</ele>
        <time>2020-09-12T11:59:38Z</time>
      </trkpt>
      <trkpt lat="41.0492950" lon="-2.3221250">
        <ele>1213.0</ele>
        <time>2020-09-12T11:59:39Z</time>
      </trkpt>
      <trkpt lat="41.0492900" lon="-2.3220000">
        <ele>1213.0</ele>
        <time>2020-09-12T11:59:40Z</time>
      </trkpt>
      <trkpt lat="41.0492840" lon="-2.3218740">
        <ele>1212.8</ele>
        <time>2020-09-12T11:59:41Z</time>
      </trkpt>
      <trkpt lat="41.0492760" lon="-2.3217470">
        <ele>1212.6</ele>
        <time>2020-09-12T11:59:42Z</time>
      </trkpt>
      <trkpt lat="41.0492670" lon="-2.3216210">
        <ele>1212.6</ele>
        <time>2020-09-12T11:59:43Z</time>
      </trkpt>
      <trkpt lat="41.0492590" lon="-2.3214970">
        <ele>1212.6</ele>
        <time>2020-09-12T11:59:44Z</time>
      </trkpt>
      <trkpt lat="41.0492500" lon="-2.3213750">
        <ele>1212.6</ele>
        <time>2020-09-12T11:59:45Z</time>
      </trkpt>
      <trkpt lat="41.0492400" lon="-2.3212560">
        <ele>1212.8</ele>
        <time>2020-09-12T11:59:46Z</time>
      </trkpt>
      <trkpt lat="41.0492300" lon="-2.3211420">
        <ele>1212.8</ele>
        <time>2020-09-12T11:59:47Z</time>
      </trkpt>
      <trkpt lat="41.0492210" lon="-2.3210300">
        <ele>1212.8</ele>
        <time>2020-09-12T11:59:48Z</time>
      </trkpt>
      <trkpt lat="41.0492150" lon="-2.3209220">
        <ele>1212.8</ele>
        <time>2020-09-12T11:59:49Z</time>
      </trkpt>
      <trkpt lat="41.0492090" lon="-2.3208150">
        <ele>1212.8</ele>
        <time>2020-09-12T11:59:50Z</time>
      </trkpt>
      <trkpt lat="41.0492060" lon="-2.3207090">
        <ele>1212.8</ele>
        <time>2020-09-12T11:59:51Z</time>
      </trkpt>
      <trkpt lat="41.0492010" lon="-2.3206050">
        <ele>1213.0</ele>
        <time>2020-09-12T11:59:52Z</time>
      </trkpt>
      <trkpt lat="41.0491940" lon="-2.3205000">
        <ele>1213.0</ele>
        <time>2020-09-12T11:59:53Z</time>
      </trkpt>
      <trkpt lat="41.0491880" lon="-2.3203980">
        <ele>1213.0</ele>
        <time>2020-09-12T11:59:54Z</time>
      </trkpt>
      <trkpt lat="41.0491830" lon="-2.3202980">
        <ele>1213.2</ele>
        <time>2020-09-12T11:59:55Z</time>
      </trkpt>
      <trkpt lat="41.0491790" lon="-2.3201990">
        <ele>1213.2</ele>
        <time>2020-09-12T11:59:56Z</time>
      </trkpt>
      <trkpt lat="41.0491760" lon="-2.3201020">
        <ele>1213.4</ele>
        <time>2020-09-12T11:59:57Z</time>
      </trkpt>
      <trkpt lat="41.0491720" lon="-2.3200080">
        <ele>1213.4</ele>
        <time>2020-09-12T11:59:58Z</time>
      </trkpt>
      <trkpt lat="41.0491690" lon="-2.3199150">
        <ele>1213.6</ele>
        <time>2020-09-12T11:59:59Z</time>
      </trkpt>
      <trkpt lat="41.0491660" lon="-2.3198250">
        <ele>1213.6</ele>
        <time>2020-09-12T12:00:00Z</time>
      </trkpt>
      <trkpt lat="41.0491600" lon="-2.3197360">
        <ele>1213.8</ele>
        <time>2020-09-12T12:00:01Z</time>
      </trkpt>
      <trkpt lat="41.0491540" lon="-2.3196480">
        <ele>1214.0</ele>
        <time>2020-09-12T12:00:02Z</time>
      </trkpt>
      <trkpt lat="41.0491480" lon="-2.3195610">
        <ele>1214.0</ele>
        <time>2020-09-12T12:00:03Z</time>
      </trkpt>
      <trkpt lat="41.0491420" lon="-2.3194730">
        <ele>1214.0</ele>
        <time>2020-09-12T12:00:04Z</time>
      </trkpt>
      <trkpt lat="41.0491370" lon="-2.3193860">
        <ele>1214.0</ele>
        <time>2020-09-12T12:00:05Z</time>
      </trkpt>
      <trkpt lat="41.0491300" lon="-2.3193000">
        <ele>1214.2</ele>
        <time>2020-09-12T12:00:06Z</time>
      </trkpt>
      <trkpt lat="41.0491230" lon="-2.3192160">
        <ele>1214.2</ele>
        <time>2020-09-12T12:00:07Z</time>
      </trkpt>
      <trkpt lat="41.0491180" lon="-2.3191330">
        <ele>1214.2</ele>
        <time>2020-09-12T12:00:08Z</time>
      </trkpt>
      <trkpt lat="41.0491120" lon="-2.3190500">
        <ele>1214.4</ele>
        <time>2020-09-12T12:00:09Z</time>
      </trkpt>
      <trkpt lat="41.0491060" lon="-2.3189670">
        <ele>1214.6</ele>
        <time>2020-09-12T12:00:10Z</time>
      </trkpt>
      <trkpt lat="41.0490990" lon="-2.3188840">
        <ele>1214.8</ele>
        <time>2020-09-12T12:00:11Z</time>
      </trkpt>
      <trkpt lat="41.0490930" lon="-2.3188010">
        <ele>1214.8</ele>
        <time>2020-09-12T12:00:12Z</time>
      </trkpt>
      <trkpt lat="41.0490880" lon="-2.3187180">
        <ele>1215.0</ele>
        <time>2020-09-12T12:00:13Z</time>
      </trkpt>
      <trkpt lat="41.0490840" lon="-2.3186350">
        <ele>1215.2</ele>
        <time>2020-09-12T12:00:14Z</time>
      </trkpt>
      <trkpt lat="41.0490790" lon="-2.3185520">
        <ele>1215.4</ele>
        <time>2020-09-12T12:00:15Z</time>
      </trkpt>
      <trkpt lat="41.0490750" lon="-2.3184700">
        <ele>1215.6</ele>
        <time>2020-09-12T12:00:16Z</time>
      </trkpt>
      <trkpt lat="41.0490720" lon="-2.3183880">
        <ele>1215.6</ele>
        <time>2020-09-12T12:00:17Z</time>
      </trkpt>
      <trkpt lat="41.0490690" lon="-2.3183060">
        <ele>1215.6</ele>
        <time>2020-09-12T12:00:18Z</time>
      </trkpt>
      <trkpt lat="41.0490640" lon="-2.3182240">
        <ele>1215.8</ele>
        <time>2020-09-12T12:00:19Z</time>
      </trkpt>
      <trkpt lat="41.0490570" lon="-2.3181420">
        <ele>1215.8</ele>
        <time>2020-09-12T12:00:20Z</time>
      </trkpt>
      <trkpt lat="41.0490520" lon="-2.3180610">
        <ele>1216.0</ele>
        <time>2020-09-12T12:00:21Z</time>
      </trkpt>
      <trkpt lat="41.0490480" lon="-2.3179780">
        <ele>1216.0</ele>
        <time>2020-09-12T12:00:22Z</time>
      </trkpt>
      <trkpt lat="41.0490440" lon="-2.3178960">
        <ele>1216.2</ele>
        <time>2020-09-12T12:00:23Z</time>
      </trkpt>
      <trkpt lat="41.0490400" lon="-2.3178150">
        <ele>1216.4</ele>
        <time>2020-09-12T12:00:24Z</time>
      </trkpt>
      <trkpt lat="41.0490370" lon="-2.3177340">
        <ele>1216.6</ele>
        <time>2020-09-12T12:00:25Z</time>
      </trkpt>
      <trkpt lat="41.0490350" lon="-2.3176510">
        <ele>1217.0</ele>
        <time>2020-09-12T12:00:26Z</time>
      </trkpt>
      <trkpt lat="41.0490320" lon="-2.3175690">
        <ele>1217.2</ele>
        <time>2020-09-12T12:00:27Z</time>
      </trkpt>
      <trkpt lat="41.0490280" lon="-2.3174870">
        <ele>1217.4</ele>
        <time>2020-09-12T12:00:28Z</time>
      </trkpt>
      <trkpt lat="41.0490250" lon="-2.3174030">
        <ele>1217.4</ele>
        <time>2020-09-12T12:00:29Z</time>
      </trkpt>
      <trkpt lat="41.0490220" lon="-2.3173200">
        <ele>1217.6</ele>
        <time>2020-09-12T12:00:30Z</time>
      </trkpt>
      <trkpt lat="41.0490180" lon="-2.3172360">
        <ele>1217.8</ele>
        <time>2020-09-12T12:00:31Z</time>
      </trkpt>
      <trkpt lat="41.0490140" lon="-2.3171520">
        <ele>1218.0</ele>
        <time>2020-09-12T12:00:32Z</time>
      </trkpt>
      <trkpt lat="41.0490100" lon="-2.3170690">
        <ele>1218.2</ele>
        <time>2020-09-12T12:00:33Z</time>
      </trkpt>
      <trkpt lat="41.0490050" lon="-2.3169860">
        <ele>1218.2</ele>
        <time>2020-09-12T12:00:34Z</time>
      </trkpt>
      <trkpt lat="41.0490010" lon="-2.3169030">
        <ele>1218.6</ele>
        <time>2020-09-12T12:00:35Z</time>
      </trkpt>
      <trkpt lat="41.0489960" lon="-2.3168190">
        <ele>1218.6</ele>
        <time>2020-09-12T12:00:36Z</time>
      </trkpt>
      <trkpt lat="41.0489910" lon="-2.3167370">
        <ele>1218.8</ele>
        <time>2020-09-12T12:00:37Z</time>
      </trkpt>
      <trkpt lat="41.0489860" lon="-2.3166560">
        <ele>1219.0</ele>
        <time>2020-09-12T12:00:38Z</time>
      </trkpt>
      <trkpt lat="41.0489800" lon="-2.3165750">
        <ele>1219.0</ele>
        <time>2020-09-12T12:00:39Z</time>
      </trkpt>
      <trkpt lat="41.0489740" lon="-2.3164950">
        <ele>1219.2</ele>
        <time>2020-09-12T12:00:40Z</time>
      </trkpt>
      <trkpt lat="41.0489710" lon="-2.3164150">
        <ele>1219.6</ele>
        <time>2020-09-12T12:00:41Z</time>
      </trkpt>
      <trkpt lat="41.0489670" lon="-2.3163370">
        <ele>1220.0</ele>
        <time>2020-09-12T12:00:42Z</time>
      </trkpt>
      <trkpt lat="41.0489630" lon="-2.3162580">
        <ele>1220.2</ele>
        <time>2020-09-12T12:00:43Z</time>
      </trkpt>
      <trkpt lat="41.0489570" lon="-2.3161810">
        <ele>1220.4</ele>
        <time>2020-09-12T12:00:44Z</time>
      </trkpt>
      <trkpt lat="41.0489510" lon="-2.3161040">
        <ele>1220.6</ele>
        <time>2020-09-12T12:00:45Z</time>
      </trkpt>
      <trkpt lat="41.0489450" lon="-2.3160260">
        <ele>1220.8</ele>
        <time>2020-09-12T12:00:46Z</time>
      </trkpt>
      <trkpt lat="41.0489400" lon="-2.3159490">
        <ele>1220.8</ele>
        <time>2020-09-12T12:00:47Z</time>
      </trkpt>
      <trkpt lat="41.0489360" lon="-2.3158720">
        <ele>1221.0</ele>
        <time>2020-09-12T12:00:48Z</time>
      </trkpt>
      <trkpt lat="41.0489320" lon="-2.3157960">
        <ele>1221.2</ele>
        <time>2020-09-12T12:00:49Z</time>
      </trkpt>
      <trkpt lat="41.0489280" lon="-2.3157180">
        <ele>1221.4</ele>
        <time>2020-09-12T12:00:50Z</time>
      </trkpt>
      <trkpt lat="41.0489220" lon="-2.3156400">
        <ele>1221.8</ele>
        <time>2020-09-12T12:00:51Z</time>
      </trkpt>
      <trkpt lat="41.0489160" lon="-2.3155600">
        <ele>1222.4</ele>
        <time>2020-09-12T12:00:52Z</time>
      </trkpt>
      <trkpt lat="41.0489090" lon="-2.3154810">
        <ele>1222.6</ele>
        <time>2020-09-12T12:00:53Z</time>
      </trkpt>
      <trkpt lat="41.0489020" lon="-2.3154020">
        <ele>1222.6</ele>
        <time>2020-09-12T12:00:54Z</time>
      </trkpt>
      <trkpt lat="41.0488970" lon="-2.3153220">
        <ele>1222.6</ele>
        <time>2020-09-12T12:00:55Z</time>
      </trkpt>
      <trkpt lat="41.0488940" lon="-2.3152410">
        <ele>1222.6</ele>
        <time>2020-09-12T12:00:56Z</time>
      </trkpt>
      <trkpt lat="41.0488890" lon="-2.3151600">
        <ele>1222.6</ele>
        <time>2020-09-12T12:00:57Z</time>
      </trkpt>
      <trkpt lat="41.0488840" lon="-2.3150770">
        <ele>1222.4</ele>
        <time>2020-09-12T12:00:58Z</time>
      </trkpt>
      <trkpt lat="41.0488800" lon="-2.3149940">
        <ele>1222.4</ele>
        <time>2020-09-12T12:00:59Z</time>
      </trkpt>
      <trkpt lat="41.0488760" lon="-2.3149090">
        <ele>1222.2</ele>
        <time>2020-09-12T12:01:00Z</time>
      </trkpt>
      <trkpt lat="41.0488720" lon="-2.3148230">
        <ele>1222.2</ele>
        <time>2020-09-12T12:01:01Z</time>
      </trkpt>
      <trkpt lat="41.0488690" lon="-2.3147360">
        <ele>1222.2</ele>
        <time>2020-09-12T12:01:02Z</time>
      </trkpt>
      <trkpt lat="41.0488650" lon="-2.3146470">
        <ele>1222.0</ele>
        <time>2020-09-12T12:01:03Z</time>
      </trkpt>
      <trkpt lat="41.0488620" lon="-2.3145560">
        <ele>1222.0</ele>
        <time>2020-09-12T12:01:04Z</time>
      </trkpt>
      <trkpt lat="41.0488580" lon="-2.3144640">
        <ele>1222.0</ele>
        <time>2020-09-12T12:01:05Z</time>
      </trkpt>
      <trkpt lat="41.0488550" lon="-2.3143720">
        <ele>1222.0</ele>
        <time>2020-09-12T12:01:06Z</time>
      </trkpt>
      <trkpt lat="41.0488500" lon="-2.3142790">
        <ele>1222.0</ele>
        <time>2020-09-12T12:01:07Z</time>
      </trkpt>
      <trkpt lat="41.0488460" lon="-2.3141840">
        <ele>1221.8</ele>
        <time>2020-09-12T12:01:08Z</time>
      </trkpt>
      <trkpt lat="41.0488430" lon="-2.3140870">
        <ele>1221.8</ele>
        <time>2020-09-12T12:01:09Z</time>
      </trkpt>
      <trkpt lat="41.0488380" lon="-2.3139910">
        <ele>1221.8</ele>
        <time>2020-09-12T12:01:10Z</time>
      </trkpt>
      <trkpt lat="41.0488320" lon="-2.3138930">
        <ele>1221.8</ele>
        <time>2020-09-12T12:01:11Z</time>
      </trkpt>
      <trkpt lat="41.0488270" lon="-2.3137930">
        <ele>1221.8</ele>
        <time>2020-09-12T12:01:12Z</time>
      </trkpt>
      <trkpt lat="41.0488220" lon="-2.3136930">
        <ele>1221.6</ele>
        <time>2020-09-12T12:01:13Z</time>
      </trkpt>
      <trkpt lat="41.0488160" lon="-2.3135910">
        <ele>1221.6</ele>
        <time>2020-09-12T12:01:14Z</time>
      </trkpt>
      <trkpt lat="41.0488100" lon="-2.3134880">
        <ele>1221.8</ele>
        <time>2020-09-12T12:01:15Z</time>
      </trkpt>
      <trkpt lat="41.0488040" lon="-2.3133880">
        <ele>1221.8</ele>
        <time>2020-09-12T12:01:16Z</time>
      </trkpt>
      <trkpt lat="41.0487970" lon="-2.3132850">
        <ele>1222.0</ele>
        <time>2020-09-12T12:01:17Z</time>
      </trkpt>
      <trkpt lat="41.0487900" lon="-2.3131800">
        <ele>1221.8</ele>
        <time>2020-09-12T12:01:18Z</time>
      </trkpt>
      <trkpt lat="41.0487810" lon="-2.3130750">
        <ele>1221.8</ele>
        <time>2020-09-12T12:01:19Z</time>
      </trkpt>
      <trkpt lat="41.0487720" lon="-2.3129710">
        <ele>1221.8</ele>
        <time>2020-09-12T12:01:20Z</time>
      </trkpt>
      <trkpt lat="41.0487610" lon="-2.3128640">
        <ele>1221.8</ele>
        <time>2020-09-12T12:01:21Z</time>
      </trkpt>
      <trkpt lat="41.0487500" lon="-2.3127550">
        <ele>1221.6</ele>
        <time>2020-09-12T12:01:22Z</time>
      </trkpt>
      <trkpt lat="41.0487390" lon="-2.3126460">
        <ele>1221.4</ele>
        <time>2020-09-12T12:01:23Z</time>
      </trkpt>
      <trkpt lat="41.0487250" lon="-2.3125370">
        <ele>1221.4</ele>
        <time>2020-09-12T12:01:24Z</time>
      </trkpt>
      <trkpt lat="41.0487100" lon="-2.3124260">
        <ele>1221.4</ele>
        <time>2020-09-12T12:01:25Z</time>
      </trkpt>
      <trkpt lat="41.0486960" lon="-2.3123110">
        <ele>1221.4</ele>
        <time>2020-09-12T12:01:26Z</time>
      </trkpt>
      <trkpt lat="41.0486820" lon="-2.3121970">
        <ele>1221.4</ele>
        <time>2020-09-12T12:01:27Z</time>
      </trkpt>
      <trkpt lat="41.0486690" lon="-2.3120820">
        <ele>1221.4</ele>
        <time>2020-09-12T12:01:28Z</time>
      </trkpt>
      <trkpt lat="41.0486540" lon="-2.3119670">
        <ele>1221.2</ele>
        <time>2020-09-12T12:01:29Z</time>
      </trkpt>
      <trkpt lat="41.0486390" lon="-2.3118520">
        <ele>1221.2</ele>
        <time>2020-09-12T12:01:30Z</time>
      </trkpt>
      <trkpt lat="41.0486250" lon="-2.3117370">
        <ele>1221.0</ele>
        <time>2020-09-12T12:01:31Z</time>
      </trkpt>
      <trkpt lat="41.0486110" lon="-2.3116210">
        <ele>1220.8</ele>
        <time>2020-09-12T12:01:32Z</time>
      </trkpt>
      <trkpt lat="41.0485960" lon="-2.3115040">
        <ele>1220.8</ele>
        <time>2020-09-12T12:01:33Z</time>
      </trkpt>
      <trkpt lat="41.0485790" lon="-2.3113870">
        <ele>1220.6</ele>
        <time>2020-09-12T12:01:34Z</time>
      </trkpt>
      <trkpt lat="41.0485630" lon="-2.3112690">
        <ele>1220.6</ele>
        <time>2020-09-12T12:01:35Z</time>
      </trkpt>
      <trkpt lat="41.0485450" lon="-2.3111510">
        <ele>1220.6</ele>
        <time>2020-09-12T12:01:36Z</time>
      </trkpt>
      <trkpt lat="41.0485260" lon="-2.3110330">
        <ele>1220.6</ele>
        <time>2020-09-12T12:01:37Z</time>
      </trkpt>
      <trkpt lat="41.0485050" lon="-2.3109150">
        <ele>1220.6</ele>
        <time>2020-09-12T12:01:38Z</time>
      </trkpt>
      <trkpt lat="41.0484840" lon="-2.3107970">
        <ele>1220.4</ele>
        <time>2020-09-12T12:01:39Z</time>
      </trkpt>
      <trkpt lat="41.0484610" lon="-2.3106800">
        <ele>1220.4</ele>
        <time>2020-09-12T12:01:40Z</time>
      </trkpt>
      <trkpt lat="41.0484360" lon="-2.3105630">
        <ele>1220.4</ele>
        <time>2020-09-12T12:01:41Z</time>
      </trkpt>
      <trkpt lat="41.0484110" lon="-2.3104480">
        <ele>1220.4</ele>
        <time>2020-09-12T12:01:42Z</time>
      </trkpt>
      <trkpt lat="41.0483880" lon="-2.3103340">
        <ele>1220.4</ele>
        <time>2020-09-12T12:01:43Z</time>
      </trkpt>
      <trkpt lat="41.0483650" lon="-2.3102200">
        <ele>1220.2</ele>
        <time>2020-09-12T12:01:44Z</time>
      </trkpt>
      <trkpt lat="41.0483410" lon="-2.3101080">
        <ele>1220.2</ele>
        <time>2020-09-12T12:01:45Z</time>
      </trkpt>
      <trkpt lat="41.0483180" lon="-2.3099960">
        <ele>1220.2</ele>
        <time>2020-09-12T12:01:46Z</time>
      </trkpt>
      <trkpt lat="41.0482930" lon="-2.3098830">
        <ele>1219.8</ele>
        <time>2020-09-12T12:01:47Z</time>
      </trkpt>
      <trkpt lat="41.0482680" lon="-2.3097730">
        <ele>1219.6</ele>
        <time>2020-09-12T12:01:48Z</time>
      </trkpt>
      <trkpt lat="41.0482420" lon="-2.3096620">
        <ele>1219.6</ele>
        <time>2020-09-12T12:01:49Z</time>
      </trkpt>
      <trkpt lat="41.0482160" lon="-2.3095530">
        <ele>1219.4</ele>
        <time>2020-09-12T12:01:50Z</time>
      </trkpt>
      <trkpt lat="41.0481890" lon="-2.3094430">
        <ele>1219.4</ele>
        <time>2020-09-12T12:01:51Z</time>
      </trkpt>
      <trkpt lat="41.0481640" lon="-2.3093340">
        <ele>1219.6</ele>
        <time>2020-09-12T12:01:52Z</time>
      </trkpt>
      <trkpt lat="41.0481370" lon="-2.3092250">
        <ele>1219.6</ele>
        <time>2020-09-12T12:01:53Z</time>
      </trkpt>
      <trkpt lat="41.0481090" lon="-2.3091160">
        <ele>1219.8</ele>
        <time>2020-09-12T12:01:54Z</time>
      </trkpt>
      <trkpt lat="41.0480800" lon="-2.3090080">
        <ele>1219.8</ele>
        <time>2020-09-12T12:01:55Z</time>
      </trkpt>
      <trkpt lat="41.0480530" lon="-2.3088980">
        <ele>1219.8</ele>
        <time>2020-09-12T12:01:56Z</time>
      </trkpt>
      <trkpt lat="41.0480260" lon="-2.3087850">
        <ele>1219.8</ele>
        <time>2020-09-12T12:01:57Z</time>
      </trkpt>
      <trkpt lat="41.0479990" lon="-2.3086700">
        <ele>1219.6</ele>
        <time>2020-09-12T12:01:58Z</time>
      </trkpt>
      <trkpt lat="41.0479730" lon="-2.3085530">
        <ele>1219.4</ele>
        <time>2020-09-12T12:01:59Z</time>
      </trkpt>
      <trkpt lat="41.0479480" lon="-2.3084350">
        <ele>1219.2</ele>
        <time>2020-09-12T12:02:00Z</time>
      </trkpt>
      <trkpt lat="41.0479240" lon="-2.3083150">
        <ele>1219.0</ele>
        <time>2020-09-12T12:02:01Z</time>
      </trkpt>
      <trkpt lat="41.0479020" lon="-2.3081920">
        <ele>1218.8</ele>
        <time>2020-09-12T12:02:02Z</time>
      </trkpt>
      <trkpt lat="41.0478810" lon="-2.3080690">
        <ele>1218.8</ele>
        <time>2020-09-12T12:02:03Z</time>
      </trkpt>
      <trkpt lat="41.0478620" lon="-2.3079440">
        <ele>1218.6</ele>
        <time>2020-09-12T12:02:04Z</time>
      </trkpt>
      <trkpt lat="41.0478430" lon="-2.3078180">
        <ele>1218.8</ele>
        <time>2020-09-12T12:02:05Z</time>
      </trkpt>
      <trkpt lat="41.0478270" lon="-2.3076920">
        <ele>1218.8</ele>
        <time>2020-09-12T12:02:06Z</time>
      </trkpt>
      <trkpt lat="41.0478140" lon="-2.3075650">
        <ele>1218.6</ele>
        <time>2020-09-12T12:02:07Z</time>
      </trkpt>
      <trkpt lat="41.0478020" lon="-2.3074390">
        <ele>1218.2</ele>
        <time>2020-09-12T12:02:08Z</time>
      </trkpt>
      <trkpt lat="41.0477930" lon="-2.3073140">
        <ele>1217.8</ele>
        <time>2020-09-12T12:02:09Z</time>
      </trkpt>
      <trkpt lat="41.0477840" lon="-2.3071890">
        <ele>1217.6</ele>
        <time>2020-09-12T12:02:10Z</time>
      </trkpt>
      <trkpt lat="41.0477760" lon="-2.3070660">
        <ele>1217.4</ele>
        <time>2020-09-12T12:02:11Z</time>
      </trkpt>
      <trkpt lat="41.0477700" lon="-2.3069450">
        <ele>1217.4</ele>
        <time>2020-09-12T12:02:12Z</time>
      </trkpt>
      <trkpt lat="41.0477650" lon="-2.3068250">
        <ele>1217.4</ele>
        <time>2020-09-12T12:02:13Z</time>
      </trkpt>
      <trkpt lat="41.0477610" lon="-2.3067070">
        <ele>1217.2</ele>
        <time>2020-09-12T12:02:14Z</time>
      </trkpt>
      <trkpt lat="41.0477560" lon="-2.3065910">
        <ele>1217.2</ele>
        <time>2020-09-12T12:02:15Z</time>
      </trkpt>
      <trkpt lat="41.0477530" lon="-2.3064760">
        <ele>1217.2</ele>
        <time>2020-09-12T12:02:16Z</time>
      </trkpt>
      <trkpt lat="41.0477500" lon="-2.3063620">
        <ele>1217.0</ele>
        <time>2020-09-12T12:02:17Z</time>
      </trkpt>
      <trkpt lat="41.0477480" lon="-2.3062510">
        <ele>1216.8</ele>
        <time>2020-09-12T12:02:18Z</time>
      </trkpt>
      <trkpt lat="41.0477460" lon="-2.3061410">
        <ele>1216.8</ele>
        <time>2020-09-12T12:02:19Z</time>
      </trkpt>
      <trkpt lat="41.0477440" lon="-2.3060340">
        <ele>1216.6</ele>
        <time>2020-09-12T12:02:20Z</time>
      </trkpt>
      <trkpt lat="41.0477420" lon="-2.3059280">
        <ele>1216.4</ele>
        <time>2020-09-12T12:02:21Z</time>
      </trkpt>
      <trkpt lat="41.0477400" lon="-2.3058230">
        <ele>1216.2</ele>
        <time>2020-09-12T12:02:22Z</time>
      </trkpt>
      <trkpt lat="41.0477390" lon="-2.3057180">
        <ele>1215.8</ele>
        <time>2020-09-12T12:02:23Z</time>
      </trkpt>
      <trkpt lat="41.0477370" lon="-2.3056140">
        <ele>1215.6</ele>
        <time>2020-09-12T12:02:24Z</time>
      </trkpt>
      <trkpt lat="41.0477340" lon="-2.3055100">
        <ele>1215.4</ele>
        <time>2020-09-12T12:02:25Z</time>
      </trkpt>
      <trkpt lat="41.0477320" lon="-2.3054070">
        <ele>1215.4</ele>
        <time>2020-09-12T12:02:26Z</time>
      </trkpt>
      <trkpt lat="41.0477310" lon="-2.3053050">
        <ele>1215.2</ele>
        <time>2020-09-12T12:02:27Z</time>
      </trkpt>
      <trkpt lat="41.0477300" lon="-2.3052040">
        <ele>1215.2</ele>
        <time>2020-09-12T12:02:28Z</time>
      </trkpt>
      <trkpt lat="41.0477290" lon="-2.3051050">
        <ele>1215.2</ele>
        <time>2020-09-12T12:02:29Z</time>
      </trkpt>
      <trkpt lat="41.0477300" lon="-2.3050070">
        <ele>1215.2</ele>
        <time>2020-09-12T12:02:30Z</time>
      </trkpt>
      <trkpt lat="41.0477290" lon="-2.3049090">
        <ele>1215.2</ele>
        <time>2020-09-12T12:02:31Z</time>
      </trkpt>
      <trkpt lat="41.0477280" lon="-2.3048130">
        <ele>1215.2</ele>
        <time>2020-09-12T12:02:32Z</time>
      </trkpt>
      <trkpt lat="41.0477270" lon="-2.3047180">
        <ele>1215.2</ele>
        <time>2020-09-12T12:02:33Z</time>
      </trkpt>
      <trkpt lat="41.0477260" lon="-2.3046230">
        <ele>1215.4</ele>
        <time>2020-09-12T12:02:34Z</time>
      </trkpt>
      <trkpt lat="41.0477260" lon="-2.3045300">
        <ele>1215.4</ele>
        <time>2020-09-12T12:02:35Z</time>
      </trkpt>
      <trkpt lat="41.0477260" lon="-2.3044370">
        <ele>1215.6</ele>
        <time>2020-09-12T12:02:36Z</time>
      </trkpt>
      <trkpt lat="41.0477260" lon="-2.3043470">
        <ele>1215.8</ele>
        <time>2020-09-12T12:02:37Z</time>
      </trkpt>
      <trkpt lat="41.0477260" lon="-2.3042580">
        <ele>1216.0</ele>
        <time>2020-09-12T12:02:38Z</time>
      </trkpt>
      <trkpt lat="41.0477250" lon="-2.3041700">
        <ele>1216.2</ele>
        <time>2020-09-12T12:02:39Z</time>
      </trkpt>
      <trkpt lat="41.0477240" lon="-2.3040840">
        <ele>1216.2</ele>
        <time>2020-09-12T12:02:40Z</time>
      </trkpt>
      <trkpt lat="41.0477230" lon="-2.3040000">
        <ele>1216.2</ele>
        <time>2020-09-12T12:02:41Z</time>
      </trkpt>
      <trkpt lat="41.0477220" lon="-2.3039150">
        <ele>1216.2</ele>
        <time>2020-09-12T12:02:42Z</time>
      </trkpt>
      <trkpt lat="41.0477210" lon="-2.3038300">
        <ele>1216.2</ele>
        <time>2020-09-12T12:02:43Z</time>
      </trkpt>
      <trkpt lat="41.0477220" lon="-2.3037470">
        <ele>1216.2</ele>
        <time>2020-09-12T12:02:44Z</time>
      </trkpt>
      <trkpt lat="41.0477220" lon="-2.3036640">
        <ele>1216.2</ele>
        <time>2020-09-12T12:02:45Z</time>
      </trkpt>
      <trkpt lat="41.0477230" lon="-2.3035820">
        <ele>1216.2</ele>
        <time>2020-09-12T12:02:46Z</time>
      </trkpt>
      <trkpt lat="41.0477230" lon="-2.3034990">
        <ele>1216.4</ele>
        <time>2020-09-12T12:02:47Z</time>
      </trkpt>
      <trkpt lat="41.0477220" lon="-2.3034170">
        <ele>1216.4</ele>
        <time>2020-09-12T12:02:48Z</time>
      </trkpt>
      <trkpt lat="41.0477200" lon="-2.3033350">
        <ele>1216.6</ele>
        <time>2020-09-12T12:02:49Z</time>
      </trkpt>
      <trkpt lat="41.0477170" lon="-2.3032530">
        <ele>1216.6</ele>
        <time>2020-09-12T12:02:50Z</time>
      </trkpt>
      <trkpt lat="41.0477170" lon="-2.3031680">
        <ele>1216.8</ele>
        <time>2020-09-12T12:02:51Z</time>
      </trkpt>
      <trkpt lat="41.0477180" lon="-2.3030840">
        <ele>1216.8</ele>
        <time>2020-09-12T12:02:52Z</time>
      </trkpt>
      <trkpt lat="41.0477160" lon="-2.3030000">
        <ele>1217.0</ele>
        <time>2020-09-12T12:02:53Z</time>
      </trkpt>
      <trkpt lat="41.0477150" lon="-2.3029170">
        <ele>1217.4</ele>
        <time>2020-09-12T12:02:54Z</time>
      </trkpt>
      <trkpt lat="41.0477140" lon="-2.3028320">
        <ele>1217.6</ele>
        <time>2020-09-12T12:02:55Z</time>
      </trkpt>
      <trkpt lat="41.0477130" lon="-2.3027470">
        <ele>1217.8</ele>
        <time>2020-09-12T12:02:56Z</time>
      </trkpt>
      <trkpt lat="41.0477100" lon="-2.3026580">
        <ele>1218.0</ele>
        <time>2020-09-12T12:02:57Z</time>
      </trkpt>
      <trkpt lat="41.0477100" lon="-2.3025690">
        <ele>1218.2</ele>
        <time>2020-09-12T12:02:58Z</time>
      </trkpt>
      <trkpt lat="41.0477090" lon="-2.3024800">
        <ele>1218.2</ele>
        <time>2020-09-12T12:02:59Z</time>
      </trkpt>
      <trkpt lat="41.0477080" lon="-2.3023910">
        <ele>1218.2</ele>
        <time>2020-09-12T12:03:00Z</time>
      </trkpt>
      <trkpt lat="41.0477070" lon="-2.3023020">
        <ele>1218.4</ele>
        <time>2020-09-12T12:03:01Z</time>
      </trkpt>
      <trkpt lat="41.0477050" lon="-2.3022140">
        <ele>1218.6</ele>
        <time>2020-09-12T12:03:02Z</time>
      </trkpt>
      <trkpt lat="41.0477020" lon="-2.3021250">
        <ele>1219.0</ele>
        <time>2020-09-12T12:03:03Z</time>
      </trkpt>
      <trkpt lat="41.0477010" lon="-2.3020360">
        <ele>1219.2</ele>
        <time>2020-09-12T12:03:04Z</time>
      </trkpt>
      <trkpt lat="41.0477000" lon="-2.3019480">
        <ele>1219.4</ele>
        <time>2020-09-12T12:03:05Z</time>
      </trkpt>
      <trkpt lat="41.0477010" lon="-2.3018600">
        <ele>1219.6</ele>
        <time>2020-09-12T12:03:06Z</time>
      </trkpt>
      <trkpt lat="41.0477000" lon="-2.3017710">
        <ele>1219.6</ele>
        <time>2020-09-12T12:03:07Z</time>
      </trkpt>
      <trkpt lat="41.0476990" lon="-2.3016830">
        <ele>1219.6</ele>
        <time>2020-09-12T12:03:08Z</time>
      </trkpt>
      <trkpt lat="41.0476960" lon="-2.3015960">
        <ele>1219.6</ele>
        <time>2020-09-12T12:03:09Z</time>
      </trkpt>
      <trkpt lat="41.0476930" lon="-2.3015070">
        <ele>1219.6</ele>
        <time>2020-09-12T12:03:10Z</time>
      </trkpt>
      <trkpt lat="41.0476910" lon="-2.3014160">
        <ele>1219.6</ele>
        <time>2020-09-12T12:03:11Z</time>
      </trkpt>
      <trkpt lat="41.0476910" lon="-2.3013250">
        <ele>1219.6</ele>
        <time>2020-09-12T12:03:12Z</time>
      </trkpt>
      <trkpt lat="41.0476900" lon="-2.3012320">
        <ele>1219.8</ele>
        <time>2020-09-12T12:03:13Z</time>
      </trkpt>
      <trkpt lat="41.0476870" lon="-2.3011380">
        <ele>1219.8</ele>
        <time>2020-09-12T12:03:14Z</time>
      </trkpt>
      <trkpt lat="41.0476860" lon="-2.3010440">
        <ele>1219.8</ele>
        <time>2020-09-12T12:03:15Z</time>
      </trkpt>
      <trkpt lat="41.0476850" lon="-2.3009470">
        <ele>1219.8</ele>
        <time>2020-09-12T12:03:16Z</time>
      </trkpt>
      <trkpt lat="41.0476840" lon="-2.3008490">
        <ele>1219.6</ele>
        <time>2020-09-12T12:03:17Z</time>
      </trkpt>
      <trkpt lat="41.0476820" lon="-2.3007510">
        <ele>1219.6</ele>
        <time>2020-09-12T12:03:18Z</time>
      </trkpt>
      <trkpt lat="41.0476790" lon="-2.3006530">
        <ele>1219.6</ele>
        <time>2020-09-12T12:03:19Z</time>
      </trkpt>
      <trkpt lat="41.0476770" lon="-2.3005560">
        <ele>1219.6</ele>
        <time>2020-09-12T12:03:20Z</time>
      </trkpt>
      <trkpt lat="41.0476750" lon="-2.3004570">
        <ele>1219.6</ele>
        <time>2020-09-12T12:03:21Z</time>
      </trkpt>
      <trkpt lat="41.0476740" lon="-2.3003580">
        <ele>1219.6</ele>
        <time>2020-09-12T12:03:22Z</time>
      </trkpt>
      <trkpt lat="41.0476720" lon="-2.3002570">
        <ele>1219.6</ele>
        <time>2020-09-12T12:03:23Z</time>
      </trkpt>
      <trkpt lat="41.0476710" lon="-2.3001540">
        <ele>1219.8</ele>
        <time>2020-09-12T12:03:24Z</time>
      </trkpt>
      <trkpt lat="41.0476710" lon="-2.3000520">
        <ele>1219.8</ele>
        <time>2020-09-12T12:03:25Z</time>
      </trkpt>
      <trkpt lat="41.0476690" lon="-2.2999470">
        <ele>1220.0</ele>
        <time>2020-09-12T12:03:26Z</time>
      </trkpt>
      <trkpt lat="41.0476680" lon="-2.2998420">
        <ele>1220.0</ele>
        <time>2020-09-12T12:03:27Z</time>
      </trkpt>
      <trkpt lat="41.0476670" lon="-2.2997350">
        <ele>1220.0</ele>
        <time>2020-09-12T12:03:28Z</time>
      </trkpt>
      <trkpt lat="41.0476680" lon="-2.2996260">
        <ele>1220.2</ele>
        <time>2020-09-12T12:03:29Z</time>
      </trkpt>
      <trkpt lat="41.0476670" lon="-2.2995160">
        <ele>1220.2</ele>
        <time>2020-09-12T12:03:30Z</time>
      </trkpt>
      <trkpt lat="41.0476640" lon="-2.2994070">
        <ele>1220.2</ele>
        <time>2020-09-12T12:03:31Z</time>
      </trkpt>
      <trkpt lat="41.0476610" lon="-2.2992970">
        <ele>1220.0</ele>
        <time>2020-09-12T12:03:32Z</time>
      </trkpt>
      <trkpt lat="41.0476590" lon="-2.2991880">
        <ele>1220.0</ele>
        <time>2020-09-12T12:03:33Z</time>
      </trkpt>
      <trkpt lat="41.0476570" lon="-2.2990790">
        <ele>1220.0</ele>
        <time>2020-09-12T12:03:34Z</time>
      </trkpt>
      <trkpt lat="41.0476560" lon="-2.2989700">
        <ele>1219.8</ele>
        <time>2020-09-12T12:03:35Z</time>
      </trkpt>
      <trkpt lat="41.0476560" lon="-2.2988600">
        <ele>1219.8</ele>
        <time>2020-09-12T12:03:36Z</time>
      </trkpt>
      <trkpt lat="41.0476530" lon="-2.2987510">
        <ele>1219.8</ele>
        <time>2020-09-12T12:03:37Z</time>
      </trkpt>
      <trkpt lat="41.0476500" lon="-2.2986410">
        <ele>1219.8</ele>
        <time>2020-09-12T12:03:38Z</time>
      </trkpt>
      <trkpt lat="41.0476490" lon="-2.2985300">
        <ele>1219.6</ele>
        <time>2020-09-12T12:03:39Z</time>
      </trkpt>
      <trkpt lat="41.0476460" lon="-2.2984180">
        <ele>1219.6</ele>
        <time>2020-09-12T12:03:40Z</time>
      </trkpt>
      <trkpt lat="41.0476440" lon="-2.2983050">
        <ele>1219.6</ele>
        <time>2020-09-12T12:03:41Z</time>
      </trkpt>
      <trkpt lat="41.0476440" lon="-2.2981930">
        <ele>1219.6</ele>
        <time>2020-09-12T12:03:42Z</time>
      </trkpt>
      <trkpt lat="41.0476420" lon="-2.2980810">
        <ele>1219.4</ele>
        <time>2020-09-12T12:03:43Z</time>
      </trkpt>
      <trkpt lat="41.0476400" lon="-2.2979690">
        <ele>1219.4</ele>
        <time>2020-09-12T12:03:44Z</time>
      </trkpt>
      <trkpt lat="41.0476400" lon="-2.2978570">
        <ele>1219.4</ele>
        <time>2020-09-12T12:03:45Z</time>
      </trkpt>
      <trkpt lat="41.0476380" lon="-2.2977440">
        <ele>1219.4</ele>
        <time>2020-09-12T12:03:46Z</time>
      </trkpt>
      <trkpt lat="41.0476360" lon="-2.2976320">
        <ele>1219.4</ele>
        <time>2020-09-12T12:03:47Z</time>
      </trkpt>
      <trkpt lat="41.0476330" lon="-2.2975200">
        <ele>1219.4</ele>
        <time>2020-09-12T12:03:48Z</time>
      </trkpt>
      <trkpt lat="41.0476310" lon="-2.2974090">
        <ele>1219.4</ele>
        <time>2020-09-12T12:03:49Z</time>
      </trkpt>
      <trkpt lat="41.0476310" lon="-2.2972990">
        <ele>1219.4</ele>
        <time>2020-09-12T12:03:50Z</time>
      </trkpt>
      <trkpt lat="41.0476300" lon="-2.2971880">
        <ele>1219.6</ele>
        <time>2020-09-12T12:03:51Z</time>
      </trkpt>
      <trkpt lat="41.0476290" lon="-2.2970790">
        <ele>1219.8</ele>
        <time>2020-09-12T12:03:52Z</time>
      </trkpt>
      <trkpt lat="41.0476260" lon="-2.2969710">
        <ele>1219.8</ele>
        <time>2020-09-12T12:03:53Z</time>
      </trkpt>
      <trkpt lat="41.0476250" lon="-2.2968650">
        <ele>1220.0</ele>
        <time>2020-09-12T12:03:54Z</time>
      </trkpt>
      <trkpt lat="41.0476250" lon="-2.2967600">
        <ele>1220.0</ele>
        <time>2020-09-12T12:03:55Z</time>
      </trkpt>
      <trkpt lat="41.0476230" lon="-2.2966550">
        <ele>1220.0</ele>
        <time>2020-09-12T12:03:56Z</time>
      </trkpt>
      <trkpt lat="41.0476210" lon="-2.2965520">
        <ele>1220.0</ele>
        <time>2020-09-12T12:03:57Z</time>
      </trkpt>
      <trkpt lat="41.0476200" lon="-2.2964500">
        <ele>1220.0</ele>
        <time>2020-09-12T12:03:58Z</time>
      </trkpt>
      <trkpt lat="41.0476220" lon="-2.2963480">
        <ele>1220.2</ele>
        <time>2020-09-12T12:03:59Z</time>
      </trkpt>
      <trkpt lat="41.0476220" lon="-2.2962480">
        <ele>1220.2</ele>
        <time>2020-09-12T12:04:00Z</time>
      </trkpt>
      <trkpt lat="41.0476190" lon="-2.2961490">
        <ele>1220.0</ele>
        <time>2020-09-12T12:04:01Z</time>
      </trkpt>
      <trkpt lat="41.0476160" lon="-2.2960510">
        <ele>1219.8</ele>
        <time>2020-09-12T12:04:02Z</time>
      </trkpt>
      <trkpt lat="41.0476140" lon="-2.2959540">
        <ele>1219.8</ele>
        <time>2020-09-12T12:04:03Z</time>
      </trkpt>
      <trkpt lat="41.0476150" lon="-2.2958550">
        <ele>1219.8</ele>
        <time>2020-09-12T12:04:04Z</time>
      </trkpt>
      <trkpt lat="41.0476160" lon="-2.2957570">
        <ele>1219.8</ele>
        <time>2020-09-12T12:04:05Z</time>
      </trkpt>
      <trkpt lat="41.0476150" lon="-2.2956590">
        <ele>1219.8</ele>
        <time>2020-09-12T12:04:06Z</time>
      </trkpt>
      <trkpt lat="41.0476130" lon="-2.2955610">
        <ele>1219.8</ele>
        <time>2020-09-12T12:04:07Z</time>
      </trkpt>
      <trkpt lat="41.0476100" lon="-2.2954650">
        <ele>1219.8</ele>
        <time>2020-09-12T12:04:08Z</time>
      </trkpt>
      <trkpt lat="41.0476090" lon="-2.2953670">
        <ele>1220.0</ele>
        <time>2020-09-12T12:04:09Z</time>
      </trkpt>
      <trkpt lat="41.0476070" lon="-2.2952680">
        <ele>1220.2</ele>
        <time>2020-09-12T12:04:10Z</time>
      </trkpt>
      <trkpt lat="41.0476050" lon="-2.2951690">
        <ele>1220.2</ele>
        <time>2020-09-12T12:04:11Z</time>
      </trkpt>
      <trkpt lat="41.0476040" lon="-2.2950700">
        <ele>1220.4</ele>
        <time>2020-09-12T12:04:12Z</time>
      </trkpt>
      <trkpt lat="41.0476020" lon="-2.2949700">
        <ele>1220.4</ele>
        <time>2020-09-12T12:04:13Z</time>
      </trkpt>
      <trkpt lat="41.0476010" lon="-2.2948680">
        <ele>1220.4</ele>
        <time>2020-09-12T12:04:14Z</time>
      </trkpt>
      <trkpt lat="41.0475990" lon="-2.2947660">
        <ele>1220.4</ele>
        <time>2020-09-12T12:04:15Z</time>
      </trkpt>
      <trkpt lat="41.0475970" lon="-2.2946640">
        <ele>1220.2</ele>
        <time>2020-09-12T12:04:16Z</time>
      </trkpt>
      <trkpt lat="41.0475960" lon="-2.2945610">
        <ele>1220.2</ele>
        <time>2020-09-12T12:04:17Z</time>
      </trkpt>
      <trkpt lat="41.0475960" lon="-2.2944570">
        <ele>1220.4</ele>
        <time>2020-09-12T12:04:18Z</time>
      </trkpt>
      <trkpt lat="41.0475950" lon="-2.2943540">
        <ele>1220.8</ele>
        <time>2020-09-12T12:04:19Z</time>
      </trkpt>
      <trkpt lat="41.0475950" lon="-2.2942510">
        <ele>1221.2</ele>
        <time>2020-09-12T12:04:20Z</time>
      </trkpt>
      <trkpt lat="41.0475940" lon="-2.2941480">
        <ele>1221.2</ele>
        <time>2020-09-12T12:04:21Z</time>
      </trkpt>
      <trkpt lat="41.0475940" lon="-2.2940450">
        <ele>1221.2</ele>
        <time>2020-09-12T12:04:22Z</time>
      </trkpt>
      <trkpt lat="41.0475930" lon="-2.2939420">
        <ele>1221.4</ele>
        <time>2020-09-12T12:04:23Z</time>
      </trkpt>
      <trkpt lat="41.0475920" lon="-2.2938400">
        <ele>1221.4</ele>
        <time>2020-09-12T12:04:24Z</time>
      </trkpt>
      <trkpt lat="41.0475890" lon="-2.2937390">
        <ele>1221.4</ele>
        <time>2020-09-12T12:04:25Z</time>
      </trkpt>
      <trkpt lat="41.0475870" lon="-2.2936390">
        <ele>1221.4</ele>
        <time>2020-09-12T12:04:26Z</time>
      </trkpt>
      <trkpt lat="41.0475860" lon="-2.2935390">
        <ele>1221.4</ele>
        <time>2020-09-12T12:04:27Z</time>
      </trkpt>
      <trkpt lat="41.0475850" lon="-2.2934410">
        <ele>1221.6</ele>
        <time>2020-09-12T12:04:28Z</time>
      </trkpt>
      <trkpt lat="41.0475830" lon="-2.2933430">
        <ele>1221.6</ele>
        <time>2020-09-12T12:04:29Z</time>
      </trkpt>
      <trkpt lat="41.0475820" lon="-2.2932460">
        <ele>1221.6</ele>
        <time>2020-09-12T12:04:30Z</time>
      </trkpt>
      <trkpt lat="41.0475810" lon="-2.2931500">
        <ele>1221.6</ele>
        <time>2020-09-12T12:04:31Z</time>
      </trkpt>
      <trkpt lat="41.0475810" lon="-2.2930550">
        <ele>1221.8</ele>
        <time>2020-09-12T12:04:32Z</time>
      </trkpt>
      <trkpt lat="41.0475800" lon="-2.2929600">
        <ele>1221.6</ele>
        <time>2020-09-12T12:04:33Z</time>
      </trkpt>
      <trkpt lat="41.0475790" lon="-2.2928640">
        <ele>1221.6</ele>
        <time>2020-09-12T12:04:34Z</time>
      </trkpt>
      <trkpt lat="41.0475770" lon="-2.2927670">
        <ele>1221.6</ele>
        <time>2020-09-12T12:04:35Z</time>
      </trkpt>
      <trkpt lat="41.0475750" lon="-2.2926720">
        <ele>1221.6</ele>
        <time>2020-09-12T12:04:36Z</time>
      </trkpt>
      <trkpt lat="41.0475730" lon="-2.2925770">
        <ele>1221.4</ele>
        <time>2020-09-12T12:04:37Z</time>
      </trkpt>
      <trkpt lat="41.0475690" lon="-2.2924800">
        <ele>1221.4</ele>
        <time>2020-09-12T12:04:38Z</time>
      </trkpt>
      <trkpt lat="41.0475660" lon="-2.2923830">
        <ele>1221.4</ele>
        <time>2020-09-12T12:04:39Z</time>
      </trkpt>
      <trkpt lat="41.0475630" lon="-2.2922850">
        <ele>1221.6</ele>
        <time>2020-09-12T12:04:40Z</time>
      </trkpt>
      <trkpt lat="41.0475580" lon="-2.2921890">
        <ele>1221.8</ele>
        <time>2020-09-12T12:04:41Z</time>
      </trkpt>
      <trkpt lat="41.0475550" lon="-2.2920920">
        <ele>1222.2</ele>
        <time>2020-09-12T12:04:42Z</time>
      </trkpt>
      <trkpt lat="41.0475510" lon="-2.2919940">
        <ele>1222.4</ele>
        <time>2020-09-12T12:04:43Z</time>
      </trkpt>
      <trkpt lat="41.0475460" lon="-2.2918980">
        <ele>1222.8</ele>
        <time>2020-09-12T12:04:44Z</time>
      </trkpt>
      <trkpt lat="41.0475430" lon="-2.2918010">
        <ele>1223.0</ele>
        <time>2020-09-12T12:04:45Z</time>
      </trkpt>
      <trkpt lat="41.0475390" lon="-2.2917030">
        <ele>1223.0</ele>
        <time>2020-09-12T12:04:46Z</time>
      </trkpt>
      <trkpt lat="41.0475340" lon="-2.2916050">
        <ele>1223.2</ele>
        <time>2020-09-12T12:04:47Z</time>
      </trkpt>
      <trkpt lat="41.0475280" lon="-2.2915070">
        <ele>1223.2</ele>
        <time>2020-09-12T12:04:48Z</time>
      </trkpt>
      <trkpt lat="41.0475220" lon="-2.2914080">
        <ele>1223.4</ele>
        <time>2020-09-12T12:04:49Z</time>
      </trkpt>
      <trkpt lat="41.0475180" lon="-2.2913090">
        <ele>1223.4</ele>
        <time>2020-09-12T12:04:50Z</time>
      </trkpt>
      <trkpt lat="41.0475140" lon="-2.2912100">
        <ele>1223.4</ele>
        <time>2020-09-12T12:04:51Z</time>
      </trkpt>
      <trkpt lat="41.0475090" lon="-2.2911120">
        <ele>1223.2</ele>
        <time>2020-09-12T12:04:52Z</time>
      </trkpt>
      <trkpt lat="41.0475040" lon="-2.2910130">
        <ele>1223.4</ele>
        <time>2020-09-12T12:04:53Z</time>
      </trkpt>
      <trkpt lat="41.0474990" lon="-2.2909140">
        <ele>1223.4</ele>
        <time>2020-09-12T12:04:54Z</time>
      </trkpt>
      <trkpt lat="41.0474950" lon="-2.2908170">
        <ele>1223.6</ele>
        <time>2020-09-12T12:04:55Z</time>
      </trkpt>
      <trkpt lat="41.0474900" lon="-2.2907220">
        <ele>1223.8</ele>
        <time>2020-09-12T12:04:56Z</time>
      </trkpt>
      <trkpt lat="41.0474850" lon="-2.2906260">
        <ele>1224.0</ele>
        <time>2020-09-12T12:04:57Z</time>
      </trkpt>
      <trkpt lat="41.0474810" lon="-2.2905310">
        <ele>1224.2</ele>
        <time>2020-09-12T12:04:58Z</time>
      </trkpt>
      <trkpt lat="41.0474750" lon="-2.2904380">
        <ele>1224.4</ele>
        <time>2020-09-12T12:04:59Z</time>
      </trkpt>
      <trkpt lat="41.0474650" lon="-2.2902490">
        <ele>1224.6</ele>
        <time>2020-09-12T12:05:00Z</time>
      </trkpt>
      <trkpt lat="41.0474620" lon="-2.2902020">
        <ele>1224.6</ele>
        <time>2020-09-12T12:05:01Z</time>
      </trkpt>
      <trkpt lat="41.0474590" lon="-2.2901560">
        <ele>1224.8</ele>
        <time>2020-09-12T12:05:02Z</time>
      </trkpt>
      <trkpt lat="41.0474520" lon="-2.2900640">
        <ele>1224.8</ele>
        <time>2020-09-12T12:05:03Z</time>
      </trkpt>
      <trkpt lat="41.0474470" lon="-2.2899710">
        <ele>1225.0</ele>
        <time>2020-09-12T12:05:04Z</time>
      </trkpt>
      <trkpt lat="41.0474420" lon="-2.2898780">
        <ele>1225.2</ele>
        <time>2020-09-12T12:05:05Z</time>
      </trkpt>
      <trkpt lat="41.0474370" lon="-2.2897860">
        <ele>1225.4</ele>
        <time>2020-09-12T12:05:06Z</time>
      </trkpt>
      <trkpt lat="41.0474320" lon="-2.2896940">
        <ele>1225.6</ele>
        <time>2020-09-12T12:05:07Z</time>
      </trkpt>
      <trkpt lat="41.0474260" lon="-2.2896010">
        <ele>1226.0</ele>
        <time>2020-09-12T12:05:08Z</time>
      </trkpt>
      <trkpt lat="41.0474200" lon="-2.2895090">
        <ele>1226.2</ele>
        <time>2020-09-12T12:05:09Z</time>
      </trkpt>
      <trkpt lat="41.0474140" lon="-2.2894190">
        <ele>1226.4</ele>
        <time>2020-09-12T12:05:10Z</time>
      </trkpt>
      <trkpt lat="41.0474100" lon="-2.2893300">
        <ele>1226.6</ele>
        <time>2020-09-12T12:05:11Z</time>
      </trkpt>
      <trkpt lat="41.0474050" lon="-2.2892410">
        <ele>1226.8</ele>
        <time>2020-09-12T12:05:12Z</time>
      </trkpt>
      <trkpt lat="41.0474010" lon="-2.2891510">
        <ele>1227.0</ele>
        <time>2020-09-12T12:05:13Z</time>
      </trkpt>
      <trkpt lat="41.0473970" lon="-2.2890610">
        <ele>1227.2</ele>
        <time>2020-09-12T12:05:14Z</time>
      </trkpt>
      <trkpt lat="41.0473920" lon="-2.2889710">
        <ele>1227.4</ele>
        <time>2020-09-12T12:05:15Z</time>
      </trkpt>
      <trkpt lat="41.0473870" lon="-2.2888800">
        <ele>1227.4</ele>
        <time>2020-09-12T12:05:16Z</time>
      </trkpt>
      <trkpt lat="41.0473810" lon="-2.2887910">
        <ele>1227.6</ele>
        <time>2020-09-12T12:05:17Z</time>
      </trkpt>
      <trkpt lat="41.0473760" lon="-2.2887010">
        <ele>1227.6</ele>
        <time>2020-09-12T12:05:18Z</time>
      </trkpt>
      <trkpt lat="41.0473710" lon="-2.2886090">
        <ele>1227.8</ele>
        <time>2020-09-12T12:05:19Z</time>
      </trkpt>
      <trkpt lat="41.0473650" lon="-2.2885180">
        <ele>1227.8</ele>
        <time>2020-09-12T12:05:20Z</time>
      </trkpt>
      <trkpt lat="41.0473590" lon="-2.2884260">
        <ele>1228.0</ele>
        <time>2020-09-12T12:05:21Z</time>
      </trkpt>
      <trkpt lat="41.0473540" lon="-2.2883320">
        <ele>1228.0</ele>
        <time>2020-09-12T12:05:22Z</time>
      </trkpt>
      <trkpt lat="41.0473500" lon="-2.2882370">
        <ele>1228.0</ele>
        <time>2020-09-12T12:05:23Z</time>
      </trkpt>
      <trkpt lat="41.0473440" lon="-2.2881430">
        <ele>1228.2</ele>
        <time>2020-09-12T12:05:24Z</time>
      </trkpt>
      <trkpt lat="41.0473390" lon="-2.2880470">
        <ele>1228.4</ele>
        <time>2020-09-12T12:05:25Z</time>
      </trkpt>
      <trkpt lat="41.0473350" lon="-2.2879510">
        <ele>1228.4</ele>
        <time>2020-09-12T12:05:26Z</time>
      </trkpt>
      <trkpt lat="41.0473310" lon="-2.2878560">
        <ele>1228.4</ele>
        <time>2020-09-12T12:05:27Z</time>
      </trkpt>
      <trkpt lat="41.0473270" lon="-2.2877610">
        <ele>1228.6</ele>
        <time>2020-09-12T12:05:28Z</time>
      </trkpt>
      <trkpt lat="41.0473220" lon="-2.2876650">
        <ele>1228.6</ele>
        <time>2020-09-12T12:05:29Z</time>
      </trkpt>
      <trkpt lat="41.0473160" lon="-2.2875690">
        <ele>1228.8</ele>
        <time>2020-09-12T12:05:30Z</time>
      </trkpt>
      <trkpt lat="41.0473100" lon="-2.2874730">
        <ele>1228.8</ele>
        <time>2020-09-12T12:05:31Z</time>
      </trkpt>
      <trkpt lat="41.0473050" lon="-2.2873770">
        <ele>1228.8</ele>
        <time>2020-09-12T12:05:32Z</time>
      </trkpt>
      <trkpt lat="41.0472980" lon="-2.2872800">
        <ele>1229.0</ele>
        <time>2020-09-12T12:05:33Z</time>
      </trkpt>
      <trkpt lat="41.0472930" lon="-2.2871830">
        <ele>1229.2</ele>
        <time>2020-09-12T12:05:34Z</time>
      </trkpt>
      <trkpt lat="41.0472880" lon="-2.2870860">
        <ele>1229.4</ele>
        <time>2020-09-12T12:05:35Z</time>
      </trkpt>
      <trkpt lat="41.0472820" lon="-2.2869890">
        <ele>1229.4</ele>
        <time>2020-09-12T12:05:36Z</time>
      </trkpt>
      <trkpt lat="41.0472760" lon="-2.2868920">
        <ele>1229.4</ele>
        <time>2020-09-12T12:05:37Z</time>
      </trkpt>
      <trkpt lat="41.0472710" lon="-2.2867950">
        <ele>1229.6</ele>
        <time>2020-09-12T12:05:38Z</time>
      </trkpt>
      <trkpt lat="41.0472670" lon="-2.2866970">
        <ele>1229.8</ele>
        <time>2020-09-12T12:05:39Z</time>
      </trkpt>
      <trkpt lat="41.0472630" lon="-2.2866000">
        <ele>1229.8</ele>
        <time>2020-09-12T12:05:40Z</time>
      </trkpt>
      <trkpt lat="41.0472570" lon="-2.2865020">
        <ele>1229.8</ele>
        <time>2020-09-12T12:05:41Z</time>
      </trkpt>
      <trkpt lat="41.0472510" lon="-2.2864040">
        <ele>1230.0</ele>
        <time>2020-09-12T12:05:42Z</time>
      </trkpt>
      <trkpt lat="41.0472450" lon="-2.2863050">
        <ele>1230.2</ele>
        <time>2020-09-12T12:05:43Z</time>
      </trkpt>
      <trkpt lat="41.0472390" lon="-2.2862050">
        <ele>1230.2</ele>
        <time>2020-09-12T12:05:44Z</time>
      </trkpt>
      <trkpt lat="41.0472340" lon="-2.2861060">
        <ele>1230.2</ele>
        <time>2020-09-12T12:05:45Z</time>
      </trkpt>
      <trkpt lat="41.0472290" lon="-2.2860060">
        <ele>1230.2</ele>
        <time>2020-09-12T12:05:46Z</time>
      </trkpt>
      <trkpt lat="41.0472240" lon="-2.2859060">
        <ele>1230.2</ele>
        <time>2020-09-12T12:05:47Z</time>
      </trkpt>
      <trkpt lat="41.0472190" lon="-2.2858060">
        <ele>1230.0</ele>
        <time>2020-09-12T12:05:48Z</time>
      </trkpt>
      <trkpt lat="41.0472130" lon="-2.2857070">
        <ele>1230.0</ele>
        <time>2020-09-12T12:05:49Z</time>
      </trkpt>
      <trkpt lat="41.0472070" lon="-2.2856070">
        <ele>1230.0</ele>
        <time>2020-09-12T12:05:50Z</time>
      </trkpt>
      <trkpt lat="41.0472030" lon="-2.2855060">
        <ele>1230.0</ele>
        <time>2020-09-12T12:05:51Z</time>
      </trkpt>
      <trkpt lat="41.0471970" lon="-2.2854060">
        <ele>1230.2</ele>
        <time>2020-09-12T12:05:52Z</time>
      </trkpt>
      <trkpt lat="41.0471910" lon="-2.2853060">
        <ele>1230.4</ele>
        <time>2020-09-12T12:05:53Z</time>
      </trkpt>
      <trkpt lat="41.0471850" lon="-2.2852060">
        <ele>1230.6</ele>
        <time>2020-09-12T12:05:54Z</time>
      </trkpt>
      <trkpt lat="41.0471790" lon="-2.2851060">
        <ele>1230.8</ele>
        <time>2020-09-12T12:05:55Z</time>
      </trkpt>
      <trkpt lat="41.0471740" lon="-2.2850070">
        <ele>1231.0</ele>
        <time>2020-09-12T12:05:56Z</time>
      </trkpt>
      <trkpt lat="41.0471680" lon="-2.2849080">
        <ele>1231.2</ele>
        <time>2020-09-12T12:05:57Z</time>
      </trkpt>
      <trkpt lat="41.0471620" lon="-2.2848080">
        <ele>1231.2</ele>
        <time>2020-09-12T12:05:58Z</time>
      </trkpt>
      <trkpt lat="41.0471570" lon="-2.2847080">
        <ele>1231.2</ele>
        <time>2020-09-12T12:05:59Z</time>
      </trkpt>
      <trkpt lat="41.0471530" lon="-2.2846070">
        <ele>1231.4</ele>
        <time>2020-09-12T12:06:00Z</time>
      </trkpt>
      <trkpt lat="41.0471480" lon="-2.2845060">
        <ele>1231.4</ele>
        <time>2020-09-12T12:06:01Z</time>
      </trkpt>
      <trkpt lat="41.0471430" lon="-2.2844060">
        <ele>1231.6</ele>
        <time>2020-09-12T12:06:02Z</time>
      </trkpt>
      <trkpt lat="41.0471370" lon="-2.2843050">
        <ele>1231.6</ele>
        <time>2020-09-12T12:06:03Z</time>
      </trkpt>
      <trkpt lat="41.0471320" lon="-2.2842050">
        <ele>1231.8</ele>
        <time>2020-09-12T12:06:04Z</time>
      </trkpt>
      <trkpt lat="41.0471270" lon="-2.2841050">
        <ele>1231.8</ele>
        <time>2020-09-12T12:06:05Z</time>
      </trkpt>
      <trkpt lat="41.0471230" lon="-2.2840050">
        <ele>1231.8</ele>
        <time>2020-09-12T12:06:06Z</time>
      </trkpt>
      <trkpt lat="41.0471180" lon="-2.2839050">
        <ele>1232.0</ele>
        <time>2020-09-12T12:06:07Z</time>
      </trkpt>
      <trkpt lat="41.0471110" lon="-2.2838060">
        <ele>1232.0</ele>
        <time>2020-09-12T12:06:08Z</time>
      </trkpt>
      <trkpt lat="41.0471060" lon="-2.2837060">
        <ele>1232.0</ele>
        <time>2020-09-12T12:06:09Z</time>
      </trkpt>
      <trkpt lat="41.0471010" lon="-2.2836070">
        <ele>1232.0</ele>
        <time>2020-09-12T12:06:10Z</time>
      </trkpt>
      <trkpt lat="41.0470980" lon="-2.2835060">
        <ele>1232.0</ele>
        <time>2020-09-12T12:06:11Z</time>
      </trkpt>
      <trkpt lat="41.0470920" lon="-2.2834060">
        <ele>1232.0</ele>
        <time>2020-09-12T12:06:12Z</time>
      </trkpt>
      <trkpt lat="41.0470850" lon="-2.2833050">
        <ele>1232.0</ele>
        <time>2020-09-12T12:06:13Z</time>
      </trkpt>
      <trkpt lat="41.0470790" lon="-2.2832030">
        <ele>1231.8</ele>
        <time>2020-09-12T12:06:14Z</time>
      </trkpt>
      <trkpt lat="41.0470740" lon="-2.2831000">
        <ele>1231.8</ele>
        <time>2020-09-12T12:06:15Z</time>
      </trkpt>
      <trkpt lat="41.0470680" lon="-2.2829980">
        <ele>1231.8</ele>
        <time>2020-09-12T12:06:16Z</time>
      </trkpt>
      <trkpt lat="41.0470620" lon="-2.2828960">
        <ele>1232.0</ele>
        <time>2020-09-12T12:06:17Z</time>
      </trkpt>
      <trkpt lat="41.0470560" lon="-2.2827940">
        <ele>1232.2</ele>
        <time>2020-09-12T12:06:18Z</time>
      </trkpt>
      <trkpt lat="41.0470500" lon="-2.2826920">
        <ele>1232.4</ele>
        <time>2020-09-12T12:06:19Z</time>
      </trkpt>
      <trkpt lat="41.0470440" lon="-2.2825890">
        <ele>1232.6</ele>
        <time>2020-09-12T12:06:20Z</time>
      </trkpt>
      <trkpt lat="41.0470370" lon="-2.2824870">
        <ele>1232.6</ele>
        <time>2020-09-12T12:06:21Z</time>
      </trkpt>
      <trkpt lat="41.0470320" lon="-2.2823840">
        <ele>1232.6</ele>
        <time>2020-09-12T12:06:22Z</time>
      </trkpt>
      <trkpt lat="41.0470270" lon="-2.2822810">
        <ele>1232.4</ele>
        <time>2020-09-12T12:06:23Z</time>
      </trkpt>
      <trkpt lat="41.0470210" lon="-2.2821790">
        <ele>1232.4</ele>
        <time>2020-09-12T12:06:24Z</time>
      </trkpt>
      <trkpt lat="41.0470150" lon="-2.2820760">
        <ele>1232.0</ele>
        <time>2020-09-12T12:06:25Z</time>
      </trkpt>
      <trkpt lat="41.0470090" lon="-2.2819720">
        <ele>1232.0</ele>
        <time>2020-09-12T12:06:26Z</time>
      </trkpt>
      <trkpt lat="41.0470020" lon="-2.2818680">
        <ele>1231.8</ele>
        <time>2020-09-12T12:06:27Z</time>
      </trkpt>
      <trkpt lat="41.0469960" lon="-2.2817640">
        <ele>1231.6</ele>
        <time>2020-09-12T12:06:28Z</time>
      </trkpt>
      <trkpt lat="41.0469900" lon="-2.2816590">
        <ele>1231.8</ele>
        <time>2020-09-12T12:06:29Z</time>
      </trkpt>
      <trkpt lat="41.0469840" lon="-2.2815560">
        <ele>1232.0</ele>
        <time>2020-09-12T12:06:30Z</time>
      </trkpt>
      <trkpt lat="41.0469780" lon="-2.2814520">
        <ele>1232.0</ele>
        <time>2020-09-12T12:06:31Z</time>
      </trkpt>
      <trkpt lat="41.0469720" lon="-2.2813470">
        <ele>1232.2</ele>
        <time>2020-09-12T12:06:32Z</time>
      </trkpt>
      <trkpt lat="41.0469660" lon="-2.2812440">
        <ele>1232.2</ele>
        <time>2020-09-12T12:06:33Z</time>
      </trkpt>
      <trkpt lat="41.0469610" lon="-2.2811400">
        <ele>1232.2</ele>
        <time>2020-09-12T12:06:34Z</time>
      </trkpt>
      <trkpt lat="41.0469570" lon="-2.2810360">
        <ele>1232.2</ele>
        <time>2020-09-12T12:06:35Z</time>
      </trkpt>
      <trkpt lat="41.0469520" lon="-2.2809310">
        <ele>1232.4</ele>
        <time>2020-09-12T12:06:36Z</time>
      </trkpt>
      <trkpt lat="41.0469450" lon="-2.2808260">
        <ele>1232.4</ele>
        <time>2020-09-12T12:06:37Z</time>
      </trkpt>
      <trkpt lat="41.0469400" lon="-2.2807210">
        <ele>1232.2</ele>
        <time>2020-09-12T12:06:38Z</time>
      </trkpt>
      <trkpt lat="41.0469360" lon="-2.2806160">
        <ele>1232.2</ele>
        <time>2020-09-12T12:06:39Z</time>
      </trkpt>
      <trkpt lat="41.0469290" lon="-2.2805130">
        <ele>1232.2</ele>
        <time>2020-09-12T12:06:40Z</time>
      </trkpt>
      <trkpt lat="41.0469230" lon="-2.2804100">
        <ele>1232.4</ele>
        <time>2020-09-12T12:06:41Z</time>
      </trkpt>
      <trkpt lat="41.0469180" lon="-2.2803060">
        <ele>1232.6</ele>
        <time>2020-09-12T12:06:42Z</time>
      </trkpt>
      <trkpt lat="41.0469120" lon="-2.2802020">
        <ele>1232.6</ele>
        <time>2020-09-12T12:06:43Z</time>
      </trkpt>
      <trkpt lat="41.0469060" lon="-2.2800970">
        <ele>1232.8</ele>
        <time>2020-09-12T12:06:44Z</time>
      </trkpt>
      <trkpt lat="41.0469010" lon="-2.2799920">
        <ele>1232.8</ele>
        <time>2020-09-12T12:06:45Z</time>
      </trkpt>
      <trkpt lat="41.0468970" lon="-2.2798860">
        <ele>1232.8</ele>
        <time>2020-09-12T12:06:46Z</time>
      </trkpt>
      <trkpt lat="41.0468930" lon="-2.2797790">
        <ele>1232.8</ele>
        <time>2020-09-12T12:06:47Z</time>
      </trkpt>
      <trkpt lat="41.0468890" lon="-2.2796700">
        <ele>1232.8</ele>
        <time>2020-09-12T12:06:48Z</time>
      </trkpt>
      <trkpt lat="41.0468840" lon="-2.2795610">
        <ele>1233.0</ele>
        <time>2020-09-12T12:06:49Z</time>
      </trkpt>
      <trkpt lat="41.0468790" lon="-2.2794530">
        <ele>1233.0</ele>
        <time>2020-09-12T12:06:50Z</time>
      </trkpt>
      <trkpt lat="41.0468730" lon="-2.2793440">
        <ele>1233.2</ele>
        <time>2020-09-12T12:06:51Z</time>
      </trkpt>
      <trkpt lat="41.0468670" lon="-2.2792330">
        <ele>1233.2</ele>
        <time>2020-09-12T12:06:52Z</time>
      </trkpt>
      <trkpt lat="41.0468620" lon="-2.2791220">
        <ele>1233.4</ele>
        <time>2020-09-12T12:06:53Z</time>
      </trkpt>
      <trkpt lat="41.0468550" lon="-2.2790110">
        <ele>1233.4</ele>
        <time>2020-09-12T12:06:54Z</time>
      </trkpt>
      <trkpt lat="41.0468490" lon="-2.2788990">
        <ele>1233.6</ele>
        <time>2020-09-12T12:06:55Z</time>
      </trkpt>
      <trkpt lat="41.0468430" lon="-2.2787870">
        <ele>1233.6</ele>
        <time>2020-09-12T12:06:56Z</time>
      </trkpt>
      <trkpt lat="41.0468390" lon="-2.2786740">
        <ele>1233.8</ele>
        <time>2020-09-12T12:06:57Z</time>
      </trkpt>
      <trkpt lat="41.0468330" lon="-2.2785620">
        <ele>1234.0</ele>
        <time>2020-09-12T12:06:58Z</time>
      </trkpt>
      <trkpt lat="41.0468270" lon="-2.2784510">
        <ele>1234.2</ele>
        <time>2020-09-12T12:06:59Z</time>
      </trkpt>
      <trkpt lat="41.0468220" lon="-2.2783390">
        <ele>1234.6</ele>
        <time>2020-09-12T12:07:00Z</time>
      </trkpt>
      <trkpt lat="41.0468180" lon="-2.2782270">
        <ele>1234.6</ele>
        <time>2020-09-12T12:07:01Z</time>
      </trkpt>
      <trkpt lat="41.0468130" lon="-2.2781160">
        <ele>1234.6</ele>
        <time>2020-09-12T12:07:02Z</time>
      </trkpt>
      <trkpt lat="41.0468070" lon="-2.2780080">
        <ele>1234.8</ele>
        <time>2020-09-12T12:07:03Z</time>
      </trkpt>
      <trkpt lat="41.0468000" lon="-2.2779020">
        <ele>1234.6</ele>
        <time>2020-09-12T12:07:04Z</time>
      </trkpt>
      <trkpt lat="41.0467950" lon="-2.2777960">
        <ele>1234.8</ele>
        <time>2020-09-12T12:07:05Z</time>
      </trkpt>
      <trkpt lat="41.0467900" lon="-2.2776900">
        <ele>1234.8</ele>
        <time>2020-09-12T12:07:06Z</time>
      </trkpt>
      <trkpt lat="41.0467850" lon="-2.2775870">
        <ele>1234.8</ele>
        <time>2020-09-12T12:07:07Z</time>
      </trkpt>
      <trkpt lat="41.0467810" lon="-2.2774850">
        <ele>1235.0</ele>
        <time>2020-09-12T12:07:08Z</time>
      </trkpt>
      <trkpt lat="41.0467760" lon="-2.2773840">
        <ele>1235.0</ele>
        <time>2020-09-12T12:07:09Z</time>
      </trkpt>
      <trkpt lat="41.0467700" lon="-2.2772820">
        <ele>1235.2</ele>
        <time>2020-09-12T12:07:10Z</time>
      </trkpt>
      <trkpt lat="41.0467640" lon="-2.2771800">
        <ele>1235.2</ele>
        <time>2020-09-12T12:07:11Z</time>
      </trkpt>
      <trkpt lat="41.0467580" lon="-2.2770780">
        <ele>1235.4</ele>
        <time>2020-09-12T12:07:12Z</time>
      </trkpt>
      <trkpt lat="41.0467520" lon="-2.2769770">
        <ele>1235.4</ele>
        <time>2020-09-12T12:07:13Z</time>
      </trkpt>
      <trkpt lat="41.0467460" lon="-2.2768760">
        <ele>1235.6</ele>
        <time>2020-09-12T12:07:14Z</time>
      </trkpt>
      <trkpt lat="41.0467400" lon="-2.2767750">
        <ele>1235.6</ele>
        <time>2020-09-12T12:07:15Z</time>
      </trkpt>
      <trkpt lat="41.0467360" lon="-2.2766740">
        <ele>1235.8</ele>
        <time>2020-09-12T12:07:16Z</time>
      </trkpt>
      <trkpt lat="41.0467320" lon="-2.2765740">
        <ele>1236.0</ele>
        <time>2020-09-12T12:07:17Z</time>
      </trkpt>
      <trkpt lat="41.0467280" lon="-2.2764740">
        <ele>1236.2</ele>
        <time>2020-09-12T12:07:18Z</time>
      </trkpt>
      <trkpt lat="41.0467220" lon="-2.2763750">
        <ele>1236.4</ele>
        <time>2020-09-12T12:07:19Z</time>
      </trkpt>
      <trkpt lat="41.0467180" lon="-2.2762760">
        <ele>1236.4</ele>
        <time>2020-09-12T12:07:20Z</time>
      </trkpt>
      <trkpt lat="41.0467120" lon="-2.2761770">
        <ele>1236.6</ele>
        <time>2020-09-12T12:07:21Z</time>
      </trkpt>
      <trkpt lat="41.0467060" lon="-2.2760800">
        <ele>1236.6</ele>
        <time>2020-09-12T12:07:22Z</time>
      </trkpt>
      <trkpt lat="41.0467000" lon="-2.2759820">
        <ele>1236.8</ele>
        <time>2020-09-12T12:07:23Z</time>
      </trkpt>
      <trkpt lat="41.0466940" lon="-2.2758860">
        <ele>1236.8</ele>
        <time>2020-09-12T12:07:24Z</time>
      </trkpt>
      <trkpt lat="41.0466900" lon="-2.2757880">
        <ele>1237.0</ele>
        <time>2020-09-12T12:07:25Z</time>
      </trkpt>
      <trkpt lat="41.0466850" lon="-2.2756900">
        <ele>1237.2</ele>
        <time>2020-09-12T12:07:26Z</time>
      </trkpt>
      <trkpt lat="41.0466790" lon="-2.2755940">
        <ele>1237.4</ele>
        <time>2020-09-12T12:07:27Z</time>
      </trkpt>
      <trkpt lat="41.0466730" lon="-2.2754980">
        <ele>1237.4</ele>
        <time>2020-09-12T12:07:28Z</time>
      </trkpt>
      <trkpt lat="41.0466680" lon="-2.2754020">
        <ele>1237.6</ele>
        <time>2020-09-12T12:07:29Z</time>
      </trkpt>
      <trkpt lat="41.0466630" lon="-2.2753060">
        <ele>1237.8</ele>
        <time>2020-09-12T12:07:30Z</time>
      </trkpt>
      <trkpt lat="41.0466560" lon="-2.2752110">
        <ele>1238.0</ele>
        <time>2020-09-12T12:07:31Z</time>
      </trkpt>
      <trkpt lat="41.0466500" lon="-2.2751170">
        <ele>1238.2</ele>
        <time>2020-09-12T12:07:32Z</time>
      </trkpt>
      <trkpt lat="41.0466450" lon="-2.2750220">
        <ele>1238.2</ele>
        <time>2020-09-12T12:07:33Z</time>
      </trkpt>
      <trkpt lat="41.0466400" lon="-2.2749280">
        <ele>1238.2</ele>
        <time>2020-09-12T12:07:34Z</time>
      </trkpt>
      <trkpt lat="41.0466360" lon="-2.2748340">
        <ele>1238.4</ele>
        <time>2020-09-12T12:07:35Z</time>
      </trkpt>
      <trkpt lat="41.0466310" lon="-2.2747390">
        <ele>1238.4</ele>
        <time>2020-09-12T12:07:36Z</time>
      </trkpt>
      <trkpt lat="41.0466270" lon="-2.2746440">
        <ele>1238.4</ele>
        <time>2020-09-12T12:07:37Z</time>
      </trkpt>
      <trkpt lat="41.0466220" lon="-2.2745490">
        <ele>1238.8</ele>
        <time>2020-09-12T12:07:38Z</time>
      </trkpt>
      <trkpt lat="41.0466170" lon="-2.2744540">
        <ele>1239.2</ele>
        <time>2020-09-12T12:07:39Z</time>
      </trkpt>
      <trkpt lat="41.0466100" lon="-2.2743610">
        <ele>1239.8</ele>
        <time>2020-09-12T12:07:40Z</time>
      </trkpt>
      <trkpt lat="41.0466040" lon="-2.2742660">
        <ele>1240.2</ele>
        <time>2020-09-12T12:07:41Z</time>
      </trkpt>
      <trkpt lat="41.0465970" lon="-2.2741740">
        <ele>1240.4</ele>
        <time>2020-09-12T12:07:42Z</time>
      </trkpt>
      <trkpt lat="41.0465920" lon="-2.2740820">
        <ele>1240.4</ele>
        <time>2020-09-12T12:07:43Z</time>
      </trkpt>
      <trkpt lat="41.0465860" lon="-2.2739910">
        <ele>1240.4</ele>
        <time>2020-09-12T12:07:44Z</time>
      </trkpt>
      <trkpt lat="41.0465810" lon="-2.2739000">
        <ele>1240.4</ele>
        <time>2020-09-12T12:07:45Z</time>
      </trkpt>
      <trkpt lat="41.0465760" lon="-2.2738090">
        <ele>1240.4</ele>
        <time>2020-09-12T12:07:46Z</time>
      </trkpt>
      <trkpt lat="41.0465710" lon="-2.2737200">
        <ele>1240.6</ele>
        <time>2020-09-12T12:07:47Z</time>
      </trkpt>
      <trkpt lat="41.0465650" lon="-2.2736310">
        <ele>1240.6</ele>
        <time>2020-09-12T12:07:48Z</time>
      </trkpt>
      <trkpt lat="41.0465610" lon="-2.2735430">
        <ele>1240.8</ele>
        <time>2020-09-12T12:07:49Z</time>
      </trkpt>
      <trkpt lat="41.0465580" lon="-2.2734550">
        <ele>1241.0</ele>
        <time>2020-09-12T12:07:50Z</time>
      </trkpt>
      <trkpt lat="41.0465540" lon="-2.2733670">
        <ele>1241.2</ele>
        <time>2020-09-12T12:07:51Z</time>
      </trkpt>
      <trkpt lat="41.0465480" lon="-2.2732800">
        <ele>1241.4</ele>
        <time>2020-09-12T12:07:52Z</time>
      </trkpt>
      <trkpt lat="41.0465430" lon="-2.2731940">
        <ele>1241.6</ele>
        <time>2020-09-12T12:07:53Z</time>
      </trkpt>
      <trkpt lat="41.0465380" lon="-2.2731090">
        <ele>1241.8</ele>
        <time>2020-09-12T12:07:54Z</time>
      </trkpt>
      <trkpt lat="41.0465330" lon="-2.2730260">
        <ele>1242.0</ele>
        <time>2020-09-12T12:07:55Z</time>
      </trkpt>
      <trkpt lat="41.0465280" lon="-2.2729420">
        <ele>1242.4</ele>
        <time>2020-09-12T12:07:56Z</time>
      </trkpt>
      <trkpt lat="41.0465230" lon="-2.2728600">
        <ele>1242.6</ele>
        <time>2020-09-12T12:07:57Z</time>
      </trkpt>
      <trkpt lat="41.0465190" lon="-2.2727790">
        <ele>1242.8</ele>
        <time>2020-09-12T12:07:58Z</time>
      </trkpt>
      <trkpt lat="41.0465160" lon="-2.2727000">
        <ele>1243.2</ele>
        <time>2020-09-12T12:07:59Z</time>
      </trkpt>
      <trkpt lat="41.0465120" lon="-2.2726200">
        <ele>1243.2</ele>
        <time>2020-09-12T12:08:00Z</time>
      </trkpt>
      <trkpt lat="41.0465080" lon="-2.2725400">
        <ele>1243.4</ele>
        <time>2020-09-12T12:08:01Z</time>
      </trkpt>
      <trkpt lat="41.0465050" lon="-2.2724620">
        <ele>1243.4</ele>
        <time>2020-09-12T12:08:02Z</time>
      </trkpt>
      <trkpt lat="41.0465020" lon="-2.2723820">
        <ele>1243.4</ele>
        <time>2020-09-12T12:08:03Z</time>
      </trkpt>
      <trkpt lat="41.0465000" lon="-2.2723020">
        <ele>1243.6</ele>
        <time>2020-09-12T12:08:04Z</time>
      </trkpt>
      <trkpt lat="41.0464960" lon="-2.2722230">
        <ele>1243.8</ele>
        <time>2020-09-12T12:08:05Z</time>
      </trkpt>
      <trkpt lat="41.0464910" lon="-2.2721430">
        <ele>1244.0</ele>
        <time>2020-09-12T12:08:06Z</time>
      </trkpt>
      <trkpt lat="41.0464860" lon="-2.2720640">
        <ele>1244.2</ele>
        <time>2020-09-12T12:08:07Z</time>
      </trkpt>
      <trkpt lat="41.0464810" lon="-2.2719860">
        <ele>1244.2</ele>
        <time>2020-09-12T12:08:08Z</time>
      </trkpt>
      <trkpt lat="41.0464750" lon="-2.2719080">
        <ele>1244.2</ele>
        <time>2020-09-12T12:08:09Z</time>
      </trkpt>
      <trkpt lat="41.0464700" lon="-2.2718300">
        <ele>1244.4</ele>
        <time>2020-09-12T12:08:10Z</time>
      </trkpt>
      <trkpt lat="41.0464660" lon="-2.2717530">
        <ele>1244.4</ele>
        <time>2020-09-12T12:08:11Z</time>
      </trkpt>
      <trkpt lat="41.0464630" lon="-2.2716750">
        <ele>1244.4</ele>
        <time>2020-09-12T12:08:12Z</time>
      </trkpt>
      <trkpt lat="41.0464590" lon="-2.2715980">
        <ele>1244.4</ele>
        <time>2020-09-12T12:08:13Z</time>
      </trkpt>
      <trkpt lat="41.0464550" lon="-2.2715220">
        <ele>1244.4</ele>
        <time>2020-09-12T12:08:14Z</time>
      </trkpt>
      <trkpt lat="41.0464520" lon="-2.2714450">
        <ele>1244.4</ele>
        <time>2020-09-12T12:08:15Z</time>
      </trkpt>
      <trkpt lat="41.0464480" lon="-2.2713680">
        <ele>1244.2</ele>
        <time>2020-09-12T12:08:16Z</time>
      </trkpt>
      <trkpt lat="41.0464440" lon="-2.2712910">
        <ele>1244.2</ele>
        <time>2020-09-12T12:08:17Z</time>
      </trkpt>
      <trkpt lat="41.0464420" lon="-2.2712150">
        <ele>1244.4</ele>
        <time>2020-09-12T12:08:18Z</time>
      </trkpt>
      <trkpt lat="41.0464380" lon="-2.2711380">
        <ele>1244.8</ele>
        <time>2020-09-12T12:08:19Z</time>
      </trkpt>
      <trkpt lat="41.0464340" lon="-2.2710610">
        <ele>1244.8</ele>
        <time>2020-09-12T12:08:20Z</time>
      </trkpt>
      <trkpt lat="41.0464280" lon="-2.2709840">
        <ele>1245.0</ele>
        <time>2020-09-12T12:08:21Z</time>
      </trkpt>
      <trkpt lat="41.0464220" lon="-2.2709070">
        <ele>1245.2</ele>
        <time>2020-09-12T12:08:22Z</time>
      </trkpt>
      <trkpt lat="41.0464170" lon="-2.2708300">
        <ele>1245.4</ele>
        <time>2020-09-12T12:08:23Z</time>
      </trkpt>
      <trkpt lat="41.0464110" lon="-2.2707520">
        <ele>1245.4</ele>
        <time>2020-09-12T12:08:24Z</time>
      </trkpt>
      <trkpt lat="41.0464080" lon="-2.2706730">
        <ele>1245.4</ele>
        <time>2020-09-12T12:08:25Z</time>
      </trkpt>
      <trkpt lat="41.0464050" lon="-2.2705940">
        <ele>1245.4</ele>
        <time>2020-09-12T12:08:26Z</time>
      </trkpt>
      <trkpt lat="41.0464020" lon="-2.2705150">
        <ele>1245.4</ele>
        <time>2020-09-12T12:08:27Z</time>
      </trkpt>
      <trkpt lat="41.0463980" lon="-2.2704370">
        <ele>1245.4</ele>
        <time>2020-09-12T12:08:28Z</time>
      </trkpt>
      <trkpt lat="41.0463930" lon="-2.2703580">
        <ele>1245.4</ele>
        <time>2020-09-12T12:08:29Z</time>
      </trkpt>
      <trkpt lat="41.0463890" lon="-2.2702770">
        <ele>1245.6</ele>
        <time>2020-09-12T12:08:30Z</time>
      </trkpt>
      <trkpt lat="41.0463850" lon="-2.2701940">
        <ele>1245.8</ele>
        <time>2020-09-12T12:08:31Z</time>
      </trkpt>
      <trkpt lat="41.0463800" lon="-2.2701110">
        <ele>1246.0</ele>
        <time>2020-09-12T12:08:32Z</time>
      </trkpt>
      <trkpt lat="41.0463750" lon="-2.2700270">
        <ele>1246.0</ele>
        <time>2020-09-12T12:08:33Z</time>
      </trkpt>
      <trkpt lat="41.0463710" lon="-2.2699440">
        <ele>1246.2</ele>
        <time>2020-09-12T12:08:34Z</time>
      </trkpt>
      <trkpt lat="41.0463660" lon="-2.2698580">
        <ele>1246.2</ele>
        <time>2020-09-12T12:08:35Z</time>
      </trkpt>
      <trkpt lat="41.0463610" lon="-2.2697710">
        <ele>1246.2</ele>
        <time>2020-09-12T12:08:36Z</time>
      </trkpt>
      <trkpt lat="41.0463570" lon="-2.2696830">
        <ele>1246.2</ele>
        <time>2020-09-12T12:08:37Z</time>
      </trkpt>
      <trkpt lat="41.0463530" lon="-2.2695930">
        <ele>1246.2</ele>
        <time>2020-09-12T12:08:38Z</time>
      </trkpt>
      <trkpt lat="41.0463480" lon="-2.2695020">
        <ele>1246.4</ele>
        <time>2020-09-12T12:08:39Z</time>
      </trkpt>
      <trkpt lat="41.0463420" lon="-2.2694100">
        <ele>1246.4</ele>
        <time>2020-09-12T12:08:40Z</time>
      </trkpt>
      <trkpt lat="41.0463360" lon="-2.2693170">
        <ele>1246.6</ele>
        <time>2020-09-12T12:08:41Z</time>
      </trkpt>
      <trkpt lat="41.0463290" lon="-2.2692240">
        <ele>1246.6</ele>
        <time>2020-09-12T12:08:42Z</time>
      </trkpt>
      <trkpt lat="41.0463230" lon="-2.2691300">
        <ele>1246.6</ele>
        <time>2020-09-12T12:08:43Z</time>
      </trkpt>
      <trkpt lat="41.0463190" lon="-2.2690340">
        <ele>1246.4</ele>
        <time>2020-09-12T12:08:44Z</time>
      </trkpt>
      <trkpt lat="41.0463130" lon="-2.2689380">
        <ele>1246.2</ele>
        <time>2020-09-12T12:08:45Z</time>
      </trkpt>
      <trkpt lat="41.0463070" lon="-2.2688400">
        <ele>1246.2</ele>
        <time>2020-09-12T12:08:46Z</time>
      </trkpt>
      <trkpt lat="41.0463020" lon="-2.2687410">
        <ele>1246.0</ele>
        <time>2020-09-12T12:08:47Z</time>
      </trkpt>
      <trkpt lat="41.0462970" lon="-2.2686410">
        <ele>1246.0</ele>
        <time>2020-09-12T12:08:48Z</time>
      </trkpt>
      <trkpt lat="41.0462920" lon="-2.2685410">
        <ele>1246.2</ele>
        <time>2020-09-12T12:08:49Z</time>
      </trkpt>
      <trkpt lat="41.0462860" lon="-2.2684400">
        <ele>1246.2</ele>
        <time>2020-09-12T12:08:50Z</time>
      </trkpt>
      <trkpt lat="41.0462800" lon="-2.2683400">
        <ele>1246.2</ele>
        <time>2020-09-12T12:08:51Z</time>
      </trkpt>
      <trkpt lat="41.0462750" lon="-2.2682390">
        <ele>1246.2</ele>
        <time>2020-09-12T12:08:52Z</time>
      </trkpt>
      <trkpt lat="41.0462700" lon="-2.2681380">
        <ele>1246.2</ele>
        <time>2020-09-12T12:08:53Z</time>
      </trkpt>
      <trkpt lat="41.0462650" lon="-2.2680360">
        <ele>1246.2</ele>
        <time>2020-09-12T12:08:54Z</time>
      </trkpt>
      <trkpt lat="41.0462590" lon="-2.2679330">
        <ele>1246.2</ele>
        <time>2020-09-12T12:08:55Z</time>
      </trkpt>
      <trkpt lat="41.0462540" lon="-2.2678300">
        <ele>1246.4</ele>
        <time>2020-09-12T12:08:56Z</time>
      </trkpt>
      <trkpt lat="41.0462470" lon="-2.2677270">
        <ele>1246.4</ele>
        <time>2020-09-12T12:08:57Z</time>
      </trkpt>
      <trkpt lat="41.0462400" lon="-2.2676260">
        <ele>1246.4</ele>
        <time>2020-09-12T12:08:58Z</time>
      </trkpt>
      <trkpt lat="41.0462320" lon="-2.2675240">
        <ele>1246.6</ele>
        <time>2020-09-12T12:08:59Z</time>
      </trkpt>
      <trkpt lat="41.0462230" lon="-2.2674240">
        <ele>1246.6</ele>
        <time>2020-09-12T12:09:00Z</time>
      </trkpt>
      <trkpt lat="41.0462140" lon="-2.2673250">
        <ele>1246.6</ele>
        <time>2020-09-12T12:09:01Z</time>
      </trkpt>
      <trkpt lat="41.0462040" lon="-2.2672260">
        <ele>1246.6</ele>
        <time>2020-09-12T12:09:02Z</time>
      </trkpt>
      <trkpt lat="41.0461930" lon="-2.2671270">
        <ele>1246.4</ele>
        <time>2020-09-12T12:09:03Z</time>
      </trkpt>
      <trkpt lat="41.0461800" lon="-2.2670300">
        <ele>1246.4</ele>
        <time>2020-09-12T12:09:04Z</time>
      </trkpt>
      <trkpt lat="41.0461660" lon="-2.2669340">
        <ele>1246.2</ele>
        <time>2020-09-12T12:09:05Z</time>
      </trkpt>
      <trkpt lat="41.0461530" lon="-2.2668380">
        <ele>1246.2</ele>
        <time>2020-09-12T12:09:06Z</time>
      </trkpt>
      <trkpt lat="41.0461390" lon="-2.2667450">
        <ele>1246.2</ele>
        <time>2020-09-12T12:09:07Z</time>
      </trkpt>
      <trkpt lat="41.0461230" lon="-2.2666540">
        <ele>1246.2</ele>
        <time>2020-09-12T12:09:08Z</time>
      </trkpt>
      <trkpt lat="41.0461060" lon="-2.2665630">
        <ele>1246.2</ele>
        <time>2020-09-12T12:09:09Z</time>
      </trkpt>
      <trkpt lat="41.0460880" lon="-2.2664740">
        <ele>1246.2</ele>
        <time>2020-09-12T12:09:10Z</time>
      </trkpt>
      <trkpt lat="41.0460700" lon="-2.2663860">
        <ele>1246.4</ele>
        <time>2020-09-12T12:09:11Z</time>
      </trkpt>
      <trkpt lat="41.0460510" lon="-2.2663000">
        <ele>1246.6</ele>
        <time>2020-09-12T12:09:12Z</time>
      </trkpt>
      <trkpt lat="41.0460330" lon="-2.2662140">
        <ele>1246.6</ele>
        <time>2020-09-12T12:09:13Z</time>
      </trkpt>
      <trkpt lat="41.0460150" lon="-2.2661290">
        <ele>1246.8</ele>
        <time>2020-09-12T12:09:14Z</time>
      </trkpt>
      <trkpt lat="41.0459960" lon="-2.2660460">
        <ele>1247.2</ele>
        <time>2020-09-12T12:09:15Z</time>
      </trkpt>
      <trkpt lat="41.0459760" lon="-2.2659640">
        <ele>1247.4</ele>
        <time>2020-09-12T12:09:16Z</time>
      </trkpt>
      <trkpt lat="41.0459570" lon="-2.2658810">
        <ele>1247.6</ele>
        <time>2020-09-12T12:09:17Z</time>
      </trkpt>
      <trkpt lat="41.0459380" lon="-2.2657970">
        <ele>1247.6</ele>
        <time>2020-09-12T12:09:18Z</time>
      </trkpt>
      <trkpt lat="41.0459180" lon="-2.2657150">
        <ele>1248.0</ele>
        <time>2020-09-12T12:09:19Z</time>
      </trkpt>
      <trkpt lat="41.0458990" lon="-2.2656310">
        <ele>1248.0</ele>
        <time>2020-09-12T12:09:20Z</time>
      </trkpt>
      <trkpt lat="41.0458810" lon="-2.2655470">
        <ele>1248.2</ele>
        <time>2020-09-12T12:09:21Z</time>
      </trkpt>
      <trkpt lat="41.0458620" lon="-2.2654630">
        <ele>1248.2</ele>
        <time>2020-09-12T12:09:22Z</time>
      </trkpt>
      <trkpt lat="41.0458400" lon="-2.2653790">
        <ele>1248.2</ele>
        <time>2020-09-12T12:09:23Z</time>
      </trkpt>
      <trkpt lat="41.0458180" lon="-2.2652930">
        <ele>1248.2</ele>
        <time>2020-09-12T12:09:24Z</time>
      </trkpt>
      <trkpt lat="41.0457970" lon="-2.2652050">
        <ele>1248.2</ele>
        <time>2020-09-12T12:09:25Z</time>
      </trkpt>
      <trkpt lat="41.0457760" lon="-2.2651160">
        <ele>1248.0</ele>
        <time>2020-09-12T12:09:26Z</time>
      </trkpt>
      <trkpt lat="41.0457540" lon="-2.2650240">
        <ele>1248.0</ele>
        <time>2020-09-12T12:09:27Z</time>
      </trkpt>
      <trkpt lat="41.0457330" lon="-2.2649320">
        <ele>1248.0</ele>
        <time>2020-09-12T12:09:28Z</time>
      </trkpt>
      <trkpt lat="41.0457120" lon="-2.2648380">
        <ele>1247.8</ele>
        <time>2020-09-12T12:09:29Z</time>
      </trkpt>
      <trkpt lat="41.0456900" lon="-2.2647430">
        <ele>1247.8</ele>
        <time>2020-09-12T12:09:30Z</time>
      </trkpt>
      <trkpt lat="41.0456690" lon="-2.2646440">
        <ele>1247.6</ele>
        <time>2020-09-12T12:09:31Z</time>
      </trkpt>
      <trkpt lat="41.0456480" lon="-2.2645440">
        <ele>1247.6</ele>
        <time>2020-09-12T12:09:32Z</time>
      </trkpt>
      <trkpt lat="41.0456250" lon="-2.2644440">
        <ele>1247.6</ele>
        <time>2020-09-12T12:09:33Z</time>
      </trkpt>
      <trkpt lat="41.0456010" lon="-2.2643420">
        <ele>1247.6</ele>
        <time>2020-09-12T12:09:34Z</time>
      </trkpt>
      <trkpt lat="41.0455780" lon="-2.2642380">
        <ele>1247.4</ele>
        <time>2020-09-12T12:09:35Z</time>
      </trkpt>
      <trkpt lat="41.0455540" lon="-2.2641340">
        <ele>1247.4</ele>
        <time>2020-09-12T12:09:36Z</time>
      </trkpt>
      <trkpt lat="41.0455300" lon="-2.2640280">
        <ele>1247.2</ele>
        <time>2020-09-12T12:09:37Z</time>
      </trkpt>
      <trkpt lat="41.0455060" lon="-2.2639210">
        <ele>1247.0</ele>
        <time>2020-09-12T12:09:38Z</time>
      </trkpt>
      <trkpt lat="41.0454810" lon="-2.2638120">
        <ele>1246.8</ele>
        <time>2020-09-12T12:09:39Z</time>
      </trkpt>
      <trkpt lat="41.0454560" lon="-2.2637030">
        <ele>1246.4</ele>
        <time>2020-09-12T12:09:40Z</time>
      </trkpt>
      <trkpt lat="41.0454320" lon="-2.2635920">
        <ele>1246.2</ele>
        <time>2020-09-12T12:09:41Z</time>
      </trkpt>
      <trkpt lat="41.0454080" lon="-2.2634820">
        <ele>1245.8</ele>
        <time>2020-09-12T12:09:42Z</time>
      </trkpt>
      <trkpt lat="41.0453840" lon="-2.2633700">
        <ele>1245.8</ele>
        <time>2020-09-12T12:09:43Z</time>
      </trkpt>
      <trkpt lat="41.0453610" lon="-2.2632560">
        <ele>1245.6</ele>
        <time>2020-09-12T12:09:44Z</time>
      </trkpt>
      <trkpt lat="41.0453390" lon="-2.2631410">
        <ele>1245.8</ele>
        <time>2020-09-12T12:09:45Z</time>
      </trkpt>
      <trkpt lat="41.0453190" lon="-2.2630240">
        <ele>1245.8</ele>
        <time>2020-09-12T12:09:46Z</time>
      </trkpt>
      <trkpt lat="41.0453020" lon="-2.2629070">
        <ele>1245.8</ele>
        <time>2020-09-12T12:09:47Z</time>
      </trkpt>
      <trkpt lat="41.0452880" lon="-2.2627870">
        <ele>1245.8</ele>
        <time>2020-09-12T12:09:48Z</time>
      </trkpt>
      <trkpt lat="41.0452770" lon="-2.2626670">
        <ele>1246.0</ele>
        <time>2020-09-12T12:09:49Z</time>
      </trkpt>
      <trkpt lat="41.0452700" lon="-2.2625440">
        <ele>1245.8</ele>
        <time>2020-09-12T12:09:50Z</time>
      </trkpt>
      <trkpt lat="41.0452670" lon="-2.2624210">
        <ele>1245.8</ele>
        <time>2020-09-12T12:09:51Z</time>
      </trkpt>
      <trkpt lat="41.0452700" lon="-2.2622970">
        <ele>1245.8</ele>
        <time>2020-09-12T12:09:52Z</time>
      </trkpt>
      <trkpt lat="41.0452940" lon="-2.2619220">
        <ele>1245.8</ele>
        <time>2020-09-12T12:09:55Z</time>
      </trkpt>
      <trkpt lat="41.0453050" lon="-2.2618020">
        <ele>1246.2</ele>
        <time>2020-09-12T12:09:56Z</time>
      </trkpt>
      <trkpt lat="41.0453150" lon="-2.2616830">
        <ele>1246.4</ele>
        <time>2020-09-12T12:09:57Z</time>
      </trkpt>
      <trkpt lat="41.0453270" lon="-2.2615660">
        <ele>1246.6</ele>
        <time>2020-09-12T12:09:58Z</time>
      </trkpt>
      <trkpt lat="41.0453390" lon="-2.2614520">
        <ele>1246.6</ele>
        <time>2020-09-12T12:09:59Z</time>
      </trkpt>
      <trkpt lat="41.0453500" lon="-2.2613400">
        <ele>1246.4</ele>
        <time>2020-09-12T12:10:00Z</time>
      </trkpt>
      <trkpt lat="41.0453620" lon="-2.2612290">
        <ele>1246.2</ele>
        <time>2020-09-12T12:10:01Z</time>
      </trkpt>
      <trkpt lat="41.0453730" lon="-2.2611200">
        <ele>1245.8</ele>
        <time>2020-09-12T12:10:02Z</time>
      </trkpt>
      <trkpt lat="41.0453840" lon="-2.2610130">
        <ele>1245.4</ele>
        <time>2020-09-12T12:10:03Z</time>
      </trkpt>
      <trkpt lat="41.0453940" lon="-2.2609090">
        <ele>1245.0</ele>
        <time>2020-09-12T12:10:04Z</time>
      </trkpt>
      <trkpt lat="41.0454040" lon="-2.2608070">
        <ele>1244.6</ele>
        <time>2020-09-12T12:10:05Z</time>
      </trkpt>
      <trkpt lat="41.0454140" lon="-2.2607070">
        <ele>1244.4</ele>
        <time>2020-09-12T12:10:06Z</time>
      </trkpt>
      <trkpt lat="41.0454260" lon="-2.2606090">
        <ele>1244.2</ele>
        <time>2020-09-12T12:10:07Z</time>
      </trkpt>
      <trkpt lat="41.0454380" lon="-2.2605130">
        <ele>1244.2</ele>
        <time>2020-09-12T12:10:08Z</time>
      </trkpt>
      <trkpt lat="41.0454490" lon="-2.2604190">
        <ele>1244.2</ele>
        <time>2020-09-12T12:10:09Z</time>
      </trkpt>
      <trkpt lat="41.0454580" lon="-2.2603290">
        <ele>1244.4</ele>
        <time>2020-09-12T12:10:10Z</time>
      </trkpt>
      <trkpt lat="41.0454660" lon="-2.2602410">
        <ele>1244.6</ele>
        <time>2020-09-12T12:10:11Z</time>
      </trkpt>
      <trkpt lat="41.0454730" lon="-2.2601550">
        <ele>1244.8</ele>
        <time>2020-09-12T12:10:12Z</time>
      </trkpt>
      <trkpt lat="41.0454800" lon="-2.2600720">
        <ele>1245.0</ele>
        <time>2020-09-12T12:10:13Z</time>
      </trkpt>
      <trkpt lat="41.0454850" lon="-2.2599920">
        <ele>1245.2</ele>
        <time>2020-09-12T12:10:14Z</time>
      </trkpt>
      <trkpt lat="41.0454910" lon="-2.2599120">
        <ele>1245.4</ele>
        <time>2020-09-12T12:10:15Z</time>
      </trkpt>
      <trkpt lat="41.0454970" lon="-2.2598350">
        <ele>1245.4</ele>
        <time>2020-09-12T12:10:16Z</time>
      </trkpt>
      <trkpt lat="41.0455030" lon="-2.2597590">
        <ele>1245.6</ele>
        <time>2020-09-12T12:10:17Z</time>
      </trkpt>
      <trkpt lat="41.0455100" lon="-2.2596850">
        <ele>1245.6</ele>
        <time>2020-09-12T12:10:18Z</time>
      </trkpt>
      <trkpt lat="41.0455160" lon="-2.2596130">
        <ele>1245.6</ele>
        <time>2020-09-12T12:10:19Z</time>
      </trkpt>
      <trkpt lat="41.0455230" lon="-2.2595430">
        <ele>1245.6</ele>
        <time>2020-09-12T12:10:20Z</time>
      </trkpt>
      <trkpt lat="41.0455310" lon="-2.2594720">
        <ele>1245.8</ele>
        <time>2020-09-12T12:10:21Z</time>
      </trkpt>
      <trkpt lat="41.0455410" lon="-2.2593980">
        <ele>1245.8</ele>
        <time>2020-09-12T12:10:22Z</time>
      </trkpt>
      <trkpt lat="41.0455490" lon="-2.2593250">
        <ele>1246.0</ele>
        <time>2020-09-12T12:10:23Z</time>
      </trkpt>
      <trkpt lat="41.0455590" lon="-2.2592550">
        <ele>1246.2</ele>
        <time>2020-09-12T12:10:24Z</time>
      </trkpt>
      <trkpt lat="41.0455700" lon="-2.2591830">
        <ele>1246.4</ele>
        <time>2020-09-12T12:10:25Z</time>
      </trkpt>
      <trkpt lat="41.0455800" lon="-2.2591110">
        <ele>1246.6</ele>
        <time>2020-09-12T12:10:26Z</time>
      </trkpt>
      <trkpt lat="41.0455900" lon="-2.2590410">
        <ele>1246.8</ele>
        <time>2020-09-12T12:10:27Z</time>
      </trkpt>
      <trkpt lat="41.0456000" lon="-2.2589720">
        <ele>1247.0</ele>
        <time>2020-09-12T12:10:28Z</time>
      </trkpt>
      <trkpt lat="41.0456090" lon="-2.2589030">
        <ele>1247.4</ele>
        <time>2020-09-12T12:10:29Z</time>
      </trkpt>
      <trkpt lat="41.0456170" lon="-2.2588350">
        <ele>1247.8</ele>
        <time>2020-09-12T12:10:30Z</time>
      </trkpt>
      <trkpt lat="41.0456250" lon="-2.2587670">
        <ele>1248.2</ele>
        <time>2020-09-12T12:10:31Z</time>
      </trkpt>
      <trkpt lat="41.0456330" lon="-2.2586970">
        <ele>1248.4</ele>
        <time>2020-09-12T12:10:32Z</time>
      </trkpt>
      <trkpt lat="41.0456420" lon="-2.2586280">
        <ele>1248.6</ele>
        <time>2020-09-12T12:10:33Z</time>
      </trkpt>
      <trkpt lat="41.0456520" lon="-2.2585600">
        <ele>1248.8</ele>
        <time>2020-09-12T12:10:34Z</time>
      </trkpt>
      <trkpt lat="41.0456620" lon="-2.2584960">
        <ele>1249.0</ele>
        <time>2020-09-12T12:10:35Z</time>
      </trkpt>
      <trkpt lat="41.0456710" lon="-2.2584350">
        <ele>1249.2</ele>
        <time>2020-09-12T12:10:36Z</time>
      </trkpt>
      <trkpt lat="41.0456800" lon="-2.2583760">
        <ele>1249.6</ele>
        <time>2020-09-12T12:10:37Z</time>
      </trkpt>
      <trkpt lat="41.0456890" lon="-2.2583170">
        <ele>1249.8</ele>
        <time>2020-09-12T12:10:38Z</time>
      </trkpt>
      <trkpt lat="41.0457010" lon="-2.2582590">
        <ele>1250.0</ele>
        <time>2020-09-12T12:10:39Z</time>
      </trkpt>
      <trkpt lat="41.0457150" lon="-2.2581990">
        <ele>1250.4</ele>
        <time>2020-09-12T12:10:40Z</time>
      </trkpt>
      <trkpt lat="41.0457290" lon="-2.2581410">
        <ele>1250.8</ele>
        <time>2020-09-12T12:10:41Z</time>
      </trkpt>
      <trkpt lat="41.0457440" lon="-2.2580820">
        <ele>1251.4</ele>
        <time>2020-09-12T12:10:42Z</time>
      </trkpt>
      <trkpt lat="41.0457600" lon="-2.2580240">
        <ele>1251.6</ele>
        <time>2020-09-12T12:10:43Z</time>
      </trkpt>
      <trkpt lat="41.0457760" lon="-2.2579660">
        <ele>1252.0</ele>
        <time>2020-09-12T12:10:44Z</time>
      </trkpt>
      <trkpt lat="41.0457920" lon="-2.2579090">
        <ele>1252.2</ele>
        <time>2020-09-12T12:10:45Z</time>
      </trkpt>
      <trkpt lat="41.0458080" lon="-2.2578530">
        <ele>1252.4</ele>
        <time>2020-09-12T12:10:46Z</time>
      </trkpt>
      <trkpt lat="41.0458240" lon="-2.2577980">
        <ele>1252.4</ele>
        <time>2020-09-12T12:10:47Z</time>
      </trkpt>
      <trkpt lat="41.0458400" lon="-2.2577430">
        <ele>1252.6</ele>
        <time>2020-09-12T12:10:48Z</time>
      </trkpt>
      <trkpt lat="41.0458560" lon="-2.2576880">
        <ele>1252.8</ele>
        <time>2020-09-12T12:10:49Z</time>
      </trkpt>
      <trkpt lat="41.0458740" lon="-2.2576330">
        <ele>1252.8</ele>
        <time>2020-09-12T12:10:50Z</time>
      </trkpt>
      <trkpt lat="41.0458930" lon="-2.2575770">
        <ele>1252.8</ele>
        <time>2020-09-12T12:10:51Z</time>
      </trkpt>
      <trkpt lat="41.0459110" lon="-2.2575230">
        <ele>1252.8</ele>
        <time>2020-09-12T12:10:52Z</time>
      </trkpt>
      <trkpt lat="41.0459300" lon="-2.2574680">
        <ele>1253.2</ele>
        <time>2020-09-12T12:10:53Z</time>
      </trkpt>
      <trkpt lat="41.0459490" lon="-2.2574120">
        <ele>1253.4</ele>
        <time>2020-09-12T12:10:54Z</time>
      </trkpt>
      <trkpt lat="41.0459680" lon="-2.2573570">
        <ele>1253.8</ele>
        <time>2020-09-12T12:10:55Z</time>
      </trkpt>
      <trkpt lat="41.0459890" lon="-2.2573030">
        <ele>1254.0</ele>
        <time>2020-09-12T12:10:56Z</time>
      </trkpt>
      <trkpt lat="41.0460080" lon="-2.2572480">
        <ele>1254.4</ele>
        <time>2020-09-12T12:10:57Z</time>
      </trkpt>
      <trkpt lat="41.0460270" lon="-2.2571950">
        <ele>1254.6</ele>
        <time>2020-09-12T12:10:58Z</time>
      </trkpt>
      <trkpt lat="41.0460460" lon="-2.2571400">
        <ele>1254.6</ele>
        <time>2020-09-12T12:10:59Z</time>
      </trkpt>
      <trkpt lat="41.0460650" lon="-2.2570870">
        <ele>1254.8</ele>
        <time>2020-09-12T12:11:00Z</time>
      </trkpt>
      <trkpt lat="41.0460850" lon="-2.2570340">
        <ele>1255.0</ele>
        <time>2020-09-12T12:11:01Z</time>
      </trkpt>
      <trkpt lat="41.0461050" lon="-2.2569820">
        <ele>1255.4</ele>
        <time>2020-09-12T12:11:02Z</time>
      </trkpt>
      <trkpt lat="41.0461250" lon="-2.2569310">
        <ele>1255.6</ele>
        <time>2020-09-12T12:11:03Z</time>
      </trkpt>
      <trkpt lat="41.0461450" lon="-2.2568800">
        <ele>1255.6</ele>
        <time>2020-09-12T12:11:04Z</time>
      </trkpt>
      <trkpt lat="41.0461640" lon="-2.2568290">
        <ele>1255.8</ele>
        <time>2020-09-12T12:11:05Z</time>
      </trkpt>
      <trkpt lat="41.0461820" lon="-2.2567760">
        <ele>1256.0</ele>
        <time>2020-09-12T12:11:06Z</time>
      </trkpt>
      <trkpt lat="41.0462000" lon="-2.2567230">
        <ele>1256.0</ele>
        <time>2020-09-12T12:11:07Z</time>
      </trkpt>
      <trkpt lat="41.0462170" lon="-2.2566700">
        <ele>1256.4</ele>
        <time>2020-09-12T12:11:08Z</time>
      </trkpt>
      <trkpt lat="41.0462360" lon="-2.2566190">
        <ele>1256.8</ele>
        <time>2020-09-12T12:11:09Z</time>
      </trkpt>
      <trkpt lat="41.0462550" lon="-2.2565670">
        <ele>1257.2</ele>
        <time>2020-09-12T12:11:10Z</time>
      </trkpt>
      <trkpt lat="41.0462720" lon="-2.2565150">
        <ele>1257.4</ele>
        <time>2020-09-12T12:11:11Z</time>
      </trkpt>
      <trkpt lat="41.0462900" lon="-2.2564630">
        <ele>1257.6</ele>
        <time>2020-09-12T12:11:12Z</time>
      </trkpt>
      <trkpt lat="41.0463090" lon="-2.2564120">
        <ele>1257.8</ele>
        <time>2020-09-12T12:11:13Z</time>
      </trkpt>
      <trkpt lat="41.0463260" lon="-2.2563620">
        <ele>1258.0</ele>
        <time>2020-09-12T12:11:14Z</time>
      </trkpt>
      <trkpt lat="41.0463430" lon="-2.2563120">
        <ele>1258.2</ele>
        <time>2020-09-12T12:11:15Z</time>
      </trkpt>
      <trkpt lat="41.0463600" lon="-2.2562610">
        <ele>1258.2</ele>
        <time>2020-09-12T12:11:16Z</time>
      </trkpt>
      <trkpt lat="41.0463740" lon="-2.2562080">
        <ele>1258.4</ele>
        <time>2020-09-12T12:11:17Z</time>
      </trkpt>
      <trkpt lat="41.0463890" lon="-2.2561550">
        <ele>1258.6</ele>
        <time>2020-09-12T12:11:18Z</time>
      </trkpt>
      <trkpt lat="41.0464050" lon="-2.2561050">
        <ele>1258.8</ele>
        <time>2020-09-12T12:11:19Z</time>
      </trkpt>
      <trkpt lat="41.0464220" lon="-2.2560550">
        <ele>1259.0</ele>
        <time>2020-09-12T12:11:20Z</time>
      </trkpt>
      <trkpt lat="41.0464370" lon="-2.2560030">
        <ele>1259.0</ele>
        <time>2020-09-12T12:11:21Z</time>
      </trkpt>
      <trkpt lat="41.0464510" lon="-2.2559520">
        <ele>1259.2</ele>
        <time>2020-09-12T12:11:22Z</time>
      </trkpt>
      <trkpt lat="41.0464650" lon="-2.2559010">
        <ele>1259.4</ele>
        <time>2020-09-12T12:11:23Z</time>
      </trkpt>
      <trkpt lat="41.0464790" lon="-2.2558510">
        <ele>1259.6</ele>
        <time>2020-09-12T12:11:24Z</time>
      </trkpt>
      <trkpt lat="41.0464920" lon="-2.2557990">
        <ele>1259.6</ele>
        <time>2020-09-12T12:11:25Z</time>
      </trkpt>
      <trkpt lat="41.0465050" lon="-2.2557480">
        <ele>1259.8</ele>
        <time>2020-09-12T12:11:26Z</time>
      </trkpt>
      <trkpt lat="41.0465180" lon="-2.2556950">
        <ele>1260.0</ele>
        <time>2020-09-12T12:11:27Z</time>
      </trkpt>
      <trkpt lat="41.0465320" lon="-2.2556440">
        <ele>1260.4</ele>
        <time>2020-09-12T12:11:28Z</time>
      </trkpt>
      <trkpt lat="41.0465460" lon="-2.2555920">
        <ele>1260.6</ele>
        <time>2020-09-12T12:11:29Z</time>
      </trkpt>
      <trkpt lat="41.0465590" lon="-2.2555390">
        <ele>1261.0</ele>
        <time>2020-09-12T12:11:30Z</time>
      </trkpt>
      <trkpt lat="41.0465700" lon="-2.2554850">
        <ele>1261.0</ele>
        <time>2020-09-12T12:11:31Z</time>
      </trkpt>
      <trkpt lat="41.0465800" lon="-2.2554290">
        <ele>1261.2</ele>
        <time>2020-09-12T12:11:32Z</time>
      </trkpt>
      <trkpt lat="41.0465910" lon="-2.2553750">
        <ele>1261.4</ele>
        <time>2020-09-12T12:11:33Z</time>
      </trkpt>
      <trkpt lat="41.0466030" lon="-2.2553190">
        <ele>1261.6</ele>
        <time>2020-09-12T12:11:34Z</time>
      </trkpt>
      <trkpt lat="41.0466140" lon="-2.2552660">
        <ele>1261.8</ele>
        <time>2020-09-12T12:11:35Z</time>
      </trkpt>
      <trkpt lat="41.0466250" lon="-2.2552110">
        <ele>1262.0</ele>
        <time>2020-09-12T12:11:36Z</time>
      </trkpt>
      <trkpt lat="41.0466360" lon="-2.2551560">
        <ele>1262.2</ele>
        <time>2020-09-12T12:11:37Z</time>
      </trkpt>
      <trkpt lat="41.0466440" lon="-2.2551000">
        <ele>1262.2</ele>
        <time>2020-09-12T12:11:38Z</time>
      </trkpt>
      <trkpt lat="41.0466520" lon="-2.2550440">
        <ele>1262.4</ele>
        <time>2020-09-12T12:11:39Z</time>
      </trkpt>
      <trkpt lat="41.0466600" lon="-2.2549860">
        <ele>1262.6</ele>
        <time>2020-09-12T12:11:40Z</time>
      </trkpt>
      <trkpt lat="41.0466670" lon="-2.2549290">
        <ele>1262.8</ele>
        <time>2020-09-12T12:11:41Z</time>
      </trkpt>
      <trkpt lat="41.0466740" lon="-2.2548700">
        <ele>1263.0</ele>
        <time>2020-09-12T12:11:42Z</time>
      </trkpt>
      <trkpt lat="41.0466810" lon="-2.2548110">
        <ele>1263.2</ele>
        <time>2020-09-12T12:11:43Z</time>
      </trkpt>
      <trkpt lat="41.0466880" lon="-2.2547520">
        <ele>1263.6</ele>
        <time>2020-09-12T12:11:44Z</time>
      </trkpt>
      <trkpt lat="41.0466940" lon="-2.2546930">
        <ele>1263.8</ele>
        <time>2020-09-12T12:11:45Z</time>
      </trkpt>
      <trkpt lat="41.0466980" lon="-2.2546320">
        <ele>1264.0</ele>
        <time>2020-09-12T12:11:46Z</time>
      </trkpt>
      <trkpt lat="41.0467020" lon="-2.2545710">
        <ele>1264.2</ele>
        <time>2020-09-12T12:11:47Z</time>
      </trkpt>
      <trkpt lat="41.0467080" lon="-2.2545110">
        <ele>1264.2</ele>
        <time>2020-09-12T12:11:48Z</time>
      </trkpt>
      <trkpt lat="41.0467140" lon="-2.2544500">
        <ele>1264.2</ele>
        <time>2020-09-12T12:11:49Z</time>
      </trkpt>
      <trkpt lat="41.0467200" lon="-2.2543890">
        <ele>1264.4</ele>
        <time>2020-09-12T12:11:50Z</time>
      </trkpt>
      <trkpt lat="41.0467240" lon="-2.2543280">
        <ele>1264.4</ele>
        <time>2020-09-12T12:11:51Z</time>
      </trkpt>
      <trkpt lat="41.0467280" lon="-2.2542660">
        <ele>1264.4</ele>
        <time>2020-09-12T12:11:52Z</time>
      </trkpt>
      <trkpt lat="41.0467310" lon="-2.2542040">
        <ele>1264.4</ele>
        <time>2020-09-12T12:11:53Z</time>
      </trkpt>
      <trkpt lat="41.0467310" lon="-2.2541420">
        <ele>1264.8</ele>
        <time>2020-09-12T12:11:54Z</time>
      </trkpt>
      <trkpt lat="41.0467320" lon="-2.2540800">
        <ele>1265.0</ele>
        <time>2020-09-12T12:11:55Z</time>
      </trkpt>
      <trkpt lat="41.0467320" lon="-2.2540160">
        <ele>1265.2</ele>
        <time>2020-09-12T12:11:56Z</time>
      </trkpt>
      <trkpt lat="41.0467340" lon="-2.2539510">
        <ele>1265.2</ele>
        <time>2020-09-12T12:11:57Z</time>
      </trkpt>
      <trkpt lat="41.0467360" lon="-2.2538860">
        <ele>1265.4</ele>
        <time>2020-09-12T12:11:58Z</time>
      </trkpt>
      <trkpt lat="41.0467370" lon="-2.2538230">
        <ele>1265.4</ele>
        <time>2020-09-12T12:11:59Z</time>
      </trkpt>
      <trkpt lat="41.0467360" lon="-2.2537590">
        <ele>1265.6</ele>
        <time>2020-09-12T12:12:00Z</time>
      </trkpt>
      <trkpt lat="41.0467330" lon="-2.2536960">
        <ele>1266.0</ele>
        <time>2020-09-12T12:12:01Z</time>
      </trkpt>
      <trkpt lat="41.0467300" lon="-2.2536330">
        <ele>1266.4</ele>
        <time>2020-09-12T12:12:02Z</time>
      </trkpt>
      <trkpt lat="41.0467270" lon="-2.2535690">
        <ele>1266.8</ele>
        <time>2020-09-12T12:12:03Z</time>
      </trkpt>
      <trkpt lat="41.0467250" lon="-2.2535040">
        <ele>1267.2</ele>
        <time>2020-09-12T12:12:04Z</time>
      </trkpt>
      <trkpt lat="41.0467230" lon="-2.2534390">
        <ele>1267.4</ele>
        <time>2020-09-12T12:12:05Z</time>
      </trkpt>
      <trkpt lat="41.0467210" lon="-2.2533740">
        <ele>1267.4</ele>
        <time>2020-09-12T12:12:06Z</time>
      </trkpt>
      <trkpt lat="41.0467180" lon="-2.2533100">
        <ele>1267.6</ele>
        <time>2020-09-12T12:12:07Z</time>
      </trkpt>
      <trkpt lat="41.0467150" lon="-2.2532450">
        <ele>1267.6</ele>
        <time>2020-09-12T12:12:08Z</time>
      </trkpt>
      <trkpt lat="41.0467140" lon="-2.2531790">
        <ele>1267.6</ele>
        <time>2020-09-12T12:12:09Z</time>
      </trkpt>
      <trkpt lat="41.0467100" lon="-2.2531160">
        <ele>1267.6</ele>
        <time>2020-09-12T12:12:10Z</time>
      </trkpt>
      <trkpt lat="41.0467060" lon="-2.2530520">
        <ele>1267.6</ele>
        <time>2020-09-12T12:12:11Z</time>
      </trkpt>
      <trkpt lat="41.0467020" lon="-2.2529900">
        <ele>1267.6</ele>
        <time>2020-09-12T12:12:12Z</time>
      </trkpt>
      <trkpt lat="41.0466980" lon="-2.2529280">
        <ele>1267.6</ele>
        <time>2020-09-12T12:12:13Z</time>
      </trkpt>
      <trkpt lat="41.0466910" lon="-2.2528680">
        <ele>1267.8</ele>
        <time>2020-09-12T12:12:14Z</time>
      </trkpt>
      <trkpt lat="41.0466840" lon="-2.2528080">
        <ele>1268.0</ele>
        <time>2020-09-12T12:12:15Z</time>
      </trkpt>
      <trkpt lat="41.0466780" lon="-2.2527480">
        <ele>1268.4</ele>
        <time>2020-09-12T12:12:16Z</time>
      </trkpt>
      <trkpt lat="41.0466720" lon="-2.2526870">
        <ele>1268.8</ele>
        <time>2020-09-12T12:12:17Z</time>
      </trkpt>
      <trkpt lat="41.0466640" lon="-2.2526260">
        <ele>1269.0</ele>
        <time>2020-09-12T12:12:18Z</time>
      </trkpt>
      <trkpt lat="41.0466570" lon="-2.2525640">
        <ele>1269.2</ele>
        <time>2020-09-12T12:12:19Z</time>
      </trkpt>
      <trkpt lat="41.0466500" lon="-2.2525020">
        <ele>1269.2</ele>
        <time>2020-09-12T12:12:20Z</time>
      </trkpt>
      <trkpt lat="41.0466430" lon="-2.2524400">
        <ele>1269.4</ele>
        <time>2020-09-12T12:12:21Z</time>
      </trkpt>
      <trkpt lat="41.0466370" lon="-2.2523780">
        <ele>1269.6</ele>
        <time>2020-09-12T12:12:22Z</time>
      </trkpt>
      <trkpt lat="41.0466290" lon="-2.2523150">
        <ele>1269.6</ele>
        <time>2020-09-12T12:12:23Z</time>
      </trkpt>
      <trkpt lat="41.0466210" lon="-2.2522510">
        <ele>1269.8</ele>
        <time>2020-09-12T12:12:24Z</time>
      </trkpt>
      <trkpt lat="41.0466130" lon="-2.2521890">
        <ele>1270.0</ele>
        <time>2020-09-12T12:12:25Z</time>
      </trkpt>
      <trkpt lat="41.0466040" lon="-2.2521270">
        <ele>1270.2</ele>
        <time>2020-09-12T12:12:26Z</time>
      </trkpt>
      <trkpt lat="41.0465950" lon="-2.2520670">
        <ele>1270.4</ele>
        <time>2020-09-12T12:12:27Z</time>
      </trkpt>
      <trkpt lat="41.0465870" lon="-2.2520070">
        <ele>1270.6</ele>
        <time>2020-09-12T12:12:28Z</time>
      </trkpt>
      <trkpt lat="41.0465790" lon="-2.2519490">
        <ele>1270.6</ele>
        <time>2020-09-12T12:12:29Z</time>
      </trkpt>
      <trkpt lat="41.0465720" lon="-2.2518900">
        <ele>1270.6</ele>
        <time>2020-09-12T12:12:30Z</time>
      </trkpt>
      <trkpt lat="41.0465640" lon="-2.2518320">
        <ele>1270.8</ele>
        <time>2020-09-12T12:12:31Z</time>
      </trkpt>
      <trkpt lat="41.0465560" lon="-2.2517730">
        <ele>1270.8</ele>
        <time>2020-09-12T12:12:32Z</time>
      </trkpt>
      <trkpt lat="41.0465490" lon="-2.2517150">
        <ele>1271.0</ele>
        <time>2020-09-12T12:12:33Z</time>
      </trkpt>
      <trkpt lat="41.0465410" lon="-2.2516560">
        <ele>1271.4</ele>
        <time>2020-09-12T12:12:34Z</time>
      </trkpt>
      <trkpt lat="41.0465340" lon="-2.2515970">
        <ele>1271.6</ele>
        <time>2020-09-12T12:12:35Z</time>
      </trkpt>
      <trkpt lat="41.0465260" lon="-2.2515380">
        <ele>1271.8</ele>
        <time>2020-09-12T12:12:36Z</time>
      </trkpt>
      <trkpt lat="41.0465170" lon="-2.2514800">
        <ele>1272.2</ele>
        <time>2020-09-12T12:12:37Z</time>
      </trkpt>
      <trkpt lat="41.0465100" lon="-2.2514220">
        <ele>1272.6</ele>
        <time>2020-09-12T12:12:38Z</time>
      </trkpt>
      <trkpt lat="41.0465010" lon="-2.2513650">
        <ele>1273.0</ele>
        <time>2020-09-12T12:12:39Z</time>
      </trkpt>
      <trkpt lat="41.0464920" lon="-2.2513090">
        <ele>1273.2</ele>
        <time>2020-09-12T12:12:40Z</time>
      </trkpt>
      <trkpt lat="41.0464840" lon="-2.2512510">
        <ele>1273.2</ele>
        <time>2020-09-12T12:12:41Z</time>
      </trkpt>
      <trkpt lat="41.0464750" lon="-2.2511940">
        <ele>1273.2</ele>
        <time>2020-09-12T12:12:42Z</time>
      </trkpt>
      <trkpt lat="41.0464650" lon="-2.2511360">
        <ele>1273.4</ele>
        <time>2020-09-12T12:12:43Z</time>
      </trkpt>
      <trkpt lat="41.0464560" lon="-2.2510790">
        <ele>1273.4</ele>
        <time>2020-09-12T12:12:44Z</time>
      </trkpt>
      <trkpt lat="41.0464460" lon="-2.2510210">
        <ele>1273.6</ele>
        <time>2020-09-12T12:12:45Z</time>
      </trkpt>
      <trkpt lat="41.0464380" lon="-2.2509630">
        <ele>1274.0</ele>
        <time>2020-09-12T12:12:46Z</time>
      </trkpt>
      <trkpt lat="41.0464310" lon="-2.2509030">
        <ele>1274.2</ele>
        <time>2020-09-12T12:12:47Z</time>
      </trkpt>
      <trkpt lat="41.0464230" lon="-2.2508430">
        <ele>1274.4</ele>
        <time>2020-09-12T12:12:48Z</time>
      </trkpt>
      <trkpt lat="41.0464140" lon="-2.2507830">
        <ele>1274.6</ele>
        <time>2020-09-12T12:12:49Z</time>
      </trkpt>
      <trkpt lat="41.0464070" lon="-2.2507220">
        <ele>1274.6</ele>
        <time>2020-09-12T12:12:50Z</time>
      </trkpt>
      <trkpt lat="41.0464000" lon="-2.2506610">
        <ele>1274.8</ele>
        <time>2020-09-12T12:12:51Z</time>
      </trkpt>
      <trkpt lat="41.0463920" lon="-2.2505990">
        <ele>1274.6</ele>
        <time>2020-09-12T12:12:52Z</time>
      </trkpt>
      <trkpt lat="41.0463840" lon="-2.2505360">
        <ele>1274.6</ele>
        <time>2020-09-12T12:12:53Z</time>
      </trkpt>
      <trkpt lat="41.0463760" lon="-2.2504730">
        <ele>1274.6</ele>
        <time>2020-09-12T12:12:54Z</time>
      </trkpt>
      <trkpt lat="41.0463690" lon="-2.2504090">
        <ele>1274.8</ele>
        <time>2020-09-12T12:12:55Z</time>
      </trkpt>
      <trkpt lat="41.0463620" lon="-2.2503440">
        <ele>1275.0</ele>
        <time>2020-09-12T12:12:56Z</time>
      </trkpt>
      <trkpt lat="41.0463560" lon="-2.2502780">
        <ele>1275.0</ele>
        <time>2020-09-12T12:12:57Z</time>
      </trkpt>
      <trkpt lat="41.0463500" lon="-2.2502100">
        <ele>1275.2</ele>
        <time>2020-09-12T12:12:58Z</time>
      </trkpt>
      <trkpt lat="41.0463450" lon="-2.2501400">
        <ele>1275.4</ele>
        <time>2020-09-12T12:12:59Z</time>
      </trkpt>
      <trkpt lat="41.0463420" lon="-2.2500690">
        <ele>1275.6</ele>
        <time>2020-09-12T12:13:00Z</time>
      </trkpt>
      <trkpt lat="41.0463390" lon="-2.2499980">
        <ele>1275.6</ele>
        <time>2020-09-12T12:13:01Z</time>
      </trkpt>
      <trkpt lat="41.0463360" lon="-2.2499260">
        <ele>1275.8</ele>
        <time>2020-09-12T12:13:02Z</time>
      </trkpt>
      <trkpt lat="41.0463320" lon="-2.2498530">
        <ele>1276.0</ele>
        <time>2020-09-12T12:13:03Z</time>
      </trkpt>
      <trkpt lat="41.0463290" lon="-2.2497800">
        <ele>1276.0</ele>
        <time>2020-09-12T12:13:04Z</time>
      </trkpt>
      <trkpt lat="41.0463280" lon="-2.2497060">
        <ele>1276.0</ele>
        <time>2020-09-12T12:13:05Z</time>
      </trkpt>
      <trkpt lat="41.0463270" lon="-2.2496340">
        <ele>1276.0</ele>
        <time>2020-09-12T12:13:06Z</time>
      </trkpt>
      <trkpt lat="41.0463250" lon="-2.2495620">
        <ele>1276.0</ele>
        <time>2020-09-12T12:13:07Z</time>
      </trkpt>
      <trkpt lat="41.0463220" lon="-2.2494890">
        <ele>1276.0</ele>
        <time>2020-09-12T12:13:08Z</time>
      </trkpt>
      <trkpt lat="41.0463210" lon="-2.2494160">
        <ele>1275.8</ele>
        <time>2020-09-12T12:13:09Z</time>
      </trkpt>
      <trkpt lat="41.0463200" lon="-2.2493410">
        <ele>1275.8</ele>
        <time>2020-09-12T12:13:10Z</time>
      </trkpt>
      <trkpt lat="41.0463200" lon="-2.2492650">
        <ele>1275.6</ele>
        <time>2020-09-12T12:13:11Z</time>
      </trkpt>
      <trkpt lat="41.0463210" lon="-2.2491860">
        <ele>1275.6</ele>
        <time>2020-09-12T12:13:12Z</time>
      </trkpt>
      <trkpt lat="41.0463250" lon="-2.2491060">
        <ele>1275.4</ele>
        <time>2020-09-12T12:13:13Z</time>
      </trkpt>
      <trkpt lat="41.0463310" lon="-2.2490260">
        <ele>1275.4</ele>
        <time>2020-09-12T12:13:14Z</time>
      </trkpt>
      <trkpt lat="41.0463390" lon="-2.2489460">
        <ele>1275.6</ele>
        <time>2020-09-12T12:13:15Z</time>
      </trkpt>
      <trkpt lat="41.0463470" lon="-2.2488670">
        <ele>1275.8</ele>
        <time>2020-09-12T12:13:16Z</time>
      </trkpt>
      <trkpt lat="41.0463550" lon="-2.2487880">
        <ele>1275.8</ele>
        <time>2020-09-12T12:13:17Z</time>
      </trkpt>
      <trkpt lat="41.0463620" lon="-2.2487110">
        <ele>1275.8</ele>
        <time>2020-09-12T12:13:18Z</time>
      </trkpt>
      <trkpt lat="41.0463690" lon="-2.2486350">
        <ele>1275.8</ele>
        <time>2020-09-12T12:13:19Z</time>
      </trkpt>
      <trkpt lat="41.0463770" lon="-2.2485590">
        <ele>1275.8</ele>
        <time>2020-09-12T12:13:20Z</time>
      </trkpt>
      <trkpt lat="41.0463850" lon="-2.2484810">
        <ele>1275.6</ele>
        <time>2020-09-12T12:13:21Z</time>
      </trkpt>
      <trkpt lat="41.0463940" lon="-2.2484010">
        <ele>1275.4</ele>
        <time>2020-09-12T12:13:22Z</time>
      </trkpt>
      <trkpt lat="41.0464040" lon="-2.2483200">
        <ele>1275.2</ele>
        <time>2020-09-12T12:13:23Z</time>
      </trkpt>
      <trkpt lat="41.0464160" lon="-2.2482380">
        <ele>1275.0</ele>
        <time>2020-09-12T12:13:24Z</time>
      </trkpt>
      <trkpt lat="41.0464290" lon="-2.2481560">
        <ele>1274.8</ele>
        <time>2020-09-12T12:13:25Z</time>
      </trkpt>
      <trkpt lat="41.0464430" lon="-2.2480730">
        <ele>1274.6</ele>
        <time>2020-09-12T12:13:26Z</time>
      </trkpt>
      <trkpt lat="41.0464590" lon="-2.2479900">
        <ele>1274.6</ele>
        <time>2020-09-12T12:13:27Z</time>
      </trkpt>
      <trkpt lat="41.0464760" lon="-2.2479070">
        <ele>1274.4</ele>
        <time>2020-09-12T12:13:28Z</time>
      </trkpt>
      <trkpt lat="41.0464940" lon="-2.2478230">
        <ele>1274.4</ele>
        <time>2020-09-12T12:13:29Z</time>
      </trkpt>
      <trkpt lat="41.0465140" lon="-2.2477390">
        <ele>1274.4</ele>
        <time>2020-09-12T12:13:30Z</time>
      </trkpt>
      <trkpt lat="41.0465750" lon="-2.2474790">
        <ele>1273.8</ele>
        <time>2020-09-12T12:13:33Z</time>
      </trkpt>
      <trkpt lat="41.0466010" lon="-2.2473920">
        <ele>1273.8</ele>
        <time>2020-09-12T12:13:34Z</time>
      </trkpt>
      <trkpt lat="41.0466560" lon="-2.2472140">
        <ele>1273.4</ele>
        <time>2020-09-12T12:13:36Z</time>
      </trkpt>
      <trkpt lat="41.0467140" lon="-2.2470360">
        <ele>1273.0</ele>
        <time>2020-09-12T12:13:38Z</time>
      </trkpt>
      <trkpt lat="41.0468090" lon="-2.2467620">
        <ele>1272.6</ele>
        <time>2020-09-12T12:13:41Z</time>
      </trkpt>
      <trkpt lat="41.0468440" lon="-2.2466690">
        <ele>1272.2</ele>
        <time>2020-09-12T12:13:42Z</time>
      </trkpt>
      <trkpt lat="41.0468800" lon="-2.2465750">
        <ele>1272.0</ele>
        <time>2020-09-12T12:13:43Z</time>
      </trkpt>
      <trkpt lat="41.0469560" lon="-2.2463840">
        <ele>1271.2</ele>
        <time>2020-09-12T12:13:45Z</time>
      </trkpt>
      <trkpt lat="41.0471920" lon="-2.2457790">
        <ele>1270.4</ele>
        <time>2020-09-12T12:13:51Z</time>
      </trkpt>
      <trkpt lat="41.0472340" lon="-2.2456740">
        <ele>1270.0</ele>
        <time>2020-09-12T12:13:52Z</time>
      </trkpt>
      <trkpt lat="41.0474200" lon="-2.2451320">
        <ele>1269.2</ele>
        <time>2020-09-12T12:13:57Z</time>
      </trkpt>
      <trkpt lat="41.0474520" lon="-2.2450240">
        <ele>1269.2</ele>
        <time>2020-09-12T12:13:58Z</time>
      </trkpt>
      <trkpt lat="41.0474820" lon="-2.2449160">
        <ele>1269.2</ele>
        <time>2020-09-12T12:13:59Z</time>
      </trkpt>
      <trkpt lat="41.0475120" lon="-2.2448100">
        <ele>1269.2</ele>
        <time>2020-09-12T12:14:00Z</time>
      </trkpt>
      <trkpt lat="41.0475390" lon="-2.2447050">
        <ele>1269.0</ele>
        <time>2020-09-12T12:14:01Z</time>
      </trkpt>
      <trkpt lat="41.0475630" lon="-2.2446000">
        <ele>1269.0</ele>
        <time>2020-09-12T12:14:02Z</time>
      </trkpt>
      <trkpt lat="41.0475830" lon="-2.2444970">
        <ele>1268.8</ele>
        <time>2020-09-12T12:14:03Z</time>
      </trkpt>
      <trkpt lat="41.0476010" lon="-2.2443960">
        <ele>1268.6</ele>
        <time>2020-09-12T12:14:04Z</time>
      </trkpt>
      <trkpt lat="41.0476160" lon="-2.2442950">
        <ele>1268.4</ele>
        <time>2020-09-12T12:14:05Z</time>
      </trkpt>
      <trkpt lat="41.0476270" lon="-2.2441960">
        <ele>1268.2</ele>
        <time>2020-09-12T12:14:06Z</time>
      </trkpt>
      <trkpt lat="41.0476350" lon="-2.2440990">
        <ele>1267.8</ele>
        <time>2020-09-12T12:14:07Z</time>
      </trkpt>
      <trkpt lat="41.0476440" lon="-2.2440030">
        <ele>1267.4</ele>
        <time>2020-09-12T12:14:08Z</time>
      </trkpt>
      <trkpt lat="41.0476490" lon="-2.2439080">
        <ele>1267.2</ele>
        <time>2020-09-12T12:14:09Z</time>
      </trkpt>
      <trkpt lat="41.0476530" lon="-2.2438120">
        <ele>1267.0</ele>
        <time>2020-09-12T12:14:10Z</time>
      </trkpt>
      <trkpt lat="41.0476560" lon="-2.2437170">
        <ele>1267.0</ele>
        <time>2020-09-12T12:14:11Z</time>
      </trkpt>
      <trkpt lat="41.0476570" lon="-2.2436210">
        <ele>1267.0</ele>
        <time>2020-09-12T12:14:12Z</time>
      </trkpt>
      <trkpt lat="41.0476560" lon="-2.2435250">
        <ele>1267.0</ele>
        <time>2020-09-12T12:14:13Z</time>
      </trkpt>
      <trkpt lat="41.0476540" lon="-2.2434290">
        <ele>1267.0</ele>
        <time>2020-09-12T12:14:14Z</time>
      </trkpt>
      <trkpt lat="41.0476510" lon="-2.2433330">
        <ele>1267.2</ele>
        <time>2020-09-12T12:14:15Z</time>
      </trkpt>
      <trkpt lat="41.0476470" lon="-2.2432370">
        <ele>1267.4</ele>
        <time>2020-09-12T12:14:16Z</time>
      </trkpt>
      <trkpt lat="41.0476420" lon="-2.2431410">
        <ele>1267.4</ele>
        <time>2020-09-12T12:14:17Z</time>
      </trkpt>
      <trkpt lat="41.0476380" lon="-2.2430420">
        <ele>1267.6</ele>
        <time>2020-09-12T12:14:18Z</time>
      </trkpt>
      <trkpt lat="41.0476290" lon="-2.2429450">
        <ele>1267.8</ele>
        <time>2020-09-12T12:14:19Z</time>
      </trkpt>
      <trkpt lat="41.0476190" lon="-2.2428460">
        <ele>1268.0</ele>
        <time>2020-09-12T12:14:20Z</time>
      </trkpt>
      <trkpt lat="41.0476090" lon="-2.2427450">
        <ele>1268.4</ele>
        <time>2020-09-12T12:14:21Z</time>
      </trkpt>
      <trkpt lat="41.0475980" lon="-2.2426480">
        <ele>1268.8</ele>
        <time>2020-09-12T12:14:22Z</time>
      </trkpt>
      <trkpt lat="41.0475860" lon="-2.2425530">
        <ele>1269.2</ele>
        <time>2020-09-12T12:14:23Z</time>
      </trkpt>
      <trkpt lat="41.0475750" lon="-2.2424570">
        <ele>1269.4</ele>
        <time>2020-09-12T12:14:24Z</time>
      </trkpt>
      <trkpt lat="41.0475640" lon="-2.2423620">
        <ele>1269.6</ele>
        <time>2020-09-12T12:14:25Z</time>
      </trkpt>
      <trkpt lat="41.0475550" lon="-2.2422680">
        <ele>1269.6</ele>
        <time>2020-09-12T12:14:26Z</time>
      </trkpt>
      <trkpt lat="41.0475470" lon="-2.2421750">
        <ele>1269.8</ele>
        <time>2020-09-12T12:14:27Z</time>
      </trkpt>
      <trkpt lat="41.0475390" lon="-2.2420810">
        <ele>1269.8</ele>
        <time>2020-09-12T12:14:28Z</time>
      </trkpt>
      <trkpt lat="41.0475320" lon="-2.2419870">
        <ele>1269.8</ele>
        <time>2020-09-12T12:14:29Z</time>
      </trkpt>
      <trkpt lat="41.0475250" lon="-2.2418920">
        <ele>1270.0</ele>
        <time>2020-09-12T12:14:30Z</time>
      </trkpt>
      <trkpt lat="41.0475180" lon="-2.2417980">
        <ele>1270.2</ele>
        <time>2020-09-12T12:14:31Z</time>
      </trkpt>
      <trkpt lat="41.0475110" lon="-2.2417040">
        <ele>1270.4</ele>
        <time>2020-09-12T12:14:32Z</time>
      </trkpt>
      <trkpt lat="41.0475040" lon="-2.2416100">
        <ele>1270.6</ele>
        <time>2020-09-12T12:14:33Z</time>
      </trkpt>
      <trkpt lat="41.0474970" lon="-2.2415170">
        <ele>1270.6</ele>
        <time>2020-09-12T12:14:34Z</time>
      </trkpt>
      <trkpt lat="41.0474890" lon="-2.2414210">
        <ele>1270.8</ele>
        <time>2020-09-12T12:14:35Z</time>
      </trkpt>
      <trkpt lat="41.0474820" lon="-2.2413240">
        <ele>1270.8</ele>
        <time>2020-09-12T12:14:36Z</time>
      </trkpt>
      <trkpt lat="41.0474760" lon="-2.2412270">
        <ele>1270.6</ele>
        <time>2020-09-12T12:14:37Z</time>
      </trkpt>
      <trkpt lat="41.0474710" lon="-2.2411290">
        <ele>1270.4</ele>
        <time>2020-09-12T12:14:38Z</time>
      </trkpt>
      <trkpt lat="41.0474660" lon="-2.2410320">
        <ele>1270.4</ele>
        <time>2020-09-12T12:14:39Z</time>
      </trkpt>
      <trkpt lat="41.0474610" lon="-2.2409340">
        <ele>1270.2</ele>
        <time>2020-09-12T12:14:40Z</time>
      </trkpt>
      <trkpt lat="41.0474580" lon="-2.2408360">
        <ele>1270.2</ele>
        <time>2020-09-12T12:14:41Z</time>
      </trkpt>
      <trkpt lat="41.0474550" lon="-2.2407380">
        <ele>1270.2</ele>
        <time>2020-09-12T12:14:42Z</time>
      </trkpt>
      <trkpt lat="41.0474520" lon="-2.2406390">
        <ele>1270.2</ele>
        <time>2020-09-12T12:14:43Z</time>
      </trkpt>
      <trkpt lat="41.0474480" lon="-2.2405390">
        <ele>1270.2</ele>
        <time>2020-09-12T12:14:44Z</time>
      </trkpt>
      <trkpt lat="41.0474420" lon="-2.2404390">
        <ele>1270.2</ele>
        <time>2020-09-12T12:14:45Z</time>
      </trkpt>
      <trkpt lat="41.0474350" lon="-2.2403390">
        <ele>1270.2</ele>
        <time>2020-09-12T12:14:46Z</time>
      </trkpt>
      <trkpt lat="41.0474270" lon="-2.2402390">
        <ele>1270.0</ele>
        <time>2020-09-12T12:14:47Z</time>
      </trkpt>
      <trkpt lat="41.0474190" lon="-2.2401380">
        <ele>1270.2</ele>
        <time>2020-09-12T12:14:48Z</time>
      </trkpt>
      <trkpt lat="41.0474130" lon="-2.2400370">
        <ele>1270.2</ele>
        <time>2020-09-12T12:14:49Z</time>
      </trkpt>
      <trkpt lat="41.0474050" lon="-2.2399370">
        <ele>1270.2</ele>
        <time>2020-09-12T12:14:50Z</time>
      </trkpt>
      <trkpt lat="41.0473970" lon="-2.2398360">
        <ele>1270.4</ele>
        <time>2020-09-12T12:14:51Z</time>
      </trkpt>
      <trkpt lat="41.0473890" lon="-2.2397350">
        <ele>1270.4</ele>
        <time>2020-09-12T12:14:52Z</time>
      </trkpt>
      <trkpt lat="41.0473810" lon="-2.2396350">
        <ele>1270.4</ele>
        <time>2020-09-12T12:14:53Z</time>
      </trkpt>
      <trkpt lat="41.0473750" lon="-2.2395350">
        <ele>1270.6</ele>
        <time>2020-09-12T12:14:54Z</time>
      </trkpt>
      <trkpt lat="41.0473700" lon="-2.2394350">
        <ele>1270.6</ele>
        <time>2020-09-12T12:14:55Z</time>
      </trkpt>
      <trkpt lat="41.0473640" lon="-2.2393360">
        <ele>1270.8</ele>
        <time>2020-09-12T12:14:56Z</time>
      </trkpt>
      <trkpt lat="41.0473570" lon="-2.2392370">
        <ele>1270.8</ele>
        <time>2020-09-12T12:14:57Z</time>
      </trkpt>
      <trkpt lat="41.0473500" lon="-2.2391390">
        <ele>1270.6</ele>
        <time>2020-09-12T12:14:58Z</time>
      </trkpt>
      <trkpt lat="41.0473420" lon="-2.2390420">
        <ele>1270.6</ele>
        <time>2020-09-12T12:14:59Z</time>
      </trkpt>
      <trkpt lat="41.0473350" lon="-2.2389470">
        <ele>1270.6</ele>
        <time>2020-09-12T12:15:00Z</time>
      </trkpt>
      <trkpt lat="41.0473290" lon="-2.2388520">
        <ele>1270.6</ele>
        <time>2020-09-12T12:15:01Z</time>
      </trkpt>
      <trkpt lat="41.0473230" lon="-2.2387580">
        <ele>1270.8</ele>
        <time>2020-09-12T12:15:02Z</time>
      </trkpt>
      <trkpt lat="41.0473170" lon="-2.2386670">
        <ele>1271.0</ele>
        <time>2020-09-12T12:15:03Z</time>
      </trkpt>
      <trkpt lat="41.0473100" lon="-2.2385750">
        <ele>1271.2</ele>
        <time>2020-09-12T12:15:04Z</time>
      </trkpt>
      <trkpt lat="41.0473050" lon="-2.2384870">
        <ele>1271.4</ele>
        <time>2020-09-12T12:15:05Z</time>
      </trkpt>
      <trkpt lat="41.0473020" lon="-2.2383990">
        <ele>1271.6</ele>
        <time>2020-09-12T12:15:06Z</time>
      </trkpt>
      <trkpt lat="41.0472990" lon="-2.2383140">
        <ele>1271.8</ele>
        <time>2020-09-12T12:15:07Z</time>
      </trkpt>
      <trkpt lat="41.0472950" lon="-2.2382300">
        <ele>1272.0</ele>
        <time>2020-09-12T12:15:08Z</time>
      </trkpt>
      <trkpt lat="41.0472910" lon="-2.2381460">
        <ele>1272.0</ele>
        <time>2020-09-12T12:15:09Z</time>
      </trkpt>
      <trkpt lat="41.0472870" lon="-2.2380620">
        <ele>1272.2</ele>
        <time>2020-09-12T12:15:10Z</time>
      </trkpt>
      <trkpt lat="41.0472850" lon="-2.2379800">
        <ele>1272.2</ele>
        <time>2020-09-12T12:15:11Z</time>
      </trkpt>
      <trkpt lat="41.0472820" lon="-2.2378960">
        <ele>1272.2</ele>
        <time>2020-09-12T12:15:12Z</time>
      </trkpt>
      <trkpt lat="41.0472800" lon="-2.2378120">
        <ele>1272.2</ele>
        <time>2020-09-12T12:15:13Z</time>
      </trkpt>
      <trkpt lat="41.0472770" lon="-2.2377260">
        <ele>1272.0</ele>
        <time>2020-09-12T12:15:14Z</time>
      </trkpt>
      <trkpt lat="41.0472740" lon="-2.2376380">
        <ele>1271.8</ele>
        <time>2020-09-12T12:15:15Z</time>
      </trkpt>
      <trkpt lat="41.0472730" lon="-2.2375490">
        <ele>1271.8</ele>
        <time>2020-09-12T12:15:16Z</time>
      </trkpt>
      <trkpt lat="41.0472730" lon="-2.2374570">
        <ele>1271.6</ele>
        <time>2020-09-12T12:15:17Z</time>
      </trkpt>
      <trkpt lat="41.0472720" lon="-2.2373630">
        <ele>1271.8</ele>
        <time>2020-09-12T12:15:18Z</time>
      </trkpt>
      <trkpt lat="41.0472710" lon="-2.2372670">
        <ele>1272.0</ele>
        <time>2020-09-12T12:15:19Z</time>
      </trkpt>
      <trkpt lat="41.0472710" lon="-2.2371710">
        <ele>1272.2</ele>
        <time>2020-09-12T12:15:20Z</time>
      </trkpt>
      <trkpt lat="41.0472720" lon="-2.2370750">
        <ele>1272.4</ele>
        <time>2020-09-12T12:15:21Z</time>
      </trkpt>
      <trkpt lat="41.0472730" lon="-2.2369790">
        <ele>1272.6</ele>
        <time>2020-09-12T12:15:22Z</time>
      </trkpt>
      <trkpt lat="41.0472740" lon="-2.2368830">
        <ele>1272.8</ele>
        <time>2020-09-12T12:15:23Z</time>
      </trkpt>
      <trkpt lat="41.0472750" lon="-2.2367870">
        <ele>1272.8</ele>
        <time>2020-09-12T12:15:24Z</time>
      </trkpt>
      <trkpt lat="41.0472780" lon="-2.2366910">
        <ele>1272.8</ele>
        <time>2020-09-12T12:15:25Z</time>
      </trkpt>
      <trkpt lat="41.0472810" lon="-2.2365940">
        <ele>1272.8</ele>
        <time>2020-09-12T12:15:26Z</time>
      </trkpt>
      <trkpt lat="41.0472840" lon="-2.2364950">
        <ele>1272.8</ele>
        <time>2020-09-12T12:15:27Z</time>
      </trkpt>
      <trkpt lat="41.0472880" lon="-2.2363980">
        <ele>1272.8</ele>
        <time>2020-09-12T12:15:28Z</time>
      </trkpt>
      <trkpt lat="41.0472910" lon="-2.2363010">
        <ele>1272.8</ele>
        <time>2020-09-12T12:15:29Z</time>
      </trkpt>
      <trkpt lat="41.0472950" lon="-2.2362030">
        <ele>1272.8</ele>
        <time>2020-09-12T12:15:30Z</time>
      </trkpt>
      <trkpt lat="41.0472980" lon="-2.2361030">
        <ele>1272.8</ele>
        <time>2020-09-12T12:15:31Z</time>
      </trkpt>
      <trkpt lat="41.0473030" lon="-2.2360030">
        <ele>1272.8</ele>
        <time>2020-09-12T12:15:32Z</time>
      </trkpt>
      <trkpt lat="41.0473070" lon="-2.2359020">
        <ele>1272.8</ele>
        <time>2020-09-12T12:15:33Z</time>
      </trkpt>
      <trkpt lat="41.0473130" lon="-2.2357980">
        <ele>1272.8</ele>
        <time>2020-09-12T12:15:34Z</time>
      </trkpt>
      <trkpt lat="41.0473180" lon="-2.2356940">
        <ele>1272.6</ele>
        <time>2020-09-12T12:15:35Z</time>
      </trkpt>
      <trkpt lat="41.0473210" lon="-2.2355880">
        <ele>1272.6</ele>
        <time>2020-09-12T12:15:36Z</time>
      </trkpt>
      <trkpt lat="41.0473260" lon="-2.2354810">
        <ele>1272.6</ele>
        <time>2020-09-12T12:15:37Z</time>
      </trkpt>
      <trkpt lat="41.0473300" lon="-2.2353730">
        <ele>1272.6</ele>
        <time>2020-09-12T12:15:38Z</time>
      </trkpt>
      <trkpt lat="41.0473320" lon="-2.2352650">
        <ele>1272.4</ele>
        <time>2020-09-12T12:15:39Z</time>
      </trkpt>
      <trkpt lat="41.0473360" lon="-2.2351560">
        <ele>1272.4</ele>
        <time>2020-09-12T12:15:40Z</time>
      </trkpt>
      <trkpt lat="41.0473390" lon="-2.2350460">
        <ele>1272.2</ele>
        <time>2020-09-12T12:15:41Z</time>
      </trkpt>
      <trkpt lat="41.0473410" lon="-2.2349350">
        <ele>1272.0</ele>
        <time>2020-09-12T12:15:42Z</time>
      </trkpt>
      <trkpt lat="41.0473450" lon="-2.2348210">
        <ele>1271.8</ele>
        <time>2020-09-12T12:15:43Z</time>
      </trkpt>
      <trkpt lat="41.0473510" lon="-2.2347070">
        <ele>1271.6</ele>
        <time>2020-09-12T12:15:44Z</time>
      </trkpt>
      <trkpt lat="41.0473560" lon="-2.2345920">
        <ele>1271.4</ele>
        <time>2020-09-12T12:15:45Z</time>
      </trkpt>
      <trkpt lat="41.0473570" lon="-2.2344750">
        <ele>1271.2</ele>
        <time>2020-09-12T12:15:46Z</time>
      </trkpt>
      <trkpt lat="41.0473650" lon="-2.2342360">
        <ele>1270.8</ele>
        <time>2020-09-12T12:15:48Z</time>
      </trkpt>
      <trkpt lat="41.0473730" lon="-2.2339940">
        <ele>1270.6</ele>
        <time>2020-09-12T12:15:50Z</time>
      </trkpt>
      <trkpt lat="41.0473920" lon="-2.2334980">
        <ele>1270.6</ele>
        <time>2020-09-12T12:15:54Z</time>
      </trkpt>
      <trkpt lat="41.0473960" lon="-2.2333740">
        <ele>1270.2</ele>
        <time>2020-09-12T12:15:55Z</time>
      </trkpt>
      <trkpt lat="41.0474040" lon="-2.2331250">
        <ele>1269.6</ele>
        <time>2020-09-12T12:15:57Z</time>
      </trkpt>
      <trkpt lat="41.0474080" lon="-2.2330000">
        <ele>1269.2</ele>
        <time>2020-09-12T12:15:58Z</time>
      </trkpt>
      <trkpt lat="41.0474160" lon="-2.2327510">
        <ele>1268.2</ele>
        <time>2020-09-12T12:16:00Z</time>
      </trkpt>
      <trkpt lat="41.0474190" lon="-2.2326260">
        <ele>1268.0</ele>
        <time>2020-09-12T12:16:01Z</time>
      </trkpt>
      <trkpt lat="41.0474230" lon="-2.2325020">
        <ele>1267.8</ele>
        <time>2020-09-12T12:16:02Z</time>
      </trkpt>
      <trkpt lat="41.0474280" lon="-2.2323790">
        <ele>1267.8</ele>
        <time>2020-09-12T12:16:03Z</time>
      </trkpt>
      <trkpt lat="41.0474320" lon="-2.2322570">
        <ele>1267.6</ele>
        <time>2020-09-12T12:16:04Z</time>
      </trkpt>
      <trkpt lat="41.0474360" lon="-2.2321370">
        <ele>1267.6</ele>
        <time>2020-09-12T12:16:05Z</time>
      </trkpt>
      <trkpt lat="41.0474380" lon="-2.2320180">
        <ele>1267.6</ele>
        <time>2020-09-12T12:16:06Z</time>
      </trkpt>
      <trkpt lat="41.0474410" lon="-2.2318990">
        <ele>1267.4</ele>
        <time>2020-09-12T12:16:07Z</time>
      </trkpt>
      <trkpt lat="41.0474460" lon="-2.2317820">
        <ele>1267.4</ele>
        <time>2020-09-12T12:16:08Z</time>
      </trkpt>
      <trkpt lat="41.0474520" lon="-2.2316670">
        <ele>1267.4</ele>
        <time>2020-09-12T12:16:09Z</time>
      </trkpt>
      <trkpt lat="41.0474590" lon="-2.2315510">
        <ele>1267.4</ele>
        <time>2020-09-12T12:16:10Z</time>
      </trkpt>
      <trkpt lat="41.0474650" lon="-2.2314360">
        <ele>1267.4</ele>
        <time>2020-09-12T12:16:11Z</time>
      </trkpt>
      <trkpt lat="41.0474730" lon="-2.2313210">
        <ele>1267.4</ele>
        <time>2020-09-12T12:16:12Z</time>
      </trkpt>
      <trkpt lat="41.0474810" lon="-2.2312060">
        <ele>1267.4</ele>
        <time>2020-09-12T12:16:13Z</time>
      </trkpt>
      <trkpt lat="41.0474920" lon="-2.2310890">
        <ele>1267.6</ele>
        <time>2020-09-12T12:16:14Z</time>
      </trkpt>
      <trkpt lat="41.0475050" lon="-2.2309730">
        <ele>1267.8</ele>
        <time>2020-09-12T12:16:15Z</time>
      </trkpt>
      <trkpt lat="41.0475190" lon="-2.2308560">
        <ele>1267.6</ele>
        <time>2020-09-12T12:16:16Z</time>
      </trkpt>
      <trkpt lat="41.0475350" lon="-2.2307370">
        <ele>1267.6</ele>
        <time>2020-09-12T12:16:17Z</time>
      </trkpt>
      <trkpt lat="41.0475520" lon="-2.2306190">
        <ele>1267.4</ele>
        <time>2020-09-12T12:16:18Z</time>
      </trkpt>
      <trkpt lat="41.0475710" lon="-2.2305020">
        <ele>1267.4</ele>
        <time>2020-09-12T12:16:19Z</time>
      </trkpt>
      <trkpt lat="41.0475920" lon="-2.2303840">
        <ele>1267.2</ele>
        <time>2020-09-12T12:16:20Z</time>
      </trkpt>
      <trkpt lat="41.0476140" lon="-2.2302660">
        <ele>1267.0</ele>
        <time>2020-09-12T12:16:21Z</time>
      </trkpt>
      <trkpt lat="41.0476360" lon="-2.2301490">
        <ele>1267.0</ele>
        <time>2020-09-12T12:16:22Z</time>
      </trkpt>
      <trkpt lat="41.0476600" lon="-2.2300320">
        <ele>1266.8</ele>
        <time>2020-09-12T12:16:23Z</time>
      </trkpt>
      <trkpt lat="41.0476850" lon="-2.2299150">
        <ele>1266.6</ele>
        <time>2020-09-12T12:16:24Z</time>
      </trkpt>
      <trkpt lat="41.0477110" lon="-2.2297960">
        <ele>1266.4</ele>
        <time>2020-09-12T12:16:25Z</time>
      </trkpt>
      <trkpt lat="41.0477360" lon="-2.2296770">
        <ele>1266.2</ele>
        <time>2020-09-12T12:16:26Z</time>
      </trkpt>
      <trkpt lat="41.0477620" lon="-2.2295550">
        <ele>1266.2</ele>
        <time>2020-09-12T12:16:27Z</time>
      </trkpt>
      <trkpt lat="41.0477870" lon="-2.2294310">
        <ele>1265.8</ele>
        <time>2020-09-12T12:16:28Z</time>
      </trkpt>
      <trkpt lat="41.0478120" lon="-2.2293060">
        <ele>1265.6</ele>
        <time>2020-09-12T12:16:29Z</time>
      </trkpt>
      <trkpt lat="41.0478370" lon="-2.2291790">
        <ele>1265.2</ele>
        <time>2020-09-12T12:16:30Z</time>
      </trkpt>
      <trkpt lat="41.0478610" lon="-2.2290480">
        <ele>1264.8</ele>
        <time>2020-09-12T12:16:31Z</time>
      </trkpt>
      <trkpt lat="41.0478810" lon="-2.2289160">
        <ele>1264.4</ele>
        <time>2020-09-12T12:16:32Z</time>
      </trkpt>
      <trkpt lat="41.0479000" lon="-2.2287820">
        <ele>1264.0</ele>
        <time>2020-09-12T12:16:33Z</time>
      </trkpt>
      <trkpt lat="41.0479160" lon="-2.2286440">
        <ele>1263.6</ele>
        <time>2020-09-12T12:16:34Z</time>
      </trkpt>
      <trkpt lat="41.0479270" lon="-2.2285020">
        <ele>1263.4</ele>
        <time>2020-09-12T12:16:35Z</time>
      </trkpt>
      <trkpt lat="41.0479330" lon="-2.2283580">
        <ele>1263.0</ele>
        <time>2020-09-12T12:16:36Z</time>
      </trkpt>
      <trkpt lat="41.0479340" lon="-2.2282150">
        <ele>1262.8</ele>
        <time>2020-09-12T12:16:37Z</time>
      </trkpt>
      <trkpt lat="41.0479300" lon="-2.2280710">
        <ele>1262.6</ele>
        <time>2020-09-12T12:16:38Z</time>
      </trkpt>
      <trkpt lat="41.0479200" lon="-2.2279260">
        <ele>1262.2</ele>
        <time>2020-09-12T12:16:39Z</time>
      </trkpt>
      <trkpt lat="41.0479040" lon="-2.2277820">
        <ele>1261.8</ele>
        <time>2020-09-12T12:16:40Z</time>
      </trkpt>
      <trkpt lat="41.0478820" lon="-2.2276410">
        <ele>1261.4</ele>
        <time>2020-09-12T12:16:41Z</time>
      </trkpt>
      <trkpt lat="41.0478560" lon="-2.2275020">
        <ele>1261.0</ele>
        <time>2020-09-12T12:16:42Z</time>
      </trkpt>
      <trkpt lat="41.0478260" lon="-2.2273650">
        <ele>1260.8</ele>
        <time>2020-09-12T12:16:43Z</time>
      </trkpt>
      <trkpt lat="41.0477930" lon="-2.2272330">
        <ele>1260.6</ele>
        <time>2020-09-12T12:16:44Z</time>
      </trkpt>
      <trkpt lat="41.0477570" lon="-2.2271050">
        <ele>1260.4</ele>
        <time>2020-09-12T12:16:45Z</time>
      </trkpt>
      <trkpt lat="41.0477200" lon="-2.2269810">
        <ele>1260.4</ele>
        <time>2020-09-12T12:16:46Z</time>
      </trkpt>
      <trkpt lat="41.0476830" lon="-2.2268620">
        <ele>1260.2</ele>
        <time>2020-09-12T12:16:47Z</time>
      </trkpt>
      <trkpt lat="41.0476450" lon="-2.2267470">
        <ele>1260.0</ele>
        <time>2020-09-12T12:16:48Z</time>
      </trkpt>
      <trkpt lat="41.0476070" lon="-2.2266330">
        <ele>1259.6</ele>
        <time>2020-09-12T12:16:49Z</time>
      </trkpt>
      <trkpt lat="41.0475680" lon="-2.2265210">
        <ele>1259.2</ele>
        <time>2020-09-12T12:16:50Z</time>
      </trkpt>
      <trkpt lat="41.0475290" lon="-2.2264100">
        <ele>1259.2</ele>
        <time>2020-09-12T12:16:51Z</time>
      </trkpt>
      <trkpt lat="41.0474920" lon="-2.2262990">
        <ele>1259.0</ele>
        <time>2020-09-12T12:16:52Z</time>
      </trkpt>
      <trkpt lat="41.0474560" lon="-2.2261870">
        <ele>1259.0</ele>
        <time>2020-09-12T12:16:53Z</time>
      </trkpt>
      <trkpt lat="41.0474210" lon="-2.2260770">
        <ele>1258.8</ele>
        <time>2020-09-12T12:16:54Z</time>
      </trkpt>
      <trkpt lat="41.0473880" lon="-2.2259650">
        <ele>1258.8</ele>
        <time>2020-09-12T12:16:55Z</time>
      </trkpt>
      <trkpt lat="41.0473580" lon="-2.2258550">
        <ele>1258.8</ele>
        <time>2020-09-12T12:16:56Z</time>
      </trkpt>
      <trkpt lat="41.0473330" lon="-2.2257420">
        <ele>1258.8</ele>
        <time>2020-09-12T12:16:57Z</time>
      </trkpt>
      <trkpt lat="41.0473130" lon="-2.2256280">
        <ele>1258.6</ele>
        <time>2020-09-12T12:16:58Z</time>
      </trkpt>
      <trkpt lat="41.0472950" lon="-2.2255140">
        <ele>1258.6</ele>
        <time>2020-09-12T12:16:59Z</time>
      </trkpt>
      <trkpt lat="41.0472800" lon="-2.2254010">
        <ele>1258.4</ele>
        <time>2020-09-12T12:17:00Z</time>
      </trkpt>
      <trkpt lat="41.0472680" lon="-2.2252880">
        <ele>1258.4</ele>
        <time>2020-09-12T12:17:01Z</time>
      </trkpt>
      <trkpt lat="41.0472610" lon="-2.2251750">
        <ele>1258.4</ele>
        <time>2020-09-12T12:17:02Z</time>
      </trkpt>
      <trkpt lat="41.0472580" lon="-2.2250630">
        <ele>1258.4</ele>
        <time>2020-09-12T12:17:03Z</time>
      </trkpt>
      <trkpt lat="41.0472580" lon="-2.2249510">
        <ele>1258.4</ele>
        <time>2020-09-12T12:17:04Z</time>
      </trkpt>
      <trkpt lat="41.0472570" lon="-2.2248380">
        <ele>1258.2</ele>
        <time>2020-09-12T12:17:05Z</time>
      </trkpt>
      <trkpt lat="41.0472560" lon="-2.2247250">
        <ele>1258.2</ele>
        <time>2020-09-12T12:17:06Z</time>
      </trkpt>
      <trkpt lat="41.0472540" lon="-2.2246130">
        <ele>1258.4</ele>
        <time>2020-09-12T12:17:07Z</time>
      </trkpt>
      <trkpt lat="41.0472530" lon="-2.2245010">
        <ele>1258.2</ele>
        <time>2020-09-12T12:17:08Z</time>
      </trkpt>
      <trkpt lat="41.0472550" lon="-2.2243890">
        <ele>1258.2</ele>
        <time>2020-09-12T12:17:09Z</time>
      </trkpt>
      <trkpt lat="41.0472580" lon="-2.2242780">
        <ele>1258.2</ele>
        <time>2020-09-12T12:17:10Z</time>
      </trkpt>
      <trkpt lat="41.0472610" lon="-2.2241680">
        <ele>1258.0</ele>
        <time>2020-09-12T12:17:11Z</time>
      </trkpt>
      <trkpt lat="41.0472620" lon="-2.2240580">
        <ele>1258.0</ele>
        <time>2020-09-12T12:17:12Z</time>
      </trkpt>
      <trkpt lat="41.0472640" lon="-2.2239490">
        <ele>1257.8</ele>
        <time>2020-09-12T12:17:13Z</time>
      </trkpt>
      <trkpt lat="41.0472650" lon="-2.2238410">
        <ele>1257.8</ele>
        <time>2020-09-12T12:17:14Z</time>
      </trkpt>
      <trkpt lat="41.0472660" lon="-2.2237330">
        <ele>1257.8</ele>
        <time>2020-09-12T12:17:15Z</time>
      </trkpt>
      <trkpt lat="41.0472670" lon="-2.2236240">
        <ele>1257.8</ele>
        <time>2020-09-12T12:17:16Z</time>
      </trkpt>
      <trkpt lat="41.0472680" lon="-2.2235160">
        <ele>1257.8</ele>
        <time>2020-09-12T12:17:17Z</time>
      </trkpt>
      <trkpt lat="41.0472700" lon="-2.2234070">
        <ele>1258.0</ele>
        <time>2020-09-12T12:17:18Z</time>
      </trkpt>
      <trkpt lat="41.0472710" lon="-2.2232980">
        <ele>1258.2</ele>
        <time>2020-09-12T12:17:19Z</time>
      </trkpt>
      <trkpt lat="41.0472710" lon="-2.2231880">
        <ele>1258.2</ele>
        <time>2020-09-12T12:17:20Z</time>
      </trkpt>
      <trkpt lat="41.0472740" lon="-2.2230780">
        <ele>1258.2</ele>
        <time>2020-09-12T12:17:21Z</time>
      </trkpt>
      <trkpt lat="41.0472770" lon="-2.2229670">
        <ele>1258.0</ele>
        <time>2020-09-12T12:17:22Z</time>
      </trkpt>
      <trkpt lat="41.0472790" lon="-2.2228540">
        <ele>1258.0</ele>
        <time>2020-09-12T12:17:23Z</time>
      </trkpt>
      <trkpt lat="41.0472810" lon="-2.2227410">
        <ele>1258.0</ele>
        <time>2020-09-12T12:17:24Z</time>
      </trkpt>
      <trkpt lat="41.0472830" lon="-2.2226260">
        <ele>1258.0</ele>
        <time>2020-09-12T12:17:25Z</time>
      </trkpt>
      <trkpt lat="41.0472840" lon="-2.2225130">
        <ele>1257.8</ele>
        <time>2020-09-12T12:17:26Z</time>
      </trkpt>
      <trkpt lat="41.0472840" lon="-2.2224000">
        <ele>1257.4</ele>
        <time>2020-09-12T12:17:27Z</time>
      </trkpt>
      <trkpt lat="41.0472840" lon="-2.2222870">
        <ele>1257.2</ele>
        <time>2020-09-12T12:17:28Z</time>
      </trkpt>
      <trkpt lat="41.0472850" lon="-2.2221730">
        <ele>1257.0</ele>
        <time>2020-09-12T12:17:29Z</time>
      </trkpt>
      <trkpt lat="41.0472870" lon="-2.2220590">
        <ele>1256.8</ele>
        <time>2020-09-12T12:17:30Z</time>
      </trkpt>
      <trkpt lat="41.0472880" lon="-2.2219460">
        <ele>1256.6</ele>
        <time>2020-09-12T12:17:31Z</time>
      </trkpt>
      <trkpt lat="41.0472890" lon="-2.2218310">
        <ele>1256.6</ele>
        <time>2020-09-12T12:17:32Z</time>
      </trkpt>
      <trkpt lat="41.0472890" lon="-2.2217180">
        <ele>1256.4</ele>
        <time>2020-09-12T12:17:33Z</time>
      </trkpt>
      <trkpt lat="41.0472910" lon="-2.2216050">
        <ele>1256.4</ele>
        <time>2020-09-12T12:17:34Z</time>
      </trkpt>
      <trkpt lat="41.0472920" lon="-2.2214930">
        <ele>1256.4</ele>
        <time>2020-09-12T12:17:35Z</time>
      </trkpt>
      <trkpt lat="41.0472940" lon="-2.2213810">
        <ele>1256.4</ele>
        <time>2020-09-12T12:17:36Z</time>
      </trkpt>
      <trkpt lat="41.0472950" lon="-2.2212680">
        <ele>1256.2</ele>
        <time>2020-09-12T12:17:37Z</time>
      </trkpt>
      <trkpt lat="41.0472940" lon="-2.2211560">
        <ele>1256.2</ele>
        <time>2020-09-12T12:17:38Z</time>
      </trkpt>
      <trkpt lat="41.0472940" lon="-2.2210440">
        <ele>1256.0</ele>
        <time>2020-09-12T12:17:39Z</time>
      </trkpt>
      <trkpt lat="41.0473000" lon="-2.2206980">
        <ele>1255.6</ele>
        <time>2020-09-12T12:17:42Z</time>
      </trkpt>
      <trkpt lat="41.0473020" lon="-2.2205820">
        <ele>1255.4</ele>
        <time>2020-09-12T12:17:43Z</time>
      </trkpt>
      <trkpt lat="41.0473040" lon="-2.2204640">
        <ele>1255.2</ele>
        <time>2020-09-12T12:17:44Z</time>
      </trkpt>
      <trkpt lat="41.0473060" lon="-2.2203470">
        <ele>1255.0</ele>
        <time>2020-09-12T12:17:45Z</time>
      </trkpt>
      <trkpt lat="41.0473080" lon="-2.2202280">
        <ele>1254.8</ele>
        <time>2020-09-12T12:17:46Z</time>
      </trkpt>
      <trkpt lat="41.0473090" lon="-2.2201090">
        <ele>1254.6</ele>
        <time>2020-09-12T12:17:47Z</time>
      </trkpt>
      <trkpt lat="41.0473110" lon="-2.2199900">
        <ele>1254.2</ele>
        <time>2020-09-12T12:17:48Z</time>
      </trkpt>
      <trkpt lat="41.0473120" lon="-2.2198710">
        <ele>1254.2</ele>
        <time>2020-09-12T12:17:49Z</time>
      </trkpt>
      <trkpt lat="41.0473130" lon="-2.2197500">
        <ele>1254.0</ele>
        <time>2020-09-12T12:17:50Z</time>
      </trkpt>
      <trkpt lat="41.0473140" lon="-2.2196300">
        <ele>1253.8</ele>
        <time>2020-09-12T12:17:51Z</time>
      </trkpt>
      <trkpt lat="41.0473160" lon="-2.2195090">
        <ele>1253.8</ele>
        <time>2020-09-12T12:17:52Z</time>
      </trkpt>
      <trkpt lat="41.0473170" lon="-2.2193890">
        <ele>1253.8</ele>
        <time>2020-09-12T12:17:53Z</time>
      </trkpt>
      <trkpt lat="41.0473190" lon="-2.2192690">
        <ele>1253.8</ele>
        <time>2020-09-12T12:17:54Z</time>
      </trkpt>
      <trkpt lat="41.0473200" lon="-2.2191480">
        <ele>1253.8</ele>
        <time>2020-09-12T12:17:55Z</time>
      </trkpt>
      <trkpt lat="41.0473220" lon="-2.2190280">
        <ele>1253.8</ele>
        <time>2020-09-12T12:17:56Z</time>
      </trkpt>
      <trkpt lat="41.0473220" lon="-2.2189100">
        <ele>1253.6</ele>
        <time>2020-09-12T12:17:57Z</time>
      </trkpt>
      <trkpt lat="41.0473220" lon="-2.2187910">
        <ele>1253.6</ele>
        <time>2020-09-12T12:17:58Z</time>
      </trkpt>
      <trkpt lat="41.0473230" lon="-2.2186730">
        <ele>1253.4</ele>
        <time>2020-09-12T12:17:59Z</time>
      </trkpt>
      <trkpt lat="41.0473240" lon="-2.2185550">
        <ele>1253.4</ele>
        <time>2020-09-12T12:18:00Z</time>
      </trkpt>
      <trkpt lat="41.0473250" lon="-2.2184380">
        <ele>1253.4</ele>
        <time>2020-09-12T12:18:01Z</time>
      </trkpt>
      <trkpt lat="41.0473250" lon="-2.2183210">
        <ele>1253.4</ele>
        <time>2020-09-12T12:18:02Z</time>
      </trkpt>
      <trkpt lat="41.0473260" lon="-2.2182050">
        <ele>1253.4</ele>
        <time>2020-09-12T12:18:03Z</time>
      </trkpt>
      <trkpt lat="41.0473260" lon="-2.2180910">
        <ele>1253.4</ele>
        <time>2020-09-12T12:18:04Z</time>
      </trkpt>
      <trkpt lat="41.0473260" lon="-2.2179780">
        <ele>1253.2</ele>
        <time>2020-09-12T12:18:05Z</time>
      </trkpt>
      <trkpt lat="41.0473260" lon="-2.2178650">
        <ele>1253.2</ele>
        <time>2020-09-12T12:18:06Z</time>
      </trkpt>
      <trkpt lat="41.0473260" lon="-2.2177540">
        <ele>1253.0</ele>
        <time>2020-09-12T12:18:07Z</time>
      </trkpt>
      <trkpt lat="41.0473280" lon="-2.2176440">
        <ele>1252.8</ele>
        <time>2020-09-12T12:18:08Z</time>
      </trkpt>
      <trkpt lat="41.0473280" lon="-2.2175330">
        <ele>1252.8</ele>
        <time>2020-09-12T12:18:09Z</time>
      </trkpt>
      <trkpt lat="41.0473310" lon="-2.2174230">
        <ele>1252.8</ele>
        <time>2020-09-12T12:18:10Z</time>
      </trkpt>
      <trkpt lat="41.0473340" lon="-2.2173130">
        <ele>1252.8</ele>
        <time>2020-09-12T12:18:11Z</time>
      </trkpt>
      <trkpt lat="41.0473360" lon="-2.2172030">
        <ele>1253.2</ele>
        <time>2020-09-12T12:18:12Z</time>
      </trkpt>
      <trkpt lat="41.0473370" lon="-2.2170950">
        <ele>1253.6</ele>
        <time>2020-09-12T12:18:13Z</time>
      </trkpt>
      <trkpt lat="41.0473390" lon="-2.2169850">
        <ele>1253.6</ele>
        <time>2020-09-12T12:18:14Z</time>
      </trkpt>
      <trkpt lat="41.0473390" lon="-2.2168760">
        <ele>1253.8</ele>
        <time>2020-09-12T12:18:15Z</time>
      </trkpt>
      <trkpt lat="41.0473400" lon="-2.2167650">
        <ele>1253.8</ele>
        <time>2020-09-12T12:18:16Z</time>
      </trkpt>
      <trkpt lat="41.0473420" lon="-2.2166540">
        <ele>1253.8</ele>
        <time>2020-09-12T12:18:17Z</time>
      </trkpt>
      <trkpt lat="41.0473430" lon="-2.2165400">
        <ele>1253.6</ele>
        <time>2020-09-12T12:18:18Z</time>
      </trkpt>
      <trkpt lat="41.0473450" lon="-2.2164260">
        <ele>1253.4</ele>
        <time>2020-09-12T12:18:19Z</time>
      </trkpt>
      <trkpt lat="41.0473460" lon="-2.2163100">
        <ele>1253.4</ele>
        <time>2020-09-12T12:18:20Z</time>
      </trkpt>
      <trkpt lat="41.0473470" lon="-2.2161920">
        <ele>1253.6</ele>
        <time>2020-09-12T12:18:21Z</time>
      </trkpt>
      <trkpt lat="41.0473480" lon="-2.2160730">
        <ele>1253.8</ele>
        <time>2020-09-12T12:18:22Z</time>
      </trkpt>
      <trkpt lat="41.0473490" lon="-2.2159530">
        <ele>1253.4</ele>
        <time>2020-09-12T12:18:23Z</time>
      </trkpt>
      <trkpt lat="41.0473500" lon="-2.2158310">
        <ele>1253.0</ele>
        <time>2020-09-12T12:18:24Z</time>
      </trkpt>
      <trkpt lat="41.0473510" lon="-2.2157060">
        <ele>1253.0</ele>
        <time>2020-09-12T12:18:25Z</time>
      </trkpt>
      <trkpt lat="41.0473510" lon="-2.2155810">
        <ele>1253.0</ele>
        <time>2020-09-12T12:18:26Z</time>
      </trkpt>
      <trkpt lat="41.0473520" lon="-2.2154560">
        <ele>1252.6</ele>
        <time>2020-09-12T12:18:27Z</time>
      </trkpt>
      <trkpt lat="41.0473530" lon="-2.2153310">
        <ele>1252.0</ele>
        <time>2020-09-12T12:18:28Z</time>
      </trkpt>
      <trkpt lat="41.0473540" lon="-2.2152080">
        <ele>1251.6</ele>
        <time>2020-09-12T12:18:29Z</time>
      </trkpt>
      <trkpt lat="41.0473550" lon="-2.2150860">
        <ele>1251.0</ele>
        <time>2020-09-12T12:18:30Z</time>
      </trkpt>
      <trkpt lat="41.0473570" lon="-2.2149650">
        <ele>1250.8</ele>
        <time>2020-09-12T12:18:31Z</time>
      </trkpt>
      <trkpt lat="41.0473570" lon="-2.2148440">
        <ele>1250.6</ele>
        <time>2020-09-12T12:18:32Z</time>
      </trkpt>
      <trkpt lat="41.0473590" lon="-2.2147240">
        <ele>1250.4</ele>
        <time>2020-09-12T12:18:33Z</time>
      </trkpt>
      <trkpt lat="41.0473600" lon="-2.2146050">
        <ele>1250.2</ele>
        <time>2020-09-12T12:18:34Z</time>
      </trkpt>
      <trkpt lat="41.0473620" lon="-2.2144870">
        <ele>1250.0</ele>
        <time>2020-09-12T12:18:35Z</time>
      </trkpt>
      <trkpt lat="41.0473630" lon="-2.2143710">
        <ele>1249.8</ele>
        <time>2020-09-12T12:18:36Z</time>
      </trkpt>
      <trkpt lat="41.0473640" lon="-2.2142560">
        <ele>1249.6</ele>
        <time>2020-09-12T12:18:37Z</time>
      </trkpt>
      <trkpt lat="41.0473660" lon="-2.2141410">
        <ele>1249.6</ele>
        <time>2020-09-12T12:18:38Z</time>
      </trkpt>
      <trkpt lat="41.0473680" lon="-2.2140280">
        <ele>1249.6</ele>
        <time>2020-09-12T12:18:39Z</time>
      </trkpt>
      <trkpt lat="41.0473690" lon="-2.2139170">
        <ele>1249.4</ele>
        <time>2020-09-12T12:18:40Z</time>
      </trkpt>
      <trkpt lat="41.0473700" lon="-2.2138060">
        <ele>1249.4</ele>
        <time>2020-09-12T12:18:41Z</time>
      </trkpt>
      <trkpt lat="41.0473700" lon="-2.2136960">
        <ele>1249.2</ele>
        <time>2020-09-12T12:18:42Z</time>
      </trkpt>
      <trkpt lat="41.0473710" lon="-2.2135870">
        <ele>1249.2</ele>
        <time>2020-09-12T12:18:43Z</time>
      </trkpt>
      <trkpt lat="41.0473730" lon="-2.2134800">
        <ele>1249.0</ele>
        <time>2020-09-12T12:18:44Z</time>
      </trkpt>
      <trkpt lat="41.0473740" lon="-2.2133730">
        <ele>1248.8</ele>
        <time>2020-09-12T12:18:45Z</time>
      </trkpt>
      <trkpt lat="41.0473750" lon="-2.2132680">
        <ele>1248.6</ele>
        <time>2020-09-12T12:18:46Z</time>
      </trkpt>
      <trkpt lat="41.0473770" lon="-2.2131620">
        <ele>1248.6</ele>
        <time>2020-09-12T12:18:47Z</time>
      </trkpt>
      <trkpt lat="41.0473780" lon="-2.2130570">
        <ele>1248.8</ele>
        <time>2020-09-12T12:18:48Z</time>
      </trkpt>
      <trkpt lat="41.0473800" lon="-2.2129530">
        <ele>1248.8</ele>
        <time>2020-09-12T12:18:49Z</time>
      </trkpt>
      <trkpt lat="41.0473820" lon="-2.2128500">
        <ele>1249.0</ele>
        <time>2020-09-12T12:18:50Z</time>
      </trkpt>
      <trkpt lat="41.0473820" lon="-2.2127480">
        <ele>1249.2</ele>
        <time>2020-09-12T12:18:51Z</time>
      </trkpt>
      <trkpt lat="41.0473830" lon="-2.2126450">
        <ele>1249.4</ele>
        <time>2020-09-12T12:18:52Z</time>
      </trkpt>
      <trkpt lat="41.0473830" lon="-2.2125430">
        <ele>1249.4</ele>
        <time>2020-09-12T12:18:53Z</time>
      </trkpt>
      <trkpt lat="41.0473840" lon="-2.2124420">
        <ele>1249.2</ele>
        <time>2020-09-12T12:18:54Z</time>
      </trkpt>
      <trkpt lat="41.0473860" lon="-2.2123410">
        <ele>1249.2</ele>
        <time>2020-09-12T12:18:55Z</time>
      </trkpt>
      <trkpt lat="41.0473870" lon="-2.2122400">
        <ele>1249.2</ele>
        <time>2020-09-12T12:18:56Z</time>
      </trkpt>
      <trkpt lat="41.0473890" lon="-2.2121380">
        <ele>1249.2</ele>
        <time>2020-09-12T12:18:57Z</time>
      </trkpt>
      <trkpt lat="41.0473900" lon="-2.2120370">
        <ele>1249.0</ele>
        <time>2020-09-12T12:18:58Z</time>
      </trkpt>
      <trkpt lat="41.0473920" lon="-2.2119350">
        <ele>1248.6</ele>
        <time>2020-09-12T12:18:59Z</time>
      </trkpt>
      <trkpt lat="41.0473940" lon="-2.2118340">
        <ele>1248.8</ele>
        <time>2020-09-12T12:19:00Z</time>
      </trkpt>
      <trkpt lat="41.0473960" lon="-2.2117330">
        <ele>1249.0</ele>
        <time>2020-09-12T12:19:01Z</time>
      </trkpt>
      <trkpt lat="41.0473980" lon="-2.2116310">
        <ele>1248.8</ele>
        <time>2020-09-12T12:19:02Z</time>
      </trkpt>
      <trkpt lat="41.0474010" lon="-2.2115290">
        <ele>1248.6</ele>
        <time>2020-09-12T12:19:03Z</time>
      </trkpt>
      <trkpt lat="41.0474030" lon="-2.2114280">
        <ele>1248.8</ele>
        <time>2020-09-12T12:19:04Z</time>
      </trkpt>
      <trkpt lat="41.0474040" lon="-2.2113270">
        <ele>1248.6</ele>
        <time>2020-09-12T12:19:05Z</time>
      </trkpt>
      <trkpt lat="41.0474050" lon="-2.2112260">
        <ele>1248.8</ele>
        <time>2020-09-12T12:19:06Z</time>
      </trkpt>
      <trkpt lat="41.0474060" lon="-2.2111240">
        <ele>1248.6</ele>
        <time>2020-09-12T12:19:07Z</time>
      </trkpt>
      <trkpt lat="41.0474070" lon="-2.2110220">
        <ele>1248.4</ele>
        <time>2020-09-12T12:19:08Z</time>
      </trkpt>
      <trkpt lat="41.0474110" lon="-2.2109190">
        <ele>1248.2</ele>
        <time>2020-09-12T12:19:09Z</time>
      </trkpt>
      <trkpt lat="41.0474170" lon="-2.2108150">
        <ele>1248.2</ele>
        <time>2020-09-12T12:19:10Z</time>
      </trkpt>
      <trkpt lat="41.0474240" lon="-2.2107120">
        <ele>1248.0</ele>
        <time>2020-09-12T12:19:11Z</time>
      </trkpt>
      <trkpt lat="41.0474320" lon="-2.2106070">
        <ele>1247.8</ele>
        <time>2020-09-12T12:19:12Z</time>
      </trkpt>
      <trkpt lat="41.0474420" lon="-2.2105030">
        <ele>1247.8</ele>
        <time>2020-09-12T12:19:13Z</time>
      </trkpt>
      <trkpt lat="41.0474550" lon="-2.2104000">
        <ele>1248.0</ele>
        <time>2020-09-12T12:19:14Z</time>
      </trkpt>
      <trkpt lat="41.0474700" lon="-2.2102970">
        <ele>1247.8</ele>
        <time>2020-09-12T12:19:15Z</time>
      </trkpt>
      <trkpt lat="41.0474890" lon="-2.2101950">
        <ele>1247.8</ele>
        <time>2020-09-12T12:19:16Z</time>
      </trkpt>
      <trkpt lat="41.0475100" lon="-2.2100940">
        <ele>1247.6</ele>
        <time>2020-09-12T12:19:17Z</time>
      </trkpt>
      <trkpt lat="41.0475350" lon="-2.2099920">
        <ele>1247.4</ele>
        <time>2020-09-12T12:19:18Z</time>
      </trkpt>
      <trkpt lat="41.0475630" lon="-2.2098910">
        <ele>1246.8</ele>
        <time>2020-09-12T12:19:19Z</time>
      </trkpt>
      <trkpt lat="41.0475920" lon="-2.2097880">
        <ele>1246.0</ele>
        <time>2020-09-12T12:19:20Z</time>
      </trkpt>
      <trkpt lat="41.0476220" lon="-2.2096840">
        <ele>1245.6</ele>
        <time>2020-09-12T12:19:21Z</time>
      </trkpt>
      <trkpt lat="41.0476550" lon="-2.2095780">
        <ele>1245.0</ele>
        <time>2020-09-12T12:19:22Z</time>
      </trkpt>
      <trkpt lat="41.0476910" lon="-2.2094710">
        <ele>1244.8</ele>
        <time>2020-09-12T12:19:23Z</time>
      </trkpt>
      <trkpt lat="41.0478030" lon="-2.2091430">
        <ele>1243.6</ele>
        <time>2020-09-12T12:19:26Z</time>
      </trkpt>
      <trkpt lat="41.0479130" lon="-2.2088130">
        <ele>1242.6</ele>
        <time>2020-09-12T12:19:29Z</time>
      </trkpt>
      <trkpt lat="41.0479860" lon="-2.2086030">
        <ele>1242.2</ele>
        <time>2020-09-12T12:19:31Z</time>
      </trkpt>
      <trkpt lat="41.0480620" lon="-2.2084090">
        <ele>1241.6</ele>
        <time>2020-09-12T12:19:33Z</time>
      </trkpt>
      <trkpt lat="41.0482320" lon="-2.2080710">
        <ele>1240.6</ele>
        <time>2020-09-12T12:19:37Z</time>
      </trkpt>
      <trkpt lat="41.0482770" lon="-2.2079930">
        <ele>1240.2</ele>
        <time>2020-09-12T12:19:38Z</time>
      </trkpt>
      <trkpt lat="41.0483230" lon="-2.2079180">
        <ele>1240.2</ele>
        <time>2020-09-12T12:19:39Z</time>
      </trkpt>
      <trkpt lat="41.0483690" lon="-2.2078440">
        <ele>1240.0</ele>
        <time>2020-09-12T12:19:40Z</time>
      </trkpt>
      <trkpt lat="41.0484150" lon="-2.2077700">
        <ele>1239.8</ele>
        <time>2020-09-12T12:19:41Z</time>
      </trkpt>
      <trkpt lat="41.0484610" lon="-2.2076960">
        <ele>1239.8</ele>
        <time>2020-09-12T12:19:42Z</time>
      </trkpt>
      <trkpt lat="41.0485050" lon="-2.2076220">
        <ele>1239.8</ele>
        <time>2020-09-12T12:19:43Z</time>
      </trkpt>
      <trkpt lat="41.0485490" lon="-2.2075480">
        <ele>1240.2</ele>
        <time>2020-09-12T12:19:44Z</time>
      </trkpt>
      <trkpt lat="41.0485900" lon="-2.2074740">
        <ele>1240.4</ele>
        <time>2020-09-12T12:19:45Z</time>
      </trkpt>
      <trkpt lat="41.0486250" lon="-2.2073950">
        <ele>1240.6</ele>
        <time>2020-09-12T12:19:46Z</time>
      </trkpt>
      <trkpt lat="41.0486510" lon="-2.2073110">
        <ele>1240.6</ele>
        <time>2020-09-12T12:19:47Z</time>
      </trkpt>
      <trkpt lat="41.0486680" lon="-2.2072230">
        <ele>1240.8</ele>
        <time>2020-09-12T12:19:48Z</time>
      </trkpt>
      <trkpt lat="41.0486760" lon="-2.2071330">
        <ele>1240.8</ele>
        <time>2020-09-12T12:19:49Z</time>
      </trkpt>
      <trkpt lat="41.0486780" lon="-2.2070420">
        <ele>1240.6</ele>
        <time>2020-09-12T12:19:50Z</time>
      </trkpt>
      <trkpt lat="41.0486750" lon="-2.2069510">
        <ele>1240.2</ele>
        <time>2020-09-12T12:19:51Z</time>
      </trkpt>
      <trkpt lat="41.0486670" lon="-2.2068620">
        <ele>1240.0</ele>
        <time>2020-09-12T12:19:52Z</time>
      </trkpt>
      <trkpt lat="41.0486550" lon="-2.2067740">
        <ele>1239.8</ele>
        <time>2020-09-12T12:19:53Z</time>
      </trkpt>
      <trkpt lat="41.0486430" lon="-2.2066900">
        <ele>1239.6</ele>
        <time>2020-09-12T12:19:54Z</time>
      </trkpt>
      <trkpt lat="41.0486270" lon="-2.2066080">
        <ele>1239.6</ele>
        <time>2020-09-12T12:19:55Z</time>
      </trkpt>
      <trkpt lat="41.0486060" lon="-2.2065260">
        <ele>1239.4</ele>
        <time>2020-09-12T12:19:56Z</time>
      </trkpt>
      <trkpt lat="41.0485830" lon="-2.2064430">
        <ele>1239.6</ele>
        <time>2020-09-12T12:19:57Z</time>
      </trkpt>
      <trkpt lat="41.0485580" lon="-2.2063590">
        <ele>1239.4</ele>
        <time>2020-09-12T12:19:58Z</time>
      </trkpt>
      <trkpt lat="41.0485340" lon="-2.2062780">
        <ele>1239.4</ele>
        <time>2020-09-12T12:19:59Z</time>
      </trkpt>
      <trkpt lat="41.0485100" lon="-2.2061960">
        <ele>1239.6</ele>
        <time>2020-09-12T12:20:00Z</time>
      </trkpt>
      <trkpt lat="41.0484850" lon="-2.2061120">
        <ele>1239.6</ele>
        <time>2020-09-12T12:20:01Z</time>
      </trkpt>
      <trkpt lat="41.0484580" lon="-2.2060300">
        <ele>1239.8</ele>
        <time>2020-09-12T12:20:02Z</time>
      </trkpt>
      <trkpt lat="41.0484300" lon="-2.2059470">
        <ele>1239.8</ele>
        <time>2020-09-12T12:20:03Z</time>
      </trkpt>
      <trkpt lat="41.0484010" lon="-2.2058660">
        <ele>1239.6</ele>
        <time>2020-09-12T12:20:04Z</time>
      </trkpt>
      <trkpt lat="41.0483740" lon="-2.2057860">
        <ele>1239.8</ele>
        <time>2020-09-12T12:20:05Z</time>
      </trkpt>
      <trkpt lat="41.0483440" lon="-2.2057060">
        <ele>1239.8</ele>
        <time>2020-09-12T12:20:06Z</time>
      </trkpt>
      <trkpt lat="41.0483140" lon="-2.2056280">
        <ele>1240.0</ele>
        <time>2020-09-12T12:20:07Z</time>
      </trkpt>
      <trkpt lat="41.0482850" lon="-2.2055500">
        <ele>1240.0</ele>
        <time>2020-09-12T12:20:08Z</time>
      </trkpt>
      <trkpt lat="41.0482550" lon="-2.2054740">
        <ele>1240.2</ele>
        <time>2020-09-12T12:20:09Z</time>
      </trkpt>
      <trkpt lat="41.0482250" lon="-2.2054000">
        <ele>1240.2</ele>
        <time>2020-09-12T12:20:10Z</time>
      </trkpt>
      <trkpt lat="41.0481940" lon="-2.2053260">
        <ele>1240.4</ele>
        <time>2020-09-12T12:20:11Z</time>
      </trkpt>
      <trkpt lat="41.0481610" lon="-2.2052520">
        <ele>1240.4</ele>
        <time>2020-09-12T12:20:12Z</time>
      </trkpt>
      <trkpt lat="41.0481280" lon="-2.2051790">
        <ele>1240.2</ele>
        <time>2020-09-12T12:20:13Z</time>
      </trkpt>
      <trkpt lat="41.0480930" lon="-2.2051070">
        <ele>1240.2</ele>
        <time>2020-09-12T12:20:14Z</time>
      </trkpt>
      <trkpt lat="41.0480560" lon="-2.2050350">
        <ele>1240.0</ele>
        <time>2020-09-12T12:20:15Z</time>
      </trkpt>
      <trkpt lat="41.0480170" lon="-2.2049660">
        <ele>1240.0</ele>
        <time>2020-09-12T12:20:16Z</time>
      </trkpt>
      <trkpt lat="41.0479770" lon="-2.2048950">
        <ele>1239.8</ele>
        <time>2020-09-12T12:20:17Z</time>
      </trkpt>
      <trkpt lat="41.0479350" lon="-2.2048270">
        <ele>1239.8</ele>
        <time>2020-09-12T12:20:18Z</time>
      </trkpt>
      <trkpt lat="41.0478920" lon="-2.2047600">
        <ele>1239.8</ele>
        <time>2020-09-12T12:20:19Z</time>
      </trkpt>
      <trkpt lat="41.0478480" lon="-2.2046940">
        <ele>1239.8</ele>
        <time>2020-09-12T12:20:20Z</time>
      </trkpt>
      <trkpt lat="41.0478030" lon="-2.2046290">
        <ele>1239.8</ele>
        <time>2020-09-12T12:20:21Z</time>
      </trkpt>
      <trkpt lat="41.0477560" lon="-2.2045640">
        <ele>1239.8</ele>
        <time>2020-09-12T12:20:22Z</time>
      </trkpt>
      <trkpt lat="41.0477080" lon="-2.2045020">
        <ele>1239.8</ele>
        <time>2020-09-12T12:20:23Z</time>
      </trkpt>
      <trkpt lat="41.0476590" lon="-2.2044380">
        <ele>1240.0</ele>
        <time>2020-09-12T12:20:24Z</time>
      </trkpt>
      <trkpt lat="41.0476100" lon="-2.2043750">
        <ele>1240.2</ele>
        <time>2020-09-12T12:20:25Z</time>
      </trkpt>
      <trkpt lat="41.0475620" lon="-2.2043110">
        <ele>1240.2</ele>
        <time>2020-09-12T12:20:26Z</time>
      </trkpt>
      <trkpt lat="41.0475140" lon="-2.2042470">
        <ele>1240.2</ele>
        <time>2020-09-12T12:20:27Z</time>
      </trkpt>
      <trkpt lat="41.0474640" lon="-2.2041850">
        <ele>1240.4</ele>
        <time>2020-09-12T12:20:28Z</time>
      </trkpt>
      <trkpt lat="41.0474120" lon="-2.2041250">
        <ele>1240.2</ele>
        <time>2020-09-12T12:20:29Z</time>
      </trkpt>
      <trkpt lat="41.0473620" lon="-2.2040640">
        <ele>1240.2</ele>
        <time>2020-09-12T12:20:30Z</time>
      </trkpt>
      <trkpt lat="41.0473110" lon="-2.2040030">
        <ele>1240.2</ele>
        <time>2020-09-12T12:20:31Z</time>
      </trkpt>
      <trkpt lat="41.0472590" lon="-2.2039420">
        <ele>1240.2</ele>
        <time>2020-09-12T12:20:32Z</time>
      </trkpt>
      <trkpt lat="41.0472080" lon="-2.2038800">
        <ele>1240.2</ele>
        <time>2020-09-12T12:20:33Z</time>
      </trkpt>
      <trkpt lat="41.0471580" lon="-2.2038190">
        <ele>1240.4</ele>
        <time>2020-09-12T12:20:34Z</time>
      </trkpt>
      <trkpt lat="41.0471080" lon="-2.2037570">
        <ele>1240.4</ele>
        <time>2020-09-12T12:20:35Z</time>
      </trkpt>
      <trkpt lat="41.0470590" lon="-2.2036970">
        <ele>1240.4</ele>
        <time>2020-09-12T12:20:36Z</time>
      </trkpt>
      <trkpt lat="41.0470080" lon="-2.2036400">
        <ele>1240.4</ele>
        <time>2020-09-12T12:20:37Z</time>
      </trkpt>
      <trkpt lat="41.0469550" lon="-2.2035860">
        <ele>1240.4</ele>
        <time>2020-09-12T12:20:38Z</time>
      </trkpt>
      <trkpt lat="41.0469010" lon="-2.2035290">
        <ele>1240.4</ele>
        <time>2020-09-12T12:20:39Z</time>
      </trkpt>
      <trkpt lat="41.0468490" lon="-2.2034720">
        <ele>1240.6</ele>
        <time>2020-09-12T12:20:40Z</time>
      </trkpt>
      <trkpt lat="41.0467970" lon="-2.2034140">
        <ele>1240.6</ele>
        <time>2020-09-12T12:20:41Z</time>
      </trkpt>
      <trkpt lat="41.0467460" lon="-2.2033590">
        <ele>1240.8</ele>
        <time>2020-09-12T12:20:42Z</time>
      </trkpt>
      <trkpt lat="41.0466920" lon="-2.2033080">
        <ele>1241.0</ele>
        <time>2020-09-12T12:20:43Z</time>
      </trkpt>
      <trkpt lat="41.0466360" lon="-2.2032620">
        <ele>1241.0</ele>
        <time>2020-09-12T12:20:44Z</time>
      </trkpt>
      <trkpt lat="41.0465770" lon="-2.2032210">
        <ele>1241.2</ele>
        <time>2020-09-12T12:20:45Z</time>
      </trkpt>
      <trkpt lat="41.0465180" lon="-2.2031810">
        <ele>1241.4</ele>
        <time>2020-09-12T12:20:46Z</time>
      </trkpt>
      <trkpt lat="41.0464590" lon="-2.2031380">
        <ele>1241.6</ele>
        <time>2020-09-12T12:20:47Z</time>
      </trkpt>
      <trkpt lat="41.0464030" lon="-2.2030910">
        <ele>1241.6</ele>
        <time>2020-09-12T12:20:48Z</time>
      </trkpt>
      <trkpt lat="41.0463470" lon="-2.2030410">
        <ele>1241.6</ele>
        <time>2020-09-12T12:20:49Z</time>
      </trkpt>
      <trkpt lat="41.0462900" lon="-2.2029910">
        <ele>1241.6</ele>
        <time>2020-09-12T12:20:50Z</time>
      </trkpt>
      <trkpt lat="41.0462330" lon="-2.2029420">
        <ele>1241.8</ele>
        <time>2020-09-12T12:20:51Z</time>
      </trkpt>
      <trkpt lat="41.0461750" lon="-2.2028930">
        <ele>1242.0</ele>
        <time>2020-09-12T12:20:52Z</time>
      </trkpt>
      <trkpt lat="41.0461200" lon="-2.2028420">
        <ele>1242.0</ele>
        <time>2020-09-12T12:20:53Z</time>
      </trkpt>
      <trkpt lat="41.0460640" lon="-2.2027920">
        <ele>1242.2</ele>
        <time>2020-09-12T12:20:54Z</time>
      </trkpt>
      <trkpt lat="41.0460070" lon="-2.2027430">
        <ele>1242.2</ele>
        <time>2020-09-12T12:20:55Z</time>
      </trkpt>
      <trkpt lat="41.0459500" lon="-2.2026920">
        <ele>1242.4</ele>
        <time>2020-09-12T12:20:56Z</time>
      </trkpt>
      <trkpt lat="41.0458930" lon="-2.2026420">
        <ele>1242.4</ele>
        <time>2020-09-12T12:20:57Z</time>
      </trkpt>
      <trkpt lat="41.0458380" lon="-2.2025910">
        <ele>1242.4</ele>
        <time>2020-09-12T12:20:58Z</time>
      </trkpt>
      <trkpt lat="41.0457810" lon="-2.2025420">
        <ele>1242.2</ele>
        <time>2020-09-12T12:20:59Z</time>
      </trkpt>
      <trkpt lat="41.0457240" lon="-2.2024910">
        <ele>1242.2</ele>
        <time>2020-09-12T12:21:00Z</time>
      </trkpt>
      <trkpt lat="41.0456650" lon="-2.2024410">
        <ele>1242.4</ele>
        <time>2020-09-12T12:21:01Z</time>
      </trkpt>
      <trkpt lat="41.0456050" lon="-2.2023930">
        <ele>1242.4</ele>
        <time>2020-09-12T12:21:02Z</time>
      </trkpt>
      <trkpt lat="41.0455450" lon="-2.2023420">
        <ele>1242.4</ele>
        <time>2020-09-12T12:21:03Z</time>
      </trkpt>
      <trkpt lat="41.0454850" lon="-2.2022900">
        <ele>1242.4</ele>
        <time>2020-09-12T12:21:04Z</time>
      </trkpt>
      <trkpt lat="41.0454250" lon="-2.2022380">
        <ele>1242.4</ele>
        <time>2020-09-12T12:21:05Z</time>
      </trkpt>
      <trkpt lat="41.0453650" lon="-2.2021860">
        <ele>1242.6</ele>
        <time>2020-09-12T12:21:06Z</time>
      </trkpt>
      <trkpt lat="41.0453050" lon="-2.2021340">
        <ele>1242.6</ele>
        <time>2020-09-12T12:21:07Z</time>
      </trkpt>
      <trkpt lat="41.0452450" lon="-2.2020820">
        <ele>1242.6</ele>
        <time>2020-09-12T12:21:08Z</time>
      </trkpt>
      <trkpt lat="41.0451850" lon="-2.2020290">
        <ele>1242.8</ele>
        <time>2020-09-12T12:21:09Z</time>
      </trkpt>
      <trkpt lat="41.0451250" lon="-2.2019760">
        <ele>1242.8</ele>
        <time>2020-09-12T12:21:10Z</time>
      </trkpt>
      <trkpt lat="41.0450660" lon="-2.2019240">
        <ele>1243.0</ele>
        <time>2020-09-12T12:21:11Z</time>
      </trkpt>
      <trkpt lat="41.0450070" lon="-2.2018720">
        <ele>1243.0</ele>
        <time>2020-09-12T12:21:12Z</time>
      </trkpt>
      <trkpt lat="41.0449470" lon="-2.2018210">
        <ele>1243.0</ele>
        <time>2020-09-12T12:21:13Z</time>
      </trkpt>
      <trkpt lat="41.0448860" lon="-2.2017730">
        <ele>1243.2</ele>
        <time>2020-09-12T12:21:14Z</time>
      </trkpt>
      <trkpt lat="41.0448240" lon="-2.2017240">
        <ele>1243.4</ele>
        <time>2020-09-12T12:21:15Z</time>
      </trkpt>
      <trkpt lat="41.0447640" lon="-2.2016730">
        <ele>1243.4</ele>
        <time>2020-09-12T12:21:16Z</time>
      </trkpt>
      <trkpt lat="41.0447050" lon="-2.2016220">
        <ele>1243.4</ele>
        <time>2020-09-12T12:21:17Z</time>
      </trkpt>
      <trkpt lat="41.0446450" lon="-2.2015710">
        <ele>1243.6</ele>
        <time>2020-09-12T12:21:18Z</time>
      </trkpt>
      <trkpt lat="41.0445850" lon="-2.2015210">
        <ele>1243.6</ele>
        <time>2020-09-12T12:21:19Z</time>
      </trkpt>
      <trkpt lat="41.0445230" lon="-2.2014710">
        <ele>1243.8</ele>
        <time>2020-09-12T12:21:20Z</time>
      </trkpt>
      <trkpt lat="41.0444620" lon="-2.2014200">
        <ele>1243.8</ele>
        <time>2020-09-12T12:21:21Z</time>
      </trkpt>
      <trkpt lat="41.0444020" lon="-2.2013670">
        <ele>1243.8</ele>
        <time>2020-09-12T12:21:22Z</time>
      </trkpt>
      <trkpt lat="41.0443420" lon="-2.2013130">
        <ele>1244.0</ele>
        <time>2020-09-12T12:21:23Z</time>
      </trkpt>
      <trkpt lat="41.0442830" lon="-2.2012600">
        <ele>1244.0</ele>
        <time>2020-09-12T12:21:24Z</time>
      </trkpt>
      <trkpt lat="41.0442230" lon="-2.2012080">
        <ele>1244.2</ele>
        <time>2020-09-12T12:21:25Z</time>
      </trkpt>
      <trkpt lat="41.0441640" lon="-2.2011560">
        <ele>1244.2</ele>
        <time>2020-09-12T12:21:26Z</time>
      </trkpt>
      <trkpt lat="41.0441060" lon="-2.2011050">
        <ele>1244.4</ele>
        <time>2020-09-12T12:21:27Z</time>
      </trkpt>
      <trkpt lat="41.0440480" lon="-2.2010540">
        <ele>1244.4</ele>
        <time>2020-09-12T12:21:28Z</time>
      </trkpt>
      <trkpt lat="41.0439910" lon="-2.2010040">
        <ele>1244.4</ele>
        <time>2020-09-12T12:21:29Z</time>
      </trkpt>
      <trkpt lat="41.0439340" lon="-2.2009550">
        <ele>1244.4</ele>
        <time>2020-09-12T12:21:30Z</time>
      </trkpt>
      <trkpt lat="41.0438780" lon="-2.2009050">
        <ele>1244.6</ele>
        <time>2020-09-12T12:21:31Z</time>
      </trkpt>
      <trkpt lat="41.0438220" lon="-2.2008540">
        <ele>1244.6</ele>
        <time>2020-09-12T12:21:32Z</time>
      </trkpt>
      <trkpt lat="41.0437670" lon="-2.2008050">
        <ele>1244.6</ele>
        <time>2020-09-12T12:21:33Z</time>
      </trkpt>
      <trkpt lat="41.0437110" lon="-2.2007560">
        <ele>1244.8</ele>
        <time>2020-09-12T12:21:34Z</time>
      </trkpt>
      <trkpt lat="41.0436570" lon="-2.2007080">
        <ele>1245.0</ele>
        <time>2020-09-12T12:21:35Z</time>
      </trkpt>
      <trkpt lat="41.0436040" lon="-2.2006600">
        <ele>1245.6</ele>
        <time>2020-09-12T12:21:36Z</time>
      </trkpt>
      <trkpt lat="41.0435520" lon="-2.2006120">
        <ele>1246.0</ele>
        <time>2020-09-12T12:21:37Z</time>
      </trkpt>
      <trkpt lat="41.0435000" lon="-2.2005660">
        <ele>1246.2</ele>
        <time>2020-09-12T12:21:38Z</time>
      </trkpt>
      <trkpt lat="41.0434480" lon="-2.2005190">
        <ele>1246.4</ele>
        <time>2020-09-12T12:21:39Z</time>
      </trkpt>
      <trkpt lat="41.0433970" lon="-2.2004720">
        <ele>1246.6</ele>
        <time>2020-09-12T12:21:40Z</time>
      </trkpt>
      <trkpt lat="41.0433450" lon="-2.2004250">
        <ele>1246.6</ele>
        <time>2020-09-12T12:21:41Z</time>
      </trkpt>
      <trkpt lat="41.0432920" lon="-2.2003800">
        <ele>1246.8</ele>
        <time>2020-09-12T12:21:42Z</time>
      </trkpt>
      <trkpt lat="41.0432380" lon="-2.2003340">
        <ele>1247.0</ele>
        <time>2020-09-12T12:21:43Z</time>
      </trkpt>
      <trkpt lat="41.0431840" lon="-2.2002870">
        <ele>1247.2</ele>
        <time>2020-09-12T12:21:44Z</time>
      </trkpt>
      <trkpt lat="41.0431290" lon="-2.2002390">
        <ele>1247.2</ele>
        <time>2020-09-12T12:21:45Z</time>
      </trkpt>
      <trkpt lat="41.0430730" lon="-2.2001910">
        <ele>1247.2</ele>
        <time>2020-09-12T12:21:46Z</time>
      </trkpt>
      <trkpt lat="41.0430180" lon="-2.2001420">
        <ele>1247.4</ele>
        <time>2020-09-12T12:21:47Z</time>
      </trkpt>
      <trkpt lat="41.0429620" lon="-2.2000930">
        <ele>1247.4</ele>
        <time>2020-09-12T12:21:48Z</time>
      </trkpt>
      <trkpt lat="41.0429070" lon="-2.2000440">
        <ele>1247.4</ele>
        <time>2020-09-12T12:21:49Z</time>
      </trkpt>
      <trkpt lat="41.0428520" lon="-2.1999960">
        <ele>1247.6</ele>
        <time>2020-09-12T12:21:50Z</time>
      </trkpt>
      <trkpt lat="41.0427950" lon="-2.1999480">
        <ele>1247.6</ele>
        <time>2020-09-12T12:21:51Z</time>
      </trkpt>
      <trkpt lat="41.0427370" lon="-2.1998990">
        <ele>1247.8</ele>
        <time>2020-09-12T12:21:52Z</time>
      </trkpt>
      <trkpt lat="41.0426780" lon="-2.1998480">
        <ele>1247.8</ele>
        <time>2020-09-12T12:21:53Z</time>
      </trkpt>
      <trkpt lat="41.0426190" lon="-2.1997960">
        <ele>1247.8</ele>
        <time>2020-09-12T12:21:54Z</time>
      </trkpt>
      <trkpt lat="41.0425590" lon="-2.1997450">
        <ele>1247.8</ele>
        <time>2020-09-12T12:21:55Z</time>
      </trkpt>
      <trkpt lat="41.0424970" lon="-2.1996940">
        <ele>1247.8</ele>
        <time>2020-09-12T12:21:56Z</time>
      </trkpt>
      <trkpt lat="41.0424370" lon="-2.1996400">
        <ele>1247.8</ele>
        <time>2020-09-12T12:21:57Z</time>
      </trkpt>
      <trkpt lat="41.0423760" lon="-2.1995850">
        <ele>1247.8</ele>
        <time>2020-09-12T12:21:58Z</time>
      </trkpt>
      <trkpt lat="41.0423130" lon="-2.1995310">
        <ele>1247.8</ele>
        <time>2020-09-12T12:21:59Z</time>
      </trkpt>
      <trkpt lat="41.0422510" lon="-2.1994760">
        <ele>1247.6</ele>
        <time>2020-09-12T12:22:00Z</time>
      </trkpt>
      <trkpt lat="41.0421890" lon="-2.1994190">
        <ele>1247.8</ele>
        <time>2020-09-12T12:22:01Z</time>
      </trkpt>
      <trkpt lat="41.0421260" lon="-2.1993620">
        <ele>1247.8</ele>
        <time>2020-09-12T12:22:02Z</time>
      </trkpt>
      <trkpt lat="41.0420630" lon="-2.1993060">
        <ele>1248.0</ele>
        <time>2020-09-12T12:22:03Z</time>
      </trkpt>
      <trkpt lat="41.0420010" lon="-2.1992490">
        <ele>1248.0</ele>
        <time>2020-09-12T12:22:04Z</time>
      </trkpt>
      <trkpt lat="41.0419410" lon="-2.1991930">
        <ele>1248.2</ele>
        <time>2020-09-12T12:22:05Z</time>
      </trkpt>
      <trkpt lat="41.0418790" lon="-2.1991400">
        <ele>1248.2</ele>
        <time>2020-09-12T12:22:06Z</time>
      </trkpt>
      <trkpt lat="41.0418180" lon="-2.1990880">
        <ele>1248.2</ele>
        <time>2020-09-12T12:22:07Z</time>
      </trkpt>
      <trkpt lat="41.0417580" lon="-2.1990350">
        <ele>1248.2</ele>
        <time>2020-09-12T12:22:08Z</time>
      </trkpt>
      <trkpt lat="41.0416980" lon="-2.1989840">
        <ele>1248.2</ele>
        <time>2020-09-12T12:22:09Z</time>
      </trkpt>
      <trkpt lat="41.0416390" lon="-2.1989320">
        <ele>1248.2</ele>
        <time>2020-09-12T12:22:10Z</time>
      </trkpt>
      <trkpt lat="41.0415800" lon="-2.1988800">
        <ele>1248.0</ele>
        <time>2020-09-12T12:22:11Z</time>
      </trkpt>
      <trkpt lat="41.0415220" lon="-2.1988290">
        <ele>1248.0</ele>
        <time>2020-09-12T12:22:12Z</time>
      </trkpt>
      <trkpt lat="41.0414640" lon="-2.1987780">
        <ele>1248.0</ele>
        <time>2020-09-12T12:22:13Z</time>
      </trkpt>
      <trkpt lat="41.0414070" lon="-2.1987270">
        <ele>1248.0</ele>
        <time>2020-09-12T12:22:14Z</time>
      </trkpt>
      <trkpt lat="41.0413500" lon="-2.1986760">
        <ele>1248.0</ele>
        <time>2020-09-12T12:22:15Z</time>
      </trkpt>
      <trkpt lat="41.0412930" lon="-2.1986250">
        <ele>1248.0</ele>
        <time>2020-09-12T12:22:16Z</time>
      </trkpt>
      <trkpt lat="41.0412350" lon="-2.1985750">
        <ele>1248.2</ele>
        <time>2020-09-12T12:22:17Z</time>
      </trkpt>
      <trkpt lat="41.0411760" lon="-2.1985270">
        <ele>1248.4</ele>
        <time>2020-09-12T12:22:18Z</time>
      </trkpt>
      <trkpt lat="41.0411190" lon="-2.1984760">
        <ele>1248.4</ele>
        <time>2020-09-12T12:22:19Z</time>
      </trkpt>
      <trkpt lat="41.0410620" lon="-2.1984230">
        <ele>1248.4</ele>
        <time>2020-09-12T12:22:20Z</time>
      </trkpt>
      <trkpt lat="41.0410040" lon="-2.1983700">
        <ele>1248.4</ele>
        <time>2020-09-12T12:22:21Z</time>
      </trkpt>
      <trkpt lat="41.0409460" lon="-2.1983180">
        <ele>1248.6</ele>
        <time>2020-09-12T12:22:22Z</time>
      </trkpt>
      <trkpt lat="41.0408870" lon="-2.1982660">
        <ele>1248.6</ele>
        <time>2020-09-12T12:22:23Z</time>
      </trkpt>
      <trkpt lat="41.0408280" lon="-2.1982140">
        <ele>1248.4</ele>
        <time>2020-09-12T12:22:24Z</time>
      </trkpt>
      <trkpt lat="41.0407690" lon="-2.1981610">
        <ele>1248.4</ele>
        <time>2020-09-12T12:22:25Z</time>
      </trkpt>
      <trkpt lat="41.0407090" lon="-2.1981070">
        <ele>1248.4</ele>
        <time>2020-09-12T12:22:26Z</time>
      </trkpt>
      <trkpt lat="41.0406480" lon="-2.1980550">
        <ele>1248.4</ele>
        <time>2020-09-12T12:22:27Z</time>
      </trkpt>
      <trkpt lat="41.0405870" lon="-2.1980010">
        <ele>1248.4</ele>
        <time>2020-09-12T12:22:28Z</time>
      </trkpt>
      <trkpt lat="41.0405270" lon="-2.1979480">
        <ele>1248.4</ele>
        <time>2020-09-12T12:22:29Z</time>
      </trkpt>
      <trkpt lat="41.0404660" lon="-2.1978960">
        <ele>1248.6</ele>
        <time>2020-09-12T12:22:30Z</time>
      </trkpt>
      <trkpt lat="41.0404040" lon="-2.1978450">
        <ele>1248.6</ele>
        <time>2020-09-12T12:22:31Z</time>
      </trkpt>
      <trkpt lat="41.0403430" lon="-2.1977940">
        <ele>1248.6</ele>
        <time>2020-09-12T12:22:32Z</time>
      </trkpt>
      <trkpt lat="41.0402820" lon="-2.1977420">
        <ele>1248.6</ele>
        <time>2020-09-12T12:22:33Z</time>
      </trkpt>
      <trkpt lat="41.0402220" lon="-2.1976880">
        <ele>1248.8</ele>
        <time>2020-09-12T12:22:34Z</time>
      </trkpt>
      <trkpt lat="41.0401630" lon="-2.1976360">
        <ele>1248.8</ele>
        <time>2020-09-12T12:22:35Z</time>
      </trkpt>
      <trkpt lat="41.0401030" lon="-2.1975830">
        <ele>1249.0</ele>
        <time>2020-09-12T12:22:36Z</time>
      </trkpt>
      <trkpt lat="41.0400440" lon="-2.1975310">
        <ele>1249.2</ele>
        <time>2020-09-12T12:22:37Z</time>
      </trkpt>
      <trkpt lat="41.0399860" lon="-2.1974800">
        <ele>1249.2</ele>
        <time>2020-09-12T12:22:38Z</time>
      </trkpt>
      <trkpt lat="41.0399280" lon="-2.1974280">
        <ele>1249.4</ele>
        <time>2020-09-12T12:22:39Z</time>
      </trkpt>
      <trkpt lat="41.0398690" lon="-2.1973760">
        <ele>1249.4</ele>
        <time>2020-09-12T12:22:40Z</time>
      </trkpt>
      <trkpt lat="41.0398100" lon="-2.1973250">
        <ele>1249.4</ele>
        <time>2020-09-12T12:22:41Z</time>
      </trkpt>
      <trkpt lat="41.0397500" lon="-2.1972750">
        <ele>1249.4</ele>
        <time>2020-09-12T12:22:42Z</time>
      </trkpt>
      <trkpt lat="41.0396910" lon="-2.1972250">
        <ele>1249.4</ele>
        <time>2020-09-12T12:22:43Z</time>
      </trkpt>
      <trkpt lat="41.0396310" lon="-2.1971730">
        <ele>1249.4</ele>
        <time>2020-09-12T12:22:44Z</time>
      </trkpt>
      <trkpt lat="41.0395730" lon="-2.1971220">
        <ele>1249.6</ele>
        <time>2020-09-12T12:22:45Z</time>
      </trkpt>
      <trkpt lat="41.0395150" lon="-2.1970720">
        <ele>1249.8</ele>
        <time>2020-09-12T12:22:46Z</time>
      </trkpt>
      <trkpt lat="41.0394570" lon="-2.1970220">
        <ele>1250.0</ele>
        <time>2020-09-12T12:22:47Z</time>
      </trkpt>
      <trkpt lat="41.0393990" lon="-2.1969730">
        <ele>1250.2</ele>
        <time>2020-09-12T12:22:48Z</time>
      </trkpt>
      <trkpt lat="41.0393420" lon="-2.1969240">
        <ele>1250.4</ele>
        <time>2020-09-12T12:22:49Z</time>
      </trkpt>
      <trkpt lat="41.0392860" lon="-2.1968750">
        <ele>1250.6</ele>
        <time>2020-09-12T12:22:50Z</time>
      </trkpt>
      <trkpt lat="41.0392310" lon="-2.1968280">
        <ele>1250.8</ele>
        <time>2020-09-12T12:22:51Z</time>
      </trkpt>
      <trkpt lat="41.0391770" lon="-2.1967800">
        <ele>1250.8</ele>
        <time>2020-09-12T12:22:52Z</time>
      </trkpt>
      <trkpt lat="41.0391240" lon="-2.1967320">
        <ele>1251.0</ele>
        <time>2020-09-12T12:22:53Z</time>
      </trkpt>
      <trkpt lat="41.0390710" lon="-2.1966860">
        <ele>1251.2</ele>
        <time>2020-09-12T12:22:54Z</time>
      </trkpt>
      <trkpt lat="41.0390180" lon="-2.1966410">
        <ele>1251.4</ele>
        <time>2020-09-12T12:22:55Z</time>
      </trkpt>
      <trkpt lat="41.0389650" lon="-2.1965960">
        <ele>1251.4</ele>
        <time>2020-09-12T12:22:56Z</time>
      </trkpt>
      <trkpt lat="41.0389120" lon="-2.1965500">
        <ele>1251.4</ele>
        <time>2020-09-12T12:22:57Z</time>
      </trkpt>
      <trkpt lat="41.0388590" lon="-2.1965030">
        <ele>1251.2</ele>
        <time>2020-09-12T12:22:58Z</time>
      </trkpt>
      <trkpt lat="41.0388050" lon="-2.1964570">
        <ele>1251.4</ele>
        <time>2020-09-12T12:22:59Z</time>
      </trkpt>
      <trkpt lat="41.0387520" lon="-2.1964120">
        <ele>1251.4</ele>
        <time>2020-09-12T12:23:00Z</time>
      </trkpt>
      <trkpt lat="41.0387000" lon="-2.1963650">
        <ele>1251.4</ele>
        <time>2020-09-12T12:23:01Z</time>
      </trkpt>
      <trkpt lat="41.0386460" lon="-2.1963170">
        <ele>1251.4</ele>
        <time>2020-09-12T12:23:02Z</time>
      </trkpt>
      <trkpt lat="41.0385930" lon="-2.1962680">
        <ele>1251.4</ele>
        <time>2020-09-12T12:23:03Z</time>
      </trkpt>
      <trkpt lat="41.0385380" lon="-2.1962180">
        <ele>1251.6</ele>
        <time>2020-09-12T12:23:04Z</time>
      </trkpt>
      <trkpt lat="41.0384830" lon="-2.1961690">
        <ele>1251.8</ele>
        <time>2020-09-12T12:23:05Z</time>
      </trkpt>
      <trkpt lat="41.0384280" lon="-2.1961200">
        <ele>1251.8</ele>
        <time>2020-09-12T12:23:06Z</time>
      </trkpt>
      <trkpt lat="41.0383710" lon="-2.1960720">
        <ele>1252.0</ele>
        <time>2020-09-12T12:23:07Z</time>
      </trkpt>
      <trkpt lat="41.0383150" lon="-2.1960240">
        <ele>1252.4</ele>
        <time>2020-09-12T12:23:08Z</time>
      </trkpt>
      <trkpt lat="41.0382580" lon="-2.1959740">
        <ele>1252.8</ele>
        <time>2020-09-12T12:23:09Z</time>
      </trkpt>
      <trkpt lat="41.0382020" lon="-2.1959230">
        <ele>1253.2</ele>
        <time>2020-09-12T12:23:10Z</time>
      </trkpt>
      <trkpt lat="41.0381450" lon="-2.1958710">
        <ele>1253.4</ele>
        <time>2020-09-12T12:23:11Z</time>
      </trkpt>
      <trkpt lat="41.0380890" lon="-2.1958190">
        <ele>1253.8</ele>
        <time>2020-09-12T12:23:12Z</time>
      </trkpt>
      <trkpt lat="41.0380310" lon="-2.1957670">
        <ele>1253.8</ele>
        <time>2020-09-12T12:23:13Z</time>
      </trkpt>
      <trkpt lat="41.0379730" lon="-2.1957150">
        <ele>1254.0</ele>
        <time>2020-09-12T12:23:14Z</time>
      </trkpt>
      <trkpt lat="41.0379140" lon="-2.1956620">
        <ele>1254.2</ele>
        <time>2020-09-12T12:23:15Z</time>
      </trkpt>
      <trkpt lat="41.0378550" lon="-2.1956090">
        <ele>1254.4</ele>
        <time>2020-09-12T12:23:16Z</time>
      </trkpt>
      <trkpt lat="41.0377950" lon="-2.1955510">
        <ele>1254.4</ele>
        <time>2020-09-12T12:23:17Z</time>
      </trkpt>
      <trkpt lat="41.0377360" lon="-2.1954950">
        <ele>1254.6</ele>
        <time>2020-09-12T12:23:18Z</time>
      </trkpt>
      <trkpt lat="41.0376780" lon="-2.1954360">
        <ele>1255.2</ele>
        <time>2020-09-12T12:23:19Z</time>
      </trkpt>
      <trkpt lat="41.0376200" lon="-2.1953780">
        <ele>1255.6</ele>
        <time>2020-09-12T12:23:20Z</time>
      </trkpt>
      <trkpt lat="41.0375610" lon="-2.1953190">
        <ele>1256.0</ele>
        <time>2020-09-12T12:23:21Z</time>
      </trkpt>
      <trkpt lat="41.0375030" lon="-2.1952600">
        <ele>1256.4</ele>
        <time>2020-09-12T12:23:22Z</time>
      </trkpt>
      <trkpt lat="41.0374460" lon="-2.1952000">
        <ele>1256.6</ele>
        <time>2020-09-12T12:23:23Z</time>
      </trkpt>
      <trkpt lat="41.0373890" lon="-2.1951400">
        <ele>1256.8</ele>
        <time>2020-09-12T12:23:24Z</time>
      </trkpt>
      <trkpt lat="41.0373330" lon="-2.1950770">
        <ele>1256.8</ele>
        <time>2020-09-12T12:23:25Z</time>
      </trkpt>
      <trkpt lat="41.0372770" lon="-2.1950130">
        <ele>1257.0</ele>
        <time>2020-09-12T12:23:26Z</time>
      </trkpt>
      <trkpt lat="41.0372220" lon="-2.1949500">
        <ele>1257.0</ele>
        <time>2020-09-12T12:23:27Z</time>
      </trkpt>
      <trkpt lat="41.0371660" lon="-2.1948860">
        <ele>1257.0</ele>
        <time>2020-09-12T12:23:28Z</time>
      </trkpt>
      <trkpt lat="41.0371110" lon="-2.1948220">
        <ele>1256.8</ele>
        <time>2020-09-12T12:23:29Z</time>
      </trkpt>
      <trkpt lat="41.0370530" lon="-2.1947580">
        <ele>1256.8</ele>
        <time>2020-09-12T12:23:30Z</time>
      </trkpt>
      <trkpt lat="41.0369930" lon="-2.1946930">
        <ele>1256.6</ele>
        <time>2020-09-12T12:23:31Z</time>
      </trkpt>
      <trkpt lat="41.0369350" lon="-2.1946250">
        <ele>1256.4</ele>
        <time>2020-09-12T12:23:32Z</time>
      </trkpt>
      <trkpt lat="41.0368760" lon="-2.1945560">
        <ele>1256.4</ele>
        <time>2020-09-12T12:23:33Z</time>
      </trkpt>
      <trkpt lat="41.0368160" lon="-2.1944850">
        <ele>1256.2</ele>
        <time>2020-09-12T12:23:34Z</time>
      </trkpt>
      <trkpt lat="41.0367530" lon="-2.1944140">
        <ele>1256.2</ele>
        <time>2020-09-12T12:23:35Z</time>
      </trkpt>
      <trkpt lat="41.0366890" lon="-2.1943430">
        <ele>1256.2</ele>
        <time>2020-09-12T12:23:36Z</time>
      </trkpt>
      <trkpt lat="41.0366230" lon="-2.1942710">
        <ele>1256.0</ele>
        <time>2020-09-12T12:23:37Z</time>
      </trkpt>
      <trkpt lat="41.0365560" lon="-2.1941940">
        <ele>1255.8</ele>
        <time>2020-09-12T12:23:38Z</time>
      </trkpt>
      <trkpt lat="41.0364870" lon="-2.1941170">
        <ele>1255.8</ele>
        <time>2020-09-12T12:23:39Z</time>
      </trkpt>
      <trkpt lat="41.0364180" lon="-2.1940390">
        <ele>1255.6</ele>
        <time>2020-09-12T12:23:40Z</time>
      </trkpt>
      <trkpt lat="41.0363470" lon="-2.1939580">
        <ele>1255.4</ele>
        <time>2020-09-12T12:23:41Z</time>
      </trkpt>
      <trkpt lat="41.0362760" lon="-2.1938760">
        <ele>1255.0</ele>
        <time>2020-09-12T12:23:42Z</time>
      </trkpt>
      <trkpt lat="41.0362040" lon="-2.1937950">
        <ele>1254.8</ele>
        <time>2020-09-12T12:23:43Z</time>
      </trkpt>
      <trkpt lat="41.0361300" lon="-2.1937120">
        <ele>1254.4</ele>
        <time>2020-09-12T12:23:44Z</time>
      </trkpt>
      <trkpt lat="41.0360560" lon="-2.1936280">
        <ele>1254.2</ele>
        <time>2020-09-12T12:23:45Z</time>
      </trkpt>
      <trkpt lat="41.0359820" lon="-2.1935430">
        <ele>1254.0</ele>
        <time>2020-09-12T12:23:46Z</time>
      </trkpt>
      <trkpt lat="41.0359080" lon="-2.1934580">
        <ele>1253.8</ele>
        <time>2020-09-12T12:23:47Z</time>
      </trkpt>
      <trkpt lat="41.0358330" lon="-2.1933730">
        <ele>1253.6</ele>
        <time>2020-09-12T12:23:48Z</time>
      </trkpt>
      <trkpt lat="41.0357580" lon="-2.1932880">
        <ele>1253.4</ele>
        <time>2020-09-12T12:23:49Z</time>
      </trkpt>
      <trkpt lat="41.0356840" lon="-2.1932030">
        <ele>1253.2</ele>
        <time>2020-09-12T12:23:50Z</time>
      </trkpt>
      <trkpt lat="41.0356100" lon="-2.1931180">
        <ele>1253.2</ele>
        <time>2020-09-12T12:23:51Z</time>
      </trkpt>
      <trkpt lat="41.0355360" lon="-2.1930340">
        <ele>1253.2</ele>
        <time>2020-09-12T12:23:52Z</time>
      </trkpt>
      <trkpt lat="41.0354630" lon="-2.1929510">
        <ele>1253.0</ele>
        <time>2020-09-12T12:23:53Z</time>
      </trkpt>
      <trkpt lat="41.0353890" lon="-2.1928690">
        <ele>1253.0</ele>
        <time>2020-09-12T12:23:54Z</time>
      </trkpt>
      <trkpt lat="41.0353160" lon="-2.1927880">
        <ele>1253.0</ele>
        <time>2020-09-12T12:23:55Z</time>
      </trkpt>
      <trkpt lat="41.0352430" lon="-2.1927070">
        <ele>1253.0</ele>
        <time>2020-09-12T12:23:56Z</time>
      </trkpt>
      <trkpt lat="41.0351710" lon="-2.1926260">
        <ele>1252.8</ele>
        <time>2020-09-12T12:23:57Z</time>
      </trkpt>
      <trkpt lat="41.0350980" lon="-2.1925450">
        <ele>1252.6</ele>
        <time>2020-09-12T12:23:58Z</time>
      </trkpt>
      <trkpt lat="41.0350260" lon="-2.1924630">
        <ele>1252.0</ele>
        <time>2020-09-12T12:23:59Z</time>
      </trkpt>
      <trkpt lat="41.0349550" lon="-2.1923800">
        <ele>1251.8</ele>
        <time>2020-09-12T12:24:00Z</time>
      </trkpt>
      <trkpt lat="41.0348840" lon="-2.1922970">
        <ele>1251.6</ele>
        <time>2020-09-12T12:24:01Z</time>
      </trkpt>
      <trkpt lat="41.0348130" lon="-2.1922150">
        <ele>1251.4</ele>
        <time>2020-09-12T12:24:02Z</time>
      </trkpt>
      <trkpt lat="41.0347420" lon="-2.1921320">
        <ele>1251.6</ele>
        <time>2020-09-12T12:24:03Z</time>
      </trkpt>
      <trkpt lat="41.0346700" lon="-2.1920510">
        <ele>1251.4</ele>
        <time>2020-09-12T12:24:04Z</time>
      </trkpt>
      <trkpt lat="41.0345980" lon="-2.1919690">
        <ele>1251.4</ele>
        <time>2020-09-12T12:24:05Z</time>
      </trkpt>
      <trkpt lat="41.0345260" lon="-2.1918900">
        <ele>1251.6</ele>
        <time>2020-09-12T12:24:06Z</time>
      </trkpt>
      <trkpt lat="41.0344550" lon="-2.1918120">
        <ele>1251.4</ele>
        <time>2020-09-12T12:24:07Z</time>
      </trkpt>
      <trkpt lat="41.0343850" lon="-2.1917320">
        <ele>1251.4</ele>
        <time>2020-09-12T12:24:08Z</time>
      </trkpt>
      <trkpt lat="41.0343150" lon="-2.1916490">
        <ele>1251.2</ele>
        <time>2020-09-12T12:24:09Z</time>
      </trkpt>
      <trkpt lat="41.0342450" lon="-2.1915690">
        <ele>1251.0</ele>
        <time>2020-09-12T12:24:10Z</time>
      </trkpt>
      <trkpt lat="41.0341750" lon="-2.1914900">
        <ele>1251.0</ele>
        <time>2020-09-12T12:24:11Z</time>
      </trkpt>
      <trkpt lat="41.0341050" lon="-2.1914100">
        <ele>1251.2</ele>
        <time>2020-09-12T12:24:12Z</time>
      </trkpt>
      <trkpt lat="41.0340330" lon="-2.1913290">
        <ele>1251.0</ele>
        <time>2020-09-12T12:24:13Z</time>
      </trkpt>
      <trkpt lat="41.0339610" lon="-2.1912500">
        <ele>1250.8</ele>
        <time>2020-09-12T12:24:14Z</time>
      </trkpt>
      <trkpt lat="41.0338900" lon="-2.1911710">
        <ele>1250.8</ele>
        <time>2020-09-12T12:24:15Z</time>
      </trkpt>
      <trkpt lat="41.0338190" lon="-2.1910890">
        <ele>1251.0</ele>
        <time>2020-09-12T12:24:16Z</time>
      </trkpt>
      <trkpt lat="41.0337490" lon="-2.1910070">
        <ele>1251.0</ele>
        <time>2020-09-12T12:24:17Z</time>
      </trkpt>
      <trkpt lat="41.0336780" lon="-2.1909240">
        <ele>1250.8</ele>
        <time>2020-09-12T12:24:18Z</time>
      </trkpt>
      <trkpt lat="41.0336090" lon="-2.1908420">
        <ele>1250.8</ele>
        <time>2020-09-12T12:24:19Z</time>
      </trkpt>
      <trkpt lat="41.0335390" lon="-2.1907590">
        <ele>1251.0</ele>
        <time>2020-09-12T12:24:20Z</time>
      </trkpt>
      <trkpt lat="41.0334690" lon="-2.1906780">
        <ele>1251.0</ele>
        <time>2020-09-12T12:24:21Z</time>
      </trkpt>
      <trkpt lat="41.0333990" lon="-2.1905990">
        <ele>1251.2</ele>
        <time>2020-09-12T12:24:22Z</time>
      </trkpt>
      <trkpt lat="41.0333280" lon="-2.1905190">
        <ele>1251.2</ele>
        <time>2020-09-12T12:24:23Z</time>
      </trkpt>
      <trkpt lat="41.0332580" lon="-2.1904390">
        <ele>1251.2</ele>
        <time>2020-09-12T12:24:24Z</time>
      </trkpt>
      <trkpt lat="41.0331890" lon="-2.1903610">
        <ele>1251.2</ele>
        <time>2020-09-12T12:24:25Z</time>
      </trkpt>
      <trkpt lat="41.0331190" lon="-2.1902830">
        <ele>1251.2</ele>
        <time>2020-09-12T12:24:26Z</time>
      </trkpt>
      <trkpt lat="41.0330500" lon="-2.1902050">
        <ele>1251.2</ele>
        <time>2020-09-12T12:24:27Z</time>
      </trkpt>
      <trkpt lat="41.0329810" lon="-2.1901270">
        <ele>1251.2</ele>
        <time>2020-09-12T12:24:28Z</time>
      </trkpt>
      <trkpt lat="41.0329110" lon="-2.1900500">
        <ele>1251.0</ele>
        <time>2020-09-12T12:24:29Z</time>
      </trkpt>
      <trkpt lat="41.0328420" lon="-2.1899730">
        <ele>1251.0</ele>
        <time>2020-09-12T12:24:30Z</time>
      </trkpt>
      <trkpt lat="41.0327720" lon="-2.1898960">
        <ele>1250.8</ele>
        <time>2020-09-12T12:24:31Z</time>
      </trkpt>
      <trkpt lat="41.0327040" lon="-2.1898160">
        <ele>1250.8</ele>
        <time>2020-09-12T12:24:32Z</time>
      </trkpt>
      <trkpt lat="41.0326360" lon="-2.1897380">
        <ele>1250.8</ele>
        <time>2020-09-12T12:24:33Z</time>
      </trkpt>
      <trkpt lat="41.0325650" lon="-2.1896630">
        <ele>1250.6</ele>
        <time>2020-09-12T12:24:34Z</time>
      </trkpt>
      <trkpt lat="41.0324940" lon="-2.1895890">
        <ele>1250.6</ele>
        <time>2020-09-12T12:24:35Z</time>
      </trkpt>
      <trkpt lat="41.0324250" lon="-2.1895130">
        <ele>1250.6</ele>
        <time>2020-09-12T12:24:36Z</time>
      </trkpt>
      <trkpt lat="41.0323580" lon="-2.1894360">
        <ele>1250.6</ele>
        <time>2020-09-12T12:24:37Z</time>
      </trkpt>
      <trkpt lat="41.0322910" lon="-2.1893610">
        <ele>1250.6</ele>
        <time>2020-09-12T12:24:38Z</time>
      </trkpt>
      <trkpt lat="41.0322260" lon="-2.1892860">
        <ele>1250.8</ele>
        <time>2020-09-12T12:24:39Z</time>
      </trkpt>
      <trkpt lat="41.0321630" lon="-2.1892110">
        <ele>1251.0</ele>
        <time>2020-09-12T12:24:40Z</time>
      </trkpt>
      <trkpt lat="41.0321000" lon="-2.1891380">
        <ele>1251.2</ele>
        <time>2020-09-12T12:24:41Z</time>
      </trkpt>
      <trkpt lat="41.0320370" lon="-2.1890660">
        <ele>1251.4</ele>
        <time>2020-09-12T12:24:42Z</time>
      </trkpt>
      <trkpt lat="41.0319750" lon="-2.1889930">
        <ele>1251.4</ele>
        <time>2020-09-12T12:24:43Z</time>
      </trkpt>
      <trkpt lat="41.0319120" lon="-2.1889220">
        <ele>1251.4</ele>
        <time>2020-09-12T12:24:44Z</time>
      </trkpt>
      <trkpt lat="41.0318480" lon="-2.1888520">
        <ele>1251.4</ele>
        <time>2020-09-12T12:24:45Z</time>
      </trkpt>
      <trkpt lat="41.0317840" lon="-2.1887820">
        <ele>1251.2</ele>
        <time>2020-09-12T12:24:46Z</time>
      </trkpt>
      <trkpt lat="41.0317220" lon="-2.1887130">
        <ele>1251.2</ele>
        <time>2020-09-12T12:24:47Z</time>
      </trkpt>
      <trkpt lat="41.0316600" lon="-2.1886440">
        <ele>1250.8</ele>
        <time>2020-09-12T12:24:48Z</time>
      </trkpt>
      <trkpt lat="41.0315990" lon="-2.1885730">
        <ele>1250.6</ele>
        <time>2020-09-12T12:24:49Z</time>
      </trkpt>
      <trkpt lat="41.0315370" lon="-2.1885010">
        <ele>1250.6</ele>
        <time>2020-09-12T12:24:50Z</time>
      </trkpt>
      <trkpt lat="41.0314760" lon="-2.1884300">
        <ele>1250.6</ele>
        <time>2020-09-12T12:24:51Z</time>
      </trkpt>
      <trkpt lat="41.0314140" lon="-2.1883580">
        <ele>1250.4</ele>
        <time>2020-09-12T12:24:52Z</time>
      </trkpt>
      <trkpt lat="41.0313520" lon="-2.1882880">
        <ele>1250.4</ele>
        <time>2020-09-12T12:24:53Z</time>
      </trkpt>
      <trkpt lat="41.0312890" lon="-2.1882170">
        <ele>1250.4</ele>
        <time>2020-09-12T12:24:54Z</time>
      </trkpt>
      <trkpt lat="41.0312260" lon="-2.1881470">
        <ele>1250.6</ele>
        <time>2020-09-12T12:24:55Z</time>
      </trkpt>
      <trkpt lat="41.0311620" lon="-2.1880770">
        <ele>1250.6</ele>
        <time>2020-09-12T12:24:56Z</time>
      </trkpt>
      <trkpt lat="41.0310980" lon="-2.1880060">
        <ele>1250.8</ele>
        <time>2020-09-12T12:24:57Z</time>
      </trkpt>
      <trkpt lat="41.0310330" lon="-2.1879330">
        <ele>1250.8</ele>
        <time>2020-09-12T12:24:58Z</time>
      </trkpt>
      <trkpt lat="41.0309680" lon="-2.1878600">
        <ele>1250.8</ele>
        <time>2020-09-12T12:24:59Z</time>
      </trkpt>
      <trkpt lat="41.0309030" lon="-2.1877870">
        <ele>1250.8</ele>
        <time>2020-09-12T12:25:00Z</time>
      </trkpt>
      <trkpt lat="41.0308380" lon="-2.1877150">
        <ele>1250.8</ele>
        <time>2020-09-12T12:25:01Z</time>
      </trkpt>
      <trkpt lat="41.0307730" lon="-2.1876430">
        <ele>1250.8</ele>
        <time>2020-09-12T12:25:02Z</time>
      </trkpt>
      <trkpt lat="41.0307080" lon="-2.1875720">
        <ele>1251.0</ele>
        <time>2020-09-12T12:25:03Z</time>
      </trkpt>
      <trkpt lat="41.0306430" lon="-2.1875000">
        <ele>1251.2</ele>
        <time>2020-09-12T12:25:04Z</time>
      </trkpt>
      <trkpt lat="41.0305790" lon="-2.1874280">
        <ele>1251.4</ele>
        <time>2020-09-12T12:25:05Z</time>
      </trkpt>
      <trkpt lat="41.0305160" lon="-2.1873550">
        <ele>1251.6</ele>
        <time>2020-09-12T12:25:06Z</time>
      </trkpt>
      <trkpt lat="41.0304520" lon="-2.1872800">
        <ele>1251.6</ele>
        <time>2020-09-12T12:25:07Z</time>
      </trkpt>
      <trkpt lat="41.0303880" lon="-2.1872080">
        <ele>1251.6</ele>
        <time>2020-09-12T12:25:08Z</time>
      </trkpt>
      <trkpt lat="41.0303230" lon="-2.1871350">
        <ele>1251.6</ele>
        <time>2020-09-12T12:25:09Z</time>
      </trkpt>
      <trkpt lat="41.0302590" lon="-2.1870630">
        <ele>1251.6</ele>
        <time>2020-09-12T12:25:10Z</time>
      </trkpt>
      <trkpt lat="41.0301930" lon="-2.1869930">
        <ele>1251.6</ele>
        <time>2020-09-12T12:25:11Z</time>
      </trkpt>
      <trkpt lat="41.0301270" lon="-2.1869240">
        <ele>1251.6</ele>
        <time>2020-09-12T12:25:12Z</time>
      </trkpt>
      <trkpt lat="41.0300600" lon="-2.1868570">
        <ele>1251.4</ele>
        <time>2020-09-12T12:25:13Z</time>
      </trkpt>
      <trkpt lat="41.0299920" lon="-2.1867930">
        <ele>1251.4</ele>
        <time>2020-09-12T12:25:14Z</time>
      </trkpt>
      <trkpt lat="41.0299240" lon="-2.1867280">
        <ele>1251.2</ele>
        <time>2020-09-12T12:25:15Z</time>
      </trkpt>
      <trkpt lat="41.0298530" lon="-2.1866670">
        <ele>1251.2</ele>
        <time>2020-09-12T12:25:16Z</time>
      </trkpt>
      <trkpt lat="41.0297810" lon="-2.1866100">
        <ele>1251.0</ele>
        <time>2020-09-12T12:25:17Z</time>
      </trkpt>
      <trkpt lat="41.0297070" lon="-2.1865540">
        <ele>1251.0</ele>
        <time>2020-09-12T12:25:18Z</time>
      </trkpt>
      <trkpt lat="41.0296330" lon="-2.1865020">
        <ele>1251.0</ele>
        <time>2020-09-12T12:25:19Z</time>
      </trkpt>
      <trkpt lat="41.0295570" lon="-2.1864550">
        <ele>1251.0</ele>
        <time>2020-09-12T12:25:20Z</time>
      </trkpt>
      <trkpt lat="41.0294790" lon="-2.1864100">
        <ele>1251.0</ele>
        <time>2020-09-12T12:25:21Z</time>
      </trkpt>
      <trkpt lat="41.0294010" lon="-2.1863700">
        <ele>1250.8</ele>
        <time>2020-09-12T12:25:22Z</time>
      </trkpt>
      <trkpt lat="41.0293210" lon="-2.1863330">
        <ele>1250.8</ele>
        <time>2020-09-12T12:25:23Z</time>
      </trkpt>
      <trkpt lat="41.0292400" lon="-2.1863010">
        <ele>1250.8</ele>
        <time>2020-09-12T12:25:24Z</time>
      </trkpt>
      <trkpt lat="41.0291580" lon="-2.1862730">
        <ele>1250.6</ele>
        <time>2020-09-12T12:25:25Z</time>
      </trkpt>
      <trkpt lat="41.0290740" lon="-2.1862490">
        <ele>1250.4</ele>
        <time>2020-09-12T12:25:26Z</time>
      </trkpt>
      <trkpt lat="41.0289900" lon="-2.1862290">
        <ele>1250.2</ele>
        <time>2020-09-12T12:25:27Z</time>
      </trkpt>
      <trkpt lat="41.0289050" lon="-2.1862120">
        <ele>1250.2</ele>
        <time>2020-09-12T12:25:28Z</time>
      </trkpt>
      <trkpt lat="41.0288200" lon="-2.1862010">
        <ele>1250.0</ele>
        <time>2020-09-12T12:25:29Z</time>
      </trkpt>
      <trkpt lat="41.0287350" lon="-2.1861930">
        <ele>1250.0</ele>
        <time>2020-09-12T12:25:30Z</time>
      </trkpt>
      <trkpt lat="41.0286500" lon="-2.1861880">
        <ele>1250.0</ele>
        <time>2020-09-12T12:25:31Z</time>
      </trkpt>
      <trkpt lat="41.0285650" lon="-2.1861860">
        <ele>1250.0</ele>
        <time>2020-09-12T12:25:32Z</time>
      </trkpt>
      <trkpt lat="41.0284810" lon="-2.1861870">
        <ele>1250.0</ele>
        <time>2020-09-12T12:25:33Z</time>
      </trkpt>
      <trkpt lat="41.0283980" lon="-2.1861900">
        <ele>1250.0</ele>
        <time>2020-09-12T12:25:34Z</time>
      </trkpt>
      <trkpt lat="41.0283150" lon="-2.1861980">
        <ele>1250.0</ele>
        <time>2020-09-12T12:25:35Z</time>
      </trkpt>
      <trkpt lat="41.0282320" lon="-2.1862080">
        <ele>1250.2</ele>
        <time>2020-09-12T12:25:36Z</time>
      </trkpt>
      <trkpt lat="41.0281490" lon="-2.1862190">
        <ele>1250.2</ele>
        <time>2020-09-12T12:25:37Z</time>
      </trkpt>
      <trkpt lat="41.0280660" lon="-2.1862300">
        <ele>1250.0</ele>
        <time>2020-09-12T12:25:38Z</time>
      </trkpt>
      <trkpt lat="41.0279840" lon="-2.1862440">
        <ele>1249.8</ele>
        <time>2020-09-12T12:25:39Z</time>
      </trkpt>
      <trkpt lat="41.0279010" lon="-2.1862590">
        <ele>1249.6</ele>
        <time>2020-09-12T12:25:40Z</time>
      </trkpt>
      <trkpt lat="41.0278180" lon="-2.1862740">
        <ele>1249.2</ele>
        <time>2020-09-12T12:25:41Z</time>
      </trkpt>
      <trkpt lat="41.0277350" lon="-2.1862880">
        <ele>1248.8</ele>
        <time>2020-09-12T12:25:42Z</time>
      </trkpt>
      <trkpt lat="41.0276520" lon="-2.1863060">
        <ele>1248.8</ele>
        <time>2020-09-12T12:25:43Z</time>
      </trkpt>
      <trkpt lat="41.0275690" lon="-2.1863270">
        <ele>1248.8</ele>
        <time>2020-09-12T12:25:44Z</time>
      </trkpt>
      <trkpt lat="41.0274860" lon="-2.1863470">
        <ele>1249.0</ele>
        <time>2020-09-12T12:25:45Z</time>
      </trkpt>
      <trkpt lat="41.0274020" lon="-2.1863670">
        <ele>1249.2</ele>
        <time>2020-09-12T12:25:46Z</time>
      </trkpt>
      <trkpt lat="41.0273190" lon="-2.1863870">
        <ele>1249.4</ele>
        <time>2020-09-12T12:25:47Z</time>
      </trkpt>
      <trkpt lat="41.0272360" lon="-2.1864090">
        <ele>1249.6</ele>
        <time>2020-09-12T12:25:48Z</time>
      </trkpt>
      <trkpt lat="41.0271530" lon="-2.1864330">
        <ele>1249.8</ele>
        <time>2020-09-12T12:25:49Z</time>
      </trkpt>
      <trkpt lat="41.0270700" lon="-2.1864590">
        <ele>1250.0</ele>
        <time>2020-09-12T12:25:50Z</time>
      </trkpt>
      <trkpt lat="41.0269880" lon="-2.1864870">
        <ele>1250.0</ele>
        <time>2020-09-12T12:25:51Z</time>
      </trkpt>
      <trkpt lat="41.0269050" lon="-2.1865160">
        <ele>1250.0</ele>
        <time>2020-09-12T12:25:52Z</time>
      </trkpt>
      <trkpt lat="41.0268230" lon="-2.1865470">
        <ele>1250.0</ele>
        <time>2020-09-12T12:25:53Z</time>
      </trkpt>
      <trkpt lat="41.0267410" lon="-2.1865810">
        <ele>1250.0</ele>
        <time>2020-09-12T12:25:54Z</time>
      </trkpt>
      <trkpt lat="41.0266610" lon="-2.1866170">
        <ele>1249.8</ele>
        <time>2020-09-12T12:25:55Z</time>
      </trkpt>
      <trkpt lat="41.0265820" lon="-2.1866530">
        <ele>1249.6</ele>
        <time>2020-09-12T12:25:56Z</time>
      </trkpt>
      <trkpt lat="41.0265030" lon="-2.1866910">
        <ele>1249.6</ele>
        <time>2020-09-12T12:25:57Z</time>
      </trkpt>
      <trkpt lat="41.0264270" lon="-2.1867310">
        <ele>1249.6</ele>
        <time>2020-09-12T12:25:58Z</time>
      </trkpt>
      <trkpt lat="41.0263530" lon="-2.1867780">
        <ele>1249.8</ele>
        <time>2020-09-12T12:25:59Z</time>
      </trkpt>
      <trkpt lat="41.0262810" lon="-2.1868260">
        <ele>1249.6</ele>
        <time>2020-09-12T12:26:00Z</time>
      </trkpt>
      <trkpt lat="41.0262090" lon="-2.1868750">
        <ele>1249.8</ele>
        <time>2020-09-12T12:26:01Z</time>
      </trkpt>
      <trkpt lat="41.0261380" lon="-2.1869260">
        <ele>1249.8</ele>
        <time>2020-09-12T12:26:02Z</time>
      </trkpt>
      <trkpt lat="41.0260680" lon="-2.1869770">
        <ele>1250.0</ele>
        <time>2020-09-12T12:26:03Z</time>
      </trkpt>
      <trkpt lat="41.0259990" lon="-2.1870290">
        <ele>1250.6</ele>
        <time>2020-09-12T12:26:04Z</time>
      </trkpt>
      <trkpt lat="41.0259320" lon="-2.1870810">
        <ele>1250.6</ele>
        <time>2020-09-12T12:26:05Z</time>
      </trkpt>
      <trkpt lat="41.0258670" lon="-2.1871350">
        <ele>1250.6</ele>
        <time>2020-09-12T12:26:06Z</time>
      </trkpt>
      <trkpt lat="41.0258050" lon="-2.1871910">
        <ele>1251.2</ele>
        <time>2020-09-12T12:26:07Z</time>
      </trkpt>
      <trkpt lat="41.0257420" lon="-2.1872440">
        <ele>1251.6</ele>
        <time>2020-09-12T12:26:08Z</time>
      </trkpt>
      <trkpt lat="41.0256780" lon="-2.1872920">
        <ele>1252.0</ele>
        <time>2020-09-12T12:26:09Z</time>
      </trkpt>
      <trkpt lat="41.0256150" lon="-2.1873380">
        <ele>1252.0</ele>
        <time>2020-09-12T12:26:10Z</time>
      </trkpt>
      <trkpt lat="41.0255520" lon="-2.1873850">
        <ele>1251.8</ele>
        <time>2020-09-12T12:26:11Z</time>
      </trkpt>
      <trkpt lat="41.0254900" lon="-2.1874310">
        <ele>1251.6</ele>
        <time>2020-09-12T12:26:12Z</time>
      </trkpt>
      <trkpt lat="41.0254290" lon="-2.1874760">
        <ele>1251.0</ele>
        <time>2020-09-12T12:26:13Z</time>
      </trkpt>
      <trkpt lat="41.0253670" lon="-2.1875200">
        <ele>1250.6</ele>
        <time>2020-09-12T12:26:14Z</time>
      </trkpt>
      <trkpt lat="41.0253040" lon="-2.1875630">
        <ele>1250.4</ele>
        <time>2020-09-12T12:26:15Z</time>
      </trkpt>
      <trkpt lat="41.0252400" lon="-2.1876050">
        <ele>1250.4</ele>
        <time>2020-09-12T12:26:16Z</time>
      </trkpt>
      <trkpt lat="41.0251760" lon="-2.1876450">
        <ele>1250.4</ele>
        <time>2020-09-12T12:26:17Z</time>
      </trkpt>
      <trkpt lat="41.0251120" lon="-2.1876810">
        <ele>1250.6</ele>
        <time>2020-09-12T12:26:18Z</time>
      </trkpt>
      <trkpt lat="41.0250470" lon="-2.1877150">
        <ele>1250.6</ele>
        <time>2020-09-12T12:26:19Z</time>
      </trkpt>
      <trkpt lat="41.0249810" lon="-2.1877460">
        <ele>1250.8</ele>
        <time>2020-09-12T12:26:20Z</time>
      </trkpt>
      <trkpt lat="41.0249130" lon="-2.1877750">
        <ele>1250.6</ele>
        <time>2020-09-12T12:26:21Z</time>
      </trkpt>
      <trkpt lat="41.0248430" lon="-2.1878040">
        <ele>1250.4</ele>
        <time>2020-09-12T12:26:22Z</time>
      </trkpt>
      <trkpt lat="41.0247720" lon="-2.1878290">
        <ele>1250.0</ele>
        <time>2020-09-12T12:26:23Z</time>
      </trkpt>
      <trkpt lat="41.0247030" lon="-2.1878490">
        <ele>1249.6</ele>
        <time>2020-09-12T12:26:24Z</time>
      </trkpt>
      <trkpt lat="41.0246320" lon="-2.1878650">
        <ele>1249.0</ele>
        <time>2020-09-12T12:26:25Z</time>
      </trkpt>
      <trkpt lat="41.0245590" lon="-2.1878800">
        <ele>1248.6</ele>
        <time>2020-09-12T12:26:26Z</time>
      </trkpt>
      <trkpt lat="41.0244860" lon="-2.1878940">
        <ele>1248.4</ele>
        <time>2020-09-12T12:26:27Z</time>
      </trkpt>
      <trkpt lat="41.0244120" lon="-2.1879040">
        <ele>1248.2</ele>
        <time>2020-09-12T12:26:28Z</time>
      </trkpt>
      <trkpt lat="41.0243370" lon="-2.1879120">
        <ele>1248.0</ele>
        <time>2020-09-12T12:26:29Z</time>
      </trkpt>
      <trkpt lat="41.0242620" lon="-2.1879170">
        <ele>1248.0</ele>
        <time>2020-09-12T12:26:30Z</time>
      </trkpt>
      <trkpt lat="41.0241850" lon="-2.1879160">
        <ele>1248.0</ele>
        <time>2020-09-12T12:26:31Z</time>
      </trkpt>
      <trkpt lat="41.0241080" lon="-2.1879110">
        <ele>1248.0</ele>
        <time>2020-09-12T12:26:32Z</time>
      </trkpt>
      <trkpt lat="41.0240290" lon="-2.1879030">
        <ele>1248.0</ele>
        <time>2020-09-12T12:26:33Z</time>
      </trkpt>
      <trkpt lat="41.0239500" lon="-2.1878920">
        <ele>1247.8</ele>
        <time>2020-09-12T12:26:34Z</time>
      </trkpt>
      <trkpt lat="41.0238700" lon="-2.1878770">
        <ele>1247.6</ele>
        <time>2020-09-12T12:26:35Z</time>
      </trkpt>
      <trkpt lat="41.0237890" lon="-2.1878590">
        <ele>1247.6</ele>
        <time>2020-09-12T12:26:36Z</time>
      </trkpt>
      <trkpt lat="41.0237090" lon="-2.1878340">
        <ele>1247.6</ele>
        <time>2020-09-12T12:26:37Z</time>
      </trkpt>
      <trkpt lat="41.0236290" lon="-2.1878070">
        <ele>1247.6</ele>
        <time>2020-09-12T12:26:38Z</time>
      </trkpt>
      <trkpt lat="41.0235500" lon="-2.1877760">
        <ele>1247.6</ele>
        <time>2020-09-12T12:26:39Z</time>
      </trkpt>
      <trkpt lat="41.0234720" lon="-2.1877420">
        <ele>1247.8</ele>
        <time>2020-09-12T12:26:40Z</time>
      </trkpt>
      <trkpt lat="41.0233950" lon="-2.1877030">
        <ele>1248.0</ele>
        <time>2020-09-12T12:26:41Z</time>
      </trkpt>
      <trkpt lat="41.0233200" lon="-2.1876600">
        <ele>1248.2</ele>
        <time>2020-09-12T12:26:42Z</time>
      </trkpt>
      <trkpt lat="41.0232460" lon="-2.1876150">
        <ele>1248.4</ele>
        <time>2020-09-12T12:26:43Z</time>
      </trkpt>
      <trkpt lat="41.0231750" lon="-2.1875670">
        <ele>1248.4</ele>
        <time>2020-09-12T12:26:44Z</time>
      </trkpt>
      <trkpt lat="41.0231040" lon="-2.1875140">
        <ele>1248.4</ele>
        <time>2020-09-12T12:26:45Z</time>
      </trkpt>
      <trkpt lat="41.0230360" lon="-2.1874600">
        <ele>1248.4</ele>
        <time>2020-09-12T12:26:46Z</time>
      </trkpt>
      <trkpt lat="41.0229680" lon="-2.1874050">
        <ele>1248.4</ele>
        <time>2020-09-12T12:26:47Z</time>
      </trkpt>
      <trkpt lat="41.0229020" lon="-2.1873460">
        <ele>1248.4</ele>
        <time>2020-09-12T12:26:48Z</time>
      </trkpt>
      <trkpt lat="41.0228370" lon="-2.1872830">
        <ele>1248.6</ele>
        <time>2020-09-12T12:26:49Z</time>
      </trkpt>
      <trkpt lat="41.0227760" lon="-2.1872160">
        <ele>1248.4</ele>
        <time>2020-09-12T12:26:50Z</time>
      </trkpt>
      <trkpt lat="41.0227160" lon="-2.1871470">
        <ele>1248.2</ele>
        <time>2020-09-12T12:26:51Z</time>
      </trkpt>
      <trkpt lat="41.0226590" lon="-2.1870750">
        <ele>1248.0</ele>
        <time>2020-09-12T12:26:52Z</time>
      </trkpt>
      <trkpt lat="41.0226030" lon="-2.1870010">
        <ele>1248.0</ele>
        <time>2020-09-12T12:26:53Z</time>
      </trkpt>
      <trkpt lat="41.0225490" lon="-2.1869250">
        <ele>1248.0</ele>
        <time>2020-09-12T12:26:54Z</time>
      </trkpt>
      <trkpt lat="41.0224950" lon="-2.1868490">
        <ele>1248.0</ele>
        <time>2020-09-12T12:26:55Z</time>
      </trkpt>
      <trkpt lat="41.0224440" lon="-2.1867720">
        <ele>1248.0</ele>
        <time>2020-09-12T12:26:56Z</time>
      </trkpt>
      <trkpt lat="41.0223970" lon="-2.1866900">
        <ele>1247.8</ele>
        <time>2020-09-12T12:26:57Z</time>
      </trkpt>
      <trkpt lat="41.0223520" lon="-2.1866050">
        <ele>1247.8</ele>
        <time>2020-09-12T12:26:58Z</time>
      </trkpt>
      <trkpt lat="41.0223100" lon="-2.1865200">
        <ele>1247.8</ele>
        <time>2020-09-12T12:26:59Z</time>
      </trkpt>
      <trkpt lat="41.0222700" lon="-2.1864320">
        <ele>1247.8</ele>
        <time>2020-09-12T12:27:00Z</time>
      </trkpt>
      <trkpt lat="41.0222320" lon="-2.1863430">
        <ele>1247.6</ele>
        <time>2020-09-12T12:27:01Z</time>
      </trkpt>
      <trkpt lat="41.0221940" lon="-2.1862540">
        <ele>1247.6</ele>
        <time>2020-09-12T12:27:02Z</time>
      </trkpt>
      <trkpt lat="41.0221610" lon="-2.1861630">
        <ele>1247.4</ele>
        <time>2020-09-12T12:27:03Z</time>
      </trkpt>
      <trkpt lat="41.0221300" lon="-2.1860710">
        <ele>1247.4</ele>
        <time>2020-09-12T12:27:04Z</time>
      </trkpt>
      <trkpt lat="41.0221030" lon="-2.1859780">
        <ele>1247.4</ele>
        <time>2020-09-12T12:27:05Z</time>
      </trkpt>
      <trkpt lat="41.0220780" lon="-2.1858840">
        <ele>1247.2</ele>
        <time>2020-09-12T12:27:06Z</time>
      </trkpt>
      <trkpt lat="41.0220560" lon="-2.1857890">
        <ele>1247.0</ele>
        <time>2020-09-12T12:27:07Z</time>
      </trkpt>
      <trkpt lat="41.0220330" lon="-2.1856940">
        <ele>1247.0</ele>
        <time>2020-09-12T12:27:08Z</time>
      </trkpt>
      <trkpt lat="41.0220130" lon="-2.1855970">
        <ele>1247.0</ele>
        <time>2020-09-12T12:27:09Z</time>
      </trkpt>
      <trkpt lat="41.0219970" lon="-2.1854990">
        <ele>1247.0</ele>
        <time>2020-09-12T12:27:10Z</time>
      </trkpt>
      <trkpt lat="41.0219810" lon="-2.1854030">
        <ele>1247.2</ele>
        <time>2020-09-12T12:27:11Z</time>
      </trkpt>
      <trkpt lat="41.0219640" lon="-2.1853090">
        <ele>1247.2</ele>
        <time>2020-09-12T12:27:12Z</time>
      </trkpt>
      <trkpt lat="41.0219490" lon="-2.1852140">
        <ele>1247.2</ele>
        <time>2020-09-12T12:27:13Z</time>
      </trkpt>
      <trkpt lat="41.0219370" lon="-2.1851200">
        <ele>1247.2</ele>
        <time>2020-09-12T12:27:14Z</time>
      </trkpt>
      <trkpt lat="41.0219260" lon="-2.1850240">
        <ele>1247.2</ele>
        <time>2020-09-12T12:27:15Z</time>
      </trkpt>
      <trkpt lat="41.0219140" lon="-2.1849290">
        <ele>1247.4</ele>
        <time>2020-09-12T12:27:16Z</time>
      </trkpt>
      <trkpt lat="41.0219010" lon="-2.1848350">
        <ele>1247.4</ele>
        <time>2020-09-12T12:27:17Z</time>
      </trkpt>
      <trkpt lat="41.0218880" lon="-2.1847400">
        <ele>1247.4</ele>
        <time>2020-09-12T12:27:18Z</time>
      </trkpt>
      <trkpt lat="41.0218760" lon="-2.1846460">
        <ele>1247.6</ele>
        <time>2020-09-12T12:27:19Z</time>
      </trkpt>
      <trkpt lat="41.0218640" lon="-2.1845530">
        <ele>1247.8</ele>
        <time>2020-09-12T12:27:20Z</time>
      </trkpt>
      <trkpt lat="41.0218530" lon="-2.1844590">
        <ele>1248.0</ele>
        <time>2020-09-12T12:27:21Z</time>
      </trkpt>
      <trkpt lat="41.0218420" lon="-2.1843650">
        <ele>1248.0</ele>
        <time>2020-09-12T12:27:22Z</time>
      </trkpt>
      <trkpt lat="41.0218300" lon="-2.1842730">
        <ele>1248.0</ele>
        <time>2020-09-12T12:27:23Z</time>
      </trkpt>
      <trkpt lat="41.0218160" lon="-2.1841830">
        <ele>1248.0</ele>
        <time>2020-09-12T12:27:24Z</time>
      </trkpt>
      <trkpt lat="41.0217990" lon="-2.1840960">
        <ele>1248.2</ele>
        <time>2020-09-12T12:27:25Z</time>
      </trkpt>
      <trkpt lat="41.0217800" lon="-2.1840070">
        <ele>1248.2</ele>
        <time>2020-09-12T12:27:26Z</time>
      </trkpt>
      <trkpt lat="41.0217620" lon="-2.1839200">
        <ele>1248.4</ele>
        <time>2020-09-12T12:27:27Z</time>
      </trkpt>
      <trkpt lat="41.0217410" lon="-2.1838350">
        <ele>1248.6</ele>
        <time>2020-09-12T12:27:28Z</time>
      </trkpt>
      <trkpt lat="41.0217170" lon="-2.1837520">
        <ele>1248.8</ele>
        <time>2020-09-12T12:27:29Z</time>
      </trkpt>
      <trkpt lat="41.0216910" lon="-2.1836690">
        <ele>1248.8</ele>
        <time>2020-09-12T12:27:30Z</time>
      </trkpt>
      <trkpt lat="41.0216630" lon="-2.1835870">
        <ele>1249.0</ele>
        <time>2020-09-12T12:27:31Z</time>
      </trkpt>
      <trkpt lat="41.0216330" lon="-2.1835060">
        <ele>1249.2</ele>
        <time>2020-09-12T12:27:32Z</time>
      </trkpt>
      <trkpt lat="41.0216000" lon="-2.1834270">
        <ele>1249.4</ele>
        <time>2020-09-12T12:27:33Z</time>
      </trkpt>
      <trkpt lat="41.0215650" lon="-2.1833520">
        <ele>1249.6</ele>
        <time>2020-09-12T12:27:34Z</time>
      </trkpt>
      <trkpt lat="41.0215270" lon="-2.1832780">
        <ele>1249.8</ele>
        <time>2020-09-12T12:27:35Z</time>
      </trkpt>
      <trkpt lat="41.0214860" lon="-2.1832050">
        <ele>1249.8</ele>
        <time>2020-09-12T12:27:36Z</time>
      </trkpt>
      <trkpt lat="41.0214440" lon="-2.1831350">
        <ele>1250.0</ele>
        <time>2020-09-12T12:27:37Z</time>
      </trkpt>
      <trkpt lat="41.0213990" lon="-2.1830670">
        <ele>1250.0</ele>
        <time>2020-09-12T12:27:38Z</time>
      </trkpt>
      <trkpt lat="41.0213530" lon="-2.1830000">
        <ele>1250.2</ele>
        <time>2020-09-12T12:27:39Z</time>
      </trkpt>
      <trkpt lat="41.0213070" lon="-2.1829330">
        <ele>1250.2</ele>
        <time>2020-09-12T12:27:40Z</time>
      </trkpt>
      <trkpt lat="41.0212600" lon="-2.1828640">
        <ele>1250.2</ele>
        <time>2020-09-12T12:27:41Z</time>
      </trkpt>
      <trkpt lat="41.0212130" lon="-2.1827980">
        <ele>1250.2</ele>
        <time>2020-09-12T12:27:42Z</time>
      </trkpt>
      <trkpt lat="41.0211640" lon="-2.1827330">
        <ele>1250.2</ele>
        <time>2020-09-12T12:27:43Z</time>
      </trkpt>
      <trkpt lat="41.0211150" lon="-2.1826650">
        <ele>1250.2</ele>
        <time>2020-09-12T12:27:44Z</time>
      </trkpt>
      <trkpt lat="41.0210650" lon="-2.1825980">
        <ele>1250.2</ele>
        <time>2020-09-12T12:27:45Z</time>
      </trkpt>
      <trkpt lat="41.0210140" lon="-2.1825320">
        <ele>1250.2</ele>
        <time>2020-09-12T12:27:46Z</time>
      </trkpt>
      <trkpt lat="41.0209620" lon="-2.1824650">
        <ele>1250.4</ele>
        <time>2020-09-12T12:27:47Z</time>
      </trkpt>
      <trkpt lat="41.0209100" lon="-2.1823980">
        <ele>1250.6</ele>
        <time>2020-09-12T12:27:48Z</time>
      </trkpt>
      <trkpt lat="41.0208570" lon="-2.1823290">
        <ele>1250.6</ele>
        <time>2020-09-12T12:27:49Z</time>
      </trkpt>
      <trkpt lat="41.0208050" lon="-2.1822590">
        <ele>1250.8</ele>
        <time>2020-09-12T12:27:50Z</time>
      </trkpt>
      <trkpt lat="41.0207540" lon="-2.1821850">
        <ele>1250.8</ele>
        <time>2020-09-12T12:27:51Z</time>
      </trkpt>
      <trkpt lat="41.0207030" lon="-2.1821100">
        <ele>1250.8</ele>
        <time>2020-09-12T12:27:52Z</time>
      </trkpt>
      <trkpt lat="41.0206500" lon="-2.1820360">
        <ele>1250.8</ele>
        <time>2020-09-12T12:27:53Z</time>
      </trkpt>
      <trkpt lat="41.0205950" lon="-2.1819630">
        <ele>1250.8</ele>
        <time>2020-09-12T12:27:54Z</time>
      </trkpt>
      <trkpt lat="41.0205370" lon="-2.1818880">
        <ele>1250.8</ele>
        <time>2020-09-12T12:27:55Z</time>
      </trkpt>
      <trkpt lat="41.0204790" lon="-2.1818130">
        <ele>1250.8</ele>
        <time>2020-09-12T12:27:56Z</time>
      </trkpt>
      <trkpt lat="41.0204210" lon="-2.1817360">
        <ele>1250.8</ele>
        <time>2020-09-12T12:27:57Z</time>
      </trkpt>
      <trkpt lat="41.0203630" lon="-2.1816590">
        <ele>1250.8</ele>
        <time>2020-09-12T12:27:58Z</time>
      </trkpt>
      <trkpt lat="41.0203050" lon="-2.1815820">
        <ele>1250.8</ele>
        <time>2020-09-12T12:27:59Z</time>
      </trkpt>
      <trkpt lat="41.0202480" lon="-2.1815040">
        <ele>1251.0</ele>
        <time>2020-09-12T12:28:00Z</time>
      </trkpt>
      <trkpt lat="41.0201330" lon="-2.1813540">
        <ele>1251.0</ele>
        <time>2020-09-12T12:28:02Z</time>
      </trkpt>
      <trkpt lat="41.0200740" lon="-2.1812810">
        <ele>1251.0</ele>
        <time>2020-09-12T12:28:03Z</time>
      </trkpt>
      <trkpt lat="41.0200170" lon="-2.1812060">
        <ele>1251.0</ele>
        <time>2020-09-12T12:28:04Z</time>
      </trkpt>
      <trkpt lat="41.0199610" lon="-2.1811320">
        <ele>1251.0</ele>
        <time>2020-09-12T12:28:05Z</time>
      </trkpt>
      <trkpt lat="41.0199030" lon="-2.1810580">
        <ele>1251.0</ele>
        <time>2020-09-12T12:28:06Z</time>
      </trkpt>
      <trkpt lat="41.0198460" lon="-2.1809850">
        <ele>1251.0</ele>
        <time>2020-09-12T12:28:07Z</time>
      </trkpt>
      <trkpt lat="41.0197890" lon="-2.1809130">
        <ele>1251.0</ele>
        <time>2020-09-12T12:28:08Z</time>
      </trkpt>
      <trkpt lat="41.0197320" lon="-2.1808400">
        <ele>1251.0</ele>
        <time>2020-09-12T12:28:09Z</time>
      </trkpt>
      <trkpt lat="41.0196740" lon="-2.1807690">
        <ele>1251.0</ele>
        <time>2020-09-12T12:28:10Z</time>
      </trkpt>
      <trkpt lat="41.0196160" lon="-2.1806990">
        <ele>1251.0</ele>
        <time>2020-09-12T12:28:11Z</time>
      </trkpt>
      <trkpt lat="41.0195580" lon="-2.1806280">
        <ele>1250.8</ele>
        <time>2020-09-12T12:28:12Z</time>
      </trkpt>
      <trkpt lat="41.0195010" lon="-2.1805560">
        <ele>1250.6</ele>
        <time>2020-09-12T12:28:13Z</time>
      </trkpt>
      <trkpt lat="41.0194460" lon="-2.1804830">
        <ele>1250.6</ele>
        <time>2020-09-12T12:28:14Z</time>
      </trkpt>
      <trkpt lat="41.0193910" lon="-2.1804080">
        <ele>1250.6</ele>
        <time>2020-09-12T12:28:15Z</time>
      </trkpt>
      <trkpt lat="41.0193370" lon="-2.1803370">
        <ele>1250.6</ele>
        <time>2020-09-12T12:28:16Z</time>
      </trkpt>
      <trkpt lat="41.0192810" lon="-2.1802680">
        <ele>1250.6</ele>
        <time>2020-09-12T12:28:17Z</time>
      </trkpt>
      <trkpt lat="41.0192260" lon="-2.1802000">
        <ele>1250.6</ele>
        <time>2020-09-12T12:28:18Z</time>
      </trkpt>
      <trkpt lat="41.0191720" lon="-2.1801340">
        <ele>1250.8</ele>
        <time>2020-09-12T12:28:19Z</time>
      </trkpt>
      <trkpt lat="41.0191170" lon="-2.1800690">
        <ele>1250.8</ele>
        <time>2020-09-12T12:28:20Z</time>
      </trkpt>
      <trkpt lat="41.0190630" lon="-2.1800070">
        <ele>1250.8</ele>
        <time>2020-09-12T12:28:21Z</time>
      </trkpt>
      <trkpt lat="41.0190080" lon="-2.1799470">
        <ele>1250.8</ele>
        <time>2020-09-12T12:28:22Z</time>
      </trkpt>
      <trkpt lat="41.0189530" lon="-2.1798870">
        <ele>1250.8</ele>
        <time>2020-09-12T12:28:23Z</time>
      </trkpt>
      <trkpt lat="41.0188970" lon="-2.1798280">
        <ele>1250.8</ele>
        <time>2020-09-12T12:28:24Z</time>
      </trkpt>
      <trkpt lat="41.0188400" lon="-2.1797710">
        <ele>1250.8</ele>
        <time>2020-09-12T12:28:25Z</time>
      </trkpt>
      <trkpt lat="41.0187820" lon="-2.1797160">
        <ele>1251.0</ele>
        <time>2020-09-12T12:28:26Z</time>
      </trkpt>
      <trkpt lat="41.0187220" lon="-2.1796670">
        <ele>1251.0</ele>
        <time>2020-09-12T12:28:27Z</time>
      </trkpt>
      <trkpt lat="41.0186600" lon="-2.1796230">
        <ele>1251.2</ele>
        <time>2020-09-12T12:28:28Z</time>
      </trkpt>
      <trkpt lat="41.0185970" lon="-2.1795810">
        <ele>1251.4</ele>
        <time>2020-09-12T12:28:29Z</time>
      </trkpt>
      <trkpt lat="41.0185360" lon="-2.1795410">
        <ele>1251.6</ele>
        <time>2020-09-12T12:28:30Z</time>
      </trkpt>
      <trkpt lat="41.0184740" lon="-2.1795040">
        <ele>1251.6</ele>
        <time>2020-09-12T12:28:31Z</time>
      </trkpt>
      <trkpt lat="41.0184120" lon="-2.1794690">
        <ele>1251.8</ele>
        <time>2020-09-12T12:28:32Z</time>
      </trkpt>
      <trkpt lat="41.0183510" lon="-2.1794370">
        <ele>1252.2</ele>
        <time>2020-09-12T12:28:33Z</time>
      </trkpt>
      <trkpt lat="41.0182900" lon="-2.1794080">
        <ele>1252.6</ele>
        <time>2020-09-12T12:28:34Z</time>
      </trkpt>
      <trkpt lat="41.0182300" lon="-2.1793800">
        <ele>1253.2</ele>
        <time>2020-09-12T12:28:35Z</time>
      </trkpt>
      <trkpt lat="41.0181710" lon="-2.1793500">
        <ele>1253.4</ele>
        <time>2020-09-12T12:28:36Z</time>
      </trkpt>
      <trkpt lat="41.0181130" lon="-2.1793200">
        <ele>1253.6</ele>
        <time>2020-09-12T12:28:37Z</time>
      </trkpt>
      <trkpt lat="41.0180580" lon="-2.1792900">
        <ele>1253.6</ele>
        <time>2020-09-12T12:28:38Z</time>
      </trkpt>
      <trkpt lat="41.0180030" lon="-2.1792620">
        <ele>1253.4</ele>
        <time>2020-09-12T12:28:39Z</time>
      </trkpt>
      <trkpt lat="41.0179470" lon="-2.1792340">
        <ele>1253.2</ele>
        <time>2020-09-12T12:28:40Z</time>
      </trkpt>
      <trkpt lat="41.0178920" lon="-2.1792050">
        <ele>1253.0</ele>
        <time>2020-09-12T12:28:41Z</time>
      </trkpt>
      <trkpt lat="41.0178370" lon="-2.1791780">
        <ele>1252.8</ele>
        <time>2020-09-12T12:28:42Z</time>
      </trkpt>
      <trkpt lat="41.0177810" lon="-2.1791520">
        <ele>1252.8</ele>
        <time>2020-09-12T12:28:43Z</time>
      </trkpt>
      <trkpt lat="41.0177260" lon="-2.1791230">
        <ele>1252.6</ele>
        <time>2020-09-12T12:28:44Z</time>
      </trkpt>
      <trkpt lat="41.0176700" lon="-2.1790940">
        <ele>1252.6</ele>
        <time>2020-09-12T12:28:45Z</time>
      </trkpt>
      <trkpt lat="41.0176140" lon="-2.1790680">
        <ele>1252.6</ele>
        <time>2020-09-12T12:28:46Z</time>
      </trkpt>
      <trkpt lat="41.0175570" lon="-2.1790420">
        <ele>1252.6</ele>
        <time>2020-09-12T12:28:47Z</time>
      </trkpt>
      <trkpt lat="41.0175010" lon="-2.1790120">
        <ele>1252.6</ele>
        <time>2020-09-12T12:28:48Z</time>
      </trkpt>
      <trkpt lat="41.0174440" lon="-2.1789820">
        <ele>1252.8</ele>
        <time>2020-09-12T12:28:49Z</time>
      </trkpt>
      <trkpt lat="41.0173840" lon="-2.1789490">
        <ele>1252.8</ele>
        <time>2020-09-12T12:28:50Z</time>
      </trkpt>
      <trkpt lat="41.0173240" lon="-2.1789170">
        <ele>1253.0</ele>
        <time>2020-09-12T12:28:51Z</time>
      </trkpt>
      <trkpt lat="41.0172620" lon="-2.1788850">
        <ele>1253.2</ele>
        <time>2020-09-12T12:28:52Z</time>
      </trkpt>
      <trkpt lat="41.0172000" lon="-2.1788540">
        <ele>1253.2</ele>
        <time>2020-09-12T12:28:53Z</time>
      </trkpt>
      <trkpt lat="41.0171390" lon="-2.1788250">
        <ele>1253.6</ele>
        <time>2020-09-12T12:28:54Z</time>
      </trkpt>
      <trkpt lat="41.0170790" lon="-2.1787920">
        <ele>1253.8</ele>
        <time>2020-09-12T12:28:55Z</time>
      </trkpt>
      <trkpt lat="41.0170200" lon="-2.1787580">
        <ele>1254.2</ele>
        <time>2020-09-12T12:28:56Z</time>
      </trkpt>
      <trkpt lat="41.0169610" lon="-2.1787270">
        <ele>1254.6</ele>
        <time>2020-09-12T12:28:57Z</time>
      </trkpt>
      <trkpt lat="41.0169030" lon="-2.1786960">
        <ele>1254.8</ele>
        <time>2020-09-12T12:28:58Z</time>
      </trkpt>
      <trkpt lat="41.0168480" lon="-2.1786610">
        <ele>1255.0</ele>
        <time>2020-09-12T12:28:59Z</time>
      </trkpt>
      <trkpt lat="41.0167940" lon="-2.1786260">
        <ele>1255.0</ele>
        <time>2020-09-12T12:29:00Z</time>
      </trkpt>
      <trkpt lat="41.0167400" lon="-2.1785910">
        <ele>1255.0</ele>
        <time>2020-09-12T12:29:01Z</time>
      </trkpt>
      <trkpt lat="41.0166850" lon="-2.1785540">
        <ele>1254.6</ele>
        <time>2020-09-12T12:29:02Z</time>
      </trkpt>
      <trkpt lat="41.0166310" lon="-2.1785160">
        <ele>1254.6</ele>
        <time>2020-09-12T12:29:03Z</time>
      </trkpt>
      <trkpt lat="41.0165780" lon="-2.1784770">
        <ele>1254.4</ele>
        <time>2020-09-12T12:29:04Z</time>
      </trkpt>
      <trkpt lat="41.0165250" lon="-2.1784320">
        <ele>1254.4</ele>
        <time>2020-09-12T12:29:05Z</time>
      </trkpt>
      <trkpt lat="41.0164740" lon="-2.1783840">
        <ele>1254.2</ele>
        <time>2020-09-12T12:29:06Z</time>
      </trkpt>
      <trkpt lat="41.0164250" lon="-2.1783370">
        <ele>1254.4</ele>
        <time>2020-09-12T12:29:07Z</time>
      </trkpt>
      <trkpt lat="41.0163770" lon="-2.1782880">
        <ele>1254.4</ele>
        <time>2020-09-12T12:29:08Z</time>
      </trkpt>
      <trkpt lat="41.0163310" lon="-2.1782340">
        <ele>1254.6</ele>
        <time>2020-09-12T12:29:09Z</time>
      </trkpt>
      <trkpt lat="41.0162860" lon="-2.1781800">
        <ele>1254.6</ele>
        <time>2020-09-12T12:29:10Z</time>
      </trkpt>
      <trkpt lat="41.0162410" lon="-2.1781240">
        <ele>1254.6</ele>
        <time>2020-09-12T12:29:11Z</time>
      </trkpt>
      <trkpt lat="41.0161980" lon="-2.1780660">
        <ele>1254.8</ele>
        <time>2020-09-12T12:29:12Z</time>
      </trkpt>
      <trkpt lat="41.0161560" lon="-2.1780050">
        <ele>1255.0</ele>
        <time>2020-09-12T12:29:13Z</time>
      </trkpt>
      <trkpt lat="41.0161160" lon="-2.1779440">
        <ele>1255.0</ele>
        <time>2020-09-12T12:29:14Z</time>
      </trkpt>
      <trkpt lat="41.0160760" lon="-2.1778820">
        <ele>1255.0</ele>
        <time>2020-09-12T12:29:15Z</time>
      </trkpt>
      <trkpt lat="41.0160360" lon="-2.1778210">
        <ele>1255.2</ele>
        <time>2020-09-12T12:29:16Z</time>
      </trkpt>
      <trkpt lat="41.0159980" lon="-2.1777570">
        <ele>1255.2</ele>
        <time>2020-09-12T12:29:17Z</time>
      </trkpt>
      <trkpt lat="41.0159610" lon="-2.1776920">
        <ele>1255.4</ele>
        <time>2020-09-12T12:29:18Z</time>
      </trkpt>
      <trkpt lat="41.0159250" lon="-2.1776280">
        <ele>1255.4</ele>
        <time>2020-09-12T12:29:19Z</time>
      </trkpt>
      <trkpt lat="41.0158880" lon="-2.1775650">
        <ele>1255.4</ele>
        <time>2020-09-12T12:29:20Z</time>
      </trkpt>
      <trkpt lat="41.0158500" lon="-2.1775010">
        <ele>1255.4</ele>
        <time>2020-09-12T12:29:21Z</time>
      </trkpt>
      <trkpt lat="41.0158120" lon="-2.1774370">
        <ele>1255.4</ele>
        <time>2020-09-12T12:29:22Z</time>
      </trkpt>
      <trkpt lat="41.0157740" lon="-2.1773720">
        <ele>1255.6</ele>
        <time>2020-09-12T12:29:23Z</time>
      </trkpt>
      <trkpt lat="41.0157370" lon="-2.1773050">
        <ele>1255.6</ele>
        <time>2020-09-12T12:29:24Z</time>
      </trkpt>
      <trkpt lat="41.0157010" lon="-2.1772400">
        <ele>1255.8</ele>
        <time>2020-09-12T12:29:25Z</time>
      </trkpt>
      <trkpt lat="41.0156640" lon="-2.1771760">
        <ele>1256.0</ele>
        <time>2020-09-12T12:29:26Z</time>
      </trkpt>
      <trkpt lat="41.0156280" lon="-2.1771120">
        <ele>1256.0</ele>
        <time>2020-09-12T12:29:27Z</time>
      </trkpt>
      <trkpt lat="41.0155910" lon="-2.1770470">
        <ele>1256.2</ele>
        <time>2020-09-12T12:29:28Z</time>
      </trkpt>
      <trkpt lat="41.0155540" lon="-2.1769820">
        <ele>1256.4</ele>
        <time>2020-09-12T12:29:29Z</time>
      </trkpt>
      <trkpt lat="41.0155170" lon="-2.1769190">
        <ele>1256.6</ele>
        <time>2020-09-12T12:29:30Z</time>
      </trkpt>
      <trkpt lat="41.0154800" lon="-2.1768550">
        <ele>1256.8</ele>
        <time>2020-09-12T12:29:31Z</time>
      </trkpt>
      <trkpt lat="41.0154430" lon="-2.1767910">
        <ele>1256.8</ele>
        <time>2020-09-12T12:29:32Z</time>
      </trkpt>
      <trkpt lat="41.0154070" lon="-2.1767270">
        <ele>1257.0</ele>
        <time>2020-09-12T12:29:33Z</time>
      </trkpt>
      <trkpt lat="41.0153710" lon="-2.1766640">
        <ele>1257.2</ele>
        <time>2020-09-12T12:29:34Z</time>
      </trkpt>
      <trkpt lat="41.0153320" lon="-2.1766010">
        <ele>1257.2</ele>
        <time>2020-09-12T12:29:35Z</time>
      </trkpt>
      <trkpt lat="41.0152940" lon="-2.1765400">
        <ele>1257.2</ele>
        <time>2020-09-12T12:29:36Z</time>
      </trkpt>
      <trkpt lat="41.0152550" lon="-2.1764790">
        <ele>1257.4</ele>
        <time>2020-09-12T12:29:37Z</time>
      </trkpt>
      <trkpt lat="41.0152180" lon="-2.1764180">
        <ele>1257.6</ele>
        <time>2020-09-12T12:29:38Z</time>
      </trkpt>
      <trkpt lat="41.0151810" lon="-2.1763560">
        <ele>1257.8</ele>
        <time>2020-09-12T12:29:39Z</time>
      </trkpt>
      <trkpt lat="41.0151440" lon="-2.1762970">
        <ele>1258.0</ele>
        <time>2020-09-12T12:29:40Z</time>
      </trkpt>
      <trkpt lat="41.0151070" lon="-2.1762400">
        <ele>1258.2</ele>
        <time>2020-09-12T12:29:41Z</time>
      </trkpt>
      <trkpt lat="41.0150680" lon="-2.1761840">
        <ele>1258.2</ele>
        <time>2020-09-12T12:29:42Z</time>
      </trkpt>
      <trkpt lat="41.0150300" lon="-2.1761280">
        <ele>1258.4</ele>
        <time>2020-09-12T12:29:43Z</time>
      </trkpt>
      <trkpt lat="41.0149910" lon="-2.1760720">
        <ele>1258.4</ele>
        <time>2020-09-12T12:29:44Z</time>
      </trkpt>
      <trkpt lat="41.0149530" lon="-2.1760150">
        <ele>1258.4</ele>
        <time>2020-09-12T12:29:45Z</time>
      </trkpt>
      <trkpt lat="41.0149140" lon="-2.1759580">
        <ele>1258.6</ele>
        <time>2020-09-12T12:29:46Z</time>
      </trkpt>
      <trkpt lat="41.0148740" lon="-2.1759010">
        <ele>1258.8</ele>
        <time>2020-09-12T12:29:47Z</time>
      </trkpt>
      <trkpt lat="41.0148360" lon="-2.1758450">
        <ele>1259.0</ele>
        <time>2020-09-12T12:29:48Z</time>
      </trkpt>
      <trkpt lat="41.0147970" lon="-2.1757890">
        <ele>1259.2</ele>
        <time>2020-09-12T12:29:49Z</time>
      </trkpt>
      <trkpt lat="41.0147570" lon="-2.1757320">
        <ele>1259.2</ele>
        <time>2020-09-12T12:29:50Z</time>
      </trkpt>
      <trkpt lat="41.0147180" lon="-2.1756750">
        <ele>1259.4</ele>
        <time>2020-09-12T12:29:51Z</time>
      </trkpt>
      <trkpt lat="41.0146780" lon="-2.1756170">
        <ele>1259.6</ele>
        <time>2020-09-12T12:29:52Z</time>
      </trkpt>
      <trkpt lat="41.0146360" lon="-2.1755590">
        <ele>1259.8</ele>
        <time>2020-09-12T12:29:53Z</time>
      </trkpt>
      <trkpt lat="41.0145940" lon="-2.1755010">
        <ele>1260.2</ele>
        <time>2020-09-12T12:29:54Z</time>
      </trkpt>
      <trkpt lat="41.0145510" lon="-2.1754410">
        <ele>1260.4</ele>
        <time>2020-09-12T12:29:55Z</time>
      </trkpt>
      <trkpt lat="41.0145080" lon="-2.1753810">
        <ele>1260.6</ele>
        <time>2020-09-12T12:29:56Z</time>
      </trkpt>
      <trkpt lat="41.0144630" lon="-2.1753190">
        <ele>1260.8</ele>
        <time>2020-09-12T12:29:57Z</time>
      </trkpt>
      <trkpt lat="41.0144170" lon="-2.1752570">
        <ele>1261.0</ele>
        <time>2020-09-12T12:29:58Z</time>
      </trkpt>
      <trkpt lat="41.0143710" lon="-2.1751960">
        <ele>1261.2</ele>
        <time>2020-09-12T12:29:59Z</time>
      </trkpt>
      <trkpt lat="41.0143250" lon="-2.1751330">
        <ele>1261.4</ele>
        <time>2020-09-12T12:30:00Z</time>
      </trkpt>
      <trkpt lat="41.0142790" lon="-2.1750700">
        <ele>1261.6</ele>
        <time>2020-09-12T12:30:01Z</time>
      </trkpt>
      <trkpt lat="41.0142320" lon="-2.1750050">
        <ele>1261.8</ele>
        <time>2020-09-12T12:30:02Z</time>
      </trkpt>
      <trkpt lat="41.0141840" lon="-2.1749410">
        <ele>1261.8</ele>
        <time>2020-09-12T12:30:03Z</time>
      </trkpt>
      <trkpt lat="41.0141350" lon="-2.1748750">
        <ele>1261.8</ele>
        <time>2020-09-12T12:30:04Z</time>
      </trkpt>
      <trkpt lat="41.0140860" lon="-2.1748080">
        <ele>1261.8</ele>
        <time>2020-09-12T12:30:05Z</time>
      </trkpt>
      <trkpt lat="41.0140380" lon="-2.1747400">
        <ele>1262.0</ele>
        <time>2020-09-12T12:30:06Z</time>
      </trkpt>
      <trkpt lat="41.0139900" lon="-2.1746710">
        <ele>1262.0</ele>
        <time>2020-09-12T12:30:07Z</time>
      </trkpt>
      <trkpt lat="41.0139420" lon="-2.1746030">
        <ele>1262.0</ele>
        <time>2020-09-12T12:30:08Z</time>
      </trkpt>
      <trkpt lat="41.0138940" lon="-2.1745340">
        <ele>1262.2</ele>
        <time>2020-09-12T12:30:09Z</time>
      </trkpt>
      <trkpt lat="41.0138460" lon="-2.1744650">
        <ele>1262.4</ele>
        <time>2020-09-12T12:30:10Z</time>
      </trkpt>
      <trkpt lat="41.0137980" lon="-2.1743950">
        <ele>1262.6</ele>
        <time>2020-09-12T12:30:11Z</time>
      </trkpt>
      <trkpt lat="41.0137520" lon="-2.1743260">
        <ele>1262.8</ele>
        <time>2020-09-12T12:30:12Z</time>
      </trkpt>
      <trkpt lat="41.0137050" lon="-2.1742570">
        <ele>1263.0</ele>
        <time>2020-09-12T12:30:13Z</time>
      </trkpt>
      <trkpt lat="41.0136590" lon="-2.1741860">
        <ele>1263.2</ele>
        <time>2020-09-12T12:30:14Z</time>
      </trkpt>
      <trkpt lat="41.0136130" lon="-2.1741140">
        <ele>1263.2</ele>
        <time>2020-09-12T12:30:15Z</time>
      </trkpt>
      <trkpt lat="41.0135660" lon="-2.1740390">
        <ele>1263.4</ele>
        <time>2020-09-12T12:30:16Z</time>
      </trkpt>
      <trkpt lat="41.0135190" lon="-2.1739630">
        <ele>1263.4</ele>
        <time>2020-09-12T12:30:17Z</time>
      </trkpt>
      <trkpt lat="41.0134710" lon="-2.1738870">
        <ele>1263.6</ele>
        <time>2020-09-12T12:30:18Z</time>
      </trkpt>
      <trkpt lat="41.0134230" lon="-2.1738120">
        <ele>1263.6</ele>
        <time>2020-09-12T12:30:19Z</time>
      </trkpt>
      <trkpt lat="41.0133750" lon="-2.1737360">
        <ele>1263.8</ele>
        <time>2020-09-12T12:30:20Z</time>
      </trkpt>
      <trkpt lat="41.0133280" lon="-2.1736620">
        <ele>1264.0</ele>
        <time>2020-09-12T12:30:21Z</time>
      </trkpt>
      <trkpt lat="41.0132830" lon="-2.1735870">
        <ele>1264.2</ele>
        <time>2020-09-12T12:30:22Z</time>
      </trkpt>
      <trkpt lat="41.0132370" lon="-2.1735140">
        <ele>1264.4</ele>
        <time>2020-09-12T12:30:23Z</time>
      </trkpt>
      <trkpt lat="41.0131930" lon="-2.1734400">
        <ele>1264.6</ele>
        <time>2020-09-12T12:30:24Z</time>
      </trkpt>
      <trkpt lat="41.0131490" lon="-2.1733670">
        <ele>1264.6</ele>
        <time>2020-09-12T12:30:25Z</time>
      </trkpt>
      <trkpt lat="41.0131050" lon="-2.1732950">
        <ele>1264.8</ele>
        <time>2020-09-12T12:30:26Z</time>
      </trkpt>
      <trkpt lat="41.0130600" lon="-2.1732230">
        <ele>1265.0</ele>
        <time>2020-09-12T12:30:27Z</time>
      </trkpt>
      <trkpt lat="41.0130170" lon="-2.1731510">
        <ele>1265.2</ele>
        <time>2020-09-12T12:30:28Z</time>
      </trkpt>
      <trkpt lat="41.0129730" lon="-2.1730800">
        <ele>1265.4</ele>
        <time>2020-09-12T12:30:29Z</time>
      </trkpt>
      <trkpt lat="41.0129300" lon="-2.1730080">
        <ele>1265.8</ele>
        <time>2020-09-12T12:30:30Z</time>
      </trkpt>
      <trkpt lat="41.0128880" lon="-2.1729360">
        <ele>1266.0</ele>
        <time>2020-09-12T12:30:31Z</time>
      </trkpt>
      <trkpt lat="41.0128460" lon="-2.1728660">
        <ele>1266.0</ele>
        <time>2020-09-12T12:30:32Z</time>
      </trkpt>
      <trkpt lat="41.0128030" lon="-2.1727960">
        <ele>1266.4</ele>
        <time>2020-09-12T12:30:33Z</time>
      </trkpt>
      <trkpt lat="41.0127600" lon="-2.1727230">
        <ele>1266.6</ele>
        <time>2020-09-12T12:30:34Z</time>
      </trkpt>
      <trkpt lat="41.0127170" lon="-2.1726500">
        <ele>1266.8</ele>
        <time>2020-09-12T12:30:35Z</time>
      </trkpt>
      <trkpt lat="41.0126740" lon="-2.1725790">
        <ele>1267.0</ele>
        <time>2020-09-12T12:30:36Z</time>
      </trkpt>
      <trkpt lat="41.0126310" lon="-2.1725080">
        <ele>1267.2</ele>
        <time>2020-09-12T12:30:37Z</time>
      </trkpt>
      <trkpt lat="41.0125890" lon="-2.1724390">
        <ele>1267.2</ele>
        <time>2020-09-12T12:30:38Z</time>
      </trkpt>
      <trkpt lat="41.0125470" lon="-2.1723690">
        <ele>1267.2</ele>
        <time>2020-09-12T12:30:39Z</time>
      </trkpt>
      <trkpt lat="41.0125060" lon="-2.1723000">
        <ele>1267.2</ele>
        <time>2020-09-12T12:30:40Z</time>
      </trkpt>
      <trkpt lat="41.0124630" lon="-2.1722310">
        <ele>1267.2</ele>
        <time>2020-09-12T12:30:41Z</time>
      </trkpt>
      <trkpt lat="41.0124210" lon="-2.1721600">
        <ele>1267.2</ele>
        <time>2020-09-12T12:30:42Z</time>
      </trkpt>
      <trkpt lat="41.0123790" lon="-2.1720890">
        <ele>1267.2</ele>
        <time>2020-09-12T12:30:43Z</time>
      </trkpt>
      <trkpt lat="41.0123370" lon="-2.1720180">
        <ele>1267.2</ele>
        <time>2020-09-12T12:30:44Z</time>
      </trkpt>
      <trkpt lat="41.0122950" lon="-2.1719480">
        <ele>1267.0</ele>
        <time>2020-09-12T12:30:45Z</time>
      </trkpt>
      <trkpt lat="41.0122520" lon="-2.1718780">
        <ele>1267.0</ele>
        <time>2020-09-12T12:30:46Z</time>
      </trkpt>
      <trkpt lat="41.0122110" lon="-2.1718080">
        <ele>1267.2</ele>
        <time>2020-09-12T12:30:47Z</time>
      </trkpt>
      <trkpt lat="41.0121710" lon="-2.1717380">
        <ele>1267.2</ele>
        <time>2020-09-12T12:30:48Z</time>
      </trkpt>
      <trkpt lat="41.0121290" lon="-2.1716670">
        <ele>1267.4</ele>
        <time>2020-09-12T12:30:49Z</time>
      </trkpt>
      <trkpt lat="41.0120870" lon="-2.1715980">
        <ele>1267.4</ele>
        <time>2020-09-12T12:30:50Z</time>
      </trkpt>
      <trkpt lat="41.0120450" lon="-2.1715300">
        <ele>1267.6</ele>
        <time>2020-09-12T12:30:51Z</time>
      </trkpt>
      <trkpt lat="41.0120040" lon="-2.1714610">
        <ele>1267.8</ele>
        <time>2020-09-12T12:30:52Z</time>
      </trkpt>
      <trkpt lat="41.0119630" lon="-2.1713920">
        <ele>1268.0</ele>
        <time>2020-09-12T12:30:53Z</time>
      </trkpt>
      <trkpt lat="41.0119230" lon="-2.1713240">
        <ele>1268.4</ele>
        <time>2020-09-12T12:30:54Z</time>
      </trkpt>
      <trkpt lat="41.0118850" lon="-2.1712570">
        <ele>1268.4</ele>
        <time>2020-09-12T12:30:55Z</time>
      </trkpt>
      <trkpt lat="41.0118460" lon="-2.1711910">
        <ele>1268.6</ele>
        <time>2020-09-12T12:30:56Z</time>
      </trkpt>
      <trkpt lat="41.0118060" lon="-2.1711260">
        <ele>1268.8</ele>
        <time>2020-09-12T12:30:57Z</time>
      </trkpt>
      <trkpt lat="41.0117670" lon="-2.1710620">
        <ele>1269.0</ele>
        <time>2020-09-12T12:30:58Z</time>
      </trkpt>
      <trkpt lat="41.0117290" lon="-2.1709970">
        <ele>1269.2</ele>
        <time>2020-09-12T12:30:59Z</time>
      </trkpt>
      <trkpt lat="41.0116930" lon="-2.1709340">
        <ele>1269.4</ele>
        <time>2020-09-12T12:31:00Z</time>
      </trkpt>
      <trkpt lat="41.0116570" lon="-2.1708710">
        <ele>1269.6</ele>
        <time>2020-09-12T12:31:01Z</time>
      </trkpt>
      <trkpt lat="41.0116200" lon="-2.1708100">
        <ele>1269.8</ele>
        <time>2020-09-12T12:31:02Z</time>
      </trkpt>
      <trkpt lat="41.0115830" lon="-2.1707510">
        <ele>1269.8</ele>
        <time>2020-09-12T12:31:03Z</time>
      </trkpt>
      <trkpt lat="41.0115480" lon="-2.1706920">
        <ele>1270.0</ele>
        <time>2020-09-12T12:31:04Z</time>
      </trkpt>
      <trkpt lat="41.0115130" lon="-2.1706340">
        <ele>1270.2</ele>
        <time>2020-09-12T12:31:05Z</time>
      </trkpt>
      <trkpt lat="41.0114780" lon="-2.1705760">
        <ele>1270.4</ele>
        <time>2020-09-12T12:31:06Z</time>
      </trkpt>
      <trkpt lat="41.0114440" lon="-2.1705190">
        <ele>1270.6</ele>
        <time>2020-09-12T12:31:07Z</time>
      </trkpt>
      <trkpt lat="41.0114090" lon="-2.1704610">
        <ele>1270.8</ele>
        <time>2020-09-12T12:31:08Z</time>
      </trkpt>
      <trkpt lat="41.0113750" lon="-2.1704040">
        <ele>1271.0</ele>
        <time>2020-09-12T12:31:09Z</time>
      </trkpt>
      <trkpt lat="41.0113420" lon="-2.1703510">
        <ele>1271.2</ele>
        <time>2020-09-12T12:31:10Z</time>
      </trkpt>
      <trkpt lat="41.0113110" lon="-2.1702950">
        <ele>1271.4</ele>
        <time>2020-09-12T12:31:11Z</time>
      </trkpt>
      <trkpt lat="41.0112790" lon="-2.1702400">
        <ele>1271.4</ele>
        <time>2020-09-12T12:31:12Z</time>
      </trkpt>
      <trkpt lat="41.0112460" lon="-2.1701850">
        <ele>1271.6</ele>
        <time>2020-09-12T12:31:13Z</time>
      </trkpt>
      <trkpt lat="41.0112130" lon="-2.1701290">
        <ele>1271.6</ele>
        <time>2020-09-12T12:31:14Z</time>
      </trkpt>
      <trkpt lat="41.0111790" lon="-2.1700730">
        <ele>1271.6</ele>
        <time>2020-09-12T12:31:15Z</time>
      </trkpt>
      <trkpt lat="41.0111440" lon="-2.1700150">
        <ele>1272.0</ele>
        <time>2020-09-12T12:31:16Z</time>
      </trkpt>
      <trkpt lat="41.0111110" lon="-2.1699600">
        <ele>1272.2</ele>
        <time>2020-09-12T12:31:17Z</time>
      </trkpt>
      <trkpt lat="41.0110780" lon="-2.1699040">
        <ele>1272.4</ele>
        <time>2020-09-12T12:31:18Z</time>
      </trkpt>
      <trkpt lat="41.0110430" lon="-2.1698470">
        <ele>1272.6</ele>
        <time>2020-09-12T12:31:19Z</time>
      </trkpt>
      <trkpt lat="41.0110090" lon="-2.1697910">
        <ele>1272.8</ele>
        <time>2020-09-12T12:31:20Z</time>
      </trkpt>
      <trkpt lat="41.0109740" lon="-2.1697360">
        <ele>1272.8</ele>
        <time>2020-09-12T12:31:21Z</time>
      </trkpt>
      <trkpt lat="41.0109390" lon="-2.1696810">
        <ele>1273.2</ele>
        <time>2020-09-12T12:31:22Z</time>
      </trkpt>
      <trkpt lat="41.0109060" lon="-2.1696280">
        <ele>1273.6</ele>
        <time>2020-09-12T12:31:23Z</time>
      </trkpt>
      <trkpt lat="41.0108730" lon="-2.1695740">
        <ele>1274.0</ele>
        <time>2020-09-12T12:31:24Z</time>
      </trkpt>
      <trkpt lat="41.0108410" lon="-2.1695210">
        <ele>1274.2</ele>
        <time>2020-09-12T12:31:25Z</time>
      </trkpt>
      <trkpt lat="41.0108110" lon="-2.1694720">
        <ele>1274.4</ele>
        <time>2020-09-12T12:31:26Z</time>
      </trkpt>
      <trkpt lat="41.0107830" lon="-2.1694210">
        <ele>1274.8</ele>
        <time>2020-09-12T12:31:27Z</time>
      </trkpt>
      <trkpt lat="41.0107530" lon="-2.1693700">
        <ele>1275.0</ele>
        <time>2020-09-12T12:31:28Z</time>
      </trkpt>
      <trkpt lat="41.0107230" lon="-2.1693190">
        <ele>1275.2</ele>
        <time>2020-09-12T12:31:29Z</time>
      </trkpt>
      <trkpt lat="41.0106930" lon="-2.1692670">
        <ele>1275.4</ele>
        <time>2020-09-12T12:31:30Z</time>
      </trkpt>
      <trkpt lat="41.0106620" lon="-2.1692180">
        <ele>1275.6</ele>
        <time>2020-09-12T12:31:31Z</time>
      </trkpt>
      <trkpt lat="41.0106320" lon="-2.1691690">
        <ele>1275.6</ele>
        <time>2020-09-12T12:31:32Z</time>
      </trkpt>
      <trkpt lat="41.0106030" lon="-2.1691190">
        <ele>1275.8</ele>
        <time>2020-09-12T12:31:33Z</time>
      </trkpt>
      <trkpt lat="41.0105730" lon="-2.1690690">
        <ele>1276.0</ele>
        <time>2020-09-12T12:31:34Z</time>
      </trkpt>
      <trkpt lat="41.0105430" lon="-2.1690190">
        <ele>1276.2</ele>
        <time>2020-09-12T12:31:35Z</time>
      </trkpt>
      <trkpt lat="41.0105140" lon="-2.1689710">
        <ele>1276.4</ele>
        <time>2020-09-12T12:31:36Z</time>
      </trkpt>
      <trkpt lat="41.0104860" lon="-2.1689260">
        <ele>1277.0</ele>
        <time>2020-09-12T12:31:37Z</time>
      </trkpt>
      <trkpt lat="41.0104590" lon="-2.1688810">
        <ele>1277.4</ele>
        <time>2020-09-12T12:31:38Z</time>
      </trkpt>
      <trkpt lat="41.0104320" lon="-2.1688390">
        <ele>1277.6</ele>
        <time>2020-09-12T12:31:39Z</time>
      </trkpt>
      <trkpt lat="41.0104060" lon="-2.1687990">
        <ele>1278.0</ele>
        <time>2020-09-12T12:31:40Z</time>
      </trkpt>
      <trkpt lat="41.0103790" lon="-2.1687560">
        <ele>1278.2</ele>
        <time>2020-09-12T12:31:41Z</time>
      </trkpt>
      <trkpt lat="41.0103530" lon="-2.1687130">
        <ele>1278.4</ele>
        <time>2020-09-12T12:31:42Z</time>
      </trkpt>
      <trkpt lat="41.0103260" lon="-2.1686720">
        <ele>1278.6</ele>
        <time>2020-09-12T12:31:43Z</time>
      </trkpt>
      <trkpt lat="41.0102990" lon="-2.1686300">
        <ele>1278.8</ele>
        <time>2020-09-12T12:31:44Z</time>
      </trkpt>
      <trkpt lat="41.0102720" lon="-2.1685860">
        <ele>1279.2</ele>
        <time>2020-09-12T12:31:45Z</time>
      </trkpt>
      <trkpt lat="41.0102460" lon="-2.1685430">
        <ele>1279.4</ele>
        <time>2020-09-12T12:31:46Z</time>
      </trkpt>
      <trkpt lat="41.0102180" lon="-2.1685010">
        <ele>1279.8</ele>
        <time>2020-09-12T12:31:47Z</time>
      </trkpt>
      <trkpt lat="41.0101870" lon="-2.1684600">
        <ele>1280.0</ele>
        <time>2020-09-12T12:31:48Z</time>
      </trkpt>
      <trkpt lat="41.0101560" lon="-2.1684170">
        <ele>1280.2</ele>
        <time>2020-09-12T12:31:49Z</time>
      </trkpt>
      <trkpt lat="41.0101250" lon="-2.1683750">
        <ele>1280.4</ele>
        <time>2020-09-12T12:31:50Z</time>
      </trkpt>
      <trkpt lat="41.0100940" lon="-2.1683340">
        <ele>1280.8</ele>
        <time>2020-09-12T12:31:51Z</time>
      </trkpt>
      <trkpt lat="41.0100610" lon="-2.1682940">
        <ele>1281.0</ele>
        <time>2020-09-12T12:31:52Z</time>
      </trkpt>
      <trkpt lat="41.0100270" lon="-2.1682540">
        <ele>1281.2</ele>
        <time>2020-09-12T12:31:53Z</time>
      </trkpt>
      <trkpt lat="41.0099920" lon="-2.1682160">
        <ele>1281.4</ele>
        <time>2020-09-12T12:31:54Z</time>
      </trkpt>
      <trkpt lat="41.0099570" lon="-2.1681780">
        <ele>1281.6</ele>
        <time>2020-09-12T12:31:55Z</time>
      </trkpt>
      <trkpt lat="41.0099210" lon="-2.1681430">
        <ele>1281.8</ele>
        <time>2020-09-12T12:31:56Z</time>
      </trkpt>
      <trkpt lat="41.0098840" lon="-2.1681060">
        <ele>1282.2</ele>
        <time>2020-09-12T12:31:57Z</time>
      </trkpt>
      <trkpt lat="41.0098460" lon="-2.1680720">
        <ele>1282.4</ele>
        <time>2020-09-12T12:31:58Z</time>
      </trkpt>
      <trkpt lat="41.0098070" lon="-2.1680390">
        <ele>1282.8</ele>
        <time>2020-09-12T12:31:59Z</time>
      </trkpt>
      <trkpt lat="41.0097670" lon="-2.1680060">
        <ele>1282.8</ele>
        <time>2020-09-12T12:32:00Z</time>
      </trkpt>
      <trkpt lat="41.0097270" lon="-2.1679720">
        <ele>1283.0</ele>
        <time>2020-09-12T12:32:01Z</time>
      </trkpt>
      <trkpt lat="41.0096860" lon="-2.1679410">
        <ele>1283.2</ele>
        <time>2020-09-12T12:32:02Z</time>
      </trkpt>
      <trkpt lat="41.0096440" lon="-2.1679110">
        <ele>1283.2</ele>
        <time>2020-09-12T12:32:03Z</time>
      </trkpt>
      <trkpt lat="41.0096020" lon="-2.1678820">
        <ele>1283.4</ele>
        <time>2020-09-12T12:32:04Z</time>
      </trkpt>
      <trkpt lat="41.0095620" lon="-2.1678550">
        <ele>1283.4</ele>
        <time>2020-09-12T12:32:05Z</time>
      </trkpt>
      <trkpt lat="41.0095210" lon="-2.1678300">
        <ele>1283.6</ele>
        <time>2020-09-12T12:32:06Z</time>
      </trkpt>
      <trkpt lat="41.0094790" lon="-2.1678060">
        <ele>1283.6</ele>
        <time>2020-09-12T12:32:07Z</time>
      </trkpt>
      <trkpt lat="41.0094350" lon="-2.1677810">
        <ele>1284.0</ele>
        <time>2020-09-12T12:32:08Z</time>
      </trkpt>
      <trkpt lat="41.0093910" lon="-2.1677570">
        <ele>1284.4</ele>
        <time>2020-09-12T12:32:09Z</time>
      </trkpt>
      <trkpt lat="41.0093460" lon="-2.1677330">
        <ele>1284.8</ele>
        <time>2020-09-12T12:32:10Z</time>
      </trkpt>
      <trkpt lat="41.0093010" lon="-2.1677080">
        <ele>1285.0</ele>
        <time>2020-09-12T12:32:11Z</time>
      </trkpt>
      <trkpt lat="41.0092550" lon="-2.1676830">
        <ele>1285.0</ele>
        <time>2020-09-12T12:32:12Z</time>
      </trkpt>
      <trkpt lat="41.0092100" lon="-2.1676570">
        <ele>1285.2</ele>
        <time>2020-09-12T12:32:13Z</time>
      </trkpt>
      <trkpt lat="41.0091640" lon="-2.1676320">
        <ele>1285.2</ele>
        <time>2020-09-12T12:32:14Z</time>
      </trkpt>
      <trkpt lat="41.0091180" lon="-2.1676090">
        <ele>1285.2</ele>
        <time>2020-09-12T12:32:15Z</time>
      </trkpt>
      <trkpt lat="41.0090710" lon="-2.1675860">
        <ele>1285.2</ele>
        <time>2020-09-12T12:32:16Z</time>
      </trkpt>
      <trkpt lat="41.0090250" lon="-2.1675590">
        <ele>1285.2</ele>
        <time>2020-09-12T12:32:17Z</time>
      </trkpt>
      <trkpt lat="41.0089780" lon="-2.1675340">
        <ele>1285.2</ele>
        <time>2020-09-12T12:32:18Z</time>
      </trkpt>
      <trkpt lat="41.0089300" lon="-2.1675090">
        <ele>1285.2</ele>
        <time>2020-09-12T12:32:19Z</time>
      </trkpt>
      <trkpt lat="41.0088810" lon="-2.1674830">
        <ele>1285.2</ele>
        <time>2020-09-12T12:32:20Z</time>
      </trkpt>
      <trkpt lat="41.0088330" lon="-2.1674580">
        <ele>1285.2</ele>
        <time>2020-09-12T12:32:21Z</time>
      </trkpt>
      <trkpt lat="41.0087840" lon="-2.1674310">
        <ele>1285.0</ele>
        <time>2020-09-12T12:32:22Z</time>
      </trkpt>
      <trkpt lat="41.0087350" lon="-2.1674020">
        <ele>1285.2</ele>
        <time>2020-09-12T12:32:23Z</time>
      </trkpt>
      <trkpt lat="41.0086850" lon="-2.1673740">
        <ele>1285.4</ele>
        <time>2020-09-12T12:32:24Z</time>
      </trkpt>
      <trkpt lat="41.0086340" lon="-2.1673460">
        <ele>1285.4</ele>
        <time>2020-09-12T12:32:25Z</time>
      </trkpt>
      <trkpt lat="41.0085820" lon="-2.1673190">
        <ele>1285.6</ele>
        <time>2020-09-12T12:32:26Z</time>
      </trkpt>
      <trkpt lat="41.0085300" lon="-2.1672900">
        <ele>1285.8</ele>
        <time>2020-09-12T12:32:27Z</time>
      </trkpt>
      <trkpt lat="41.0084780" lon="-2.1672640">
        <ele>1285.8</ele>
        <time>2020-09-12T12:32:28Z</time>
      </trkpt>
      <trkpt lat="41.0084250" lon="-2.1672390">
        <ele>1285.8</ele>
        <time>2020-09-12T12:32:29Z</time>
      </trkpt>
      <trkpt lat="41.0083720" lon="-2.1672110">
        <ele>1285.8</ele>
        <time>2020-09-12T12:32:30Z</time>
      </trkpt>
      <trkpt lat="41.0083190" lon="-2.1671810">
        <ele>1285.8</ele>
        <time>2020-09-12T12:32:31Z</time>
      </trkpt>
      <trkpt lat="41.0082630" lon="-2.1671510">
        <ele>1285.8</ele>
        <time>2020-09-12T12:32:32Z</time>
      </trkpt>
      <trkpt lat="41.0082060" lon="-2.1671200">
        <ele>1285.8</ele>
        <time>2020-09-12T12:32:33Z</time>
      </trkpt>
      <trkpt lat="41.0081500" lon="-2.1670850">
        <ele>1286.0</ele>
        <time>2020-09-12T12:32:34Z</time>
      </trkpt>
      <trkpt lat="41.0080940" lon="-2.1670480">
        <ele>1286.2</ele>
        <time>2020-09-12T12:32:35Z</time>
      </trkpt>
      <trkpt lat="41.0080370" lon="-2.1670080">
        <ele>1286.2</ele>
        <time>2020-09-12T12:32:36Z</time>
      </trkpt>
      <trkpt lat="41.0079790" lon="-2.1669680">
        <ele>1286.4</ele>
        <time>2020-09-12T12:32:37Z</time>
      </trkpt>
      <trkpt lat="41.0079200" lon="-2.1669250">
        <ele>1286.4</ele>
        <time>2020-09-12T12:32:38Z</time>
      </trkpt>
      <trkpt lat="41.0078620" lon="-2.1668770">
        <ele>1286.4</ele>
        <time>2020-09-12T12:32:39Z</time>
      </trkpt>
      <trkpt lat="41.0078040" lon="-2.1668250">
        <ele>1286.0</ele>
        <time>2020-09-12T12:32:40Z</time>
      </trkpt>
      <trkpt lat="41.0077470" lon="-2.1667690">
        <ele>1285.6</ele>
        <time>2020-09-12T12:32:41Z</time>
      </trkpt>
      <trkpt lat="41.0076900" lon="-2.1667110">
        <ele>1285.2</ele>
        <time>2020-09-12T12:32:42Z</time>
      </trkpt>
      <trkpt lat="41.0076330" lon="-2.1666490">
        <ele>1284.8</ele>
        <time>2020-09-12T12:32:43Z</time>
      </trkpt>
      <trkpt lat="41.0075770" lon="-2.1665820">
        <ele>1284.6</ele>
        <time>2020-09-12T12:32:44Z</time>
      </trkpt>
      <trkpt lat="41.0075220" lon="-2.1665100">
        <ele>1284.4</ele>
        <time>2020-09-12T12:32:45Z</time>
      </trkpt>
      <trkpt lat="41.0074690" lon="-2.1664330">
        <ele>1284.2</ele>
        <time>2020-09-12T12:32:46Z</time>
      </trkpt>
      <trkpt lat="41.0074200" lon="-2.1663480">
        <ele>1284.0</ele>
        <time>2020-09-12T12:32:47Z</time>
      </trkpt>
      <trkpt lat="41.0073740" lon="-2.1662580">
        <ele>1283.8</ele>
        <time>2020-09-12T12:32:48Z</time>
      </trkpt>
      <trkpt lat="41.0073290" lon="-2.1661630">
        <ele>1283.6</ele>
        <time>2020-09-12T12:32:49Z</time>
      </trkpt>
      <trkpt lat="41.0072870" lon="-2.1660610">
        <ele>1283.4</ele>
        <time>2020-09-12T12:32:50Z</time>
      </trkpt>
      <trkpt lat="41.0072460" lon="-2.1659500">
        <ele>1283.2</ele>
        <time>2020-09-12T12:32:51Z</time>
      </trkpt>
      <trkpt lat="41.0072100" lon="-2.1658320">
        <ele>1283.0</ele>
        <time>2020-09-12T12:32:52Z</time>
      </trkpt>
      <trkpt lat="41.0071770" lon="-2.1657110">
        <ele>1282.8</ele>
        <time>2020-09-12T12:32:53Z</time>
      </trkpt>
      <trkpt lat="41.0071490" lon="-2.1655840">
        <ele>1282.4</ele>
        <time>2020-09-12T12:32:54Z</time>
      </trkpt>
      <trkpt lat="41.0071280" lon="-2.1654540">
        <ele>1282.0</ele>
        <time>2020-09-12T12:32:55Z</time>
      </trkpt>
      <trkpt lat="41.0071110" lon="-2.1653200">
        <ele>1281.6</ele>
        <time>2020-09-12T12:32:56Z</time>
      </trkpt>
      <trkpt lat="41.0070990" lon="-2.1651810">
        <ele>1281.0</ele>
        <time>2020-09-12T12:32:57Z</time>
      </trkpt>
      <trkpt lat="41.0070930" lon="-2.1650380">
        <ele>1280.6</ele>
        <time>2020-09-12T12:32:58Z</time>
      </trkpt>
      <trkpt lat="41.0070930" lon="-2.1648930">
        <ele>1280.2</ele>
        <time>2020-09-12T12:32:59Z</time>
      </trkpt>
      <trkpt lat="41.0070960" lon="-2.1647450">
        <ele>1279.8</ele>
        <time>2020-09-12T12:33:00Z</time>
      </trkpt>
      <trkpt lat="41.0071010" lon="-2.1645960">
        <ele>1279.4</ele>
        <time>2020-09-12T12:33:01Z</time>
      </trkpt>
      <trkpt lat="41.0071070" lon="-2.1644440">
        <ele>1279.0</ele>
        <time>2020-09-12T12:33:02Z</time>
      </trkpt>
      <trkpt lat="41.0071140" lon="-2.1642900">
        <ele>1278.4</ele>
        <time>2020-09-12T12:33:03Z</time>
      </trkpt>
      <trkpt lat="41.0071170" lon="-2.1641340">
        <ele>1277.8</ele>
        <time>2020-09-12T12:33:04Z</time>
      </trkpt>
      <trkpt lat="41.0071170" lon="-2.1639750">
        <ele>1277.4</ele>
        <time>2020-09-12T12:33:05Z</time>
      </trkpt>
      <trkpt lat="41.0071130" lon="-2.1638140">
        <ele>1277.0</ele>
        <time>2020-09-12T12:33:06Z</time>
      </trkpt>
      <trkpt lat="41.0071020" lon="-2.1636510">
        <ele>1276.4</ele>
        <time>2020-09-12T12:33:07Z</time>
      </trkpt>
      <trkpt lat="41.0070870" lon="-2.1634890">
        <ele>1275.8</ele>
        <time>2020-09-12T12:33:08Z</time>
      </trkpt>
      <trkpt lat="41.0070620" lon="-2.1633270">
        <ele>1275.4</ele>
        <time>2020-09-12T12:33:09Z</time>
      </trkpt>
      <trkpt lat="41.0070280" lon="-2.1631670">
        <ele>1275.0</ele>
        <time>2020-09-12T12:33:10Z</time>
      </trkpt>
      <trkpt lat="41.0069880" lon="-2.1630080">
        <ele>1274.4</ele>
        <time>2020-09-12T12:33:11Z</time>
      </trkpt>
      <trkpt lat="41.0069430" lon="-2.1628510">
        <ele>1274.0</ele>
        <time>2020-09-12T12:33:12Z</time>
      </trkpt>
      <trkpt lat="41.0068950" lon="-2.1626940">
        <ele>1273.6</ele>
        <time>2020-09-12T12:33:13Z</time>
      </trkpt>
      <trkpt lat="41.0068460" lon="-2.1625390">
        <ele>1273.2</ele>
        <time>2020-09-12T12:33:14Z</time>
      </trkpt>
      <trkpt lat="41.0067470" lon="-2.1622280">
        <ele>1271.8</ele>
        <time>2020-09-12T12:33:16Z</time>
      </trkpt>
      <trkpt lat="41.0066460" lon="-2.1619170">
        <ele>1270.2</ele>
        <time>2020-09-12T12:33:18Z</time>
      </trkpt>
      <trkpt lat="41.0065430" lon="-2.1616070">
        <ele>1268.8</ele>
        <time>2020-09-12T12:33:20Z</time>
      </trkpt>
      <trkpt lat="41.0064390" lon="-2.1612930">
        <ele>1267.2</ele>
        <time>2020-09-12T12:33:22Z</time>
      </trkpt>
      <trkpt lat="41.0063340" lon="-2.1609700">
        <ele>1265.4</ele>
        <time>2020-09-12T12:33:24Z</time>
      </trkpt>
      <trkpt lat="41.0062800" lon="-2.1608080">
        <ele>1264.8</ele>
        <time>2020-09-12T12:33:25Z</time>
      </trkpt>
      <trkpt lat="41.0062260" lon="-2.1606460">
        <ele>1264.2</ele>
        <time>2020-09-12T12:33:26Z</time>
      </trkpt>
      <trkpt lat="41.0061720" lon="-2.1604820">
        <ele>1263.8</ele>
        <time>2020-09-12T12:33:27Z</time>
      </trkpt>
      <trkpt lat="41.0061170" lon="-2.1603180">
        <ele>1263.2</ele>
        <time>2020-09-12T12:33:28Z</time>
      </trkpt>
      <trkpt lat="41.0060630" lon="-2.1601540">
        <ele>1262.6</ele>
        <time>2020-09-12T12:33:29Z</time>
      </trkpt>
      <trkpt lat="41.0060100" lon="-2.1599890">
        <ele>1262.2</ele>
        <time>2020-09-12T12:33:30Z</time>
      </trkpt>
      <trkpt lat="41.0059570" lon="-2.1598230">
        <ele>1261.6</ele>
        <time>2020-09-12T12:33:31Z</time>
      </trkpt>
      <trkpt lat="41.0059030" lon="-2.1596590">
        <ele>1260.8</ele>
        <time>2020-09-12T12:33:32Z</time>
      </trkpt>
      <trkpt lat="41.0058450" lon="-2.1594950">
        <ele>1259.8</ele>
        <time>2020-09-12T12:33:33Z</time>
      </trkpt>
      <trkpt lat="41.0057830" lon="-2.1593350">
        <ele>1258.8</ele>
        <time>2020-09-12T12:33:34Z</time>
      </trkpt>
      <trkpt lat="41.0057150" lon="-2.1591790">
        <ele>1258.2</ele>
        <time>2020-09-12T12:33:35Z</time>
      </trkpt>
      <trkpt lat="41.0056410" lon="-2.1590270">
        <ele>1257.8</ele>
        <time>2020-09-12T12:33:36Z</time>
      </trkpt>
      <trkpt lat="41.0055600" lon="-2.1588810">
        <ele>1257.6</ele>
        <time>2020-09-12T12:33:37Z</time>
      </trkpt>
      <trkpt lat="41.0054730" lon="-2.1587410">
        <ele>1257.2</ele>
        <time>2020-09-12T12:33:38Z</time>
      </trkpt>
      <trkpt lat="41.0053810" lon="-2.1586070">
        <ele>1256.6</ele>
        <time>2020-09-12T12:33:39Z</time>
      </trkpt>
      <trkpt lat="41.0052820" lon="-2.1584820">
        <ele>1255.8</ele>
        <time>2020-09-12T12:33:40Z</time>
      </trkpt>
      <trkpt lat="41.0051800" lon="-2.1583650">
        <ele>1255.0</ele>
        <time>2020-09-12T12:33:41Z</time>
      </trkpt>
      <trkpt lat="41.0050720" lon="-2.1582580">
        <ele>1254.2</ele>
        <time>2020-09-12T12:33:42Z</time>
      </trkpt>
      <trkpt lat="41.0049600" lon="-2.1581630">
        <ele>1253.6</ele>
        <time>2020-09-12T12:33:43Z</time>
      </trkpt>
      <trkpt lat="41.0048430" lon="-2.1580810">
        <ele>1253.0</ele>
        <time>2020-09-12T12:33:44Z</time>
      </trkpt>
      <trkpt lat="41.0047250" lon="-2.1580070">
        <ele>1252.4</ele>
        <time>2020-09-12T12:33:45Z</time>
      </trkpt>
      <trkpt lat="41.0046070" lon="-2.1579380">
        <ele>1251.8</ele>
        <time>2020-09-12T12:33:46Z</time>
      </trkpt>
      <trkpt lat="41.0044880" lon="-2.1578760">
        <ele>1251.2</ele>
        <time>2020-09-12T12:33:47Z</time>
      </trkpt>
      <trkpt lat="41.0043680" lon="-2.1578210">
        <ele>1250.6</ele>
        <time>2020-09-12T12:33:48Z</time>
      </trkpt>
      <trkpt lat="41.0042480" lon="-2.1577700">
        <ele>1250.0</ele>
        <time>2020-09-12T12:33:49Z</time>
      </trkpt>
      <trkpt lat="41.0041280" lon="-2.1577210">
        <ele>1249.2</ele>
        <time>2020-09-12T12:33:50Z</time>
      </trkpt>
      <trkpt lat="41.0040100" lon="-2.1576730">
        <ele>1248.4</ele>
        <time>2020-09-12T12:33:51Z</time>
      </trkpt>
      <trkpt lat="41.0038910" lon="-2.1576240">
        <ele>1247.8</ele>
        <time>2020-09-12T12:33:52Z</time>
      </trkpt>
      <trkpt lat="41.0037720" lon="-2.1575750">
        <ele>1247.2</ele>
        <time>2020-09-12T12:33:53Z</time>
      </trkpt>
      <trkpt lat="41.0036540" lon="-2.1575250">
        <ele>1246.2</ele>
        <time>2020-09-12T12:33:54Z</time>
      </trkpt>
      <trkpt lat="41.0035350" lon="-2.1574760">
        <ele>1245.4</ele>
        <time>2020-09-12T12:33:55Z</time>
      </trkpt>
      <trkpt lat="41.0034160" lon="-2.1574290">
        <ele>1244.8</ele>
        <time>2020-09-12T12:33:56Z</time>
      </trkpt>
      <trkpt lat="41.0032970" lon="-2.1573800">
        <ele>1244.2</ele>
        <time>2020-09-12T12:33:57Z</time>
      </trkpt>
      <trkpt lat="41.0031790" lon="-2.1573300">
        <ele>1243.6</ele>
        <time>2020-09-12T12:33:58Z</time>
      </trkpt>
      <trkpt lat="41.0030600" lon="-2.1572810">
        <ele>1243.0</ele>
        <time>2020-09-12T12:33:59Z</time>
      </trkpt>
      <trkpt lat="41.0029420" lon="-2.1572310">
        <ele>1242.4</ele>
        <time>2020-09-12T12:34:00Z</time>
      </trkpt>
      <trkpt lat="41.0028240" lon="-2.1571830">
        <ele>1241.8</ele>
        <time>2020-09-12T12:34:01Z</time>
      </trkpt>
      <trkpt lat="41.0027060" lon="-2.1571340">
        <ele>1241.2</ele>
        <time>2020-09-12T12:34:02Z</time>
      </trkpt>
      <trkpt lat="41.0025890" lon="-2.1570840">
        <ele>1240.4</ele>
        <time>2020-09-12T12:34:03Z</time>
      </trkpt>
      <trkpt lat="41.0024720" lon="-2.1570350">
        <ele>1239.8</ele>
        <time>2020-09-12T12:34:04Z</time>
      </trkpt>
      <trkpt lat="41.0023560" lon="-2.1569850">
        <ele>1239.4</ele>
        <time>2020-09-12T12:34:05Z</time>
      </trkpt>
      <trkpt lat="41.0022380" lon="-2.1569350">
        <ele>1238.8</ele>
        <time>2020-09-12T12:34:06Z</time>
      </trkpt>
      <trkpt lat="41.0021220" lon="-2.1568850">
        <ele>1238.2</ele>
        <time>2020-09-12T12:34:07Z</time>
      </trkpt>
      <trkpt lat="41.0017740" lon="-2.1567360">
        <ele>1236.6</ele>
        <time>2020-09-12T12:34:10Z</time>
      </trkpt>
      <trkpt lat="41.0016590" lon="-2.1566840">
        <ele>1236.2</ele>
        <time>2020-09-12T12:34:11Z</time>
      </trkpt>
      <trkpt lat="41.0015450" lon="-2.1566290">
        <ele>1235.6</ele>
        <time>2020-09-12T12:34:12Z</time>
      </trkpt>
      <trkpt lat="41.0013200" lon="-2.1565110">
        <ele>1234.2</ele>
        <time>2020-09-12T12:34:14Z</time>
      </trkpt>
      <trkpt lat="41.0010950" lon="-2.1563830">
        <ele>1232.8</ele>
        <time>2020-09-12T12:34:16Z</time>
      </trkpt>
      <trkpt lat="41.0009850" lon="-2.1563140">
        <ele>1232.2</ele>
        <time>2020-09-12T12:34:17Z</time>
      </trkpt>
      <trkpt lat="41.0008760" lon="-2.1562400">
        <ele>1231.6</ele>
        <time>2020-09-12T12:34:18Z</time>
      </trkpt>
      <trkpt lat="41.0005600" lon="-2.1559910">
        <ele>1230.2</ele>
        <time>2020-09-12T12:34:21Z</time>
      </trkpt>
      <trkpt lat="41.0003540" lon="-2.1558140">
        <ele>1229.0</ele>
        <time>2020-09-12T12:34:23Z</time>
      </trkpt>
      <trkpt lat="41.0001490" lon="-2.1556290">
        <ele>1227.8</ele>
        <time>2020-09-12T12:34:25Z</time>
      </trkpt>
      <trkpt lat="40.9999440" lon="-2.1554450">
        <ele>1226.6</ele>
        <time>2020-09-12T12:34:27Z</time>
      </trkpt>
      <trkpt lat="40.9996360" lon="-2.1551640">
        <ele>1225.0</ele>
        <time>2020-09-12T12:34:30Z</time>
      </trkpt>
      <trkpt lat="40.9994280" lon="-2.1549800">
        <ele>1223.8</ele>
        <time>2020-09-12T12:34:32Z</time>
      </trkpt>
      <trkpt lat="40.9993220" lon="-2.1548900">
        <ele>1223.0</ele>
        <time>2020-09-12T12:34:33Z</time>
      </trkpt>
      <trkpt lat="40.9992160" lon="-2.1548020">
        <ele>1222.2</ele>
        <time>2020-09-12T12:34:34Z</time>
      </trkpt>
      <trkpt lat="40.9989970" lon="-2.1546390">
        <ele>1221.0</ele>
        <time>2020-09-12T12:34:36Z</time>
      </trkpt>
      <trkpt lat="40.9987710" lon="-2.1544970">
        <ele>1219.8</ele>
        <time>2020-09-12T12:34:38Z</time>
      </trkpt>
      <trkpt lat="40.9986570" lon="-2.1544310">
        <ele>1219.0</ele>
        <time>2020-09-12T12:34:39Z</time>
      </trkpt>
      <trkpt lat="40.9985420" lon="-2.1543690">
        <ele>1218.0</ele>
        <time>2020-09-12T12:34:40Z</time>
      </trkpt>
      <trkpt lat="40.9984250" lon="-2.1543110">
        <ele>1217.4</ele>
        <time>2020-09-12T12:34:41Z</time>
      </trkpt>
      <trkpt lat="40.9983090" lon="-2.1542540">
        <ele>1216.8</ele>
        <time>2020-09-12T12:34:42Z</time>
      </trkpt>
      <trkpt lat="40.9981930" lon="-2.1541980">
        <ele>1216.2</ele>
        <time>2020-09-12T12:34:43Z</time>
      </trkpt>
      <trkpt lat="40.9980770" lon="-2.1541420">
        <ele>1215.6</ele>
        <time>2020-09-12T12:34:44Z</time>
      </trkpt>
      <trkpt lat="40.9979610" lon="-2.1540860">
        <ele>1215.0</ele>
        <time>2020-09-12T12:34:45Z</time>
      </trkpt>
      <trkpt lat="40.9978460" lon="-2.1540320">
        <ele>1214.4</ele>
        <time>2020-09-12T12:34:46Z</time>
      </trkpt>
      <trkpt lat="40.9977310" lon="-2.1539740">
        <ele>1214.0</ele>
        <time>2020-09-12T12:34:47Z</time>
      </trkpt>
      <trkpt lat="40.9976170" lon="-2.1539180">
        <ele>1213.6</ele>
        <time>2020-09-12T12:34:48Z</time>
      </trkpt>
      <trkpt lat="40.9975020" lon="-2.1538620">
        <ele>1213.0</ele>
        <time>2020-09-12T12:34:49Z</time>
      </trkpt>
      <trkpt lat="40.9973870" lon="-2.1538050">
        <ele>1212.6</ele>
        <time>2020-09-12T12:34:50Z</time>
      </trkpt>
      <trkpt lat="40.9972740" lon="-2.1537490">
        <ele>1211.8</ele>
        <time>2020-09-12T12:34:51Z</time>
      </trkpt>
      <trkpt lat="40.9971630" lon="-2.1536930">
        <ele>1211.2</ele>
        <time>2020-09-12T12:34:52Z</time>
      </trkpt>
      <trkpt lat="40.9970550" lon="-2.1536390">
        <ele>1210.6</ele>
        <time>2020-09-12T12:34:53Z</time>
      </trkpt>
      <trkpt lat="40.9969520" lon="-2.1535880">
        <ele>1210.0</ele>
        <time>2020-09-12T12:34:54Z</time>
      </trkpt>
      <trkpt lat="40.9968520" lon="-2.1535390">
        <ele>1209.4</ele>
        <time>2020-09-12T12:34:55Z</time>
      </trkpt>
      <trkpt lat="40.9967570" lon="-2.1534930">
        <ele>1208.8</ele>
        <time>2020-09-12T12:34:56Z</time>
      </trkpt>
      <trkpt lat="40.9966640" lon="-2.1534490">
        <ele>1208.0</ele>
        <time>2020-09-12T12:34:57Z</time>
      </trkpt>
      <trkpt lat="40.9965750" lon="-2.1534040">
        <ele>1207.0</ele>
        <time>2020-09-12T12:34:58Z</time>
      </trkpt>
      <trkpt lat="40.9964890" lon="-2.1533570">
        <ele>1206.2</ele>
        <time>2020-09-12T12:34:59Z</time>
      </trkpt>
      <trkpt lat="40.9964090" lon="-2.1533050">
        <ele>1205.4</ele>
        <time>2020-09-12T12:35:00Z</time>
      </trkpt>
      <trkpt lat="40.9963310" lon="-2.1532530">
        <ele>1204.8</ele>
        <time>2020-09-12T12:35:01Z</time>
      </trkpt>
      <trkpt lat="40.9962550" lon="-2.1532010">
        <ele>1204.4</ele>
        <time>2020-09-12T12:35:02Z</time>
      </trkpt>
      <trkpt lat="40.9961810" lon="-2.1531460">
        <ele>1204.0</ele>
        <time>2020-09-12T12:35:03Z</time>
      </trkpt>
      <trkpt lat="40.9961110" lon="-2.1530880">
        <ele>1203.6</ele>
        <time>2020-09-12T12:35:04Z</time>
      </trkpt>
      <trkpt lat="40.9960450" lon="-2.1530300">
        <ele>1203.4</ele>
        <time>2020-09-12T12:35:05Z</time>
      </trkpt>
      <trkpt lat="40.9959810" lon="-2.1529730">
        <ele>1202.8</ele>
        <time>2020-09-12T12:35:06Z</time>
      </trkpt>
      <trkpt lat="40.9959200" lon="-2.1529140">
        <ele>1202.2</ele>
        <time>2020-09-12T12:35:07Z</time>
      </trkpt>
      <trkpt lat="40.9958650" lon="-2.1528530">
        <ele>1201.6</ele>
        <time>2020-09-12T12:35:08Z</time>
      </trkpt>
      <trkpt lat="40.9958150" lon="-2.1527910">
        <ele>1201.2</ele>
        <time>2020-09-12T12:35:09Z</time>
      </trkpt>
      <trkpt lat="40.9957700" lon="-2.1527290">
        <ele>1200.6</ele>
        <time>2020-09-12T12:35:10Z</time>
      </trkpt>
      <trkpt lat="40.9957280" lon="-2.1526700">
        <ele>1200.0</ele>
        <time>2020-09-12T12:35:11Z</time>
      </trkpt>
      <trkpt lat="40.9956860" lon="-2.1526180">
        <ele>1199.4</ele>
        <time>2020-09-12T12:35:12Z</time>
      </trkpt>
      <trkpt lat="40.9956400" lon="-2.1525860">
        <ele>1199.0</ele>
        <time>2020-09-12T12:35:13Z</time>
      </trkpt>
      <trkpt lat="40.9955930" lon="-2.1525880">
        <ele>1198.4</ele>
        <time>2020-09-12T12:35:14Z</time>
      </trkpt>
      <trkpt lat="40.9955510" lon="-2.1526290">
        <ele>1197.8</ele>
        <time>2020-09-12T12:35:15Z</time>
      </trkpt>
      <trkpt lat="40.9955270" lon="-2.1526980">
        <ele>1197.4</ele>
        <time>2020-09-12T12:35:16Z</time>
      </trkpt>
      <trkpt lat="40.9955290" lon="-2.1527760">
        <ele>1197.2</ele>
        <time>2020-09-12T12:35:17Z</time>
      </trkpt>
      <trkpt lat="40.9955520" lon="-2.1528480">
        <ele>1197.0</ele>
        <time>2020-09-12T12:35:18Z</time>
      </trkpt>
      <trkpt lat="40.9955880" lon="-2.1529060">
        <ele>1197.0</ele>
        <time>2020-09-12T12:35:19Z</time>
      </trkpt>
      <trkpt lat="40.9956320" lon="-2.1529550">
        <ele>1197.0</ele>
        <time>2020-09-12T12:35:20Z</time>
      </trkpt>
      <trkpt lat="40.9956790" lon="-2.1529990">
        <ele>1197.0</ele>
        <time>2020-09-12T12:35:21Z</time>
      </trkpt>
      <trkpt lat="40.9957240" lon="-2.1530430">
        <ele>1197.2</ele>
        <time>2020-09-12T12:35:22Z</time>
      </trkpt>
      <trkpt lat="40.9957680" lon="-2.1530930">
        <ele>1197.2</ele>
        <time>2020-09-12T12:35:23Z</time>
      </trkpt>
      <trkpt lat="40.9958100" lon="-2.1531450">
        <ele>1197.2</ele>
        <time>2020-09-12T12:35:24Z</time>
      </trkpt>
      <trkpt lat="40.9958500" lon="-2.1531990">
        <ele>1197.2</ele>
        <time>2020-09-12T12:35:25Z</time>
      </trkpt>
      <trkpt lat="40.9958880" lon="-2.1532530">
        <ele>1197.2</ele>
        <time>2020-09-12T12:35:26Z</time>
      </trkpt>
      <trkpt lat="40.9959280" lon="-2.1533050">
        <ele>1197.4</ele>
        <time>2020-09-12T12:35:27Z</time>
      </trkpt>
      <trkpt lat="40.9959680" lon="-2.1533580">
        <ele>1197.6</ele>
        <time>2020-09-12T12:35:28Z</time>
      </trkpt>
      <trkpt lat="40.9960050" lon="-2.1534130">
        <ele>1197.8</ele>
        <time>2020-09-12T12:35:29Z</time>
      </trkpt>
      <trkpt lat="40.9960410" lon="-2.1534680">
        <ele>1197.8</ele>
        <time>2020-09-12T12:35:30Z</time>
      </trkpt>
      <trkpt lat="40.9960770" lon="-2.1535240">
        <ele>1197.8</ele>
        <time>2020-09-12T12:35:31Z</time>
      </trkpt>
      <trkpt lat="40.9961130" lon="-2.1535820">
        <ele>1197.6</ele>
        <time>2020-09-12T12:35:32Z</time>
      </trkpt>
      <trkpt lat="40.9961500" lon="-2.1536390">
        <ele>1197.6</ele>
        <time>2020-09-12T12:35:33Z</time>
      </trkpt>
      <trkpt lat="40.9961890" lon="-2.1536960">
        <ele>1197.4</ele>
        <time>2020-09-12T12:35:34Z</time>
      </trkpt>
      <trkpt lat="40.9962290" lon="-2.1537540">
        <ele>1197.4</ele>
        <time>2020-09-12T12:35:35Z</time>
      </trkpt>
      <trkpt lat="40.9962680" lon="-2.1538120">
        <ele>1197.4</ele>
        <time>2020-09-12T12:35:36Z</time>
      </trkpt>
      <trkpt lat="40.9963070" lon="-2.1538720">
        <ele>1197.4</ele>
        <time>2020-09-12T12:35:37Z</time>
      </trkpt>
      <trkpt lat="40.9963470" lon="-2.1539310">
        <ele>1197.4</ele>
        <time>2020-09-12T12:35:38Z</time>
      </trkpt>
      <trkpt lat="40.9963860" lon="-2.1539920">
        <ele>1197.4</ele>
        <time>2020-09-12T12:35:39Z</time>
      </trkpt>
      <trkpt lat="40.9964250" lon="-2.1540530">
        <ele>1197.4</ele>
        <time>2020-09-12T12:35:40Z</time>
      </trkpt>
      <trkpt lat="40.9964640" lon="-2.1541150">
        <ele>1197.2</ele>
        <time>2020-09-12T12:35:41Z</time>
      </trkpt>
      <trkpt lat="40.9965040" lon="-2.1541760">
        <ele>1197.0</ele>
        <time>2020-09-12T12:35:42Z</time>
      </trkpt>
      <trkpt lat="40.9965450" lon="-2.1542370">
        <ele>1197.0</ele>
        <time>2020-09-12T12:35:43Z</time>
      </trkpt>
      <trkpt lat="40.9965850" lon="-2.1543000">
        <ele>1197.0</ele>
        <time>2020-09-12T12:35:44Z</time>
      </trkpt>
      <trkpt lat="40.9966240" lon="-2.1543630">
        <ele>1197.0</ele>
        <time>2020-09-12T12:35:45Z</time>
      </trkpt>
      <trkpt lat="40.9966640" lon="-2.1544250">
        <ele>1196.8</ele>
        <time>2020-09-12T12:35:46Z</time>
      </trkpt>
      <trkpt lat="40.9967070" lon="-2.1544870">
        <ele>1196.8</ele>
        <time>2020-09-12T12:35:47Z</time>
      </trkpt>
      <trkpt lat="40.9967490" lon="-2.1545500">
        <ele>1196.8</ele>
        <time>2020-09-12T12:35:48Z</time>
      </trkpt>
      <trkpt lat="40.9967910" lon="-2.1546150">
        <ele>1196.8</ele>
        <time>2020-09-12T12:35:49Z</time>
      </trkpt>
      <trkpt lat="40.9968320" lon="-2.1546780">
        <ele>1196.8</ele>
        <time>2020-09-12T12:35:50Z</time>
      </trkpt>
      <trkpt lat="40.9968740" lon="-2.1547420">
        <ele>1197.0</ele>
        <time>2020-09-12T12:35:51Z</time>
      </trkpt>
      <trkpt lat="40.9969160" lon="-2.1548040">
        <ele>1196.8</ele>
        <time>2020-09-12T12:35:52Z</time>
      </trkpt>
      <trkpt lat="40.9969580" lon="-2.1548650">
        <ele>1197.0</ele>
        <time>2020-09-12T12:35:53Z</time>
      </trkpt>
      <trkpt lat="40.9970000" lon="-2.1549250">
        <ele>1197.0</ele>
        <time>2020-09-12T12:35:54Z</time>
      </trkpt>
      <trkpt lat="40.9970430" lon="-2.1549850">
        <ele>1196.8</ele>
        <time>2020-09-12T12:35:55Z</time>
      </trkpt>
      <trkpt lat="40.9970850" lon="-2.1550440">
        <ele>1196.6</ele>
        <time>2020-09-12T12:35:56Z</time>
      </trkpt>
      <trkpt lat="40.9971290" lon="-2.1551020">
        <ele>1196.4</ele>
        <time>2020-09-12T12:35:57Z</time>
      </trkpt>
      <trkpt lat="40.9971730" lon="-2.1551580">
        <ele>1196.4</ele>
        <time>2020-09-12T12:35:58Z</time>
      </trkpt>
      <trkpt lat="40.9972190" lon="-2.1552130">
        <ele>1196.2</ele>
        <time>2020-09-12T12:35:59Z</time>
      </trkpt>
      <trkpt lat="40.9972640" lon="-2.1552670">
        <ele>1196.2</ele>
        <time>2020-09-12T12:36:00Z</time>
      </trkpt>
      <trkpt lat="40.9973080" lon="-2.1553230">
        <ele>1196.2</ele>
        <time>2020-09-12T12:36:01Z</time>
      </trkpt>
      <trkpt lat="40.9973520" lon="-2.1553790">
        <ele>1196.4</ele>
        <time>2020-09-12T12:36:02Z</time>
      </trkpt>
      <trkpt lat="40.9973950" lon="-2.1554360">
        <ele>1196.4</ele>
        <time>2020-09-12T12:36:03Z</time>
      </trkpt>
      <trkpt lat="40.9974420" lon="-2.1554940">
        <ele>1196.4</ele>
        <time>2020-09-12T12:36:04Z</time>
      </trkpt>
      <trkpt lat="40.9974900" lon="-2.1555480">
        <ele>1196.6</ele>
        <time>2020-09-12T12:36:05Z</time>
      </trkpt>
      <trkpt lat="40.9975370" lon="-2.1556030">
        <ele>1196.6</ele>
        <time>2020-09-12T12:36:06Z</time>
      </trkpt>
      <trkpt lat="40.9975850" lon="-2.1556570">
        <ele>1196.8</ele>
        <time>2020-09-12T12:36:07Z</time>
      </trkpt>
      <trkpt lat="40.9976330" lon="-2.1557110">
        <ele>1196.8</ele>
        <time>2020-09-12T12:36:08Z</time>
      </trkpt>
      <trkpt lat="40.9976810" lon="-2.1557640">
        <ele>1197.0</ele>
        <time>2020-09-12T12:36:09Z</time>
      </trkpt>
      <trkpt lat="40.9977290" lon="-2.1558180">
        <ele>1197.2</ele>
        <time>2020-09-12T12:36:10Z</time>
      </trkpt>
      <trkpt lat="40.9977760" lon="-2.1558710">
        <ele>1197.4</ele>
        <time>2020-09-12T12:36:11Z</time>
      </trkpt>
      <trkpt lat="40.9978220" lon="-2.1559220">
        <ele>1197.6</ele>
        <time>2020-09-12T12:36:12Z</time>
      </trkpt>
      <trkpt lat="40.9978690" lon="-2.1559720">
        <ele>1197.6</ele>
        <time>2020-09-12T12:36:13Z</time>
      </trkpt>
      <trkpt lat="40.9979160" lon="-2.1560220">
        <ele>1197.6</ele>
        <time>2020-09-12T12:36:14Z</time>
      </trkpt>
      <trkpt lat="40.9979620" lon="-2.1560740">
        <ele>1197.6</ele>
        <time>2020-09-12T12:36:15Z</time>
      </trkpt>
      <trkpt lat="40.9980070" lon="-2.1561280">
        <ele>1197.6</ele>
        <time>2020-09-12T12:36:16Z</time>
      </trkpt>
      <trkpt lat="40.9980540" lon="-2.1561800">
        <ele>1197.6</ele>
        <time>2020-09-12T12:36:17Z</time>
      </trkpt>
      <trkpt lat="40.9980980" lon="-2.1562340">
        <ele>1197.6</ele>
        <time>2020-09-12T12:36:18Z</time>
      </trkpt>
      <trkpt lat="40.9981410" lon="-2.1562900">
        <ele>1197.6</ele>
        <time>2020-09-12T12:36:19Z</time>
      </trkpt>
      <trkpt lat="40.9981830" lon="-2.1563490">
        <ele>1197.6</ele>
        <time>2020-09-12T12:36:20Z</time>
      </trkpt>
      <trkpt lat="40.9982250" lon="-2.1564070">
        <ele>1197.6</ele>
        <time>2020-09-12T12:36:21Z</time>
      </trkpt>
      <trkpt lat="40.9982670" lon="-2.1564660">
        <ele>1197.6</ele>
        <time>2020-09-12T12:36:22Z</time>
      </trkpt>
      <trkpt lat="40.9983080" lon="-2.1565270">
        <ele>1197.8</ele>
        <time>2020-09-12T12:36:23Z</time>
      </trkpt>
      <trkpt lat="40.9983480" lon="-2.1565860">
        <ele>1198.0</ele>
        <time>2020-09-12T12:36:24Z</time>
      </trkpt>
      <trkpt lat="40.9983870" lon="-2.1566440">
        <ele>1198.0</ele>
        <time>2020-09-12T12:36:25Z</time>
      </trkpt>
      <trkpt lat="40.9984270" lon="-2.1567020">
        <ele>1198.0</ele>
        <time>2020-09-12T12:36:26Z</time>
      </trkpt>
      <trkpt lat="40.9984660" lon="-2.1567600">
        <ele>1198.0</ele>
        <time>2020-09-12T12:36:27Z</time>
      </trkpt>
      <trkpt lat="40.9985060" lon="-2.1568180">
        <ele>1198.0</ele>
        <time>2020-09-12T12:36:28Z</time>
      </trkpt>
      <trkpt lat="40.9985480" lon="-2.1568770">
        <ele>1198.0</ele>
        <time>2020-09-12T12:36:29Z</time>
      </trkpt>
      <trkpt lat="40.9985870" lon="-2.1569350">
        <ele>1198.0</ele>
        <time>2020-09-12T12:36:30Z</time>
      </trkpt>
      <trkpt lat="40.9986250" lon="-2.1569950">
        <ele>1198.0</ele>
        <time>2020-09-12T12:36:31Z</time>
      </trkpt>
      <trkpt lat="40.9986640" lon="-2.1570540">
        <ele>1198.0</ele>
        <time>2020-09-12T12:36:32Z</time>
      </trkpt>
      <trkpt lat="40.9987030" lon="-2.1571110">
        <ele>1198.0</ele>
        <time>2020-09-12T12:36:33Z</time>
      </trkpt>
      <trkpt lat="40.9987420" lon="-2.1571680">
        <ele>1198.0</ele>
        <time>2020-09-12T12:36:34Z</time>
      </trkpt>
      <trkpt lat="40.9987800" lon="-2.1572260">
        <ele>1198.2</ele>
        <time>2020-09-12T12:36:35Z</time>
      </trkpt>
      <trkpt lat="40.9988180" lon="-2.1572840">
        <ele>1198.2</ele>
        <time>2020-09-12T12:36:36Z</time>
      </trkpt>
      <trkpt lat="40.9988560" lon="-2.1573430">
        <ele>1198.4</ele>
        <time>2020-09-12T12:36:37Z</time>
      </trkpt>
      <trkpt lat="40.9988950" lon="-2.1574000">
        <ele>1198.4</ele>
        <time>2020-09-12T12:36:38Z</time>
      </trkpt>
      <trkpt lat="40.9989340" lon="-2.1574570">
        <ele>1198.6</ele>
        <time>2020-09-12T12:36:39Z</time>
      </trkpt>
      <trkpt lat="40.9989730" lon="-2.1575140">
        <ele>1198.8</ele>
        <time>2020-09-12T12:36:40Z</time>
      </trkpt>
      <trkpt lat="40.9990130" lon="-2.1575690">
        <ele>1198.8</ele>
        <time>2020-09-12T12:36:41Z</time>
      </trkpt>
      <trkpt lat="40.9990520" lon="-2.1576250">
        <ele>1198.8</ele>
        <time>2020-09-12T12:36:42Z</time>
      </trkpt>
      <trkpt lat="40.9990910" lon="-2.1576790">
        <ele>1198.8</ele>
        <time>2020-09-12T12:36:43Z</time>
      </trkpt>
      <trkpt lat="40.9991310" lon="-2.1577310">
        <ele>1198.8</ele>
        <time>2020-09-12T12:36:44Z</time>
      </trkpt>
      <trkpt lat="40.9991730" lon="-2.1577820">
        <ele>1198.8</ele>
        <time>2020-09-12T12:36:45Z</time>
      </trkpt>
      <trkpt lat="40.9992160" lon="-2.1578320">
        <ele>1198.8</ele>
        <time>2020-09-12T12:36:46Z</time>
      </trkpt>
      <trkpt lat="40.9992590" lon="-2.1578820">
        <ele>1199.0</ele>
        <time>2020-09-12T12:36:47Z</time>
      </trkpt>
      <trkpt lat="40.9993030" lon="-2.1579310">
        <ele>1199.0</ele>
        <time>2020-09-12T12:36:48Z</time>
      </trkpt>
      <trkpt lat="40.9993460" lon="-2.1579800">
        <ele>1199.0</ele>
        <time>2020-09-12T12:36:49Z</time>
      </trkpt>
      <trkpt lat="40.9993880" lon="-2.1580310">
        <ele>1199.2</ele>
        <time>2020-09-12T12:36:50Z</time>
      </trkpt>
      <trkpt lat="40.9994300" lon="-2.1580810">
        <ele>1199.2</ele>
        <time>2020-09-12T12:36:51Z</time>
      </trkpt>
      <trkpt lat="40.9994720" lon="-2.1581320">
        <ele>1199.2</ele>
        <time>2020-09-12T12:36:52Z</time>
      </trkpt>
      <trkpt lat="40.9995130" lon="-2.1581830">
        <ele>1199.2</ele>
        <time>2020-09-12T12:36:53Z</time>
      </trkpt>
      <trkpt lat="40.9995540" lon="-2.1582350">
        <ele>1199.2</ele>
        <time>2020-09-12T12:36:54Z</time>
      </trkpt>
    </trkseg>
  </trk>
</gpx>
